<?xml version="1.0" encoding="UTF-8" standalone="no" ?>
<gpx xmlns="http://www.topografix.com/GPX/1/1" xmlns:xsi="http://www.w3.org/2001/XMLSchema-instance" xsi:schemaLocation="http://www.topografix.com/GPX/1/1 http://www.topografix.com/GPX/1/1/gpx.xsd" version="1.1" creator="VisuGPX - https://www.visugpx.com">
  <metadata>
    <name>Marato3k</name>
    <desc><![CDATA[Ribes- Taga- Ogassa- Puig Estela- Pardines-Cerveris- Ribes]]></desc>
  </metadata>
  <trk>
    <name><![CDATA[Marato3k_1]]></name>
    <trkseg>
      <trkpt lat="42.30184" lon="2.16713">
        <ele>906</ele>
        <time>2010-01-01T00:00:00Z</time>
      </trkpt>
      <trkpt lat="42.30186" lon="2.16712">
        <ele>906</ele>
        <time>2010-01-01T00:00:01Z</time>
      </trkpt>
      <trkpt lat="42.30188" lon="2.1671">
        <ele>906</ele>
        <time>2010-01-01T00:00:01Z</time>
      </trkpt>
      <trkpt lat="42.3019" lon="2.16706">
        <ele>906</ele>
        <time>2010-01-01T00:00:03Z</time>
      </trkpt>
      <trkpt lat="42.30191" lon="2.16704">
        <ele>907</ele>
        <time>2010-01-01T00:00:04Z</time>
      </trkpt>
      <trkpt lat="42.30191" lon="2.167">
        <ele>907</ele>
        <time>2010-01-01T00:00:05Z</time>
      </trkpt>
      <trkpt lat="42.30181" lon="2.16698">
        <ele>907</ele>
        <time>2010-01-01T00:00:09Z</time>
      </trkpt>
      <trkpt lat="42.30174" lon="2.16701">
        <ele>907</ele>
        <time>2010-01-01T00:00:12Z</time>
      </trkpt>
      <trkpt lat="42.30172" lon="2.16701">
        <ele>907</ele>
        <time>2010-01-01T00:00:13Z</time>
      </trkpt>
      <trkpt lat="42.3017" lon="2.16701">
        <ele>907</ele>
        <time>2010-01-01T00:00:14Z</time>
      </trkpt>
      <trkpt lat="42.30161" lon="2.16702">
        <ele>907</ele>
        <time>2010-01-01T00:00:17Z</time>
      </trkpt>
      <trkpt lat="42.30151" lon="2.16703">
        <ele>906</ele>
        <time>2010-01-01T00:00:21Z</time>
      </trkpt>
      <trkpt lat="42.30151" lon="2.16699">
        <ele>906</ele>
        <time>2010-01-01T00:00:22Z</time>
      </trkpt>
      <trkpt lat="42.30154" lon="2.16699">
        <ele>907</ele>
        <time>2010-01-01T00:00:23Z</time>
      </trkpt>
      <trkpt lat="42.30156" lon="2.16698">
        <ele>907</ele>
        <time>2010-01-01T00:00:24Z</time>
      </trkpt>
      <trkpt lat="42.30159" lon="2.16697">
        <ele>907</ele>
        <time>2010-01-01T00:00:25Z</time>
      </trkpt>
      <trkpt lat="42.30162" lon="2.16696">
        <ele>907</ele>
        <time>2010-01-01T00:00:26Z</time>
      </trkpt>
      <trkpt lat="42.30164" lon="2.16695">
        <ele>907</ele>
        <time>2010-01-01T00:00:27Z</time>
      </trkpt>
      <trkpt lat="42.30167" lon="2.16694">
        <ele>908</ele>
        <time>2010-01-01T00:00:28Z</time>
      </trkpt>
      <trkpt lat="42.3017" lon="2.16693">
        <ele>908</ele>
        <time>2010-01-01T00:00:29Z</time>
      </trkpt>
      <trkpt lat="42.30172" lon="2.16692">
        <ele>908</ele>
        <time>2010-01-01T00:00:30Z</time>
      </trkpt>
      <trkpt lat="42.30175" lon="2.16691">
        <ele>908</ele>
        <time>2010-01-01T00:00:32Z</time>
      </trkpt>
      <trkpt lat="42.30177" lon="2.16691">
        <ele>908</ele>
        <time>2010-01-01T00:00:33Z</time>
      </trkpt>
      <trkpt lat="42.30179" lon="2.1669">
        <ele>908</ele>
        <time>2010-01-01T00:00:33Z</time>
      </trkpt>
      <trkpt lat="42.30182" lon="2.16689">
        <ele>908</ele>
        <time>2010-01-01T00:00:34Z</time>
      </trkpt>
      <trkpt lat="42.3019" lon="2.16683">
        <ele>909</ele>
        <time>2010-01-01T00:00:38Z</time>
      </trkpt>
      <trkpt lat="42.30199" lon="2.16679">
        <ele>909</ele>
        <time>2010-01-01T00:00:42Z</time>
      </trkpt>
      <trkpt lat="42.30202" lon="2.16678">
        <ele>909</ele>
        <time>2010-01-01T00:00:43Z</time>
      </trkpt>
      <trkpt lat="42.30205" lon="2.16677">
        <ele>909</ele>
        <time>2010-01-01T00:00:44Z</time>
      </trkpt>
      <trkpt lat="42.30207" lon="2.16675">
        <ele>909</ele>
        <time>2010-01-01T00:00:45Z</time>
      </trkpt>
      <trkpt lat="42.3021" lon="2.16674">
        <ele>909</ele>
        <time>2010-01-01T00:00:47Z</time>
      </trkpt>
      <trkpt lat="42.30213" lon="2.16672">
        <ele>909</ele>
        <time>2010-01-01T00:00:48Z</time>
      </trkpt>
      <trkpt lat="42.30216" lon="2.1667">
        <ele>909</ele>
        <time>2010-01-01T00:00:49Z</time>
      </trkpt>
      <trkpt lat="42.30219" lon="2.1667">
        <ele>909</ele>
        <time>2010-01-01T00:00:51Z</time>
      </trkpt>
      <trkpt lat="42.30225" lon="2.16666">
        <ele>910</ele>
        <time>2010-01-01T00:00:53Z</time>
      </trkpt>
      <trkpt lat="42.30227" lon="2.16665">
        <ele>910</ele>
        <time>2010-01-01T00:00:54Z</time>
      </trkpt>
      <trkpt lat="42.3023" lon="2.16663">
        <ele>910</ele>
        <time>2010-01-01T00:00:55Z</time>
      </trkpt>
      <trkpt lat="42.30233" lon="2.16662">
        <ele>910</ele>
        <time>2010-01-01T00:00:57Z</time>
      </trkpt>
      <trkpt lat="42.30241" lon="2.16658">
        <ele>910</ele>
        <time>2010-01-01T00:01:00Z</time>
      </trkpt>
      <trkpt lat="42.3025" lon="2.16653">
        <ele>911</ele>
        <time>2010-01-01T00:01:04Z</time>
      </trkpt>
      <trkpt lat="42.30254" lon="2.16652">
        <ele>911</ele>
        <time>2010-01-01T00:01:05Z</time>
      </trkpt>
      <trkpt lat="42.30263" lon="2.16647">
        <ele>911</ele>
        <time>2010-01-01T00:01:09Z</time>
      </trkpt>
      <trkpt lat="42.30266" lon="2.16647">
        <ele>911</ele>
        <time>2010-01-01T00:01:11Z</time>
      </trkpt>
      <trkpt lat="42.30269" lon="2.16646">
        <ele>911</ele>
        <time>2010-01-01T00:01:12Z</time>
      </trkpt>
      <trkpt lat="42.30272" lon="2.16645">
        <ele>911</ele>
        <time>2010-01-01T00:01:13Z</time>
      </trkpt>
      <trkpt lat="42.30275" lon="2.16645">
        <ele>911</ele>
        <time>2010-01-01T00:01:14Z</time>
      </trkpt>
      <trkpt lat="42.30278" lon="2.16644">
        <ele>911</ele>
        <time>2010-01-01T00:01:16Z</time>
      </trkpt>
      <trkpt lat="42.30281" lon="2.16643">
        <ele>911</ele>
        <time>2010-01-01T00:01:17Z</time>
      </trkpt>
      <trkpt lat="42.30283" lon="2.16644">
        <ele>911</ele>
        <time>2010-01-01T00:01:18Z</time>
      </trkpt>
      <trkpt lat="42.30292" lon="2.16651">
        <ele>911</ele>
        <time>2010-01-01T00:01:22Z</time>
      </trkpt>
      <trkpt lat="42.30292" lon="2.16653">
        <ele>910</ele>
        <time>2010-01-01T00:01:22Z</time>
      </trkpt>
      <trkpt lat="42.30292" lon="2.16666">
        <ele>908</ele>
        <time>2010-01-01T00:01:26Z</time>
      </trkpt>
      <trkpt lat="42.30291" lon="2.1667">
        <ele>907</ele>
        <time>2010-01-01T00:01:27Z</time>
      </trkpt>
      <trkpt lat="42.30291" lon="2.16674">
        <ele>907</ele>
        <time>2010-01-01T00:01:28Z</time>
      </trkpt>
      <trkpt lat="42.3029" lon="2.16681">
        <ele>907</ele>
        <time>2010-01-01T00:01:31Z</time>
      </trkpt>
      <trkpt lat="42.30289" lon="2.16685">
        <ele>906</ele>
        <time>2010-01-01T00:01:32Z</time>
      </trkpt>
      <trkpt lat="42.30288" lon="2.16688">
        <ele>906</ele>
        <time>2010-01-01T00:01:33Z</time>
      </trkpt>
      <trkpt lat="42.30287" lon="2.16691">
        <ele>906</ele>
        <time>2010-01-01T00:01:34Z</time>
      </trkpt>
      <trkpt lat="42.30286" lon="2.16695">
        <ele>906</ele>
        <time>2010-01-01T00:01:35Z</time>
      </trkpt>
      <trkpt lat="42.30286" lon="2.16698">
        <ele>906</ele>
        <time>2010-01-01T00:01:36Z</time>
      </trkpt>
      <trkpt lat="42.30286" lon="2.16702">
        <ele>906</ele>
        <time>2010-01-01T00:01:37Z</time>
      </trkpt>
      <trkpt lat="42.30285" lon="2.16706">
        <ele>906</ele>
        <time>2010-01-01T00:01:38Z</time>
      </trkpt>
      <trkpt lat="42.30285" lon="2.1671">
        <ele>907</ele>
        <time>2010-01-01T00:01:39Z</time>
      </trkpt>
      <trkpt lat="42.30285" lon="2.16713">
        <ele>907</ele>
        <time>2010-01-01T00:01:40Z</time>
      </trkpt>
      <trkpt lat="42.30285" lon="2.16717">
        <ele>907</ele>
        <time>2010-01-01T00:01:42Z</time>
      </trkpt>
      <trkpt lat="42.30285" lon="2.16724">
        <ele>907</ele>
        <time>2010-01-01T00:01:44Z</time>
      </trkpt>
      <trkpt lat="42.30285" lon="2.16728">
        <ele>908</ele>
        <time>2010-01-01T00:01:45Z</time>
      </trkpt>
      <trkpt lat="42.30285" lon="2.16731">
        <ele>908</ele>
        <time>2010-01-01T00:01:46Z</time>
      </trkpt>
      <trkpt lat="42.30286" lon="2.16735">
        <ele>908</ele>
        <time>2010-01-01T00:01:47Z</time>
      </trkpt>
      <trkpt lat="42.30286" lon="2.16738">
        <ele>909</ele>
        <time>2010-01-01T00:01:48Z</time>
      </trkpt>
      <trkpt lat="42.30287" lon="2.16742">
        <ele>909</ele>
        <time>2010-01-01T00:01:49Z</time>
      </trkpt>
      <trkpt lat="42.30287" lon="2.16745">
        <ele>909</ele>
        <time>2010-01-01T00:01:50Z</time>
      </trkpt>
      <trkpt lat="42.30288" lon="2.16749">
        <ele>909</ele>
        <time>2010-01-01T00:01:51Z</time>
      </trkpt>
      <trkpt lat="42.30288" lon="2.16753">
        <ele>910</ele>
        <time>2010-01-01T00:01:52Z</time>
      </trkpt>
      <trkpt lat="42.30288" lon="2.16757">
        <ele>910</ele>
        <time>2010-01-01T00:01:53Z</time>
      </trkpt>
      <trkpt lat="42.30288" lon="2.1676">
        <ele>910</ele>
        <time>2010-01-01T00:01:55Z</time>
      </trkpt>
      <trkpt lat="42.30289" lon="2.16765">
        <ele>911</ele>
        <time>2010-01-01T00:01:56Z</time>
      </trkpt>
      <trkpt lat="42.30289" lon="2.16769">
        <ele>911</ele>
        <time>2010-01-01T00:01:57Z</time>
      </trkpt>
      <trkpt lat="42.30289" lon="2.16775">
        <ele>911</ele>
        <time>2010-01-01T00:01:59Z</time>
      </trkpt>
      <trkpt lat="42.30287" lon="2.16793">
        <ele>913</ele>
        <time>2010-01-01T00:02:04Z</time>
      </trkpt>
      <trkpt lat="42.30285" lon="2.16796">
        <ele>914</ele>
        <time>2010-01-01T00:02:05Z</time>
      </trkpt>
      <trkpt lat="42.30283" lon="2.16799">
        <ele>914</ele>
        <time>2010-01-01T00:02:07Z</time>
      </trkpt>
      <trkpt lat="42.30282" lon="2.168">
        <ele>914</ele>
        <time>2010-01-01T00:02:07Z</time>
      </trkpt>
      <trkpt lat="42.30279" lon="2.16803">
        <ele>915</ele>
        <time>2010-01-01T00:02:09Z</time>
      </trkpt>
      <trkpt lat="42.30277" lon="2.16804">
        <ele>915</ele>
        <time>2010-01-01T00:02:09Z</time>
      </trkpt>
      <trkpt lat="42.30269" lon="2.16811">
        <ele>917</ele>
        <time>2010-01-01T00:02:13Z</time>
      </trkpt>
      <trkpt lat="42.30268" lon="2.16819">
        <ele>919</ele>
        <time>2010-01-01T00:02:16Z</time>
      </trkpt>
      <trkpt lat="42.3027" lon="2.16821">
        <ele>919</ele>
        <time>2010-01-01T00:02:17Z</time>
      </trkpt>
      <trkpt lat="42.30272" lon="2.16823">
        <ele>919</ele>
        <time>2010-01-01T00:02:18Z</time>
      </trkpt>
      <trkpt lat="42.30274" lon="2.16824">
        <ele>920</ele>
        <time>2010-01-01T00:02:19Z</time>
      </trkpt>
      <trkpt lat="42.30276" lon="2.16826">
        <ele>920</ele>
        <time>2010-01-01T00:02:20Z</time>
      </trkpt>
      <trkpt lat="42.30277" lon="2.16827">
        <ele>920</ele>
        <time>2010-01-01T00:02:20Z</time>
      </trkpt>
      <trkpt lat="42.30279" lon="2.1683">
        <ele>920</ele>
        <time>2010-01-01T00:02:21Z</time>
      </trkpt>
      <trkpt lat="42.30281" lon="2.16831">
        <ele>921</ele>
        <time>2010-01-01T00:02:22Z</time>
      </trkpt>
      <trkpt lat="42.30284" lon="2.16833">
        <ele>921</ele>
        <time>2010-01-01T00:02:23Z</time>
      </trkpt>
      <trkpt lat="42.30286" lon="2.16835">
        <ele>921</ele>
        <time>2010-01-01T00:02:25Z</time>
      </trkpt>
      <trkpt lat="42.30288" lon="2.16837">
        <ele>921</ele>
        <time>2010-01-01T00:02:25Z</time>
      </trkpt>
      <trkpt lat="42.3029" lon="2.16838">
        <ele>921</ele>
        <time>2010-01-01T00:02:26Z</time>
      </trkpt>
      <trkpt lat="42.30292" lon="2.16839">
        <ele>921</ele>
        <time>2010-01-01T00:02:27Z</time>
      </trkpt>
      <trkpt lat="42.30295" lon="2.1684">
        <ele>921</ele>
        <time>2010-01-01T00:02:28Z</time>
      </trkpt>
      <trkpt lat="42.30297" lon="2.16841">
        <ele>921</ele>
        <time>2010-01-01T00:02:29Z</time>
      </trkpt>
      <trkpt lat="42.303" lon="2.16842">
        <ele>921</ele>
        <time>2010-01-01T00:02:31Z</time>
      </trkpt>
      <trkpt lat="42.30303" lon="2.16842">
        <ele>920</ele>
        <time>2010-01-01T00:02:32Z</time>
      </trkpt>
      <trkpt lat="42.30305" lon="2.16843">
        <ele>920</ele>
        <time>2010-01-01T00:02:33Z</time>
      </trkpt>
      <trkpt lat="42.30307" lon="2.16844">
        <ele>920</ele>
        <time>2010-01-01T00:02:34Z</time>
      </trkpt>
      <trkpt lat="42.3031" lon="2.16846">
        <ele>921</ele>
        <time>2010-01-01T00:02:35Z</time>
      </trkpt>
      <trkpt lat="42.30313" lon="2.16847">
        <ele>921</ele>
        <time>2010-01-01T00:02:36Z</time>
      </trkpt>
      <trkpt lat="42.30315" lon="2.16848">
        <ele>921</ele>
        <time>2010-01-01T00:02:37Z</time>
      </trkpt>
      <trkpt lat="42.30317" lon="2.16849">
        <ele>921</ele>
        <time>2010-01-01T00:02:38Z</time>
      </trkpt>
      <trkpt lat="42.3032" lon="2.1685">
        <ele>921</ele>
        <time>2010-01-01T00:02:39Z</time>
      </trkpt>
      <trkpt lat="42.30322" lon="2.16851">
        <ele>921</ele>
        <time>2010-01-01T00:02:40Z</time>
      </trkpt>
      <trkpt lat="42.30325" lon="2.16852">
        <ele>921</ele>
        <time>2010-01-01T00:02:41Z</time>
      </trkpt>
      <trkpt lat="42.30327" lon="2.16853">
        <ele>921</ele>
        <time>2010-01-01T00:02:42Z</time>
      </trkpt>
      <trkpt lat="42.30329" lon="2.16853">
        <ele>921</ele>
        <time>2010-01-01T00:02:43Z</time>
      </trkpt>
      <trkpt lat="42.30335" lon="2.16856">
        <ele>921</ele>
        <time>2010-01-01T00:02:45Z</time>
      </trkpt>
      <trkpt lat="42.30337" lon="2.16856">
        <ele>921</ele>
        <time>2010-01-01T00:02:46Z</time>
      </trkpt>
      <trkpt lat="42.30339" lon="2.16857">
        <ele>921</ele>
        <time>2010-01-01T00:02:47Z</time>
      </trkpt>
      <trkpt lat="42.30342" lon="2.16858">
        <ele>922</ele>
        <time>2010-01-01T00:02:48Z</time>
      </trkpt>
      <trkpt lat="42.30345" lon="2.16859">
        <ele>922</ele>
        <time>2010-01-01T00:02:49Z</time>
      </trkpt>
      <trkpt lat="42.30348" lon="2.1686">
        <ele>922</ele>
        <time>2010-01-01T00:02:50Z</time>
      </trkpt>
      <trkpt lat="42.3035" lon="2.16861">
        <ele>923</ele>
        <time>2010-01-01T00:02:52Z</time>
      </trkpt>
      <trkpt lat="42.30353" lon="2.16862">
        <ele>923</ele>
        <time>2010-01-01T00:02:53Z</time>
      </trkpt>
      <trkpt lat="42.30355" lon="2.16863">
        <ele>924</ele>
        <time>2010-01-01T00:02:54Z</time>
      </trkpt>
      <trkpt lat="42.30358" lon="2.16864">
        <ele>924</ele>
        <time>2010-01-01T00:02:55Z</time>
      </trkpt>
      <trkpt lat="42.30364" lon="2.16865">
        <ele>925</ele>
        <time>2010-01-01T00:02:57Z</time>
      </trkpt>
      <trkpt lat="42.30367" lon="2.16865">
        <ele>925</ele>
        <time>2010-01-01T00:02:58Z</time>
      </trkpt>
      <trkpt lat="42.30369" lon="2.16868">
        <ele>926</ele>
        <time>2010-01-01T00:03:00Z</time>
      </trkpt>
      <trkpt lat="42.30372" lon="2.16871">
        <ele>927</ele>
        <time>2010-01-01T00:03:01Z</time>
      </trkpt>
      <trkpt lat="42.30373" lon="2.16875">
        <ele>928</ele>
        <time>2010-01-01T00:03:02Z</time>
      </trkpt>
      <trkpt lat="42.30374" lon="2.16878">
        <ele>929</ele>
        <time>2010-01-01T00:03:03Z</time>
      </trkpt>
      <trkpt lat="42.30374" lon="2.16881">
        <ele>930</ele>
        <time>2010-01-01T00:03:04Z</time>
      </trkpt>
      <trkpt lat="42.30374" lon="2.16885">
        <ele>931</ele>
        <time>2010-01-01T00:03:05Z</time>
      </trkpt>
      <trkpt lat="42.30375" lon="2.16888">
        <ele>931</ele>
        <time>2010-01-01T00:03:06Z</time>
      </trkpt>
      <trkpt lat="42.30377" lon="2.16891">
        <ele>932</ele>
        <time>2010-01-01T00:03:07Z</time>
      </trkpt>
      <trkpt lat="42.30379" lon="2.16894">
        <ele>933</ele>
        <time>2010-01-01T00:03:08Z</time>
      </trkpt>
      <trkpt lat="42.3038" lon="2.16897">
        <ele>933</ele>
        <time>2010-01-01T00:03:09Z</time>
      </trkpt>
      <trkpt lat="42.30381" lon="2.169">
        <ele>933</ele>
        <time>2010-01-01T00:03:10Z</time>
      </trkpt>
      <trkpt lat="42.30382" lon="2.16903">
        <ele>934</ele>
        <time>2010-01-01T00:03:11Z</time>
      </trkpt>
      <trkpt lat="42.30384" lon="2.16905">
        <ele>934</ele>
        <time>2010-01-01T00:03:12Z</time>
      </trkpt>
      <trkpt lat="42.30385" lon="2.16908">
        <ele>935</ele>
        <time>2010-01-01T00:03:13Z</time>
      </trkpt>
      <trkpt lat="42.30388" lon="2.1691">
        <ele>935</ele>
        <time>2010-01-01T00:03:15Z</time>
      </trkpt>
      <trkpt lat="42.3039" lon="2.16912">
        <ele>935</ele>
        <time>2010-01-01T00:03:16Z</time>
      </trkpt>
      <trkpt lat="42.30393" lon="2.16913">
        <ele>935</ele>
        <time>2010-01-01T00:03:17Z</time>
      </trkpt>
      <trkpt lat="42.30396" lon="2.16914">
        <ele>935</ele>
        <time>2010-01-01T00:03:18Z</time>
      </trkpt>
      <trkpt lat="42.30398" lon="2.16915">
        <ele>935</ele>
        <time>2010-01-01T00:03:19Z</time>
      </trkpt>
      <trkpt lat="42.30401" lon="2.16916">
        <ele>935</ele>
        <time>2010-01-01T00:03:20Z</time>
      </trkpt>
      <trkpt lat="42.30404" lon="2.16917">
        <ele>935</ele>
        <time>2010-01-01T00:03:21Z</time>
      </trkpt>
      <trkpt lat="42.30407" lon="2.16918">
        <ele>936</ele>
        <time>2010-01-01T00:03:22Z</time>
      </trkpt>
      <trkpt lat="42.3041" lon="2.16918">
        <ele>936</ele>
        <time>2010-01-01T00:03:24Z</time>
      </trkpt>
      <trkpt lat="42.30413" lon="2.16919">
        <ele>936</ele>
        <time>2010-01-01T00:03:25Z</time>
      </trkpt>
      <trkpt lat="42.30415" lon="2.1692">
        <ele>936</ele>
        <time>2010-01-01T00:03:26Z</time>
      </trkpt>
      <trkpt lat="42.30418" lon="2.1692">
        <ele>936</ele>
        <time>2010-01-01T00:03:27Z</time>
      </trkpt>
      <trkpt lat="42.30421" lon="2.16921">
        <ele>936</ele>
        <time>2010-01-01T00:03:28Z</time>
      </trkpt>
      <trkpt lat="42.30424" lon="2.16921">
        <ele>936</ele>
        <time>2010-01-01T00:03:30Z</time>
      </trkpt>
      <trkpt lat="42.30427" lon="2.16922">
        <ele>936</ele>
        <time>2010-01-01T00:03:31Z</time>
      </trkpt>
      <trkpt lat="42.3043" lon="2.16923">
        <ele>936</ele>
        <time>2010-01-01T00:03:32Z</time>
      </trkpt>
      <trkpt lat="42.30433" lon="2.16923">
        <ele>936</ele>
        <time>2010-01-01T00:03:33Z</time>
      </trkpt>
      <trkpt lat="42.30436" lon="2.16924">
        <ele>936</ele>
        <time>2010-01-01T00:03:34Z</time>
      </trkpt>
      <trkpt lat="42.30439" lon="2.16924">
        <ele>936</ele>
        <time>2010-01-01T00:03:36Z</time>
      </trkpt>
      <trkpt lat="42.30442" lon="2.16925">
        <ele>936</ele>
        <time>2010-01-01T00:03:37Z</time>
      </trkpt>
      <trkpt lat="42.30445" lon="2.16925">
        <ele>936</ele>
        <time>2010-01-01T00:03:38Z</time>
      </trkpt>
      <trkpt lat="42.30448" lon="2.16925">
        <ele>936</ele>
        <time>2010-01-01T00:03:39Z</time>
      </trkpt>
      <trkpt lat="42.30454" lon="2.16925">
        <ele>935</ele>
        <time>2010-01-01T00:03:41Z</time>
      </trkpt>
      <trkpt lat="42.30456" lon="2.16924">
        <ele>935</ele>
        <time>2010-01-01T00:03:43Z</time>
      </trkpt>
      <trkpt lat="42.30459" lon="2.16923">
        <ele>935</ele>
        <time>2010-01-01T00:03:44Z</time>
      </trkpt>
      <trkpt lat="42.30462" lon="2.16922">
        <ele>935</ele>
        <time>2010-01-01T00:03:45Z</time>
      </trkpt>
      <trkpt lat="42.30465" lon="2.16921">
        <ele>934</ele>
        <time>2010-01-01T00:03:46Z</time>
      </trkpt>
      <trkpt lat="42.30467" lon="2.1692">
        <ele>934</ele>
        <time>2010-01-01T00:03:47Z</time>
      </trkpt>
      <trkpt lat="42.30469" lon="2.16919">
        <ele>934</ele>
        <time>2010-01-01T00:03:48Z</time>
      </trkpt>
      <trkpt lat="42.30472" lon="2.16918">
        <ele>934</ele>
        <time>2010-01-01T00:03:49Z</time>
      </trkpt>
      <trkpt lat="42.30475" lon="2.16917">
        <ele>933</ele>
        <time>2010-01-01T00:03:50Z</time>
      </trkpt>
      <trkpt lat="42.30477" lon="2.16915">
        <ele>933</ele>
        <time>2010-01-01T00:03:51Z</time>
      </trkpt>
      <trkpt lat="42.3048" lon="2.16914">
        <ele>932</ele>
        <time>2010-01-01T00:03:52Z</time>
      </trkpt>
      <trkpt lat="42.30483" lon="2.16913">
        <ele>931</ele>
        <time>2010-01-01T00:03:54Z</time>
      </trkpt>
      <trkpt lat="42.30486" lon="2.16912">
        <ele>931</ele>
        <time>2010-01-01T00:03:55Z</time>
      </trkpt>
      <trkpt lat="42.30489" lon="2.16912">
        <ele>930</ele>
        <time>2010-01-01T00:03:56Z</time>
      </trkpt>
      <trkpt lat="42.30491" lon="2.16913">
        <ele>930</ele>
        <time>2010-01-01T00:03:57Z</time>
      </trkpt>
      <trkpt lat="42.30494" lon="2.16914">
        <ele>930</ele>
        <time>2010-01-01T00:03:58Z</time>
      </trkpt>
      <trkpt lat="42.30497" lon="2.16915">
        <ele>930</ele>
        <time>2010-01-01T00:04:00Z</time>
      </trkpt>
      <trkpt lat="42.305" lon="2.16916">
        <ele>929</ele>
        <time>2010-01-01T00:04:01Z</time>
      </trkpt>
      <trkpt lat="42.30503" lon="2.16916">
        <ele>929</ele>
        <time>2010-01-01T00:04:02Z</time>
      </trkpt>
      <trkpt lat="42.30506" lon="2.16916">
        <ele>928</ele>
        <time>2010-01-01T00:04:03Z</time>
      </trkpt>
      <trkpt lat="42.30509" lon="2.16917">
        <ele>928</ele>
        <time>2010-01-01T00:04:04Z</time>
      </trkpt>
      <trkpt lat="42.30512" lon="2.16918">
        <ele>927</ele>
        <time>2010-01-01T00:04:05Z</time>
      </trkpt>
      <trkpt lat="42.30514" lon="2.16919">
        <ele>927</ele>
        <time>2010-01-01T00:04:06Z</time>
      </trkpt>
      <trkpt lat="42.30517" lon="2.16921">
        <ele>927</ele>
        <time>2010-01-01T00:04:08Z</time>
      </trkpt>
      <trkpt lat="42.30519" lon="2.16922">
        <ele>927</ele>
        <time>2010-01-01T00:04:09Z</time>
      </trkpt>
      <trkpt lat="42.30522" lon="2.16924">
        <ele>926</ele>
        <time>2010-01-01T00:04:10Z</time>
      </trkpt>
      <trkpt lat="42.30525" lon="2.16926">
        <ele>926</ele>
        <time>2010-01-01T00:04:11Z</time>
      </trkpt>
      <trkpt lat="42.30528" lon="2.16928">
        <ele>926</ele>
        <time>2010-01-01T00:04:12Z</time>
      </trkpt>
      <trkpt lat="42.3053" lon="2.1693">
        <ele>926</ele>
        <time>2010-01-01T00:04:14Z</time>
      </trkpt>
      <trkpt lat="42.30533" lon="2.16931">
        <ele>926</ele>
        <time>2010-01-01T00:04:15Z</time>
      </trkpt>
      <trkpt lat="42.30536" lon="2.16933">
        <ele>926</ele>
        <time>2010-01-01T00:04:16Z</time>
      </trkpt>
      <trkpt lat="42.30538" lon="2.16935">
        <ele>926</ele>
        <time>2010-01-01T00:04:17Z</time>
      </trkpt>
      <trkpt lat="42.30541" lon="2.16937">
        <ele>926</ele>
        <time>2010-01-01T00:04:18Z</time>
      </trkpt>
      <trkpt lat="42.30544" lon="2.16938">
        <ele>925</ele>
        <time>2010-01-01T00:04:20Z</time>
      </trkpt>
      <trkpt lat="42.30547" lon="2.1694">
        <ele>925</ele>
        <time>2010-01-01T00:04:21Z</time>
      </trkpt>
      <trkpt lat="42.3055" lon="2.16942">
        <ele>925</ele>
        <time>2010-01-01T00:04:22Z</time>
      </trkpt>
      <trkpt lat="42.30553" lon="2.16944">
        <ele>925</ele>
        <time>2010-01-01T00:04:24Z</time>
      </trkpt>
      <trkpt lat="42.30555" lon="2.16946">
        <ele>925</ele>
        <time>2010-01-01T00:04:25Z</time>
      </trkpt>
      <trkpt lat="42.30558" lon="2.16948">
        <ele>925</ele>
        <time>2010-01-01T00:04:26Z</time>
      </trkpt>
      <trkpt lat="42.30561" lon="2.16949">
        <ele>925</ele>
        <time>2010-01-01T00:04:27Z</time>
      </trkpt>
      <trkpt lat="42.30563" lon="2.16951">
        <ele>925</ele>
        <time>2010-01-01T00:04:28Z</time>
      </trkpt>
      <trkpt lat="42.30566" lon="2.16952">
        <ele>925</ele>
        <time>2010-01-01T00:04:29Z</time>
      </trkpt>
      <trkpt lat="42.30569" lon="2.16954">
        <ele>925</ele>
        <time>2010-01-01T00:04:31Z</time>
      </trkpt>
      <trkpt lat="42.30571" lon="2.16956">
        <ele>925</ele>
        <time>2010-01-01T00:04:32Z</time>
      </trkpt>
      <trkpt lat="42.30573" lon="2.16957">
        <ele>925</ele>
        <time>2010-01-01T00:04:33Z</time>
      </trkpt>
      <trkpt lat="42.30575" lon="2.1696">
        <ele>925</ele>
        <time>2010-01-01T00:04:34Z</time>
      </trkpt>
      <trkpt lat="42.30577" lon="2.16963">
        <ele>925</ele>
        <time>2010-01-01T00:04:35Z</time>
      </trkpt>
      <trkpt lat="42.30579" lon="2.16966">
        <ele>925</ele>
        <time>2010-01-01T00:04:36Z</time>
      </trkpt>
      <trkpt lat="42.30581" lon="2.16969">
        <ele>926</ele>
        <time>2010-01-01T00:04:37Z</time>
      </trkpt>
      <trkpt lat="42.30582" lon="2.16973">
        <ele>926</ele>
        <time>2010-01-01T00:04:39Z</time>
      </trkpt>
      <trkpt lat="42.30583" lon="2.16977">
        <ele>927</ele>
        <time>2010-01-01T00:04:40Z</time>
      </trkpt>
      <trkpt lat="42.30584" lon="2.1698">
        <ele>928</ele>
        <time>2010-01-01T00:04:41Z</time>
      </trkpt>
      <trkpt lat="42.30585" lon="2.16984">
        <ele>929</ele>
        <time>2010-01-01T00:04:42Z</time>
      </trkpt>
      <trkpt lat="42.30585" lon="2.16988">
        <ele>930</ele>
        <time>2010-01-01T00:04:43Z</time>
      </trkpt>
      <trkpt lat="42.30586" lon="2.16992">
        <ele>930</ele>
        <time>2010-01-01T00:04:44Z</time>
      </trkpt>
      <trkpt lat="42.30587" lon="2.16995">
        <ele>931</ele>
        <time>2010-01-01T00:04:45Z</time>
      </trkpt>
      <trkpt lat="42.30588" lon="2.16999">
        <ele>932</ele>
        <time>2010-01-01T00:04:47Z</time>
      </trkpt>
      <trkpt lat="42.30589" lon="2.17002">
        <ele>932</ele>
        <time>2010-01-01T00:04:48Z</time>
      </trkpt>
      <trkpt lat="42.30591" lon="2.17006">
        <ele>932</ele>
        <time>2010-01-01T00:04:49Z</time>
      </trkpt>
      <trkpt lat="42.30592" lon="2.17009">
        <ele>933</ele>
        <time>2010-01-01T00:04:50Z</time>
      </trkpt>
      <trkpt lat="42.30593" lon="2.17013">
        <ele>933</ele>
        <time>2010-01-01T00:04:51Z</time>
      </trkpt>
      <trkpt lat="42.30594" lon="2.17016">
        <ele>933</ele>
        <time>2010-01-01T00:04:52Z</time>
      </trkpt>
      <trkpt lat="42.30596" lon="2.17019">
        <ele>934</ele>
        <time>2010-01-01T00:04:53Z</time>
      </trkpt>
      <trkpt lat="42.30597" lon="2.17023">
        <ele>934</ele>
        <time>2010-01-01T00:04:55Z</time>
      </trkpt>
      <trkpt lat="42.306" lon="2.17028">
        <ele>934</ele>
        <time>2010-01-01T00:04:56Z</time>
      </trkpt>
      <trkpt lat="42.30601" lon="2.17036">
        <ele>935</ele>
        <time>2010-01-01T00:04:59Z</time>
      </trkpt>
      <trkpt lat="42.30602" lon="2.1704">
        <ele>935</ele>
        <time>2010-01-01T00:05:00Z</time>
      </trkpt>
      <trkpt lat="42.30605" lon="2.17046">
        <ele>936</ele>
        <time>2010-01-01T00:05:02Z</time>
      </trkpt>
      <trkpt lat="42.30606" lon="2.17049">
        <ele>936</ele>
        <time>2010-01-01T00:05:03Z</time>
      </trkpt>
      <trkpt lat="42.30607" lon="2.17052">
        <ele>937</ele>
        <time>2010-01-01T00:05:04Z</time>
      </trkpt>
      <trkpt lat="42.30609" lon="2.17055">
        <ele>937</ele>
        <time>2010-01-01T00:05:05Z</time>
      </trkpt>
      <trkpt lat="42.30611" lon="2.17058">
        <ele>937</ele>
        <time>2010-01-01T00:05:06Z</time>
      </trkpt>
      <trkpt lat="42.30614" lon="2.17059">
        <ele>937</ele>
        <time>2010-01-01T00:05:08Z</time>
      </trkpt>
      <trkpt lat="42.30616" lon="2.1706">
        <ele>938</ele>
        <time>2010-01-01T00:05:08Z</time>
      </trkpt>
      <trkpt lat="42.30619" lon="2.17061">
        <ele>937</ele>
        <time>2010-01-01T00:05:10Z</time>
      </trkpt>
      <trkpt lat="42.30624" lon="2.17062">
        <ele>937</ele>
        <time>2010-01-01T00:05:12Z</time>
      </trkpt>
      <trkpt lat="42.30628" lon="2.17062">
        <ele>937</ele>
        <time>2010-01-01T00:05:13Z</time>
      </trkpt>
      <trkpt lat="42.3063" lon="2.17063">
        <ele>937</ele>
        <time>2010-01-01T00:05:14Z</time>
      </trkpt>
      <trkpt lat="42.30633" lon="2.17064">
        <ele>937</ele>
        <time>2010-01-01T00:05:15Z</time>
      </trkpt>
      <trkpt lat="42.30636" lon="2.17065">
        <ele>937</ele>
        <time>2010-01-01T00:05:17Z</time>
      </trkpt>
      <trkpt lat="42.30638" lon="2.17066">
        <ele>937</ele>
        <time>2010-01-01T00:05:18Z</time>
      </trkpt>
      <trkpt lat="42.30641" lon="2.17068">
        <ele>937</ele>
        <time>2010-01-01T00:05:19Z</time>
      </trkpt>
      <trkpt lat="42.30643" lon="2.17069">
        <ele>937</ele>
        <time>2010-01-01T00:05:20Z</time>
      </trkpt>
      <trkpt lat="42.30646" lon="2.17071">
        <ele>938</ele>
        <time>2010-01-01T00:05:21Z</time>
      </trkpt>
      <trkpt lat="42.30648" lon="2.17073">
        <ele>938</ele>
        <time>2010-01-01T00:05:22Z</time>
      </trkpt>
      <trkpt lat="42.3065" lon="2.17075">
        <ele>938</ele>
        <time>2010-01-01T00:05:23Z</time>
      </trkpt>
      <trkpt lat="42.30653" lon="2.17076">
        <ele>938</ele>
        <time>2010-01-01T00:05:24Z</time>
      </trkpt>
      <trkpt lat="42.30656" lon="2.17078">
        <ele>939</ele>
        <time>2010-01-01T00:05:25Z</time>
      </trkpt>
      <trkpt lat="42.30658" lon="2.1708">
        <ele>939</ele>
        <time>2010-01-01T00:05:27Z</time>
      </trkpt>
      <trkpt lat="42.3066" lon="2.17082">
        <ele>939</ele>
        <time>2010-01-01T00:05:27Z</time>
      </trkpt>
      <trkpt lat="42.30663" lon="2.17083">
        <ele>939</ele>
        <time>2010-01-01T00:05:29Z</time>
      </trkpt>
      <trkpt lat="42.30666" lon="2.17084">
        <ele>939</ele>
        <time>2010-01-01T00:05:30Z</time>
      </trkpt>
      <trkpt lat="42.30668" lon="2.17085">
        <ele>938</ele>
        <time>2010-01-01T00:05:31Z</time>
      </trkpt>
      <trkpt lat="42.3067" lon="2.17087">
        <ele>938</ele>
        <time>2010-01-01T00:05:32Z</time>
      </trkpt>
      <trkpt lat="42.30674" lon="2.1709">
        <ele>937</ele>
        <time>2010-01-01T00:05:34Z</time>
      </trkpt>
      <trkpt lat="42.30677" lon="2.17091">
        <ele>937</ele>
        <time>2010-01-01T00:05:35Z</time>
      </trkpt>
      <trkpt lat="42.30681" lon="2.17092">
        <ele>936</ele>
        <time>2010-01-01T00:05:36Z</time>
      </trkpt>
      <trkpt lat="42.30684" lon="2.17094">
        <ele>935</ele>
        <time>2010-01-01T00:05:38Z</time>
      </trkpt>
      <trkpt lat="42.30686" lon="2.17095">
        <ele>935</ele>
        <time>2010-01-01T00:05:39Z</time>
      </trkpt>
      <trkpt lat="42.3069" lon="2.17096">
        <ele>933</ele>
        <time>2010-01-01T00:05:41Z</time>
      </trkpt>
      <trkpt lat="42.30694" lon="2.17098">
        <ele>933</ele>
        <time>2010-01-01T00:05:42Z</time>
      </trkpt>
      <trkpt lat="42.30699" lon="2.17101">
        <ele>932</ele>
        <time>2010-01-01T00:05:44Z</time>
      </trkpt>
      <trkpt lat="42.30702" lon="2.17103">
        <ele>932</ele>
        <time>2010-01-01T00:05:46Z</time>
      </trkpt>
      <trkpt lat="42.30706" lon="2.17108">
        <ele>932</ele>
        <time>2010-01-01T00:05:48Z</time>
      </trkpt>
      <trkpt lat="42.30708" lon="2.17111">
        <ele>932</ele>
        <time>2010-01-01T00:05:49Z</time>
      </trkpt>
      <trkpt lat="42.30711" lon="2.17113">
        <ele>932</ele>
        <time>2010-01-01T00:05:50Z</time>
      </trkpt>
      <trkpt lat="42.30713" lon="2.17115">
        <ele>933</ele>
        <time>2010-01-01T00:05:51Z</time>
      </trkpt>
      <trkpt lat="42.30715" lon="2.17118">
        <ele>933</ele>
        <time>2010-01-01T00:05:53Z</time>
      </trkpt>
      <trkpt lat="42.30717" lon="2.17121">
        <ele>934</ele>
        <time>2010-01-01T00:05:54Z</time>
      </trkpt>
      <trkpt lat="42.30719" lon="2.17125">
        <ele>935</ele>
        <time>2010-01-01T00:05:55Z</time>
      </trkpt>
      <trkpt lat="42.3072" lon="2.17128">
        <ele>936</ele>
        <time>2010-01-01T00:05:56Z</time>
      </trkpt>
      <trkpt lat="42.30721" lon="2.17131">
        <ele>937</ele>
        <time>2010-01-01T00:05:57Z</time>
      </trkpt>
      <trkpt lat="42.30722" lon="2.17135">
        <ele>938</ele>
        <time>2010-01-01T00:05:58Z</time>
      </trkpt>
      <trkpt lat="42.30723" lon="2.17139">
        <ele>939</ele>
        <time>2010-01-01T00:06:00Z</time>
      </trkpt>
      <trkpt lat="42.30724" lon="2.17143">
        <ele>941</ele>
        <time>2010-01-01T00:06:01Z</time>
      </trkpt>
      <trkpt lat="42.30724" lon="2.17146">
        <ele>942</ele>
        <time>2010-01-01T00:06:02Z</time>
      </trkpt>
      <trkpt lat="42.30724" lon="2.1715">
        <ele>943</ele>
        <time>2010-01-01T00:06:03Z</time>
      </trkpt>
      <trkpt lat="42.30724" lon="2.17153">
        <ele>944</ele>
        <time>2010-01-01T00:06:04Z</time>
      </trkpt>
      <trkpt lat="42.30728" lon="2.17166">
        <ele>948</ele>
        <time>2010-01-01T00:06:08Z</time>
      </trkpt>
      <trkpt lat="42.3073" lon="2.17178">
        <ele>951</ele>
        <time>2010-01-01T00:06:12Z</time>
      </trkpt>
      <trkpt lat="42.3073" lon="2.17191">
        <ele>954</ele>
        <time>2010-01-01T00:06:15Z</time>
      </trkpt>
      <trkpt lat="42.30735" lon="2.17192">
        <ele>954</ele>
        <time>2010-01-01T00:06:18Z</time>
      </trkpt>
      <trkpt lat="42.30741" lon="2.17188">
        <ele>952</ele>
        <time>2010-01-01T00:06:20Z</time>
      </trkpt>
      <trkpt lat="42.30743" lon="2.17186">
        <ele>951</ele>
        <time>2010-01-01T00:06:21Z</time>
      </trkpt>
      <trkpt lat="42.30745" lon="2.17185">
        <ele>950</ele>
        <time>2010-01-01T00:06:22Z</time>
      </trkpt>
      <trkpt lat="42.30747" lon="2.17184">
        <ele>950</ele>
        <time>2010-01-01T00:06:23Z</time>
      </trkpt>
      <trkpt lat="42.3075" lon="2.17183">
        <ele>949</ele>
        <time>2010-01-01T00:06:24Z</time>
      </trkpt>
      <trkpt lat="42.30753" lon="2.17185">
        <ele>949</ele>
        <time>2010-01-01T00:06:25Z</time>
      </trkpt>
      <trkpt lat="42.30755" lon="2.17185">
        <ele>949</ele>
        <time>2010-01-01T00:06:26Z</time>
      </trkpt>
      <trkpt lat="42.30756" lon="2.17187">
        <ele>949</ele>
        <time>2010-01-01T00:06:27Z</time>
      </trkpt>
      <trkpt lat="42.30758" lon="2.17189">
        <ele>949</ele>
        <time>2010-01-01T00:06:28Z</time>
      </trkpt>
      <trkpt lat="42.30759" lon="2.17191">
        <ele>949</ele>
        <time>2010-01-01T00:06:29Z</time>
      </trkpt>
      <trkpt lat="42.30761" lon="2.17193">
        <ele>950</ele>
        <time>2010-01-01T00:06:30Z</time>
      </trkpt>
      <trkpt lat="42.30762" lon="2.17196">
        <ele>950</ele>
        <time>2010-01-01T00:06:31Z</time>
      </trkpt>
      <trkpt lat="42.30764" lon="2.17198">
        <ele>950</ele>
        <time>2010-01-01T00:06:32Z</time>
      </trkpt>
      <trkpt lat="42.30766" lon="2.172">
        <ele>950</ele>
        <time>2010-01-01T00:06:33Z</time>
      </trkpt>
      <trkpt lat="42.30768" lon="2.17202">
        <ele>951</ele>
        <time>2010-01-01T00:06:34Z</time>
      </trkpt>
      <trkpt lat="42.3077" lon="2.17204">
        <ele>951</ele>
        <time>2010-01-01T00:06:35Z</time>
      </trkpt>
      <trkpt lat="42.30772" lon="2.17206">
        <ele>951</ele>
        <time>2010-01-01T00:06:36Z</time>
      </trkpt>
      <trkpt lat="42.30774" lon="2.17209">
        <ele>951</ele>
        <time>2010-01-01T00:06:36Z</time>
      </trkpt>
      <trkpt lat="42.30776" lon="2.17212">
        <ele>952</ele>
        <time>2010-01-01T00:06:38Z</time>
      </trkpt>
      <trkpt lat="42.30777" lon="2.17214">
        <ele>952</ele>
        <time>2010-01-01T00:06:39Z</time>
      </trkpt>
      <trkpt lat="42.30778" lon="2.17217">
        <ele>953</ele>
        <time>2010-01-01T00:06:40Z</time>
      </trkpt>
      <trkpt lat="42.3078" lon="2.17219">
        <ele>953</ele>
        <time>2010-01-01T00:06:41Z</time>
      </trkpt>
      <trkpt lat="42.30782" lon="2.1722">
        <ele>953</ele>
        <time>2010-01-01T00:06:42Z</time>
      </trkpt>
      <trkpt lat="42.30785" lon="2.17222">
        <ele>953</ele>
        <time>2010-01-01T00:06:43Z</time>
      </trkpt>
      <trkpt lat="42.30787" lon="2.17224">
        <ele>953</ele>
        <time>2010-01-01T00:06:44Z</time>
      </trkpt>
      <trkpt lat="42.3079" lon="2.17226">
        <ele>953</ele>
        <time>2010-01-01T00:06:45Z</time>
      </trkpt>
      <trkpt lat="42.30793" lon="2.17227">
        <ele>953</ele>
        <time>2010-01-01T00:06:46Z</time>
      </trkpt>
      <trkpt lat="42.30796" lon="2.1723">
        <ele>953</ele>
        <time>2010-01-01T00:06:47Z</time>
      </trkpt>
      <trkpt lat="42.30799" lon="2.17231">
        <ele>953</ele>
        <time>2010-01-01T00:06:49Z</time>
      </trkpt>
      <trkpt lat="42.30801" lon="2.17232">
        <ele>953</ele>
        <time>2010-01-01T00:06:50Z</time>
      </trkpt>
      <trkpt lat="42.30803" lon="2.17232">
        <ele>953</ele>
        <time>2010-01-01T00:06:51Z</time>
      </trkpt>
      <trkpt lat="42.30806" lon="2.17234">
        <ele>952</ele>
        <time>2010-01-01T00:06:52Z</time>
      </trkpt>
      <trkpt lat="42.30809" lon="2.17235">
        <ele>953</ele>
        <time>2010-01-01T00:06:53Z</time>
      </trkpt>
      <trkpt lat="42.30811" lon="2.17237">
        <ele>953</ele>
        <time>2010-01-01T00:06:54Z</time>
      </trkpt>
      <trkpt lat="42.30814" lon="2.17239">
        <ele>953</ele>
        <time>2010-01-01T00:06:55Z</time>
      </trkpt>
      <trkpt lat="42.30816" lon="2.1724">
        <ele>953</ele>
        <time>2010-01-01T00:06:56Z</time>
      </trkpt>
      <trkpt lat="42.30819" lon="2.17241">
        <ele>953</ele>
        <time>2010-01-01T00:06:57Z</time>
      </trkpt>
      <trkpt lat="42.30821" lon="2.17242">
        <ele>952</ele>
        <time>2010-01-01T00:06:58Z</time>
      </trkpt>
      <trkpt lat="42.30824" lon="2.17243">
        <ele>952</ele>
        <time>2010-01-01T00:06:59Z</time>
      </trkpt>
      <trkpt lat="42.30825" lon="2.17245">
        <ele>953</ele>
        <time>2010-01-01T00:07:00Z</time>
      </trkpt>
      <trkpt lat="42.30827" lon="2.17248">
        <ele>953</ele>
        <time>2010-01-01T00:07:01Z</time>
      </trkpt>
      <trkpt lat="42.30829" lon="2.1725">
        <ele>953</ele>
        <time>2010-01-01T00:07:02Z</time>
      </trkpt>
      <trkpt lat="42.3083" lon="2.17252">
        <ele>954</ele>
        <time>2010-01-01T00:07:03Z</time>
      </trkpt>
      <trkpt lat="42.30832" lon="2.17254">
        <ele>954</ele>
        <time>2010-01-01T00:07:04Z</time>
      </trkpt>
      <trkpt lat="42.30833" lon="2.17256">
        <ele>955</ele>
        <time>2010-01-01T00:07:05Z</time>
      </trkpt>
      <trkpt lat="42.30835" lon="2.17259">
        <ele>956</ele>
        <time>2010-01-01T00:07:06Z</time>
      </trkpt>
      <trkpt lat="42.30836" lon="2.17262">
        <ele>957</ele>
        <time>2010-01-01T00:07:07Z</time>
      </trkpt>
      <trkpt lat="42.30836" lon="2.17265">
        <ele>958</ele>
        <time>2010-01-01T00:07:08Z</time>
      </trkpt>
      <trkpt lat="42.30837" lon="2.17268">
        <ele>959</ele>
        <time>2010-01-01T00:07:09Z</time>
      </trkpt>
      <trkpt lat="42.30838" lon="2.1727">
        <ele>960</ele>
        <time>2010-01-01T00:07:09Z</time>
      </trkpt>
      <trkpt lat="42.30836" lon="2.17273">
        <ele>961</ele>
        <time>2010-01-01T00:07:10Z</time>
      </trkpt>
      <trkpt lat="42.30834" lon="2.17276">
        <ele>963</ele>
        <time>2010-01-01T00:07:12Z</time>
      </trkpt>
      <trkpt lat="42.30832" lon="2.17277">
        <ele>963</ele>
        <time>2010-01-01T00:07:13Z</time>
      </trkpt>
      <trkpt lat="42.3083" lon="2.17277">
        <ele>964</ele>
        <time>2010-01-01T00:07:14Z</time>
      </trkpt>
      <trkpt lat="42.30828" lon="2.17275">
        <ele>963</ele>
        <time>2010-01-01T00:07:15Z</time>
      </trkpt>
      <trkpt lat="42.30826" lon="2.17273">
        <ele>963</ele>
        <time>2010-01-01T00:07:15Z</time>
      </trkpt>
      <trkpt lat="42.30825" lon="2.1727">
        <ele>962</ele>
        <time>2010-01-01T00:07:17Z</time>
      </trkpt>
      <trkpt lat="42.30823" lon="2.17269">
        <ele>962</ele>
        <time>2010-01-01T00:07:17Z</time>
      </trkpt>
      <trkpt lat="42.30821" lon="2.17267">
        <ele>962</ele>
        <time>2010-01-01T00:07:18Z</time>
      </trkpt>
      <trkpt lat="42.30815" lon="2.17276">
        <ele>966</ele>
        <time>2010-01-01T00:07:22Z</time>
      </trkpt>
      <trkpt lat="42.30823" lon="2.17284">
        <ele>968</ele>
        <time>2010-01-01T00:07:26Z</time>
      </trkpt>
      <trkpt lat="42.30824" lon="2.17297">
        <ele>974</ele>
        <time>2010-01-01T00:07:29Z</time>
      </trkpt>
      <trkpt lat="42.30834" lon="2.17297">
        <ele>972</ele>
        <time>2010-01-01T00:07:34Z</time>
      </trkpt>
      <trkpt lat="42.30838" lon="2.17306">
        <ele>976</ele>
        <time>2010-01-01T00:07:37Z</time>
      </trkpt>
      <trkpt lat="42.30838" lon="2.17309">
        <ele>977</ele>
        <time>2010-01-01T00:07:38Z</time>
      </trkpt>
      <trkpt lat="42.30839" lon="2.17312">
        <ele>978</ele>
        <time>2010-01-01T00:07:39Z</time>
      </trkpt>
      <trkpt lat="42.30841" lon="2.17313">
        <ele>978</ele>
        <time>2010-01-01T00:07:39Z</time>
      </trkpt>
      <trkpt lat="42.30843" lon="2.17315">
        <ele>978</ele>
        <time>2010-01-01T00:07:40Z</time>
      </trkpt>
      <trkpt lat="42.30844" lon="2.17317">
        <ele>979</ele>
        <time>2010-01-01T00:07:41Z</time>
      </trkpt>
      <trkpt lat="42.30846" lon="2.17319">
        <ele>979</ele>
        <time>2010-01-01T00:07:42Z</time>
      </trkpt>
      <trkpt lat="42.3085" lon="2.17331">
        <ele>983</ele>
        <time>2010-01-01T00:07:46Z</time>
      </trkpt>
      <trkpt lat="42.3085" lon="2.17334">
        <ele>984</ele>
        <time>2010-01-01T00:07:47Z</time>
      </trkpt>
      <trkpt lat="42.30851" lon="2.17336">
        <ele>984</ele>
        <time>2010-01-01T00:07:48Z</time>
      </trkpt>
      <trkpt lat="42.30853" lon="2.17338">
        <ele>985</ele>
        <time>2010-01-01T00:07:49Z</time>
      </trkpt>
      <trkpt lat="42.30855" lon="2.1734">
        <ele>985</ele>
        <time>2010-01-01T00:07:49Z</time>
      </trkpt>
      <trkpt lat="42.30861" lon="2.17348">
        <ele>986</ele>
        <time>2010-01-01T00:07:53Z</time>
      </trkpt>
      <trkpt lat="42.30862" lon="2.17351">
        <ele>987</ele>
        <time>2010-01-01T00:07:54Z</time>
      </trkpt>
      <trkpt lat="42.30864" lon="2.17353">
        <ele>987</ele>
        <time>2010-01-01T00:07:55Z</time>
      </trkpt>
      <trkpt lat="42.30869" lon="2.17355">
        <ele>986</ele>
        <time>2010-01-01T00:07:57Z</time>
      </trkpt>
      <trkpt lat="42.3087" lon="2.17358">
        <ele>987</ele>
        <time>2010-01-01T00:07:58Z</time>
      </trkpt>
      <trkpt lat="42.3087" lon="2.17361">
        <ele>988</ele>
        <time>2010-01-01T00:07:59Z</time>
      </trkpt>
      <trkpt lat="42.30871" lon="2.17364">
        <ele>989</ele>
        <time>2010-01-01T00:08:00Z</time>
      </trkpt>
      <trkpt lat="42.30872" lon="2.17366">
        <ele>989</ele>
        <time>2010-01-01T00:08:00Z</time>
      </trkpt>
      <trkpt lat="42.30873" lon="2.17368">
        <ele>989</ele>
        <time>2010-01-01T00:08:01Z</time>
      </trkpt>
      <trkpt lat="42.30874" lon="2.17371">
        <ele>990</ele>
        <time>2010-01-01T00:08:02Z</time>
      </trkpt>
      <trkpt lat="42.30875" lon="2.17373">
        <ele>991</ele>
        <time>2010-01-01T00:08:03Z</time>
      </trkpt>
      <trkpt lat="42.30876" lon="2.17376">
        <ele>992</ele>
        <time>2010-01-01T00:08:04Z</time>
      </trkpt>
      <trkpt lat="42.30877" lon="2.1738">
        <ele>993</ele>
        <time>2010-01-01T00:08:05Z</time>
      </trkpt>
      <trkpt lat="42.30879" lon="2.17392">
        <ele>997</ele>
        <time>2010-01-01T00:08:09Z</time>
      </trkpt>
      <trkpt lat="42.30875" lon="2.17402">
        <ele>1000</ele>
        <time>2010-01-01T00:08:12Z</time>
      </trkpt>
      <trkpt lat="42.30874" lon="2.17404">
        <ele>1001</ele>
        <time>2010-01-01T00:08:13Z</time>
      </trkpt>
      <trkpt lat="42.30872" lon="2.17405">
        <ele>1002</ele>
        <time>2010-01-01T00:08:14Z</time>
      </trkpt>
      <trkpt lat="42.30871" lon="2.17407">
        <ele>1002</ele>
        <time>2010-01-01T00:08:14Z</time>
      </trkpt>
      <trkpt lat="42.3087" lon="2.17409">
        <ele>1003</ele>
        <time>2010-01-01T00:08:15Z</time>
      </trkpt>
      <trkpt lat="42.30872" lon="2.17419">
        <ele>1005</ele>
        <time>2010-01-01T00:08:18Z</time>
      </trkpt>
      <trkpt lat="42.30873" lon="2.17421">
        <ele>1006</ele>
        <time>2010-01-01T00:08:19Z</time>
      </trkpt>
      <trkpt lat="42.30874" lon="2.17424">
        <ele>1006</ele>
        <time>2010-01-01T00:08:20Z</time>
      </trkpt>
      <trkpt lat="42.30882" lon="2.1743">
        <ele>1006</ele>
        <time>2010-01-01T00:08:24Z</time>
      </trkpt>
      <trkpt lat="42.30883" lon="2.17432">
        <ele>1006</ele>
        <time>2010-01-01T00:08:25Z</time>
      </trkpt>
      <trkpt lat="42.30882" lon="2.17436">
        <ele>1007</ele>
        <time>2010-01-01T00:08:26Z</time>
      </trkpt>
      <trkpt lat="42.30881" lon="2.17438">
        <ele>1008</ele>
        <time>2010-01-01T00:08:26Z</time>
      </trkpt>
      <trkpt lat="42.30876" lon="2.17449">
        <ele>1013</ele>
        <time>2010-01-01T00:08:30Z</time>
      </trkpt>
      <trkpt lat="42.30879" lon="2.17447">
        <ele>1011</ele>
        <time>2010-01-01T00:08:32Z</time>
      </trkpt>
      <trkpt lat="42.30882" lon="2.17447">
        <ele>1011</ele>
        <time>2010-01-01T00:08:33Z</time>
      </trkpt>
      <trkpt lat="42.30884" lon="2.17446">
        <ele>1010</ele>
        <time>2010-01-01T00:08:34Z</time>
      </trkpt>
      <trkpt lat="42.30886" lon="2.17445">
        <ele>1009</ele>
        <time>2010-01-01T00:08:35Z</time>
      </trkpt>
      <trkpt lat="42.30889" lon="2.17445">
        <ele>1009</ele>
        <time>2010-01-01T00:08:36Z</time>
      </trkpt>
      <trkpt lat="42.30891" lon="2.17445">
        <ele>1008</ele>
        <time>2010-01-01T00:08:37Z</time>
      </trkpt>
      <trkpt lat="42.30894" lon="2.17444">
        <ele>1008</ele>
        <time>2010-01-01T00:08:38Z</time>
      </trkpt>
      <trkpt lat="42.30896" lon="2.17445">
        <ele>1007</ele>
        <time>2010-01-01T00:08:39Z</time>
      </trkpt>
      <trkpt lat="42.30898" lon="2.17445">
        <ele>1007</ele>
        <time>2010-01-01T00:08:40Z</time>
      </trkpt>
      <trkpt lat="42.30901" lon="2.17446">
        <ele>1007</ele>
        <time>2010-01-01T00:08:41Z</time>
      </trkpt>
      <trkpt lat="42.30903" lon="2.17447">
        <ele>1007</ele>
        <time>2010-01-01T00:08:42Z</time>
      </trkpt>
      <trkpt lat="42.30905" lon="2.17449">
        <ele>1007</ele>
        <time>2010-01-01T00:08:43Z</time>
      </trkpt>
      <trkpt lat="42.30906" lon="2.17452">
        <ele>1008</ele>
        <time>2010-01-01T00:08:44Z</time>
      </trkpt>
      <trkpt lat="42.30907" lon="2.17455">
        <ele>1009</ele>
        <time>2010-01-01T00:08:44Z</time>
      </trkpt>
      <trkpt lat="42.30911" lon="2.17461">
        <ele>1010</ele>
        <time>2010-01-01T00:08:47Z</time>
      </trkpt>
      <trkpt lat="42.30912" lon="2.17463">
        <ele>1010</ele>
        <time>2010-01-01T00:08:47Z</time>
      </trkpt>
      <trkpt lat="42.30912" lon="2.17466">
        <ele>1011</ele>
        <time>2010-01-01T00:08:48Z</time>
      </trkpt>
      <trkpt lat="42.30911" lon="2.1747">
        <ele>1012</ele>
        <time>2010-01-01T00:08:49Z</time>
      </trkpt>
      <trkpt lat="42.30907" lon="2.17474">
        <ele>1015</ele>
        <time>2010-01-01T00:08:52Z</time>
      </trkpt>
      <trkpt lat="42.30905" lon="2.17476">
        <ele>1016</ele>
        <time>2010-01-01T00:08:53Z</time>
      </trkpt>
      <trkpt lat="42.30903" lon="2.17478">
        <ele>1017</ele>
        <time>2010-01-01T00:08:54Z</time>
      </trkpt>
      <trkpt lat="42.30901" lon="2.1748">
        <ele>1018</ele>
        <time>2010-01-01T00:08:54Z</time>
      </trkpt>
      <trkpt lat="42.30902" lon="2.17486">
        <ele>1020</ele>
        <time>2010-01-01T00:08:56Z</time>
      </trkpt>
      <trkpt lat="42.30899" lon="2.1749">
        <ele>1023</ele>
        <time>2010-01-01T00:08:58Z</time>
      </trkpt>
      <trkpt lat="42.30898" lon="2.17493">
        <ele>1024</ele>
        <time>2010-01-01T00:08:59Z</time>
      </trkpt>
      <trkpt lat="42.30894" lon="2.17504">
        <ele>1029</ele>
        <time>2010-01-01T00:09:03Z</time>
      </trkpt>
      <trkpt lat="42.30884" lon="2.17515">
        <ele>1036</ele>
        <time>2010-01-01T00:09:08Z</time>
      </trkpt>
      <trkpt lat="42.30888" lon="2.17523">
        <ele>1038</ele>
        <time>2010-01-01T00:09:11Z</time>
      </trkpt>
      <trkpt lat="42.30889" lon="2.17525">
        <ele>1038</ele>
        <time>2010-01-01T00:09:12Z</time>
      </trkpt>
      <trkpt lat="42.30888" lon="2.17528">
        <ele>1040</ele>
        <time>2010-01-01T00:09:13Z</time>
      </trkpt>
      <trkpt lat="42.30881" lon="2.17536">
        <ele>1043</ele>
        <time>2010-01-01T00:09:17Z</time>
      </trkpt>
      <trkpt lat="42.30879" lon="2.17539">
        <ele>1044</ele>
        <time>2010-01-01T00:09:18Z</time>
      </trkpt>
      <trkpt lat="42.30885" lon="2.17551">
        <ele>1047</ele>
        <time>2010-01-01T00:09:22Z</time>
      </trkpt>
      <trkpt lat="42.30868" lon="2.17566">
        <ele>1055</ele>
        <time>2010-01-01T00:09:30Z</time>
      </trkpt>
      <trkpt lat="42.30863" lon="2.17573">
        <ele>1058</ele>
        <time>2010-01-01T00:09:32Z</time>
      </trkpt>
      <trkpt lat="42.30864" lon="2.17575">
        <ele>1058</ele>
        <time>2010-01-01T00:09:33Z</time>
      </trkpt>
      <trkpt lat="42.30865" lon="2.17578">
        <ele>1059</ele>
        <time>2010-01-01T00:09:34Z</time>
      </trkpt>
      <trkpt lat="42.30866" lon="2.1758">
        <ele>1059</ele>
        <time>2010-01-01T00:09:35Z</time>
      </trkpt>
      <trkpt lat="42.30865" lon="2.17583">
        <ele>1060</ele>
        <time>2010-01-01T00:09:36Z</time>
      </trkpt>
      <trkpt lat="42.30863" lon="2.17588">
        <ele>1062</ele>
        <time>2010-01-01T00:09:37Z</time>
      </trkpt>
      <trkpt lat="42.30861" lon="2.1759">
        <ele>1063</ele>
        <time>2010-01-01T00:09:38Z</time>
      </trkpt>
      <trkpt lat="42.30861" lon="2.17592">
        <ele>1063</ele>
        <time>2010-01-01T00:09:39Z</time>
      </trkpt>
      <trkpt lat="42.30861" lon="2.17596">
        <ele>1064</ele>
        <time>2010-01-01T00:09:40Z</time>
      </trkpt>
      <trkpt lat="42.3086" lon="2.17599">
        <ele>1065</ele>
        <time>2010-01-01T00:09:41Z</time>
      </trkpt>
      <trkpt lat="42.30859" lon="2.17602">
        <ele>1066</ele>
        <time>2010-01-01T00:09:42Z</time>
      </trkpt>
      <trkpt lat="42.30858" lon="2.17604">
        <ele>1066</ele>
        <time>2010-01-01T00:09:43Z</time>
      </trkpt>
      <trkpt lat="42.30857" lon="2.17606">
        <ele>1067</ele>
        <time>2010-01-01T00:09:43Z</time>
      </trkpt>
      <trkpt lat="42.30856" lon="2.17608">
        <ele>1067</ele>
        <time>2010-01-01T00:09:44Z</time>
      </trkpt>
      <trkpt lat="42.30854" lon="2.1761">
        <ele>1068</ele>
        <time>2010-01-01T00:09:45Z</time>
      </trkpt>
      <trkpt lat="42.30853" lon="2.17612">
        <ele>1069</ele>
        <time>2010-01-01T00:09:46Z</time>
      </trkpt>
      <trkpt lat="42.30853" lon="2.17615">
        <ele>1069</ele>
        <time>2010-01-01T00:09:47Z</time>
      </trkpt>
      <trkpt lat="42.30852" lon="2.17617">
        <ele>1069</ele>
        <time>2010-01-01T00:09:47Z</time>
      </trkpt>
      <trkpt lat="42.30848" lon="2.1762">
        <ele>1070</ele>
        <time>2010-01-01T00:09:49Z</time>
      </trkpt>
      <trkpt lat="42.30847" lon="2.17622">
        <ele>1071</ele>
        <time>2010-01-01T00:09:50Z</time>
      </trkpt>
      <trkpt lat="42.30845" lon="2.17625">
        <ele>1072</ele>
        <time>2010-01-01T00:09:51Z</time>
      </trkpt>
      <trkpt lat="42.30843" lon="2.17635">
        <ele>1074</ele>
        <time>2010-01-01T00:09:54Z</time>
      </trkpt>
      <trkpt lat="42.30841" lon="2.17637">
        <ele>1075</ele>
        <time>2010-01-01T00:09:55Z</time>
      </trkpt>
      <trkpt lat="42.30839" lon="2.17641">
        <ele>1076</ele>
        <time>2010-01-01T00:09:56Z</time>
      </trkpt>
      <trkpt lat="42.30838" lon="2.17643">
        <ele>1077</ele>
        <time>2010-01-01T00:09:57Z</time>
      </trkpt>
      <trkpt lat="42.30836" lon="2.17648">
        <ele>1078</ele>
        <time>2010-01-01T00:09:59Z</time>
      </trkpt>
      <trkpt lat="42.30834" lon="2.17651">
        <ele>1079</ele>
        <time>2010-01-01T00:10:00Z</time>
      </trkpt>
      <trkpt lat="42.30833" lon="2.17653">
        <ele>1080</ele>
        <time>2010-01-01T00:10:01Z</time>
      </trkpt>
      <trkpt lat="42.30832" lon="2.17656">
        <ele>1081</ele>
        <time>2010-01-01T00:10:02Z</time>
      </trkpt>
      <trkpt lat="42.30831" lon="2.17658">
        <ele>1082</ele>
        <time>2010-01-01T00:10:03Z</time>
      </trkpt>
      <trkpt lat="42.30829" lon="2.17661">
        <ele>1083</ele>
        <time>2010-01-01T00:10:04Z</time>
      </trkpt>
      <trkpt lat="42.30827" lon="2.17663">
        <ele>1084</ele>
        <time>2010-01-01T00:10:05Z</time>
      </trkpt>
      <trkpt lat="42.30826" lon="2.17664">
        <ele>1085</ele>
        <time>2010-01-01T00:10:05Z</time>
      </trkpt>
      <trkpt lat="42.30825" lon="2.17667">
        <ele>1086</ele>
        <time>2010-01-01T00:10:06Z</time>
      </trkpt>
      <trkpt lat="42.30822" lon="2.17676">
        <ele>1088</ele>
        <time>2010-01-01T00:10:09Z</time>
      </trkpt>
      <trkpt lat="42.3082" lon="2.17677">
        <ele>1089</ele>
        <time>2010-01-01T00:10:10Z</time>
      </trkpt>
      <trkpt lat="42.30818" lon="2.17679">
        <ele>1090</ele>
        <time>2010-01-01T00:10:11Z</time>
      </trkpt>
      <trkpt lat="42.30815" lon="2.17681">
        <ele>1092</ele>
        <time>2010-01-01T00:10:12Z</time>
      </trkpt>
      <trkpt lat="42.30811" lon="2.17683">
        <ele>1094</ele>
        <time>2010-01-01T00:10:14Z</time>
      </trkpt>
      <trkpt lat="42.30808" lon="2.17684">
        <ele>1095</ele>
        <time>2010-01-01T00:10:15Z</time>
      </trkpt>
      <trkpt lat="42.30805" lon="2.17685">
        <ele>1097</ele>
        <time>2010-01-01T00:10:16Z</time>
      </trkpt>
      <trkpt lat="42.30803" lon="2.17686">
        <ele>1097</ele>
        <time>2010-01-01T00:10:17Z</time>
      </trkpt>
      <trkpt lat="42.30799" lon="2.17688">
        <ele>1099</ele>
        <time>2010-01-01T00:10:19Z</time>
      </trkpt>
      <trkpt lat="42.30793" lon="2.17685">
        <ele>1099</ele>
        <time>2010-01-01T00:10:22Z</time>
      </trkpt>
      <trkpt lat="42.30791" lon="2.17685">
        <ele>1099</ele>
        <time>2010-01-01T00:10:22Z</time>
      </trkpt>
      <trkpt lat="42.3079" lon="2.17683">
        <ele>1099</ele>
        <time>2010-01-01T00:10:23Z</time>
      </trkpt>
      <trkpt lat="42.30788" lon="2.17683">
        <ele>1099</ele>
        <time>2010-01-01T00:10:24Z</time>
      </trkpt>
      <trkpt lat="42.30785" lon="2.17684">
        <ele>1100</ele>
        <time>2010-01-01T00:10:25Z</time>
      </trkpt>
      <trkpt lat="42.30783" lon="2.17685">
        <ele>1101</ele>
        <time>2010-01-01T00:10:26Z</time>
      </trkpt>
      <trkpt lat="42.3078" lon="2.17688">
        <ele>1103</ele>
        <time>2010-01-01T00:10:28Z</time>
      </trkpt>
      <trkpt lat="42.30778" lon="2.17689">
        <ele>1103</ele>
        <time>2010-01-01T00:10:28Z</time>
      </trkpt>
      <trkpt lat="42.30776" lon="2.17688">
        <ele>1103</ele>
        <time>2010-01-01T00:10:29Z</time>
      </trkpt>
      <trkpt lat="42.30774" lon="2.17688">
        <ele>1103</ele>
        <time>2010-01-01T00:10:30Z</time>
      </trkpt>
      <trkpt lat="42.30769" lon="2.17689">
        <ele>1104</ele>
        <time>2010-01-01T00:10:32Z</time>
      </trkpt>
      <trkpt lat="42.30765" lon="2.17694">
        <ele>1106</ele>
        <time>2010-01-01T00:10:34Z</time>
      </trkpt>
      <trkpt lat="42.30764" lon="2.17696">
        <ele>1106</ele>
        <time>2010-01-01T00:10:35Z</time>
      </trkpt>
      <trkpt lat="42.30763" lon="2.17698">
        <ele>1107</ele>
        <time>2010-01-01T00:10:36Z</time>
      </trkpt>
      <trkpt lat="42.30762" lon="2.17701">
        <ele>1108</ele>
        <time>2010-01-01T00:10:36Z</time>
      </trkpt>
      <trkpt lat="42.30762" lon="2.17703">
        <ele>1108</ele>
        <time>2010-01-01T00:10:37Z</time>
      </trkpt>
      <trkpt lat="42.30761" lon="2.17706">
        <ele>1109</ele>
        <time>2010-01-01T00:10:38Z</time>
      </trkpt>
      <trkpt lat="42.30761" lon="2.17712">
        <ele>1110</ele>
        <time>2010-01-01T00:10:40Z</time>
      </trkpt>
      <trkpt lat="42.30762" lon="2.17716">
        <ele>1111</ele>
        <time>2010-01-01T00:10:41Z</time>
      </trkpt>
      <trkpt lat="42.30762" lon="2.17719">
        <ele>1112</ele>
        <time>2010-01-01T00:10:42Z</time>
      </trkpt>
      <trkpt lat="42.30762" lon="2.17725">
        <ele>1113</ele>
        <time>2010-01-01T00:10:44Z</time>
      </trkpt>
      <trkpt lat="42.3076" lon="2.1773">
        <ele>1115</ele>
        <time>2010-01-01T00:10:46Z</time>
      </trkpt>
      <trkpt lat="42.30758" lon="2.1773">
        <ele>1115</ele>
        <time>2010-01-01T00:10:46Z</time>
      </trkpt>
      <trkpt lat="42.30756" lon="2.17732">
        <ele>1116</ele>
        <time>2010-01-01T00:10:47Z</time>
      </trkpt>
      <trkpt lat="42.30754" lon="2.17735">
        <ele>1117</ele>
        <time>2010-01-01T00:10:48Z</time>
      </trkpt>
      <trkpt lat="42.30752" lon="2.17737">
        <ele>1117</ele>
        <time>2010-01-01T00:10:50Z</time>
      </trkpt>
      <trkpt lat="42.30749" lon="2.17738">
        <ele>1118</ele>
        <time>2010-01-01T00:10:51Z</time>
      </trkpt>
      <trkpt lat="42.30748" lon="2.1774">
        <ele>1118</ele>
        <time>2010-01-01T00:10:51Z</time>
      </trkpt>
      <trkpt lat="42.30746" lon="2.17742">
        <ele>1119</ele>
        <time>2010-01-01T00:10:52Z</time>
      </trkpt>
      <trkpt lat="42.30744" lon="2.17745">
        <ele>1120</ele>
        <time>2010-01-01T00:10:53Z</time>
      </trkpt>
      <trkpt lat="42.30744" lon="2.17748">
        <ele>1120</ele>
        <time>2010-01-01T00:10:54Z</time>
      </trkpt>
      <trkpt lat="42.30742" lon="2.17751">
        <ele>1121</ele>
        <time>2010-01-01T00:10:55Z</time>
      </trkpt>
      <trkpt lat="42.30741" lon="2.17753">
        <ele>1121</ele>
        <time>2010-01-01T00:10:56Z</time>
      </trkpt>
      <trkpt lat="42.3074" lon="2.17755">
        <ele>1121</ele>
        <time>2010-01-01T00:10:57Z</time>
      </trkpt>
      <trkpt lat="42.30738" lon="2.17757">
        <ele>1122</ele>
        <time>2010-01-01T00:10:58Z</time>
      </trkpt>
      <trkpt lat="42.30736" lon="2.17759">
        <ele>1122</ele>
        <time>2010-01-01T00:10:59Z</time>
      </trkpt>
      <trkpt lat="42.30735" lon="2.17761">
        <ele>1123</ele>
        <time>2010-01-01T00:11:00Z</time>
      </trkpt>
      <trkpt lat="42.30734" lon="2.17764">
        <ele>1123</ele>
        <time>2010-01-01T00:11:01Z</time>
      </trkpt>
      <trkpt lat="42.30734" lon="2.17766">
        <ele>1124</ele>
        <time>2010-01-01T00:11:01Z</time>
      </trkpt>
      <trkpt lat="42.30732" lon="2.17768">
        <ele>1124</ele>
        <time>2010-01-01T00:11:02Z</time>
      </trkpt>
      <trkpt lat="42.30729" lon="2.17769">
        <ele>1125</ele>
        <time>2010-01-01T00:11:03Z</time>
      </trkpt>
      <trkpt lat="42.30727" lon="2.1777">
        <ele>1125</ele>
        <time>2010-01-01T00:11:04Z</time>
      </trkpt>
      <trkpt lat="42.30722" lon="2.17772">
        <ele>1126</ele>
        <time>2010-01-01T00:11:06Z</time>
      </trkpt>
      <trkpt lat="42.3072" lon="2.17773">
        <ele>1127</ele>
        <time>2010-01-01T00:11:07Z</time>
      </trkpt>
      <trkpt lat="42.30717" lon="2.17774">
        <ele>1127</ele>
        <time>2010-01-01T00:11:08Z</time>
      </trkpt>
      <trkpt lat="42.30715" lon="2.17775">
        <ele>1127</ele>
        <time>2010-01-01T00:11:09Z</time>
      </trkpt>
      <trkpt lat="42.30713" lon="2.17776">
        <ele>1128</ele>
        <time>2010-01-01T00:11:10Z</time>
      </trkpt>
      <trkpt lat="42.30711" lon="2.17777">
        <ele>1128</ele>
        <time>2010-01-01T00:11:11Z</time>
      </trkpt>
      <trkpt lat="42.30709" lon="2.17779">
        <ele>1129</ele>
        <time>2010-01-01T00:11:12Z</time>
      </trkpt>
      <trkpt lat="42.30708" lon="2.17782">
        <ele>1129</ele>
        <time>2010-01-01T00:11:13Z</time>
      </trkpt>
      <trkpt lat="42.30707" lon="2.17784">
        <ele>1129</ele>
        <time>2010-01-01T00:11:14Z</time>
      </trkpt>
      <trkpt lat="42.30705" lon="2.17785">
        <ele>1130</ele>
        <time>2010-01-01T00:11:14Z</time>
      </trkpt>
      <trkpt lat="42.30703" lon="2.17787">
        <ele>1130</ele>
        <time>2010-01-01T00:11:15Z</time>
      </trkpt>
      <trkpt lat="42.30702" lon="2.17788">
        <ele>1130</ele>
        <time>2010-01-01T00:11:16Z</time>
      </trkpt>
      <trkpt lat="42.30699" lon="2.17789">
        <ele>1131</ele>
        <time>2010-01-01T00:11:17Z</time>
      </trkpt>
      <trkpt lat="42.30696" lon="2.1779">
        <ele>1131</ele>
        <time>2010-01-01T00:11:18Z</time>
      </trkpt>
      <trkpt lat="42.30695" lon="2.17791">
        <ele>1132</ele>
        <time>2010-01-01T00:11:19Z</time>
      </trkpt>
      <trkpt lat="42.30693" lon="2.17795">
        <ele>1133</ele>
        <time>2010-01-01T00:11:20Z</time>
      </trkpt>
      <trkpt lat="42.30691" lon="2.17797">
        <ele>1133</ele>
        <time>2010-01-01T00:11:21Z</time>
      </trkpt>
      <trkpt lat="42.30689" lon="2.178">
        <ele>1134</ele>
        <time>2010-01-01T00:11:23Z</time>
      </trkpt>
      <trkpt lat="42.30687" lon="2.17802">
        <ele>1134</ele>
        <time>2010-01-01T00:11:23Z</time>
      </trkpt>
      <trkpt lat="42.30685" lon="2.17805">
        <ele>1134</ele>
        <time>2010-01-01T00:11:25Z</time>
      </trkpt>
      <trkpt lat="42.30684" lon="2.17807">
        <ele>1135</ele>
        <time>2010-01-01T00:11:25Z</time>
      </trkpt>
      <trkpt lat="42.30682" lon="2.17809">
        <ele>1135</ele>
        <time>2010-01-01T00:11:26Z</time>
      </trkpt>
      <trkpt lat="42.30681" lon="2.17811">
        <ele>1135</ele>
        <time>2010-01-01T00:11:27Z</time>
      </trkpt>
      <trkpt lat="42.30679" lon="2.17813">
        <ele>1135</ele>
        <time>2010-01-01T00:11:28Z</time>
      </trkpt>
      <trkpt lat="42.30677" lon="2.17814">
        <ele>1135</ele>
        <time>2010-01-01T00:11:29Z</time>
      </trkpt>
      <trkpt lat="42.30674" lon="2.17817">
        <ele>1136</ele>
        <time>2010-01-01T00:11:30Z</time>
      </trkpt>
      <trkpt lat="42.30672" lon="2.1782">
        <ele>1136</ele>
        <time>2010-01-01T00:11:32Z</time>
      </trkpt>
      <trkpt lat="42.30671" lon="2.17823">
        <ele>1136</ele>
        <time>2010-01-01T00:11:33Z</time>
      </trkpt>
      <trkpt lat="42.3067" lon="2.17825">
        <ele>1136</ele>
        <time>2010-01-01T00:11:33Z</time>
      </trkpt>
      <trkpt lat="42.30669" lon="2.17827">
        <ele>1137</ele>
        <time>2010-01-01T00:11:34Z</time>
      </trkpt>
      <trkpt lat="42.30668" lon="2.17829">
        <ele>1137</ele>
        <time>2010-01-01T00:11:35Z</time>
      </trkpt>
      <trkpt lat="42.30668" lon="2.17832">
        <ele>1137</ele>
        <time>2010-01-01T00:11:36Z</time>
      </trkpt>
      <trkpt lat="42.30668" lon="2.17836">
        <ele>1138</ele>
        <time>2010-01-01T00:11:37Z</time>
      </trkpt>
      <trkpt lat="42.30666" lon="2.17838">
        <ele>1138</ele>
        <time>2010-01-01T00:11:37Z</time>
      </trkpt>
      <trkpt lat="42.30666" lon="2.17841">
        <ele>1139</ele>
        <time>2010-01-01T00:11:38Z</time>
      </trkpt>
      <trkpt lat="42.30664" lon="2.17843">
        <ele>1139</ele>
        <time>2010-01-01T00:11:39Z</time>
      </trkpt>
      <trkpt lat="42.30662" lon="2.17845">
        <ele>1139</ele>
        <time>2010-01-01T00:11:40Z</time>
      </trkpt>
      <trkpt lat="42.30661" lon="2.17849">
        <ele>1139</ele>
        <time>2010-01-01T00:11:42Z</time>
      </trkpt>
      <trkpt lat="42.30659" lon="2.17852">
        <ele>1140</ele>
        <time>2010-01-01T00:11:43Z</time>
      </trkpt>
      <trkpt lat="42.30657" lon="2.17854">
        <ele>1140</ele>
        <time>2010-01-01T00:11:44Z</time>
      </trkpt>
      <trkpt lat="42.30655" lon="2.17857">
        <ele>1140</ele>
        <time>2010-01-01T00:11:45Z</time>
      </trkpt>
      <trkpt lat="42.30653" lon="2.17859">
        <ele>1141</ele>
        <time>2010-01-01T00:11:46Z</time>
      </trkpt>
      <trkpt lat="42.3065" lon="2.17861">
        <ele>1141</ele>
        <time>2010-01-01T00:11:47Z</time>
      </trkpt>
      <trkpt lat="42.30649" lon="2.17862">
        <ele>1141</ele>
        <time>2010-01-01T00:11:48Z</time>
      </trkpt>
      <trkpt lat="42.30647" lon="2.17865">
        <ele>1141</ele>
        <time>2010-01-01T00:11:49Z</time>
      </trkpt>
      <trkpt lat="42.30646" lon="2.17868">
        <ele>1141</ele>
        <time>2010-01-01T00:11:50Z</time>
      </trkpt>
      <trkpt lat="42.30644" lon="2.17871">
        <ele>1141</ele>
        <time>2010-01-01T00:11:51Z</time>
      </trkpt>
      <trkpt lat="42.30643" lon="2.17874">
        <ele>1142</ele>
        <time>2010-01-01T00:11:52Z</time>
      </trkpt>
      <trkpt lat="42.30642" lon="2.17878">
        <ele>1142</ele>
        <time>2010-01-01T00:11:53Z</time>
      </trkpt>
      <trkpt lat="42.30641" lon="2.17881">
        <ele>1142</ele>
        <time>2010-01-01T00:11:54Z</time>
      </trkpt>
      <trkpt lat="42.30641" lon="2.17884">
        <ele>1143</ele>
        <time>2010-01-01T00:11:55Z</time>
      </trkpt>
      <trkpt lat="42.30639" lon="2.17887">
        <ele>1143</ele>
        <time>2010-01-01T00:11:56Z</time>
      </trkpt>
      <trkpt lat="42.30637" lon="2.17888">
        <ele>1143</ele>
        <time>2010-01-01T00:11:57Z</time>
      </trkpt>
      <trkpt lat="42.30635" lon="2.17889">
        <ele>1143</ele>
        <time>2010-01-01T00:11:58Z</time>
      </trkpt>
      <trkpt lat="42.30633" lon="2.1789">
        <ele>1143</ele>
        <time>2010-01-01T00:11:59Z</time>
      </trkpt>
      <trkpt lat="42.30631" lon="2.17891">
        <ele>1143</ele>
        <time>2010-01-01T00:12:00Z</time>
      </trkpt>
      <trkpt lat="42.30629" lon="2.17893">
        <ele>1143</ele>
        <time>2010-01-01T00:12:01Z</time>
      </trkpt>
      <trkpt lat="42.30626" lon="2.17894">
        <ele>1143</ele>
        <time>2010-01-01T00:12:02Z</time>
      </trkpt>
      <trkpt lat="42.30624" lon="2.17895">
        <ele>1143</ele>
        <time>2010-01-01T00:12:03Z</time>
      </trkpt>
      <trkpt lat="42.30621" lon="2.17896">
        <ele>1143</ele>
        <time>2010-01-01T00:12:04Z</time>
      </trkpt>
      <trkpt lat="42.30619" lon="2.17897">
        <ele>1143</ele>
        <time>2010-01-01T00:12:05Z</time>
      </trkpt>
      <trkpt lat="42.30617" lon="2.17898">
        <ele>1143</ele>
        <time>2010-01-01T00:12:06Z</time>
      </trkpt>
      <trkpt lat="42.30615" lon="2.179">
        <ele>1143</ele>
        <time>2010-01-01T00:12:07Z</time>
      </trkpt>
      <trkpt lat="42.30614" lon="2.17902">
        <ele>1143</ele>
        <time>2010-01-01T00:12:07Z</time>
      </trkpt>
      <trkpt lat="42.30612" lon="2.17904">
        <ele>1144</ele>
        <time>2010-01-01T00:12:08Z</time>
      </trkpt>
      <trkpt lat="42.3061" lon="2.17907">
        <ele>1144</ele>
        <time>2010-01-01T00:12:09Z</time>
      </trkpt>
      <trkpt lat="42.30609" lon="2.1791">
        <ele>1144</ele>
        <time>2010-01-01T00:12:11Z</time>
      </trkpt>
      <trkpt lat="42.30607" lon="2.17912">
        <ele>1144</ele>
        <time>2010-01-01T00:12:12Z</time>
      </trkpt>
      <trkpt lat="42.30605" lon="2.17915">
        <ele>1145</ele>
        <time>2010-01-01T00:12:13Z</time>
      </trkpt>
      <trkpt lat="42.30603" lon="2.17918">
        <ele>1145</ele>
        <time>2010-01-01T00:12:14Z</time>
      </trkpt>
      <trkpt lat="42.30601" lon="2.17921">
        <ele>1145</ele>
        <time>2010-01-01T00:12:15Z</time>
      </trkpt>
      <trkpt lat="42.30599" lon="2.17925">
        <ele>1145</ele>
        <time>2010-01-01T00:12:16Z</time>
      </trkpt>
      <trkpt lat="42.30598" lon="2.17928">
        <ele>1145</ele>
        <time>2010-01-01T00:12:18Z</time>
      </trkpt>
      <trkpt lat="42.30596" lon="2.17932">
        <ele>1145</ele>
        <time>2010-01-01T00:12:19Z</time>
      </trkpt>
      <trkpt lat="42.30595" lon="2.17936">
        <ele>1145</ele>
        <time>2010-01-01T00:12:20Z</time>
      </trkpt>
      <trkpt lat="42.30593" lon="2.17939">
        <ele>1145</ele>
        <time>2010-01-01T00:12:21Z</time>
      </trkpt>
      <trkpt lat="42.30592" lon="2.17943">
        <ele>1145</ele>
        <time>2010-01-01T00:12:22Z</time>
      </trkpt>
      <trkpt lat="42.30591" lon="2.17946">
        <ele>1145</ele>
        <time>2010-01-01T00:12:24Z</time>
      </trkpt>
      <trkpt lat="42.30589" lon="2.17949">
        <ele>1145</ele>
        <time>2010-01-01T00:12:25Z</time>
      </trkpt>
      <trkpt lat="42.30587" lon="2.17952">
        <ele>1145</ele>
        <time>2010-01-01T00:12:26Z</time>
      </trkpt>
      <trkpt lat="42.30585" lon="2.17955">
        <ele>1145</ele>
        <time>2010-01-01T00:12:27Z</time>
      </trkpt>
      <trkpt lat="42.30583" lon="2.17957">
        <ele>1145</ele>
        <time>2010-01-01T00:12:28Z</time>
      </trkpt>
      <trkpt lat="42.3058" lon="2.1796">
        <ele>1145</ele>
        <time>2010-01-01T00:12:30Z</time>
      </trkpt>
      <trkpt lat="42.30577" lon="2.17962">
        <ele>1145</ele>
        <time>2010-01-01T00:12:31Z</time>
      </trkpt>
      <trkpt lat="42.30574" lon="2.17963">
        <ele>1145</ele>
        <time>2010-01-01T00:12:32Z</time>
      </trkpt>
      <trkpt lat="42.30572" lon="2.17964">
        <ele>1145</ele>
        <time>2010-01-01T00:12:33Z</time>
      </trkpt>
      <trkpt lat="42.30569" lon="2.17966">
        <ele>1145</ele>
        <time>2010-01-01T00:12:34Z</time>
      </trkpt>
      <trkpt lat="42.30567" lon="2.17967">
        <ele>1145</ele>
        <time>2010-01-01T00:12:35Z</time>
      </trkpt>
      <trkpt lat="42.30565" lon="2.17969">
        <ele>1145</ele>
        <time>2010-01-01T00:12:36Z</time>
      </trkpt>
      <trkpt lat="42.30563" lon="2.17971">
        <ele>1145</ele>
        <time>2010-01-01T00:12:37Z</time>
      </trkpt>
      <trkpt lat="42.30561" lon="2.17973">
        <ele>1145</ele>
        <time>2010-01-01T00:12:38Z</time>
      </trkpt>
      <trkpt lat="42.30558" lon="2.17975">
        <ele>1145</ele>
        <time>2010-01-01T00:12:39Z</time>
      </trkpt>
      <trkpt lat="42.30557" lon="2.17978">
        <ele>1146</ele>
        <time>2010-01-01T00:12:40Z</time>
      </trkpt>
      <trkpt lat="42.30554" lon="2.17981">
        <ele>1146</ele>
        <time>2010-01-01T00:12:42Z</time>
      </trkpt>
      <trkpt lat="42.30551" lon="2.17981">
        <ele>1147</ele>
        <time>2010-01-01T00:12:43Z</time>
      </trkpt>
      <trkpt lat="42.30549" lon="2.17981">
        <ele>1147</ele>
        <time>2010-01-01T00:12:44Z</time>
      </trkpt>
      <trkpt lat="42.30547" lon="2.1798">
        <ele>1148</ele>
        <time>2010-01-01T00:12:45Z</time>
      </trkpt>
      <trkpt lat="42.30546" lon="2.17983">
        <ele>1148</ele>
        <time>2010-01-01T00:12:46Z</time>
      </trkpt>
      <trkpt lat="42.30546" lon="2.17986">
        <ele>1148</ele>
        <time>2010-01-01T00:12:47Z</time>
      </trkpt>
      <trkpt lat="42.30543" lon="2.17986">
        <ele>1149</ele>
        <time>2010-01-01T00:12:48Z</time>
      </trkpt>
      <trkpt lat="42.30541" lon="2.17984">
        <ele>1149</ele>
        <time>2010-01-01T00:12:48Z</time>
      </trkpt>
      <trkpt lat="42.3054" lon="2.17983">
        <ele>1149</ele>
        <time>2010-01-01T00:12:49Z</time>
      </trkpt>
      <trkpt lat="42.30538" lon="2.17981">
        <ele>1150</ele>
        <time>2010-01-01T00:12:50Z</time>
      </trkpt>
      <trkpt lat="42.30536" lon="2.17979">
        <ele>1150</ele>
        <time>2010-01-01T00:12:51Z</time>
      </trkpt>
      <trkpt lat="42.30534" lon="2.17979">
        <ele>1151</ele>
        <time>2010-01-01T00:12:52Z</time>
      </trkpt>
      <trkpt lat="42.30532" lon="2.17978">
        <ele>1151</ele>
        <time>2010-01-01T00:12:53Z</time>
      </trkpt>
      <trkpt lat="42.30531" lon="2.17975">
        <ele>1152</ele>
        <time>2010-01-01T00:12:54Z</time>
      </trkpt>
      <trkpt lat="42.30529" lon="2.17973">
        <ele>1152</ele>
        <time>2010-01-01T00:12:55Z</time>
      </trkpt>
      <trkpt lat="42.30527" lon="2.17972">
        <ele>1153</ele>
        <time>2010-01-01T00:12:55Z</time>
      </trkpt>
      <trkpt lat="42.30525" lon="2.17971">
        <ele>1154</ele>
        <time>2010-01-01T00:12:56Z</time>
      </trkpt>
      <trkpt lat="42.30523" lon="2.1797">
        <ele>1155</ele>
        <time>2010-01-01T00:12:57Z</time>
      </trkpt>
      <trkpt lat="42.30522" lon="2.17968">
        <ele>1155</ele>
        <time>2010-01-01T00:12:58Z</time>
      </trkpt>
      <trkpt lat="42.3052" lon="2.17966">
        <ele>1156</ele>
        <time>2010-01-01T00:12:59Z</time>
      </trkpt>
      <trkpt lat="42.30519" lon="2.17964">
        <ele>1157</ele>
        <time>2010-01-01T00:12:59Z</time>
      </trkpt>
      <trkpt lat="42.30517" lon="2.17962">
        <ele>1158</ele>
        <time>2010-01-01T00:13:01Z</time>
      </trkpt>
      <trkpt lat="42.30515" lon="2.17959">
        <ele>1159</ele>
        <time>2010-01-01T00:13:02Z</time>
      </trkpt>
      <trkpt lat="42.30513" lon="2.17957">
        <ele>1160</ele>
        <time>2010-01-01T00:13:03Z</time>
      </trkpt>
      <trkpt lat="42.30512" lon="2.17956">
        <ele>1161</ele>
        <time>2010-01-01T00:13:03Z</time>
      </trkpt>
      <trkpt lat="42.30509" lon="2.17954">
        <ele>1163</ele>
        <time>2010-01-01T00:13:05Z</time>
      </trkpt>
      <trkpt lat="42.30506" lon="2.17953">
        <ele>1164</ele>
        <time>2010-01-01T00:13:06Z</time>
      </trkpt>
      <trkpt lat="42.30505" lon="2.17951">
        <ele>1165</ele>
        <time>2010-01-01T00:13:07Z</time>
      </trkpt>
      <trkpt lat="42.30503" lon="2.17949">
        <ele>1166</ele>
        <time>2010-01-01T00:13:07Z</time>
      </trkpt>
      <trkpt lat="42.305" lon="2.17948">
        <ele>1167</ele>
        <time>2010-01-01T00:13:08Z</time>
      </trkpt>
      <trkpt lat="42.30498" lon="2.17947">
        <ele>1168</ele>
        <time>2010-01-01T00:13:10Z</time>
      </trkpt>
      <trkpt lat="42.30495" lon="2.17946">
        <ele>1169</ele>
        <time>2010-01-01T00:13:11Z</time>
      </trkpt>
      <trkpt lat="42.30493" lon="2.17946">
        <ele>1171</ele>
        <time>2010-01-01T00:13:11Z</time>
      </trkpt>
      <trkpt lat="42.30491" lon="2.17945">
        <ele>1172</ele>
        <time>2010-01-01T00:13:13Z</time>
      </trkpt>
      <trkpt lat="42.30489" lon="2.17944">
        <ele>1173</ele>
        <time>2010-01-01T00:13:13Z</time>
      </trkpt>
      <trkpt lat="42.30484" lon="2.17943">
        <ele>1175</ele>
        <time>2010-01-01T00:13:15Z</time>
      </trkpt>
      <trkpt lat="42.30482" lon="2.17942">
        <ele>1176</ele>
        <time>2010-01-01T00:13:16Z</time>
      </trkpt>
      <trkpt lat="42.30475" lon="2.17943">
        <ele>1179</ele>
        <time>2010-01-01T00:13:19Z</time>
      </trkpt>
      <trkpt lat="42.30473" lon="2.17944">
        <ele>1180</ele>
        <time>2010-01-01T00:13:20Z</time>
      </trkpt>
      <trkpt lat="42.30471" lon="2.17945">
        <ele>1181</ele>
        <time>2010-01-01T00:13:21Z</time>
      </trkpt>
      <trkpt lat="42.30468" lon="2.17946">
        <ele>1181</ele>
        <time>2010-01-01T00:13:22Z</time>
      </trkpt>
      <trkpt lat="42.30466" lon="2.17947">
        <ele>1181</ele>
        <time>2010-01-01T00:13:23Z</time>
      </trkpt>
      <trkpt lat="42.30458" lon="2.17947">
        <ele>1183</ele>
        <time>2010-01-01T00:13:26Z</time>
      </trkpt>
      <trkpt lat="42.30452" lon="2.17947">
        <ele>1184</ele>
        <time>2010-01-01T00:13:28Z</time>
      </trkpt>
      <trkpt lat="42.30449" lon="2.17948">
        <ele>1184</ele>
        <time>2010-01-01T00:13:29Z</time>
      </trkpt>
      <trkpt lat="42.30448" lon="2.1795">
        <ele>1185</ele>
        <time>2010-01-01T00:13:30Z</time>
      </trkpt>
      <trkpt lat="42.30445" lon="2.17953">
        <ele>1185</ele>
        <time>2010-01-01T00:13:32Z</time>
      </trkpt>
      <trkpt lat="42.30443" lon="2.17954">
        <ele>1185</ele>
        <time>2010-01-01T00:13:33Z</time>
      </trkpt>
      <trkpt lat="42.30441" lon="2.17956">
        <ele>1186</ele>
        <time>2010-01-01T00:13:33Z</time>
      </trkpt>
      <trkpt lat="42.30439" lon="2.17957">
        <ele>1186</ele>
        <time>2010-01-01T00:13:34Z</time>
      </trkpt>
      <trkpt lat="42.30437" lon="2.17958">
        <ele>1187</ele>
        <time>2010-01-01T00:13:35Z</time>
      </trkpt>
      <trkpt lat="42.30436" lon="2.1796">
        <ele>1187</ele>
        <time>2010-01-01T00:13:36Z</time>
      </trkpt>
      <trkpt lat="42.30434" lon="2.17961">
        <ele>1188</ele>
        <time>2010-01-01T00:13:37Z</time>
      </trkpt>
      <trkpt lat="42.30431" lon="2.17963">
        <ele>1189</ele>
        <time>2010-01-01T00:13:38Z</time>
      </trkpt>
      <trkpt lat="42.3043" lon="2.17964">
        <ele>1189</ele>
        <time>2010-01-01T00:13:39Z</time>
      </trkpt>
      <trkpt lat="42.30426" lon="2.17967">
        <ele>1191</ele>
        <time>2010-01-01T00:13:40Z</time>
      </trkpt>
      <trkpt lat="42.30424" lon="2.17969">
        <ele>1191</ele>
        <time>2010-01-01T00:13:41Z</time>
      </trkpt>
      <trkpt lat="42.30422" lon="2.17971">
        <ele>1192</ele>
        <time>2010-01-01T00:13:42Z</time>
      </trkpt>
      <trkpt lat="42.3042" lon="2.17972">
        <ele>1192</ele>
        <time>2010-01-01T00:13:43Z</time>
      </trkpt>
      <trkpt lat="42.30418" lon="2.17974">
        <ele>1193</ele>
        <time>2010-01-01T00:13:44Z</time>
      </trkpt>
      <trkpt lat="42.30416" lon="2.17974">
        <ele>1194</ele>
        <time>2010-01-01T00:13:45Z</time>
      </trkpt>
      <trkpt lat="42.30411" lon="2.17976">
        <ele>1197</ele>
        <time>2010-01-01T00:13:47Z</time>
      </trkpt>
      <trkpt lat="42.30405" lon="2.17977">
        <ele>1200</ele>
        <time>2010-01-01T00:13:49Z</time>
      </trkpt>
      <trkpt lat="42.30401" lon="2.17977">
        <ele>1203</ele>
        <time>2010-01-01T00:13:51Z</time>
      </trkpt>
      <trkpt lat="42.30397" lon="2.17979">
        <ele>1205</ele>
        <time>2010-01-01T00:13:53Z</time>
      </trkpt>
      <trkpt lat="42.30395" lon="2.1798">
        <ele>1207</ele>
        <time>2010-01-01T00:13:53Z</time>
      </trkpt>
      <trkpt lat="42.30392" lon="2.17984">
        <ele>1209</ele>
        <time>2010-01-01T00:13:55Z</time>
      </trkpt>
      <trkpt lat="42.30391" lon="2.17987">
        <ele>1211</ele>
        <time>2010-01-01T00:13:56Z</time>
      </trkpt>
      <trkpt lat="42.30389" lon="2.17989">
        <ele>1212</ele>
        <time>2010-01-01T00:13:57Z</time>
      </trkpt>
      <trkpt lat="42.30387" lon="2.17992">
        <ele>1214</ele>
        <time>2010-01-01T00:13:58Z</time>
      </trkpt>
      <trkpt lat="42.30385" lon="2.17993">
        <ele>1215</ele>
        <time>2010-01-01T00:13:59Z</time>
      </trkpt>
      <trkpt lat="42.30383" lon="2.17994">
        <ele>1216</ele>
        <time>2010-01-01T00:14:00Z</time>
      </trkpt>
      <trkpt lat="42.30381" lon="2.17995">
        <ele>1217</ele>
        <time>2010-01-01T00:14:01Z</time>
      </trkpt>
      <trkpt lat="42.30375" lon="2.17997">
        <ele>1220</ele>
        <time>2010-01-01T00:14:03Z</time>
      </trkpt>
      <trkpt lat="42.30374" lon="2.17999">
        <ele>1221</ele>
        <time>2010-01-01T00:14:04Z</time>
      </trkpt>
      <trkpt lat="42.3037" lon="2.18">
        <ele>1223</ele>
        <time>2010-01-01T00:14:06Z</time>
      </trkpt>
      <trkpt lat="42.30368" lon="2.18">
        <ele>1224</ele>
        <time>2010-01-01T00:14:07Z</time>
      </trkpt>
      <trkpt lat="42.30366" lon="2.18001">
        <ele>1225</ele>
        <time>2010-01-01T00:14:07Z</time>
      </trkpt>
      <trkpt lat="42.30358" lon="2.18006">
        <ele>1228</ele>
        <time>2010-01-01T00:14:11Z</time>
      </trkpt>
      <trkpt lat="42.30354" lon="2.18006">
        <ele>1230</ele>
        <time>2010-01-01T00:14:13Z</time>
      </trkpt>
      <trkpt lat="42.30348" lon="2.18008">
        <ele>1233</ele>
        <time>2010-01-01T00:14:15Z</time>
      </trkpt>
      <trkpt lat="42.30345" lon="2.18009">
        <ele>1234</ele>
        <time>2010-01-01T00:14:16Z</time>
      </trkpt>
      <trkpt lat="42.30342" lon="2.18013">
        <ele>1236</ele>
        <time>2010-01-01T00:14:18Z</time>
      </trkpt>
      <trkpt lat="42.30335" lon="2.18015">
        <ele>1240</ele>
        <time>2010-01-01T00:14:21Z</time>
      </trkpt>
      <trkpt lat="42.30333" lon="2.18016">
        <ele>1241</ele>
        <time>2010-01-01T00:14:22Z</time>
      </trkpt>
      <trkpt lat="42.30329" lon="2.18019">
        <ele>1242</ele>
        <time>2010-01-01T00:14:24Z</time>
      </trkpt>
      <trkpt lat="42.30328" lon="2.18021">
        <ele>1243</ele>
        <time>2010-01-01T00:14:24Z</time>
      </trkpt>
      <trkpt lat="42.30324" lon="2.18022">
        <ele>1244</ele>
        <time>2010-01-01T00:14:26Z</time>
      </trkpt>
      <trkpt lat="42.30321" lon="2.18022">
        <ele>1245</ele>
        <time>2010-01-01T00:14:27Z</time>
      </trkpt>
      <trkpt lat="42.30319" lon="2.18026">
        <ele>1246</ele>
        <time>2010-01-01T00:14:28Z</time>
      </trkpt>
      <trkpt lat="42.30318" lon="2.18029">
        <ele>1247</ele>
        <time>2010-01-01T00:14:29Z</time>
      </trkpt>
      <trkpt lat="42.30317" lon="2.18031">
        <ele>1247</ele>
        <time>2010-01-01T00:14:30Z</time>
      </trkpt>
      <trkpt lat="42.30316" lon="2.18035">
        <ele>1248</ele>
        <time>2010-01-01T00:14:31Z</time>
      </trkpt>
      <trkpt lat="42.30316" lon="2.18038">
        <ele>1248</ele>
        <time>2010-01-01T00:14:32Z</time>
      </trkpt>
      <trkpt lat="42.30316" lon="2.1804">
        <ele>1249</ele>
        <time>2010-01-01T00:14:33Z</time>
      </trkpt>
      <trkpt lat="42.30317" lon="2.18043">
        <ele>1249</ele>
        <time>2010-01-01T00:14:34Z</time>
      </trkpt>
      <trkpt lat="42.30316" lon="2.18047">
        <ele>1250</ele>
        <time>2010-01-01T00:14:35Z</time>
      </trkpt>
      <trkpt lat="42.30315" lon="2.1805">
        <ele>1251</ele>
        <time>2010-01-01T00:14:36Z</time>
      </trkpt>
      <trkpt lat="42.30313" lon="2.18051">
        <ele>1252</ele>
        <time>2010-01-01T00:14:37Z</time>
      </trkpt>
      <trkpt lat="42.30311" lon="2.1805">
        <ele>1252</ele>
        <time>2010-01-01T00:14:38Z</time>
      </trkpt>
      <trkpt lat="42.30309" lon="2.18048">
        <ele>1253</ele>
        <time>2010-01-01T00:14:39Z</time>
      </trkpt>
      <trkpt lat="42.30307" lon="2.18047">
        <ele>1253</ele>
        <time>2010-01-01T00:14:39Z</time>
      </trkpt>
      <trkpt lat="42.30306" lon="2.18045">
        <ele>1253</ele>
        <time>2010-01-01T00:14:40Z</time>
      </trkpt>
      <trkpt lat="42.30305" lon="2.18043">
        <ele>1254</ele>
        <time>2010-01-01T00:14:41Z</time>
      </trkpt>
      <trkpt lat="42.30303" lon="2.18041">
        <ele>1254</ele>
        <time>2010-01-01T00:14:42Z</time>
      </trkpt>
      <trkpt lat="42.30299" lon="2.18042">
        <ele>1255</ele>
        <time>2010-01-01T00:14:44Z</time>
      </trkpt>
      <trkpt lat="42.30296" lon="2.18044">
        <ele>1256</ele>
        <time>2010-01-01T00:14:45Z</time>
      </trkpt>
      <trkpt lat="42.30294" lon="2.18045">
        <ele>1256</ele>
        <time>2010-01-01T00:14:45Z</time>
      </trkpt>
      <trkpt lat="42.3029" lon="2.18048">
        <ele>1258</ele>
        <time>2010-01-01T00:14:47Z</time>
      </trkpt>
      <trkpt lat="42.30289" lon="2.18051">
        <ele>1259</ele>
        <time>2010-01-01T00:14:48Z</time>
      </trkpt>
      <trkpt lat="42.30287" lon="2.18053">
        <ele>1260</ele>
        <time>2010-01-01T00:14:49Z</time>
      </trkpt>
      <trkpt lat="42.30286" lon="2.18056">
        <ele>1261</ele>
        <time>2010-01-01T00:14:50Z</time>
      </trkpt>
      <trkpt lat="42.30284" lon="2.18058">
        <ele>1261</ele>
        <time>2010-01-01T00:14:51Z</time>
      </trkpt>
      <trkpt lat="42.30283" lon="2.18061">
        <ele>1262</ele>
        <time>2010-01-01T00:14:52Z</time>
      </trkpt>
      <trkpt lat="42.30283" lon="2.18064">
        <ele>1263</ele>
        <time>2010-01-01T00:14:53Z</time>
      </trkpt>
      <trkpt lat="42.30281" lon="2.18066">
        <ele>1264</ele>
        <time>2010-01-01T00:14:54Z</time>
      </trkpt>
      <trkpt lat="42.3028" lon="2.18068">
        <ele>1265</ele>
        <time>2010-01-01T00:14:55Z</time>
      </trkpt>
      <trkpt lat="42.30279" lon="2.18071">
        <ele>1266</ele>
        <time>2010-01-01T00:14:56Z</time>
      </trkpt>
      <trkpt lat="42.30278" lon="2.18074">
        <ele>1267</ele>
        <time>2010-01-01T00:14:57Z</time>
      </trkpt>
      <trkpt lat="42.30276" lon="2.18075">
        <ele>1268</ele>
        <time>2010-01-01T00:14:57Z</time>
      </trkpt>
      <trkpt lat="42.30275" lon="2.18077">
        <ele>1269</ele>
        <time>2010-01-01T00:14:58Z</time>
      </trkpt>
      <trkpt lat="42.30273" lon="2.18079">
        <ele>1269</ele>
        <time>2010-01-01T00:14:59Z</time>
      </trkpt>
      <trkpt lat="42.30272" lon="2.18081">
        <ele>1270</ele>
        <time>2010-01-01T00:15:00Z</time>
      </trkpt>
      <trkpt lat="42.3027" lon="2.18084">
        <ele>1271</ele>
        <time>2010-01-01T00:15:01Z</time>
      </trkpt>
      <trkpt lat="42.30268" lon="2.18086">
        <ele>1272</ele>
        <time>2010-01-01T00:15:02Z</time>
      </trkpt>
      <trkpt lat="42.30265" lon="2.18087">
        <ele>1273</ele>
        <time>2010-01-01T00:15:03Z</time>
      </trkpt>
      <trkpt lat="42.30263" lon="2.18087">
        <ele>1274</ele>
        <time>2010-01-01T00:15:04Z</time>
      </trkpt>
      <trkpt lat="42.30261" lon="2.18087">
        <ele>1274</ele>
        <time>2010-01-01T00:15:05Z</time>
      </trkpt>
      <trkpt lat="42.30259" lon="2.18087">
        <ele>1274</ele>
        <time>2010-01-01T00:15:06Z</time>
      </trkpt>
      <trkpt lat="42.30256" lon="2.18086">
        <ele>1275</ele>
        <time>2010-01-01T00:15:07Z</time>
      </trkpt>
      <trkpt lat="42.30254" lon="2.18086">
        <ele>1275</ele>
        <time>2010-01-01T00:15:08Z</time>
      </trkpt>
      <trkpt lat="42.30252" lon="2.18085">
        <ele>1276</ele>
        <time>2010-01-01T00:15:09Z</time>
      </trkpt>
      <trkpt lat="42.30249" lon="2.18086">
        <ele>1276</ele>
        <time>2010-01-01T00:15:10Z</time>
      </trkpt>
      <trkpt lat="42.30247" lon="2.18087">
        <ele>1277</ele>
        <time>2010-01-01T00:15:11Z</time>
      </trkpt>
      <trkpt lat="42.30244" lon="2.1809">
        <ele>1278</ele>
        <time>2010-01-01T00:15:12Z</time>
      </trkpt>
      <trkpt lat="42.30243" lon="2.18092">
        <ele>1279</ele>
        <time>2010-01-01T00:15:13Z</time>
      </trkpt>
      <trkpt lat="42.30242" lon="2.18095">
        <ele>1279</ele>
        <time>2010-01-01T00:15:14Z</time>
      </trkpt>
      <trkpt lat="42.3024" lon="2.18098">
        <ele>1281</ele>
        <time>2010-01-01T00:15:15Z</time>
      </trkpt>
      <trkpt lat="42.3024" lon="2.181">
        <ele>1281</ele>
        <time>2010-01-01T00:15:15Z</time>
      </trkpt>
      <trkpt lat="42.30239" lon="2.18103">
        <ele>1282</ele>
        <time>2010-01-01T00:15:16Z</time>
      </trkpt>
      <trkpt lat="42.3024" lon="2.18106">
        <ele>1283</ele>
        <time>2010-01-01T00:15:17Z</time>
      </trkpt>
      <trkpt lat="42.30241" lon="2.18109">
        <ele>1284</ele>
        <time>2010-01-01T00:15:18Z</time>
      </trkpt>
      <trkpt lat="42.30241" lon="2.18112">
        <ele>1284</ele>
        <time>2010-01-01T00:15:19Z</time>
      </trkpt>
      <trkpt lat="42.30241" lon="2.18115">
        <ele>1285</ele>
        <time>2010-01-01T00:15:20Z</time>
      </trkpt>
      <trkpt lat="42.30241" lon="2.18118">
        <ele>1285</ele>
        <time>2010-01-01T00:15:21Z</time>
      </trkpt>
      <trkpt lat="42.30241" lon="2.18121">
        <ele>1286</ele>
        <time>2010-01-01T00:15:22Z</time>
      </trkpt>
      <trkpt lat="42.3024" lon="2.18124">
        <ele>1287</ele>
        <time>2010-01-01T00:15:23Z</time>
      </trkpt>
      <trkpt lat="42.3024" lon="2.18126">
        <ele>1287</ele>
        <time>2010-01-01T00:15:23Z</time>
      </trkpt>
      <trkpt lat="42.3024" lon="2.1813">
        <ele>1288</ele>
        <time>2010-01-01T00:15:25Z</time>
      </trkpt>
      <trkpt lat="42.3024" lon="2.18133">
        <ele>1289</ele>
        <time>2010-01-01T00:15:25Z</time>
      </trkpt>
      <trkpt lat="42.3024" lon="2.18135">
        <ele>1289</ele>
        <time>2010-01-01T00:15:26Z</time>
      </trkpt>
      <trkpt lat="42.30239" lon="2.18138">
        <ele>1290</ele>
        <time>2010-01-01T00:15:27Z</time>
      </trkpt>
      <trkpt lat="42.30239" lon="2.18142">
        <ele>1291</ele>
        <time>2010-01-01T00:15:28Z</time>
      </trkpt>
      <trkpt lat="42.30238" lon="2.18144">
        <ele>1291</ele>
        <time>2010-01-01T00:15:29Z</time>
      </trkpt>
      <trkpt lat="42.30239" lon="2.18146">
        <ele>1291</ele>
        <time>2010-01-01T00:15:30Z</time>
      </trkpt>
      <trkpt lat="42.30238" lon="2.18149">
        <ele>1292</ele>
        <time>2010-01-01T00:15:30Z</time>
      </trkpt>
      <trkpt lat="42.30237" lon="2.18152">
        <ele>1292</ele>
        <time>2010-01-01T00:15:31Z</time>
      </trkpt>
      <trkpt lat="42.30236" lon="2.18154">
        <ele>1293</ele>
        <time>2010-01-01T00:15:32Z</time>
      </trkpt>
      <trkpt lat="42.30235" lon="2.18157">
        <ele>1293</ele>
        <time>2010-01-01T00:15:33Z</time>
      </trkpt>
      <trkpt lat="42.30235" lon="2.18159">
        <ele>1294</ele>
        <time>2010-01-01T00:15:34Z</time>
      </trkpt>
      <trkpt lat="42.30235" lon="2.18162">
        <ele>1294</ele>
        <time>2010-01-01T00:15:35Z</time>
      </trkpt>
      <trkpt lat="42.30234" lon="2.18164">
        <ele>1295</ele>
        <time>2010-01-01T00:15:35Z</time>
      </trkpt>
      <trkpt lat="42.30234" lon="2.18167">
        <ele>1295</ele>
        <time>2010-01-01T00:15:36Z</time>
      </trkpt>
      <trkpt lat="42.30234" lon="2.1817">
        <ele>1296</ele>
        <time>2010-01-01T00:15:37Z</time>
      </trkpt>
      <trkpt lat="42.30234" lon="2.18173">
        <ele>1296</ele>
        <time>2010-01-01T00:15:38Z</time>
      </trkpt>
      <trkpt lat="42.30235" lon="2.18176">
        <ele>1296</ele>
        <time>2010-01-01T00:15:39Z</time>
      </trkpt>
      <trkpt lat="42.30234" lon="2.18178">
        <ele>1296</ele>
        <time>2010-01-01T00:15:39Z</time>
      </trkpt>
      <trkpt lat="42.30233" lon="2.18181">
        <ele>1297</ele>
        <time>2010-01-01T00:15:40Z</time>
      </trkpt>
      <trkpt lat="42.30232" lon="2.18183">
        <ele>1298</ele>
        <time>2010-01-01T00:15:41Z</time>
      </trkpt>
      <trkpt lat="42.3023" lon="2.18186">
        <ele>1299</ele>
        <time>2010-01-01T00:15:42Z</time>
      </trkpt>
      <trkpt lat="42.30229" lon="2.18188">
        <ele>1300</ele>
        <time>2010-01-01T00:15:43Z</time>
      </trkpt>
      <trkpt lat="42.30228" lon="2.18191">
        <ele>1301</ele>
        <time>2010-01-01T00:15:44Z</time>
      </trkpt>
      <trkpt lat="42.30226" lon="2.18193">
        <ele>1302</ele>
        <time>2010-01-01T00:15:45Z</time>
      </trkpt>
      <trkpt lat="42.30224" lon="2.18195">
        <ele>1303</ele>
        <time>2010-01-01T00:15:46Z</time>
      </trkpt>
      <trkpt lat="42.30223" lon="2.18198">
        <ele>1304</ele>
        <time>2010-01-01T00:15:47Z</time>
      </trkpt>
      <trkpt lat="42.30223" lon="2.18201">
        <ele>1305</ele>
        <time>2010-01-01T00:15:48Z</time>
      </trkpt>
      <trkpt lat="42.30222" lon="2.18203">
        <ele>1306</ele>
        <time>2010-01-01T00:15:49Z</time>
      </trkpt>
      <trkpt lat="42.30221" lon="2.18206">
        <ele>1306</ele>
        <time>2010-01-01T00:15:49Z</time>
      </trkpt>
      <trkpt lat="42.30221" lon="2.1821">
        <ele>1307</ele>
        <time>2010-01-01T00:15:51Z</time>
      </trkpt>
      <trkpt lat="42.3022" lon="2.18212">
        <ele>1308</ele>
        <time>2010-01-01T00:15:52Z</time>
      </trkpt>
      <trkpt lat="42.30218" lon="2.18215">
        <ele>1309</ele>
        <time>2010-01-01T00:15:53Z</time>
      </trkpt>
      <trkpt lat="42.30218" lon="2.18218">
        <ele>1309</ele>
        <time>2010-01-01T00:15:53Z</time>
      </trkpt>
      <trkpt lat="42.30217" lon="2.18221">
        <ele>1310</ele>
        <time>2010-01-01T00:15:54Z</time>
      </trkpt>
      <trkpt lat="42.30217" lon="2.18224">
        <ele>1310</ele>
        <time>2010-01-01T00:15:55Z</time>
      </trkpt>
      <trkpt lat="42.30217" lon="2.18227">
        <ele>1310</ele>
        <time>2010-01-01T00:15:56Z</time>
      </trkpt>
      <trkpt lat="42.30218" lon="2.18229">
        <ele>1310</ele>
        <time>2010-01-01T00:15:57Z</time>
      </trkpt>
      <trkpt lat="42.30217" lon="2.18232">
        <ele>1311</ele>
        <time>2010-01-01T00:15:58Z</time>
      </trkpt>
      <trkpt lat="42.30217" lon="2.18235">
        <ele>1312</ele>
        <time>2010-01-01T00:15:59Z</time>
      </trkpt>
      <trkpt lat="42.30216" lon="2.18239">
        <ele>1312</ele>
        <time>2010-01-01T00:16:00Z</time>
      </trkpt>
      <trkpt lat="42.30215" lon="2.18242">
        <ele>1313</ele>
        <time>2010-01-01T00:16:01Z</time>
      </trkpt>
      <trkpt lat="42.30215" lon="2.18244">
        <ele>1314</ele>
        <time>2010-01-01T00:16:02Z</time>
      </trkpt>
      <trkpt lat="42.30214" lon="2.18248">
        <ele>1314</ele>
        <time>2010-01-01T00:16:03Z</time>
      </trkpt>
      <trkpt lat="42.30213" lon="2.1825">
        <ele>1315</ele>
        <time>2010-01-01T00:16:03Z</time>
      </trkpt>
      <trkpt lat="42.30212" lon="2.18253">
        <ele>1315</ele>
        <time>2010-01-01T00:16:04Z</time>
      </trkpt>
      <trkpt lat="42.30211" lon="2.18256">
        <ele>1316</ele>
        <time>2010-01-01T00:16:05Z</time>
      </trkpt>
      <trkpt lat="42.3021" lon="2.18259">
        <ele>1316</ele>
        <time>2010-01-01T00:16:06Z</time>
      </trkpt>
      <trkpt lat="42.30209" lon="2.18261">
        <ele>1317</ele>
        <time>2010-01-01T00:16:07Z</time>
      </trkpt>
      <trkpt lat="42.30207" lon="2.18264">
        <ele>1318</ele>
        <time>2010-01-01T00:16:08Z</time>
      </trkpt>
      <trkpt lat="42.30207" lon="2.18266">
        <ele>1318</ele>
        <time>2010-01-01T00:16:09Z</time>
      </trkpt>
      <trkpt lat="42.30206" lon="2.18269">
        <ele>1319</ele>
        <time>2010-01-01T00:16:10Z</time>
      </trkpt>
      <trkpt lat="42.30205" lon="2.18273">
        <ele>1320</ele>
        <time>2010-01-01T00:16:11Z</time>
      </trkpt>
      <trkpt lat="42.30204" lon="2.18275">
        <ele>1320</ele>
        <time>2010-01-01T00:16:12Z</time>
      </trkpt>
      <trkpt lat="42.30203" lon="2.18277">
        <ele>1321</ele>
        <time>2010-01-01T00:16:13Z</time>
      </trkpt>
      <trkpt lat="42.30202" lon="2.1828">
        <ele>1322</ele>
        <time>2010-01-01T00:16:13Z</time>
      </trkpt>
      <trkpt lat="42.30201" lon="2.18283">
        <ele>1322</ele>
        <time>2010-01-01T00:16:14Z</time>
      </trkpt>
      <trkpt lat="42.302" lon="2.18285">
        <ele>1323</ele>
        <time>2010-01-01T00:16:15Z</time>
      </trkpt>
      <trkpt lat="42.30199" lon="2.18288">
        <ele>1323</ele>
        <time>2010-01-01T00:16:16Z</time>
      </trkpt>
      <trkpt lat="42.30197" lon="2.18293">
        <ele>1324</ele>
        <time>2010-01-01T00:16:18Z</time>
      </trkpt>
      <trkpt lat="42.30195" lon="2.18296">
        <ele>1325</ele>
        <time>2010-01-01T00:16:19Z</time>
      </trkpt>
      <trkpt lat="42.30193" lon="2.18297">
        <ele>1326</ele>
        <time>2010-01-01T00:16:20Z</time>
      </trkpt>
      <trkpt lat="42.30191" lon="2.18299">
        <ele>1327</ele>
        <time>2010-01-01T00:16:21Z</time>
      </trkpt>
      <trkpt lat="42.30189" lon="2.183">
        <ele>1327</ele>
        <time>2010-01-01T00:16:22Z</time>
      </trkpt>
      <trkpt lat="42.30188" lon="2.18303">
        <ele>1328</ele>
        <time>2010-01-01T00:16:22Z</time>
      </trkpt>
      <trkpt lat="42.30187" lon="2.18305">
        <ele>1328</ele>
        <time>2010-01-01T00:16:23Z</time>
      </trkpt>
      <trkpt lat="42.30186" lon="2.18308">
        <ele>1328</ele>
        <time>2010-01-01T00:16:24Z</time>
      </trkpt>
      <trkpt lat="42.30185" lon="2.1831">
        <ele>1328</ele>
        <time>2010-01-01T00:16:25Z</time>
      </trkpt>
      <trkpt lat="42.30185" lon="2.18312">
        <ele>1328</ele>
        <time>2010-01-01T00:16:26Z</time>
      </trkpt>
      <trkpt lat="42.30184" lon="2.18314">
        <ele>1329</ele>
        <time>2010-01-01T00:16:26Z</time>
      </trkpt>
      <trkpt lat="42.30182" lon="2.18316">
        <ele>1329</ele>
        <time>2010-01-01T00:16:27Z</time>
      </trkpt>
      <trkpt lat="42.30181" lon="2.18319">
        <ele>1330</ele>
        <time>2010-01-01T00:16:28Z</time>
      </trkpt>
      <trkpt lat="42.30179" lon="2.18322">
        <ele>1330</ele>
        <time>2010-01-01T00:16:29Z</time>
      </trkpt>
      <trkpt lat="42.30178" lon="2.18326">
        <ele>1331</ele>
        <time>2010-01-01T00:16:30Z</time>
      </trkpt>
      <trkpt lat="42.30177" lon="2.18329">
        <ele>1331</ele>
        <time>2010-01-01T00:16:32Z</time>
      </trkpt>
      <trkpt lat="42.30177" lon="2.18332">
        <ele>1331</ele>
        <time>2010-01-01T00:16:32Z</time>
      </trkpt>
      <trkpt lat="42.30175" lon="2.18334">
        <ele>1331</ele>
        <time>2010-01-01T00:16:33Z</time>
      </trkpt>
      <trkpt lat="42.30175" lon="2.18337">
        <ele>1332</ele>
        <time>2010-01-01T00:16:34Z</time>
      </trkpt>
      <trkpt lat="42.30174" lon="2.18339">
        <ele>1332</ele>
        <time>2010-01-01T00:16:35Z</time>
      </trkpt>
      <trkpt lat="42.30173" lon="2.18342">
        <ele>1333</ele>
        <time>2010-01-01T00:16:36Z</time>
      </trkpt>
      <trkpt lat="42.30172" lon="2.18345">
        <ele>1333</ele>
        <time>2010-01-01T00:16:37Z</time>
      </trkpt>
      <trkpt lat="42.30171" lon="2.18348">
        <ele>1334</ele>
        <time>2010-01-01T00:16:38Z</time>
      </trkpt>
      <trkpt lat="42.3017" lon="2.18352">
        <ele>1334</ele>
        <time>2010-01-01T00:16:39Z</time>
      </trkpt>
      <trkpt lat="42.3017" lon="2.18355">
        <ele>1334</ele>
        <time>2010-01-01T00:16:40Z</time>
      </trkpt>
      <trkpt lat="42.30168" lon="2.18358">
        <ele>1335</ele>
        <time>2010-01-01T00:16:41Z</time>
      </trkpt>
      <trkpt lat="42.30168" lon="2.18361">
        <ele>1335</ele>
        <time>2010-01-01T00:16:42Z</time>
      </trkpt>
      <trkpt lat="42.30167" lon="2.18365">
        <ele>1335</ele>
        <time>2010-01-01T00:16:43Z</time>
      </trkpt>
      <trkpt lat="42.30167" lon="2.18368">
        <ele>1335</ele>
        <time>2010-01-01T00:16:44Z</time>
      </trkpt>
      <trkpt lat="42.30167" lon="2.18371">
        <ele>1335</ele>
        <time>2010-01-01T00:16:45Z</time>
      </trkpt>
      <trkpt lat="42.30167" lon="2.18374">
        <ele>1335</ele>
        <time>2010-01-01T00:16:46Z</time>
      </trkpt>
      <trkpt lat="42.30166" lon="2.18377">
        <ele>1335</ele>
        <time>2010-01-01T00:16:47Z</time>
      </trkpt>
      <trkpt lat="42.30165" lon="2.18379">
        <ele>1335</ele>
        <time>2010-01-01T00:16:47Z</time>
      </trkpt>
      <trkpt lat="42.30164" lon="2.18383">
        <ele>1335</ele>
        <time>2010-01-01T00:16:49Z</time>
      </trkpt>
      <trkpt lat="42.30163" lon="2.18386">
        <ele>1335</ele>
        <time>2010-01-01T00:16:50Z</time>
      </trkpt>
      <trkpt lat="42.30162" lon="2.18389">
        <ele>1335</ele>
        <time>2010-01-01T00:16:51Z</time>
      </trkpt>
      <trkpt lat="42.30162" lon="2.18393">
        <ele>1335</ele>
        <time>2010-01-01T00:16:52Z</time>
      </trkpt>
      <trkpt lat="42.30162" lon="2.18402">
        <ele>1335</ele>
        <time>2010-01-01T00:16:54Z</time>
      </trkpt>
      <trkpt lat="42.30162" lon="2.18405">
        <ele>1335</ele>
        <time>2010-01-01T00:16:55Z</time>
      </trkpt>
      <trkpt lat="42.30161" lon="2.18408">
        <ele>1335</ele>
        <time>2010-01-01T00:16:56Z</time>
      </trkpt>
      <trkpt lat="42.3016" lon="2.1841">
        <ele>1335</ele>
        <time>2010-01-01T00:16:57Z</time>
      </trkpt>
      <trkpt lat="42.3016" lon="2.18413">
        <ele>1335</ele>
        <time>2010-01-01T00:16:58Z</time>
      </trkpt>
      <trkpt lat="42.30159" lon="2.18417">
        <ele>1335</ele>
        <time>2010-01-01T00:16:59Z</time>
      </trkpt>
      <trkpt lat="42.30158" lon="2.1842">
        <ele>1336</ele>
        <time>2010-01-01T00:17:00Z</time>
      </trkpt>
      <trkpt lat="42.30157" lon="2.18424">
        <ele>1336</ele>
        <time>2010-01-01T00:17:01Z</time>
      </trkpt>
      <trkpt lat="42.30157" lon="2.18427">
        <ele>1336</ele>
        <time>2010-01-01T00:17:02Z</time>
      </trkpt>
      <trkpt lat="42.30156" lon="2.18431">
        <ele>1336</ele>
        <time>2010-01-01T00:17:03Z</time>
      </trkpt>
      <trkpt lat="42.30154" lon="2.18434">
        <ele>1337</ele>
        <time>2010-01-01T00:17:04Z</time>
      </trkpt>
      <trkpt lat="42.30153" lon="2.18436">
        <ele>1337</ele>
        <time>2010-01-01T00:17:05Z</time>
      </trkpt>
      <trkpt lat="42.30153" lon="2.18439">
        <ele>1337</ele>
        <time>2010-01-01T00:17:06Z</time>
      </trkpt>
      <trkpt lat="42.30152" lon="2.18443">
        <ele>1337</ele>
        <time>2010-01-01T00:17:07Z</time>
      </trkpt>
      <trkpt lat="42.30152" lon="2.18446">
        <ele>1337</ele>
        <time>2010-01-01T00:17:08Z</time>
      </trkpt>
      <trkpt lat="42.30151" lon="2.18449">
        <ele>1338</ele>
        <time>2010-01-01T00:17:09Z</time>
      </trkpt>
      <trkpt lat="42.3015" lon="2.18452">
        <ele>1338</ele>
        <time>2010-01-01T00:17:10Z</time>
      </trkpt>
      <trkpt lat="42.3015" lon="2.18455">
        <ele>1338</ele>
        <time>2010-01-01T00:17:11Z</time>
      </trkpt>
      <trkpt lat="42.30149" lon="2.18458">
        <ele>1339</ele>
        <time>2010-01-01T00:17:12Z</time>
      </trkpt>
      <trkpt lat="42.30148" lon="2.18462">
        <ele>1339</ele>
        <time>2010-01-01T00:17:13Z</time>
      </trkpt>
      <trkpt lat="42.30147" lon="2.18465">
        <ele>1339</ele>
        <time>2010-01-01T00:17:14Z</time>
      </trkpt>
      <trkpt lat="42.30145" lon="2.18467">
        <ele>1340</ele>
        <time>2010-01-01T00:17:15Z</time>
      </trkpt>
      <trkpt lat="42.30144" lon="2.1847">
        <ele>1340</ele>
        <time>2010-01-01T00:17:16Z</time>
      </trkpt>
      <trkpt lat="42.30143" lon="2.18473">
        <ele>1340</ele>
        <time>2010-01-01T00:17:17Z</time>
      </trkpt>
      <trkpt lat="42.30142" lon="2.18476">
        <ele>1341</ele>
        <time>2010-01-01T00:17:18Z</time>
      </trkpt>
      <trkpt lat="42.3014" lon="2.18479">
        <ele>1341</ele>
        <time>2010-01-01T00:17:19Z</time>
      </trkpt>
      <trkpt lat="42.30138" lon="2.18484">
        <ele>1342</ele>
        <time>2010-01-01T00:17:21Z</time>
      </trkpt>
      <trkpt lat="42.30137" lon="2.18487">
        <ele>1342</ele>
        <time>2010-01-01T00:17:22Z</time>
      </trkpt>
      <trkpt lat="42.30137" lon="2.1849">
        <ele>1342</ele>
        <time>2010-01-01T00:17:23Z</time>
      </trkpt>
      <trkpt lat="42.30135" lon="2.18493">
        <ele>1343</ele>
        <time>2010-01-01T00:17:24Z</time>
      </trkpt>
      <trkpt lat="42.30134" lon="2.18496">
        <ele>1343</ele>
        <time>2010-01-01T00:17:25Z</time>
      </trkpt>
      <trkpt lat="42.30132" lon="2.18498">
        <ele>1344</ele>
        <time>2010-01-01T00:17:26Z</time>
      </trkpt>
      <trkpt lat="42.3013" lon="2.18501">
        <ele>1344</ele>
        <time>2010-01-01T00:17:27Z</time>
      </trkpt>
      <trkpt lat="42.30126" lon="2.18514">
        <ele>1346</ele>
        <time>2010-01-01T00:17:31Z</time>
      </trkpt>
      <trkpt lat="42.30124" lon="2.18518">
        <ele>1346</ele>
        <time>2010-01-01T00:17:32Z</time>
      </trkpt>
      <trkpt lat="42.30122" lon="2.18521">
        <ele>1347</ele>
        <time>2010-01-01T00:17:34Z</time>
      </trkpt>
      <trkpt lat="42.30121" lon="2.18523">
        <ele>1347</ele>
        <time>2010-01-01T00:17:35Z</time>
      </trkpt>
      <trkpt lat="42.3012" lon="2.18526">
        <ele>1347</ele>
        <time>2010-01-01T00:17:36Z</time>
      </trkpt>
      <trkpt lat="42.30118" lon="2.18528">
        <ele>1348</ele>
        <time>2010-01-01T00:17:36Z</time>
      </trkpt>
      <trkpt lat="42.30117" lon="2.1853">
        <ele>1348</ele>
        <time>2010-01-01T00:17:37Z</time>
      </trkpt>
      <trkpt lat="42.30115" lon="2.18532">
        <ele>1348</ele>
        <time>2010-01-01T00:17:38Z</time>
      </trkpt>
      <trkpt lat="42.30114" lon="2.18535">
        <ele>1348</ele>
        <time>2010-01-01T00:17:39Z</time>
      </trkpt>
      <trkpt lat="42.30112" lon="2.18536">
        <ele>1349</ele>
        <time>2010-01-01T00:17:40Z</time>
      </trkpt>
      <trkpt lat="42.3011" lon="2.18539">
        <ele>1349</ele>
        <time>2010-01-01T00:17:41Z</time>
      </trkpt>
      <trkpt lat="42.30107" lon="2.18541">
        <ele>1349</ele>
        <time>2010-01-01T00:17:42Z</time>
      </trkpt>
      <trkpt lat="42.30105" lon="2.18544">
        <ele>1349</ele>
        <time>2010-01-01T00:17:43Z</time>
      </trkpt>
      <trkpt lat="42.30103" lon="2.18547">
        <ele>1350</ele>
        <time>2010-01-01T00:17:45Z</time>
      </trkpt>
      <trkpt lat="42.30101" lon="2.18549">
        <ele>1350</ele>
        <time>2010-01-01T00:17:46Z</time>
      </trkpt>
      <trkpt lat="42.301" lon="2.18552">
        <ele>1350</ele>
        <time>2010-01-01T00:17:47Z</time>
      </trkpt>
      <trkpt lat="42.30099" lon="2.18555">
        <ele>1350</ele>
        <time>2010-01-01T00:17:48Z</time>
      </trkpt>
      <trkpt lat="42.30095" lon="2.18557">
        <ele>1350</ele>
        <time>2010-01-01T00:17:49Z</time>
      </trkpt>
      <trkpt lat="42.30092" lon="2.1856">
        <ele>1350</ele>
        <time>2010-01-01T00:17:51Z</time>
      </trkpt>
      <trkpt lat="42.30091" lon="2.18562">
        <ele>1350</ele>
        <time>2010-01-01T00:17:51Z</time>
      </trkpt>
      <trkpt lat="42.30089" lon="2.18563">
        <ele>1351</ele>
        <time>2010-01-01T00:17:52Z</time>
      </trkpt>
      <trkpt lat="42.30087" lon="2.18565">
        <ele>1351</ele>
        <time>2010-01-01T00:17:53Z</time>
      </trkpt>
      <trkpt lat="42.30086" lon="2.18567">
        <ele>1351</ele>
        <time>2010-01-01T00:17:54Z</time>
      </trkpt>
      <trkpt lat="42.30084" lon="2.1857">
        <ele>1351</ele>
        <time>2010-01-01T00:17:55Z</time>
      </trkpt>
      <trkpt lat="42.30084" lon="2.18573">
        <ele>1351</ele>
        <time>2010-01-01T00:17:56Z</time>
      </trkpt>
      <trkpt lat="42.30083" lon="2.18576">
        <ele>1351</ele>
        <time>2010-01-01T00:17:57Z</time>
      </trkpt>
      <trkpt lat="42.30082" lon="2.18578">
        <ele>1351</ele>
        <time>2010-01-01T00:17:58Z</time>
      </trkpt>
      <trkpt lat="42.3008" lon="2.1858">
        <ele>1350</ele>
        <time>2010-01-01T00:17:59Z</time>
      </trkpt>
      <trkpt lat="42.3008" lon="2.18583">
        <ele>1350</ele>
        <time>2010-01-01T00:18:00Z</time>
      </trkpt>
      <trkpt lat="42.30078" lon="2.18587">
        <ele>1350</ele>
        <time>2010-01-01T00:18:01Z</time>
      </trkpt>
      <trkpt lat="42.30077" lon="2.18591">
        <ele>1350</ele>
        <time>2010-01-01T00:18:02Z</time>
      </trkpt>
      <trkpt lat="42.30076" lon="2.18594">
        <ele>1350</ele>
        <time>2010-01-01T00:18:03Z</time>
      </trkpt>
      <trkpt lat="42.30076" lon="2.18598">
        <ele>1350</ele>
        <time>2010-01-01T00:18:04Z</time>
      </trkpt>
      <trkpt lat="42.30075" lon="2.18601">
        <ele>1350</ele>
        <time>2010-01-01T00:18:05Z</time>
      </trkpt>
      <trkpt lat="42.30075" lon="2.18605">
        <ele>1350</ele>
        <time>2010-01-01T00:18:06Z</time>
      </trkpt>
      <trkpt lat="42.30074" lon="2.18608">
        <ele>1350</ele>
        <time>2010-01-01T00:18:07Z</time>
      </trkpt>
      <trkpt lat="42.30074" lon="2.18611">
        <ele>1350</ele>
        <time>2010-01-01T00:18:08Z</time>
      </trkpt>
      <trkpt lat="42.30074" lon="2.18615">
        <ele>1350</ele>
        <time>2010-01-01T00:18:09Z</time>
      </trkpt>
      <trkpt lat="42.30073" lon="2.18617">
        <ele>1350</ele>
        <time>2010-01-01T00:18:10Z</time>
      </trkpt>
      <trkpt lat="42.30072" lon="2.18621">
        <ele>1350</ele>
        <time>2010-01-01T00:18:11Z</time>
      </trkpt>
      <trkpt lat="42.30071" lon="2.18624">
        <ele>1351</ele>
        <time>2010-01-01T00:18:12Z</time>
      </trkpt>
      <trkpt lat="42.3007" lon="2.18626">
        <ele>1351</ele>
        <time>2010-01-01T00:18:13Z</time>
      </trkpt>
      <trkpt lat="42.30069" lon="2.18629">
        <ele>1351</ele>
        <time>2010-01-01T00:18:14Z</time>
      </trkpt>
      <trkpt lat="42.30069" lon="2.18632">
        <ele>1351</ele>
        <time>2010-01-01T00:18:15Z</time>
      </trkpt>
      <trkpt lat="42.30068" lon="2.18635">
        <ele>1352</ele>
        <time>2010-01-01T00:18:16Z</time>
      </trkpt>
      <trkpt lat="42.30068" lon="2.18638">
        <ele>1352</ele>
        <time>2010-01-01T00:18:17Z</time>
      </trkpt>
      <trkpt lat="42.30067" lon="2.18641">
        <ele>1353</ele>
        <time>2010-01-01T00:18:18Z</time>
      </trkpt>
      <trkpt lat="42.30067" lon="2.18644">
        <ele>1353</ele>
        <time>2010-01-01T00:18:18Z</time>
      </trkpt>
      <trkpt lat="42.30066" lon="2.18647">
        <ele>1354</ele>
        <time>2010-01-01T00:18:19Z</time>
      </trkpt>
      <trkpt lat="42.30066" lon="2.1865">
        <ele>1354</ele>
        <time>2010-01-01T00:18:20Z</time>
      </trkpt>
      <trkpt lat="42.30065" lon="2.18653">
        <ele>1355</ele>
        <time>2010-01-01T00:18:21Z</time>
      </trkpt>
      <trkpt lat="42.30064" lon="2.18655">
        <ele>1356</ele>
        <time>2010-01-01T00:18:22Z</time>
      </trkpt>
      <trkpt lat="42.30063" lon="2.18657">
        <ele>1356</ele>
        <time>2010-01-01T00:18:23Z</time>
      </trkpt>
      <trkpt lat="42.30062" lon="2.18659">
        <ele>1357</ele>
        <time>2010-01-01T00:18:23Z</time>
      </trkpt>
      <trkpt lat="42.3006" lon="2.18662">
        <ele>1357</ele>
        <time>2010-01-01T00:18:24Z</time>
      </trkpt>
      <trkpt lat="42.30059" lon="2.18664">
        <ele>1358</ele>
        <time>2010-01-01T00:18:25Z</time>
      </trkpt>
      <trkpt lat="42.30057" lon="2.18666">
        <ele>1359</ele>
        <time>2010-01-01T00:18:26Z</time>
      </trkpt>
      <trkpt lat="42.30056" lon="2.18667">
        <ele>1360</ele>
        <time>2010-01-01T00:18:27Z</time>
      </trkpt>
      <trkpt lat="42.30054" lon="2.18669">
        <ele>1360</ele>
        <time>2010-01-01T00:18:28Z</time>
      </trkpt>
      <trkpt lat="42.30052" lon="2.1867">
        <ele>1360</ele>
        <time>2010-01-01T00:18:29Z</time>
      </trkpt>
      <trkpt lat="42.3005" lon="2.18671">
        <ele>1360</ele>
        <time>2010-01-01T00:18:29Z</time>
      </trkpt>
      <trkpt lat="42.30048" lon="2.18674">
        <ele>1360</ele>
        <time>2010-01-01T00:18:30Z</time>
      </trkpt>
      <trkpt lat="42.30047" lon="2.18676">
        <ele>1361</ele>
        <time>2010-01-01T00:18:31Z</time>
      </trkpt>
      <trkpt lat="42.30045" lon="2.18679">
        <ele>1361</ele>
        <time>2010-01-01T00:18:33Z</time>
      </trkpt>
      <trkpt lat="42.30044" lon="2.18682">
        <ele>1362</ele>
        <time>2010-01-01T00:18:34Z</time>
      </trkpt>
      <trkpt lat="42.30043" lon="2.18685">
        <ele>1362</ele>
        <time>2010-01-01T00:18:35Z</time>
      </trkpt>
      <trkpt lat="42.30042" lon="2.18688">
        <ele>1363</ele>
        <time>2010-01-01T00:18:35Z</time>
      </trkpt>
      <trkpt lat="42.30041" lon="2.18691">
        <ele>1363</ele>
        <time>2010-01-01T00:18:36Z</time>
      </trkpt>
      <trkpt lat="42.3004" lon="2.18694">
        <ele>1364</ele>
        <time>2010-01-01T00:18:37Z</time>
      </trkpt>
      <trkpt lat="42.30039" lon="2.18697">
        <ele>1364</ele>
        <time>2010-01-01T00:18:38Z</time>
      </trkpt>
      <trkpt lat="42.30038" lon="2.18701">
        <ele>1365</ele>
        <time>2010-01-01T00:18:40Z</time>
      </trkpt>
      <trkpt lat="42.30036" lon="2.18704">
        <ele>1365</ele>
        <time>2010-01-01T00:18:41Z</time>
      </trkpt>
      <trkpt lat="42.30034" lon="2.18706">
        <ele>1366</ele>
        <time>2010-01-01T00:18:42Z</time>
      </trkpt>
      <trkpt lat="42.30031" lon="2.18708">
        <ele>1366</ele>
        <time>2010-01-01T00:18:43Z</time>
      </trkpt>
      <trkpt lat="42.30029" lon="2.18711">
        <ele>1367</ele>
        <time>2010-01-01T00:18:44Z</time>
      </trkpt>
      <trkpt lat="42.30027" lon="2.18715">
        <ele>1367</ele>
        <time>2010-01-01T00:18:46Z</time>
      </trkpt>
      <trkpt lat="42.30026" lon="2.18718">
        <ele>1368</ele>
        <time>2010-01-01T00:18:47Z</time>
      </trkpt>
      <trkpt lat="42.30025" lon="2.18721">
        <ele>1368</ele>
        <time>2010-01-01T00:18:48Z</time>
      </trkpt>
      <trkpt lat="42.30027" lon="2.18723">
        <ele>1368</ele>
        <time>2010-01-01T00:18:48Z</time>
      </trkpt>
      <trkpt lat="42.30027" lon="2.18726">
        <ele>1369</ele>
        <time>2010-01-01T00:18:49Z</time>
      </trkpt>
      <trkpt lat="42.30026" lon="2.1873">
        <ele>1369</ele>
        <time>2010-01-01T00:18:51Z</time>
      </trkpt>
      <trkpt lat="42.30025" lon="2.18734">
        <ele>1370</ele>
        <time>2010-01-01T00:18:52Z</time>
      </trkpt>
      <trkpt lat="42.30024" lon="2.18738">
        <ele>1370</ele>
        <time>2010-01-01T00:18:53Z</time>
      </trkpt>
      <trkpt lat="42.30023" lon="2.18742">
        <ele>1370</ele>
        <time>2010-01-01T00:18:54Z</time>
      </trkpt>
      <trkpt lat="42.30021" lon="2.18745">
        <ele>1371</ele>
        <time>2010-01-01T00:18:56Z</time>
      </trkpt>
      <trkpt lat="42.30019" lon="2.18749">
        <ele>1371</ele>
        <time>2010-01-01T00:18:57Z</time>
      </trkpt>
      <trkpt lat="42.30018" lon="2.18752">
        <ele>1372</ele>
        <time>2010-01-01T00:18:58Z</time>
      </trkpt>
      <trkpt lat="42.30016" lon="2.18755">
        <ele>1372</ele>
        <time>2010-01-01T00:18:59Z</time>
      </trkpt>
      <trkpt lat="42.30014" lon="2.18758">
        <ele>1372</ele>
        <time>2010-01-01T00:19:00Z</time>
      </trkpt>
      <trkpt lat="42.30012" lon="2.18761">
        <ele>1373</ele>
        <time>2010-01-01T00:19:01Z</time>
      </trkpt>
      <trkpt lat="42.30011" lon="2.18763">
        <ele>1373</ele>
        <time>2010-01-01T00:19:02Z</time>
      </trkpt>
      <trkpt lat="42.3001" lon="2.18766">
        <ele>1373</ele>
        <time>2010-01-01T00:19:03Z</time>
      </trkpt>
      <trkpt lat="42.30009" lon="2.18769">
        <ele>1374</ele>
        <time>2010-01-01T00:19:04Z</time>
      </trkpt>
      <trkpt lat="42.30008" lon="2.18773">
        <ele>1374</ele>
        <time>2010-01-01T00:19:05Z</time>
      </trkpt>
      <trkpt lat="42.30007" lon="2.18776">
        <ele>1375</ele>
        <time>2010-01-01T00:19:06Z</time>
      </trkpt>
      <trkpt lat="42.30005" lon="2.18779">
        <ele>1376</ele>
        <time>2010-01-01T00:19:08Z</time>
      </trkpt>
      <trkpt lat="42.30003" lon="2.18782">
        <ele>1376</ele>
        <time>2010-01-01T00:19:09Z</time>
      </trkpt>
      <trkpt lat="42.30001" lon="2.18784">
        <ele>1377</ele>
        <time>2010-01-01T00:19:10Z</time>
      </trkpt>
      <trkpt lat="42.29999" lon="2.18786">
        <ele>1377</ele>
        <time>2010-01-01T00:19:11Z</time>
      </trkpt>
      <trkpt lat="42.29997" lon="2.18788">
        <ele>1378</ele>
        <time>2010-01-01T00:19:12Z</time>
      </trkpt>
      <trkpt lat="42.29996" lon="2.1879">
        <ele>1378</ele>
        <time>2010-01-01T00:19:13Z</time>
      </trkpt>
      <trkpt lat="42.29996" lon="2.18793">
        <ele>1379</ele>
        <time>2010-01-01T00:19:13Z</time>
      </trkpt>
      <trkpt lat="42.29994" lon="2.18795">
        <ele>1379</ele>
        <time>2010-01-01T00:19:14Z</time>
      </trkpt>
      <trkpt lat="42.29993" lon="2.18797">
        <ele>1379</ele>
        <time>2010-01-01T00:19:15Z</time>
      </trkpt>
      <trkpt lat="42.29991" lon="2.18798">
        <ele>1380</ele>
        <time>2010-01-01T00:19:16Z</time>
      </trkpt>
      <trkpt lat="42.2999" lon="2.188">
        <ele>1380</ele>
        <time>2010-01-01T00:19:17Z</time>
      </trkpt>
      <trkpt lat="42.29988" lon="2.18801">
        <ele>1381</ele>
        <time>2010-01-01T00:19:17Z</time>
      </trkpt>
      <trkpt lat="42.29986" lon="2.18803">
        <ele>1381</ele>
        <time>2010-01-01T00:19:18Z</time>
      </trkpt>
      <trkpt lat="42.29985" lon="2.18805">
        <ele>1382</ele>
        <time>2010-01-01T00:19:19Z</time>
      </trkpt>
      <trkpt lat="42.29984" lon="2.18809">
        <ele>1382</ele>
        <time>2010-01-01T00:19:20Z</time>
      </trkpt>
      <trkpt lat="42.29983" lon="2.18811">
        <ele>1383</ele>
        <time>2010-01-01T00:19:21Z</time>
      </trkpt>
      <trkpt lat="42.29982" lon="2.18814">
        <ele>1383</ele>
        <time>2010-01-01T00:19:22Z</time>
      </trkpt>
      <trkpt lat="42.29981" lon="2.18817">
        <ele>1384</ele>
        <time>2010-01-01T00:19:23Z</time>
      </trkpt>
      <trkpt lat="42.2998" lon="2.1882">
        <ele>1384</ele>
        <time>2010-01-01T00:19:24Z</time>
      </trkpt>
      <trkpt lat="42.29978" lon="2.18822">
        <ele>1385</ele>
        <time>2010-01-01T00:19:25Z</time>
      </trkpt>
      <trkpt lat="42.29977" lon="2.18825">
        <ele>1385</ele>
        <time>2010-01-01T00:19:26Z</time>
      </trkpt>
      <trkpt lat="42.29976" lon="2.18828">
        <ele>1386</ele>
        <time>2010-01-01T00:19:27Z</time>
      </trkpt>
      <trkpt lat="42.29976" lon="2.18831">
        <ele>1386</ele>
        <time>2010-01-01T00:19:28Z</time>
      </trkpt>
      <trkpt lat="42.29975" lon="2.18833">
        <ele>1387</ele>
        <time>2010-01-01T00:19:28Z</time>
      </trkpt>
      <trkpt lat="42.29974" lon="2.18836">
        <ele>1387</ele>
        <time>2010-01-01T00:19:29Z</time>
      </trkpt>
      <trkpt lat="42.29972" lon="2.18838">
        <ele>1388</ele>
        <time>2010-01-01T00:19:30Z</time>
      </trkpt>
      <trkpt lat="42.29971" lon="2.1884">
        <ele>1388</ele>
        <time>2010-01-01T00:19:31Z</time>
      </trkpt>
      <trkpt lat="42.29969" lon="2.18841">
        <ele>1389</ele>
        <time>2010-01-01T00:19:32Z</time>
      </trkpt>
      <trkpt lat="42.29967" lon="2.18843">
        <ele>1390</ele>
        <time>2010-01-01T00:19:33Z</time>
      </trkpt>
      <trkpt lat="42.29965" lon="2.18845">
        <ele>1390</ele>
        <time>2010-01-01T00:19:34Z</time>
      </trkpt>
      <trkpt lat="42.29964" lon="2.18846">
        <ele>1391</ele>
        <time>2010-01-01T00:19:34Z</time>
      </trkpt>
      <trkpt lat="42.29962" lon="2.18847">
        <ele>1391</ele>
        <time>2010-01-01T00:19:35Z</time>
      </trkpt>
      <trkpt lat="42.2996" lon="2.18849">
        <ele>1392</ele>
        <time>2010-01-01T00:19:36Z</time>
      </trkpt>
      <trkpt lat="42.29958" lon="2.1885">
        <ele>1393</ele>
        <time>2010-01-01T00:19:37Z</time>
      </trkpt>
      <trkpt lat="42.29957" lon="2.18853">
        <ele>1394</ele>
        <time>2010-01-01T00:19:38Z</time>
      </trkpt>
      <trkpt lat="42.29956" lon="2.18855">
        <ele>1394</ele>
        <time>2010-01-01T00:19:39Z</time>
      </trkpt>
      <trkpt lat="42.29954" lon="2.18858">
        <ele>1395</ele>
        <time>2010-01-01T00:19:40Z</time>
      </trkpt>
      <trkpt lat="42.29952" lon="2.18859">
        <ele>1396</ele>
        <time>2010-01-01T00:19:41Z</time>
      </trkpt>
      <trkpt lat="42.2995" lon="2.18859">
        <ele>1397</ele>
        <time>2010-01-01T00:19:42Z</time>
      </trkpt>
      <trkpt lat="42.29948" lon="2.1886">
        <ele>1397</ele>
        <time>2010-01-01T00:19:42Z</time>
      </trkpt>
      <trkpt lat="42.29944" lon="2.18859">
        <ele>1398</ele>
        <time>2010-01-01T00:19:44Z</time>
      </trkpt>
      <trkpt lat="42.29941" lon="2.18859">
        <ele>1399</ele>
        <time>2010-01-01T00:19:45Z</time>
      </trkpt>
      <trkpt lat="42.29939" lon="2.18859">
        <ele>1400</ele>
        <time>2010-01-01T00:19:46Z</time>
      </trkpt>
      <trkpt lat="42.29937" lon="2.1886">
        <ele>1400</ele>
        <time>2010-01-01T00:19:47Z</time>
      </trkpt>
      <trkpt lat="42.29935" lon="2.18861">
        <ele>1401</ele>
        <time>2010-01-01T00:19:48Z</time>
      </trkpt>
      <trkpt lat="42.29933" lon="2.18861">
        <ele>1401</ele>
        <time>2010-01-01T00:19:49Z</time>
      </trkpt>
      <trkpt lat="42.29931" lon="2.18861">
        <ele>1402</ele>
        <time>2010-01-01T00:19:49Z</time>
      </trkpt>
      <trkpt lat="42.29929" lon="2.18862">
        <ele>1403</ele>
        <time>2010-01-01T00:19:50Z</time>
      </trkpt>
      <trkpt lat="42.29927" lon="2.18863">
        <ele>1403</ele>
        <time>2010-01-01T00:19:51Z</time>
      </trkpt>
      <trkpt lat="42.29924" lon="2.18864">
        <ele>1404</ele>
        <time>2010-01-01T00:19:52Z</time>
      </trkpt>
      <trkpt lat="42.29922" lon="2.18864">
        <ele>1405</ele>
        <time>2010-01-01T00:19:53Z</time>
      </trkpt>
      <trkpt lat="42.2992" lon="2.18864">
        <ele>1405</ele>
        <time>2010-01-01T00:19:54Z</time>
      </trkpt>
      <trkpt lat="42.29918" lon="2.18865">
        <ele>1406</ele>
        <time>2010-01-01T00:19:55Z</time>
      </trkpt>
      <trkpt lat="42.29915" lon="2.18865">
        <ele>1406</ele>
        <time>2010-01-01T00:19:56Z</time>
      </trkpt>
      <trkpt lat="42.29913" lon="2.18865">
        <ele>1407</ele>
        <time>2010-01-01T00:19:57Z</time>
      </trkpt>
      <trkpt lat="42.29911" lon="2.18865">
        <ele>1407</ele>
        <time>2010-01-01T00:19:57Z</time>
      </trkpt>
      <trkpt lat="42.29909" lon="2.18865">
        <ele>1407</ele>
        <time>2010-01-01T00:19:58Z</time>
      </trkpt>
      <trkpt lat="42.29907" lon="2.18866">
        <ele>1408</ele>
        <time>2010-01-01T00:19:59Z</time>
      </trkpt>
      <trkpt lat="42.29904" lon="2.18866">
        <ele>1408</ele>
        <time>2010-01-01T00:20:00Z</time>
      </trkpt>
      <trkpt lat="42.29902" lon="2.18866">
        <ele>1409</ele>
        <time>2010-01-01T00:20:01Z</time>
      </trkpt>
      <trkpt lat="42.29898" lon="2.18865">
        <ele>1409</ele>
        <time>2010-01-01T00:20:03Z</time>
      </trkpt>
      <trkpt lat="42.29895" lon="2.18865">
        <ele>1409</ele>
        <time>2010-01-01T00:20:04Z</time>
      </trkpt>
      <trkpt lat="42.29893" lon="2.18864">
        <ele>1410</ele>
        <time>2010-01-01T00:20:05Z</time>
      </trkpt>
      <trkpt lat="42.2989" lon="2.18864">
        <ele>1410</ele>
        <time>2010-01-01T00:20:06Z</time>
      </trkpt>
      <trkpt lat="42.29885" lon="2.18864">
        <ele>1410</ele>
        <time>2010-01-01T00:20:08Z</time>
      </trkpt>
      <trkpt lat="42.29883" lon="2.18863">
        <ele>1410</ele>
        <time>2010-01-01T00:20:09Z</time>
      </trkpt>
      <trkpt lat="42.29878" lon="2.18864">
        <ele>1411</ele>
        <time>2010-01-01T00:20:11Z</time>
      </trkpt>
      <trkpt lat="42.29876" lon="2.18864">
        <ele>1411</ele>
        <time>2010-01-01T00:20:12Z</time>
      </trkpt>
      <trkpt lat="42.29873" lon="2.18864">
        <ele>1412</ele>
        <time>2010-01-01T00:20:13Z</time>
      </trkpt>
      <trkpt lat="42.2987" lon="2.18865">
        <ele>1412</ele>
        <time>2010-01-01T00:20:14Z</time>
      </trkpt>
      <trkpt lat="42.29867" lon="2.18866">
        <ele>1412</ele>
        <time>2010-01-01T00:20:15Z</time>
      </trkpt>
      <trkpt lat="42.29865" lon="2.18867">
        <ele>1413</ele>
        <time>2010-01-01T00:20:16Z</time>
      </trkpt>
      <trkpt lat="42.29862" lon="2.18869">
        <ele>1414</ele>
        <time>2010-01-01T00:20:17Z</time>
      </trkpt>
      <trkpt lat="42.2986" lon="2.18871">
        <ele>1414</ele>
        <time>2010-01-01T00:20:18Z</time>
      </trkpt>
      <trkpt lat="42.29858" lon="2.18872">
        <ele>1415</ele>
        <time>2010-01-01T00:20:19Z</time>
      </trkpt>
      <trkpt lat="42.29856" lon="2.18873">
        <ele>1415</ele>
        <time>2010-01-01T00:20:20Z</time>
      </trkpt>
      <trkpt lat="42.29854" lon="2.18875">
        <ele>1415</ele>
        <time>2010-01-01T00:20:21Z</time>
      </trkpt>
      <trkpt lat="42.29851" lon="2.18876">
        <ele>1415</ele>
        <time>2010-01-01T00:20:22Z</time>
      </trkpt>
      <trkpt lat="42.2985" lon="2.18877">
        <ele>1415</ele>
        <time>2010-01-01T00:20:23Z</time>
      </trkpt>
      <trkpt lat="42.29848" lon="2.18878">
        <ele>1416</ele>
        <time>2010-01-01T00:20:24Z</time>
      </trkpt>
      <trkpt lat="42.29846" lon="2.18881">
        <ele>1417</ele>
        <time>2010-01-01T00:20:25Z</time>
      </trkpt>
      <trkpt lat="42.29844" lon="2.18882">
        <ele>1417</ele>
        <time>2010-01-01T00:20:26Z</time>
      </trkpt>
      <trkpt lat="42.29843" lon="2.18883">
        <ele>1417</ele>
        <time>2010-01-01T00:20:26Z</time>
      </trkpt>
      <trkpt lat="42.2984" lon="2.18885">
        <ele>1418</ele>
        <time>2010-01-01T00:20:27Z</time>
      </trkpt>
      <trkpt lat="42.29839" lon="2.18888">
        <ele>1419</ele>
        <time>2010-01-01T00:20:29Z</time>
      </trkpt>
      <trkpt lat="42.29837" lon="2.18891">
        <ele>1420</ele>
        <time>2010-01-01T00:20:30Z</time>
      </trkpt>
      <trkpt lat="42.29835" lon="2.18893">
        <ele>1421</ele>
        <time>2010-01-01T00:20:31Z</time>
      </trkpt>
      <trkpt lat="42.29834" lon="2.18896">
        <ele>1421</ele>
        <time>2010-01-01T00:20:31Z</time>
      </trkpt>
      <trkpt lat="42.29833" lon="2.18898">
        <ele>1422</ele>
        <time>2010-01-01T00:20:32Z</time>
      </trkpt>
      <trkpt lat="42.29831" lon="2.18901">
        <ele>1423</ele>
        <time>2010-01-01T00:20:33Z</time>
      </trkpt>
      <trkpt lat="42.29829" lon="2.18903">
        <ele>1423</ele>
        <time>2010-01-01T00:20:34Z</time>
      </trkpt>
      <trkpt lat="42.29827" lon="2.18906">
        <ele>1424</ele>
        <time>2010-01-01T00:20:35Z</time>
      </trkpt>
      <trkpt lat="42.29825" lon="2.18909">
        <ele>1425</ele>
        <time>2010-01-01T00:20:37Z</time>
      </trkpt>
      <trkpt lat="42.29823" lon="2.18911">
        <ele>1425</ele>
        <time>2010-01-01T00:20:38Z</time>
      </trkpt>
      <trkpt lat="42.29821" lon="2.18914">
        <ele>1426</ele>
        <time>2010-01-01T00:20:39Z</time>
      </trkpt>
      <trkpt lat="42.29819" lon="2.18916">
        <ele>1427</ele>
        <time>2010-01-01T00:20:40Z</time>
      </trkpt>
      <trkpt lat="42.29817" lon="2.18918">
        <ele>1427</ele>
        <time>2010-01-01T00:20:41Z</time>
      </trkpt>
      <trkpt lat="42.29814" lon="2.18919">
        <ele>1427</ele>
        <time>2010-01-01T00:20:42Z</time>
      </trkpt>
      <trkpt lat="42.29811" lon="2.1892">
        <ele>1427</ele>
        <time>2010-01-01T00:20:43Z</time>
      </trkpt>
      <trkpt lat="42.29808" lon="2.18921">
        <ele>1427</ele>
        <time>2010-01-01T00:20:45Z</time>
      </trkpt>
      <trkpt lat="42.29806" lon="2.18923">
        <ele>1428</ele>
        <time>2010-01-01T00:20:46Z</time>
      </trkpt>
      <trkpt lat="42.29803" lon="2.18925">
        <ele>1428</ele>
        <time>2010-01-01T00:20:47Z</time>
      </trkpt>
      <trkpt lat="42.29801" lon="2.18927">
        <ele>1428</ele>
        <time>2010-01-01T00:20:48Z</time>
      </trkpt>
      <trkpt lat="42.29799" lon="2.18929">
        <ele>1428</ele>
        <time>2010-01-01T00:20:49Z</time>
      </trkpt>
      <trkpt lat="42.29798" lon="2.1893">
        <ele>1428</ele>
        <time>2010-01-01T00:20:50Z</time>
      </trkpt>
      <trkpt lat="42.29796" lon="2.18932">
        <ele>1429</ele>
        <time>2010-01-01T00:20:51Z</time>
      </trkpt>
      <trkpt lat="42.29794" lon="2.18934">
        <ele>1429</ele>
        <time>2010-01-01T00:20:52Z</time>
      </trkpt>
      <trkpt lat="42.29791" lon="2.18936">
        <ele>1429</ele>
        <time>2010-01-01T00:20:53Z</time>
      </trkpt>
      <trkpt lat="42.29789" lon="2.18938">
        <ele>1429</ele>
        <time>2010-01-01T00:20:54Z</time>
      </trkpt>
      <trkpt lat="42.29787" lon="2.18938">
        <ele>1429</ele>
        <time>2010-01-01T00:20:54Z</time>
      </trkpt>
      <trkpt lat="42.29785" lon="2.1894">
        <ele>1430</ele>
        <time>2010-01-01T00:20:56Z</time>
      </trkpt>
      <trkpt lat="42.29782" lon="2.18941">
        <ele>1430</ele>
        <time>2010-01-01T00:20:57Z</time>
      </trkpt>
      <trkpt lat="42.2978" lon="2.18941">
        <ele>1430</ele>
        <time>2010-01-01T00:20:58Z</time>
      </trkpt>
      <trkpt lat="42.29777" lon="2.18941">
        <ele>1430</ele>
        <time>2010-01-01T00:20:59Z</time>
      </trkpt>
      <trkpt lat="42.29773" lon="2.18941">
        <ele>1430</ele>
        <time>2010-01-01T00:21:00Z</time>
      </trkpt>
      <trkpt lat="42.29771" lon="2.18941">
        <ele>1430</ele>
        <time>2010-01-01T00:21:01Z</time>
      </trkpt>
      <trkpt lat="42.29769" lon="2.18942">
        <ele>1430</ele>
        <time>2010-01-01T00:21:02Z</time>
      </trkpt>
      <trkpt lat="42.29767" lon="2.18943">
        <ele>1430</ele>
        <time>2010-01-01T00:21:03Z</time>
      </trkpt>
      <trkpt lat="42.29764" lon="2.18943">
        <ele>1430</ele>
        <time>2010-01-01T00:21:04Z</time>
      </trkpt>
      <trkpt lat="42.29762" lon="2.18943">
        <ele>1430</ele>
        <time>2010-01-01T00:21:05Z</time>
      </trkpt>
      <trkpt lat="42.2976" lon="2.18942">
        <ele>1430</ele>
        <time>2010-01-01T00:21:05Z</time>
      </trkpt>
      <trkpt lat="42.29758" lon="2.18942">
        <ele>1430</ele>
        <time>2010-01-01T00:21:06Z</time>
      </trkpt>
      <trkpt lat="42.29756" lon="2.1894">
        <ele>1430</ele>
        <time>2010-01-01T00:21:07Z</time>
      </trkpt>
      <trkpt lat="42.29754" lon="2.18939">
        <ele>1429</ele>
        <time>2010-01-01T00:21:08Z</time>
      </trkpt>
      <trkpt lat="42.29752" lon="2.18938">
        <ele>1429</ele>
        <time>2010-01-01T00:21:09Z</time>
      </trkpt>
      <trkpt lat="42.2975" lon="2.18938">
        <ele>1429</ele>
        <time>2010-01-01T00:21:10Z</time>
      </trkpt>
      <trkpt lat="42.29748" lon="2.18939">
        <ele>1430</ele>
        <time>2010-01-01T00:21:11Z</time>
      </trkpt>
      <trkpt lat="42.29746" lon="2.18941">
        <ele>1431</ele>
        <time>2010-01-01T00:21:12Z</time>
      </trkpt>
      <trkpt lat="42.29744" lon="2.18941">
        <ele>1431</ele>
        <time>2010-01-01T00:21:12Z</time>
      </trkpt>
      <trkpt lat="42.29742" lon="2.18942">
        <ele>1432</ele>
        <time>2010-01-01T00:21:13Z</time>
      </trkpt>
      <trkpt lat="42.2974" lon="2.18941">
        <ele>1432</ele>
        <time>2010-01-01T00:21:14Z</time>
      </trkpt>
      <trkpt lat="42.29738" lon="2.1894">
        <ele>1432</ele>
        <time>2010-01-01T00:21:15Z</time>
      </trkpt>
      <trkpt lat="42.29736" lon="2.18937">
        <ele>1432</ele>
        <time>2010-01-01T00:21:16Z</time>
      </trkpt>
      <trkpt lat="42.29735" lon="2.18936">
        <ele>1433</ele>
        <time>2010-01-01T00:21:17Z</time>
      </trkpt>
      <trkpt lat="42.29733" lon="2.18934">
        <ele>1433</ele>
        <time>2010-01-01T00:21:18Z</time>
      </trkpt>
      <trkpt lat="42.29731" lon="2.18932">
        <ele>1433</ele>
        <time>2010-01-01T00:21:19Z</time>
      </trkpt>
      <trkpt lat="42.2973" lon="2.1893">
        <ele>1433</ele>
        <time>2010-01-01T00:21:20Z</time>
      </trkpt>
      <trkpt lat="42.29728" lon="2.18927">
        <ele>1433</ele>
        <time>2010-01-01T00:21:21Z</time>
      </trkpt>
      <trkpt lat="42.29726" lon="2.18924">
        <ele>1433</ele>
        <time>2010-01-01T00:21:22Z</time>
      </trkpt>
      <trkpt lat="42.29724" lon="2.18922">
        <ele>1434</ele>
        <time>2010-01-01T00:21:23Z</time>
      </trkpt>
      <trkpt lat="42.29722" lon="2.1892">
        <ele>1434</ele>
        <time>2010-01-01T00:21:24Z</time>
      </trkpt>
      <trkpt lat="42.2972" lon="2.18917">
        <ele>1434</ele>
        <time>2010-01-01T00:21:25Z</time>
      </trkpt>
      <trkpt lat="42.29718" lon="2.18915">
        <ele>1434</ele>
        <time>2010-01-01T00:21:26Z</time>
      </trkpt>
      <trkpt lat="42.29715" lon="2.18913">
        <ele>1435</ele>
        <time>2010-01-01T00:21:27Z</time>
      </trkpt>
      <trkpt lat="42.29713" lon="2.18912">
        <ele>1435</ele>
        <time>2010-01-01T00:21:28Z</time>
      </trkpt>
      <trkpt lat="42.29711" lon="2.18912">
        <ele>1436</ele>
        <time>2010-01-01T00:21:29Z</time>
      </trkpt>
      <trkpt lat="42.2971" lon="2.18915">
        <ele>1436</ele>
        <time>2010-01-01T00:21:30Z</time>
      </trkpt>
      <trkpt lat="42.2971" lon="2.18918">
        <ele>1437</ele>
        <time>2010-01-01T00:21:31Z</time>
      </trkpt>
      <trkpt lat="42.2971" lon="2.18921">
        <ele>1437</ele>
        <time>2010-01-01T00:21:32Z</time>
      </trkpt>
      <trkpt lat="42.29709" lon="2.18925">
        <ele>1437</ele>
        <time>2010-01-01T00:21:33Z</time>
      </trkpt>
      <trkpt lat="42.29709" lon="2.18928">
        <ele>1438</ele>
        <time>2010-01-01T00:21:34Z</time>
      </trkpt>
      <trkpt lat="42.29708" lon="2.18931">
        <ele>1438</ele>
        <time>2010-01-01T00:21:35Z</time>
      </trkpt>
      <trkpt lat="42.29708" lon="2.18934">
        <ele>1439</ele>
        <time>2010-01-01T00:21:36Z</time>
      </trkpt>
      <trkpt lat="42.29707" lon="2.18938">
        <ele>1439</ele>
        <time>2010-01-01T00:21:37Z</time>
      </trkpt>
      <trkpt lat="42.29707" lon="2.18941">
        <ele>1440</ele>
        <time>2010-01-01T00:21:38Z</time>
      </trkpt>
      <trkpt lat="42.29706" lon="2.18944">
        <ele>1440</ele>
        <time>2010-01-01T00:21:39Z</time>
      </trkpt>
      <trkpt lat="42.29705" lon="2.18948">
        <ele>1441</ele>
        <time>2010-01-01T00:21:40Z</time>
      </trkpt>
      <trkpt lat="42.29704" lon="2.18951">
        <ele>1441</ele>
        <time>2010-01-01T00:21:41Z</time>
      </trkpt>
      <trkpt lat="42.29703" lon="2.18954">
        <ele>1441</ele>
        <time>2010-01-01T00:21:42Z</time>
      </trkpt>
      <trkpt lat="42.29701" lon="2.18957">
        <ele>1442</ele>
        <time>2010-01-01T00:21:43Z</time>
      </trkpt>
      <trkpt lat="42.297" lon="2.1896">
        <ele>1442</ele>
        <time>2010-01-01T00:21:44Z</time>
      </trkpt>
      <trkpt lat="42.29698" lon="2.18963">
        <ele>1443</ele>
        <time>2010-01-01T00:21:45Z</time>
      </trkpt>
      <trkpt lat="42.29697" lon="2.18965">
        <ele>1444</ele>
        <time>2010-01-01T00:21:46Z</time>
      </trkpt>
      <trkpt lat="42.29695" lon="2.18967">
        <ele>1444</ele>
        <time>2010-01-01T00:21:47Z</time>
      </trkpt>
      <trkpt lat="42.29693" lon="2.18969">
        <ele>1444</ele>
        <time>2010-01-01T00:21:48Z</time>
      </trkpt>
      <trkpt lat="42.29692" lon="2.18971">
        <ele>1445</ele>
        <time>2010-01-01T00:21:49Z</time>
      </trkpt>
      <trkpt lat="42.2969" lon="2.18973">
        <ele>1445</ele>
        <time>2010-01-01T00:21:50Z</time>
      </trkpt>
      <trkpt lat="42.29688" lon="2.18975">
        <ele>1446</ele>
        <time>2010-01-01T00:21:51Z</time>
      </trkpt>
      <trkpt lat="42.29686" lon="2.18977">
        <ele>1446</ele>
        <time>2010-01-01T00:21:52Z</time>
      </trkpt>
      <trkpt lat="42.29684" lon="2.18978">
        <ele>1447</ele>
        <time>2010-01-01T00:21:52Z</time>
      </trkpt>
      <trkpt lat="42.29682" lon="2.1898">
        <ele>1447</ele>
        <time>2010-01-01T00:21:53Z</time>
      </trkpt>
      <trkpt lat="42.2968" lon="2.18982">
        <ele>1448</ele>
        <time>2010-01-01T00:21:54Z</time>
      </trkpt>
      <trkpt lat="42.29678" lon="2.18984">
        <ele>1449</ele>
        <time>2010-01-01T00:21:55Z</time>
      </trkpt>
      <trkpt lat="42.29676" lon="2.18986">
        <ele>1449</ele>
        <time>2010-01-01T00:21:56Z</time>
      </trkpt>
      <trkpt lat="42.29674" lon="2.18987">
        <ele>1450</ele>
        <time>2010-01-01T00:21:57Z</time>
      </trkpt>
      <trkpt lat="42.29672" lon="2.18989">
        <ele>1450</ele>
        <time>2010-01-01T00:21:58Z</time>
      </trkpt>
      <trkpt lat="42.2967" lon="2.18991">
        <ele>1451</ele>
        <time>2010-01-01T00:21:59Z</time>
      </trkpt>
      <trkpt lat="42.29668" lon="2.18992">
        <ele>1452</ele>
        <time>2010-01-01T00:22:00Z</time>
      </trkpt>
      <trkpt lat="42.29667" lon="2.18995">
        <ele>1453</ele>
        <time>2010-01-01T00:22:01Z</time>
      </trkpt>
      <trkpt lat="42.29666" lon="2.18996">
        <ele>1453</ele>
        <time>2010-01-01T00:22:02Z</time>
      </trkpt>
      <trkpt lat="42.29664" lon="2.18998">
        <ele>1453</ele>
        <time>2010-01-01T00:22:02Z</time>
      </trkpt>
      <trkpt lat="42.29663" lon="2.19">
        <ele>1454</ele>
        <time>2010-01-01T00:22:03Z</time>
      </trkpt>
      <trkpt lat="42.29661" lon="2.19002">
        <ele>1454</ele>
        <time>2010-01-01T00:22:04Z</time>
      </trkpt>
      <trkpt lat="42.29659" lon="2.19004">
        <ele>1454</ele>
        <time>2010-01-01T00:22:05Z</time>
      </trkpt>
      <trkpt lat="42.29657" lon="2.19006">
        <ele>1455</ele>
        <time>2010-01-01T00:22:06Z</time>
      </trkpt>
      <trkpt lat="42.29655" lon="2.19007">
        <ele>1455</ele>
        <time>2010-01-01T00:22:07Z</time>
      </trkpt>
      <trkpt lat="42.29653" lon="2.19009">
        <ele>1456</ele>
        <time>2010-01-01T00:22:08Z</time>
      </trkpt>
      <trkpt lat="42.29651" lon="2.19011">
        <ele>1456</ele>
        <time>2010-01-01T00:22:09Z</time>
      </trkpt>
      <trkpt lat="42.29649" lon="2.19013">
        <ele>1457</ele>
        <time>2010-01-01T00:22:10Z</time>
      </trkpt>
      <trkpt lat="42.29647" lon="2.19015">
        <ele>1457</ele>
        <time>2010-01-01T00:22:11Z</time>
      </trkpt>
      <trkpt lat="42.29646" lon="2.19016">
        <ele>1458</ele>
        <time>2010-01-01T00:22:12Z</time>
      </trkpt>
      <trkpt lat="42.29644" lon="2.19018">
        <ele>1459</ele>
        <time>2010-01-01T00:22:12Z</time>
      </trkpt>
      <trkpt lat="42.29642" lon="2.1902">
        <ele>1459</ele>
        <time>2010-01-01T00:22:13Z</time>
      </trkpt>
      <trkpt lat="42.2964" lon="2.19022">
        <ele>1460</ele>
        <time>2010-01-01T00:22:14Z</time>
      </trkpt>
      <trkpt lat="42.29639" lon="2.19024">
        <ele>1461</ele>
        <time>2010-01-01T00:22:15Z</time>
      </trkpt>
      <trkpt lat="42.29637" lon="2.19026">
        <ele>1461</ele>
        <time>2010-01-01T00:22:16Z</time>
      </trkpt>
      <trkpt lat="42.29636" lon="2.19028">
        <ele>1462</ele>
        <time>2010-01-01T00:22:17Z</time>
      </trkpt>
      <trkpt lat="42.29635" lon="2.1903">
        <ele>1463</ele>
        <time>2010-01-01T00:22:18Z</time>
      </trkpt>
      <trkpt lat="42.29634" lon="2.19032">
        <ele>1464</ele>
        <time>2010-01-01T00:22:18Z</time>
      </trkpt>
      <trkpt lat="42.29633" lon="2.19035">
        <ele>1465</ele>
        <time>2010-01-01T00:22:19Z</time>
      </trkpt>
      <trkpt lat="42.29631" lon="2.19037">
        <ele>1465</ele>
        <time>2010-01-01T00:22:20Z</time>
      </trkpt>
      <trkpt lat="42.2963" lon="2.19039">
        <ele>1466</ele>
        <time>2010-01-01T00:22:21Z</time>
      </trkpt>
      <trkpt lat="42.29628" lon="2.19041">
        <ele>1467</ele>
        <time>2010-01-01T00:22:22Z</time>
      </trkpt>
      <trkpt lat="42.29626" lon="2.19045">
        <ele>1468</ele>
        <time>2010-01-01T00:22:23Z</time>
      </trkpt>
      <trkpt lat="42.29626" lon="2.19047">
        <ele>1468</ele>
        <time>2010-01-01T00:22:24Z</time>
      </trkpt>
      <trkpt lat="42.29624" lon="2.19049">
        <ele>1469</ele>
        <time>2010-01-01T00:22:25Z</time>
      </trkpt>
      <trkpt lat="42.29623" lon="2.19051">
        <ele>1469</ele>
        <time>2010-01-01T00:22:25Z</time>
      </trkpt>
      <trkpt lat="42.29622" lon="2.19054">
        <ele>1470</ele>
        <time>2010-01-01T00:22:26Z</time>
      </trkpt>
      <trkpt lat="42.29621" lon="2.19055">
        <ele>1470</ele>
        <time>2010-01-01T00:22:27Z</time>
      </trkpt>
      <trkpt lat="42.29619" lon="2.19057">
        <ele>1471</ele>
        <time>2010-01-01T00:22:28Z</time>
      </trkpt>
      <trkpt lat="42.29618" lon="2.1906">
        <ele>1471</ele>
        <time>2010-01-01T00:22:29Z</time>
      </trkpt>
      <trkpt lat="42.29616" lon="2.19063">
        <ele>1472</ele>
        <time>2010-01-01T00:22:30Z</time>
      </trkpt>
      <trkpt lat="42.29615" lon="2.19065">
        <ele>1472</ele>
        <time>2010-01-01T00:22:31Z</time>
      </trkpt>
      <trkpt lat="42.29614" lon="2.19068">
        <ele>1473</ele>
        <time>2010-01-01T00:22:32Z</time>
      </trkpt>
      <trkpt lat="42.29612" lon="2.19071">
        <ele>1473</ele>
        <time>2010-01-01T00:22:33Z</time>
      </trkpt>
      <trkpt lat="42.2961" lon="2.19074">
        <ele>1474</ele>
        <time>2010-01-01T00:22:34Z</time>
      </trkpt>
      <trkpt lat="42.29609" lon="2.19076">
        <ele>1475</ele>
        <time>2010-01-01T00:22:35Z</time>
      </trkpt>
      <trkpt lat="42.29607" lon="2.19079">
        <ele>1475</ele>
        <time>2010-01-01T00:22:36Z</time>
      </trkpt>
      <trkpt lat="42.29606" lon="2.19082">
        <ele>1476</ele>
        <time>2010-01-01T00:22:37Z</time>
      </trkpt>
      <trkpt lat="42.29604" lon="2.19084">
        <ele>1477</ele>
        <time>2010-01-01T00:22:38Z</time>
      </trkpt>
      <trkpt lat="42.29603" lon="2.19087">
        <ele>1477</ele>
        <time>2010-01-01T00:22:39Z</time>
      </trkpt>
      <trkpt lat="42.29601" lon="2.19089">
        <ele>1478</ele>
        <time>2010-01-01T00:22:40Z</time>
      </trkpt>
      <trkpt lat="42.296" lon="2.19092">
        <ele>1478</ele>
        <time>2010-01-01T00:22:41Z</time>
      </trkpt>
      <trkpt lat="42.29599" lon="2.19095">
        <ele>1479</ele>
        <time>2010-01-01T00:22:42Z</time>
      </trkpt>
      <trkpt lat="42.29598" lon="2.19097">
        <ele>1480</ele>
        <time>2010-01-01T00:22:42Z</time>
      </trkpt>
      <trkpt lat="42.29597" lon="2.19099">
        <ele>1480</ele>
        <time>2010-01-01T00:22:43Z</time>
      </trkpt>
      <trkpt lat="42.29595" lon="2.19101">
        <ele>1481</ele>
        <time>2010-01-01T00:22:44Z</time>
      </trkpt>
      <trkpt lat="42.29593" lon="2.19103">
        <ele>1481</ele>
        <time>2010-01-01T00:22:45Z</time>
      </trkpt>
      <trkpt lat="42.29592" lon="2.19106">
        <ele>1482</ele>
        <time>2010-01-01T00:22:46Z</time>
      </trkpt>
      <trkpt lat="42.2959" lon="2.19109">
        <ele>1482</ele>
        <time>2010-01-01T00:22:47Z</time>
      </trkpt>
      <trkpt lat="42.29588" lon="2.19112">
        <ele>1483</ele>
        <time>2010-01-01T00:22:48Z</time>
      </trkpt>
      <trkpt lat="42.29588" lon="2.19114">
        <ele>1484</ele>
        <time>2010-01-01T00:22:49Z</time>
      </trkpt>
      <trkpt lat="42.29587" lon="2.19116">
        <ele>1484</ele>
        <time>2010-01-01T00:22:50Z</time>
      </trkpt>
      <trkpt lat="42.29586" lon="2.19119">
        <ele>1485</ele>
        <time>2010-01-01T00:22:51Z</time>
      </trkpt>
      <trkpt lat="42.29584" lon="2.19122">
        <ele>1486</ele>
        <time>2010-01-01T00:22:52Z</time>
      </trkpt>
      <trkpt lat="42.29583" lon="2.19124">
        <ele>1486</ele>
        <time>2010-01-01T00:22:53Z</time>
      </trkpt>
      <trkpt lat="42.29582" lon="2.19126">
        <ele>1487</ele>
        <time>2010-01-01T00:22:53Z</time>
      </trkpt>
      <trkpt lat="42.2958" lon="2.19129">
        <ele>1488</ele>
        <time>2010-01-01T00:22:54Z</time>
      </trkpt>
      <trkpt lat="42.29579" lon="2.19131">
        <ele>1488</ele>
        <time>2010-01-01T00:22:55Z</time>
      </trkpt>
      <trkpt lat="42.29578" lon="2.19134">
        <ele>1489</ele>
        <time>2010-01-01T00:22:56Z</time>
      </trkpt>
      <trkpt lat="42.29576" lon="2.19136">
        <ele>1490</ele>
        <time>2010-01-01T00:22:57Z</time>
      </trkpt>
      <trkpt lat="42.29575" lon="2.19139">
        <ele>1490</ele>
        <time>2010-01-01T00:22:58Z</time>
      </trkpt>
      <trkpt lat="42.29573" lon="2.19141">
        <ele>1491</ele>
        <time>2010-01-01T00:22:59Z</time>
      </trkpt>
      <trkpt lat="42.29572" lon="2.19143">
        <ele>1492</ele>
        <time>2010-01-01T00:23:00Z</time>
      </trkpt>
      <trkpt lat="42.2957" lon="2.19146">
        <ele>1493</ele>
        <time>2010-01-01T00:23:01Z</time>
      </trkpt>
      <trkpt lat="42.29568" lon="2.19148">
        <ele>1493</ele>
        <time>2010-01-01T00:23:02Z</time>
      </trkpt>
      <trkpt lat="42.29567" lon="2.1915">
        <ele>1494</ele>
        <time>2010-01-01T00:23:03Z</time>
      </trkpt>
      <trkpt lat="42.29565" lon="2.19152">
        <ele>1495</ele>
        <time>2010-01-01T00:23:04Z</time>
      </trkpt>
      <trkpt lat="42.29564" lon="2.19155">
        <ele>1495</ele>
        <time>2010-01-01T00:23:04Z</time>
      </trkpt>
      <trkpt lat="42.29562" lon="2.19157">
        <ele>1496</ele>
        <time>2010-01-01T00:23:05Z</time>
      </trkpt>
      <trkpt lat="42.29561" lon="2.19159">
        <ele>1497</ele>
        <time>2010-01-01T00:23:06Z</time>
      </trkpt>
      <trkpt lat="42.29559" lon="2.19161">
        <ele>1498</ele>
        <time>2010-01-01T00:23:07Z</time>
      </trkpt>
      <trkpt lat="42.29557" lon="2.19164">
        <ele>1499</ele>
        <time>2010-01-01T00:23:08Z</time>
      </trkpt>
      <trkpt lat="42.29555" lon="2.19166">
        <ele>1499</ele>
        <time>2010-01-01T00:23:09Z</time>
      </trkpt>
      <trkpt lat="42.29554" lon="2.19168">
        <ele>1500</ele>
        <time>2010-01-01T00:23:10Z</time>
      </trkpt>
      <trkpt lat="42.29552" lon="2.1917">
        <ele>1500</ele>
        <time>2010-01-01T00:23:11Z</time>
      </trkpt>
      <trkpt lat="42.29549" lon="2.19174">
        <ele>1500</ele>
        <time>2010-01-01T00:23:13Z</time>
      </trkpt>
      <trkpt lat="42.29548" lon="2.19177">
        <ele>1501</ele>
        <time>2010-01-01T00:23:14Z</time>
      </trkpt>
      <trkpt lat="42.29546" lon="2.1918">
        <ele>1501</ele>
        <time>2010-01-01T00:23:15Z</time>
      </trkpt>
      <trkpt lat="42.29544" lon="2.19183">
        <ele>1502</ele>
        <time>2010-01-01T00:23:16Z</time>
      </trkpt>
      <trkpt lat="42.29543" lon="2.19185">
        <ele>1502</ele>
        <time>2010-01-01T00:23:17Z</time>
      </trkpt>
      <trkpt lat="42.29542" lon="2.19188">
        <ele>1503</ele>
        <time>2010-01-01T00:23:18Z</time>
      </trkpt>
      <trkpt lat="42.29541" lon="2.1919">
        <ele>1504</ele>
        <time>2010-01-01T00:23:19Z</time>
      </trkpt>
      <trkpt lat="42.2954" lon="2.19196">
        <ele>1505</ele>
        <time>2010-01-01T00:23:20Z</time>
      </trkpt>
      <trkpt lat="42.29539" lon="2.19198">
        <ele>1506</ele>
        <time>2010-01-01T00:23:21Z</time>
      </trkpt>
      <trkpt lat="42.29538" lon="2.19201">
        <ele>1506</ele>
        <time>2010-01-01T00:23:22Z</time>
      </trkpt>
      <trkpt lat="42.29538" lon="2.19207">
        <ele>1508</ele>
        <time>2010-01-01T00:23:24Z</time>
      </trkpt>
      <trkpt lat="42.29537" lon="2.19209">
        <ele>1508</ele>
        <time>2010-01-01T00:23:25Z</time>
      </trkpt>
      <trkpt lat="42.29536" lon="2.19212">
        <ele>1509</ele>
        <time>2010-01-01T00:23:25Z</time>
      </trkpt>
      <trkpt lat="42.29535" lon="2.19215">
        <ele>1509</ele>
        <time>2010-01-01T00:23:26Z</time>
      </trkpt>
      <trkpt lat="42.29535" lon="2.19218">
        <ele>1510</ele>
        <time>2010-01-01T00:23:27Z</time>
      </trkpt>
      <trkpt lat="42.29534" lon="2.19225">
        <ele>1511</ele>
        <time>2010-01-01T00:23:29Z</time>
      </trkpt>
      <trkpt lat="42.29533" lon="2.19227">
        <ele>1512</ele>
        <time>2010-01-01T00:23:30Z</time>
      </trkpt>
      <trkpt lat="42.29532" lon="2.19228">
        <ele>1513</ele>
        <time>2010-01-01T00:23:31Z</time>
      </trkpt>
      <trkpt lat="42.2953" lon="2.1923">
        <ele>1514</ele>
        <time>2010-01-01T00:23:32Z</time>
      </trkpt>
      <trkpt lat="42.29528" lon="2.19233">
        <ele>1515</ele>
        <time>2010-01-01T00:23:33Z</time>
      </trkpt>
      <trkpt lat="42.29527" lon="2.19236">
        <ele>1515</ele>
        <time>2010-01-01T00:23:34Z</time>
      </trkpt>
      <trkpt lat="42.29526" lon="2.19239">
        <ele>1516</ele>
        <time>2010-01-01T00:23:35Z</time>
      </trkpt>
      <trkpt lat="42.29525" lon="2.19242">
        <ele>1516</ele>
        <time>2010-01-01T00:23:36Z</time>
      </trkpt>
      <trkpt lat="42.29525" lon="2.19244">
        <ele>1517</ele>
        <time>2010-01-01T00:23:37Z</time>
      </trkpt>
      <trkpt lat="42.29525" lon="2.1925">
        <ele>1518</ele>
        <time>2010-01-01T00:23:38Z</time>
      </trkpt>
      <trkpt lat="42.29525" lon="2.19253">
        <ele>1519</ele>
        <time>2010-01-01T00:23:39Z</time>
      </trkpt>
      <trkpt lat="42.29525" lon="2.19255">
        <ele>1519</ele>
        <time>2010-01-01T00:23:40Z</time>
      </trkpt>
      <trkpt lat="42.29525" lon="2.19258">
        <ele>1519</ele>
        <time>2010-01-01T00:23:41Z</time>
      </trkpt>
      <trkpt lat="42.29525" lon="2.1926">
        <ele>1519</ele>
        <time>2010-01-01T00:23:41Z</time>
      </trkpt>
      <trkpt lat="42.29524" lon="2.19264">
        <ele>1520</ele>
        <time>2010-01-01T00:23:42Z</time>
      </trkpt>
      <trkpt lat="42.29524" lon="2.19267">
        <ele>1520</ele>
        <time>2010-01-01T00:23:43Z</time>
      </trkpt>
      <trkpt lat="42.29522" lon="2.19269">
        <ele>1520</ele>
        <time>2010-01-01T00:23:44Z</time>
      </trkpt>
      <trkpt lat="42.29522" lon="2.19272">
        <ele>1520</ele>
        <time>2010-01-01T00:23:45Z</time>
      </trkpt>
      <trkpt lat="42.29521" lon="2.19274">
        <ele>1521</ele>
        <time>2010-01-01T00:23:46Z</time>
      </trkpt>
      <trkpt lat="42.2952" lon="2.19277">
        <ele>1521</ele>
        <time>2010-01-01T00:23:47Z</time>
      </trkpt>
      <trkpt lat="42.29519" lon="2.1928">
        <ele>1521</ele>
        <time>2010-01-01T00:23:48Z</time>
      </trkpt>
      <trkpt lat="42.29519" lon="2.19284">
        <ele>1522</ele>
        <time>2010-01-01T00:23:49Z</time>
      </trkpt>
      <trkpt lat="42.29519" lon="2.19287">
        <ele>1522</ele>
        <time>2010-01-01T00:23:50Z</time>
      </trkpt>
      <trkpt lat="42.29519" lon="2.1929">
        <ele>1522</ele>
        <time>2010-01-01T00:23:51Z</time>
      </trkpt>
      <trkpt lat="42.29519" lon="2.19293">
        <ele>1523</ele>
        <time>2010-01-01T00:23:51Z</time>
      </trkpt>
      <trkpt lat="42.29519" lon="2.19296">
        <ele>1523</ele>
        <time>2010-01-01T00:23:52Z</time>
      </trkpt>
      <trkpt lat="42.29519" lon="2.19299">
        <ele>1524</ele>
        <time>2010-01-01T00:23:53Z</time>
      </trkpt>
      <trkpt lat="42.29518" lon="2.19301">
        <ele>1524</ele>
        <time>2010-01-01T00:23:54Z</time>
      </trkpt>
      <trkpt lat="42.29516" lon="2.19303">
        <ele>1524</ele>
        <time>2010-01-01T00:23:55Z</time>
      </trkpt>
      <trkpt lat="42.29515" lon="2.19305">
        <ele>1524</ele>
        <time>2010-01-01T00:23:55Z</time>
      </trkpt>
      <trkpt lat="42.29515" lon="2.19308">
        <ele>1524</ele>
        <time>2010-01-01T00:23:56Z</time>
      </trkpt>
      <trkpt lat="42.29514" lon="2.19311">
        <ele>1525</ele>
        <time>2010-01-01T00:23:57Z</time>
      </trkpt>
      <trkpt lat="42.29514" lon="2.19313">
        <ele>1525</ele>
        <time>2010-01-01T00:23:58Z</time>
      </trkpt>
      <trkpt lat="42.29516" lon="2.19316">
        <ele>1526</ele>
        <time>2010-01-01T00:23:59Z</time>
      </trkpt>
      <trkpt lat="42.29517" lon="2.19319">
        <ele>1526</ele>
        <time>2010-01-01T00:24:00Z</time>
      </trkpt>
      <trkpt lat="42.29517" lon="2.19321">
        <ele>1527</ele>
        <time>2010-01-01T00:24:01Z</time>
      </trkpt>
      <trkpt lat="42.29518" lon="2.19324">
        <ele>1527</ele>
        <time>2010-01-01T00:24:01Z</time>
      </trkpt>
      <trkpt lat="42.29517" lon="2.19326">
        <ele>1528</ele>
        <time>2010-01-01T00:24:02Z</time>
      </trkpt>
      <trkpt lat="42.29516" lon="2.19329">
        <ele>1528</ele>
        <time>2010-01-01T00:24:03Z</time>
      </trkpt>
      <trkpt lat="42.29515" lon="2.19331">
        <ele>1528</ele>
        <time>2010-01-01T00:24:04Z</time>
      </trkpt>
      <trkpt lat="42.29514" lon="2.19334">
        <ele>1529</ele>
        <time>2010-01-01T00:24:05Z</time>
      </trkpt>
      <trkpt lat="42.29513" lon="2.19337">
        <ele>1529</ele>
        <time>2010-01-01T00:24:06Z</time>
      </trkpt>
      <trkpt lat="42.29513" lon="2.19341">
        <ele>1530</ele>
        <time>2010-01-01T00:24:07Z</time>
      </trkpt>
      <trkpt lat="42.29513" lon="2.19345">
        <ele>1531</ele>
        <time>2010-01-01T00:24:08Z</time>
      </trkpt>
      <trkpt lat="42.29513" lon="2.19349">
        <ele>1531</ele>
        <time>2010-01-01T00:24:09Z</time>
      </trkpt>
      <trkpt lat="42.29513" lon="2.19355">
        <ele>1532</ele>
        <time>2010-01-01T00:24:11Z</time>
      </trkpt>
      <trkpt lat="42.29513" lon="2.19359">
        <ele>1533</ele>
        <time>2010-01-01T00:24:12Z</time>
      </trkpt>
      <trkpt lat="42.29512" lon="2.19362">
        <ele>1534</ele>
        <time>2010-01-01T00:24:13Z</time>
      </trkpt>
      <trkpt lat="42.29512" lon="2.19365">
        <ele>1534</ele>
        <time>2010-01-01T00:24:14Z</time>
      </trkpt>
      <trkpt lat="42.29511" lon="2.19369">
        <ele>1535</ele>
        <time>2010-01-01T00:24:15Z</time>
      </trkpt>
      <trkpt lat="42.2951" lon="2.19372">
        <ele>1535</ele>
        <time>2010-01-01T00:24:16Z</time>
      </trkpt>
      <trkpt lat="42.2951" lon="2.19375">
        <ele>1536</ele>
        <time>2010-01-01T00:24:17Z</time>
      </trkpt>
      <trkpt lat="42.29509" lon="2.19378">
        <ele>1537</ele>
        <time>2010-01-01T00:24:18Z</time>
      </trkpt>
      <trkpt lat="42.29509" lon="2.19381">
        <ele>1537</ele>
        <time>2010-01-01T00:24:19Z</time>
      </trkpt>
      <trkpt lat="42.29508" lon="2.19383">
        <ele>1538</ele>
        <time>2010-01-01T00:24:20Z</time>
      </trkpt>
      <trkpt lat="42.29508" lon="2.19386">
        <ele>1538</ele>
        <time>2010-01-01T00:24:21Z</time>
      </trkpt>
      <trkpt lat="42.29508" lon="2.19389">
        <ele>1539</ele>
        <time>2010-01-01T00:24:21Z</time>
      </trkpt>
      <trkpt lat="42.29507" lon="2.19392">
        <ele>1540</ele>
        <time>2010-01-01T00:24:22Z</time>
      </trkpt>
      <trkpt lat="42.29506" lon="2.19395">
        <ele>1540</ele>
        <time>2010-01-01T00:24:23Z</time>
      </trkpt>
      <trkpt lat="42.29505" lon="2.19398">
        <ele>1541</ele>
        <time>2010-01-01T00:24:24Z</time>
      </trkpt>
      <trkpt lat="42.29504" lon="2.19401">
        <ele>1542</ele>
        <time>2010-01-01T00:24:25Z</time>
      </trkpt>
      <trkpt lat="42.29504" lon="2.19404">
        <ele>1543</ele>
        <time>2010-01-01T00:24:26Z</time>
      </trkpt>
      <trkpt lat="42.29503" lon="2.19408">
        <ele>1543</ele>
        <time>2010-01-01T00:24:27Z</time>
      </trkpt>
      <trkpt lat="42.29502" lon="2.1941">
        <ele>1544</ele>
        <time>2010-01-01T00:24:28Z</time>
      </trkpt>
      <trkpt lat="42.29501" lon="2.19413">
        <ele>1545</ele>
        <time>2010-01-01T00:24:29Z</time>
      </trkpt>
      <trkpt lat="42.295" lon="2.19416">
        <ele>1545</ele>
        <time>2010-01-01T00:24:30Z</time>
      </trkpt>
      <trkpt lat="42.295" lon="2.19419">
        <ele>1546</ele>
        <time>2010-01-01T00:24:31Z</time>
      </trkpt>
      <trkpt lat="42.29499" lon="2.19422">
        <ele>1547</ele>
        <time>2010-01-01T00:24:32Z</time>
      </trkpt>
      <trkpt lat="42.29498" lon="2.19424">
        <ele>1548</ele>
        <time>2010-01-01T00:24:33Z</time>
      </trkpt>
      <trkpt lat="42.29497" lon="2.19427">
        <ele>1549</ele>
        <time>2010-01-01T00:24:34Z</time>
      </trkpt>
      <trkpt lat="42.29496" lon="2.19429">
        <ele>1549</ele>
        <time>2010-01-01T00:24:34Z</time>
      </trkpt>
      <trkpt lat="42.29495" lon="2.19432">
        <ele>1550</ele>
        <time>2010-01-01T00:24:35Z</time>
      </trkpt>
      <trkpt lat="42.29494" lon="2.19435">
        <ele>1551</ele>
        <time>2010-01-01T00:24:36Z</time>
      </trkpt>
      <trkpt lat="42.29493" lon="2.19437">
        <ele>1552</ele>
        <time>2010-01-01T00:24:37Z</time>
      </trkpt>
      <trkpt lat="42.29493" lon="2.1944">
        <ele>1553</ele>
        <time>2010-01-01T00:24:38Z</time>
      </trkpt>
      <trkpt lat="42.29492" lon="2.19443">
        <ele>1554</ele>
        <time>2010-01-01T00:24:39Z</time>
      </trkpt>
      <trkpt lat="42.29491" lon="2.19445">
        <ele>1555</ele>
        <time>2010-01-01T00:24:39Z</time>
      </trkpt>
      <trkpt lat="42.29491" lon="2.19448">
        <ele>1556</ele>
        <time>2010-01-01T00:24:40Z</time>
      </trkpt>
      <trkpt lat="42.2949" lon="2.1945">
        <ele>1557</ele>
        <time>2010-01-01T00:24:41Z</time>
      </trkpt>
      <trkpt lat="42.29489" lon="2.19453">
        <ele>1557</ele>
        <time>2010-01-01T00:24:42Z</time>
      </trkpt>
      <trkpt lat="42.29488" lon="2.19455">
        <ele>1558</ele>
        <time>2010-01-01T00:24:43Z</time>
      </trkpt>
      <trkpt lat="42.29488" lon="2.19458">
        <ele>1559</ele>
        <time>2010-01-01T00:24:43Z</time>
      </trkpt>
      <trkpt lat="42.29487" lon="2.19461">
        <ele>1560</ele>
        <time>2010-01-01T00:24:44Z</time>
      </trkpt>
      <trkpt lat="42.29486" lon="2.19464">
        <ele>1561</ele>
        <time>2010-01-01T00:24:45Z</time>
      </trkpt>
      <trkpt lat="42.29485" lon="2.19466">
        <ele>1562</ele>
        <time>2010-01-01T00:24:46Z</time>
      </trkpt>
      <trkpt lat="42.29485" lon="2.19469">
        <ele>1563</ele>
        <time>2010-01-01T00:24:47Z</time>
      </trkpt>
      <trkpt lat="42.29485" lon="2.19472">
        <ele>1564</ele>
        <time>2010-01-01T00:24:48Z</time>
      </trkpt>
      <trkpt lat="42.29485" lon="2.19475">
        <ele>1565</ele>
        <time>2010-01-01T00:24:49Z</time>
      </trkpt>
      <trkpt lat="42.29485" lon="2.19477">
        <ele>1565</ele>
        <time>2010-01-01T00:24:49Z</time>
      </trkpt>
      <trkpt lat="42.29484" lon="2.1948">
        <ele>1566</ele>
        <time>2010-01-01T00:24:50Z</time>
      </trkpt>
      <trkpt lat="42.29484" lon="2.19483">
        <ele>1567</ele>
        <time>2010-01-01T00:24:51Z</time>
      </trkpt>
      <trkpt lat="42.29483" lon="2.19486">
        <ele>1568</ele>
        <time>2010-01-01T00:24:52Z</time>
      </trkpt>
      <trkpt lat="42.29483" lon="2.19489">
        <ele>1569</ele>
        <time>2010-01-01T00:24:53Z</time>
      </trkpt>
      <trkpt lat="42.29483" lon="2.19492">
        <ele>1570</ele>
        <time>2010-01-01T00:24:54Z</time>
      </trkpt>
      <trkpt lat="42.29483" lon="2.19495">
        <ele>1571</ele>
        <time>2010-01-01T00:24:55Z</time>
      </trkpt>
      <trkpt lat="42.29483" lon="2.19501">
        <ele>1573</ele>
        <time>2010-01-01T00:24:56Z</time>
      </trkpt>
      <trkpt lat="42.29482" lon="2.19503">
        <ele>1573</ele>
        <time>2010-01-01T00:24:57Z</time>
      </trkpt>
      <trkpt lat="42.29482" lon="2.19506">
        <ele>1574</ele>
        <time>2010-01-01T00:24:58Z</time>
      </trkpt>
      <trkpt lat="42.29483" lon="2.19509">
        <ele>1575</ele>
        <time>2010-01-01T00:24:59Z</time>
      </trkpt>
      <trkpt lat="42.29483" lon="2.19511">
        <ele>1575</ele>
        <time>2010-01-01T00:25:00Z</time>
      </trkpt>
      <trkpt lat="42.29484" lon="2.19514">
        <ele>1576</ele>
        <time>2010-01-01T00:25:00Z</time>
      </trkpt>
      <trkpt lat="42.29484" lon="2.19516">
        <ele>1576</ele>
        <time>2010-01-01T00:25:01Z</time>
      </trkpt>
      <trkpt lat="42.29484" lon="2.1952">
        <ele>1577</ele>
        <time>2010-01-01T00:25:02Z</time>
      </trkpt>
      <trkpt lat="42.29485" lon="2.19522">
        <ele>1578</ele>
        <time>2010-01-01T00:25:03Z</time>
      </trkpt>
      <trkpt lat="42.29485" lon="2.19525">
        <ele>1578</ele>
        <time>2010-01-01T00:25:04Z</time>
      </trkpt>
      <trkpt lat="42.29485" lon="2.19528">
        <ele>1579</ele>
        <time>2010-01-01T00:25:05Z</time>
      </trkpt>
      <trkpt lat="42.29486" lon="2.19531">
        <ele>1579</ele>
        <time>2010-01-01T00:25:06Z</time>
      </trkpt>
      <trkpt lat="42.29487" lon="2.19533">
        <ele>1580</ele>
        <time>2010-01-01T00:25:06Z</time>
      </trkpt>
      <trkpt lat="42.29487" lon="2.19536">
        <ele>1581</ele>
        <time>2010-01-01T00:25:07Z</time>
      </trkpt>
      <trkpt lat="42.29486" lon="2.19539">
        <ele>1582</ele>
        <time>2010-01-01T00:25:08Z</time>
      </trkpt>
      <trkpt lat="42.29486" lon="2.19542">
        <ele>1583</ele>
        <time>2010-01-01T00:25:09Z</time>
      </trkpt>
      <trkpt lat="42.29486" lon="2.19546">
        <ele>1584</ele>
        <time>2010-01-01T00:25:10Z</time>
      </trkpt>
      <trkpt lat="42.29486" lon="2.19549">
        <ele>1585</ele>
        <time>2010-01-01T00:25:11Z</time>
      </trkpt>
      <trkpt lat="42.29486" lon="2.19553">
        <ele>1586</ele>
        <time>2010-01-01T00:25:12Z</time>
      </trkpt>
      <trkpt lat="42.29486" lon="2.19555">
        <ele>1587</ele>
        <time>2010-01-01T00:25:13Z</time>
      </trkpt>
      <trkpt lat="42.29486" lon="2.19559">
        <ele>1587</ele>
        <time>2010-01-01T00:25:14Z</time>
      </trkpt>
      <trkpt lat="42.29486" lon="2.19561">
        <ele>1588</ele>
        <time>2010-01-01T00:25:15Z</time>
      </trkpt>
      <trkpt lat="42.29486" lon="2.19565">
        <ele>1589</ele>
        <time>2010-01-01T00:25:16Z</time>
      </trkpt>
      <trkpt lat="42.29487" lon="2.19568">
        <ele>1590</ele>
        <time>2010-01-01T00:25:17Z</time>
      </trkpt>
      <trkpt lat="42.29487" lon="2.19571">
        <ele>1590</ele>
        <time>2010-01-01T00:25:18Z</time>
      </trkpt>
      <trkpt lat="42.29487" lon="2.19573">
        <ele>1591</ele>
        <time>2010-01-01T00:25:18Z</time>
      </trkpt>
      <trkpt lat="42.29488" lon="2.19577">
        <ele>1592</ele>
        <time>2010-01-01T00:25:19Z</time>
      </trkpt>
      <trkpt lat="42.29488" lon="2.1958">
        <ele>1592</ele>
        <time>2010-01-01T00:25:20Z</time>
      </trkpt>
      <trkpt lat="42.29489" lon="2.19583">
        <ele>1593</ele>
        <time>2010-01-01T00:25:21Z</time>
      </trkpt>
      <trkpt lat="42.29489" lon="2.19586">
        <ele>1594</ele>
        <time>2010-01-01T00:25:22Z</time>
      </trkpt>
      <trkpt lat="42.2949" lon="2.19589">
        <ele>1594</ele>
        <time>2010-01-01T00:25:23Z</time>
      </trkpt>
      <trkpt lat="42.29491" lon="2.19591">
        <ele>1594</ele>
        <time>2010-01-01T00:25:24Z</time>
      </trkpt>
      <trkpt lat="42.29492" lon="2.19594">
        <ele>1595</ele>
        <time>2010-01-01T00:25:25Z</time>
      </trkpt>
      <trkpt lat="42.29493" lon="2.19597">
        <ele>1595</ele>
        <time>2010-01-01T00:25:26Z</time>
      </trkpt>
      <trkpt lat="42.29495" lon="2.19599">
        <ele>1595</ele>
        <time>2010-01-01T00:25:27Z</time>
      </trkpt>
      <trkpt lat="42.29496" lon="2.19602">
        <ele>1595</ele>
        <time>2010-01-01T00:25:28Z</time>
      </trkpt>
      <trkpt lat="42.29496" lon="2.19607">
        <ele>1597</ele>
        <time>2010-01-01T00:25:29Z</time>
      </trkpt>
      <trkpt lat="42.29497" lon="2.1961">
        <ele>1597</ele>
        <time>2010-01-01T00:25:30Z</time>
      </trkpt>
      <trkpt lat="42.29496" lon="2.19614">
        <ele>1598</ele>
        <time>2010-01-01T00:25:31Z</time>
      </trkpt>
      <trkpt lat="42.29496" lon="2.19617">
        <ele>1599</ele>
        <time>2010-01-01T00:25:32Z</time>
      </trkpt>
      <trkpt lat="42.29497" lon="2.1962">
        <ele>1599</ele>
        <time>2010-01-01T00:25:33Z</time>
      </trkpt>
      <trkpt lat="42.29497" lon="2.19623">
        <ele>1600</ele>
        <time>2010-01-01T00:25:34Z</time>
      </trkpt>
      <trkpt lat="42.29498" lon="2.19628">
        <ele>1600</ele>
        <time>2010-01-01T00:25:35Z</time>
      </trkpt>
      <trkpt lat="42.29497" lon="2.1963">
        <ele>1601</ele>
        <time>2010-01-01T00:25:36Z</time>
      </trkpt>
      <trkpt lat="42.29498" lon="2.19634">
        <ele>1601</ele>
        <time>2010-01-01T00:25:37Z</time>
      </trkpt>
      <trkpt lat="42.29498" lon="2.19636">
        <ele>1602</ele>
        <time>2010-01-01T00:25:38Z</time>
      </trkpt>
      <trkpt lat="42.29498" lon="2.19639">
        <ele>1602</ele>
        <time>2010-01-01T00:25:39Z</time>
      </trkpt>
      <trkpt lat="42.29497" lon="2.19643">
        <ele>1603</ele>
        <time>2010-01-01T00:25:40Z</time>
      </trkpt>
      <trkpt lat="42.29497" lon="2.19645">
        <ele>1603</ele>
        <time>2010-01-01T00:25:41Z</time>
      </trkpt>
      <trkpt lat="42.29497" lon="2.19652">
        <ele>1605</ele>
        <time>2010-01-01T00:25:43Z</time>
      </trkpt>
      <trkpt lat="42.29496" lon="2.19655">
        <ele>1605</ele>
        <time>2010-01-01T00:25:44Z</time>
      </trkpt>
      <trkpt lat="42.29495" lon="2.19658">
        <ele>1606</ele>
        <time>2010-01-01T00:25:45Z</time>
      </trkpt>
      <trkpt lat="42.29495" lon="2.19662">
        <ele>1607</ele>
        <time>2010-01-01T00:25:46Z</time>
      </trkpt>
      <trkpt lat="42.29494" lon="2.19664">
        <ele>1607</ele>
        <time>2010-01-01T00:25:46Z</time>
      </trkpt>
      <trkpt lat="42.29493" lon="2.19667">
        <ele>1608</ele>
        <time>2010-01-01T00:25:48Z</time>
      </trkpt>
      <trkpt lat="42.29492" lon="2.1967">
        <ele>1609</ele>
        <time>2010-01-01T00:25:48Z</time>
      </trkpt>
      <trkpt lat="42.29492" lon="2.19672">
        <ele>1609</ele>
        <time>2010-01-01T00:25:49Z</time>
      </trkpt>
      <trkpt lat="42.29491" lon="2.19675">
        <ele>1609</ele>
        <time>2010-01-01T00:25:50Z</time>
      </trkpt>
      <trkpt lat="42.29489" lon="2.19678">
        <ele>1610</ele>
        <time>2010-01-01T00:25:51Z</time>
      </trkpt>
      <trkpt lat="42.29488" lon="2.1968">
        <ele>1611</ele>
        <time>2010-01-01T00:25:52Z</time>
      </trkpt>
      <trkpt lat="42.29483" lon="2.19686">
        <ele>1613</ele>
        <time>2010-01-01T00:25:54Z</time>
      </trkpt>
      <trkpt lat="42.29482" lon="2.19689">
        <ele>1614</ele>
        <time>2010-01-01T00:25:56Z</time>
      </trkpt>
      <trkpt lat="42.2948" lon="2.19692">
        <ele>1616</ele>
        <time>2010-01-01T00:25:57Z</time>
      </trkpt>
      <trkpt lat="42.29479" lon="2.19694">
        <ele>1616</ele>
        <time>2010-01-01T00:25:57Z</time>
      </trkpt>
      <trkpt lat="42.29479" lon="2.19697">
        <ele>1617</ele>
        <time>2010-01-01T00:25:58Z</time>
      </trkpt>
      <trkpt lat="42.29478" lon="2.19699">
        <ele>1617</ele>
        <time>2010-01-01T00:25:59Z</time>
      </trkpt>
      <trkpt lat="42.29477" lon="2.19702">
        <ele>1618</ele>
        <time>2010-01-01T00:26:00Z</time>
      </trkpt>
      <trkpt lat="42.29476" lon="2.19705">
        <ele>1619</ele>
        <time>2010-01-01T00:26:01Z</time>
      </trkpt>
      <trkpt lat="42.29472" lon="2.19707">
        <ele>1620</ele>
        <time>2010-01-01T00:26:02Z</time>
      </trkpt>
      <trkpt lat="42.29471" lon="2.19709">
        <ele>1621</ele>
        <time>2010-01-01T00:26:03Z</time>
      </trkpt>
      <trkpt lat="42.2947" lon="2.19712">
        <ele>1622</ele>
        <time>2010-01-01T00:26:04Z</time>
      </trkpt>
      <trkpt lat="42.29469" lon="2.19714">
        <ele>1622</ele>
        <time>2010-01-01T00:26:05Z</time>
      </trkpt>
      <trkpt lat="42.29466" lon="2.19716">
        <ele>1623</ele>
        <time>2010-01-01T00:26:06Z</time>
      </trkpt>
      <trkpt lat="42.29464" lon="2.19716">
        <ele>1624</ele>
        <time>2010-01-01T00:26:07Z</time>
      </trkpt>
      <trkpt lat="42.29459" lon="2.1972">
        <ele>1626</ele>
        <time>2010-01-01T00:26:09Z</time>
      </trkpt>
      <trkpt lat="42.29457" lon="2.19722">
        <ele>1628</ele>
        <time>2010-01-01T00:26:10Z</time>
      </trkpt>
      <trkpt lat="42.29456" lon="2.19724">
        <ele>1628</ele>
        <time>2010-01-01T00:26:11Z</time>
      </trkpt>
      <trkpt lat="42.29454" lon="2.19726">
        <ele>1628</ele>
        <time>2010-01-01T00:26:12Z</time>
      </trkpt>
      <trkpt lat="42.29453" lon="2.19727">
        <ele>1629</ele>
        <time>2010-01-01T00:26:13Z</time>
      </trkpt>
      <trkpt lat="42.29448" lon="2.19727">
        <ele>1631</ele>
        <time>2010-01-01T00:26:15Z</time>
      </trkpt>
      <trkpt lat="42.29445" lon="2.19728">
        <ele>1632</ele>
        <time>2010-01-01T00:26:16Z</time>
      </trkpt>
      <trkpt lat="42.29442" lon="2.19728">
        <ele>1633</ele>
        <time>2010-01-01T00:26:17Z</time>
      </trkpt>
      <trkpt lat="42.2944" lon="2.19729">
        <ele>1634</ele>
        <time>2010-01-01T00:26:18Z</time>
      </trkpt>
      <trkpt lat="42.29438" lon="2.19729">
        <ele>1635</ele>
        <time>2010-01-01T00:26:19Z</time>
      </trkpt>
      <trkpt lat="42.29436" lon="2.19729">
        <ele>1636</ele>
        <time>2010-01-01T00:26:19Z</time>
      </trkpt>
      <trkpt lat="42.29434" lon="2.1973">
        <ele>1636</ele>
        <time>2010-01-01T00:26:20Z</time>
      </trkpt>
      <trkpt lat="42.29432" lon="2.19731">
        <ele>1637</ele>
        <time>2010-01-01T00:26:21Z</time>
      </trkpt>
      <trkpt lat="42.29429" lon="2.19731">
        <ele>1638</ele>
        <time>2010-01-01T00:26:22Z</time>
      </trkpt>
      <trkpt lat="42.29428" lon="2.19731">
        <ele>1638</ele>
        <time>2010-01-01T00:26:23Z</time>
      </trkpt>
      <trkpt lat="42.29425" lon="2.19732">
        <ele>1639</ele>
        <time>2010-01-01T00:26:24Z</time>
      </trkpt>
      <trkpt lat="42.29423" lon="2.19733">
        <ele>1640</ele>
        <time>2010-01-01T00:26:24Z</time>
      </trkpt>
      <trkpt lat="42.29421" lon="2.19734">
        <ele>1641</ele>
        <time>2010-01-01T00:26:26Z</time>
      </trkpt>
      <trkpt lat="42.29419" lon="2.19734">
        <ele>1642</ele>
        <time>2010-01-01T00:26:26Z</time>
      </trkpt>
      <trkpt lat="42.29416" lon="2.19734">
        <ele>1642</ele>
        <time>2010-01-01T00:26:27Z</time>
      </trkpt>
      <trkpt lat="42.29414" lon="2.19735">
        <ele>1643</ele>
        <time>2010-01-01T00:26:28Z</time>
      </trkpt>
      <trkpt lat="42.29412" lon="2.19735">
        <ele>1643</ele>
        <time>2010-01-01T00:26:29Z</time>
      </trkpt>
      <trkpt lat="42.2941" lon="2.19736">
        <ele>1643</ele>
        <time>2010-01-01T00:26:30Z</time>
      </trkpt>
      <trkpt lat="42.29408" lon="2.19736">
        <ele>1644</ele>
        <time>2010-01-01T00:26:31Z</time>
      </trkpt>
      <trkpt lat="42.29406" lon="2.19737">
        <ele>1644</ele>
        <time>2010-01-01T00:26:31Z</time>
      </trkpt>
      <trkpt lat="42.29405" lon="2.19738">
        <ele>1645</ele>
        <time>2010-01-01T00:26:32Z</time>
      </trkpt>
      <trkpt lat="42.29403" lon="2.19739">
        <ele>1645</ele>
        <time>2010-01-01T00:26:33Z</time>
      </trkpt>
      <trkpt lat="42.29401" lon="2.19739">
        <ele>1645</ele>
        <time>2010-01-01T00:26:34Z</time>
      </trkpt>
      <trkpt lat="42.29399" lon="2.1974">
        <ele>1646</ele>
        <time>2010-01-01T00:26:34Z</time>
      </trkpt>
      <trkpt lat="42.29397" lon="2.1974">
        <ele>1646</ele>
        <time>2010-01-01T00:26:35Z</time>
      </trkpt>
      <trkpt lat="42.29395" lon="2.19741">
        <ele>1647</ele>
        <time>2010-01-01T00:26:36Z</time>
      </trkpt>
      <trkpt lat="42.29393" lon="2.19741">
        <ele>1647</ele>
        <time>2010-01-01T00:26:37Z</time>
      </trkpt>
      <trkpt lat="42.29388" lon="2.19742">
        <ele>1648</ele>
        <time>2010-01-01T00:26:39Z</time>
      </trkpt>
      <trkpt lat="42.29387" lon="2.19742">
        <ele>1649</ele>
        <time>2010-01-01T00:26:39Z</time>
      </trkpt>
      <trkpt lat="42.29385" lon="2.19741">
        <ele>1649</ele>
        <time>2010-01-01T00:26:40Z</time>
      </trkpt>
      <trkpt lat="42.29382" lon="2.1974">
        <ele>1649</ele>
        <time>2010-01-01T00:26:41Z</time>
      </trkpt>
      <trkpt lat="42.29378" lon="2.19741">
        <ele>1650</ele>
        <time>2010-01-01T00:26:43Z</time>
      </trkpt>
      <trkpt lat="42.29376" lon="2.19743">
        <ele>1651</ele>
        <time>2010-01-01T00:26:44Z</time>
      </trkpt>
      <trkpt lat="42.29375" lon="2.19744">
        <ele>1651</ele>
        <time>2010-01-01T00:26:44Z</time>
      </trkpt>
      <trkpt lat="42.29372" lon="2.19744">
        <ele>1652</ele>
        <time>2010-01-01T00:26:46Z</time>
      </trkpt>
      <trkpt lat="42.29367" lon="2.19746">
        <ele>1653</ele>
        <time>2010-01-01T00:26:48Z</time>
      </trkpt>
      <trkpt lat="42.29365" lon="2.19748">
        <ele>1653</ele>
        <time>2010-01-01T00:26:48Z</time>
      </trkpt>
      <trkpt lat="42.29363" lon="2.19749">
        <ele>1654</ele>
        <time>2010-01-01T00:26:49Z</time>
      </trkpt>
      <trkpt lat="42.29361" lon="2.1975">
        <ele>1654</ele>
        <time>2010-01-01T00:26:50Z</time>
      </trkpt>
      <trkpt lat="42.2936" lon="2.19751">
        <ele>1655</ele>
        <time>2010-01-01T00:26:51Z</time>
      </trkpt>
      <trkpt lat="42.29358" lon="2.19752">
        <ele>1656</ele>
        <time>2010-01-01T00:26:52Z</time>
      </trkpt>
      <trkpt lat="42.29356" lon="2.19753">
        <ele>1656</ele>
        <time>2010-01-01T00:26:53Z</time>
      </trkpt>
      <trkpt lat="42.29354" lon="2.19754">
        <ele>1657</ele>
        <time>2010-01-01T00:26:53Z</time>
      </trkpt>
      <trkpt lat="42.29352" lon="2.19754">
        <ele>1658</ele>
        <time>2010-01-01T00:26:54Z</time>
      </trkpt>
      <trkpt lat="42.2935" lon="2.19755">
        <ele>1658</ele>
        <time>2010-01-01T00:26:55Z</time>
      </trkpt>
      <trkpt lat="42.29348" lon="2.19755">
        <ele>1659</ele>
        <time>2010-01-01T00:26:56Z</time>
      </trkpt>
      <trkpt lat="42.29346" lon="2.19756">
        <ele>1660</ele>
        <time>2010-01-01T00:26:57Z</time>
      </trkpt>
      <trkpt lat="42.29343" lon="2.19758">
        <ele>1661</ele>
        <time>2010-01-01T00:26:58Z</time>
      </trkpt>
      <trkpt lat="42.29341" lon="2.19759">
        <ele>1661</ele>
        <time>2010-01-01T00:26:59Z</time>
      </trkpt>
      <trkpt lat="42.29339" lon="2.1976">
        <ele>1662</ele>
        <time>2010-01-01T00:27:00Z</time>
      </trkpt>
      <trkpt lat="42.29338" lon="2.1976">
        <ele>1663</ele>
        <time>2010-01-01T00:27:00Z</time>
      </trkpt>
      <trkpt lat="42.29336" lon="2.19761">
        <ele>1663</ele>
        <time>2010-01-01T00:27:01Z</time>
      </trkpt>
      <trkpt lat="42.29333" lon="2.19762">
        <ele>1664</ele>
        <time>2010-01-01T00:27:02Z</time>
      </trkpt>
      <trkpt lat="42.29331" lon="2.19763">
        <ele>1665</ele>
        <time>2010-01-01T00:27:03Z</time>
      </trkpt>
      <trkpt lat="42.29329" lon="2.19763">
        <ele>1666</ele>
        <time>2010-01-01T00:27:04Z</time>
      </trkpt>
      <trkpt lat="42.29327" lon="2.19766">
        <ele>1666</ele>
        <time>2010-01-01T00:27:05Z</time>
      </trkpt>
      <trkpt lat="42.29325" lon="2.19767">
        <ele>1667</ele>
        <time>2010-01-01T00:27:06Z</time>
      </trkpt>
      <trkpt lat="42.29323" lon="2.19767">
        <ele>1668</ele>
        <time>2010-01-01T00:27:07Z</time>
      </trkpt>
      <trkpt lat="42.29321" lon="2.19768">
        <ele>1668</ele>
        <time>2010-01-01T00:27:07Z</time>
      </trkpt>
      <trkpt lat="42.29319" lon="2.19769">
        <ele>1669</ele>
        <time>2010-01-01T00:27:08Z</time>
      </trkpt>
      <trkpt lat="42.29317" lon="2.19771">
        <ele>1669</ele>
        <time>2010-01-01T00:27:09Z</time>
      </trkpt>
      <trkpt lat="42.29315" lon="2.19772">
        <ele>1670</ele>
        <time>2010-01-01T00:27:10Z</time>
      </trkpt>
      <trkpt lat="42.29313" lon="2.19773">
        <ele>1671</ele>
        <time>2010-01-01T00:27:11Z</time>
      </trkpt>
      <trkpt lat="42.2931" lon="2.19774">
        <ele>1672</ele>
        <time>2010-01-01T00:27:12Z</time>
      </trkpt>
      <trkpt lat="42.29308" lon="2.19774">
        <ele>1672</ele>
        <time>2010-01-01T00:27:13Z</time>
      </trkpt>
      <trkpt lat="42.29305" lon="2.19776">
        <ele>1673</ele>
        <time>2010-01-01T00:27:14Z</time>
      </trkpt>
      <trkpt lat="42.29303" lon="2.19777">
        <ele>1674</ele>
        <time>2010-01-01T00:27:15Z</time>
      </trkpt>
      <trkpt lat="42.29301" lon="2.19779">
        <ele>1674</ele>
        <time>2010-01-01T00:27:16Z</time>
      </trkpt>
      <trkpt lat="42.29299" lon="2.1978">
        <ele>1674</ele>
        <time>2010-01-01T00:27:17Z</time>
      </trkpt>
      <trkpt lat="42.29297" lon="2.19781">
        <ele>1674</ele>
        <time>2010-01-01T00:27:18Z</time>
      </trkpt>
      <trkpt lat="42.29295" lon="2.19782">
        <ele>1675</ele>
        <time>2010-01-01T00:27:19Z</time>
      </trkpt>
      <trkpt lat="42.29293" lon="2.19783">
        <ele>1675</ele>
        <time>2010-01-01T00:27:20Z</time>
      </trkpt>
      <trkpt lat="42.29291" lon="2.19783">
        <ele>1675</ele>
        <time>2010-01-01T00:27:20Z</time>
      </trkpt>
      <trkpt lat="42.29289" lon="2.19784">
        <ele>1675</ele>
        <time>2010-01-01T00:27:21Z</time>
      </trkpt>
      <trkpt lat="42.29287" lon="2.19784">
        <ele>1675</ele>
        <time>2010-01-01T00:27:22Z</time>
      </trkpt>
      <trkpt lat="42.29286" lon="2.19785">
        <ele>1676</ele>
        <time>2010-01-01T00:27:23Z</time>
      </trkpt>
      <trkpt lat="42.29284" lon="2.19785">
        <ele>1676</ele>
        <time>2010-01-01T00:27:23Z</time>
      </trkpt>
      <trkpt lat="42.29282" lon="2.19786">
        <ele>1676</ele>
        <time>2010-01-01T00:27:24Z</time>
      </trkpt>
      <trkpt lat="42.2928" lon="2.19787">
        <ele>1676</ele>
        <time>2010-01-01T00:27:25Z</time>
      </trkpt>
      <trkpt lat="42.29277" lon="2.19789">
        <ele>1677</ele>
        <time>2010-01-01T00:27:26Z</time>
      </trkpt>
      <trkpt lat="42.29275" lon="2.1979">
        <ele>1677</ele>
        <time>2010-01-01T00:27:27Z</time>
      </trkpt>
      <trkpt lat="42.29273" lon="2.19792">
        <ele>1678</ele>
        <time>2010-01-01T00:27:28Z</time>
      </trkpt>
      <trkpt lat="42.29271" lon="2.19794">
        <ele>1679</ele>
        <time>2010-01-01T00:27:29Z</time>
      </trkpt>
      <trkpt lat="42.2927" lon="2.19795">
        <ele>1679</ele>
        <time>2010-01-01T00:27:30Z</time>
      </trkpt>
      <trkpt lat="42.29268" lon="2.19797">
        <ele>1680</ele>
        <time>2010-01-01T00:27:30Z</time>
      </trkpt>
      <trkpt lat="42.29266" lon="2.19798">
        <ele>1680</ele>
        <time>2010-01-01T00:27:31Z</time>
      </trkpt>
      <trkpt lat="42.29265" lon="2.198">
        <ele>1681</ele>
        <time>2010-01-01T00:27:32Z</time>
      </trkpt>
      <trkpt lat="42.29263" lon="2.19802">
        <ele>1682</ele>
        <time>2010-01-01T00:27:33Z</time>
      </trkpt>
      <trkpt lat="42.29262" lon="2.19804">
        <ele>1682</ele>
        <time>2010-01-01T00:27:34Z</time>
      </trkpt>
      <trkpt lat="42.2926" lon="2.19805">
        <ele>1683</ele>
        <time>2010-01-01T00:27:35Z</time>
      </trkpt>
      <trkpt lat="42.29258" lon="2.19807">
        <ele>1684</ele>
        <time>2010-01-01T00:27:35Z</time>
      </trkpt>
      <trkpt lat="42.29257" lon="2.19809">
        <ele>1684</ele>
        <time>2010-01-01T00:27:36Z</time>
      </trkpt>
      <trkpt lat="42.29255" lon="2.19811">
        <ele>1685</ele>
        <time>2010-01-01T00:27:37Z</time>
      </trkpt>
      <trkpt lat="42.29253" lon="2.19813">
        <ele>1686</ele>
        <time>2010-01-01T00:27:38Z</time>
      </trkpt>
      <trkpt lat="42.29251" lon="2.19815">
        <ele>1686</ele>
        <time>2010-01-01T00:27:39Z</time>
      </trkpt>
      <trkpt lat="42.29249" lon="2.19819">
        <ele>1688</ele>
        <time>2010-01-01T00:27:41Z</time>
      </trkpt>
      <trkpt lat="42.29247" lon="2.19821">
        <ele>1690</ele>
        <time>2010-01-01T00:27:42Z</time>
      </trkpt>
      <trkpt lat="42.29246" lon="2.19823">
        <ele>1691</ele>
        <time>2010-01-01T00:27:43Z</time>
      </trkpt>
      <trkpt lat="42.29244" lon="2.19825">
        <ele>1692</ele>
        <time>2010-01-01T00:27:43Z</time>
      </trkpt>
      <trkpt lat="42.29242" lon="2.19827">
        <ele>1693</ele>
        <time>2010-01-01T00:27:44Z</time>
      </trkpt>
      <trkpt lat="42.2924" lon="2.19829">
        <ele>1695</ele>
        <time>2010-01-01T00:27:45Z</time>
      </trkpt>
      <trkpt lat="42.29238" lon="2.19831">
        <ele>1696</ele>
        <time>2010-01-01T00:27:46Z</time>
      </trkpt>
      <trkpt lat="42.29237" lon="2.19833">
        <ele>1698</ele>
        <time>2010-01-01T00:27:47Z</time>
      </trkpt>
      <trkpt lat="42.29235" lon="2.19836">
        <ele>1699</ele>
        <time>2010-01-01T00:27:48Z</time>
      </trkpt>
      <trkpt lat="42.29234" lon="2.19838">
        <ele>1699</ele>
        <time>2010-01-01T00:27:49Z</time>
      </trkpt>
      <trkpt lat="42.29233" lon="2.1984">
        <ele>1701</ele>
        <time>2010-01-01T00:27:50Z</time>
      </trkpt>
      <trkpt lat="42.29231" lon="2.19842">
        <ele>1702</ele>
        <time>2010-01-01T00:27:51Z</time>
      </trkpt>
      <trkpt lat="42.2923" lon="2.19844">
        <ele>1702</ele>
        <time>2010-01-01T00:27:51Z</time>
      </trkpt>
      <trkpt lat="42.29228" lon="2.19846">
        <ele>1704</ele>
        <time>2010-01-01T00:27:52Z</time>
      </trkpt>
      <trkpt lat="42.29227" lon="2.19848">
        <ele>1705</ele>
        <time>2010-01-01T00:27:53Z</time>
      </trkpt>
      <trkpt lat="42.29225" lon="2.19849">
        <ele>1706</ele>
        <time>2010-01-01T00:27:54Z</time>
      </trkpt>
      <trkpt lat="42.29222" lon="2.19849">
        <ele>1707</ele>
        <time>2010-01-01T00:27:55Z</time>
      </trkpt>
      <trkpt lat="42.2922" lon="2.1985">
        <ele>1708</ele>
        <time>2010-01-01T00:27:56Z</time>
      </trkpt>
      <trkpt lat="42.29218" lon="2.19851">
        <ele>1709</ele>
        <time>2010-01-01T00:27:57Z</time>
      </trkpt>
      <trkpt lat="42.29216" lon="2.19852">
        <ele>1711</ele>
        <time>2010-01-01T00:27:58Z</time>
      </trkpt>
      <trkpt lat="42.29214" lon="2.19852">
        <ele>1712</ele>
        <time>2010-01-01T00:27:59Z</time>
      </trkpt>
      <trkpt lat="42.29212" lon="2.19853">
        <ele>1713</ele>
        <time>2010-01-01T00:27:59Z</time>
      </trkpt>
      <trkpt lat="42.2921" lon="2.19854">
        <ele>1714</ele>
        <time>2010-01-01T00:28:00Z</time>
      </trkpt>
      <trkpt lat="42.29208" lon="2.19855">
        <ele>1715</ele>
        <time>2010-01-01T00:28:01Z</time>
      </trkpt>
      <trkpt lat="42.29206" lon="2.19857">
        <ele>1716</ele>
        <time>2010-01-01T00:28:02Z</time>
      </trkpt>
      <trkpt lat="42.29204" lon="2.19859">
        <ele>1718</ele>
        <time>2010-01-01T00:28:03Z</time>
      </trkpt>
      <trkpt lat="42.29203" lon="2.19861">
        <ele>1719</ele>
        <time>2010-01-01T00:28:04Z</time>
      </trkpt>
      <trkpt lat="42.29201" lon="2.19863">
        <ele>1719</ele>
        <time>2010-01-01T00:28:05Z</time>
      </trkpt>
      <trkpt lat="42.29199" lon="2.19864">
        <ele>1720</ele>
        <time>2010-01-01T00:28:05Z</time>
      </trkpt>
      <trkpt lat="42.29198" lon="2.19866">
        <ele>1720</ele>
        <time>2010-01-01T00:28:06Z</time>
      </trkpt>
      <trkpt lat="42.29196" lon="2.19868">
        <ele>1721</ele>
        <time>2010-01-01T00:28:07Z</time>
      </trkpt>
      <trkpt lat="42.29194" lon="2.19869">
        <ele>1721</ele>
        <time>2010-01-01T00:28:08Z</time>
      </trkpt>
      <trkpt lat="42.29192" lon="2.19869">
        <ele>1721</ele>
        <time>2010-01-01T00:28:09Z</time>
      </trkpt>
      <trkpt lat="42.2919" lon="2.19871">
        <ele>1721</ele>
        <time>2010-01-01T00:28:10Z</time>
      </trkpt>
      <trkpt lat="42.29189" lon="2.19872">
        <ele>1721</ele>
        <time>2010-01-01T00:28:10Z</time>
      </trkpt>
      <trkpt lat="42.29187" lon="2.19874">
        <ele>1722</ele>
        <time>2010-01-01T00:28:11Z</time>
      </trkpt>
      <trkpt lat="42.29185" lon="2.19875">
        <ele>1722</ele>
        <time>2010-01-01T00:28:12Z</time>
      </trkpt>
      <trkpt lat="42.29183" lon="2.19876">
        <ele>1722</ele>
        <time>2010-01-01T00:28:13Z</time>
      </trkpt>
      <trkpt lat="42.29181" lon="2.19878">
        <ele>1722</ele>
        <time>2010-01-01T00:28:14Z</time>
      </trkpt>
      <trkpt lat="42.2918" lon="2.1988">
        <ele>1722</ele>
        <time>2010-01-01T00:28:15Z</time>
      </trkpt>
      <trkpt lat="42.29178" lon="2.19882">
        <ele>1722</ele>
        <time>2010-01-01T00:28:16Z</time>
      </trkpt>
      <trkpt lat="42.29176" lon="2.19883">
        <ele>1723</ele>
        <time>2010-01-01T00:28:16Z</time>
      </trkpt>
      <trkpt lat="42.29174" lon="2.19884">
        <ele>1723</ele>
        <time>2010-01-01T00:28:17Z</time>
      </trkpt>
      <trkpt lat="42.29173" lon="2.19885">
        <ele>1724</ele>
        <time>2010-01-01T00:28:18Z</time>
      </trkpt>
      <trkpt lat="42.29171" lon="2.19887">
        <ele>1724</ele>
        <time>2010-01-01T00:28:19Z</time>
      </trkpt>
      <trkpt lat="42.29169" lon="2.19888">
        <ele>1725</ele>
        <time>2010-01-01T00:28:20Z</time>
      </trkpt>
      <trkpt lat="42.29167" lon="2.19887">
        <ele>1726</ele>
        <time>2010-01-01T00:28:20Z</time>
      </trkpt>
      <trkpt lat="42.29165" lon="2.19887">
        <ele>1726</ele>
        <time>2010-01-01T00:28:21Z</time>
      </trkpt>
      <trkpt lat="42.29161" lon="2.19888">
        <ele>1727</ele>
        <time>2010-01-01T00:28:23Z</time>
      </trkpt>
      <trkpt lat="42.2916" lon="2.1989">
        <ele>1727</ele>
        <time>2010-01-01T00:28:24Z</time>
      </trkpt>
      <trkpt lat="42.29158" lon="2.19893">
        <ele>1727</ele>
        <time>2010-01-01T00:28:25Z</time>
      </trkpt>
      <trkpt lat="42.29156" lon="2.19895">
        <ele>1727</ele>
        <time>2010-01-01T00:28:26Z</time>
      </trkpt>
      <trkpt lat="42.29154" lon="2.19896">
        <ele>1727</ele>
        <time>2010-01-01T00:28:27Z</time>
      </trkpt>
      <trkpt lat="42.29151" lon="2.19897">
        <ele>1728</ele>
        <time>2010-01-01T00:28:28Z</time>
      </trkpt>
      <trkpt lat="42.2915" lon="2.19899">
        <ele>1728</ele>
        <time>2010-01-01T00:28:29Z</time>
      </trkpt>
      <trkpt lat="42.29148" lon="2.19901">
        <ele>1728</ele>
        <time>2010-01-01T00:28:30Z</time>
      </trkpt>
      <trkpt lat="42.29146" lon="2.19904">
        <ele>1728</ele>
        <time>2010-01-01T00:28:31Z</time>
      </trkpt>
      <trkpt lat="42.29145" lon="2.19905">
        <ele>1728</ele>
        <time>2010-01-01T00:28:31Z</time>
      </trkpt>
      <trkpt lat="42.29143" lon="2.19907">
        <ele>1729</ele>
        <time>2010-01-01T00:28:32Z</time>
      </trkpt>
      <trkpt lat="42.29141" lon="2.19908">
        <ele>1729</ele>
        <time>2010-01-01T00:28:33Z</time>
      </trkpt>
      <trkpt lat="42.2914" lon="2.19909">
        <ele>1729</ele>
        <time>2010-01-01T00:28:34Z</time>
      </trkpt>
      <trkpt lat="42.29138" lon="2.19911">
        <ele>1730</ele>
        <time>2010-01-01T00:28:35Z</time>
      </trkpt>
      <trkpt lat="42.29136" lon="2.19913">
        <ele>1730</ele>
        <time>2010-01-01T00:28:35Z</time>
      </trkpt>
      <trkpt lat="42.29134" lon="2.19914">
        <ele>1730</ele>
        <time>2010-01-01T00:28:36Z</time>
      </trkpt>
      <trkpt lat="42.29132" lon="2.19916">
        <ele>1731</ele>
        <time>2010-01-01T00:28:37Z</time>
      </trkpt>
      <trkpt lat="42.2913" lon="2.19917">
        <ele>1731</ele>
        <time>2010-01-01T00:28:38Z</time>
      </trkpt>
      <trkpt lat="42.29128" lon="2.19918">
        <ele>1732</ele>
        <time>2010-01-01T00:28:39Z</time>
      </trkpt>
      <trkpt lat="42.29126" lon="2.1992">
        <ele>1733</ele>
        <time>2010-01-01T00:28:40Z</time>
      </trkpt>
      <trkpt lat="42.29123" lon="2.19921">
        <ele>1734</ele>
        <time>2010-01-01T00:28:41Z</time>
      </trkpt>
      <trkpt lat="42.29121" lon="2.19922">
        <ele>1734</ele>
        <time>2010-01-01T00:28:42Z</time>
      </trkpt>
      <trkpt lat="42.29119" lon="2.19923">
        <ele>1735</ele>
        <time>2010-01-01T00:28:43Z</time>
      </trkpt>
      <trkpt lat="42.29117" lon="2.19924">
        <ele>1736</ele>
        <time>2010-01-01T00:28:44Z</time>
      </trkpt>
      <trkpt lat="42.29115" lon="2.19926">
        <ele>1736</ele>
        <time>2010-01-01T00:28:45Z</time>
      </trkpt>
      <trkpt lat="42.29113" lon="2.19927">
        <ele>1737</ele>
        <time>2010-01-01T00:28:46Z</time>
      </trkpt>
      <trkpt lat="42.29111" lon="2.19929">
        <ele>1738</ele>
        <time>2010-01-01T00:28:47Z</time>
      </trkpt>
      <trkpt lat="42.29109" lon="2.1993">
        <ele>1738</ele>
        <time>2010-01-01T00:28:48Z</time>
      </trkpt>
      <trkpt lat="42.29107" lon="2.19931">
        <ele>1738</ele>
        <time>2010-01-01T00:28:48Z</time>
      </trkpt>
      <trkpt lat="42.29105" lon="2.19932">
        <ele>1738</ele>
        <time>2010-01-01T00:28:49Z</time>
      </trkpt>
      <trkpt lat="42.29103" lon="2.19933">
        <ele>1738</ele>
        <time>2010-01-01T00:28:50Z</time>
      </trkpt>
      <trkpt lat="42.291" lon="2.19934">
        <ele>1739</ele>
        <time>2010-01-01T00:28:51Z</time>
      </trkpt>
      <trkpt lat="42.29098" lon="2.19935">
        <ele>1739</ele>
        <time>2010-01-01T00:28:52Z</time>
      </trkpt>
      <trkpt lat="42.29096" lon="2.19936">
        <ele>1739</ele>
        <time>2010-01-01T00:28:53Z</time>
      </trkpt>
      <trkpt lat="42.29094" lon="2.19937">
        <ele>1739</ele>
        <time>2010-01-01T00:28:54Z</time>
      </trkpt>
      <trkpt lat="42.29092" lon="2.19938">
        <ele>1739</ele>
        <time>2010-01-01T00:28:54Z</time>
      </trkpt>
      <trkpt lat="42.2909" lon="2.19939">
        <ele>1740</ele>
        <time>2010-01-01T00:28:55Z</time>
      </trkpt>
      <trkpt lat="42.29088" lon="2.19939">
        <ele>1740</ele>
        <time>2010-01-01T00:28:56Z</time>
      </trkpt>
      <trkpt lat="42.29086" lon="2.1994">
        <ele>1740</ele>
        <time>2010-01-01T00:28:57Z</time>
      </trkpt>
      <trkpt lat="42.29085" lon="2.1994">
        <ele>1740</ele>
        <time>2010-01-01T00:28:58Z</time>
      </trkpt>
      <trkpt lat="42.29082" lon="2.19941">
        <ele>1741</ele>
        <time>2010-01-01T00:28:59Z</time>
      </trkpt>
      <trkpt lat="42.2908" lon="2.19941">
        <ele>1741</ele>
        <time>2010-01-01T00:28:59Z</time>
      </trkpt>
      <trkpt lat="42.29078" lon="2.19941">
        <ele>1742</ele>
        <time>2010-01-01T00:29:00Z</time>
      </trkpt>
      <trkpt lat="42.29076" lon="2.19941">
        <ele>1742</ele>
        <time>2010-01-01T00:29:01Z</time>
      </trkpt>
      <trkpt lat="42.29074" lon="2.1994">
        <ele>1743</ele>
        <time>2010-01-01T00:29:02Z</time>
      </trkpt>
      <trkpt lat="42.29072" lon="2.19941">
        <ele>1744</ele>
        <time>2010-01-01T00:29:03Z</time>
      </trkpt>
      <trkpt lat="42.2907" lon="2.19943">
        <ele>1744</ele>
        <time>2010-01-01T00:29:04Z</time>
      </trkpt>
      <trkpt lat="42.29068" lon="2.19944">
        <ele>1745</ele>
        <time>2010-01-01T00:29:05Z</time>
      </trkpt>
      <trkpt lat="42.29066" lon="2.19946">
        <ele>1746</ele>
        <time>2010-01-01T00:29:06Z</time>
      </trkpt>
      <trkpt lat="42.29064" lon="2.19947">
        <ele>1746</ele>
        <time>2010-01-01T00:29:06Z</time>
      </trkpt>
      <trkpt lat="42.29063" lon="2.19949">
        <ele>1747</ele>
        <time>2010-01-01T00:29:07Z</time>
      </trkpt>
      <trkpt lat="42.29061" lon="2.1995">
        <ele>1747</ele>
        <time>2010-01-01T00:29:08Z</time>
      </trkpt>
      <trkpt lat="42.29059" lon="2.19952">
        <ele>1748</ele>
        <time>2010-01-01T00:29:09Z</time>
      </trkpt>
      <trkpt lat="42.29057" lon="2.19953">
        <ele>1749</ele>
        <time>2010-01-01T00:29:10Z</time>
      </trkpt>
      <trkpt lat="42.29056" lon="2.19955">
        <ele>1749</ele>
        <time>2010-01-01T00:29:11Z</time>
      </trkpt>
      <trkpt lat="42.29054" lon="2.19957">
        <ele>1750</ele>
        <time>2010-01-01T00:29:12Z</time>
      </trkpt>
      <trkpt lat="42.29052" lon="2.19958">
        <ele>1750</ele>
        <time>2010-01-01T00:29:12Z</time>
      </trkpt>
      <trkpt lat="42.2905" lon="2.19958">
        <ele>1751</ele>
        <time>2010-01-01T00:29:13Z</time>
      </trkpt>
      <trkpt lat="42.29048" lon="2.19959">
        <ele>1752</ele>
        <time>2010-01-01T00:29:14Z</time>
      </trkpt>
      <trkpt lat="42.29046" lon="2.1996">
        <ele>1752</ele>
        <time>2010-01-01T00:29:15Z</time>
      </trkpt>
      <trkpt lat="42.29044" lon="2.19961">
        <ele>1753</ele>
        <time>2010-01-01T00:29:16Z</time>
      </trkpt>
      <trkpt lat="42.29041" lon="2.19962">
        <ele>1753</ele>
        <time>2010-01-01T00:29:17Z</time>
      </trkpt>
      <trkpt lat="42.29039" lon="2.19963">
        <ele>1754</ele>
        <time>2010-01-01T00:29:18Z</time>
      </trkpt>
      <trkpt lat="42.29038" lon="2.19963">
        <ele>1754</ele>
        <time>2010-01-01T00:29:18Z</time>
      </trkpt>
      <trkpt lat="42.29036" lon="2.19964">
        <ele>1755</ele>
        <time>2010-01-01T00:29:19Z</time>
      </trkpt>
      <trkpt lat="42.29034" lon="2.19965">
        <ele>1755</ele>
        <time>2010-01-01T00:29:20Z</time>
      </trkpt>
      <trkpt lat="42.29031" lon="2.19966">
        <ele>1756</ele>
        <time>2010-01-01T00:29:21Z</time>
      </trkpt>
      <trkpt lat="42.29029" lon="2.19967">
        <ele>1757</ele>
        <time>2010-01-01T00:29:22Z</time>
      </trkpt>
      <trkpt lat="42.29026" lon="2.19967">
        <ele>1757</ele>
        <time>2010-01-01T00:29:23Z</time>
      </trkpt>
      <trkpt lat="42.29024" lon="2.19968">
        <ele>1758</ele>
        <time>2010-01-01T00:29:24Z</time>
      </trkpt>
      <trkpt lat="42.29022" lon="2.19968">
        <ele>1759</ele>
        <time>2010-01-01T00:29:25Z</time>
      </trkpt>
      <trkpt lat="42.2902" lon="2.1997">
        <ele>1759</ele>
        <time>2010-01-01T00:29:26Z</time>
      </trkpt>
      <trkpt lat="42.29017" lon="2.1997">
        <ele>1760</ele>
        <time>2010-01-01T00:29:27Z</time>
      </trkpt>
      <trkpt lat="42.29016" lon="2.19972">
        <ele>1761</ele>
        <time>2010-01-01T00:29:28Z</time>
      </trkpt>
      <trkpt lat="42.29013" lon="2.19974">
        <ele>1761</ele>
        <time>2010-01-01T00:29:29Z</time>
      </trkpt>
      <trkpt lat="42.29012" lon="2.19975">
        <ele>1762</ele>
        <time>2010-01-01T00:29:29Z</time>
      </trkpt>
      <trkpt lat="42.2901" lon="2.19977">
        <ele>1762</ele>
        <time>2010-01-01T00:29:30Z</time>
      </trkpt>
      <trkpt lat="42.29009" lon="2.19979">
        <ele>1763</ele>
        <time>2010-01-01T00:29:31Z</time>
      </trkpt>
      <trkpt lat="42.29006" lon="2.19981">
        <ele>1764</ele>
        <time>2010-01-01T00:29:32Z</time>
      </trkpt>
      <trkpt lat="42.29004" lon="2.19983">
        <ele>1764</ele>
        <time>2010-01-01T00:29:33Z</time>
      </trkpt>
      <trkpt lat="42.29002" lon="2.19984">
        <ele>1765</ele>
        <time>2010-01-01T00:29:34Z</time>
      </trkpt>
      <trkpt lat="42.29" lon="2.19986">
        <ele>1765</ele>
        <time>2010-01-01T00:29:35Z</time>
      </trkpt>
      <trkpt lat="42.28998" lon="2.19988">
        <ele>1766</ele>
        <time>2010-01-01T00:29:36Z</time>
      </trkpt>
      <trkpt lat="42.28997" lon="2.19989">
        <ele>1767</ele>
        <time>2010-01-01T00:29:37Z</time>
      </trkpt>
      <trkpt lat="42.28995" lon="2.19991">
        <ele>1768</ele>
        <time>2010-01-01T00:29:38Z</time>
      </trkpt>
      <trkpt lat="42.28993" lon="2.19993">
        <ele>1769</ele>
        <time>2010-01-01T00:29:39Z</time>
      </trkpt>
      <trkpt lat="42.28991" lon="2.19995">
        <ele>1770</ele>
        <time>2010-01-01T00:29:40Z</time>
      </trkpt>
      <trkpt lat="42.28989" lon="2.19996">
        <ele>1771</ele>
        <time>2010-01-01T00:29:40Z</time>
      </trkpt>
      <trkpt lat="42.28988" lon="2.19998">
        <ele>1772</ele>
        <time>2010-01-01T00:29:41Z</time>
      </trkpt>
      <trkpt lat="42.28986" lon="2.19999">
        <ele>1773</ele>
        <time>2010-01-01T00:29:42Z</time>
      </trkpt>
      <trkpt lat="42.28985" lon="2.2">
        <ele>1774</ele>
        <time>2010-01-01T00:29:43Z</time>
      </trkpt>
      <trkpt lat="42.28983" lon="2.20002">
        <ele>1775</ele>
        <time>2010-01-01T00:29:43Z</time>
      </trkpt>
      <trkpt lat="42.28981" lon="2.20003">
        <ele>1776</ele>
        <time>2010-01-01T00:29:44Z</time>
      </trkpt>
      <trkpt lat="42.28979" lon="2.20006">
        <ele>1777</ele>
        <time>2010-01-01T00:29:45Z</time>
      </trkpt>
      <trkpt lat="42.28978" lon="2.20008">
        <ele>1778</ele>
        <time>2010-01-01T00:29:46Z</time>
      </trkpt>
      <trkpt lat="42.28975" lon="2.20009">
        <ele>1779</ele>
        <time>2010-01-01T00:29:47Z</time>
      </trkpt>
      <trkpt lat="42.28973" lon="2.20011">
        <ele>1780</ele>
        <time>2010-01-01T00:29:48Z</time>
      </trkpt>
      <trkpt lat="42.28972" lon="2.20012">
        <ele>1781</ele>
        <time>2010-01-01T00:29:49Z</time>
      </trkpt>
      <trkpt lat="42.2897" lon="2.20014">
        <ele>1781</ele>
        <time>2010-01-01T00:29:50Z</time>
      </trkpt>
      <trkpt lat="42.28968" lon="2.20017">
        <ele>1782</ele>
        <time>2010-01-01T00:29:51Z</time>
      </trkpt>
      <trkpt lat="42.28966" lon="2.20018">
        <ele>1783</ele>
        <time>2010-01-01T00:29:52Z</time>
      </trkpt>
      <trkpt lat="42.28964" lon="2.2002">
        <ele>1783</ele>
        <time>2010-01-01T00:29:53Z</time>
      </trkpt>
      <trkpt lat="42.28962" lon="2.20022">
        <ele>1784</ele>
        <time>2010-01-01T00:29:54Z</time>
      </trkpt>
      <trkpt lat="42.2896" lon="2.20023">
        <ele>1784</ele>
        <time>2010-01-01T00:29:55Z</time>
      </trkpt>
      <trkpt lat="42.28959" lon="2.20025">
        <ele>1785</ele>
        <time>2010-01-01T00:29:55Z</time>
      </trkpt>
      <trkpt lat="42.28957" lon="2.20027">
        <ele>1785</ele>
        <time>2010-01-01T00:29:56Z</time>
      </trkpt>
      <trkpt lat="42.28955" lon="2.2003">
        <ele>1786</ele>
        <time>2010-01-01T00:29:57Z</time>
      </trkpt>
      <trkpt lat="42.28954" lon="2.20033">
        <ele>1787</ele>
        <time>2010-01-01T00:29:58Z</time>
      </trkpt>
      <trkpt lat="42.28952" lon="2.20034">
        <ele>1788</ele>
        <time>2010-01-01T00:29:59Z</time>
      </trkpt>
      <trkpt lat="42.2895" lon="2.20036">
        <ele>1789</ele>
        <time>2010-01-01T00:30:00Z</time>
      </trkpt>
      <trkpt lat="42.28949" lon="2.20037">
        <ele>1790</ele>
        <time>2010-01-01T00:30:01Z</time>
      </trkpt>
      <trkpt lat="42.28947" lon="2.20039">
        <ele>1791</ele>
        <time>2010-01-01T00:30:02Z</time>
      </trkpt>
      <trkpt lat="42.28946" lon="2.20041">
        <ele>1791</ele>
        <time>2010-01-01T00:30:02Z</time>
      </trkpt>
      <trkpt lat="42.28945" lon="2.20043">
        <ele>1792</ele>
        <time>2010-01-01T00:30:03Z</time>
      </trkpt>
      <trkpt lat="42.28943" lon="2.20045">
        <ele>1793</ele>
        <time>2010-01-01T00:30:04Z</time>
      </trkpt>
      <trkpt lat="42.28941" lon="2.20046">
        <ele>1794</ele>
        <time>2010-01-01T00:30:05Z</time>
      </trkpt>
      <trkpt lat="42.2894" lon="2.20048">
        <ele>1795</ele>
        <time>2010-01-01T00:30:06Z</time>
      </trkpt>
      <trkpt lat="42.28938" lon="2.2005">
        <ele>1796</ele>
        <time>2010-01-01T00:30:07Z</time>
      </trkpt>
      <trkpt lat="42.28936" lon="2.20053">
        <ele>1797</ele>
        <time>2010-01-01T00:30:08Z</time>
      </trkpt>
      <trkpt lat="42.28934" lon="2.20055">
        <ele>1798</ele>
        <time>2010-01-01T00:30:09Z</time>
      </trkpt>
      <trkpt lat="42.28933" lon="2.20057">
        <ele>1799</ele>
        <time>2010-01-01T00:30:10Z</time>
      </trkpt>
      <trkpt lat="42.28928" lon="2.20061">
        <ele>1801</ele>
        <time>2010-01-01T00:30:12Z</time>
      </trkpt>
      <trkpt lat="42.28926" lon="2.20063">
        <ele>1803</ele>
        <time>2010-01-01T00:30:13Z</time>
      </trkpt>
      <trkpt lat="42.28925" lon="2.20065">
        <ele>1804</ele>
        <time>2010-01-01T00:30:14Z</time>
      </trkpt>
      <trkpt lat="42.28923" lon="2.20067">
        <ele>1804</ele>
        <time>2010-01-01T00:30:14Z</time>
      </trkpt>
      <trkpt lat="42.28922" lon="2.20068">
        <ele>1805</ele>
        <time>2010-01-01T00:30:15Z</time>
      </trkpt>
      <trkpt lat="42.28921" lon="2.2007">
        <ele>1806</ele>
        <time>2010-01-01T00:30:16Z</time>
      </trkpt>
      <trkpt lat="42.28919" lon="2.20072">
        <ele>1807</ele>
        <time>2010-01-01T00:30:17Z</time>
      </trkpt>
      <trkpt lat="42.28917" lon="2.20072">
        <ele>1808</ele>
        <time>2010-01-01T00:30:18Z</time>
      </trkpt>
      <trkpt lat="42.28915" lon="2.20073">
        <ele>1809</ele>
        <time>2010-01-01T00:30:18Z</time>
      </trkpt>
      <trkpt lat="42.28913" lon="2.20073">
        <ele>1810</ele>
        <time>2010-01-01T00:30:19Z</time>
      </trkpt>
      <trkpt lat="42.28911" lon="2.20074">
        <ele>1812</ele>
        <time>2010-01-01T00:30:20Z</time>
      </trkpt>
      <trkpt lat="42.28909" lon="2.20075">
        <ele>1813</ele>
        <time>2010-01-01T00:30:21Z</time>
      </trkpt>
      <trkpt lat="42.28907" lon="2.20076">
        <ele>1814</ele>
        <time>2010-01-01T00:30:22Z</time>
      </trkpt>
      <trkpt lat="42.28905" lon="2.20078">
        <ele>1816</ele>
        <time>2010-01-01T00:30:23Z</time>
      </trkpt>
      <trkpt lat="42.28903" lon="2.2008">
        <ele>1817</ele>
        <time>2010-01-01T00:30:24Z</time>
      </trkpt>
      <trkpt lat="42.28902" lon="2.20081">
        <ele>1818</ele>
        <time>2010-01-01T00:30:24Z</time>
      </trkpt>
      <trkpt lat="42.28898" lon="2.20083">
        <ele>1820</ele>
        <time>2010-01-01T00:30:26Z</time>
      </trkpt>
      <trkpt lat="42.28896" lon="2.20084">
        <ele>1821</ele>
        <time>2010-01-01T00:30:27Z</time>
      </trkpt>
      <trkpt lat="42.28894" lon="2.20085">
        <ele>1822</ele>
        <time>2010-01-01T00:30:28Z</time>
      </trkpt>
      <trkpt lat="42.28892" lon="2.20086">
        <ele>1824</ele>
        <time>2010-01-01T00:30:29Z</time>
      </trkpt>
      <trkpt lat="42.2889" lon="2.20087">
        <ele>1824</ele>
        <time>2010-01-01T00:30:29Z</time>
      </trkpt>
      <trkpt lat="42.28888" lon="2.20089">
        <ele>1826</ele>
        <time>2010-01-01T00:30:30Z</time>
      </trkpt>
      <trkpt lat="42.28886" lon="2.2009">
        <ele>1827</ele>
        <time>2010-01-01T00:30:31Z</time>
      </trkpt>
      <trkpt lat="42.28885" lon="2.20091">
        <ele>1827</ele>
        <time>2010-01-01T00:30:32Z</time>
      </trkpt>
      <trkpt lat="42.28883" lon="2.20092">
        <ele>1828</ele>
        <time>2010-01-01T00:30:33Z</time>
      </trkpt>
      <trkpt lat="42.28881" lon="2.20093">
        <ele>1829</ele>
        <time>2010-01-01T00:30:33Z</time>
      </trkpt>
      <trkpt lat="42.28879" lon="2.20094">
        <ele>1830</ele>
        <time>2010-01-01T00:30:34Z</time>
      </trkpt>
      <trkpt lat="42.28877" lon="2.20095">
        <ele>1831</ele>
        <time>2010-01-01T00:30:35Z</time>
      </trkpt>
      <trkpt lat="42.28875" lon="2.20096">
        <ele>1832</ele>
        <time>2010-01-01T00:30:36Z</time>
      </trkpt>
      <trkpt lat="42.28871" lon="2.20098">
        <ele>1833</ele>
        <time>2010-01-01T00:30:37Z</time>
      </trkpt>
      <trkpt lat="42.2887" lon="2.201">
        <ele>1834</ele>
        <time>2010-01-01T00:30:38Z</time>
      </trkpt>
      <trkpt lat="42.28867" lon="2.20101">
        <ele>1835</ele>
        <time>2010-01-01T00:30:39Z</time>
      </trkpt>
      <trkpt lat="42.28866" lon="2.20102">
        <ele>1836</ele>
        <time>2010-01-01T00:30:40Z</time>
      </trkpt>
      <trkpt lat="42.28863" lon="2.20103">
        <ele>1837</ele>
        <time>2010-01-01T00:30:41Z</time>
      </trkpt>
      <trkpt lat="42.28862" lon="2.20104">
        <ele>1837</ele>
        <time>2010-01-01T00:30:42Z</time>
      </trkpt>
      <trkpt lat="42.28857" lon="2.20106">
        <ele>1839</ele>
        <time>2010-01-01T00:30:44Z</time>
      </trkpt>
      <trkpt lat="42.28855" lon="2.20108">
        <ele>1839</ele>
        <time>2010-01-01T00:30:45Z</time>
      </trkpt>
      <trkpt lat="42.28853" lon="2.20109">
        <ele>1840</ele>
        <time>2010-01-01T00:30:46Z</time>
      </trkpt>
      <trkpt lat="42.28851" lon="2.2011">
        <ele>1841</ele>
        <time>2010-01-01T00:30:47Z</time>
      </trkpt>
      <trkpt lat="42.28849" lon="2.20111">
        <ele>1842</ele>
        <time>2010-01-01T00:30:47Z</time>
      </trkpt>
      <trkpt lat="42.28847" lon="2.20112">
        <ele>1842</ele>
        <time>2010-01-01T00:30:48Z</time>
      </trkpt>
      <trkpt lat="42.28844" lon="2.20113">
        <ele>1843</ele>
        <time>2010-01-01T00:30:49Z</time>
      </trkpt>
      <trkpt lat="42.28843" lon="2.20114">
        <ele>1843</ele>
        <time>2010-01-01T00:30:50Z</time>
      </trkpt>
      <trkpt lat="42.28841" lon="2.20116">
        <ele>1844</ele>
        <time>2010-01-01T00:30:51Z</time>
      </trkpt>
      <trkpt lat="42.28839" lon="2.20117">
        <ele>1845</ele>
        <time>2010-01-01T00:30:52Z</time>
      </trkpt>
      <trkpt lat="42.28838" lon="2.20118">
        <ele>1845</ele>
        <time>2010-01-01T00:30:52Z</time>
      </trkpt>
      <trkpt lat="42.28836" lon="2.20119">
        <ele>1846</ele>
        <time>2010-01-01T00:30:53Z</time>
      </trkpt>
      <trkpt lat="42.28834" lon="2.20121">
        <ele>1846</ele>
        <time>2010-01-01T00:30:54Z</time>
      </trkpt>
      <trkpt lat="42.28833" lon="2.20122">
        <ele>1847</ele>
        <time>2010-01-01T00:30:55Z</time>
      </trkpt>
      <trkpt lat="42.28831" lon="2.20123">
        <ele>1848</ele>
        <time>2010-01-01T00:30:56Z</time>
      </trkpt>
      <trkpt lat="42.28827" lon="2.20125">
        <ele>1849</ele>
        <time>2010-01-01T00:30:57Z</time>
      </trkpt>
      <trkpt lat="42.28825" lon="2.20126">
        <ele>1850</ele>
        <time>2010-01-01T00:30:58Z</time>
      </trkpt>
      <trkpt lat="42.28823" lon="2.20127">
        <ele>1851</ele>
        <time>2010-01-01T00:30:59Z</time>
      </trkpt>
      <trkpt lat="42.28821" lon="2.20128">
        <ele>1851</ele>
        <time>2010-01-01T00:31:00Z</time>
      </trkpt>
      <trkpt lat="42.2882" lon="2.20129">
        <ele>1852</ele>
        <time>2010-01-01T00:31:00Z</time>
      </trkpt>
      <trkpt lat="42.28818" lon="2.20131">
        <ele>1853</ele>
        <time>2010-01-01T00:31:01Z</time>
      </trkpt>
      <trkpt lat="42.28816" lon="2.20132">
        <ele>1854</ele>
        <time>2010-01-01T00:31:02Z</time>
      </trkpt>
      <trkpt lat="42.28814" lon="2.20134">
        <ele>1856</ele>
        <time>2010-01-01T00:31:03Z</time>
      </trkpt>
      <trkpt lat="42.28812" lon="2.20135">
        <ele>1857</ele>
        <time>2010-01-01T00:31:04Z</time>
      </trkpt>
      <trkpt lat="42.2881" lon="2.20136">
        <ele>1858</ele>
        <time>2010-01-01T00:31:05Z</time>
      </trkpt>
      <trkpt lat="42.28808" lon="2.20137">
        <ele>1860</ele>
        <time>2010-01-01T00:31:06Z</time>
      </trkpt>
      <trkpt lat="42.28806" lon="2.20139">
        <ele>1861</ele>
        <time>2010-01-01T00:31:07Z</time>
      </trkpt>
      <trkpt lat="42.28804" lon="2.2014">
        <ele>1862</ele>
        <time>2010-01-01T00:31:07Z</time>
      </trkpt>
      <trkpt lat="42.28803" lon="2.20142">
        <ele>1863</ele>
        <time>2010-01-01T00:31:08Z</time>
      </trkpt>
      <trkpt lat="42.288" lon="2.20142">
        <ele>1863</ele>
        <time>2010-01-01T00:31:09Z</time>
      </trkpt>
      <trkpt lat="42.28798" lon="2.20143">
        <ele>1864</ele>
        <time>2010-01-01T00:31:10Z</time>
      </trkpt>
      <trkpt lat="42.28796" lon="2.20145">
        <ele>1865</ele>
        <time>2010-01-01T00:31:11Z</time>
      </trkpt>
      <trkpt lat="42.28795" lon="2.20146">
        <ele>1866</ele>
        <time>2010-01-01T00:31:12Z</time>
      </trkpt>
      <trkpt lat="42.28793" lon="2.20147">
        <ele>1867</ele>
        <time>2010-01-01T00:31:13Z</time>
      </trkpt>
      <trkpt lat="42.28791" lon="2.20149">
        <ele>1868</ele>
        <time>2010-01-01T00:31:13Z</time>
      </trkpt>
      <trkpt lat="42.28789" lon="2.20151">
        <ele>1869</ele>
        <time>2010-01-01T00:31:14Z</time>
      </trkpt>
      <trkpt lat="42.28786" lon="2.20151">
        <ele>1869</ele>
        <time>2010-01-01T00:31:15Z</time>
      </trkpt>
      <trkpt lat="42.28785" lon="2.20153">
        <ele>1870</ele>
        <time>2010-01-01T00:31:16Z</time>
      </trkpt>
      <trkpt lat="42.28782" lon="2.20154">
        <ele>1872</ele>
        <time>2010-01-01T00:31:17Z</time>
      </trkpt>
      <trkpt lat="42.2878" lon="2.20156">
        <ele>1873</ele>
        <time>2010-01-01T00:31:18Z</time>
      </trkpt>
      <trkpt lat="42.28779" lon="2.20157">
        <ele>1874</ele>
        <time>2010-01-01T00:31:19Z</time>
      </trkpt>
      <trkpt lat="42.28776" lon="2.20158">
        <ele>1875</ele>
        <time>2010-01-01T00:31:20Z</time>
      </trkpt>
      <trkpt lat="42.28775" lon="2.20159">
        <ele>1876</ele>
        <time>2010-01-01T00:31:21Z</time>
      </trkpt>
      <trkpt lat="42.28773" lon="2.2016">
        <ele>1877</ele>
        <time>2010-01-01T00:31:21Z</time>
      </trkpt>
      <trkpt lat="42.28771" lon="2.20161">
        <ele>1878</ele>
        <time>2010-01-01T00:31:22Z</time>
      </trkpt>
      <trkpt lat="42.28769" lon="2.20162">
        <ele>1880</ele>
        <time>2010-01-01T00:31:23Z</time>
      </trkpt>
      <trkpt lat="42.28767" lon="2.20164">
        <ele>1880</ele>
        <time>2010-01-01T00:31:24Z</time>
      </trkpt>
      <trkpt lat="42.28765" lon="2.20165">
        <ele>1882</ele>
        <time>2010-01-01T00:31:25Z</time>
      </trkpt>
      <trkpt lat="42.28763" lon="2.20166">
        <ele>1883</ele>
        <time>2010-01-01T00:31:26Z</time>
      </trkpt>
      <trkpt lat="42.28761" lon="2.20167">
        <ele>1883</ele>
        <time>2010-01-01T00:31:27Z</time>
      </trkpt>
      <trkpt lat="42.28759" lon="2.20169">
        <ele>1884</ele>
        <time>2010-01-01T00:31:28Z</time>
      </trkpt>
      <trkpt lat="42.28757" lon="2.2017">
        <ele>1885</ele>
        <time>2010-01-01T00:31:28Z</time>
      </trkpt>
      <trkpt lat="42.28755" lon="2.2017">
        <ele>1886</ele>
        <time>2010-01-01T00:31:29Z</time>
      </trkpt>
      <trkpt lat="42.28753" lon="2.2017">
        <ele>1887</ele>
        <time>2010-01-01T00:31:30Z</time>
      </trkpt>
      <trkpt lat="42.28751" lon="2.20172">
        <ele>1888</ele>
        <time>2010-01-01T00:31:31Z</time>
      </trkpt>
      <trkpt lat="42.28749" lon="2.20174">
        <ele>1889</ele>
        <time>2010-01-01T00:31:32Z</time>
      </trkpt>
      <trkpt lat="42.28748" lon="2.20175">
        <ele>1890</ele>
        <time>2010-01-01T00:31:33Z</time>
      </trkpt>
      <trkpt lat="42.28746" lon="2.20176">
        <ele>1890</ele>
        <time>2010-01-01T00:31:33Z</time>
      </trkpt>
      <trkpt lat="42.28744" lon="2.20177">
        <ele>1891</ele>
        <time>2010-01-01T00:31:34Z</time>
      </trkpt>
      <trkpt lat="42.28742" lon="2.20179">
        <ele>1892</ele>
        <time>2010-01-01T00:31:35Z</time>
      </trkpt>
      <trkpt lat="42.2874" lon="2.20179">
        <ele>1893</ele>
        <time>2010-01-01T00:31:36Z</time>
      </trkpt>
      <trkpt lat="42.28738" lon="2.20181">
        <ele>1894</ele>
        <time>2010-01-01T00:31:37Z</time>
      </trkpt>
      <trkpt lat="42.28736" lon="2.20183">
        <ele>1894</ele>
        <time>2010-01-01T00:31:38Z</time>
      </trkpt>
      <trkpt lat="42.28734" lon="2.20184">
        <ele>1895</ele>
        <time>2010-01-01T00:31:39Z</time>
      </trkpt>
      <trkpt lat="42.28733" lon="2.20185">
        <ele>1896</ele>
        <time>2010-01-01T00:31:40Z</time>
      </trkpt>
      <trkpt lat="42.28731" lon="2.20186">
        <ele>1896</ele>
        <time>2010-01-01T00:31:40Z</time>
      </trkpt>
      <trkpt lat="42.28729" lon="2.20187">
        <ele>1897</ele>
        <time>2010-01-01T00:31:41Z</time>
      </trkpt>
      <trkpt lat="42.28727" lon="2.20188">
        <ele>1898</ele>
        <time>2010-01-01T00:31:42Z</time>
      </trkpt>
      <trkpt lat="42.28724" lon="2.20189">
        <ele>1899</ele>
        <time>2010-01-01T00:31:43Z</time>
      </trkpt>
      <trkpt lat="42.28722" lon="2.20191">
        <ele>1899</ele>
        <time>2010-01-01T00:31:44Z</time>
      </trkpt>
      <trkpt lat="42.28721" lon="2.20192">
        <ele>1900</ele>
        <time>2010-01-01T00:31:45Z</time>
      </trkpt>
      <trkpt lat="42.28719" lon="2.20194">
        <ele>1900</ele>
        <time>2010-01-01T00:31:46Z</time>
      </trkpt>
      <trkpt lat="42.28717" lon="2.20194">
        <ele>1900</ele>
        <time>2010-01-01T00:31:46Z</time>
      </trkpt>
      <trkpt lat="42.28716" lon="2.20195">
        <ele>1900</ele>
        <time>2010-01-01T00:31:47Z</time>
      </trkpt>
      <trkpt lat="42.28714" lon="2.20197">
        <ele>1901</ele>
        <time>2010-01-01T00:31:48Z</time>
      </trkpt>
      <trkpt lat="42.28712" lon="2.20198">
        <ele>1901</ele>
        <time>2010-01-01T00:31:49Z</time>
      </trkpt>
      <trkpt lat="42.2871" lon="2.20199">
        <ele>1901</ele>
        <time>2010-01-01T00:31:50Z</time>
      </trkpt>
      <trkpt lat="42.28708" lon="2.202">
        <ele>1902</ele>
        <time>2010-01-01T00:31:51Z</time>
      </trkpt>
      <trkpt lat="42.28705" lon="2.20201">
        <ele>1902</ele>
        <time>2010-01-01T00:31:52Z</time>
      </trkpt>
      <trkpt lat="42.28703" lon="2.20202">
        <ele>1903</ele>
        <time>2010-01-01T00:31:52Z</time>
      </trkpt>
      <trkpt lat="42.28701" lon="2.20203">
        <ele>1903</ele>
        <time>2010-01-01T00:31:53Z</time>
      </trkpt>
      <trkpt lat="42.28699" lon="2.20205">
        <ele>1904</ele>
        <time>2010-01-01T00:31:54Z</time>
      </trkpt>
      <trkpt lat="42.28697" lon="2.20206">
        <ele>1904</ele>
        <time>2010-01-01T00:31:55Z</time>
      </trkpt>
      <trkpt lat="42.28696" lon="2.20207">
        <ele>1905</ele>
        <time>2010-01-01T00:31:56Z</time>
      </trkpt>
      <trkpt lat="42.28693" lon="2.20208">
        <ele>1905</ele>
        <time>2010-01-01T00:31:57Z</time>
      </trkpt>
      <trkpt lat="42.28691" lon="2.20209">
        <ele>1906</ele>
        <time>2010-01-01T00:31:58Z</time>
      </trkpt>
      <trkpt lat="42.28689" lon="2.2021">
        <ele>1906</ele>
        <time>2010-01-01T00:31:59Z</time>
      </trkpt>
      <trkpt lat="42.28687" lon="2.20211">
        <ele>1907</ele>
        <time>2010-01-01T00:32:00Z</time>
      </trkpt>
      <trkpt lat="42.28685" lon="2.20212">
        <ele>1907</ele>
        <time>2010-01-01T00:32:00Z</time>
      </trkpt>
      <trkpt lat="42.28683" lon="2.20213">
        <ele>1908</ele>
        <time>2010-01-01T00:32:01Z</time>
      </trkpt>
      <trkpt lat="42.28681" lon="2.20215">
        <ele>1908</ele>
        <time>2010-01-01T00:32:02Z</time>
      </trkpt>
      <trkpt lat="42.28679" lon="2.20216">
        <ele>1909</ele>
        <time>2010-01-01T00:32:03Z</time>
      </trkpt>
      <trkpt lat="42.28677" lon="2.20217">
        <ele>1909</ele>
        <time>2010-01-01T00:32:04Z</time>
      </trkpt>
      <trkpt lat="42.28675" lon="2.20219">
        <ele>1910</ele>
        <time>2010-01-01T00:32:05Z</time>
      </trkpt>
      <trkpt lat="42.28673" lon="2.2022">
        <ele>1910</ele>
        <time>2010-01-01T00:32:06Z</time>
      </trkpt>
      <trkpt lat="42.28671" lon="2.20221">
        <ele>1911</ele>
        <time>2010-01-01T00:32:07Z</time>
      </trkpt>
      <trkpt lat="42.28669" lon="2.20222">
        <ele>1911</ele>
        <time>2010-01-01T00:32:07Z</time>
      </trkpt>
      <trkpt lat="42.28667" lon="2.20223">
        <ele>1912</ele>
        <time>2010-01-01T00:32:08Z</time>
      </trkpt>
      <trkpt lat="42.28665" lon="2.20224">
        <ele>1912</ele>
        <time>2010-01-01T00:32:09Z</time>
      </trkpt>
      <trkpt lat="42.28663" lon="2.20225">
        <ele>1912</ele>
        <time>2010-01-01T00:32:10Z</time>
      </trkpt>
      <trkpt lat="42.28661" lon="2.20227">
        <ele>1913</ele>
        <time>2010-01-01T00:32:11Z</time>
      </trkpt>
      <trkpt lat="42.28659" lon="2.20228">
        <ele>1913</ele>
        <time>2010-01-01T00:32:12Z</time>
      </trkpt>
      <trkpt lat="42.28656" lon="2.2023">
        <ele>1914</ele>
        <time>2010-01-01T00:32:13Z</time>
      </trkpt>
      <trkpt lat="42.28654" lon="2.20232">
        <ele>1914</ele>
        <time>2010-01-01T00:32:14Z</time>
      </trkpt>
      <trkpt lat="42.28652" lon="2.20233">
        <ele>1915</ele>
        <time>2010-01-01T00:32:15Z</time>
      </trkpt>
      <trkpt lat="42.28649" lon="2.20235">
        <ele>1915</ele>
        <time>2010-01-01T00:32:16Z</time>
      </trkpt>
      <trkpt lat="42.28647" lon="2.20236">
        <ele>1916</ele>
        <time>2010-01-01T00:32:17Z</time>
      </trkpt>
      <trkpt lat="42.28645" lon="2.20237">
        <ele>1916</ele>
        <time>2010-01-01T00:32:18Z</time>
      </trkpt>
      <trkpt lat="42.28643" lon="2.20238">
        <ele>1917</ele>
        <time>2010-01-01T00:32:19Z</time>
      </trkpt>
      <trkpt lat="42.28641" lon="2.20238">
        <ele>1917</ele>
        <time>2010-01-01T00:32:20Z</time>
      </trkpt>
      <trkpt lat="42.28639" lon="2.2024">
        <ele>1918</ele>
        <time>2010-01-01T00:32:21Z</time>
      </trkpt>
      <trkpt lat="42.28637" lon="2.20241">
        <ele>1918</ele>
        <time>2010-01-01T00:32:22Z</time>
      </trkpt>
      <trkpt lat="42.28634" lon="2.20244">
        <ele>1919</ele>
        <time>2010-01-01T00:32:23Z</time>
      </trkpt>
      <trkpt lat="42.28632" lon="2.20246">
        <ele>1920</ele>
        <time>2010-01-01T00:32:24Z</time>
      </trkpt>
      <trkpt lat="42.2863" lon="2.20247">
        <ele>1920</ele>
        <time>2010-01-01T00:32:25Z</time>
      </trkpt>
      <trkpt lat="42.28628" lon="2.2025">
        <ele>1921</ele>
        <time>2010-01-01T00:32:26Z</time>
      </trkpt>
      <trkpt lat="42.28626" lon="2.20253">
        <ele>1921</ele>
        <time>2010-01-01T00:32:27Z</time>
      </trkpt>
      <trkpt lat="42.28624" lon="2.20255">
        <ele>1921</ele>
        <time>2010-01-01T00:32:28Z</time>
      </trkpt>
      <trkpt lat="42.28623" lon="2.20257">
        <ele>1922</ele>
        <time>2010-01-01T00:32:29Z</time>
      </trkpt>
      <trkpt lat="42.28621" lon="2.20259">
        <ele>1922</ele>
        <time>2010-01-01T00:32:30Z</time>
      </trkpt>
      <trkpt lat="42.28619" lon="2.20261">
        <ele>1922</ele>
        <time>2010-01-01T00:32:31Z</time>
      </trkpt>
      <trkpt lat="42.28617" lon="2.20264">
        <ele>1922</ele>
        <time>2010-01-01T00:32:32Z</time>
      </trkpt>
      <trkpt lat="42.28615" lon="2.20267">
        <ele>1923</ele>
        <time>2010-01-01T00:32:33Z</time>
      </trkpt>
      <trkpt lat="42.28613" lon="2.20269">
        <ele>1923</ele>
        <time>2010-01-01T00:32:34Z</time>
      </trkpt>
      <trkpt lat="42.28611" lon="2.20271">
        <ele>1923</ele>
        <time>2010-01-01T00:32:35Z</time>
      </trkpt>
      <trkpt lat="42.28609" lon="2.20273">
        <ele>1923</ele>
        <time>2010-01-01T00:32:36Z</time>
      </trkpt>
      <trkpt lat="42.28607" lon="2.20275">
        <ele>1923</ele>
        <time>2010-01-01T00:32:37Z</time>
      </trkpt>
      <trkpt lat="42.28605" lon="2.20277">
        <ele>1923</ele>
        <time>2010-01-01T00:32:38Z</time>
      </trkpt>
      <trkpt lat="42.28603" lon="2.20279">
        <ele>1923</ele>
        <time>2010-01-01T00:32:39Z</time>
      </trkpt>
      <trkpt lat="42.28601" lon="2.20282">
        <ele>1923</ele>
        <time>2010-01-01T00:32:40Z</time>
      </trkpt>
      <trkpt lat="42.28599" lon="2.20284">
        <ele>1923</ele>
        <time>2010-01-01T00:32:41Z</time>
      </trkpt>
      <trkpt lat="42.28597" lon="2.20286">
        <ele>1923</ele>
        <time>2010-01-01T00:32:42Z</time>
      </trkpt>
      <trkpt lat="42.28595" lon="2.20288">
        <ele>1923</ele>
        <time>2010-01-01T00:32:43Z</time>
      </trkpt>
      <trkpt lat="42.28593" lon="2.2029">
        <ele>1923</ele>
        <time>2010-01-01T00:32:44Z</time>
      </trkpt>
      <trkpt lat="42.28591" lon="2.20293">
        <ele>1923</ele>
        <time>2010-01-01T00:32:45Z</time>
      </trkpt>
      <trkpt lat="42.2859" lon="2.20295">
        <ele>1923</ele>
        <time>2010-01-01T00:32:46Z</time>
      </trkpt>
      <trkpt lat="42.28587" lon="2.20298">
        <ele>1923</ele>
        <time>2010-01-01T00:32:47Z</time>
      </trkpt>
      <trkpt lat="42.28586" lon="2.203">
        <ele>1923</ele>
        <time>2010-01-01T00:32:48Z</time>
      </trkpt>
      <trkpt lat="42.28584" lon="2.20302">
        <ele>1923</ele>
        <time>2010-01-01T00:32:49Z</time>
      </trkpt>
      <trkpt lat="42.28582" lon="2.20304">
        <ele>1923</ele>
        <time>2010-01-01T00:32:50Z</time>
      </trkpt>
      <trkpt lat="42.2858" lon="2.20306">
        <ele>1923</ele>
        <time>2010-01-01T00:32:51Z</time>
      </trkpt>
      <trkpt lat="42.28578" lon="2.20308">
        <ele>1923</ele>
        <time>2010-01-01T00:32:52Z</time>
      </trkpt>
      <trkpt lat="42.28577" lon="2.2031">
        <ele>1923</ele>
        <time>2010-01-01T00:32:53Z</time>
      </trkpt>
      <trkpt lat="42.28575" lon="2.20313">
        <ele>1923</ele>
        <time>2010-01-01T00:32:54Z</time>
      </trkpt>
      <trkpt lat="42.28573" lon="2.20315">
        <ele>1923</ele>
        <time>2010-01-01T00:32:55Z</time>
      </trkpt>
      <trkpt lat="42.28571" lon="2.20317">
        <ele>1923</ele>
        <time>2010-01-01T00:32:56Z</time>
      </trkpt>
      <trkpt lat="42.28569" lon="2.20319">
        <ele>1923</ele>
        <time>2010-01-01T00:32:57Z</time>
      </trkpt>
      <trkpt lat="42.28567" lon="2.20321">
        <ele>1923</ele>
        <time>2010-01-01T00:32:58Z</time>
      </trkpt>
      <trkpt lat="42.28565" lon="2.20323">
        <ele>1923</ele>
        <time>2010-01-01T00:32:59Z</time>
      </trkpt>
      <trkpt lat="42.28561" lon="2.20327">
        <ele>1922</ele>
        <time>2010-01-01T00:33:01Z</time>
      </trkpt>
      <trkpt lat="42.28559" lon="2.20329">
        <ele>1922</ele>
        <time>2010-01-01T00:33:02Z</time>
      </trkpt>
      <trkpt lat="42.28558" lon="2.2033">
        <ele>1922</ele>
        <time>2010-01-01T00:33:03Z</time>
      </trkpt>
      <trkpt lat="42.28556" lon="2.20332">
        <ele>1922</ele>
        <time>2010-01-01T00:33:04Z</time>
      </trkpt>
      <trkpt lat="42.28555" lon="2.20334">
        <ele>1923</ele>
        <time>2010-01-01T00:33:05Z</time>
      </trkpt>
      <trkpt lat="42.28553" lon="2.20336">
        <ele>1923</ele>
        <time>2010-01-01T00:33:06Z</time>
      </trkpt>
      <trkpt lat="42.28551" lon="2.20338">
        <ele>1923</ele>
        <time>2010-01-01T00:33:06Z</time>
      </trkpt>
      <trkpt lat="42.28549" lon="2.2034">
        <ele>1923</ele>
        <time>2010-01-01T00:33:07Z</time>
      </trkpt>
      <trkpt lat="42.28548" lon="2.20342">
        <ele>1923</ele>
        <time>2010-01-01T00:33:08Z</time>
      </trkpt>
      <trkpt lat="42.28546" lon="2.20344">
        <ele>1923</ele>
        <time>2010-01-01T00:33:09Z</time>
      </trkpt>
      <trkpt lat="42.28544" lon="2.20347">
        <ele>1923</ele>
        <time>2010-01-01T00:33:10Z</time>
      </trkpt>
      <trkpt lat="42.28542" lon="2.20349">
        <ele>1923</ele>
        <time>2010-01-01T00:33:11Z</time>
      </trkpt>
      <trkpt lat="42.2854" lon="2.20351">
        <ele>1923</ele>
        <time>2010-01-01T00:33:12Z</time>
      </trkpt>
      <trkpt lat="42.28538" lon="2.20354">
        <ele>1923</ele>
        <time>2010-01-01T00:33:13Z</time>
      </trkpt>
      <trkpt lat="42.28536" lon="2.20357">
        <ele>1923</ele>
        <time>2010-01-01T00:33:15Z</time>
      </trkpt>
      <trkpt lat="42.28534" lon="2.2036">
        <ele>1923</ele>
        <time>2010-01-01T00:33:16Z</time>
      </trkpt>
      <trkpt lat="42.28532" lon="2.20363">
        <ele>1923</ele>
        <time>2010-01-01T00:33:17Z</time>
      </trkpt>
      <trkpt lat="42.2853" lon="2.20366">
        <ele>1923</ele>
        <time>2010-01-01T00:33:18Z</time>
      </trkpt>
      <trkpt lat="42.28528" lon="2.20369">
        <ele>1924</ele>
        <time>2010-01-01T00:33:19Z</time>
      </trkpt>
      <trkpt lat="42.28527" lon="2.20372">
        <ele>1924</ele>
        <time>2010-01-01T00:33:20Z</time>
      </trkpt>
      <trkpt lat="42.28525" lon="2.20374">
        <ele>1925</ele>
        <time>2010-01-01T00:33:21Z</time>
      </trkpt>
      <trkpt lat="42.28523" lon="2.20377">
        <ele>1925</ele>
        <time>2010-01-01T00:33:23Z</time>
      </trkpt>
      <trkpt lat="42.28521" lon="2.2038">
        <ele>1926</ele>
        <time>2010-01-01T00:33:24Z</time>
      </trkpt>
      <trkpt lat="42.28519" lon="2.20383">
        <ele>1927</ele>
        <time>2010-01-01T00:33:25Z</time>
      </trkpt>
      <trkpt lat="42.28517" lon="2.20386">
        <ele>1928</ele>
        <time>2010-01-01T00:33:26Z</time>
      </trkpt>
      <trkpt lat="42.28515" lon="2.20389">
        <ele>1929</ele>
        <time>2010-01-01T00:33:27Z</time>
      </trkpt>
      <trkpt lat="42.28513" lon="2.20392">
        <ele>1930</ele>
        <time>2010-01-01T00:33:29Z</time>
      </trkpt>
      <trkpt lat="42.28511" lon="2.20395">
        <ele>1931</ele>
        <time>2010-01-01T00:33:30Z</time>
      </trkpt>
      <trkpt lat="42.2851" lon="2.20398">
        <ele>1931</ele>
        <time>2010-01-01T00:33:31Z</time>
      </trkpt>
      <trkpt lat="42.28508" lon="2.204">
        <ele>1932</ele>
        <time>2010-01-01T00:33:32Z</time>
      </trkpt>
      <trkpt lat="42.28507" lon="2.20402">
        <ele>1933</ele>
        <time>2010-01-01T00:33:32Z</time>
      </trkpt>
      <trkpt lat="42.28505" lon="2.20404">
        <ele>1934</ele>
        <time>2010-01-01T00:33:33Z</time>
      </trkpt>
      <trkpt lat="42.28504" lon="2.20406">
        <ele>1934</ele>
        <time>2010-01-01T00:33:34Z</time>
      </trkpt>
      <trkpt lat="42.28502" lon="2.20408">
        <ele>1935</ele>
        <time>2010-01-01T00:33:35Z</time>
      </trkpt>
      <trkpt lat="42.28501" lon="2.2041">
        <ele>1936</ele>
        <time>2010-01-01T00:33:36Z</time>
      </trkpt>
      <trkpt lat="42.28498" lon="2.20412">
        <ele>1936</ele>
        <time>2010-01-01T00:33:37Z</time>
      </trkpt>
      <trkpt lat="42.28497" lon="2.20414">
        <ele>1937</ele>
        <time>2010-01-01T00:33:38Z</time>
      </trkpt>
      <trkpt lat="42.28495" lon="2.20416">
        <ele>1937</ele>
        <time>2010-01-01T00:33:39Z</time>
      </trkpt>
      <trkpt lat="42.28494" lon="2.20418">
        <ele>1938</ele>
        <time>2010-01-01T00:33:39Z</time>
      </trkpt>
      <trkpt lat="42.28492" lon="2.2042">
        <ele>1938</ele>
        <time>2010-01-01T00:33:40Z</time>
      </trkpt>
      <trkpt lat="42.28491" lon="2.20421">
        <ele>1938</ele>
        <time>2010-01-01T00:33:41Z</time>
      </trkpt>
      <trkpt lat="42.28489" lon="2.20423">
        <ele>1939</ele>
        <time>2010-01-01T00:33:42Z</time>
      </trkpt>
      <trkpt lat="42.28487" lon="2.20425">
        <ele>1939</ele>
        <time>2010-01-01T00:33:43Z</time>
      </trkpt>
      <trkpt lat="42.28485" lon="2.20427">
        <ele>1939</ele>
        <time>2010-01-01T00:33:44Z</time>
      </trkpt>
      <trkpt lat="42.28484" lon="2.20429">
        <ele>1940</ele>
        <time>2010-01-01T00:33:45Z</time>
      </trkpt>
      <trkpt lat="42.28482" lon="2.2043">
        <ele>1940</ele>
        <time>2010-01-01T00:33:45Z</time>
      </trkpt>
      <trkpt lat="42.28481" lon="2.20432">
        <ele>1940</ele>
        <time>2010-01-01T00:33:46Z</time>
      </trkpt>
      <trkpt lat="42.28479" lon="2.20434">
        <ele>1941</ele>
        <time>2010-01-01T00:33:47Z</time>
      </trkpt>
      <trkpt lat="42.28478" lon="2.20435">
        <ele>1941</ele>
        <time>2010-01-01T00:33:48Z</time>
      </trkpt>
      <trkpt lat="42.28476" lon="2.20437">
        <ele>1942</ele>
        <time>2010-01-01T00:33:48Z</time>
      </trkpt>
      <trkpt lat="42.28475" lon="2.20439">
        <ele>1942</ele>
        <time>2010-01-01T00:33:49Z</time>
      </trkpt>
      <trkpt lat="42.28474" lon="2.2044">
        <ele>1943</ele>
        <time>2010-01-01T00:33:50Z</time>
      </trkpt>
      <trkpt lat="42.28472" lon="2.20443">
        <ele>1943</ele>
        <time>2010-01-01T00:33:51Z</time>
      </trkpt>
      <trkpt lat="42.2847" lon="2.20444">
        <ele>1943</ele>
        <time>2010-01-01T00:33:52Z</time>
      </trkpt>
      <trkpt lat="42.28468" lon="2.20446">
        <ele>1943</ele>
        <time>2010-01-01T00:33:53Z</time>
      </trkpt>
      <trkpt lat="42.28466" lon="2.20447">
        <ele>1943</ele>
        <time>2010-01-01T00:33:54Z</time>
      </trkpt>
      <trkpt lat="42.28464" lon="2.20449">
        <ele>1943</ele>
        <time>2010-01-01T00:33:54Z</time>
      </trkpt>
      <trkpt lat="42.28463" lon="2.2045">
        <ele>1943</ele>
        <time>2010-01-01T00:33:55Z</time>
      </trkpt>
      <trkpt lat="42.28461" lon="2.20452">
        <ele>1944</ele>
        <time>2010-01-01T00:33:56Z</time>
      </trkpt>
      <trkpt lat="42.28459" lon="2.20454">
        <ele>1944</ele>
        <time>2010-01-01T00:33:57Z</time>
      </trkpt>
      <trkpt lat="42.28457" lon="2.20456">
        <ele>1945</ele>
        <time>2010-01-01T00:33:58Z</time>
      </trkpt>
      <trkpt lat="42.28456" lon="2.20458">
        <ele>1945</ele>
        <time>2010-01-01T00:33:59Z</time>
      </trkpt>
      <trkpt lat="42.28455" lon="2.20461">
        <ele>1947</ele>
        <time>2010-01-01T00:34:00Z</time>
      </trkpt>
      <trkpt lat="42.28454" lon="2.20464">
        <ele>1948</ele>
        <time>2010-01-01T00:34:01Z</time>
      </trkpt>
      <trkpt lat="42.28452" lon="2.20467">
        <ele>1949</ele>
        <time>2010-01-01T00:34:02Z</time>
      </trkpt>
      <trkpt lat="42.28451" lon="2.20469">
        <ele>1950</ele>
        <time>2010-01-01T00:34:03Z</time>
      </trkpt>
      <trkpt lat="42.28451" lon="2.20472">
        <ele>1951</ele>
        <time>2010-01-01T00:34:03Z</time>
      </trkpt>
      <trkpt lat="42.2845" lon="2.20475">
        <ele>1952</ele>
        <time>2010-01-01T00:34:04Z</time>
      </trkpt>
      <trkpt lat="42.28448" lon="2.20476">
        <ele>1952</ele>
        <time>2010-01-01T00:34:05Z</time>
      </trkpt>
      <trkpt lat="42.28447" lon="2.20479">
        <ele>1952</ele>
        <time>2010-01-01T00:34:06Z</time>
      </trkpt>
      <trkpt lat="42.28446" lon="2.20481">
        <ele>1953</ele>
        <time>2010-01-01T00:34:07Z</time>
      </trkpt>
      <trkpt lat="42.28444" lon="2.20483">
        <ele>1953</ele>
        <time>2010-01-01T00:34:08Z</time>
      </trkpt>
      <trkpt lat="42.28443" lon="2.20486">
        <ele>1953</ele>
        <time>2010-01-01T00:34:09Z</time>
      </trkpt>
      <trkpt lat="42.28442" lon="2.20488">
        <ele>1953</ele>
        <time>2010-01-01T00:34:09Z</time>
      </trkpt>
      <trkpt lat="42.28441" lon="2.2049">
        <ele>1954</ele>
        <time>2010-01-01T00:34:10Z</time>
      </trkpt>
      <trkpt lat="42.2844" lon="2.20492">
        <ele>1954</ele>
        <time>2010-01-01T00:34:11Z</time>
      </trkpt>
      <trkpt lat="42.28439" lon="2.20495">
        <ele>1954</ele>
        <time>2010-01-01T00:34:12Z</time>
      </trkpt>
      <trkpt lat="42.28437" lon="2.20497">
        <ele>1954</ele>
        <time>2010-01-01T00:34:13Z</time>
      </trkpt>
      <trkpt lat="42.28436" lon="2.20499">
        <ele>1955</ele>
        <time>2010-01-01T00:34:14Z</time>
      </trkpt>
      <trkpt lat="42.28435" lon="2.20502">
        <ele>1955</ele>
        <time>2010-01-01T00:34:15Z</time>
      </trkpt>
      <trkpt lat="42.28434" lon="2.20505">
        <ele>1955</ele>
        <time>2010-01-01T00:34:15Z</time>
      </trkpt>
      <trkpt lat="42.28432" lon="2.20507">
        <ele>1955</ele>
        <time>2010-01-01T00:34:16Z</time>
      </trkpt>
      <trkpt lat="42.28431" lon="2.2051">
        <ele>1955</ele>
        <time>2010-01-01T00:34:17Z</time>
      </trkpt>
      <trkpt lat="42.2843" lon="2.20512">
        <ele>1956</ele>
        <time>2010-01-01T00:34:18Z</time>
      </trkpt>
      <trkpt lat="42.28429" lon="2.20515">
        <ele>1956</ele>
        <time>2010-01-01T00:34:19Z</time>
      </trkpt>
      <trkpt lat="42.28428" lon="2.20517">
        <ele>1957</ele>
        <time>2010-01-01T00:34:20Z</time>
      </trkpt>
      <trkpt lat="42.28427" lon="2.20519">
        <ele>1957</ele>
        <time>2010-01-01T00:34:20Z</time>
      </trkpt>
      <trkpt lat="42.28427" lon="2.20522">
        <ele>1957</ele>
        <time>2010-01-01T00:34:21Z</time>
      </trkpt>
      <trkpt lat="42.28426" lon="2.20524">
        <ele>1958</ele>
        <time>2010-01-01T00:34:22Z</time>
      </trkpt>
      <trkpt lat="42.28426" lon="2.20527">
        <ele>1958</ele>
        <time>2010-01-01T00:34:23Z</time>
      </trkpt>
      <trkpt lat="42.28424" lon="2.20529">
        <ele>1959</ele>
        <time>2010-01-01T00:34:24Z</time>
      </trkpt>
      <trkpt lat="42.28423" lon="2.20532">
        <ele>1959</ele>
        <time>2010-01-01T00:34:25Z</time>
      </trkpt>
      <trkpt lat="42.28424" lon="2.20534">
        <ele>1960</ele>
        <time>2010-01-01T00:34:25Z</time>
      </trkpt>
      <trkpt lat="42.28423" lon="2.20537">
        <ele>1960</ele>
        <time>2010-01-01T00:34:26Z</time>
      </trkpt>
      <trkpt lat="42.28422" lon="2.2054">
        <ele>1961</ele>
        <time>2010-01-01T00:34:27Z</time>
      </trkpt>
      <trkpt lat="42.28422" lon="2.20543">
        <ele>1961</ele>
        <time>2010-01-01T00:34:28Z</time>
      </trkpt>
      <trkpt lat="42.28422" lon="2.20545">
        <ele>1961</ele>
        <time>2010-01-01T00:34:29Z</time>
      </trkpt>
      <trkpt lat="42.28421" lon="2.20547">
        <ele>1962</ele>
        <time>2010-01-01T00:34:29Z</time>
      </trkpt>
      <trkpt lat="42.28419" lon="2.2055">
        <ele>1963</ele>
        <time>2010-01-01T00:34:30Z</time>
      </trkpt>
      <trkpt lat="42.28418" lon="2.20552">
        <ele>1964</ele>
        <time>2010-01-01T00:34:31Z</time>
      </trkpt>
      <trkpt lat="42.28418" lon="2.20555">
        <ele>1965</ele>
        <time>2010-01-01T00:34:32Z</time>
      </trkpt>
      <trkpt lat="42.28416" lon="2.20558">
        <ele>1966</ele>
        <time>2010-01-01T00:34:33Z</time>
      </trkpt>
      <trkpt lat="42.28415" lon="2.20561">
        <ele>1967</ele>
        <time>2010-01-01T00:34:34Z</time>
      </trkpt>
      <trkpt lat="42.28414" lon="2.20564">
        <ele>1968</ele>
        <time>2010-01-01T00:34:35Z</time>
      </trkpt>
      <trkpt lat="42.28413" lon="2.20566">
        <ele>1969</ele>
        <time>2010-01-01T00:34:36Z</time>
      </trkpt>
      <trkpt lat="42.28412" lon="2.20568">
        <ele>1971</ele>
        <time>2010-01-01T00:34:37Z</time>
      </trkpt>
      <trkpt lat="42.2841" lon="2.2057">
        <ele>1972</ele>
        <time>2010-01-01T00:34:37Z</time>
      </trkpt>
      <trkpt lat="42.28408" lon="2.20572">
        <ele>1973</ele>
        <time>2010-01-01T00:34:38Z</time>
      </trkpt>
      <trkpt lat="42.28406" lon="2.20573">
        <ele>1975</ele>
        <time>2010-01-01T00:34:39Z</time>
      </trkpt>
      <trkpt lat="42.28404" lon="2.20574">
        <ele>1976</ele>
        <time>2010-01-01T00:34:40Z</time>
      </trkpt>
      <trkpt lat="42.28402" lon="2.20574">
        <ele>1978</ele>
        <time>2010-01-01T00:34:41Z</time>
      </trkpt>
      <trkpt lat="42.284" lon="2.20574">
        <ele>1979</ele>
        <time>2010-01-01T00:34:42Z</time>
      </trkpt>
      <trkpt lat="42.28397" lon="2.20574">
        <ele>1980</ele>
        <time>2010-01-01T00:34:43Z</time>
      </trkpt>
      <trkpt lat="42.28395" lon="2.20575">
        <ele>1982</ele>
        <time>2010-01-01T00:34:44Z</time>
      </trkpt>
      <trkpt lat="42.28393" lon="2.20575">
        <ele>1983</ele>
        <time>2010-01-01T00:34:45Z</time>
      </trkpt>
      <trkpt lat="42.28391" lon="2.20576">
        <ele>1985</ele>
        <time>2010-01-01T00:34:46Z</time>
      </trkpt>
      <trkpt lat="42.28389" lon="2.20577">
        <ele>1986</ele>
        <time>2010-01-01T00:34:46Z</time>
      </trkpt>
      <trkpt lat="42.28386" lon="2.20578">
        <ele>1986</ele>
        <time>2010-01-01T00:34:47Z</time>
      </trkpt>
      <trkpt lat="42.28384" lon="2.20578">
        <ele>1987</ele>
        <time>2010-01-01T00:34:48Z</time>
      </trkpt>
      <trkpt lat="42.28382" lon="2.20579">
        <ele>1987</ele>
        <time>2010-01-01T00:34:49Z</time>
      </trkpt>
      <trkpt lat="42.2838" lon="2.2058">
        <ele>1987</ele>
        <time>2010-01-01T00:34:50Z</time>
      </trkpt>
      <trkpt lat="42.28378" lon="2.20581">
        <ele>1988</ele>
        <time>2010-01-01T00:34:51Z</time>
      </trkpt>
      <trkpt lat="42.28375" lon="2.20581">
        <ele>1988</ele>
        <time>2010-01-01T00:34:52Z</time>
      </trkpt>
      <trkpt lat="42.28374" lon="2.20581">
        <ele>1988</ele>
        <time>2010-01-01T00:34:53Z</time>
      </trkpt>
      <trkpt lat="42.28371" lon="2.20582">
        <ele>1989</ele>
        <time>2010-01-01T00:34:54Z</time>
      </trkpt>
      <trkpt lat="42.28369" lon="2.20582">
        <ele>1989</ele>
        <time>2010-01-01T00:34:55Z</time>
      </trkpt>
      <trkpt lat="42.28367" lon="2.20584">
        <ele>1990</ele>
        <time>2010-01-01T00:34:55Z</time>
      </trkpt>
      <trkpt lat="42.28365" lon="2.20585">
        <ele>1991</ele>
        <time>2010-01-01T00:34:56Z</time>
      </trkpt>
      <trkpt lat="42.28364" lon="2.20587">
        <ele>1991</ele>
        <time>2010-01-01T00:34:57Z</time>
      </trkpt>
      <trkpt lat="42.28362" lon="2.20588">
        <ele>1992</ele>
        <time>2010-01-01T00:34:58Z</time>
      </trkpt>
      <trkpt lat="42.28361" lon="2.2059">
        <ele>1992</ele>
        <time>2010-01-01T00:34:59Z</time>
      </trkpt>
      <trkpt lat="42.28359" lon="2.20592">
        <ele>1992</ele>
        <time>2010-01-01T00:34:59Z</time>
      </trkpt>
      <trkpt lat="42.28357" lon="2.20594">
        <ele>1993</ele>
        <time>2010-01-01T00:35:00Z</time>
      </trkpt>
      <trkpt lat="42.28356" lon="2.20595">
        <ele>1993</ele>
        <time>2010-01-01T00:35:01Z</time>
      </trkpt>
      <trkpt lat="42.28354" lon="2.20596">
        <ele>1994</ele>
        <time>2010-01-01T00:35:02Z</time>
      </trkpt>
      <trkpt lat="42.28352" lon="2.20598">
        <ele>1994</ele>
        <time>2010-01-01T00:35:03Z</time>
      </trkpt>
      <trkpt lat="42.2835" lon="2.206">
        <ele>1995</ele>
        <time>2010-01-01T00:35:04Z</time>
      </trkpt>
      <trkpt lat="42.28348" lon="2.20601">
        <ele>1995</ele>
        <time>2010-01-01T00:35:05Z</time>
      </trkpt>
      <trkpt lat="42.28344" lon="2.20601">
        <ele>1996</ele>
        <time>2010-01-01T00:35:06Z</time>
      </trkpt>
      <trkpt lat="42.28342" lon="2.20603">
        <ele>1996</ele>
        <time>2010-01-01T00:35:07Z</time>
      </trkpt>
      <trkpt lat="42.2834" lon="2.20605">
        <ele>1998</ele>
        <time>2010-01-01T00:35:08Z</time>
      </trkpt>
      <trkpt lat="42.28339" lon="2.20607">
        <ele>1998</ele>
        <time>2010-01-01T00:35:09Z</time>
      </trkpt>
      <trkpt lat="42.28337" lon="2.20609">
        <ele>2000</ele>
        <time>2010-01-01T00:35:10Z</time>
      </trkpt>
      <trkpt lat="42.28334" lon="2.20612">
        <ele>2002</ele>
        <time>2010-01-01T00:35:11Z</time>
      </trkpt>
      <trkpt lat="42.28333" lon="2.20614">
        <ele>2002</ele>
        <time>2010-01-01T00:35:12Z</time>
      </trkpt>
      <trkpt lat="42.28331" lon="2.20616">
        <ele>2003</ele>
        <time>2010-01-01T00:35:13Z</time>
      </trkpt>
      <trkpt lat="42.2833" lon="2.20617">
        <ele>2003</ele>
        <time>2010-01-01T00:35:14Z</time>
      </trkpt>
      <trkpt lat="42.28328" lon="2.20618">
        <ele>2003</ele>
        <time>2010-01-01T00:35:14Z</time>
      </trkpt>
      <trkpt lat="42.28326" lon="2.20619">
        <ele>2003</ele>
        <time>2010-01-01T00:35:15Z</time>
      </trkpt>
      <trkpt lat="42.28324" lon="2.2062">
        <ele>2003</ele>
        <time>2010-01-01T00:35:16Z</time>
      </trkpt>
      <trkpt lat="42.28322" lon="2.20622">
        <ele>2003</ele>
        <time>2010-01-01T00:35:17Z</time>
      </trkpt>
      <trkpt lat="42.2832" lon="2.20623">
        <ele>2003</ele>
        <time>2010-01-01T00:35:18Z</time>
      </trkpt>
      <trkpt lat="42.28318" lon="2.20625">
        <ele>2004</ele>
        <time>2010-01-01T00:35:19Z</time>
      </trkpt>
      <trkpt lat="42.28316" lon="2.20626">
        <ele>2004</ele>
        <time>2010-01-01T00:35:20Z</time>
      </trkpt>
      <trkpt lat="42.28314" lon="2.20627">
        <ele>2004</ele>
        <time>2010-01-01T00:35:20Z</time>
      </trkpt>
      <trkpt lat="42.28312" lon="2.20628">
        <ele>2004</ele>
        <time>2010-01-01T00:35:21Z</time>
      </trkpt>
      <trkpt lat="42.2831" lon="2.2063">
        <ele>2004</ele>
        <time>2010-01-01T00:35:22Z</time>
      </trkpt>
      <trkpt lat="42.28308" lon="2.20631">
        <ele>2005</ele>
        <time>2010-01-01T00:35:23Z</time>
      </trkpt>
      <trkpt lat="42.28306" lon="2.20632">
        <ele>2005</ele>
        <time>2010-01-01T00:35:24Z</time>
      </trkpt>
      <trkpt lat="42.28304" lon="2.20635">
        <ele>2006</ele>
        <time>2010-01-01T00:35:25Z</time>
      </trkpt>
      <trkpt lat="42.28302" lon="2.20636">
        <ele>2006</ele>
        <time>2010-01-01T00:35:26Z</time>
      </trkpt>
      <trkpt lat="42.28301" lon="2.20637">
        <ele>2007</ele>
        <time>2010-01-01T00:35:27Z</time>
      </trkpt>
      <trkpt lat="42.28299" lon="2.20638">
        <ele>2007</ele>
        <time>2010-01-01T00:35:28Z</time>
      </trkpt>
      <trkpt lat="42.28297" lon="2.20639">
        <ele>2008</ele>
        <time>2010-01-01T00:35:28Z</time>
      </trkpt>
      <trkpt lat="42.28296" lon="2.20641">
        <ele>2008</ele>
        <time>2010-01-01T00:35:29Z</time>
      </trkpt>
      <trkpt lat="42.28294" lon="2.20642">
        <ele>2009</ele>
        <time>2010-01-01T00:35:30Z</time>
      </trkpt>
      <trkpt lat="42.28292" lon="2.20644">
        <ele>2009</ele>
        <time>2010-01-01T00:35:31Z</time>
      </trkpt>
      <trkpt lat="42.28291" lon="2.20645">
        <ele>2010</ele>
        <time>2010-01-01T00:35:31Z</time>
      </trkpt>
      <trkpt lat="42.28288" lon="2.20646">
        <ele>2010</ele>
        <time>2010-01-01T00:35:32Z</time>
      </trkpt>
      <trkpt lat="42.28287" lon="2.20647">
        <ele>2010</ele>
        <time>2010-01-01T00:35:33Z</time>
      </trkpt>
      <trkpt lat="42.28285" lon="2.20649">
        <ele>2011</ele>
        <time>2010-01-01T00:35:34Z</time>
      </trkpt>
      <trkpt lat="42.28283" lon="2.20652">
        <ele>2012</ele>
        <time>2010-01-01T00:35:35Z</time>
      </trkpt>
      <trkpt lat="42.28282" lon="2.20654">
        <ele>2013</ele>
        <time>2010-01-01T00:35:36Z</time>
      </trkpt>
      <trkpt lat="42.28281" lon="2.20656">
        <ele>2013</ele>
        <time>2010-01-01T00:35:37Z</time>
      </trkpt>
      <trkpt lat="42.28279" lon="2.20658">
        <ele>2014</ele>
        <time>2010-01-01T00:35:38Z</time>
      </trkpt>
      <trkpt lat="42.28277" lon="2.20661">
        <ele>2015</ele>
        <time>2010-01-01T00:35:39Z</time>
      </trkpt>
      <trkpt lat="42.28276" lon="2.20663">
        <ele>2015</ele>
        <time>2010-01-01T00:35:40Z</time>
      </trkpt>
      <trkpt lat="42.28275" lon="2.20666">
        <ele>2016</ele>
        <time>2010-01-01T00:35:41Z</time>
      </trkpt>
      <trkpt lat="42.28273" lon="2.20669">
        <ele>2017</ele>
        <time>2010-01-01T00:35:42Z</time>
      </trkpt>
      <trkpt lat="42.28271" lon="2.20671">
        <ele>2017</ele>
        <time>2010-01-01T00:35:43Z</time>
      </trkpt>
      <trkpt lat="42.2827" lon="2.20674">
        <ele>2018</ele>
        <time>2010-01-01T00:35:44Z</time>
      </trkpt>
      <trkpt lat="42.28268" lon="2.20677">
        <ele>2018</ele>
        <time>2010-01-01T00:35:45Z</time>
      </trkpt>
      <trkpt lat="42.28267" lon="2.2068">
        <ele>2019</ele>
        <time>2010-01-01T00:35:46Z</time>
      </trkpt>
      <trkpt lat="42.28265" lon="2.20682">
        <ele>2019</ele>
        <time>2010-01-01T00:35:47Z</time>
      </trkpt>
      <trkpt lat="42.28263" lon="2.20685">
        <ele>2020</ele>
        <time>2010-01-01T00:35:48Z</time>
      </trkpt>
      <trkpt lat="42.28262" lon="2.20687">
        <ele>2020</ele>
        <time>2010-01-01T00:35:49Z</time>
      </trkpt>
      <trkpt lat="42.2826" lon="2.2069">
        <ele>2021</ele>
        <time>2010-01-01T00:35:50Z</time>
      </trkpt>
      <trkpt lat="42.28258" lon="2.20693">
        <ele>2022</ele>
        <time>2010-01-01T00:35:51Z</time>
      </trkpt>
      <trkpt lat="42.28257" lon="2.20696">
        <ele>2022</ele>
        <time>2010-01-01T00:35:52Z</time>
      </trkpt>
      <trkpt lat="42.28255" lon="2.20699">
        <ele>2023</ele>
        <time>2010-01-01T00:35:53Z</time>
      </trkpt>
      <trkpt lat="42.28254" lon="2.20702">
        <ele>2024</ele>
        <time>2010-01-01T00:35:54Z</time>
      </trkpt>
      <trkpt lat="42.28252" lon="2.20705">
        <ele>2024</ele>
        <time>2010-01-01T00:35:55Z</time>
      </trkpt>
      <trkpt lat="42.28251" lon="2.20708">
        <ele>2025</ele>
        <time>2010-01-01T00:35:56Z</time>
      </trkpt>
      <trkpt lat="42.28249" lon="2.20711">
        <ele>2026</ele>
        <time>2010-01-01T00:35:57Z</time>
      </trkpt>
      <trkpt lat="42.28248" lon="2.20714">
        <ele>2027</ele>
        <time>2010-01-01T00:35:58Z</time>
      </trkpt>
      <trkpt lat="42.28246" lon="2.20716">
        <ele>2027</ele>
        <time>2010-01-01T00:35:59Z</time>
      </trkpt>
      <trkpt lat="42.28245" lon="2.20719">
        <ele>2028</ele>
        <time>2010-01-01T00:36:00Z</time>
      </trkpt>
      <trkpt lat="42.28244" lon="2.20722">
        <ele>2029</ele>
        <time>2010-01-01T00:36:01Z</time>
      </trkpt>
      <trkpt lat="42.28242" lon="2.20725">
        <ele>2029</ele>
        <time>2010-01-01T00:36:02Z</time>
      </trkpt>
      <trkpt lat="42.28241" lon="2.20728">
        <ele>2030</ele>
        <time>2010-01-01T00:36:03Z</time>
      </trkpt>
      <trkpt lat="42.28239" lon="2.20731">
        <ele>2030</ele>
        <time>2010-01-01T00:36:05Z</time>
      </trkpt>
      <trkpt lat="42.28238" lon="2.20734">
        <ele>2030</ele>
        <time>2010-01-01T00:36:06Z</time>
      </trkpt>
      <trkpt lat="42.28236" lon="2.20737">
        <ele>2031</ele>
        <time>2010-01-01T00:36:07Z</time>
      </trkpt>
      <trkpt lat="42.28235" lon="2.2074">
        <ele>2031</ele>
        <time>2010-01-01T00:36:08Z</time>
      </trkpt>
      <trkpt lat="42.28233" lon="2.20742">
        <ele>2032</ele>
        <time>2010-01-01T00:36:09Z</time>
      </trkpt>
      <trkpt lat="42.28232" lon="2.20744">
        <ele>2032</ele>
        <time>2010-01-01T00:36:09Z</time>
      </trkpt>
      <trkpt lat="42.2823" lon="2.20746">
        <ele>2032</ele>
        <time>2010-01-01T00:36:10Z</time>
      </trkpt>
      <trkpt lat="42.28228" lon="2.20749">
        <ele>2033</ele>
        <time>2010-01-01T00:36:11Z</time>
      </trkpt>
      <trkpt lat="42.28227" lon="2.20752">
        <ele>2033</ele>
        <time>2010-01-01T00:36:13Z</time>
      </trkpt>
      <trkpt lat="42.28225" lon="2.20755">
        <ele>2032</ele>
        <time>2010-01-01T00:36:14Z</time>
      </trkpt>
      <trkpt lat="42.28224" lon="2.20759">
        <ele>2031</ele>
        <time>2010-01-01T00:36:15Z</time>
      </trkpt>
      <trkpt lat="42.28222" lon="2.20762">
        <ele>2031</ele>
        <time>2010-01-01T00:36:16Z</time>
      </trkpt>
      <trkpt lat="42.28221" lon="2.20765">
        <ele>2030</ele>
        <time>2010-01-01T00:36:17Z</time>
      </trkpt>
      <trkpt lat="42.28219" lon="2.20767">
        <ele>2029</ele>
        <time>2010-01-01T00:36:18Z</time>
      </trkpt>
      <trkpt lat="42.28217" lon="2.2077">
        <ele>2029</ele>
        <time>2010-01-01T00:36:19Z</time>
      </trkpt>
      <trkpt lat="42.28216" lon="2.20773">
        <ele>2028</ele>
        <time>2010-01-01T00:36:20Z</time>
      </trkpt>
      <trkpt lat="42.28215" lon="2.20776">
        <ele>2028</ele>
        <time>2010-01-01T00:36:21Z</time>
      </trkpt>
      <trkpt lat="42.28213" lon="2.20779">
        <ele>2027</ele>
        <time>2010-01-01T00:36:22Z</time>
      </trkpt>
      <trkpt lat="42.28212" lon="2.20781">
        <ele>2027</ele>
        <time>2010-01-01T00:36:23Z</time>
      </trkpt>
      <trkpt lat="42.2821" lon="2.20784">
        <ele>2026</ele>
        <time>2010-01-01T00:36:24Z</time>
      </trkpt>
      <trkpt lat="42.28208" lon="2.20787">
        <ele>2026</ele>
        <time>2010-01-01T00:36:25Z</time>
      </trkpt>
      <trkpt lat="42.28206" lon="2.20789">
        <ele>2026</ele>
        <time>2010-01-01T00:36:26Z</time>
      </trkpt>
      <trkpt lat="42.28205" lon="2.20792">
        <ele>2025</ele>
        <time>2010-01-01T00:36:27Z</time>
      </trkpt>
      <trkpt lat="42.28203" lon="2.20795">
        <ele>2025</ele>
        <time>2010-01-01T00:36:28Z</time>
      </trkpt>
      <trkpt lat="42.28202" lon="2.20798">
        <ele>2025</ele>
        <time>2010-01-01T00:36:30Z</time>
      </trkpt>
      <trkpt lat="42.282" lon="2.20801">
        <ele>2025</ele>
        <time>2010-01-01T00:36:31Z</time>
      </trkpt>
      <trkpt lat="42.28199" lon="2.20804">
        <ele>2025</ele>
        <time>2010-01-01T00:36:32Z</time>
      </trkpt>
      <trkpt lat="42.28197" lon="2.20808">
        <ele>2026</ele>
        <time>2010-01-01T00:36:33Z</time>
      </trkpt>
      <trkpt lat="42.28196" lon="2.20811">
        <ele>2026</ele>
        <time>2010-01-01T00:36:34Z</time>
      </trkpt>
      <trkpt lat="42.28194" lon="2.20814">
        <ele>2026</ele>
        <time>2010-01-01T00:36:35Z</time>
      </trkpt>
      <trkpt lat="42.28193" lon="2.20818">
        <ele>2026</ele>
        <time>2010-01-01T00:36:36Z</time>
      </trkpt>
      <trkpt lat="42.28191" lon="2.20821">
        <ele>2026</ele>
        <time>2010-01-01T00:36:38Z</time>
      </trkpt>
      <trkpt lat="42.28189" lon="2.20824">
        <ele>2026</ele>
        <time>2010-01-01T00:36:39Z</time>
      </trkpt>
      <trkpt lat="42.28188" lon="2.20828">
        <ele>2025</ele>
        <time>2010-01-01T00:36:40Z</time>
      </trkpt>
      <trkpt lat="42.28186" lon="2.2083">
        <ele>2025</ele>
        <time>2010-01-01T00:36:41Z</time>
      </trkpt>
      <trkpt lat="42.28184" lon="2.20833">
        <ele>2025</ele>
        <time>2010-01-01T00:36:42Z</time>
      </trkpt>
      <trkpt lat="42.28182" lon="2.20836">
        <ele>2025</ele>
        <time>2010-01-01T00:36:43Z</time>
      </trkpt>
      <trkpt lat="42.2818" lon="2.20839">
        <ele>2025</ele>
        <time>2010-01-01T00:36:45Z</time>
      </trkpt>
      <trkpt lat="42.28178" lon="2.20842">
        <ele>2025</ele>
        <time>2010-01-01T00:36:46Z</time>
      </trkpt>
      <trkpt lat="42.28176" lon="2.20845">
        <ele>2025</ele>
        <time>2010-01-01T00:36:47Z</time>
      </trkpt>
      <trkpt lat="42.28174" lon="2.20849">
        <ele>2025</ele>
        <time>2010-01-01T00:36:48Z</time>
      </trkpt>
      <trkpt lat="42.28172" lon="2.20852">
        <ele>2025</ele>
        <time>2010-01-01T00:36:50Z</time>
      </trkpt>
      <trkpt lat="42.28169" lon="2.20855">
        <ele>2025</ele>
        <time>2010-01-01T00:36:51Z</time>
      </trkpt>
      <trkpt lat="42.28167" lon="2.20857">
        <ele>2025</ele>
        <time>2010-01-01T00:36:52Z</time>
      </trkpt>
      <trkpt lat="42.28165" lon="2.2086">
        <ele>2025</ele>
        <time>2010-01-01T00:36:53Z</time>
      </trkpt>
      <trkpt lat="42.28164" lon="2.20862">
        <ele>2025</ele>
        <time>2010-01-01T00:36:54Z</time>
      </trkpt>
      <trkpt lat="42.28162" lon="2.20865">
        <ele>2024</ele>
        <time>2010-01-01T00:36:55Z</time>
      </trkpt>
      <trkpt lat="42.2816" lon="2.20868">
        <ele>2024</ele>
        <time>2010-01-01T00:36:56Z</time>
      </trkpt>
      <trkpt lat="42.28159" lon="2.20871">
        <ele>2024</ele>
        <time>2010-01-01T00:36:57Z</time>
      </trkpt>
      <trkpt lat="42.28157" lon="2.20874">
        <ele>2024</ele>
        <time>2010-01-01T00:36:59Z</time>
      </trkpt>
      <trkpt lat="42.28155" lon="2.20878">
        <ele>2024</ele>
        <time>2010-01-01T00:37:00Z</time>
      </trkpt>
      <trkpt lat="42.28153" lon="2.20881">
        <ele>2024</ele>
        <time>2010-01-01T00:37:01Z</time>
      </trkpt>
      <trkpt lat="42.28151" lon="2.20884">
        <ele>2024</ele>
        <time>2010-01-01T00:37:02Z</time>
      </trkpt>
      <trkpt lat="42.2815" lon="2.20888">
        <ele>2024</ele>
        <time>2010-01-01T00:37:04Z</time>
      </trkpt>
      <trkpt lat="42.28148" lon="2.20891">
        <ele>2024</ele>
        <time>2010-01-01T00:37:05Z</time>
      </trkpt>
      <trkpt lat="42.28146" lon="2.20895">
        <ele>2025</ele>
        <time>2010-01-01T00:37:06Z</time>
      </trkpt>
      <trkpt lat="42.28144" lon="2.20898">
        <ele>2025</ele>
        <time>2010-01-01T00:37:07Z</time>
      </trkpt>
      <trkpt lat="42.28142" lon="2.20901">
        <ele>2026</ele>
        <time>2010-01-01T00:37:09Z</time>
      </trkpt>
      <trkpt lat="42.2814" lon="2.20904">
        <ele>2026</ele>
        <time>2010-01-01T00:37:10Z</time>
      </trkpt>
      <trkpt lat="42.28138" lon="2.20907">
        <ele>2027</ele>
        <time>2010-01-01T00:37:11Z</time>
      </trkpt>
      <trkpt lat="42.28137" lon="2.20911">
        <ele>2027</ele>
        <time>2010-01-01T00:37:12Z</time>
      </trkpt>
      <trkpt lat="42.28136" lon="2.20914">
        <ele>2028</ele>
        <time>2010-01-01T00:37:13Z</time>
      </trkpt>
      <trkpt lat="42.28134" lon="2.20918">
        <ele>2028</ele>
        <time>2010-01-01T00:37:14Z</time>
      </trkpt>
      <trkpt lat="42.28133" lon="2.20921">
        <ele>2028</ele>
        <time>2010-01-01T00:37:16Z</time>
      </trkpt>
      <trkpt lat="42.28131" lon="2.20924">
        <ele>2028</ele>
        <time>2010-01-01T00:37:17Z</time>
      </trkpt>
      <trkpt lat="42.28128" lon="2.20927">
        <ele>2028</ele>
        <time>2010-01-01T00:37:18Z</time>
      </trkpt>
      <trkpt lat="42.28126" lon="2.20929">
        <ele>2028</ele>
        <time>2010-01-01T00:37:19Z</time>
      </trkpt>
      <trkpt lat="42.28124" lon="2.20932">
        <ele>2029</ele>
        <time>2010-01-01T00:37:21Z</time>
      </trkpt>
      <trkpt lat="42.28122" lon="2.20935">
        <ele>2029</ele>
        <time>2010-01-01T00:37:22Z</time>
      </trkpt>
      <trkpt lat="42.2812" lon="2.20938">
        <ele>2029</ele>
        <time>2010-01-01T00:37:23Z</time>
      </trkpt>
      <trkpt lat="42.28118" lon="2.20941">
        <ele>2030</ele>
        <time>2010-01-01T00:37:24Z</time>
      </trkpt>
      <trkpt lat="42.28116" lon="2.20943">
        <ele>2030</ele>
        <time>2010-01-01T00:37:25Z</time>
      </trkpt>
      <trkpt lat="42.28114" lon="2.20946">
        <ele>2031</ele>
        <time>2010-01-01T00:37:26Z</time>
      </trkpt>
      <trkpt lat="42.28112" lon="2.20949">
        <ele>2031</ele>
        <time>2010-01-01T00:37:27Z</time>
      </trkpt>
      <trkpt lat="42.2811" lon="2.20951">
        <ele>2031</ele>
        <time>2010-01-01T00:37:29Z</time>
      </trkpt>
      <trkpt lat="42.28108" lon="2.20955">
        <ele>2032</ele>
        <time>2010-01-01T00:37:30Z</time>
      </trkpt>
      <trkpt lat="42.28106" lon="2.20958">
        <ele>2032</ele>
        <time>2010-01-01T00:37:31Z</time>
      </trkpt>
      <trkpt lat="42.28104" lon="2.20961">
        <ele>2033</ele>
        <time>2010-01-01T00:37:32Z</time>
      </trkpt>
      <trkpt lat="42.28102" lon="2.20964">
        <ele>2033</ele>
        <time>2010-01-01T00:37:33Z</time>
      </trkpt>
      <trkpt lat="42.281" lon="2.20967">
        <ele>2033</ele>
        <time>2010-01-01T00:37:34Z</time>
      </trkpt>
      <trkpt lat="42.28099" lon="2.2097">
        <ele>2034</ele>
        <time>2010-01-01T00:37:36Z</time>
      </trkpt>
      <trkpt lat="42.28097" lon="2.20973">
        <ele>2034</ele>
        <time>2010-01-01T00:37:37Z</time>
      </trkpt>
      <trkpt lat="42.28095" lon="2.20976">
        <ele>2034</ele>
        <time>2010-01-01T00:37:38Z</time>
      </trkpt>
      <trkpt lat="42.28093" lon="2.20979">
        <ele>2034</ele>
        <time>2010-01-01T00:37:39Z</time>
      </trkpt>
      <trkpt lat="42.28091" lon="2.20982">
        <ele>2034</ele>
        <time>2010-01-01T00:37:40Z</time>
      </trkpt>
      <trkpt lat="42.28089" lon="2.20984">
        <ele>2034</ele>
        <time>2010-01-01T00:37:41Z</time>
      </trkpt>
      <trkpt lat="42.28087" lon="2.20987">
        <ele>2035</ele>
        <time>2010-01-01T00:37:42Z</time>
      </trkpt>
      <trkpt lat="42.28086" lon="2.2099">
        <ele>2035</ele>
        <time>2010-01-01T00:37:43Z</time>
      </trkpt>
      <trkpt lat="42.28084" lon="2.20993">
        <ele>2035</ele>
        <time>2010-01-01T00:37:45Z</time>
      </trkpt>
      <trkpt lat="42.28083" lon="2.20996">
        <ele>2035</ele>
        <time>2010-01-01T00:37:46Z</time>
      </trkpt>
      <trkpt lat="42.28081" lon="2.20999">
        <ele>2035</ele>
        <time>2010-01-01T00:37:47Z</time>
      </trkpt>
      <trkpt lat="42.28079" lon="2.21002">
        <ele>2034</ele>
        <time>2010-01-01T00:37:48Z</time>
      </trkpt>
      <trkpt lat="42.28076" lon="2.21004">
        <ele>2033</ele>
        <time>2010-01-01T00:37:49Z</time>
      </trkpt>
      <trkpt lat="42.28075" lon="2.21007">
        <ele>2032</ele>
        <time>2010-01-01T00:37:50Z</time>
      </trkpt>
      <trkpt lat="42.28073" lon="2.21009">
        <ele>2032</ele>
        <time>2010-01-01T00:37:51Z</time>
      </trkpt>
      <trkpt lat="42.28071" lon="2.21011">
        <ele>2031</ele>
        <time>2010-01-01T00:37:52Z</time>
      </trkpt>
      <trkpt lat="42.28069" lon="2.21014">
        <ele>2030</ele>
        <time>2010-01-01T00:37:53Z</time>
      </trkpt>
      <trkpt lat="42.28066" lon="2.21016">
        <ele>2029</ele>
        <time>2010-01-01T00:37:55Z</time>
      </trkpt>
      <trkpt lat="42.28064" lon="2.21019">
        <ele>2028</ele>
        <time>2010-01-01T00:37:56Z</time>
      </trkpt>
      <trkpt lat="42.28062" lon="2.21021">
        <ele>2028</ele>
        <time>2010-01-01T00:37:57Z</time>
      </trkpt>
      <trkpt lat="42.28061" lon="2.21023">
        <ele>2027</ele>
        <time>2010-01-01T00:37:58Z</time>
      </trkpt>
      <trkpt lat="42.28059" lon="2.21026">
        <ele>2027</ele>
        <time>2010-01-01T00:37:59Z</time>
      </trkpt>
      <trkpt lat="42.28059" lon="2.21029">
        <ele>2026</ele>
        <time>2010-01-01T00:37:59Z</time>
      </trkpt>
      <trkpt lat="42.2806" lon="2.21031">
        <ele>2026</ele>
        <time>2010-01-01T00:38:00Z</time>
      </trkpt>
      <trkpt lat="42.28062" lon="2.21033">
        <ele>2026</ele>
        <time>2010-01-01T00:38:01Z</time>
      </trkpt>
      <trkpt lat="42.28064" lon="2.21035">
        <ele>2027</ele>
        <time>2010-01-01T00:38:02Z</time>
      </trkpt>
      <trkpt lat="42.28065" lon="2.21036">
        <ele>2027</ele>
        <time>2010-01-01T00:38:03Z</time>
      </trkpt>
      <trkpt lat="42.28067" lon="2.21037">
        <ele>2027</ele>
        <time>2010-01-01T00:38:04Z</time>
      </trkpt>
      <trkpt lat="42.28066" lon="2.21039">
        <ele>2026</ele>
        <time>2010-01-01T00:38:04Z</time>
      </trkpt>
      <trkpt lat="42.28065" lon="2.21043">
        <ele>2026</ele>
        <time>2010-01-01T00:38:05Z</time>
      </trkpt>
      <trkpt lat="42.28066" lon="2.21045">
        <ele>2026</ele>
        <time>2010-01-01T00:38:06Z</time>
      </trkpt>
      <trkpt lat="42.28064" lon="2.21043">
        <ele>2026</ele>
        <time>2010-01-01T00:38:07Z</time>
      </trkpt>
      <trkpt lat="42.28062" lon="2.21043">
        <ele>2025</ele>
        <time>2010-01-01T00:38:08Z</time>
      </trkpt>
      <trkpt lat="42.28061" lon="2.21042">
        <ele>2025</ele>
        <time>2010-01-01T00:38:08Z</time>
      </trkpt>
      <trkpt lat="42.28058" lon="2.21041">
        <ele>2025</ele>
        <time>2010-01-01T00:38:09Z</time>
      </trkpt>
      <trkpt lat="42.28056" lon="2.21039">
        <ele>2024</ele>
        <time>2010-01-01T00:38:11Z</time>
      </trkpt>
      <trkpt lat="42.28054" lon="2.21038">
        <ele>2024</ele>
        <time>2010-01-01T00:38:11Z</time>
      </trkpt>
      <trkpt lat="42.28052" lon="2.21038">
        <ele>2023</ele>
        <time>2010-01-01T00:38:12Z</time>
      </trkpt>
      <trkpt lat="42.2805" lon="2.21036">
        <ele>2023</ele>
        <time>2010-01-01T00:38:13Z</time>
      </trkpt>
      <trkpt lat="42.28052" lon="2.21036">
        <ele>2023</ele>
        <time>2010-01-01T00:38:14Z</time>
      </trkpt>
      <trkpt lat="42.28054" lon="2.21036">
        <ele>2024</ele>
        <time>2010-01-01T00:38:15Z</time>
      </trkpt>
      <trkpt lat="42.28056" lon="2.21036">
        <ele>2025</ele>
        <time>2010-01-01T00:38:16Z</time>
      </trkpt>
      <trkpt lat="42.28058" lon="2.21036">
        <ele>2025</ele>
        <time>2010-01-01T00:38:16Z</time>
      </trkpt>
      <trkpt lat="42.28058" lon="2.21039">
        <ele>2025</ele>
        <time>2010-01-01T00:38:17Z</time>
      </trkpt>
      <trkpt lat="42.28061" lon="2.2104">
        <ele>2025</ele>
        <time>2010-01-01T00:38:18Z</time>
      </trkpt>
      <trkpt lat="42.28063" lon="2.21039">
        <ele>2026</ele>
        <time>2010-01-01T00:38:19Z</time>
      </trkpt>
      <trkpt lat="42.28065" lon="2.2104">
        <ele>2026</ele>
        <time>2010-01-01T00:38:20Z</time>
      </trkpt>
      <trkpt lat="42.28066" lon="2.21036">
        <ele>2027</ele>
        <time>2010-01-01T00:38:21Z</time>
      </trkpt>
      <trkpt lat="42.28068" lon="2.21038">
        <ele>2027</ele>
        <time>2010-01-01T00:38:22Z</time>
      </trkpt>
      <trkpt lat="42.28065" lon="2.21039">
        <ele>2026</ele>
        <time>2010-01-01T00:38:23Z</time>
      </trkpt>
      <trkpt lat="42.28063" lon="2.2104">
        <ele>2026</ele>
        <time>2010-01-01T00:38:24Z</time>
      </trkpt>
      <trkpt lat="42.28065" lon="2.21036">
        <ele>2027</ele>
        <time>2010-01-01T00:38:25Z</time>
      </trkpt>
      <trkpt lat="42.28063" lon="2.21039">
        <ele>2026</ele>
        <time>2010-01-01T00:38:26Z</time>
      </trkpt>
      <trkpt lat="42.28065" lon="2.21037">
        <ele>2027</ele>
        <time>2010-01-01T00:38:27Z</time>
      </trkpt>
      <trkpt lat="42.28063" lon="2.21039">
        <ele>2026</ele>
        <time>2010-01-01T00:38:28Z</time>
      </trkpt>
      <trkpt lat="42.28061" lon="2.21041">
        <ele>2025</ele>
        <time>2010-01-01T00:38:29Z</time>
      </trkpt>
      <trkpt lat="42.28061" lon="2.21044">
        <ele>2025</ele>
        <time>2010-01-01T00:38:30Z</time>
      </trkpt>
      <trkpt lat="42.2806" lon="2.21047">
        <ele>2024</ele>
        <time>2010-01-01T00:38:31Z</time>
      </trkpt>
      <trkpt lat="42.28059" lon="2.2105">
        <ele>2024</ele>
        <time>2010-01-01T00:38:32Z</time>
      </trkpt>
      <trkpt lat="42.28058" lon="2.21053">
        <ele>2023</ele>
        <time>2010-01-01T00:38:33Z</time>
      </trkpt>
      <trkpt lat="42.28058" lon="2.21056">
        <ele>2023</ele>
        <time>2010-01-01T00:38:34Z</time>
      </trkpt>
      <trkpt lat="42.28058" lon="2.21062">
        <ele>2022</ele>
        <time>2010-01-01T00:38:35Z</time>
      </trkpt>
      <trkpt lat="42.28059" lon="2.21067">
        <ele>2021</ele>
        <time>2010-01-01T00:38:37Z</time>
      </trkpt>
      <trkpt lat="42.2806" lon="2.2107">
        <ele>2021</ele>
        <time>2010-01-01T00:38:38Z</time>
      </trkpt>
      <trkpt lat="42.2806" lon="2.21073">
        <ele>2021</ele>
        <time>2010-01-01T00:38:39Z</time>
      </trkpt>
      <trkpt lat="42.2806" lon="2.21076">
        <ele>2020</ele>
        <time>2010-01-01T00:38:40Z</time>
      </trkpt>
      <trkpt lat="42.28059" lon="2.21079">
        <ele>2020</ele>
        <time>2010-01-01T00:38:41Z</time>
      </trkpt>
      <trkpt lat="42.28059" lon="2.21083">
        <ele>2019</ele>
        <time>2010-01-01T00:38:42Z</time>
      </trkpt>
      <trkpt lat="42.28059" lon="2.21086">
        <ele>2018</ele>
        <time>2010-01-01T00:38:43Z</time>
      </trkpt>
      <trkpt lat="42.28059" lon="2.21089">
        <ele>2018</ele>
        <time>2010-01-01T00:38:44Z</time>
      </trkpt>
      <trkpt lat="42.28059" lon="2.21093">
        <ele>2017</ele>
        <time>2010-01-01T00:38:45Z</time>
      </trkpt>
      <trkpt lat="42.28059" lon="2.21096">
        <ele>2017</ele>
        <time>2010-01-01T00:38:46Z</time>
      </trkpt>
      <trkpt lat="42.2806" lon="2.211">
        <ele>2016</ele>
        <time>2010-01-01T00:38:47Z</time>
      </trkpt>
      <trkpt lat="42.28061" lon="2.21104">
        <ele>2016</ele>
        <time>2010-01-01T00:38:48Z</time>
      </trkpt>
      <trkpt lat="42.28062" lon="2.21107">
        <ele>2015</ele>
        <time>2010-01-01T00:38:49Z</time>
      </trkpt>
      <trkpt lat="42.28062" lon="2.21111">
        <ele>2015</ele>
        <time>2010-01-01T00:38:50Z</time>
      </trkpt>
      <trkpt lat="42.28063" lon="2.21114">
        <ele>2015</ele>
        <time>2010-01-01T00:38:51Z</time>
      </trkpt>
      <trkpt lat="42.28063" lon="2.21117">
        <ele>2014</ele>
        <time>2010-01-01T00:38:52Z</time>
      </trkpt>
      <trkpt lat="42.28063" lon="2.2112">
        <ele>2014</ele>
        <time>2010-01-01T00:38:53Z</time>
      </trkpt>
      <trkpt lat="42.28064" lon="2.21122">
        <ele>2014</ele>
        <time>2010-01-01T00:38:54Z</time>
      </trkpt>
      <trkpt lat="42.28066" lon="2.21124">
        <ele>2013</ele>
        <time>2010-01-01T00:38:55Z</time>
      </trkpt>
      <trkpt lat="42.28067" lon="2.21127">
        <ele>2013</ele>
        <time>2010-01-01T00:38:55Z</time>
      </trkpt>
      <trkpt lat="42.28068" lon="2.21129">
        <ele>2013</ele>
        <time>2010-01-01T00:38:56Z</time>
      </trkpt>
      <trkpt lat="42.28069" lon="2.21132">
        <ele>2012</ele>
        <time>2010-01-01T00:38:57Z</time>
      </trkpt>
      <trkpt lat="42.28071" lon="2.21134">
        <ele>2012</ele>
        <time>2010-01-01T00:38:58Z</time>
      </trkpt>
      <trkpt lat="42.28072" lon="2.21137">
        <ele>2012</ele>
        <time>2010-01-01T00:38:59Z</time>
      </trkpt>
      <trkpt lat="42.28073" lon="2.2114">
        <ele>2011</ele>
        <time>2010-01-01T00:39:00Z</time>
      </trkpt>
      <trkpt lat="42.28074" lon="2.21143">
        <ele>2011</ele>
        <time>2010-01-01T00:39:01Z</time>
      </trkpt>
      <trkpt lat="42.28074" lon="2.21146">
        <ele>2011</ele>
        <time>2010-01-01T00:39:02Z</time>
      </trkpt>
      <trkpt lat="42.28074" lon="2.21149">
        <ele>2011</ele>
        <time>2010-01-01T00:39:03Z</time>
      </trkpt>
      <trkpt lat="42.28074" lon="2.21152">
        <ele>2011</ele>
        <time>2010-01-01T00:39:04Z</time>
      </trkpt>
      <trkpt lat="42.28073" lon="2.21154">
        <ele>2010</ele>
        <time>2010-01-01T00:39:04Z</time>
      </trkpt>
      <trkpt lat="42.28073" lon="2.21158">
        <ele>2010</ele>
        <time>2010-01-01T00:39:06Z</time>
      </trkpt>
      <trkpt lat="42.28072" lon="2.21163">
        <ele>2010</ele>
        <time>2010-01-01T00:39:07Z</time>
      </trkpt>
      <trkpt lat="42.28072" lon="2.21167">
        <ele>2009</ele>
        <time>2010-01-01T00:39:08Z</time>
      </trkpt>
      <trkpt lat="42.28072" lon="2.21172">
        <ele>2009</ele>
        <time>2010-01-01T00:39:10Z</time>
      </trkpt>
      <trkpt lat="42.28071" lon="2.21176">
        <ele>2008</ele>
        <time>2010-01-01T00:39:11Z</time>
      </trkpt>
      <trkpt lat="42.2807" lon="2.2118">
        <ele>2008</ele>
        <time>2010-01-01T00:39:12Z</time>
      </trkpt>
      <trkpt lat="42.2807" lon="2.21185">
        <ele>2007</ele>
        <time>2010-01-01T00:39:14Z</time>
      </trkpt>
      <trkpt lat="42.2807" lon="2.21193">
        <ele>2006</ele>
        <time>2010-01-01T00:39:16Z</time>
      </trkpt>
      <trkpt lat="42.28069" lon="2.21198">
        <ele>2005</ele>
        <time>2010-01-01T00:39:18Z</time>
      </trkpt>
      <trkpt lat="42.28068" lon="2.21202">
        <ele>2005</ele>
        <time>2010-01-01T00:39:19Z</time>
      </trkpt>
      <trkpt lat="42.28069" lon="2.21206">
        <ele>2003</ele>
        <time>2010-01-01T00:39:20Z</time>
      </trkpt>
      <trkpt lat="42.28069" lon="2.21214">
        <ele>2001</ele>
        <time>2010-01-01T00:39:23Z</time>
      </trkpt>
      <trkpt lat="42.2807" lon="2.21217">
        <ele>2000</ele>
        <time>2010-01-01T00:39:23Z</time>
      </trkpt>
      <trkpt lat="42.28069" lon="2.21221">
        <ele>1999</ele>
        <time>2010-01-01T00:39:25Z</time>
      </trkpt>
      <trkpt lat="42.28069" lon="2.21225">
        <ele>1998</ele>
        <time>2010-01-01T00:39:26Z</time>
      </trkpt>
      <trkpt lat="42.2807" lon="2.21229">
        <ele>1997</ele>
        <time>2010-01-01T00:39:27Z</time>
      </trkpt>
      <trkpt lat="42.28069" lon="2.21234">
        <ele>1996</ele>
        <time>2010-01-01T00:39:28Z</time>
      </trkpt>
      <trkpt lat="42.28069" lon="2.21236">
        <ele>1995</ele>
        <time>2010-01-01T00:39:29Z</time>
      </trkpt>
      <trkpt lat="42.28067" lon="2.21241">
        <ele>1994</ele>
        <time>2010-01-01T00:39:31Z</time>
      </trkpt>
      <trkpt lat="42.28066" lon="2.21245">
        <ele>1993</ele>
        <time>2010-01-01T00:39:32Z</time>
      </trkpt>
      <trkpt lat="42.28065" lon="2.21249">
        <ele>1993</ele>
        <time>2010-01-01T00:39:33Z</time>
      </trkpt>
      <trkpt lat="42.28064" lon="2.21254">
        <ele>1992</ele>
        <time>2010-01-01T00:39:35Z</time>
      </trkpt>
      <trkpt lat="42.28064" lon="2.21258">
        <ele>1991</ele>
        <time>2010-01-01T00:39:36Z</time>
      </trkpt>
      <trkpt lat="42.28064" lon="2.21262">
        <ele>1990</ele>
        <time>2010-01-01T00:39:37Z</time>
      </trkpt>
      <trkpt lat="42.28064" lon="2.21266">
        <ele>1989</ele>
        <time>2010-01-01T00:39:38Z</time>
      </trkpt>
      <trkpt lat="42.28064" lon="2.2127">
        <ele>1988</ele>
        <time>2010-01-01T00:39:40Z</time>
      </trkpt>
      <trkpt lat="42.28065" lon="2.21275">
        <ele>1988</ele>
        <time>2010-01-01T00:39:41Z</time>
      </trkpt>
      <trkpt lat="42.28065" lon="2.21279">
        <ele>1987</ele>
        <time>2010-01-01T00:39:42Z</time>
      </trkpt>
      <trkpt lat="42.28064" lon="2.21283">
        <ele>1986</ele>
        <time>2010-01-01T00:39:43Z</time>
      </trkpt>
      <trkpt lat="42.28063" lon="2.21288">
        <ele>1985</ele>
        <time>2010-01-01T00:39:45Z</time>
      </trkpt>
      <trkpt lat="42.28062" lon="2.21292">
        <ele>1984</ele>
        <time>2010-01-01T00:39:46Z</time>
      </trkpt>
      <trkpt lat="42.28061" lon="2.21296">
        <ele>1984</ele>
        <time>2010-01-01T00:39:47Z</time>
      </trkpt>
      <trkpt lat="42.28061" lon="2.213">
        <ele>1983</ele>
        <time>2010-01-01T00:39:49Z</time>
      </trkpt>
      <trkpt lat="42.28061" lon="2.21304">
        <ele>1982</ele>
        <time>2010-01-01T00:39:50Z</time>
      </trkpt>
      <trkpt lat="42.28062" lon="2.21308">
        <ele>1981</ele>
        <time>2010-01-01T00:39:51Z</time>
      </trkpt>
      <trkpt lat="42.28062" lon="2.21312">
        <ele>1980</ele>
        <time>2010-01-01T00:39:52Z</time>
      </trkpt>
      <trkpt lat="42.28061" lon="2.21317">
        <ele>1979</ele>
        <time>2010-01-01T00:39:53Z</time>
      </trkpt>
      <trkpt lat="42.28062" lon="2.21325">
        <ele>1977</ele>
        <time>2010-01-01T00:39:56Z</time>
      </trkpt>
      <trkpt lat="42.28062" lon="2.21329">
        <ele>1976</ele>
        <time>2010-01-01T00:39:57Z</time>
      </trkpt>
      <trkpt lat="42.28062" lon="2.21333">
        <ele>1975</ele>
        <time>2010-01-01T00:39:58Z</time>
      </trkpt>
      <trkpt lat="42.2806" lon="2.21337">
        <ele>1975</ele>
        <time>2010-01-01T00:40:00Z</time>
      </trkpt>
      <trkpt lat="42.28059" lon="2.21341">
        <ele>1974</ele>
        <time>2010-01-01T00:40:01Z</time>
      </trkpt>
      <trkpt lat="42.28057" lon="2.21344">
        <ele>1974</ele>
        <time>2010-01-01T00:40:02Z</time>
      </trkpt>
      <trkpt lat="42.28055" lon="2.21347">
        <ele>1973</ele>
        <time>2010-01-01T00:40:03Z</time>
      </trkpt>
      <trkpt lat="42.28055" lon="2.2135">
        <ele>1973</ele>
        <time>2010-01-01T00:40:04Z</time>
      </trkpt>
      <trkpt lat="42.28056" lon="2.21353">
        <ele>1972</ele>
        <time>2010-01-01T00:40:05Z</time>
      </trkpt>
      <trkpt lat="42.28057" lon="2.21355">
        <ele>1971</ele>
        <time>2010-01-01T00:40:06Z</time>
      </trkpt>
      <trkpt lat="42.28057" lon="2.21357">
        <ele>1971</ele>
        <time>2010-01-01T00:40:07Z</time>
      </trkpt>
      <trkpt lat="42.28057" lon="2.21361">
        <ele>1970</ele>
        <time>2010-01-01T00:40:08Z</time>
      </trkpt>
      <trkpt lat="42.28057" lon="2.21364">
        <ele>1969</ele>
        <time>2010-01-01T00:40:09Z</time>
      </trkpt>
      <trkpt lat="42.28058" lon="2.21369">
        <ele>1968</ele>
        <time>2010-01-01T00:40:10Z</time>
      </trkpt>
      <trkpt lat="42.28058" lon="2.21372">
        <ele>1968</ele>
        <time>2010-01-01T00:40:11Z</time>
      </trkpt>
      <trkpt lat="42.28059" lon="2.21376">
        <ele>1967</ele>
        <time>2010-01-01T00:40:12Z</time>
      </trkpt>
      <trkpt lat="42.28059" lon="2.21379">
        <ele>1966</ele>
        <time>2010-01-01T00:40:13Z</time>
      </trkpt>
      <trkpt lat="42.2806" lon="2.21381">
        <ele>1965</ele>
        <time>2010-01-01T00:40:14Z</time>
      </trkpt>
      <trkpt lat="42.2806" lon="2.21384">
        <ele>1965</ele>
        <time>2010-01-01T00:40:15Z</time>
      </trkpt>
      <trkpt lat="42.2806" lon="2.21386">
        <ele>1964</ele>
        <time>2010-01-01T00:40:16Z</time>
      </trkpt>
      <trkpt lat="42.2806" lon="2.21392">
        <ele>1963</ele>
        <time>2010-01-01T00:40:17Z</time>
      </trkpt>
      <trkpt lat="42.28058" lon="2.21395">
        <ele>1962</ele>
        <time>2010-01-01T00:40:18Z</time>
      </trkpt>
      <trkpt lat="42.28057" lon="2.21399">
        <ele>1962</ele>
        <time>2010-01-01T00:40:19Z</time>
      </trkpt>
      <trkpt lat="42.28056" lon="2.21401">
        <ele>1962</ele>
        <time>2010-01-01T00:40:20Z</time>
      </trkpt>
      <trkpt lat="42.28055" lon="2.21404">
        <ele>1961</ele>
        <time>2010-01-01T00:40:21Z</time>
      </trkpt>
      <trkpt lat="42.28054" lon="2.21408">
        <ele>1960</ele>
        <time>2010-01-01T00:40:22Z</time>
      </trkpt>
      <trkpt lat="42.28053" lon="2.21411">
        <ele>1960</ele>
        <time>2010-01-01T00:40:23Z</time>
      </trkpt>
      <trkpt lat="42.28052" lon="2.21414">
        <ele>1959</ele>
        <time>2010-01-01T00:40:25Z</time>
      </trkpt>
      <trkpt lat="42.28051" lon="2.21418">
        <ele>1958</ele>
        <time>2010-01-01T00:40:26Z</time>
      </trkpt>
      <trkpt lat="42.28049" lon="2.21421">
        <ele>1957</ele>
        <time>2010-01-01T00:40:27Z</time>
      </trkpt>
      <trkpt lat="42.28047" lon="2.21424">
        <ele>1956</ele>
        <time>2010-01-01T00:40:28Z</time>
      </trkpt>
      <trkpt lat="42.28046" lon="2.21426">
        <ele>1956</ele>
        <time>2010-01-01T00:40:29Z</time>
      </trkpt>
      <trkpt lat="42.28046" lon="2.2143">
        <ele>1955</ele>
        <time>2010-01-01T00:40:30Z</time>
      </trkpt>
      <trkpt lat="42.28048" lon="2.21432">
        <ele>1954</ele>
        <time>2010-01-01T00:40:31Z</time>
      </trkpt>
      <trkpt lat="42.28048" lon="2.21435">
        <ele>1954</ele>
        <time>2010-01-01T00:40:32Z</time>
      </trkpt>
      <trkpt lat="42.28049" lon="2.21439">
        <ele>1953</ele>
        <time>2010-01-01T00:40:33Z</time>
      </trkpt>
      <trkpt lat="42.28051" lon="2.21442">
        <ele>1953</ele>
        <time>2010-01-01T00:40:34Z</time>
      </trkpt>
      <trkpt lat="42.28053" lon="2.21444">
        <ele>1952</ele>
        <time>2010-01-01T00:40:35Z</time>
      </trkpt>
      <trkpt lat="42.28053" lon="2.21448">
        <ele>1952</ele>
        <time>2010-01-01T00:40:36Z</time>
      </trkpt>
      <trkpt lat="42.28052" lon="2.21451">
        <ele>1951</ele>
        <time>2010-01-01T00:40:38Z</time>
      </trkpt>
      <trkpt lat="42.2805" lon="2.21454">
        <ele>1950</ele>
        <time>2010-01-01T00:40:39Z</time>
      </trkpt>
      <trkpt lat="42.28048" lon="2.21457">
        <ele>1950</ele>
        <time>2010-01-01T00:40:40Z</time>
      </trkpt>
      <trkpt lat="42.28047" lon="2.2146">
        <ele>1949</ele>
        <time>2010-01-01T00:40:41Z</time>
      </trkpt>
      <trkpt lat="42.28046" lon="2.21464">
        <ele>1948</ele>
        <time>2010-01-01T00:40:42Z</time>
      </trkpt>
      <trkpt lat="42.28045" lon="2.21466">
        <ele>1947</ele>
        <time>2010-01-01T00:40:43Z</time>
      </trkpt>
      <trkpt lat="42.28042" lon="2.21469">
        <ele>1946</ele>
        <time>2010-01-01T00:40:44Z</time>
      </trkpt>
      <trkpt lat="42.2804" lon="2.21472">
        <ele>1945</ele>
        <time>2010-01-01T00:40:45Z</time>
      </trkpt>
      <trkpt lat="42.28039" lon="2.21477">
        <ele>1943</ele>
        <time>2010-01-01T00:40:47Z</time>
      </trkpt>
      <trkpt lat="42.28039" lon="2.21481">
        <ele>1942</ele>
        <time>2010-01-01T00:40:48Z</time>
      </trkpt>
      <trkpt lat="42.28039" lon="2.21485">
        <ele>1941</ele>
        <time>2010-01-01T00:40:49Z</time>
      </trkpt>
      <trkpt lat="42.28038" lon="2.21489">
        <ele>1940</ele>
        <time>2010-01-01T00:40:51Z</time>
      </trkpt>
      <trkpt lat="42.28037" lon="2.21494">
        <ele>1939</ele>
        <time>2010-01-01T00:40:52Z</time>
      </trkpt>
      <trkpt lat="42.28037" lon="2.21496">
        <ele>1938</ele>
        <time>2010-01-01T00:40:53Z</time>
      </trkpt>
      <trkpt lat="42.28036" lon="2.21501">
        <ele>1937</ele>
        <time>2010-01-01T00:40:54Z</time>
      </trkpt>
      <trkpt lat="42.28036" lon="2.21504">
        <ele>1935</ele>
        <time>2010-01-01T00:40:55Z</time>
      </trkpt>
      <trkpt lat="42.28036" lon="2.21513">
        <ele>1932</ele>
        <time>2010-01-01T00:40:58Z</time>
      </trkpt>
      <trkpt lat="42.28035" lon="2.21517">
        <ele>1931</ele>
        <time>2010-01-01T00:40:59Z</time>
      </trkpt>
      <trkpt lat="42.28035" lon="2.21521">
        <ele>1929</ele>
        <time>2010-01-01T00:41:00Z</time>
      </trkpt>
      <trkpt lat="42.28034" lon="2.21525">
        <ele>1928</ele>
        <time>2010-01-01T00:41:01Z</time>
      </trkpt>
      <trkpt lat="42.28034" lon="2.21529">
        <ele>1927</ele>
        <time>2010-01-01T00:41:03Z</time>
      </trkpt>
      <trkpt lat="42.28033" lon="2.21537">
        <ele>1924</ele>
        <time>2010-01-01T00:41:05Z</time>
      </trkpt>
      <trkpt lat="42.28031" lon="2.21541">
        <ele>1923</ele>
        <time>2010-01-01T00:41:06Z</time>
      </trkpt>
      <trkpt lat="42.28031" lon="2.21546">
        <ele>1921</ele>
        <time>2010-01-01T00:41:08Z</time>
      </trkpt>
      <trkpt lat="42.2803" lon="2.2155">
        <ele>1920</ele>
        <time>2010-01-01T00:41:09Z</time>
      </trkpt>
      <trkpt lat="42.28031" lon="2.21554">
        <ele>1919</ele>
        <time>2010-01-01T00:41:10Z</time>
      </trkpt>
      <trkpt lat="42.28031" lon="2.21558">
        <ele>1918</ele>
        <time>2010-01-01T00:41:12Z</time>
      </trkpt>
      <trkpt lat="42.28032" lon="2.21563">
        <ele>1917</ele>
        <time>2010-01-01T00:41:13Z</time>
      </trkpt>
      <trkpt lat="42.28033" lon="2.21567">
        <ele>1917</ele>
        <time>2010-01-01T00:41:14Z</time>
      </trkpt>
      <trkpt lat="42.28032" lon="2.21572">
        <ele>1916</ele>
        <time>2010-01-01T00:41:16Z</time>
      </trkpt>
      <trkpt lat="42.28031" lon="2.21574">
        <ele>1916</ele>
        <time>2010-01-01T00:41:16Z</time>
      </trkpt>
      <trkpt lat="42.28031" lon="2.21577">
        <ele>1915</ele>
        <time>2010-01-01T00:41:17Z</time>
      </trkpt>
      <trkpt lat="42.28031" lon="2.21579">
        <ele>1915</ele>
        <time>2010-01-01T00:41:18Z</time>
      </trkpt>
      <trkpt lat="42.28031" lon="2.21583">
        <ele>1914</ele>
        <time>2010-01-01T00:41:19Z</time>
      </trkpt>
      <trkpt lat="42.28029" lon="2.21587">
        <ele>1914</ele>
        <time>2010-01-01T00:41:21Z</time>
      </trkpt>
      <trkpt lat="42.28027" lon="2.21591">
        <ele>1914</ele>
        <time>2010-01-01T00:41:22Z</time>
      </trkpt>
      <trkpt lat="42.28027" lon="2.21595">
        <ele>1913</ele>
        <time>2010-01-01T00:41:23Z</time>
      </trkpt>
      <trkpt lat="42.28027" lon="2.21599">
        <ele>1913</ele>
        <time>2010-01-01T00:41:24Z</time>
      </trkpt>
      <trkpt lat="42.28026" lon="2.21603">
        <ele>1912</ele>
        <time>2010-01-01T00:41:25Z</time>
      </trkpt>
      <trkpt lat="42.28026" lon="2.21608">
        <ele>1912</ele>
        <time>2010-01-01T00:41:27Z</time>
      </trkpt>
      <trkpt lat="42.28025" lon="2.21617">
        <ele>1910</ele>
        <time>2010-01-01T00:41:30Z</time>
      </trkpt>
      <trkpt lat="42.28025" lon="2.21622">
        <ele>1910</ele>
        <time>2010-01-01T00:41:31Z</time>
      </trkpt>
      <trkpt lat="42.28025" lon="2.21626">
        <ele>1909</ele>
        <time>2010-01-01T00:41:32Z</time>
      </trkpt>
      <trkpt lat="42.28025" lon="2.21629">
        <ele>1909</ele>
        <time>2010-01-01T00:41:33Z</time>
      </trkpt>
      <trkpt lat="42.28025" lon="2.21633">
        <ele>1908</ele>
        <time>2010-01-01T00:41:34Z</time>
      </trkpt>
      <trkpt lat="42.28026" lon="2.21638">
        <ele>1907</ele>
        <time>2010-01-01T00:41:36Z</time>
      </trkpt>
      <trkpt lat="42.28026" lon="2.21643">
        <ele>1907</ele>
        <time>2010-01-01T00:41:37Z</time>
      </trkpt>
      <trkpt lat="42.28027" lon="2.21647">
        <ele>1906</ele>
        <time>2010-01-01T00:41:39Z</time>
      </trkpt>
      <trkpt lat="42.28028" lon="2.2165">
        <ele>1905</ele>
        <time>2010-01-01T00:41:39Z</time>
      </trkpt>
      <trkpt lat="42.28028" lon="2.21652">
        <ele>1905</ele>
        <time>2010-01-01T00:41:40Z</time>
      </trkpt>
      <trkpt lat="42.28029" lon="2.21655">
        <ele>1904</ele>
        <time>2010-01-01T00:41:41Z</time>
      </trkpt>
      <trkpt lat="42.28028" lon="2.21659">
        <ele>1903</ele>
        <time>2010-01-01T00:41:42Z</time>
      </trkpt>
      <trkpt lat="42.28028" lon="2.21673">
        <ele>1900</ele>
        <time>2010-01-01T00:41:46Z</time>
      </trkpt>
      <trkpt lat="42.28029" lon="2.21677">
        <ele>1899</ele>
        <time>2010-01-01T00:41:47Z</time>
      </trkpt>
      <trkpt lat="42.2803" lon="2.2168">
        <ele>1898</ele>
        <time>2010-01-01T00:41:49Z</time>
      </trkpt>
      <trkpt lat="42.2803" lon="2.21685">
        <ele>1897</ele>
        <time>2010-01-01T00:41:50Z</time>
      </trkpt>
      <trkpt lat="42.28031" lon="2.21689">
        <ele>1896</ele>
        <time>2010-01-01T00:41:51Z</time>
      </trkpt>
      <trkpt lat="42.2803" lon="2.21694">
        <ele>1895</ele>
        <time>2010-01-01T00:41:53Z</time>
      </trkpt>
      <trkpt lat="42.2803" lon="2.21696">
        <ele>1895</ele>
        <time>2010-01-01T00:41:53Z</time>
      </trkpt>
      <trkpt lat="42.28029" lon="2.217">
        <ele>1894</ele>
        <time>2010-01-01T00:41:55Z</time>
      </trkpt>
      <trkpt lat="42.28029" lon="2.21705">
        <ele>1893</ele>
        <time>2010-01-01T00:41:56Z</time>
      </trkpt>
      <trkpt lat="42.28029" lon="2.21709">
        <ele>1892</ele>
        <time>2010-01-01T00:41:57Z</time>
      </trkpt>
      <trkpt lat="42.28029" lon="2.21714">
        <ele>1891</ele>
        <time>2010-01-01T00:41:59Z</time>
      </trkpt>
      <trkpt lat="42.2803" lon="2.21718">
        <ele>1890</ele>
        <time>2010-01-01T00:42:00Z</time>
      </trkpt>
      <trkpt lat="42.28031" lon="2.21719">
        <ele>1890</ele>
        <time>2010-01-01T00:42:01Z</time>
      </trkpt>
      <trkpt lat="42.28032" lon="2.21723">
        <ele>1889</ele>
        <time>2010-01-01T00:42:02Z</time>
      </trkpt>
      <trkpt lat="42.28033" lon="2.21727">
        <ele>1889</ele>
        <time>2010-01-01T00:42:03Z</time>
      </trkpt>
      <trkpt lat="42.28033" lon="2.21731">
        <ele>1888</ele>
        <time>2010-01-01T00:42:04Z</time>
      </trkpt>
      <trkpt lat="42.28034" lon="2.21734">
        <ele>1887</ele>
        <time>2010-01-01T00:42:05Z</time>
      </trkpt>
      <trkpt lat="42.28035" lon="2.21738">
        <ele>1887</ele>
        <time>2010-01-01T00:42:06Z</time>
      </trkpt>
      <trkpt lat="42.28036" lon="2.21742">
        <ele>1887</ele>
        <time>2010-01-01T00:42:07Z</time>
      </trkpt>
      <trkpt lat="42.28037" lon="2.21746">
        <ele>1886</ele>
        <time>2010-01-01T00:42:09Z</time>
      </trkpt>
      <trkpt lat="42.28037" lon="2.21751">
        <ele>1885</ele>
        <time>2010-01-01T00:42:10Z</time>
      </trkpt>
      <trkpt lat="42.28038" lon="2.21753">
        <ele>1885</ele>
        <time>2010-01-01T00:42:11Z</time>
      </trkpt>
      <trkpt lat="42.28039" lon="2.21758">
        <ele>1884</ele>
        <time>2010-01-01T00:42:12Z</time>
      </trkpt>
      <trkpt lat="42.2804" lon="2.21762">
        <ele>1883</ele>
        <time>2010-01-01T00:42:14Z</time>
      </trkpt>
      <trkpt lat="42.28041" lon="2.21766">
        <ele>1882</ele>
        <time>2010-01-01T00:42:15Z</time>
      </trkpt>
      <trkpt lat="42.28042" lon="2.21771">
        <ele>1881</ele>
        <time>2010-01-01T00:42:17Z</time>
      </trkpt>
      <trkpt lat="42.28043" lon="2.21773">
        <ele>1881</ele>
        <time>2010-01-01T00:42:17Z</time>
      </trkpt>
      <trkpt lat="42.28044" lon="2.21776">
        <ele>1880</ele>
        <time>2010-01-01T00:42:18Z</time>
      </trkpt>
      <trkpt lat="42.28045" lon="2.2178">
        <ele>1880</ele>
        <time>2010-01-01T00:42:19Z</time>
      </trkpt>
      <trkpt lat="42.28046" lon="2.21782">
        <ele>1879</ele>
        <time>2010-01-01T00:42:20Z</time>
      </trkpt>
      <trkpt lat="42.28048" lon="2.21785">
        <ele>1879</ele>
        <time>2010-01-01T00:42:21Z</time>
      </trkpt>
      <trkpt lat="42.2805" lon="2.21789">
        <ele>1878</ele>
        <time>2010-01-01T00:42:23Z</time>
      </trkpt>
      <trkpt lat="42.28051" lon="2.21793">
        <ele>1877</ele>
        <time>2010-01-01T00:42:24Z</time>
      </trkpt>
      <trkpt lat="42.28052" lon="2.21797">
        <ele>1877</ele>
        <time>2010-01-01T00:42:25Z</time>
      </trkpt>
      <trkpt lat="42.28054" lon="2.21801">
        <ele>1876</ele>
        <time>2010-01-01T00:42:27Z</time>
      </trkpt>
      <trkpt lat="42.28055" lon="2.21805">
        <ele>1876</ele>
        <time>2010-01-01T00:42:28Z</time>
      </trkpt>
      <trkpt lat="42.28057" lon="2.21808">
        <ele>1875</ele>
        <time>2010-01-01T00:42:29Z</time>
      </trkpt>
      <trkpt lat="42.28058" lon="2.2181">
        <ele>1875</ele>
        <time>2010-01-01T00:42:30Z</time>
      </trkpt>
      <trkpt lat="42.2806" lon="2.21815">
        <ele>1874</ele>
        <time>2010-01-01T00:42:31Z</time>
      </trkpt>
      <trkpt lat="42.28061" lon="2.21819">
        <ele>1873</ele>
        <time>2010-01-01T00:42:33Z</time>
      </trkpt>
      <trkpt lat="42.28063" lon="2.21823">
        <ele>1873</ele>
        <time>2010-01-01T00:42:34Z</time>
      </trkpt>
      <trkpt lat="42.28064" lon="2.21827">
        <ele>1872</ele>
        <time>2010-01-01T00:42:35Z</time>
      </trkpt>
      <trkpt lat="42.28066" lon="2.21832">
        <ele>1871</ele>
        <time>2010-01-01T00:42:37Z</time>
      </trkpt>
      <trkpt lat="42.28067" lon="2.21836">
        <ele>1871</ele>
        <time>2010-01-01T00:42:38Z</time>
      </trkpt>
      <trkpt lat="42.28069" lon="2.2184">
        <ele>1870</ele>
        <time>2010-01-01T00:42:40Z</time>
      </trkpt>
      <trkpt lat="42.2807" lon="2.21843">
        <ele>1870</ele>
        <time>2010-01-01T00:42:41Z</time>
      </trkpt>
      <trkpt lat="42.28071" lon="2.21847">
        <ele>1870</ele>
        <time>2010-01-01T00:42:42Z</time>
      </trkpt>
      <trkpt lat="42.28073" lon="2.21851">
        <ele>1869</ele>
        <time>2010-01-01T00:42:43Z</time>
      </trkpt>
      <trkpt lat="42.28074" lon="2.21856">
        <ele>1869</ele>
        <time>2010-01-01T00:42:45Z</time>
      </trkpt>
      <trkpt lat="42.28075" lon="2.2186">
        <ele>1869</ele>
        <time>2010-01-01T00:42:46Z</time>
      </trkpt>
      <trkpt lat="42.28077" lon="2.21865">
        <ele>1868</ele>
        <time>2010-01-01T00:42:48Z</time>
      </trkpt>
      <trkpt lat="42.28078" lon="2.21867">
        <ele>1868</ele>
        <time>2010-01-01T00:42:48Z</time>
      </trkpt>
      <trkpt lat="42.28078" lon="2.21869">
        <ele>1867</ele>
        <time>2010-01-01T00:42:49Z</time>
      </trkpt>
      <trkpt lat="42.28079" lon="2.21874">
        <ele>1867</ele>
        <time>2010-01-01T00:42:51Z</time>
      </trkpt>
      <trkpt lat="42.2808" lon="2.21879">
        <ele>1866</ele>
        <time>2010-01-01T00:42:52Z</time>
      </trkpt>
      <trkpt lat="42.28081" lon="2.21883">
        <ele>1865</ele>
        <time>2010-01-01T00:42:53Z</time>
      </trkpt>
      <trkpt lat="42.28082" lon="2.21888">
        <ele>1865</ele>
        <time>2010-01-01T00:42:55Z</time>
      </trkpt>
      <trkpt lat="42.28083" lon="2.21892">
        <ele>1864</ele>
        <time>2010-01-01T00:42:56Z</time>
      </trkpt>
      <trkpt lat="42.28084" lon="2.21897">
        <ele>1864</ele>
        <time>2010-01-01T00:42:58Z</time>
      </trkpt>
      <trkpt lat="42.28085" lon="2.21901">
        <ele>1863</ele>
        <time>2010-01-01T00:42:59Z</time>
      </trkpt>
      <trkpt lat="42.28086" lon="2.21906">
        <ele>1863</ele>
        <time>2010-01-01T00:43:00Z</time>
      </trkpt>
      <trkpt lat="42.28088" lon="2.2191">
        <ele>1862</ele>
        <time>2010-01-01T00:43:02Z</time>
      </trkpt>
      <trkpt lat="42.28088" lon="2.21912">
        <ele>1862</ele>
        <time>2010-01-01T00:43:02Z</time>
      </trkpt>
      <trkpt lat="42.28089" lon="2.21917">
        <ele>1862</ele>
        <time>2010-01-01T00:43:04Z</time>
      </trkpt>
      <trkpt lat="42.28089" lon="2.21922">
        <ele>1862</ele>
        <time>2010-01-01T00:43:05Z</time>
      </trkpt>
      <trkpt lat="42.2809" lon="2.21926">
        <ele>1861</ele>
        <time>2010-01-01T00:43:07Z</time>
      </trkpt>
      <trkpt lat="42.2809" lon="2.21929">
        <ele>1861</ele>
        <time>2010-01-01T00:43:07Z</time>
      </trkpt>
      <trkpt lat="42.28091" lon="2.21931">
        <ele>1861</ele>
        <time>2010-01-01T00:43:08Z</time>
      </trkpt>
      <trkpt lat="42.28092" lon="2.21936">
        <ele>1861</ele>
        <time>2010-01-01T00:43:10Z</time>
      </trkpt>
      <trkpt lat="42.28093" lon="2.2194">
        <ele>1861</ele>
        <time>2010-01-01T00:43:11Z</time>
      </trkpt>
      <trkpt lat="42.28094" lon="2.21944">
        <ele>1861</ele>
        <time>2010-01-01T00:43:12Z</time>
      </trkpt>
      <trkpt lat="42.28094" lon="2.21952">
        <ele>1860</ele>
        <time>2010-01-01T00:43:15Z</time>
      </trkpt>
      <trkpt lat="42.28095" lon="2.21957">
        <ele>1859</ele>
        <time>2010-01-01T00:43:16Z</time>
      </trkpt>
      <trkpt lat="42.28094" lon="2.2196">
        <ele>1859</ele>
        <time>2010-01-01T00:43:17Z</time>
      </trkpt>
      <trkpt lat="42.28095" lon="2.21962">
        <ele>1859</ele>
        <time>2010-01-01T00:43:18Z</time>
      </trkpt>
      <trkpt lat="42.28095" lon="2.21964">
        <ele>1858</ele>
        <time>2010-01-01T00:43:18Z</time>
      </trkpt>
      <trkpt lat="42.28095" lon="2.21969">
        <ele>1858</ele>
        <time>2010-01-01T00:43:20Z</time>
      </trkpt>
      <trkpt lat="42.28095" lon="2.21977">
        <ele>1857</ele>
        <time>2010-01-01T00:43:22Z</time>
      </trkpt>
      <trkpt lat="42.28095" lon="2.21982">
        <ele>1856</ele>
        <time>2010-01-01T00:43:23Z</time>
      </trkpt>
      <trkpt lat="42.28095" lon="2.21984">
        <ele>1856</ele>
        <time>2010-01-01T00:43:24Z</time>
      </trkpt>
      <trkpt lat="42.28096" lon="2.21989">
        <ele>1855</ele>
        <time>2010-01-01T00:43:26Z</time>
      </trkpt>
      <trkpt lat="42.28096" lon="2.21994">
        <ele>1854</ele>
        <time>2010-01-01T00:43:27Z</time>
      </trkpt>
      <trkpt lat="42.28097" lon="2.21996">
        <ele>1854</ele>
        <time>2010-01-01T00:43:28Z</time>
      </trkpt>
      <trkpt lat="42.28098" lon="2.22001">
        <ele>1853</ele>
        <time>2010-01-01T00:43:29Z</time>
      </trkpt>
      <trkpt lat="42.28099" lon="2.22005">
        <ele>1853</ele>
        <time>2010-01-01T00:43:30Z</time>
      </trkpt>
      <trkpt lat="42.28099" lon="2.22009">
        <ele>1853</ele>
        <time>2010-01-01T00:43:32Z</time>
      </trkpt>
      <trkpt lat="42.281" lon="2.22013">
        <ele>1852</ele>
        <time>2010-01-01T00:43:33Z</time>
      </trkpt>
      <trkpt lat="42.28101" lon="2.22018">
        <ele>1851</ele>
        <time>2010-01-01T00:43:34Z</time>
      </trkpt>
      <trkpt lat="42.28101" lon="2.22021">
        <ele>1851</ele>
        <time>2010-01-01T00:43:35Z</time>
      </trkpt>
      <trkpt lat="42.281" lon="2.22025">
        <ele>1851</ele>
        <time>2010-01-01T00:43:36Z</time>
      </trkpt>
      <trkpt lat="42.28099" lon="2.22028">
        <ele>1850</ele>
        <time>2010-01-01T00:43:37Z</time>
      </trkpt>
      <trkpt lat="42.28099" lon="2.22032">
        <ele>1849</ele>
        <time>2010-01-01T00:43:39Z</time>
      </trkpt>
      <trkpt lat="42.28099" lon="2.22036">
        <ele>1848</ele>
        <time>2010-01-01T00:43:40Z</time>
      </trkpt>
      <trkpt lat="42.28099" lon="2.2204">
        <ele>1847</ele>
        <time>2010-01-01T00:43:41Z</time>
      </trkpt>
      <trkpt lat="42.28099" lon="2.22044">
        <ele>1846</ele>
        <time>2010-01-01T00:43:42Z</time>
      </trkpt>
      <trkpt lat="42.28098" lon="2.22047">
        <ele>1845</ele>
        <time>2010-01-01T00:43:43Z</time>
      </trkpt>
      <trkpt lat="42.28098" lon="2.22052">
        <ele>1844</ele>
        <time>2010-01-01T00:43:45Z</time>
      </trkpt>
      <trkpt lat="42.28098" lon="2.22054">
        <ele>1843</ele>
        <time>2010-01-01T00:43:45Z</time>
      </trkpt>
      <trkpt lat="42.28097" lon="2.22058">
        <ele>1842</ele>
        <time>2010-01-01T00:43:47Z</time>
      </trkpt>
      <trkpt lat="42.28096" lon="2.22063">
        <ele>1841</ele>
        <time>2010-01-01T00:43:48Z</time>
      </trkpt>
      <trkpt lat="42.28095" lon="2.22065">
        <ele>1841</ele>
        <time>2010-01-01T00:43:49Z</time>
      </trkpt>
      <trkpt lat="42.28094" lon="2.22069">
        <ele>1840</ele>
        <time>2010-01-01T00:43:50Z</time>
      </trkpt>
      <trkpt lat="42.28094" lon="2.22072">
        <ele>1840</ele>
        <time>2010-01-01T00:43:51Z</time>
      </trkpt>
      <trkpt lat="42.28093" lon="2.22076">
        <ele>1839</ele>
        <time>2010-01-01T00:43:52Z</time>
      </trkpt>
      <trkpt lat="42.28093" lon="2.2208">
        <ele>1838</ele>
        <time>2010-01-01T00:43:53Z</time>
      </trkpt>
      <trkpt lat="42.28093" lon="2.22085">
        <ele>1838</ele>
        <time>2010-01-01T00:43:55Z</time>
      </trkpt>
      <trkpt lat="42.28092" lon="2.22089">
        <ele>1838</ele>
        <time>2010-01-01T00:43:56Z</time>
      </trkpt>
      <trkpt lat="42.28091" lon="2.22093">
        <ele>1838</ele>
        <time>2010-01-01T00:43:57Z</time>
      </trkpt>
      <trkpt lat="42.28089" lon="2.22097">
        <ele>1839</ele>
        <time>2010-01-01T00:43:59Z</time>
      </trkpt>
      <trkpt lat="42.28087" lon="2.22101">
        <ele>1839</ele>
        <time>2010-01-01T00:44:00Z</time>
      </trkpt>
      <trkpt lat="42.28085" lon="2.22105">
        <ele>1839</ele>
        <time>2010-01-01T00:44:01Z</time>
      </trkpt>
      <trkpt lat="42.28084" lon="2.22109">
        <ele>1839</ele>
        <time>2010-01-01T00:44:03Z</time>
      </trkpt>
      <trkpt lat="42.28084" lon="2.22113">
        <ele>1839</ele>
        <time>2010-01-01T00:44:04Z</time>
      </trkpt>
      <trkpt lat="42.28084" lon="2.22117">
        <ele>1839</ele>
        <time>2010-01-01T00:44:05Z</time>
      </trkpt>
      <trkpt lat="42.28084" lon="2.22121">
        <ele>1839</ele>
        <time>2010-01-01T00:44:06Z</time>
      </trkpt>
      <trkpt lat="42.28084" lon="2.22125">
        <ele>1838</ele>
        <time>2010-01-01T00:44:08Z</time>
      </trkpt>
      <trkpt lat="42.28083" lon="2.2213">
        <ele>1838</ele>
        <time>2010-01-01T00:44:09Z</time>
      </trkpt>
      <trkpt lat="42.28082" lon="2.22134">
        <ele>1838</ele>
        <time>2010-01-01T00:44:10Z</time>
      </trkpt>
      <trkpt lat="42.28083" lon="2.22143">
        <ele>1837</ele>
        <time>2010-01-01T00:44:13Z</time>
      </trkpt>
      <trkpt lat="42.28083" lon="2.22147">
        <ele>1837</ele>
        <time>2010-01-01T00:44:14Z</time>
      </trkpt>
      <trkpt lat="42.28084" lon="2.22152">
        <ele>1837</ele>
        <time>2010-01-01T00:44:15Z</time>
      </trkpt>
      <trkpt lat="42.28084" lon="2.22156">
        <ele>1836</ele>
        <time>2010-01-01T00:44:17Z</time>
      </trkpt>
      <trkpt lat="42.28084" lon="2.22158">
        <ele>1836</ele>
        <time>2010-01-01T00:44:17Z</time>
      </trkpt>
      <trkpt lat="42.28085" lon="2.22163">
        <ele>1835</ele>
        <time>2010-01-01T00:44:19Z</time>
      </trkpt>
      <trkpt lat="42.28085" lon="2.22166">
        <ele>1835</ele>
        <time>2010-01-01T00:44:20Z</time>
      </trkpt>
      <trkpt lat="42.28084" lon="2.22171">
        <ele>1835</ele>
        <time>2010-01-01T00:44:21Z</time>
      </trkpt>
      <trkpt lat="42.28084" lon="2.22173">
        <ele>1834</ele>
        <time>2010-01-01T00:44:22Z</time>
      </trkpt>
      <trkpt lat="42.28084" lon="2.22175">
        <ele>1834</ele>
        <time>2010-01-01T00:44:23Z</time>
      </trkpt>
      <trkpt lat="42.28084" lon="2.2218">
        <ele>1834</ele>
        <time>2010-01-01T00:44:24Z</time>
      </trkpt>
      <trkpt lat="42.28083" lon="2.22185">
        <ele>1833</ele>
        <time>2010-01-01T00:44:25Z</time>
      </trkpt>
      <trkpt lat="42.28082" lon="2.22189">
        <ele>1833</ele>
        <time>2010-01-01T00:44:27Z</time>
      </trkpt>
      <trkpt lat="42.28082" lon="2.22194">
        <ele>1832</ele>
        <time>2010-01-01T00:44:28Z</time>
      </trkpt>
      <trkpt lat="42.28082" lon="2.22199">
        <ele>1832</ele>
        <time>2010-01-01T00:44:30Z</time>
      </trkpt>
      <trkpt lat="42.28082" lon="2.22203">
        <ele>1832</ele>
        <time>2010-01-01T00:44:31Z</time>
      </trkpt>
      <trkpt lat="42.28081" lon="2.22206">
        <ele>1832</ele>
        <time>2010-01-01T00:44:32Z</time>
      </trkpt>
      <trkpt lat="42.28081" lon="2.22208">
        <ele>1832</ele>
        <time>2010-01-01T00:44:32Z</time>
      </trkpt>
      <trkpt lat="42.28081" lon="2.22213">
        <ele>1833</ele>
        <time>2010-01-01T00:44:34Z</time>
      </trkpt>
      <trkpt lat="42.28081" lon="2.22218">
        <ele>1833</ele>
        <time>2010-01-01T00:44:35Z</time>
      </trkpt>
      <trkpt lat="42.2808" lon="2.22222">
        <ele>1833</ele>
        <time>2010-01-01T00:44:37Z</time>
      </trkpt>
      <trkpt lat="42.2808" lon="2.22227">
        <ele>1832</ele>
        <time>2010-01-01T00:44:38Z</time>
      </trkpt>
      <trkpt lat="42.2808" lon="2.22239">
        <ele>1831</ele>
        <time>2010-01-01T00:44:41Z</time>
      </trkpt>
      <trkpt lat="42.28079" lon="2.22243">
        <ele>1830</ele>
        <time>2010-01-01T00:44:43Z</time>
      </trkpt>
      <trkpt lat="42.28079" lon="2.22246">
        <ele>1830</ele>
        <time>2010-01-01T00:44:43Z</time>
      </trkpt>
      <trkpt lat="42.28079" lon="2.2225">
        <ele>1829</ele>
        <time>2010-01-01T00:44:45Z</time>
      </trkpt>
      <trkpt lat="42.28079" lon="2.22253">
        <ele>1829</ele>
        <time>2010-01-01T00:44:46Z</time>
      </trkpt>
      <trkpt lat="42.2808" lon="2.22257">
        <ele>1828</ele>
        <time>2010-01-01T00:44:47Z</time>
      </trkpt>
      <trkpt lat="42.28081" lon="2.22261">
        <ele>1828</ele>
        <time>2010-01-01T00:44:48Z</time>
      </trkpt>
      <trkpt lat="42.28082" lon="2.22263">
        <ele>1827</ele>
        <time>2010-01-01T00:44:49Z</time>
      </trkpt>
      <trkpt lat="42.28082" lon="2.22268">
        <ele>1827</ele>
        <time>2010-01-01T00:44:50Z</time>
      </trkpt>
      <trkpt lat="42.28082" lon="2.22272">
        <ele>1826</ele>
        <time>2010-01-01T00:44:52Z</time>
      </trkpt>
      <trkpt lat="42.28083" lon="2.22276">
        <ele>1826</ele>
        <time>2010-01-01T00:44:53Z</time>
      </trkpt>
      <trkpt lat="42.28083" lon="2.22281">
        <ele>1825</ele>
        <time>2010-01-01T00:44:54Z</time>
      </trkpt>
      <trkpt lat="42.28084" lon="2.22286">
        <ele>1825</ele>
        <time>2010-01-01T00:44:56Z</time>
      </trkpt>
      <trkpt lat="42.28085" lon="2.2229">
        <ele>1824</ele>
        <time>2010-01-01T00:44:57Z</time>
      </trkpt>
      <trkpt lat="42.28087" lon="2.22294">
        <ele>1824</ele>
        <time>2010-01-01T00:44:58Z</time>
      </trkpt>
      <trkpt lat="42.28088" lon="2.22298">
        <ele>1823</ele>
        <time>2010-01-01T00:45:00Z</time>
      </trkpt>
      <trkpt lat="42.28088" lon="2.22301">
        <ele>1823</ele>
        <time>2010-01-01T00:45:00Z</time>
      </trkpt>
      <trkpt lat="42.28089" lon="2.22305">
        <ele>1823</ele>
        <time>2010-01-01T00:45:02Z</time>
      </trkpt>
      <trkpt lat="42.2809" lon="2.22308">
        <ele>1822</ele>
        <time>2010-01-01T00:45:03Z</time>
      </trkpt>
      <trkpt lat="42.2809" lon="2.22312">
        <ele>1822</ele>
        <time>2010-01-01T00:45:04Z</time>
      </trkpt>
      <trkpt lat="42.28091" lon="2.22317">
        <ele>1822</ele>
        <time>2010-01-01T00:45:05Z</time>
      </trkpt>
      <trkpt lat="42.28091" lon="2.22322">
        <ele>1821</ele>
        <time>2010-01-01T00:45:07Z</time>
      </trkpt>
      <trkpt lat="42.28092" lon="2.22326">
        <ele>1821</ele>
        <time>2010-01-01T00:45:08Z</time>
      </trkpt>
      <trkpt lat="42.28092" lon="2.2233">
        <ele>1821</ele>
        <time>2010-01-01T00:45:09Z</time>
      </trkpt>
      <trkpt lat="42.28093" lon="2.22334">
        <ele>1820</ele>
        <time>2010-01-01T00:45:10Z</time>
      </trkpt>
      <trkpt lat="42.28094" lon="2.22338">
        <ele>1820</ele>
        <time>2010-01-01T00:45:12Z</time>
      </trkpt>
      <trkpt lat="42.28096" lon="2.22341">
        <ele>1819</ele>
        <time>2010-01-01T00:45:13Z</time>
      </trkpt>
      <trkpt lat="42.28096" lon="2.22346">
        <ele>1819</ele>
        <time>2010-01-01T00:45:14Z</time>
      </trkpt>
      <trkpt lat="42.28096" lon="2.2235">
        <ele>1818</ele>
        <time>2010-01-01T00:45:16Z</time>
      </trkpt>
      <trkpt lat="42.28097" lon="2.22355">
        <ele>1818</ele>
        <time>2010-01-01T00:45:17Z</time>
      </trkpt>
      <trkpt lat="42.28097" lon="2.22359">
        <ele>1817</ele>
        <time>2010-01-01T00:45:18Z</time>
      </trkpt>
      <trkpt lat="42.28098" lon="2.22363">
        <ele>1816</ele>
        <time>2010-01-01T00:45:20Z</time>
      </trkpt>
      <trkpt lat="42.28099" lon="2.22367">
        <ele>1815</ele>
        <time>2010-01-01T00:45:21Z</time>
      </trkpt>
      <trkpt lat="42.281" lon="2.22372">
        <ele>1814</ele>
        <time>2010-01-01T00:45:22Z</time>
      </trkpt>
      <trkpt lat="42.28101" lon="2.22375">
        <ele>1813</ele>
        <time>2010-01-01T00:45:23Z</time>
      </trkpt>
      <trkpt lat="42.28103" lon="2.22379">
        <ele>1812</ele>
        <time>2010-01-01T00:45:25Z</time>
      </trkpt>
      <trkpt lat="42.28105" lon="2.22382">
        <ele>1810</ele>
        <time>2010-01-01T00:45:26Z</time>
      </trkpt>
      <trkpt lat="42.28106" lon="2.22386">
        <ele>1809</ele>
        <time>2010-01-01T00:45:27Z</time>
      </trkpt>
      <trkpt lat="42.28107" lon="2.22391">
        <ele>1808</ele>
        <time>2010-01-01T00:45:28Z</time>
      </trkpt>
      <trkpt lat="42.28108" lon="2.22395">
        <ele>1807</ele>
        <time>2010-01-01T00:45:30Z</time>
      </trkpt>
      <trkpt lat="42.28109" lon="2.22399">
        <ele>1806</ele>
        <time>2010-01-01T00:45:31Z</time>
      </trkpt>
      <trkpt lat="42.2811" lon="2.22403">
        <ele>1805</ele>
        <time>2010-01-01T00:45:32Z</time>
      </trkpt>
      <trkpt lat="42.2811" lon="2.22408">
        <ele>1805</ele>
        <time>2010-01-01T00:45:34Z</time>
      </trkpt>
      <trkpt lat="42.2811" lon="2.22412">
        <ele>1804</ele>
        <time>2010-01-01T00:45:35Z</time>
      </trkpt>
      <trkpt lat="42.28111" lon="2.22416">
        <ele>1804</ele>
        <time>2010-01-01T00:45:36Z</time>
      </trkpt>
      <trkpt lat="42.28112" lon="2.2242">
        <ele>1804</ele>
        <time>2010-01-01T00:45:38Z</time>
      </trkpt>
      <trkpt lat="42.28112" lon="2.22423">
        <ele>1804</ele>
        <time>2010-01-01T00:45:38Z</time>
      </trkpt>
      <trkpt lat="42.28112" lon="2.22428">
        <ele>1805</ele>
        <time>2010-01-01T00:45:40Z</time>
      </trkpt>
      <trkpt lat="42.28111" lon="2.22432">
        <ele>1806</ele>
        <time>2010-01-01T00:45:41Z</time>
      </trkpt>
      <trkpt lat="42.28112" lon="2.22436">
        <ele>1806</ele>
        <time>2010-01-01T00:45:42Z</time>
      </trkpt>
      <trkpt lat="42.28113" lon="2.2244">
        <ele>1806</ele>
        <time>2010-01-01T00:45:43Z</time>
      </trkpt>
      <trkpt lat="42.28114" lon="2.22444">
        <ele>1807</ele>
        <time>2010-01-01T00:45:45Z</time>
      </trkpt>
      <trkpt lat="42.28114" lon="2.22448">
        <ele>1807</ele>
        <time>2010-01-01T00:45:46Z</time>
      </trkpt>
      <trkpt lat="42.28115" lon="2.22453">
        <ele>1807</ele>
        <time>2010-01-01T00:45:47Z</time>
      </trkpt>
      <trkpt lat="42.28115" lon="2.22458">
        <ele>1807</ele>
        <time>2010-01-01T00:45:49Z</time>
      </trkpt>
      <trkpt lat="42.28115" lon="2.22462">
        <ele>1807</ele>
        <time>2010-01-01T00:45:50Z</time>
      </trkpt>
      <trkpt lat="42.28115" lon="2.22466">
        <ele>1807</ele>
        <time>2010-01-01T00:45:51Z</time>
      </trkpt>
      <trkpt lat="42.28115" lon="2.2247">
        <ele>1807</ele>
        <time>2010-01-01T00:45:52Z</time>
      </trkpt>
      <trkpt lat="42.28115" lon="2.22478">
        <ele>1807</ele>
        <time>2010-01-01T00:45:55Z</time>
      </trkpt>
      <trkpt lat="42.28115" lon="2.22483">
        <ele>1806</ele>
        <time>2010-01-01T00:45:56Z</time>
      </trkpt>
      <trkpt lat="42.28115" lon="2.22487">
        <ele>1805</ele>
        <time>2010-01-01T00:45:57Z</time>
      </trkpt>
      <trkpt lat="42.28115" lon="2.22491">
        <ele>1804</ele>
        <time>2010-01-01T00:45:59Z</time>
      </trkpt>
      <trkpt lat="42.28116" lon="2.22496">
        <ele>1803</ele>
        <time>2010-01-01T00:46:00Z</time>
      </trkpt>
      <trkpt lat="42.28116" lon="2.225">
        <ele>1802</ele>
        <time>2010-01-01T00:46:01Z</time>
      </trkpt>
      <trkpt lat="42.28117" lon="2.22505">
        <ele>1801</ele>
        <time>2010-01-01T00:46:03Z</time>
      </trkpt>
      <trkpt lat="42.28117" lon="2.22509">
        <ele>1800</ele>
        <time>2010-01-01T00:46:04Z</time>
      </trkpt>
      <trkpt lat="42.28117" lon="2.22514">
        <ele>1799</ele>
        <time>2010-01-01T00:46:06Z</time>
      </trkpt>
      <trkpt lat="42.28117" lon="2.22518">
        <ele>1799</ele>
        <time>2010-01-01T00:46:07Z</time>
      </trkpt>
      <trkpt lat="42.28116" lon="2.22523">
        <ele>1798</ele>
        <time>2010-01-01T00:46:08Z</time>
      </trkpt>
      <trkpt lat="42.28116" lon="2.22528">
        <ele>1797</ele>
        <time>2010-01-01T00:46:10Z</time>
      </trkpt>
      <trkpt lat="42.28116" lon="2.22532">
        <ele>1798</ele>
        <time>2010-01-01T00:46:11Z</time>
      </trkpt>
      <trkpt lat="42.28117" lon="2.22536">
        <ele>1798</ele>
        <time>2010-01-01T00:46:12Z</time>
      </trkpt>
      <trkpt lat="42.28118" lon="2.22541">
        <ele>1799</ele>
        <time>2010-01-01T00:46:13Z</time>
      </trkpt>
      <trkpt lat="42.28117" lon="2.22543">
        <ele>1799</ele>
        <time>2010-01-01T00:46:14Z</time>
      </trkpt>
      <trkpt lat="42.28116" lon="2.22545">
        <ele>1800</ele>
        <time>2010-01-01T00:46:15Z</time>
      </trkpt>
      <trkpt lat="42.28114" lon="2.22548">
        <ele>1801</ele>
        <time>2010-01-01T00:46:16Z</time>
      </trkpt>
      <trkpt lat="42.28112" lon="2.22551">
        <ele>1802</ele>
        <time>2010-01-01T00:46:17Z</time>
      </trkpt>
      <trkpt lat="42.28111" lon="2.22554">
        <ele>1802</ele>
        <time>2010-01-01T00:46:18Z</time>
      </trkpt>
      <trkpt lat="42.28109" lon="2.22556">
        <ele>1803</ele>
        <time>2010-01-01T00:46:19Z</time>
      </trkpt>
      <trkpt lat="42.28108" lon="2.2256">
        <ele>1803</ele>
        <time>2010-01-01T00:46:20Z</time>
      </trkpt>
      <trkpt lat="42.28107" lon="2.22563">
        <ele>1803</ele>
        <time>2010-01-01T00:46:22Z</time>
      </trkpt>
      <trkpt lat="42.28104" lon="2.22566">
        <ele>1803</ele>
        <time>2010-01-01T00:46:23Z</time>
      </trkpt>
      <trkpt lat="42.28103" lon="2.22569">
        <ele>1804</ele>
        <time>2010-01-01T00:46:24Z</time>
      </trkpt>
      <trkpt lat="42.28101" lon="2.22571">
        <ele>1804</ele>
        <time>2010-01-01T00:46:25Z</time>
      </trkpt>
      <trkpt lat="42.281" lon="2.22574">
        <ele>1804</ele>
        <time>2010-01-01T00:46:26Z</time>
      </trkpt>
      <trkpt lat="42.28098" lon="2.22578">
        <ele>1804</ele>
        <time>2010-01-01T00:46:27Z</time>
      </trkpt>
      <trkpt lat="42.28097" lon="2.22581">
        <ele>1804</ele>
        <time>2010-01-01T00:46:28Z</time>
      </trkpt>
      <trkpt lat="42.28096" lon="2.22585">
        <ele>1805</ele>
        <time>2010-01-01T00:46:29Z</time>
      </trkpt>
      <trkpt lat="42.28094" lon="2.22588">
        <ele>1804</ele>
        <time>2010-01-01T00:46:31Z</time>
      </trkpt>
      <trkpt lat="42.28093" lon="2.22591">
        <ele>1804</ele>
        <time>2010-01-01T00:46:32Z</time>
      </trkpt>
      <trkpt lat="42.28091" lon="2.22594">
        <ele>1804</ele>
        <time>2010-01-01T00:46:33Z</time>
      </trkpt>
      <trkpt lat="42.2809" lon="2.22597">
        <ele>1804</ele>
        <time>2010-01-01T00:46:34Z</time>
      </trkpt>
      <trkpt lat="42.28088" lon="2.22601">
        <ele>1804</ele>
        <time>2010-01-01T00:46:35Z</time>
      </trkpt>
      <trkpt lat="42.28088" lon="2.22605">
        <ele>1804</ele>
        <time>2010-01-01T00:46:36Z</time>
      </trkpt>
      <trkpt lat="42.28087" lon="2.22609">
        <ele>1804</ele>
        <time>2010-01-01T00:46:37Z</time>
      </trkpt>
      <trkpt lat="42.28087" lon="2.22612">
        <ele>1803</ele>
        <time>2010-01-01T00:46:38Z</time>
      </trkpt>
      <trkpt lat="42.28086" lon="2.22615">
        <ele>1803</ele>
        <time>2010-01-01T00:46:39Z</time>
      </trkpt>
      <trkpt lat="42.28084" lon="2.22617">
        <ele>1803</ele>
        <time>2010-01-01T00:46:40Z</time>
      </trkpt>
      <trkpt lat="42.28083" lon="2.22619">
        <ele>1803</ele>
        <time>2010-01-01T00:46:41Z</time>
      </trkpt>
      <trkpt lat="42.28082" lon="2.22622">
        <ele>1803</ele>
        <time>2010-01-01T00:46:42Z</time>
      </trkpt>
      <trkpt lat="42.28082" lon="2.22624">
        <ele>1803</ele>
        <time>2010-01-01T00:46:43Z</time>
      </trkpt>
      <trkpt lat="42.28077" lon="2.22625">
        <ele>1802</ele>
        <time>2010-01-01T00:46:44Z</time>
      </trkpt>
      <trkpt lat="42.28077" lon="2.22628">
        <ele>1801</ele>
        <time>2010-01-01T00:46:45Z</time>
      </trkpt>
      <trkpt lat="42.28075" lon="2.22631">
        <ele>1800</ele>
        <time>2010-01-01T00:46:46Z</time>
      </trkpt>
      <trkpt lat="42.28074" lon="2.22634">
        <ele>1800</ele>
        <time>2010-01-01T00:46:47Z</time>
      </trkpt>
      <trkpt lat="42.28073" lon="2.22637">
        <ele>1799</ele>
        <time>2010-01-01T00:46:48Z</time>
      </trkpt>
      <trkpt lat="42.28072" lon="2.2264">
        <ele>1798</ele>
        <time>2010-01-01T00:46:49Z</time>
      </trkpt>
      <trkpt lat="42.28071" lon="2.22643">
        <ele>1797</ele>
        <time>2010-01-01T00:46:50Z</time>
      </trkpt>
      <trkpt lat="42.28071" lon="2.22647">
        <ele>1796</ele>
        <time>2010-01-01T00:46:51Z</time>
      </trkpt>
      <trkpt lat="42.28071" lon="2.2265">
        <ele>1795</ele>
        <time>2010-01-01T00:46:52Z</time>
      </trkpt>
      <trkpt lat="42.2807" lon="2.22659">
        <ele>1793</ele>
        <time>2010-01-01T00:46:55Z</time>
      </trkpt>
      <trkpt lat="42.2807" lon="2.22663">
        <ele>1792</ele>
        <time>2010-01-01T00:46:56Z</time>
      </trkpt>
      <trkpt lat="42.2807" lon="2.22666">
        <ele>1791</ele>
        <time>2010-01-01T00:46:57Z</time>
      </trkpt>
      <trkpt lat="42.2807" lon="2.2267">
        <ele>1790</ele>
        <time>2010-01-01T00:46:58Z</time>
      </trkpt>
      <trkpt lat="42.28071" lon="2.22674">
        <ele>1790</ele>
        <time>2010-01-01T00:46:59Z</time>
      </trkpt>
      <trkpt lat="42.28071" lon="2.22678">
        <ele>1789</ele>
        <time>2010-01-01T00:47:01Z</time>
      </trkpt>
      <trkpt lat="42.28071" lon="2.22682">
        <ele>1789</ele>
        <time>2010-01-01T00:47:02Z</time>
      </trkpt>
      <trkpt lat="42.28072" lon="2.22685">
        <ele>1788</ele>
        <time>2010-01-01T00:47:03Z</time>
      </trkpt>
      <trkpt lat="42.28072" lon="2.22689">
        <ele>1788</ele>
        <time>2010-01-01T00:47:04Z</time>
      </trkpt>
      <trkpt lat="42.28073" lon="2.22693">
        <ele>1787</ele>
        <time>2010-01-01T00:47:05Z</time>
      </trkpt>
      <trkpt lat="42.28073" lon="2.22696">
        <ele>1787</ele>
        <time>2010-01-01T00:47:06Z</time>
      </trkpt>
      <trkpt lat="42.28073" lon="2.227">
        <ele>1786</ele>
        <time>2010-01-01T00:47:07Z</time>
      </trkpt>
      <trkpt lat="42.28073" lon="2.22703">
        <ele>1786</ele>
        <time>2010-01-01T00:47:08Z</time>
      </trkpt>
      <trkpt lat="42.28073" lon="2.22707">
        <ele>1785</ele>
        <time>2010-01-01T00:47:09Z</time>
      </trkpt>
      <trkpt lat="42.28072" lon="2.2271">
        <ele>1785</ele>
        <time>2010-01-01T00:47:10Z</time>
      </trkpt>
      <trkpt lat="42.28071" lon="2.22714">
        <ele>1784</ele>
        <time>2010-01-01T00:47:11Z</time>
      </trkpt>
      <trkpt lat="42.2807" lon="2.22718">
        <ele>1783</ele>
        <time>2010-01-01T00:47:13Z</time>
      </trkpt>
      <trkpt lat="42.2807" lon="2.22721">
        <ele>1782</ele>
        <time>2010-01-01T00:47:14Z</time>
      </trkpt>
      <trkpt lat="42.2807" lon="2.22725">
        <ele>1781</ele>
        <time>2010-01-01T00:47:15Z</time>
      </trkpt>
      <trkpt lat="42.2807" lon="2.2273">
        <ele>1780</ele>
        <time>2010-01-01T00:47:16Z</time>
      </trkpt>
      <trkpt lat="42.2807" lon="2.22734">
        <ele>1779</ele>
        <time>2010-01-01T00:47:17Z</time>
      </trkpt>
      <trkpt lat="42.2807" lon="2.22737">
        <ele>1778</ele>
        <time>2010-01-01T00:47:18Z</time>
      </trkpt>
      <trkpt lat="42.28069" lon="2.22739">
        <ele>1777</ele>
        <time>2010-01-01T00:47:19Z</time>
      </trkpt>
      <trkpt lat="42.28069" lon="2.22742">
        <ele>1776</ele>
        <time>2010-01-01T00:47:20Z</time>
      </trkpt>
      <trkpt lat="42.28069" lon="2.22746">
        <ele>1775</ele>
        <time>2010-01-01T00:47:21Z</time>
      </trkpt>
      <trkpt lat="42.28068" lon="2.2275">
        <ele>1774</ele>
        <time>2010-01-01T00:47:23Z</time>
      </trkpt>
      <trkpt lat="42.28068" lon="2.22754">
        <ele>1773</ele>
        <time>2010-01-01T00:47:24Z</time>
      </trkpt>
      <trkpt lat="42.28067" lon="2.22758">
        <ele>1773</ele>
        <time>2010-01-01T00:47:25Z</time>
      </trkpt>
      <trkpt lat="42.28067" lon="2.22761">
        <ele>1772</ele>
        <time>2010-01-01T00:47:26Z</time>
      </trkpt>
      <trkpt lat="42.28067" lon="2.22768">
        <ele>1771</ele>
        <time>2010-01-01T00:47:28Z</time>
      </trkpt>
      <trkpt lat="42.28066" lon="2.22773">
        <ele>1770</ele>
        <time>2010-01-01T00:47:29Z</time>
      </trkpt>
      <trkpt lat="42.28066" lon="2.22777">
        <ele>1769</ele>
        <time>2010-01-01T00:47:30Z</time>
      </trkpt>
      <trkpt lat="42.28066" lon="2.22781">
        <ele>1768</ele>
        <time>2010-01-01T00:47:32Z</time>
      </trkpt>
      <trkpt lat="42.28064" lon="2.22785">
        <ele>1767</ele>
        <time>2010-01-01T00:47:33Z</time>
      </trkpt>
      <trkpt lat="42.28064" lon="2.22788">
        <ele>1766</ele>
        <time>2010-01-01T00:47:34Z</time>
      </trkpt>
      <trkpt lat="42.28062" lon="2.22792">
        <ele>1764</ele>
        <time>2010-01-01T00:47:35Z</time>
      </trkpt>
      <trkpt lat="42.2806" lon="2.22795">
        <ele>1762</ele>
        <time>2010-01-01T00:47:36Z</time>
      </trkpt>
      <trkpt lat="42.28058" lon="2.22799">
        <ele>1761</ele>
        <time>2010-01-01T00:47:38Z</time>
      </trkpt>
      <trkpt lat="42.28058" lon="2.22803">
        <ele>1760</ele>
        <time>2010-01-01T00:47:39Z</time>
      </trkpt>
      <trkpt lat="42.28058" lon="2.22805">
        <ele>1759</ele>
        <time>2010-01-01T00:47:40Z</time>
      </trkpt>
      <trkpt lat="42.28056" lon="2.22807">
        <ele>1758</ele>
        <time>2010-01-01T00:47:41Z</time>
      </trkpt>
      <trkpt lat="42.28055" lon="2.22809">
        <ele>1756</ele>
        <time>2010-01-01T00:47:41Z</time>
      </trkpt>
      <trkpt lat="42.28053" lon="2.22812">
        <ele>1755</ele>
        <time>2010-01-01T00:47:42Z</time>
      </trkpt>
      <trkpt lat="42.28052" lon="2.22814">
        <ele>1754</ele>
        <time>2010-01-01T00:47:43Z</time>
      </trkpt>
      <trkpt lat="42.2805" lon="2.22817">
        <ele>1752</ele>
        <time>2010-01-01T00:47:44Z</time>
      </trkpt>
      <trkpt lat="42.28048" lon="2.22819">
        <ele>1751</ele>
        <time>2010-01-01T00:47:45Z</time>
      </trkpt>
      <trkpt lat="42.28048" lon="2.22822">
        <ele>1750</ele>
        <time>2010-01-01T00:47:46Z</time>
      </trkpt>
      <trkpt lat="42.28048" lon="2.22825">
        <ele>1749</ele>
        <time>2010-01-01T00:47:47Z</time>
      </trkpt>
      <trkpt lat="42.28047" lon="2.22831">
        <ele>1748</ele>
        <time>2010-01-01T00:47:49Z</time>
      </trkpt>
      <trkpt lat="42.28045" lon="2.22833">
        <ele>1747</ele>
        <time>2010-01-01T00:47:50Z</time>
      </trkpt>
      <trkpt lat="42.28043" lon="2.22836">
        <ele>1745</ele>
        <time>2010-01-01T00:47:51Z</time>
      </trkpt>
      <trkpt lat="42.28043" lon="2.22838">
        <ele>1745</ele>
        <time>2010-01-01T00:47:52Z</time>
      </trkpt>
      <trkpt lat="42.28042" lon="2.22841">
        <ele>1745</ele>
        <time>2010-01-01T00:47:53Z</time>
      </trkpt>
      <trkpt lat="42.28042" lon="2.22845">
        <ele>1744</ele>
        <time>2010-01-01T00:47:54Z</time>
      </trkpt>
      <trkpt lat="42.28041" lon="2.22848">
        <ele>1744</ele>
        <time>2010-01-01T00:47:55Z</time>
      </trkpt>
      <trkpt lat="42.28039" lon="2.22851">
        <ele>1743</ele>
        <time>2010-01-01T00:47:56Z</time>
      </trkpt>
      <trkpt lat="42.28038" lon="2.22854">
        <ele>1742</ele>
        <time>2010-01-01T00:47:57Z</time>
      </trkpt>
      <trkpt lat="42.28037" lon="2.22858">
        <ele>1741</ele>
        <time>2010-01-01T00:47:58Z</time>
      </trkpt>
      <trkpt lat="42.28036" lon="2.22861">
        <ele>1741</ele>
        <time>2010-01-01T00:47:59Z</time>
      </trkpt>
      <trkpt lat="42.28035" lon="2.22865">
        <ele>1740</ele>
        <time>2010-01-01T00:48:00Z</time>
      </trkpt>
      <trkpt lat="42.28034" lon="2.22868">
        <ele>1740</ele>
        <time>2010-01-01T00:48:01Z</time>
      </trkpt>
      <trkpt lat="42.28034" lon="2.22872">
        <ele>1740</ele>
        <time>2010-01-01T00:48:03Z</time>
      </trkpt>
      <trkpt lat="42.28033" lon="2.22875">
        <ele>1739</ele>
        <time>2010-01-01T00:48:04Z</time>
      </trkpt>
      <trkpt lat="42.28031" lon="2.22878">
        <ele>1738</ele>
        <time>2010-01-01T00:48:05Z</time>
      </trkpt>
      <trkpt lat="42.2803" lon="2.22881">
        <ele>1737</ele>
        <time>2010-01-01T00:48:06Z</time>
      </trkpt>
      <trkpt lat="42.28029" lon="2.22884">
        <ele>1736</ele>
        <time>2010-01-01T00:48:07Z</time>
      </trkpt>
      <trkpt lat="42.28027" lon="2.22887">
        <ele>1735</ele>
        <time>2010-01-01T00:48:08Z</time>
      </trkpt>
      <trkpt lat="42.28025" lon="2.2289">
        <ele>1733</ele>
        <time>2010-01-01T00:48:09Z</time>
      </trkpt>
      <trkpt lat="42.28024" lon="2.22893">
        <ele>1732</ele>
        <time>2010-01-01T00:48:10Z</time>
      </trkpt>
      <trkpt lat="42.28022" lon="2.22896">
        <ele>1731</ele>
        <time>2010-01-01T00:48:11Z</time>
      </trkpt>
      <trkpt lat="42.28021" lon="2.22898">
        <ele>1730</ele>
        <time>2010-01-01T00:48:12Z</time>
      </trkpt>
      <trkpt lat="42.28019" lon="2.22901">
        <ele>1728</ele>
        <time>2010-01-01T00:48:13Z</time>
      </trkpt>
      <trkpt lat="42.28017" lon="2.22903">
        <ele>1726</ele>
        <time>2010-01-01T00:48:14Z</time>
      </trkpt>
      <trkpt lat="42.28014" lon="2.22904">
        <ele>1724</ele>
        <time>2010-01-01T00:48:15Z</time>
      </trkpt>
      <trkpt lat="42.28013" lon="2.22907">
        <ele>1723</ele>
        <time>2010-01-01T00:48:16Z</time>
      </trkpt>
      <trkpt lat="42.28012" lon="2.22909">
        <ele>1723</ele>
        <time>2010-01-01T00:48:17Z</time>
      </trkpt>
      <trkpt lat="42.28011" lon="2.22913">
        <ele>1722</ele>
        <time>2010-01-01T00:48:18Z</time>
      </trkpt>
      <trkpt lat="42.28009" lon="2.22917">
        <ele>1720</ele>
        <time>2010-01-01T00:48:20Z</time>
      </trkpt>
      <trkpt lat="42.28008" lon="2.22921">
        <ele>1719</ele>
        <time>2010-01-01T00:48:21Z</time>
      </trkpt>
      <trkpt lat="42.28006" lon="2.22924">
        <ele>1718</ele>
        <time>2010-01-01T00:48:22Z</time>
      </trkpt>
      <trkpt lat="42.28004" lon="2.22927">
        <ele>1716</ele>
        <time>2010-01-01T00:48:23Z</time>
      </trkpt>
      <trkpt lat="42.28002" lon="2.2293">
        <ele>1714</ele>
        <time>2010-01-01T00:48:24Z</time>
      </trkpt>
      <trkpt lat="42.28001" lon="2.22934">
        <ele>1714</ele>
        <time>2010-01-01T00:48:26Z</time>
      </trkpt>
      <trkpt lat="42.28" lon="2.22939">
        <ele>1713</ele>
        <time>2010-01-01T00:48:27Z</time>
      </trkpt>
      <trkpt lat="42.27999" lon="2.22943">
        <ele>1712</ele>
        <time>2010-01-01T00:48:28Z</time>
      </trkpt>
      <trkpt lat="42.27998" lon="2.22945">
        <ele>1712</ele>
        <time>2010-01-01T00:48:29Z</time>
      </trkpt>
      <trkpt lat="42.27997" lon="2.2295">
        <ele>1711</ele>
        <time>2010-01-01T00:48:30Z</time>
      </trkpt>
      <trkpt lat="42.27995" lon="2.22954">
        <ele>1710</ele>
        <time>2010-01-01T00:48:32Z</time>
      </trkpt>
      <trkpt lat="42.27993" lon="2.22958">
        <ele>1709</ele>
        <time>2010-01-01T00:48:33Z</time>
      </trkpt>
      <trkpt lat="42.27992" lon="2.2296">
        <ele>1708</ele>
        <time>2010-01-01T00:48:34Z</time>
      </trkpt>
      <trkpt lat="42.27991" lon="2.22964">
        <ele>1708</ele>
        <time>2010-01-01T00:48:35Z</time>
      </trkpt>
      <trkpt lat="42.27989" lon="2.22967">
        <ele>1706</ele>
        <time>2010-01-01T00:48:37Z</time>
      </trkpt>
      <trkpt lat="42.27986" lon="2.2297">
        <ele>1704</ele>
        <time>2010-01-01T00:48:38Z</time>
      </trkpt>
      <trkpt lat="42.27981" lon="2.2298">
        <ele>1701</ele>
        <time>2010-01-01T00:48:42Z</time>
      </trkpt>
      <trkpt lat="42.2798" lon="2.22982">
        <ele>1701</ele>
        <time>2010-01-01T00:48:42Z</time>
      </trkpt>
      <trkpt lat="42.27979" lon="2.22985">
        <ele>1701</ele>
        <time>2010-01-01T00:48:43Z</time>
      </trkpt>
      <trkpt lat="42.27978" lon="2.22989">
        <ele>1700</ele>
        <time>2010-01-01T00:48:44Z</time>
      </trkpt>
      <trkpt lat="42.27976" lon="2.22992">
        <ele>1699</ele>
        <time>2010-01-01T00:48:46Z</time>
      </trkpt>
      <trkpt lat="42.27974" lon="2.22996">
        <ele>1698</ele>
        <time>2010-01-01T00:48:47Z</time>
      </trkpt>
      <trkpt lat="42.27974" lon="2.22999">
        <ele>1697</ele>
        <time>2010-01-01T00:48:48Z</time>
      </trkpt>
      <trkpt lat="42.27972" lon="2.23002">
        <ele>1696</ele>
        <time>2010-01-01T00:48:49Z</time>
      </trkpt>
      <trkpt lat="42.2797" lon="2.23005">
        <ele>1695</ele>
        <time>2010-01-01T00:48:50Z</time>
      </trkpt>
      <trkpt lat="42.27969" lon="2.23009">
        <ele>1695</ele>
        <time>2010-01-01T00:48:51Z</time>
      </trkpt>
      <trkpt lat="42.27968" lon="2.23011">
        <ele>1694</ele>
        <time>2010-01-01T00:48:52Z</time>
      </trkpt>
      <trkpt lat="42.27966" lon="2.23011">
        <ele>1692</ele>
        <time>2010-01-01T00:48:53Z</time>
      </trkpt>
      <trkpt lat="42.27964" lon="2.23009">
        <ele>1691</ele>
        <time>2010-01-01T00:48:54Z</time>
      </trkpt>
      <trkpt lat="42.27962" lon="2.23008">
        <ele>1689</ele>
        <time>2010-01-01T00:48:55Z</time>
      </trkpt>
      <trkpt lat="42.27961" lon="2.23005">
        <ele>1688</ele>
        <time>2010-01-01T00:48:56Z</time>
      </trkpt>
      <trkpt lat="42.2796" lon="2.23002">
        <ele>1687</ele>
        <time>2010-01-01T00:48:57Z</time>
      </trkpt>
      <trkpt lat="42.2796" lon="2.22999">
        <ele>1687</ele>
        <time>2010-01-01T00:48:58Z</time>
      </trkpt>
      <trkpt lat="42.2796" lon="2.22994">
        <ele>1686</ele>
        <time>2010-01-01T00:48:59Z</time>
      </trkpt>
      <trkpt lat="42.2796" lon="2.2299">
        <ele>1686</ele>
        <time>2010-01-01T00:49:00Z</time>
      </trkpt>
      <trkpt lat="42.2796" lon="2.22986">
        <ele>1687</ele>
        <time>2010-01-01T00:49:02Z</time>
      </trkpt>
      <trkpt lat="42.27961" lon="2.22978">
        <ele>1686</ele>
        <time>2010-01-01T00:49:04Z</time>
      </trkpt>
      <trkpt lat="42.27961" lon="2.22973">
        <ele>1686</ele>
        <time>2010-01-01T00:49:05Z</time>
      </trkpt>
      <trkpt lat="42.27961" lon="2.22968">
        <ele>1686</ele>
        <time>2010-01-01T00:49:07Z</time>
      </trkpt>
      <trkpt lat="42.27961" lon="2.22964">
        <ele>1686</ele>
        <time>2010-01-01T00:49:08Z</time>
      </trkpt>
      <trkpt lat="42.2796" lon="2.2296">
        <ele>1685</ele>
        <time>2010-01-01T00:49:09Z</time>
      </trkpt>
      <trkpt lat="42.2796" lon="2.22957">
        <ele>1685</ele>
        <time>2010-01-01T00:49:10Z</time>
      </trkpt>
      <trkpt lat="42.2796" lon="2.22955">
        <ele>1685</ele>
        <time>2010-01-01T00:49:11Z</time>
      </trkpt>
      <trkpt lat="42.2796" lon="2.22949">
        <ele>1685</ele>
        <time>2010-01-01T00:49:12Z</time>
      </trkpt>
      <trkpt lat="42.2796" lon="2.22947">
        <ele>1685</ele>
        <time>2010-01-01T00:49:13Z</time>
      </trkpt>
      <trkpt lat="42.2796" lon="2.22942">
        <ele>1684</ele>
        <time>2010-01-01T00:49:15Z</time>
      </trkpt>
      <trkpt lat="42.27959" lon="2.22937">
        <ele>1684</ele>
        <time>2010-01-01T00:49:16Z</time>
      </trkpt>
      <trkpt lat="42.27959" lon="2.22932">
        <ele>1683</ele>
        <time>2010-01-01T00:49:18Z</time>
      </trkpt>
      <trkpt lat="42.27959" lon="2.22928">
        <ele>1683</ele>
        <time>2010-01-01T00:49:19Z</time>
      </trkpt>
      <trkpt lat="42.27959" lon="2.22923">
        <ele>1683</ele>
        <time>2010-01-01T00:49:20Z</time>
      </trkpt>
      <trkpt lat="42.27959" lon="2.22912">
        <ele>1682</ele>
        <time>2010-01-01T00:49:23Z</time>
      </trkpt>
      <trkpt lat="42.27959" lon="2.22907">
        <ele>1683</ele>
        <time>2010-01-01T00:49:25Z</time>
      </trkpt>
      <trkpt lat="42.27959" lon="2.22904">
        <ele>1682</ele>
        <time>2010-01-01T00:49:26Z</time>
      </trkpt>
      <trkpt lat="42.27957" lon="2.229">
        <ele>1682</ele>
        <time>2010-01-01T00:49:27Z</time>
      </trkpt>
      <trkpt lat="42.27956" lon="2.22898">
        <ele>1681</ele>
        <time>2010-01-01T00:49:28Z</time>
      </trkpt>
      <trkpt lat="42.27955" lon="2.22896">
        <ele>1681</ele>
        <time>2010-01-01T00:49:29Z</time>
      </trkpt>
      <trkpt lat="42.27954" lon="2.22894">
        <ele>1680</ele>
        <time>2010-01-01T00:49:30Z</time>
      </trkpt>
      <trkpt lat="42.27951" lon="2.22891">
        <ele>1680</ele>
        <time>2010-01-01T00:49:31Z</time>
      </trkpt>
      <trkpt lat="42.27949" lon="2.22888">
        <ele>1679</ele>
        <time>2010-01-01T00:49:32Z</time>
      </trkpt>
      <trkpt lat="42.27946" lon="2.22884">
        <ele>1680</ele>
        <time>2010-01-01T00:49:34Z</time>
      </trkpt>
      <trkpt lat="42.27944" lon="2.2288">
        <ele>1680</ele>
        <time>2010-01-01T00:49:35Z</time>
      </trkpt>
      <trkpt lat="42.27943" lon="2.22877">
        <ele>1681</ele>
        <time>2010-01-01T00:49:36Z</time>
      </trkpt>
      <trkpt lat="42.27941" lon="2.22877">
        <ele>1680</ele>
        <time>2010-01-01T00:49:37Z</time>
      </trkpt>
      <trkpt lat="42.2794" lon="2.22881">
        <ele>1679</ele>
        <time>2010-01-01T00:49:38Z</time>
      </trkpt>
      <trkpt lat="42.2794" lon="2.22884">
        <ele>1678</ele>
        <time>2010-01-01T00:49:39Z</time>
      </trkpt>
      <trkpt lat="42.2794" lon="2.22888">
        <ele>1676</ele>
        <time>2010-01-01T00:49:40Z</time>
      </trkpt>
      <trkpt lat="42.2794" lon="2.22893">
        <ele>1676</ele>
        <time>2010-01-01T00:49:42Z</time>
      </trkpt>
      <trkpt lat="42.2794" lon="2.22896">
        <ele>1675</ele>
        <time>2010-01-01T00:49:43Z</time>
      </trkpt>
      <trkpt lat="42.2794" lon="2.22898">
        <ele>1675</ele>
        <time>2010-01-01T00:49:43Z</time>
      </trkpt>
      <trkpt lat="42.27941" lon="2.22901">
        <ele>1675</ele>
        <time>2010-01-01T00:49:44Z</time>
      </trkpt>
      <trkpt lat="42.27941" lon="2.22903">
        <ele>1674</ele>
        <time>2010-01-01T00:49:45Z</time>
      </trkpt>
      <trkpt lat="42.2794" lon="2.22907">
        <ele>1674</ele>
        <time>2010-01-01T00:49:46Z</time>
      </trkpt>
      <trkpt lat="42.27938" lon="2.22905">
        <ele>1673</ele>
        <time>2010-01-01T00:49:47Z</time>
      </trkpt>
      <trkpt lat="42.27936" lon="2.22902">
        <ele>1673</ele>
        <time>2010-01-01T00:49:49Z</time>
      </trkpt>
      <trkpt lat="42.27934" lon="2.22899">
        <ele>1673</ele>
        <time>2010-01-01T00:49:50Z</time>
      </trkpt>
      <trkpt lat="42.27932" lon="2.22898">
        <ele>1673</ele>
        <time>2010-01-01T00:49:50Z</time>
      </trkpt>
      <trkpt lat="42.27931" lon="2.22902">
        <ele>1671</ele>
        <time>2010-01-01T00:49:52Z</time>
      </trkpt>
      <trkpt lat="42.27931" lon="2.22907">
        <ele>1671</ele>
        <time>2010-01-01T00:49:53Z</time>
      </trkpt>
      <trkpt lat="42.27929" lon="2.22913">
        <ele>1669</ele>
        <time>2010-01-01T00:49:55Z</time>
      </trkpt>
      <trkpt lat="42.27927" lon="2.22916">
        <ele>1667</ele>
        <time>2010-01-01T00:49:56Z</time>
      </trkpt>
      <trkpt lat="42.27925" lon="2.22918">
        <ele>1666</ele>
        <time>2010-01-01T00:49:57Z</time>
      </trkpt>
      <trkpt lat="42.27923" lon="2.22921">
        <ele>1665</ele>
        <time>2010-01-01T00:49:59Z</time>
      </trkpt>
      <trkpt lat="42.27922" lon="2.22923">
        <ele>1664</ele>
        <time>2010-01-01T00:49:59Z</time>
      </trkpt>
      <trkpt lat="42.2792" lon="2.22925">
        <ele>1663</ele>
        <time>2010-01-01T00:50:00Z</time>
      </trkpt>
      <trkpt lat="42.27919" lon="2.22927">
        <ele>1661</ele>
        <time>2010-01-01T00:50:01Z</time>
      </trkpt>
      <trkpt lat="42.27917" lon="2.2293">
        <ele>1660</ele>
        <time>2010-01-01T00:50:02Z</time>
      </trkpt>
      <trkpt lat="42.27915" lon="2.22933">
        <ele>1658</ele>
        <time>2010-01-01T00:50:03Z</time>
      </trkpt>
      <trkpt lat="42.27913" lon="2.22936">
        <ele>1656</ele>
        <time>2010-01-01T00:50:05Z</time>
      </trkpt>
      <trkpt lat="42.27911" lon="2.2294">
        <ele>1654</ele>
        <time>2010-01-01T00:50:06Z</time>
      </trkpt>
      <trkpt lat="42.2791" lon="2.22943">
        <ele>1653</ele>
        <time>2010-01-01T00:50:07Z</time>
      </trkpt>
      <trkpt lat="42.27908" lon="2.22947">
        <ele>1652</ele>
        <time>2010-01-01T00:50:08Z</time>
      </trkpt>
      <trkpt lat="42.27906" lon="2.2295">
        <ele>1650</ele>
        <time>2010-01-01T00:50:10Z</time>
      </trkpt>
      <trkpt lat="42.27905" lon="2.22953">
        <ele>1650</ele>
        <time>2010-01-01T00:50:11Z</time>
      </trkpt>
      <trkpt lat="42.27904" lon="2.22956">
        <ele>1649</ele>
        <time>2010-01-01T00:50:12Z</time>
      </trkpt>
      <trkpt lat="42.27903" lon="2.22959">
        <ele>1648</ele>
        <time>2010-01-01T00:50:13Z</time>
      </trkpt>
      <trkpt lat="42.27902" lon="2.22963">
        <ele>1647</ele>
        <time>2010-01-01T00:50:14Z</time>
      </trkpt>
      <trkpt lat="42.279" lon="2.22966">
        <ele>1646</ele>
        <time>2010-01-01T00:50:15Z</time>
      </trkpt>
      <trkpt lat="42.27898" lon="2.22969">
        <ele>1645</ele>
        <time>2010-01-01T00:50:16Z</time>
      </trkpt>
      <trkpt lat="42.27897" lon="2.22971">
        <ele>1644</ele>
        <time>2010-01-01T00:50:17Z</time>
      </trkpt>
      <trkpt lat="42.27895" lon="2.22972">
        <ele>1643</ele>
        <time>2010-01-01T00:50:18Z</time>
      </trkpt>
      <trkpt lat="42.27894" lon="2.22969">
        <ele>1642</ele>
        <time>2010-01-01T00:50:19Z</time>
      </trkpt>
      <trkpt lat="42.27892" lon="2.22965">
        <ele>1642</ele>
        <time>2010-01-01T00:50:20Z</time>
      </trkpt>
      <trkpt lat="42.27891" lon="2.22961">
        <ele>1642</ele>
        <time>2010-01-01T00:50:22Z</time>
      </trkpt>
      <trkpt lat="42.27891" lon="2.22958">
        <ele>1642</ele>
        <time>2010-01-01T00:50:22Z</time>
      </trkpt>
      <trkpt lat="42.2789" lon="2.22956">
        <ele>1642</ele>
        <time>2010-01-01T00:50:23Z</time>
      </trkpt>
      <trkpt lat="42.27889" lon="2.22951">
        <ele>1642</ele>
        <time>2010-01-01T00:50:25Z</time>
      </trkpt>
      <trkpt lat="42.27888" lon="2.22948">
        <ele>1642</ele>
        <time>2010-01-01T00:50:26Z</time>
      </trkpt>
      <trkpt lat="42.27887" lon="2.22944">
        <ele>1642</ele>
        <time>2010-01-01T00:50:27Z</time>
      </trkpt>
      <trkpt lat="42.27886" lon="2.22941">
        <ele>1642</ele>
        <time>2010-01-01T00:50:28Z</time>
      </trkpt>
      <trkpt lat="42.27885" lon="2.22939">
        <ele>1642</ele>
        <time>2010-01-01T00:50:29Z</time>
      </trkpt>
      <trkpt lat="42.27884" lon="2.22942">
        <ele>1641</ele>
        <time>2010-01-01T00:50:30Z</time>
      </trkpt>
      <trkpt lat="42.27882" lon="2.22945">
        <ele>1639</ele>
        <time>2010-01-01T00:50:31Z</time>
      </trkpt>
      <trkpt lat="42.27881" lon="2.22948">
        <ele>1638</ele>
        <time>2010-01-01T00:50:32Z</time>
      </trkpt>
      <trkpt lat="42.2788" lon="2.22951">
        <ele>1637</ele>
        <time>2010-01-01T00:50:33Z</time>
      </trkpt>
      <trkpt lat="42.27878" lon="2.22954">
        <ele>1636</ele>
        <time>2010-01-01T00:50:34Z</time>
      </trkpt>
      <trkpt lat="42.27877" lon="2.22957">
        <ele>1634</ele>
        <time>2010-01-01T00:50:35Z</time>
      </trkpt>
      <trkpt lat="42.27875" lon="2.22961">
        <ele>1633</ele>
        <time>2010-01-01T00:50:36Z</time>
      </trkpt>
      <trkpt lat="42.27873" lon="2.22964">
        <ele>1631</ele>
        <time>2010-01-01T00:50:38Z</time>
      </trkpt>
      <trkpt lat="42.27872" lon="2.22968">
        <ele>1630</ele>
        <time>2010-01-01T00:50:39Z</time>
      </trkpt>
      <trkpt lat="42.27872" lon="2.22972">
        <ele>1629</ele>
        <time>2010-01-01T00:50:40Z</time>
      </trkpt>
      <trkpt lat="42.2787" lon="2.22976">
        <ele>1628</ele>
        <time>2010-01-01T00:50:41Z</time>
      </trkpt>
      <trkpt lat="42.27867" lon="2.2298">
        <ele>1626</ele>
        <time>2010-01-01T00:50:43Z</time>
      </trkpt>
      <trkpt lat="42.27865" lon="2.22982">
        <ele>1624</ele>
        <time>2010-01-01T00:50:44Z</time>
      </trkpt>
      <trkpt lat="42.27863" lon="2.22983">
        <ele>1623</ele>
        <time>2010-01-01T00:50:45Z</time>
      </trkpt>
      <trkpt lat="42.27861" lon="2.2298">
        <ele>1622</ele>
        <time>2010-01-01T00:50:46Z</time>
      </trkpt>
      <trkpt lat="42.27861" lon="2.22975">
        <ele>1622</ele>
        <time>2010-01-01T00:50:47Z</time>
      </trkpt>
      <trkpt lat="42.2786" lon="2.22972">
        <ele>1622</ele>
        <time>2010-01-01T00:50:49Z</time>
      </trkpt>
      <trkpt lat="42.27859" lon="2.22968">
        <ele>1622</ele>
        <time>2010-01-01T00:50:50Z</time>
      </trkpt>
      <trkpt lat="42.27858" lon="2.22964">
        <ele>1623</ele>
        <time>2010-01-01T00:50:51Z</time>
      </trkpt>
      <trkpt lat="42.27857" lon="2.2296">
        <ele>1623</ele>
        <time>2010-01-01T00:50:52Z</time>
      </trkpt>
      <trkpt lat="42.27855" lon="2.22959">
        <ele>1622</ele>
        <time>2010-01-01T00:50:54Z</time>
      </trkpt>
      <trkpt lat="42.27853" lon="2.22963">
        <ele>1620</ele>
        <time>2010-01-01T00:50:56Z</time>
      </trkpt>
      <trkpt lat="42.27849" lon="2.22968">
        <ele>1617</ele>
        <time>2010-01-01T00:50:58Z</time>
      </trkpt>
      <trkpt lat="42.27847" lon="2.22971">
        <ele>1615</ele>
        <time>2010-01-01T00:50:59Z</time>
      </trkpt>
      <trkpt lat="42.27845" lon="2.22975">
        <ele>1614</ele>
        <time>2010-01-01T00:51:01Z</time>
      </trkpt>
      <trkpt lat="42.27844" lon="2.22977">
        <ele>1613</ele>
        <time>2010-01-01T00:51:01Z</time>
      </trkpt>
      <trkpt lat="42.27842" lon="2.22979">
        <ele>1611</ele>
        <time>2010-01-01T00:51:02Z</time>
      </trkpt>
      <trkpt lat="42.27841" lon="2.22983">
        <ele>1610</ele>
        <time>2010-01-01T00:51:04Z</time>
      </trkpt>
      <trkpt lat="42.2784" lon="2.22986">
        <ele>1610</ele>
        <time>2010-01-01T00:51:05Z</time>
      </trkpt>
      <trkpt lat="42.2784" lon="2.22989">
        <ele>1609</ele>
        <time>2010-01-01T00:51:05Z</time>
      </trkpt>
      <trkpt lat="42.27837" lon="2.22988">
        <ele>1608</ele>
        <time>2010-01-01T00:51:07Z</time>
      </trkpt>
      <trkpt lat="42.27835" lon="2.22987">
        <ele>1607</ele>
        <time>2010-01-01T00:51:07Z</time>
      </trkpt>
      <trkpt lat="42.27832" lon="2.22983">
        <ele>1605</ele>
        <time>2010-01-01T00:51:09Z</time>
      </trkpt>
      <trkpt lat="42.27831" lon="2.22986">
        <ele>1605</ele>
        <time>2010-01-01T00:51:10Z</time>
      </trkpt>
      <trkpt lat="42.2783" lon="2.22989">
        <ele>1604</ele>
        <time>2010-01-01T00:51:11Z</time>
      </trkpt>
      <trkpt lat="42.27829" lon="2.22992">
        <ele>1603</ele>
        <time>2010-01-01T00:51:12Z</time>
      </trkpt>
      <trkpt lat="42.27828" lon="2.22994">
        <ele>1602</ele>
        <time>2010-01-01T00:51:13Z</time>
      </trkpt>
      <trkpt lat="42.27828" lon="2.22997">
        <ele>1602</ele>
        <time>2010-01-01T00:51:13Z</time>
      </trkpt>
      <trkpt lat="42.27823" lon="2.22998">
        <ele>1599</ele>
        <time>2010-01-01T00:51:15Z</time>
      </trkpt>
      <trkpt lat="42.27819" lon="2.22986">
        <ele>1599</ele>
        <time>2010-01-01T00:51:19Z</time>
      </trkpt>
      <trkpt lat="42.27819" lon="2.22983">
        <ele>1599</ele>
        <time>2010-01-01T00:51:20Z</time>
      </trkpt>
      <trkpt lat="42.27819" lon="2.2298">
        <ele>1599</ele>
        <time>2010-01-01T00:51:21Z</time>
      </trkpt>
      <trkpt lat="42.27817" lon="2.22983">
        <ele>1598</ele>
        <time>2010-01-01T00:51:22Z</time>
      </trkpt>
      <trkpt lat="42.27809" lon="2.2299">
        <ele>1593</ele>
        <time>2010-01-01T00:51:26Z</time>
      </trkpt>
      <trkpt lat="42.27802" lon="2.23">
        <ele>1588</ele>
        <time>2010-01-01T00:51:30Z</time>
      </trkpt>
      <trkpt lat="42.27797" lon="2.23011">
        <ele>1584</ele>
        <time>2010-01-01T00:51:34Z</time>
      </trkpt>
      <trkpt lat="42.27796" lon="2.23021">
        <ele>1582</ele>
        <time>2010-01-01T00:51:37Z</time>
      </trkpt>
      <trkpt lat="42.27795" lon="2.23025">
        <ele>1581</ele>
        <time>2010-01-01T00:51:38Z</time>
      </trkpt>
      <trkpt lat="42.27794" lon="2.23029">
        <ele>1580</ele>
        <time>2010-01-01T00:51:39Z</time>
      </trkpt>
      <trkpt lat="42.27794" lon="2.23032">
        <ele>1580</ele>
        <time>2010-01-01T00:51:40Z</time>
      </trkpt>
      <trkpt lat="42.27793" lon="2.23035">
        <ele>1579</ele>
        <time>2010-01-01T00:51:41Z</time>
      </trkpt>
      <trkpt lat="42.27792" lon="2.23038">
        <ele>1579</ele>
        <time>2010-01-01T00:51:42Z</time>
      </trkpt>
      <trkpt lat="42.27791" lon="2.23042">
        <ele>1578</ele>
        <time>2010-01-01T00:51:43Z</time>
      </trkpt>
      <trkpt lat="42.2779" lon="2.23045">
        <ele>1577</ele>
        <time>2010-01-01T00:51:44Z</time>
      </trkpt>
      <trkpt lat="42.27789" lon="2.23047">
        <ele>1576</ele>
        <time>2010-01-01T00:51:45Z</time>
      </trkpt>
      <trkpt lat="42.27786" lon="2.2305">
        <ele>1575</ele>
        <time>2010-01-01T00:51:46Z</time>
      </trkpt>
      <trkpt lat="42.27785" lon="2.23053">
        <ele>1574</ele>
        <time>2010-01-01T00:51:47Z</time>
      </trkpt>
      <trkpt lat="42.27785" lon="2.23058">
        <ele>1573</ele>
        <time>2010-01-01T00:51:49Z</time>
      </trkpt>
      <trkpt lat="42.27784" lon="2.23062">
        <ele>1572</ele>
        <time>2010-01-01T00:51:50Z</time>
      </trkpt>
      <trkpt lat="42.27784" lon="2.23065">
        <ele>1572</ele>
        <time>2010-01-01T00:51:51Z</time>
      </trkpt>
      <trkpt lat="42.27783" lon="2.23069">
        <ele>1572</ele>
        <time>2010-01-01T00:51:52Z</time>
      </trkpt>
      <trkpt lat="42.27783" lon="2.23072">
        <ele>1571</ele>
        <time>2010-01-01T00:51:53Z</time>
      </trkpt>
      <trkpt lat="42.27782" lon="2.23074">
        <ele>1571</ele>
        <time>2010-01-01T00:51:54Z</time>
      </trkpt>
      <trkpt lat="42.27781" lon="2.23077">
        <ele>1570</ele>
        <time>2010-01-01T00:51:55Z</time>
      </trkpt>
      <trkpt lat="42.27782" lon="2.2308">
        <ele>1570</ele>
        <time>2010-01-01T00:51:56Z</time>
      </trkpt>
      <trkpt lat="42.27782" lon="2.23083">
        <ele>1570</ele>
        <time>2010-01-01T00:51:57Z</time>
      </trkpt>
      <trkpt lat="42.27783" lon="2.23086">
        <ele>1570</ele>
        <time>2010-01-01T00:51:57Z</time>
      </trkpt>
      <trkpt lat="42.27782" lon="2.23089">
        <ele>1570</ele>
        <time>2010-01-01T00:51:58Z</time>
      </trkpt>
      <trkpt lat="42.27781" lon="2.23092">
        <ele>1570</ele>
        <time>2010-01-01T00:51:59Z</time>
      </trkpt>
      <trkpt lat="42.2778" lon="2.23094">
        <ele>1570</ele>
        <time>2010-01-01T00:52:00Z</time>
      </trkpt>
      <trkpt lat="42.27778" lon="2.23097">
        <ele>1569</ele>
        <time>2010-01-01T00:52:01Z</time>
      </trkpt>
      <trkpt lat="42.27777" lon="2.23099">
        <ele>1568</ele>
        <time>2010-01-01T00:52:02Z</time>
      </trkpt>
      <trkpt lat="42.27775" lon="2.231">
        <ele>1567</ele>
        <time>2010-01-01T00:52:03Z</time>
      </trkpt>
      <trkpt lat="42.27772" lon="2.23101">
        <ele>1566</ele>
        <time>2010-01-01T00:52:04Z</time>
      </trkpt>
      <trkpt lat="42.2777" lon="2.231">
        <ele>1565</ele>
        <time>2010-01-01T00:52:05Z</time>
      </trkpt>
      <trkpt lat="42.27767" lon="2.231">
        <ele>1563</ele>
        <time>2010-01-01T00:52:06Z</time>
      </trkpt>
      <trkpt lat="42.27764" lon="2.231">
        <ele>1562</ele>
        <time>2010-01-01T00:52:07Z</time>
      </trkpt>
      <trkpt lat="42.27761" lon="2.231">
        <ele>1561</ele>
        <time>2010-01-01T00:52:08Z</time>
      </trkpt>
      <trkpt lat="42.27759" lon="2.23101">
        <ele>1560</ele>
        <time>2010-01-01T00:52:09Z</time>
      </trkpt>
      <trkpt lat="42.27757" lon="2.23105">
        <ele>1559</ele>
        <time>2010-01-01T00:52:11Z</time>
      </trkpt>
      <trkpt lat="42.27756" lon="2.23108">
        <ele>1558</ele>
        <time>2010-01-01T00:52:12Z</time>
      </trkpt>
      <trkpt lat="42.27753" lon="2.2311">
        <ele>1557</ele>
        <time>2010-01-01T00:52:13Z</time>
      </trkpt>
      <trkpt lat="42.27751" lon="2.23112">
        <ele>1556</ele>
        <time>2010-01-01T00:52:14Z</time>
      </trkpt>
      <trkpt lat="42.27749" lon="2.23115">
        <ele>1555</ele>
        <time>2010-01-01T00:52:15Z</time>
      </trkpt>
      <trkpt lat="42.27746" lon="2.23118">
        <ele>1554</ele>
        <time>2010-01-01T00:52:17Z</time>
      </trkpt>
      <trkpt lat="42.27743" lon="2.2312">
        <ele>1552</ele>
        <time>2010-01-01T00:52:18Z</time>
      </trkpt>
      <trkpt lat="42.2774" lon="2.23122">
        <ele>1551</ele>
        <time>2010-01-01T00:52:19Z</time>
      </trkpt>
      <trkpt lat="42.27738" lon="2.23125">
        <ele>1550</ele>
        <time>2010-01-01T00:52:20Z</time>
      </trkpt>
      <trkpt lat="42.27738" lon="2.23129">
        <ele>1550</ele>
        <time>2010-01-01T00:52:22Z</time>
      </trkpt>
      <trkpt lat="42.27737" lon="2.23133">
        <ele>1550</ele>
        <time>2010-01-01T00:52:23Z</time>
      </trkpt>
      <trkpt lat="42.27736" lon="2.23137">
        <ele>1550</ele>
        <time>2010-01-01T00:52:24Z</time>
      </trkpt>
      <trkpt lat="42.27736" lon="2.23142">
        <ele>1550</ele>
        <time>2010-01-01T00:52:26Z</time>
      </trkpt>
      <trkpt lat="42.27735" lon="2.23147">
        <ele>1549</ele>
        <time>2010-01-01T00:52:27Z</time>
      </trkpt>
      <trkpt lat="42.27732" lon="2.2315">
        <ele>1548</ele>
        <time>2010-01-01T00:52:28Z</time>
      </trkpt>
      <trkpt lat="42.27731" lon="2.23149">
        <ele>1547</ele>
        <time>2010-01-01T00:52:29Z</time>
      </trkpt>
      <trkpt lat="42.2773" lon="2.23146">
        <ele>1547</ele>
        <time>2010-01-01T00:52:30Z</time>
      </trkpt>
      <trkpt lat="42.27727" lon="2.23144">
        <ele>1546</ele>
        <time>2010-01-01T00:52:31Z</time>
      </trkpt>
      <trkpt lat="42.27726" lon="2.23142">
        <ele>1545</ele>
        <time>2010-01-01T00:52:32Z</time>
      </trkpt>
      <trkpt lat="42.27724" lon="2.23138">
        <ele>1544</ele>
        <time>2010-01-01T00:52:33Z</time>
      </trkpt>
      <trkpt lat="42.27723" lon="2.23134">
        <ele>1543</ele>
        <time>2010-01-01T00:52:35Z</time>
      </trkpt>
      <trkpt lat="42.27721" lon="2.23131">
        <ele>1542</ele>
        <time>2010-01-01T00:52:36Z</time>
      </trkpt>
      <trkpt lat="42.2772" lon="2.23127">
        <ele>1540</ele>
        <time>2010-01-01T00:52:37Z</time>
      </trkpt>
      <trkpt lat="42.27719" lon="2.23124">
        <ele>1539</ele>
        <time>2010-01-01T00:52:38Z</time>
      </trkpt>
      <trkpt lat="42.27718" lon="2.23121">
        <ele>1538</ele>
        <time>2010-01-01T00:52:39Z</time>
      </trkpt>
      <trkpt lat="42.27716" lon="2.23118">
        <ele>1537</ele>
        <time>2010-01-01T00:52:40Z</time>
      </trkpt>
      <trkpt lat="42.27715" lon="2.23114">
        <ele>1535</ele>
        <time>2010-01-01T00:52:42Z</time>
      </trkpt>
      <trkpt lat="42.27714" lon="2.23111">
        <ele>1534</ele>
        <time>2010-01-01T00:52:43Z</time>
      </trkpt>
      <trkpt lat="42.27714" lon="2.23107">
        <ele>1534</ele>
        <time>2010-01-01T00:52:44Z</time>
      </trkpt>
      <trkpt lat="42.27714" lon="2.23104">
        <ele>1534</ele>
        <time>2010-01-01T00:52:45Z</time>
      </trkpt>
      <trkpt lat="42.27715" lon="2.23102">
        <ele>1534</ele>
        <time>2010-01-01T00:52:45Z</time>
      </trkpt>
      <trkpt lat="42.27716" lon="2.23099">
        <ele>1535</ele>
        <time>2010-01-01T00:52:46Z</time>
      </trkpt>
      <trkpt lat="42.27716" lon="2.23096">
        <ele>1535</ele>
        <time>2010-01-01T00:52:47Z</time>
      </trkpt>
      <trkpt lat="42.27715" lon="2.23093">
        <ele>1534</ele>
        <time>2010-01-01T00:52:48Z</time>
      </trkpt>
      <trkpt lat="42.27715" lon="2.23089">
        <ele>1534</ele>
        <time>2010-01-01T00:52:49Z</time>
      </trkpt>
      <trkpt lat="42.27717" lon="2.23086">
        <ele>1535</ele>
        <time>2010-01-01T00:52:50Z</time>
      </trkpt>
      <trkpt lat="42.27716" lon="2.23084">
        <ele>1534</ele>
        <time>2010-01-01T00:52:51Z</time>
      </trkpt>
      <trkpt lat="42.27715" lon="2.23081">
        <ele>1534</ele>
        <time>2010-01-01T00:52:52Z</time>
      </trkpt>
      <trkpt lat="42.27714" lon="2.23078">
        <ele>1534</ele>
        <time>2010-01-01T00:52:53Z</time>
      </trkpt>
      <trkpt lat="42.27713" lon="2.23075">
        <ele>1533</ele>
        <time>2010-01-01T00:52:54Z</time>
      </trkpt>
      <trkpt lat="42.27711" lon="2.23073">
        <ele>1532</ele>
        <time>2010-01-01T00:52:55Z</time>
      </trkpt>
      <trkpt lat="42.2771" lon="2.2307">
        <ele>1532</ele>
        <time>2010-01-01T00:52:56Z</time>
      </trkpt>
      <trkpt lat="42.27709" lon="2.23067">
        <ele>1532</ele>
        <time>2010-01-01T00:52:57Z</time>
      </trkpt>
      <trkpt lat="42.27708" lon="2.23064">
        <ele>1531</ele>
        <time>2010-01-01T00:52:58Z</time>
      </trkpt>
      <trkpt lat="42.27706" lon="2.23062">
        <ele>1530</ele>
        <time>2010-01-01T00:52:59Z</time>
      </trkpt>
      <trkpt lat="42.27704" lon="2.23061">
        <ele>1529</ele>
        <time>2010-01-01T00:53:00Z</time>
      </trkpt>
      <trkpt lat="42.27701" lon="2.23061">
        <ele>1527</ele>
        <time>2010-01-01T00:53:01Z</time>
      </trkpt>
      <trkpt lat="42.27697" lon="2.23062">
        <ele>1525</ele>
        <time>2010-01-01T00:53:02Z</time>
      </trkpt>
      <trkpt lat="42.27694" lon="2.23063">
        <ele>1523</ele>
        <time>2010-01-01T00:53:04Z</time>
      </trkpt>
      <trkpt lat="42.2769" lon="2.2307">
        <ele>1521</ele>
        <time>2010-01-01T00:53:06Z</time>
      </trkpt>
      <trkpt lat="42.27689" lon="2.23073">
        <ele>1521</ele>
        <time>2010-01-01T00:53:07Z</time>
      </trkpt>
      <trkpt lat="42.2769" lon="2.23077">
        <ele>1520</ele>
        <time>2010-01-01T00:53:09Z</time>
      </trkpt>
      <trkpt lat="42.27689" lon="2.23079">
        <ele>1520</ele>
        <time>2010-01-01T00:53:09Z</time>
      </trkpt>
      <trkpt lat="42.27687" lon="2.2308">
        <ele>1519</ele>
        <time>2010-01-01T00:53:10Z</time>
      </trkpt>
      <trkpt lat="42.27685" lon="2.23082">
        <ele>1518</ele>
        <time>2010-01-01T00:53:11Z</time>
      </trkpt>
      <trkpt lat="42.27683" lon="2.23082">
        <ele>1517</ele>
        <time>2010-01-01T00:53:12Z</time>
      </trkpt>
      <trkpt lat="42.27682" lon="2.23078">
        <ele>1517</ele>
        <time>2010-01-01T00:53:13Z</time>
      </trkpt>
      <trkpt lat="42.27677" lon="2.23066">
        <ele>1515</ele>
        <time>2010-01-01T00:53:17Z</time>
      </trkpt>
      <trkpt lat="42.27672" lon="2.23078">
        <ele>1512</ele>
        <time>2010-01-01T00:53:21Z</time>
      </trkpt>
      <trkpt lat="42.27671" lon="2.23083">
        <ele>1511</ele>
        <time>2010-01-01T00:53:23Z</time>
      </trkpt>
      <trkpt lat="42.2767" lon="2.23087">
        <ele>1511</ele>
        <time>2010-01-01T00:53:24Z</time>
      </trkpt>
      <trkpt lat="42.27669" lon="2.23092">
        <ele>1511</ele>
        <time>2010-01-01T00:53:26Z</time>
      </trkpt>
      <trkpt lat="42.27669" lon="2.23096">
        <ele>1510</ele>
        <time>2010-01-01T00:53:27Z</time>
      </trkpt>
      <trkpt lat="42.27667" lon="2.231">
        <ele>1510</ele>
        <time>2010-01-01T00:53:28Z</time>
      </trkpt>
      <trkpt lat="42.27666" lon="2.23104">
        <ele>1509</ele>
        <time>2010-01-01T00:53:29Z</time>
      </trkpt>
      <trkpt lat="42.27665" lon="2.23108">
        <ele>1509</ele>
        <time>2010-01-01T00:53:31Z</time>
      </trkpt>
      <trkpt lat="42.27664" lon="2.2311">
        <ele>1508</ele>
        <time>2010-01-01T00:53:31Z</time>
      </trkpt>
      <trkpt lat="42.27662" lon="2.23111">
        <ele>1507</ele>
        <time>2010-01-01T00:53:32Z</time>
      </trkpt>
      <trkpt lat="42.27661" lon="2.23114">
        <ele>1506</ele>
        <time>2010-01-01T00:53:33Z</time>
      </trkpt>
      <trkpt lat="42.27659" lon="2.23118">
        <ele>1505</ele>
        <time>2010-01-01T00:53:35Z</time>
      </trkpt>
      <trkpt lat="42.27656" lon="2.23121">
        <ele>1504</ele>
        <time>2010-01-01T00:53:36Z</time>
      </trkpt>
      <trkpt lat="42.27653" lon="2.23123">
        <ele>1503</ele>
        <time>2010-01-01T00:53:37Z</time>
      </trkpt>
      <trkpt lat="42.2765" lon="2.23125">
        <ele>1502</ele>
        <time>2010-01-01T00:53:39Z</time>
      </trkpt>
      <trkpt lat="42.27647" lon="2.23127">
        <ele>1500</ele>
        <time>2010-01-01T00:53:40Z</time>
      </trkpt>
      <trkpt lat="42.27644" lon="2.23129">
        <ele>1499</ele>
        <time>2010-01-01T00:53:41Z</time>
      </trkpt>
      <trkpt lat="42.27642" lon="2.2313">
        <ele>1498</ele>
        <time>2010-01-01T00:53:42Z</time>
      </trkpt>
      <trkpt lat="42.27638" lon="2.23131">
        <ele>1496</ele>
        <time>2010-01-01T00:53:44Z</time>
      </trkpt>
      <trkpt lat="42.27636" lon="2.23132">
        <ele>1495</ele>
        <time>2010-01-01T00:53:45Z</time>
      </trkpt>
      <trkpt lat="42.27634" lon="2.23135">
        <ele>1494</ele>
        <time>2010-01-01T00:53:46Z</time>
      </trkpt>
      <trkpt lat="42.27631" lon="2.23136">
        <ele>1493</ele>
        <time>2010-01-01T00:53:47Z</time>
      </trkpt>
      <trkpt lat="42.27629" lon="2.23139">
        <ele>1492</ele>
        <time>2010-01-01T00:53:48Z</time>
      </trkpt>
      <trkpt lat="42.27631" lon="2.2314">
        <ele>1493</ele>
        <time>2010-01-01T00:53:49Z</time>
      </trkpt>
      <trkpt lat="42.27628" lon="2.23146">
        <ele>1491</ele>
        <time>2010-01-01T00:53:51Z</time>
      </trkpt>
      <trkpt lat="42.27628" lon="2.23149">
        <ele>1491</ele>
        <time>2010-01-01T00:53:52Z</time>
      </trkpt>
      <trkpt lat="42.27626" lon="2.23152">
        <ele>1490</ele>
        <time>2010-01-01T00:53:53Z</time>
      </trkpt>
      <trkpt lat="42.27624" lon="2.23153">
        <ele>1489</ele>
        <time>2010-01-01T00:53:54Z</time>
      </trkpt>
      <trkpt lat="42.27622" lon="2.23155">
        <ele>1488</ele>
        <time>2010-01-01T00:53:55Z</time>
      </trkpt>
      <trkpt lat="42.27621" lon="2.23157">
        <ele>1487</ele>
        <time>2010-01-01T00:53:56Z</time>
      </trkpt>
      <trkpt lat="42.27621" lon="2.23162">
        <ele>1487</ele>
        <time>2010-01-01T00:53:57Z</time>
      </trkpt>
      <trkpt lat="42.27621" lon="2.23165">
        <ele>1487</ele>
        <time>2010-01-01T00:53:58Z</time>
      </trkpt>
      <trkpt lat="42.27621" lon="2.23168">
        <ele>1487</ele>
        <time>2010-01-01T00:53:59Z</time>
      </trkpt>
      <trkpt lat="42.2762" lon="2.23171">
        <ele>1486</ele>
        <time>2010-01-01T00:54:00Z</time>
      </trkpt>
      <trkpt lat="42.27617" lon="2.23173">
        <ele>1485</ele>
        <time>2010-01-01T00:54:01Z</time>
      </trkpt>
      <trkpt lat="42.27614" lon="2.23174">
        <ele>1484</ele>
        <time>2010-01-01T00:54:02Z</time>
      </trkpt>
      <trkpt lat="42.27612" lon="2.23173">
        <ele>1483</ele>
        <time>2010-01-01T00:54:04Z</time>
      </trkpt>
      <trkpt lat="42.27608" lon="2.23168">
        <ele>1481</ele>
        <time>2010-01-01T00:54:05Z</time>
      </trkpt>
      <trkpt lat="42.27606" lon="2.23165">
        <ele>1481</ele>
        <time>2010-01-01T00:54:07Z</time>
      </trkpt>
      <trkpt lat="42.27604" lon="2.23161">
        <ele>1480</ele>
        <time>2010-01-01T00:54:08Z</time>
      </trkpt>
      <trkpt lat="42.27602" lon="2.23157">
        <ele>1479</ele>
        <time>2010-01-01T00:54:10Z</time>
      </trkpt>
      <trkpt lat="42.27601" lon="2.23153">
        <ele>1479</ele>
        <time>2010-01-01T00:54:11Z</time>
      </trkpt>
      <trkpt lat="42.27599" lon="2.23149">
        <ele>1478</ele>
        <time>2010-01-01T00:54:12Z</time>
      </trkpt>
      <trkpt lat="42.27598" lon="2.23147">
        <ele>1477</ele>
        <time>2010-01-01T00:54:13Z</time>
      </trkpt>
      <trkpt lat="42.27597" lon="2.23145">
        <ele>1477</ele>
        <time>2010-01-01T00:54:14Z</time>
      </trkpt>
      <trkpt lat="42.27595" lon="2.23143">
        <ele>1477</ele>
        <time>2010-01-01T00:54:15Z</time>
      </trkpt>
      <trkpt lat="42.27594" lon="2.23141">
        <ele>1476</ele>
        <time>2010-01-01T00:54:15Z</time>
      </trkpt>
      <trkpt lat="42.27593" lon="2.23139">
        <ele>1476</ele>
        <time>2010-01-01T00:54:16Z</time>
      </trkpt>
      <trkpt lat="42.27592" lon="2.23137">
        <ele>1476</ele>
        <time>2010-01-01T00:54:17Z</time>
      </trkpt>
      <trkpt lat="42.27591" lon="2.23135">
        <ele>1475</ele>
        <time>2010-01-01T00:54:17Z</time>
      </trkpt>
      <trkpt lat="42.2759" lon="2.23133">
        <ele>1475</ele>
        <time>2010-01-01T00:54:18Z</time>
      </trkpt>
      <trkpt lat="42.27588" lon="2.23129">
        <ele>1474</ele>
        <time>2010-01-01T00:54:20Z</time>
      </trkpt>
      <trkpt lat="42.27586" lon="2.23125">
        <ele>1474</ele>
        <time>2010-01-01T00:54:21Z</time>
      </trkpt>
      <trkpt lat="42.27584" lon="2.23122">
        <ele>1473</ele>
        <time>2010-01-01T00:54:22Z</time>
      </trkpt>
      <trkpt lat="42.27581" lon="2.2312">
        <ele>1473</ele>
        <time>2010-01-01T00:54:23Z</time>
      </trkpt>
      <trkpt lat="42.27578" lon="2.23119">
        <ele>1472</ele>
        <time>2010-01-01T00:54:25Z</time>
      </trkpt>
      <trkpt lat="42.27576" lon="2.2312">
        <ele>1471</ele>
        <time>2010-01-01T00:54:25Z</time>
      </trkpt>
      <trkpt lat="42.27575" lon="2.23123">
        <ele>1470</ele>
        <time>2010-01-01T00:54:27Z</time>
      </trkpt>
      <trkpt lat="42.27572" lon="2.23125">
        <ele>1469</ele>
        <time>2010-01-01T00:54:28Z</time>
      </trkpt>
      <trkpt lat="42.2757" lon="2.23127">
        <ele>1468</ele>
        <time>2010-01-01T00:54:29Z</time>
      </trkpt>
      <trkpt lat="42.27567" lon="2.23127">
        <ele>1467</ele>
        <time>2010-01-01T00:54:30Z</time>
      </trkpt>
      <trkpt lat="42.27565" lon="2.23124">
        <ele>1466</ele>
        <time>2010-01-01T00:54:31Z</time>
      </trkpt>
      <trkpt lat="42.27564" lon="2.23121">
        <ele>1466</ele>
        <time>2010-01-01T00:54:32Z</time>
      </trkpt>
      <trkpt lat="42.27565" lon="2.23117">
        <ele>1467</ele>
        <time>2010-01-01T00:54:33Z</time>
      </trkpt>
      <trkpt lat="42.27564" lon="2.23114">
        <ele>1467</ele>
        <time>2010-01-01T00:54:34Z</time>
      </trkpt>
      <trkpt lat="42.27563" lon="2.23112">
        <ele>1467</ele>
        <time>2010-01-01T00:54:35Z</time>
      </trkpt>
      <trkpt lat="42.27561" lon="2.23114">
        <ele>1466</ele>
        <time>2010-01-01T00:54:36Z</time>
      </trkpt>
      <trkpt lat="42.27559" lon="2.23114">
        <ele>1465</ele>
        <time>2010-01-01T00:54:37Z</time>
      </trkpt>
      <trkpt lat="42.27557" lon="2.23116">
        <ele>1464</ele>
        <time>2010-01-01T00:54:38Z</time>
      </trkpt>
      <trkpt lat="42.27555" lon="2.23117">
        <ele>1463</ele>
        <time>2010-01-01T00:54:38Z</time>
      </trkpt>
      <trkpt lat="42.27553" lon="2.23118">
        <ele>1462</ele>
        <time>2010-01-01T00:54:39Z</time>
      </trkpt>
      <trkpt lat="42.2755" lon="2.2312">
        <ele>1461</ele>
        <time>2010-01-01T00:54:41Z</time>
      </trkpt>
      <trkpt lat="42.27549" lon="2.23118">
        <ele>1461</ele>
        <time>2010-01-01T00:54:41Z</time>
      </trkpt>
      <trkpt lat="42.27548" lon="2.23116">
        <ele>1460</ele>
        <time>2010-01-01T00:54:42Z</time>
      </trkpt>
      <trkpt lat="42.27546" lon="2.23119">
        <ele>1459</ele>
        <time>2010-01-01T00:54:43Z</time>
      </trkpt>
      <trkpt lat="42.27544" lon="2.23122">
        <ele>1458</ele>
        <time>2010-01-01T00:54:44Z</time>
      </trkpt>
      <trkpt lat="42.27543" lon="2.23126">
        <ele>1457</ele>
        <time>2010-01-01T00:54:46Z</time>
      </trkpt>
      <trkpt lat="42.27541" lon="2.23127">
        <ele>1456</ele>
        <time>2010-01-01T00:54:46Z</time>
      </trkpt>
      <trkpt lat="42.27539" lon="2.23127">
        <ele>1455</ele>
        <time>2010-01-01T00:54:47Z</time>
      </trkpt>
      <trkpt lat="42.27538" lon="2.2313">
        <ele>1454</ele>
        <time>2010-01-01T00:54:48Z</time>
      </trkpt>
      <trkpt lat="42.27536" lon="2.23133">
        <ele>1453</ele>
        <time>2010-01-01T00:54:49Z</time>
      </trkpt>
      <trkpt lat="42.27534" lon="2.23136">
        <ele>1451</ele>
        <time>2010-01-01T00:54:51Z</time>
      </trkpt>
      <trkpt lat="42.27532" lon="2.23139">
        <ele>1450</ele>
        <time>2010-01-01T00:54:52Z</time>
      </trkpt>
      <trkpt lat="42.2753" lon="2.23143">
        <ele>1450</ele>
        <time>2010-01-01T00:54:53Z</time>
      </trkpt>
      <trkpt lat="42.27528" lon="2.23146">
        <ele>1449</ele>
        <time>2010-01-01T00:54:54Z</time>
      </trkpt>
      <trkpt lat="42.27527" lon="2.23149">
        <ele>1448</ele>
        <time>2010-01-01T00:54:56Z</time>
      </trkpt>
      <trkpt lat="42.27526" lon="2.23153">
        <ele>1448</ele>
        <time>2010-01-01T00:54:57Z</time>
      </trkpt>
      <trkpt lat="42.27524" lon="2.23156">
        <ele>1447</ele>
        <time>2010-01-01T00:54:58Z</time>
      </trkpt>
      <trkpt lat="42.27522" lon="2.2316">
        <ele>1446</ele>
        <time>2010-01-01T00:54:59Z</time>
      </trkpt>
      <trkpt lat="42.27519" lon="2.23162">
        <ele>1445</ele>
        <time>2010-01-01T00:55:01Z</time>
      </trkpt>
      <trkpt lat="42.27516" lon="2.23162">
        <ele>1444</ele>
        <time>2010-01-01T00:55:02Z</time>
      </trkpt>
      <trkpt lat="42.27514" lon="2.23162">
        <ele>1443</ele>
        <time>2010-01-01T00:55:03Z</time>
      </trkpt>
      <trkpt lat="42.27511" lon="2.23163">
        <ele>1441</ele>
        <time>2010-01-01T00:55:04Z</time>
      </trkpt>
      <trkpt lat="42.27509" lon="2.23162">
        <ele>1440</ele>
        <time>2010-01-01T00:55:05Z</time>
      </trkpt>
      <trkpt lat="42.27507" lon="2.23162">
        <ele>1439</ele>
        <time>2010-01-01T00:55:06Z</time>
      </trkpt>
      <trkpt lat="42.27504" lon="2.23161">
        <ele>1438</ele>
        <time>2010-01-01T00:55:07Z</time>
      </trkpt>
      <trkpt lat="42.27502" lon="2.23161">
        <ele>1436</ele>
        <time>2010-01-01T00:55:08Z</time>
      </trkpt>
      <trkpt lat="42.27499" lon="2.23162">
        <ele>1435</ele>
        <time>2010-01-01T00:55:09Z</time>
      </trkpt>
      <trkpt lat="42.27497" lon="2.23164">
        <ele>1435</ele>
        <time>2010-01-01T00:55:10Z</time>
      </trkpt>
      <trkpt lat="42.27494" lon="2.23164">
        <ele>1434</ele>
        <time>2010-01-01T00:55:11Z</time>
      </trkpt>
      <trkpt lat="42.27492" lon="2.23165">
        <ele>1433</ele>
        <time>2010-01-01T00:55:12Z</time>
      </trkpt>
      <trkpt lat="42.27489" lon="2.23165">
        <ele>1431</ele>
        <time>2010-01-01T00:55:13Z</time>
      </trkpt>
      <trkpt lat="42.27486" lon="2.23166">
        <ele>1430</ele>
        <time>2010-01-01T00:55:14Z</time>
      </trkpt>
      <trkpt lat="42.27483" lon="2.23167">
        <ele>1429</ele>
        <time>2010-01-01T00:55:15Z</time>
      </trkpt>
      <trkpt lat="42.27482" lon="2.23168">
        <ele>1429</ele>
        <time>2010-01-01T00:55:16Z</time>
      </trkpt>
      <trkpt lat="42.27478" lon="2.23168">
        <ele>1427</ele>
        <time>2010-01-01T00:55:17Z</time>
      </trkpt>
      <trkpt lat="42.27476" lon="2.23168">
        <ele>1426</ele>
        <time>2010-01-01T00:55:18Z</time>
      </trkpt>
      <trkpt lat="42.27473" lon="2.2317">
        <ele>1425</ele>
        <time>2010-01-01T00:55:20Z</time>
      </trkpt>
      <trkpt lat="42.2747" lon="2.2317">
        <ele>1424</ele>
        <time>2010-01-01T00:55:21Z</time>
      </trkpt>
      <trkpt lat="42.27468" lon="2.23172">
        <ele>1424</ele>
        <time>2010-01-01T00:55:22Z</time>
      </trkpt>
      <trkpt lat="42.27466" lon="2.23172">
        <ele>1423</ele>
        <time>2010-01-01T00:55:23Z</time>
      </trkpt>
      <trkpt lat="42.27464" lon="2.23174">
        <ele>1422</ele>
        <time>2010-01-01T00:55:24Z</time>
      </trkpt>
      <trkpt lat="42.27462" lon="2.23173">
        <ele>1422</ele>
        <time>2010-01-01T00:55:24Z</time>
      </trkpt>
      <trkpt lat="42.27459" lon="2.23175">
        <ele>1421</ele>
        <time>2010-01-01T00:55:25Z</time>
      </trkpt>
      <trkpt lat="42.27457" lon="2.23175">
        <ele>1420</ele>
        <time>2010-01-01T00:55:26Z</time>
      </trkpt>
      <trkpt lat="42.27452" lon="2.23176">
        <ele>1418</ele>
        <time>2010-01-01T00:55:28Z</time>
      </trkpt>
      <trkpt lat="42.27449" lon="2.23176">
        <ele>1417</ele>
        <time>2010-01-01T00:55:30Z</time>
      </trkpt>
      <trkpt lat="42.27447" lon="2.23175">
        <ele>1416</ele>
        <time>2010-01-01T00:55:31Z</time>
      </trkpt>
      <trkpt lat="42.27446" lon="2.23172">
        <ele>1416</ele>
        <time>2010-01-01T00:55:32Z</time>
      </trkpt>
      <trkpt lat="42.27446" lon="2.23168">
        <ele>1416</ele>
        <time>2010-01-01T00:55:33Z</time>
      </trkpt>
      <trkpt lat="42.27446" lon="2.23164">
        <ele>1415</ele>
        <time>2010-01-01T00:55:34Z</time>
      </trkpt>
      <trkpt lat="42.27446" lon="2.23161">
        <ele>1415</ele>
        <time>2010-01-01T00:55:35Z</time>
      </trkpt>
      <trkpt lat="42.27446" lon="2.23157">
        <ele>1414</ele>
        <time>2010-01-01T00:55:36Z</time>
      </trkpt>
      <trkpt lat="42.27447" lon="2.23154">
        <ele>1414</ele>
        <time>2010-01-01T00:55:37Z</time>
      </trkpt>
      <trkpt lat="42.27449" lon="2.23151">
        <ele>1414</ele>
        <time>2010-01-01T00:55:38Z</time>
      </trkpt>
      <trkpt lat="42.27447" lon="2.2315">
        <ele>1413</ele>
        <time>2010-01-01T00:55:39Z</time>
      </trkpt>
      <trkpt lat="42.27445" lon="2.2315">
        <ele>1413</ele>
        <time>2010-01-01T00:55:40Z</time>
      </trkpt>
      <trkpt lat="42.27443" lon="2.23151">
        <ele>1412</ele>
        <time>2010-01-01T00:55:41Z</time>
      </trkpt>
      <trkpt lat="42.27438" lon="2.23152">
        <ele>1410</ele>
        <time>2010-01-01T00:55:43Z</time>
      </trkpt>
      <trkpt lat="42.27435" lon="2.23153">
        <ele>1409</ele>
        <time>2010-01-01T00:55:44Z</time>
      </trkpt>
      <trkpt lat="42.27432" lon="2.23154">
        <ele>1408</ele>
        <time>2010-01-01T00:55:45Z</time>
      </trkpt>
      <trkpt lat="42.27431" lon="2.2315">
        <ele>1407</ele>
        <time>2010-01-01T00:55:46Z</time>
      </trkpt>
      <trkpt lat="42.27431" lon="2.23147">
        <ele>1407</ele>
        <time>2010-01-01T00:55:47Z</time>
      </trkpt>
      <trkpt lat="42.27429" lon="2.23146">
        <ele>1406</ele>
        <time>2010-01-01T00:55:48Z</time>
      </trkpt>
      <trkpt lat="42.27426" lon="2.23146">
        <ele>1405</ele>
        <time>2010-01-01T00:55:49Z</time>
      </trkpt>
      <trkpt lat="42.27424" lon="2.23148">
        <ele>1404</ele>
        <time>2010-01-01T00:55:50Z</time>
      </trkpt>
      <trkpt lat="42.27422" lon="2.23149">
        <ele>1404</ele>
        <time>2010-01-01T00:55:51Z</time>
      </trkpt>
      <trkpt lat="42.2742" lon="2.23151">
        <ele>1403</ele>
        <time>2010-01-01T00:55:52Z</time>
      </trkpt>
      <trkpt lat="42.27416" lon="2.23152">
        <ele>1401</ele>
        <time>2010-01-01T00:55:53Z</time>
      </trkpt>
      <trkpt lat="42.27415" lon="2.23154">
        <ele>1401</ele>
        <time>2010-01-01T00:55:54Z</time>
      </trkpt>
      <trkpt lat="42.27413" lon="2.23155">
        <ele>1400</ele>
        <time>2010-01-01T00:55:55Z</time>
      </trkpt>
      <trkpt lat="42.27411" lon="2.23157">
        <ele>1399</ele>
        <time>2010-01-01T00:55:56Z</time>
      </trkpt>
      <trkpt lat="42.27409" lon="2.2316">
        <ele>1398</ele>
        <time>2010-01-01T00:55:57Z</time>
      </trkpt>
      <trkpt lat="42.27405" lon="2.23162">
        <ele>1396</ele>
        <time>2010-01-01T00:55:59Z</time>
      </trkpt>
      <trkpt lat="42.27402" lon="2.23162">
        <ele>1394</ele>
        <time>2010-01-01T00:56:00Z</time>
      </trkpt>
      <trkpt lat="42.274" lon="2.23164">
        <ele>1393</ele>
        <time>2010-01-01T00:56:01Z</time>
      </trkpt>
      <trkpt lat="42.27399" lon="2.23167">
        <ele>1393</ele>
        <time>2010-01-01T00:56:02Z</time>
      </trkpt>
      <trkpt lat="42.27397" lon="2.23168">
        <ele>1392</ele>
        <time>2010-01-01T00:56:03Z</time>
      </trkpt>
      <trkpt lat="42.27396" lon="2.2317">
        <ele>1391</ele>
        <time>2010-01-01T00:56:04Z</time>
      </trkpt>
      <trkpt lat="42.27393" lon="2.23172">
        <ele>1390</ele>
        <time>2010-01-01T00:56:05Z</time>
      </trkpt>
      <trkpt lat="42.2739" lon="2.23173">
        <ele>1389</ele>
        <time>2010-01-01T00:56:06Z</time>
      </trkpt>
      <trkpt lat="42.27388" lon="2.23175">
        <ele>1388</ele>
        <time>2010-01-01T00:56:07Z</time>
      </trkpt>
      <trkpt lat="42.27386" lon="2.23178">
        <ele>1387</ele>
        <time>2010-01-01T00:56:08Z</time>
      </trkpt>
      <trkpt lat="42.27384" lon="2.2318">
        <ele>1386</ele>
        <time>2010-01-01T00:56:09Z</time>
      </trkpt>
      <trkpt lat="42.27381" lon="2.23181">
        <ele>1385</ele>
        <time>2010-01-01T00:56:10Z</time>
      </trkpt>
      <trkpt lat="42.27379" lon="2.23182">
        <ele>1384</ele>
        <time>2010-01-01T00:56:11Z</time>
      </trkpt>
      <trkpt lat="42.27377" lon="2.23184">
        <ele>1383</ele>
        <time>2010-01-01T00:56:12Z</time>
      </trkpt>
      <trkpt lat="42.27375" lon="2.23185">
        <ele>1382</ele>
        <time>2010-01-01T00:56:13Z</time>
      </trkpt>
      <trkpt lat="42.27372" lon="2.23187">
        <ele>1381</ele>
        <time>2010-01-01T00:56:14Z</time>
      </trkpt>
      <trkpt lat="42.27371" lon="2.2319">
        <ele>1380</ele>
        <time>2010-01-01T00:56:15Z</time>
      </trkpt>
      <trkpt lat="42.27369" lon="2.23194">
        <ele>1380</ele>
        <time>2010-01-01T00:56:17Z</time>
      </trkpt>
      <trkpt lat="42.27368" lon="2.23197">
        <ele>1379</ele>
        <time>2010-01-01T00:56:18Z</time>
      </trkpt>
      <trkpt lat="42.27366" lon="2.23201">
        <ele>1379</ele>
        <time>2010-01-01T00:56:19Z</time>
      </trkpt>
      <trkpt lat="42.27365" lon="2.23203">
        <ele>1378</ele>
        <time>2010-01-01T00:56:20Z</time>
      </trkpt>
      <trkpt lat="42.27363" lon="2.23206">
        <ele>1378</ele>
        <time>2010-01-01T00:56:21Z</time>
      </trkpt>
      <trkpt lat="42.27362" lon="2.23208">
        <ele>1377</ele>
        <time>2010-01-01T00:56:22Z</time>
      </trkpt>
      <trkpt lat="42.2736" lon="2.23212">
        <ele>1377</ele>
        <time>2010-01-01T00:56:23Z</time>
      </trkpt>
      <trkpt lat="42.27358" lon="2.23215">
        <ele>1376</ele>
        <time>2010-01-01T00:56:25Z</time>
      </trkpt>
      <trkpt lat="42.27355" lon="2.23218">
        <ele>1376</ele>
        <time>2010-01-01T00:56:26Z</time>
      </trkpt>
      <trkpt lat="42.27353" lon="2.23221">
        <ele>1375</ele>
        <time>2010-01-01T00:56:27Z</time>
      </trkpt>
      <trkpt lat="42.2735" lon="2.23223">
        <ele>1374</ele>
        <time>2010-01-01T00:56:28Z</time>
      </trkpt>
      <trkpt lat="42.27347" lon="2.23225">
        <ele>1372</ele>
        <time>2010-01-01T00:56:30Z</time>
      </trkpt>
      <trkpt lat="42.27345" lon="2.23227">
        <ele>1371</ele>
        <time>2010-01-01T00:56:31Z</time>
      </trkpt>
      <trkpt lat="42.27343" lon="2.23229">
        <ele>1371</ele>
        <time>2010-01-01T00:56:32Z</time>
      </trkpt>
      <trkpt lat="42.27341" lon="2.23233">
        <ele>1370</ele>
        <time>2010-01-01T00:56:33Z</time>
      </trkpt>
      <trkpt lat="42.27339" lon="2.23235">
        <ele>1369</ele>
        <time>2010-01-01T00:56:34Z</time>
      </trkpt>
      <trkpt lat="42.27333" lon="2.23238">
        <ele>1367</ele>
        <time>2010-01-01T00:56:37Z</time>
      </trkpt>
      <trkpt lat="42.27331" lon="2.23242">
        <ele>1366</ele>
        <time>2010-01-01T00:56:38Z</time>
      </trkpt>
      <trkpt lat="42.27329" lon="2.23244">
        <ele>1366</ele>
        <time>2010-01-01T00:56:39Z</time>
      </trkpt>
      <trkpt lat="42.27327" lon="2.23247">
        <ele>1365</ele>
        <time>2010-01-01T00:56:40Z</time>
      </trkpt>
      <trkpt lat="42.27325" lon="2.23248">
        <ele>1364</ele>
        <time>2010-01-01T00:56:41Z</time>
      </trkpt>
      <trkpt lat="42.27321" lon="2.23248">
        <ele>1363</ele>
        <time>2010-01-01T00:56:43Z</time>
      </trkpt>
      <trkpt lat="42.27319" lon="2.2325">
        <ele>1362</ele>
        <time>2010-01-01T00:56:44Z</time>
      </trkpt>
      <trkpt lat="42.27317" lon="2.23252">
        <ele>1362</ele>
        <time>2010-01-01T00:56:45Z</time>
      </trkpt>
      <trkpt lat="42.27314" lon="2.23255">
        <ele>1361</ele>
        <time>2010-01-01T00:56:46Z</time>
      </trkpt>
      <trkpt lat="42.27311" lon="2.23259">
        <ele>1360</ele>
        <time>2010-01-01T00:56:48Z</time>
      </trkpt>
      <trkpt lat="42.27307" lon="2.23262">
        <ele>1359</ele>
        <time>2010-01-01T00:56:50Z</time>
      </trkpt>
      <trkpt lat="42.27303" lon="2.23264">
        <ele>1357</ele>
        <time>2010-01-01T00:56:51Z</time>
      </trkpt>
      <trkpt lat="42.27301" lon="2.23264">
        <ele>1356</ele>
        <time>2010-01-01T00:56:52Z</time>
      </trkpt>
      <trkpt lat="42.27299" lon="2.23265">
        <ele>1356</ele>
        <time>2010-01-01T00:56:53Z</time>
      </trkpt>
      <trkpt lat="42.27297" lon="2.23265">
        <ele>1355</ele>
        <time>2010-01-01T00:56:54Z</time>
      </trkpt>
      <trkpt lat="42.27294" lon="2.23267">
        <ele>1354</ele>
        <time>2010-01-01T00:56:55Z</time>
      </trkpt>
      <trkpt lat="42.27292" lon="2.23269">
        <ele>1353</ele>
        <time>2010-01-01T00:56:56Z</time>
      </trkpt>
      <trkpt lat="42.2729" lon="2.23272">
        <ele>1352</ele>
        <time>2010-01-01T00:56:57Z</time>
      </trkpt>
      <trkpt lat="42.27289" lon="2.23274">
        <ele>1351</ele>
        <time>2010-01-01T00:56:58Z</time>
      </trkpt>
      <trkpt lat="42.27286" lon="2.23276">
        <ele>1350</ele>
        <time>2010-01-01T00:56:59Z</time>
      </trkpt>
      <trkpt lat="42.27283" lon="2.23277">
        <ele>1349</ele>
        <time>2010-01-01T00:57:00Z</time>
      </trkpt>
      <trkpt lat="42.27281" lon="2.2328">
        <ele>1348</ele>
        <time>2010-01-01T00:57:02Z</time>
      </trkpt>
      <trkpt lat="42.27278" lon="2.23282">
        <ele>1347</ele>
        <time>2010-01-01T00:57:03Z</time>
      </trkpt>
      <trkpt lat="42.27275" lon="2.23284">
        <ele>1347</ele>
        <time>2010-01-01T00:57:04Z</time>
      </trkpt>
      <trkpt lat="42.27273" lon="2.23287">
        <ele>1346</ele>
        <time>2010-01-01T00:57:05Z</time>
      </trkpt>
      <trkpt lat="42.27271" lon="2.23288">
        <ele>1346</ele>
        <time>2010-01-01T00:57:06Z</time>
      </trkpt>
      <trkpt lat="42.27269" lon="2.23289">
        <ele>1345</ele>
        <time>2010-01-01T00:57:07Z</time>
      </trkpt>
      <trkpt lat="42.27268" lon="2.23291">
        <ele>1345</ele>
        <time>2010-01-01T00:57:08Z</time>
      </trkpt>
      <trkpt lat="42.27265" lon="2.23293">
        <ele>1344</ele>
        <time>2010-01-01T00:57:09Z</time>
      </trkpt>
      <trkpt lat="42.27262" lon="2.23295">
        <ele>1344</ele>
        <time>2010-01-01T00:57:10Z</time>
      </trkpt>
      <trkpt lat="42.27259" lon="2.23296">
        <ele>1343</ele>
        <time>2010-01-01T00:57:12Z</time>
      </trkpt>
      <trkpt lat="42.27257" lon="2.233">
        <ele>1342</ele>
        <time>2010-01-01T00:57:13Z</time>
      </trkpt>
      <trkpt lat="42.27256" lon="2.23304">
        <ele>1342</ele>
        <time>2010-01-01T00:57:14Z</time>
      </trkpt>
      <trkpt lat="42.27255" lon="2.23307">
        <ele>1342</ele>
        <time>2010-01-01T00:57:15Z</time>
      </trkpt>
      <trkpt lat="42.27254" lon="2.23311">
        <ele>1343</ele>
        <time>2010-01-01T00:57:16Z</time>
      </trkpt>
      <trkpt lat="42.27253" lon="2.23314">
        <ele>1343</ele>
        <time>2010-01-01T00:57:17Z</time>
      </trkpt>
      <trkpt lat="42.27252" lon="2.23317">
        <ele>1343</ele>
        <time>2010-01-01T00:57:18Z</time>
      </trkpt>
      <trkpt lat="42.27251" lon="2.2332">
        <ele>1343</ele>
        <time>2010-01-01T00:57:19Z</time>
      </trkpt>
      <trkpt lat="42.2725" lon="2.23322">
        <ele>1343</ele>
        <time>2010-01-01T00:57:20Z</time>
      </trkpt>
      <trkpt lat="42.27249" lon="2.23325">
        <ele>1343</ele>
        <time>2010-01-01T00:57:21Z</time>
      </trkpt>
      <trkpt lat="42.27248" lon="2.23328">
        <ele>1343</ele>
        <time>2010-01-01T00:57:22Z</time>
      </trkpt>
      <trkpt lat="42.27246" lon="2.23331">
        <ele>1343</ele>
        <time>2010-01-01T00:57:23Z</time>
      </trkpt>
      <trkpt lat="42.27245" lon="2.23334">
        <ele>1343</ele>
        <time>2010-01-01T00:57:24Z</time>
      </trkpt>
      <trkpt lat="42.27245" lon="2.23338">
        <ele>1343</ele>
        <time>2010-01-01T00:57:25Z</time>
      </trkpt>
      <trkpt lat="42.27243" lon="2.23342">
        <ele>1343</ele>
        <time>2010-01-01T00:57:27Z</time>
      </trkpt>
      <trkpt lat="42.27242" lon="2.23345">
        <ele>1343</ele>
        <time>2010-01-01T00:57:28Z</time>
      </trkpt>
      <trkpt lat="42.27242" lon="2.23348">
        <ele>1343</ele>
        <time>2010-01-01T00:57:28Z</time>
      </trkpt>
      <trkpt lat="42.2724" lon="2.23351">
        <ele>1344</ele>
        <time>2010-01-01T00:57:30Z</time>
      </trkpt>
      <trkpt lat="42.27239" lon="2.23355">
        <ele>1344</ele>
        <time>2010-01-01T00:57:31Z</time>
      </trkpt>
      <trkpt lat="42.27238" lon="2.23359">
        <ele>1344</ele>
        <time>2010-01-01T00:57:32Z</time>
      </trkpt>
      <trkpt lat="42.27237" lon="2.23363">
        <ele>1344</ele>
        <time>2010-01-01T00:57:33Z</time>
      </trkpt>
      <trkpt lat="42.27237" lon="2.23367">
        <ele>1344</ele>
        <time>2010-01-01T00:57:35Z</time>
      </trkpt>
      <trkpt lat="42.27236" lon="2.23371">
        <ele>1344</ele>
        <time>2010-01-01T00:57:36Z</time>
      </trkpt>
      <trkpt lat="42.27234" lon="2.23375">
        <ele>1344</ele>
        <time>2010-01-01T00:57:37Z</time>
      </trkpt>
      <trkpt lat="42.27233" lon="2.23379">
        <ele>1344</ele>
        <time>2010-01-01T00:57:38Z</time>
      </trkpt>
      <trkpt lat="42.27231" lon="2.23383">
        <ele>1344</ele>
        <time>2010-01-01T00:57:40Z</time>
      </trkpt>
      <trkpt lat="42.2723" lon="2.23387">
        <ele>1343</ele>
        <time>2010-01-01T00:57:41Z</time>
      </trkpt>
      <trkpt lat="42.27229" lon="2.23391">
        <ele>1343</ele>
        <time>2010-01-01T00:57:42Z</time>
      </trkpt>
      <trkpt lat="42.27228" lon="2.23395">
        <ele>1343</ele>
        <time>2010-01-01T00:57:44Z</time>
      </trkpt>
      <trkpt lat="42.27226" lon="2.23399">
        <ele>1342</ele>
        <time>2010-01-01T00:57:45Z</time>
      </trkpt>
      <trkpt lat="42.27225" lon="2.23403">
        <ele>1342</ele>
        <time>2010-01-01T00:57:46Z</time>
      </trkpt>
      <trkpt lat="42.27223" lon="2.23406">
        <ele>1342</ele>
        <time>2010-01-01T00:57:47Z</time>
      </trkpt>
      <trkpt lat="42.27222" lon="2.23408">
        <ele>1341</ele>
        <time>2010-01-01T00:57:48Z</time>
      </trkpt>
      <trkpt lat="42.2722" lon="2.23412">
        <ele>1341</ele>
        <time>2010-01-01T00:57:49Z</time>
      </trkpt>
      <trkpt lat="42.27219" lon="2.23415">
        <ele>1340</ele>
        <time>2010-01-01T00:57:51Z</time>
      </trkpt>
      <trkpt lat="42.27217" lon="2.23419">
        <ele>1339</ele>
        <time>2010-01-01T00:57:52Z</time>
      </trkpt>
      <trkpt lat="42.27215" lon="2.23423">
        <ele>1339</ele>
        <time>2010-01-01T00:57:53Z</time>
      </trkpt>
      <trkpt lat="42.27213" lon="2.23427">
        <ele>1338</ele>
        <time>2010-01-01T00:57:55Z</time>
      </trkpt>
      <trkpt lat="42.27211" lon="2.2343">
        <ele>1337</ele>
        <time>2010-01-01T00:57:56Z</time>
      </trkpt>
      <trkpt lat="42.27209" lon="2.23433">
        <ele>1336</ele>
        <time>2010-01-01T00:57:57Z</time>
      </trkpt>
      <trkpt lat="42.27207" lon="2.23437">
        <ele>1336</ele>
        <time>2010-01-01T00:57:59Z</time>
      </trkpt>
      <trkpt lat="42.27206" lon="2.2344">
        <ele>1335</ele>
        <time>2010-01-01T00:58:00Z</time>
      </trkpt>
      <trkpt lat="42.27205" lon="2.23445">
        <ele>1335</ele>
        <time>2010-01-01T00:58:01Z</time>
      </trkpt>
      <trkpt lat="42.27204" lon="2.23449">
        <ele>1334</ele>
        <time>2010-01-01T00:58:02Z</time>
      </trkpt>
      <trkpt lat="42.27203" lon="2.23454">
        <ele>1334</ele>
        <time>2010-01-01T00:58:04Z</time>
      </trkpt>
      <trkpt lat="42.27203" lon="2.23456">
        <ele>1334</ele>
        <time>2010-01-01T00:58:05Z</time>
      </trkpt>
      <trkpt lat="42.27201" lon="2.2346">
        <ele>1334</ele>
        <time>2010-01-01T00:58:06Z</time>
      </trkpt>
      <trkpt lat="42.272" lon="2.23464">
        <ele>1334</ele>
        <time>2010-01-01T00:58:07Z</time>
      </trkpt>
      <trkpt lat="42.27198" lon="2.23468">
        <ele>1333</ele>
        <time>2010-01-01T00:58:08Z</time>
      </trkpt>
      <trkpt lat="42.27197" lon="2.23472">
        <ele>1333</ele>
        <time>2010-01-01T00:58:10Z</time>
      </trkpt>
      <trkpt lat="42.27196" lon="2.23475">
        <ele>1333</ele>
        <time>2010-01-01T00:58:11Z</time>
      </trkpt>
      <trkpt lat="42.27194" lon="2.23477">
        <ele>1333</ele>
        <time>2010-01-01T00:58:12Z</time>
      </trkpt>
      <trkpt lat="42.27193" lon="2.2348">
        <ele>1333</ele>
        <time>2010-01-01T00:58:13Z</time>
      </trkpt>
      <trkpt lat="42.27191" lon="2.23484">
        <ele>1332</ele>
        <time>2010-01-01T00:58:14Z</time>
      </trkpt>
      <trkpt lat="42.27191" lon="2.23487">
        <ele>1332</ele>
        <time>2010-01-01T00:58:15Z</time>
      </trkpt>
      <trkpt lat="42.27189" lon="2.23489">
        <ele>1332</ele>
        <time>2010-01-01T00:58:16Z</time>
      </trkpt>
      <trkpt lat="42.27187" lon="2.23493">
        <ele>1332</ele>
        <time>2010-01-01T00:58:17Z</time>
      </trkpt>
      <trkpt lat="42.27186" lon="2.23495">
        <ele>1332</ele>
        <time>2010-01-01T00:58:18Z</time>
      </trkpt>
      <trkpt lat="42.27185" lon="2.23497">
        <ele>1331</ele>
        <time>2010-01-01T00:58:19Z</time>
      </trkpt>
      <trkpt lat="42.27184" lon="2.23499">
        <ele>1331</ele>
        <time>2010-01-01T00:58:20Z</time>
      </trkpt>
      <trkpt lat="42.27183" lon="2.23503">
        <ele>1331</ele>
        <time>2010-01-01T00:58:21Z</time>
      </trkpt>
      <trkpt lat="42.27181" lon="2.23507">
        <ele>1331</ele>
        <time>2010-01-01T00:58:22Z</time>
      </trkpt>
      <trkpt lat="42.27181" lon="2.23512">
        <ele>1331</ele>
        <time>2010-01-01T00:58:23Z</time>
      </trkpt>
      <trkpt lat="42.2718" lon="2.23516">
        <ele>1331</ele>
        <time>2010-01-01T00:58:25Z</time>
      </trkpt>
      <trkpt lat="42.27179" lon="2.2352">
        <ele>1331</ele>
        <time>2010-01-01T00:58:26Z</time>
      </trkpt>
      <trkpt lat="42.27178" lon="2.23523">
        <ele>1331</ele>
        <time>2010-01-01T00:58:27Z</time>
      </trkpt>
      <trkpt lat="42.27177" lon="2.23526">
        <ele>1331</ele>
        <time>2010-01-01T00:58:28Z</time>
      </trkpt>
      <trkpt lat="42.27177" lon="2.23528">
        <ele>1331</ele>
        <time>2010-01-01T00:58:28Z</time>
      </trkpt>
      <trkpt lat="42.27176" lon="2.23531">
        <ele>1331</ele>
        <time>2010-01-01T00:58:29Z</time>
      </trkpt>
      <trkpt lat="42.27175" lon="2.23533">
        <ele>1330</ele>
        <time>2010-01-01T00:58:30Z</time>
      </trkpt>
      <trkpt lat="42.27175" lon="2.23536">
        <ele>1330</ele>
        <time>2010-01-01T00:58:31Z</time>
      </trkpt>
      <trkpt lat="42.27174" lon="2.23538">
        <ele>1330</ele>
        <time>2010-01-01T00:58:32Z</time>
      </trkpt>
      <trkpt lat="42.27173" lon="2.23543">
        <ele>1330</ele>
        <time>2010-01-01T00:58:33Z</time>
      </trkpt>
      <trkpt lat="42.27172" lon="2.23547">
        <ele>1330</ele>
        <time>2010-01-01T00:58:34Z</time>
      </trkpt>
      <trkpt lat="42.27171" lon="2.23551">
        <ele>1330</ele>
        <time>2010-01-01T00:58:36Z</time>
      </trkpt>
      <trkpt lat="42.2717" lon="2.23555">
        <ele>1329</ele>
        <time>2010-01-01T00:58:37Z</time>
      </trkpt>
      <trkpt lat="42.27169" lon="2.23559">
        <ele>1329</ele>
        <time>2010-01-01T00:58:38Z</time>
      </trkpt>
      <trkpt lat="42.27167" lon="2.23563">
        <ele>1329</ele>
        <time>2010-01-01T00:58:40Z</time>
      </trkpt>
      <trkpt lat="42.27166" lon="2.23567">
        <ele>1329</ele>
        <time>2010-01-01T00:58:41Z</time>
      </trkpt>
      <trkpt lat="42.27165" lon="2.23572">
        <ele>1329</ele>
        <time>2010-01-01T00:58:42Z</time>
      </trkpt>
      <trkpt lat="42.27163" lon="2.23576">
        <ele>1328</ele>
        <time>2010-01-01T00:58:44Z</time>
      </trkpt>
      <trkpt lat="42.27161" lon="2.2358">
        <ele>1328</ele>
        <time>2010-01-01T00:58:45Z</time>
      </trkpt>
      <trkpt lat="42.2716" lon="2.23581">
        <ele>1327</ele>
        <time>2010-01-01T00:58:46Z</time>
      </trkpt>
      <trkpt lat="42.27158" lon="2.23585">
        <ele>1327</ele>
        <time>2010-01-01T00:58:47Z</time>
      </trkpt>
      <trkpt lat="42.27156" lon="2.23589">
        <ele>1327</ele>
        <time>2010-01-01T00:58:49Z</time>
      </trkpt>
      <trkpt lat="42.27154" lon="2.23593">
        <ele>1327</ele>
        <time>2010-01-01T00:58:50Z</time>
      </trkpt>
      <trkpt lat="42.27152" lon="2.23596">
        <ele>1327</ele>
        <time>2010-01-01T00:58:51Z</time>
      </trkpt>
      <trkpt lat="42.27151" lon="2.236">
        <ele>1327</ele>
        <time>2010-01-01T00:58:52Z</time>
      </trkpt>
      <trkpt lat="42.27148" lon="2.23603">
        <ele>1326</ele>
        <time>2010-01-01T00:58:54Z</time>
      </trkpt>
      <trkpt lat="42.27146" lon="2.23606">
        <ele>1326</ele>
        <time>2010-01-01T00:58:55Z</time>
      </trkpt>
      <trkpt lat="42.27144" lon="2.2361">
        <ele>1326</ele>
        <time>2010-01-01T00:58:57Z</time>
      </trkpt>
      <trkpt lat="42.27142" lon="2.23613">
        <ele>1326</ele>
        <time>2010-01-01T00:58:58Z</time>
      </trkpt>
      <trkpt lat="42.2714" lon="2.23617">
        <ele>1327</ele>
        <time>2010-01-01T00:58:59Z</time>
      </trkpt>
      <trkpt lat="42.27139" lon="2.23621">
        <ele>1327</ele>
        <time>2010-01-01T00:59:00Z</time>
      </trkpt>
      <trkpt lat="42.27136" lon="2.23625">
        <ele>1327</ele>
        <time>2010-01-01T00:59:02Z</time>
      </trkpt>
      <trkpt lat="42.27134" lon="2.23628">
        <ele>1327</ele>
        <time>2010-01-01T00:59:03Z</time>
      </trkpt>
      <trkpt lat="42.27133" lon="2.23631">
        <ele>1327</ele>
        <time>2010-01-01T00:59:04Z</time>
      </trkpt>
      <trkpt lat="42.27131" lon="2.23635">
        <ele>1327</ele>
        <time>2010-01-01T00:59:05Z</time>
      </trkpt>
      <trkpt lat="42.2713" lon="2.23638">
        <ele>1327</ele>
        <time>2010-01-01T00:59:06Z</time>
      </trkpt>
      <trkpt lat="42.27129" lon="2.23642">
        <ele>1327</ele>
        <time>2010-01-01T00:59:08Z</time>
      </trkpt>
      <trkpt lat="42.27128" lon="2.23645">
        <ele>1327</ele>
        <time>2010-01-01T00:59:09Z</time>
      </trkpt>
      <trkpt lat="42.27127" lon="2.23647">
        <ele>1327</ele>
        <time>2010-01-01T00:59:10Z</time>
      </trkpt>
      <trkpt lat="42.27126" lon="2.23649">
        <ele>1327</ele>
        <time>2010-01-01T00:59:10Z</time>
      </trkpt>
      <trkpt lat="42.27124" lon="2.23653">
        <ele>1327</ele>
        <time>2010-01-01T00:59:12Z</time>
      </trkpt>
      <trkpt lat="42.27123" lon="2.23657">
        <ele>1327</ele>
        <time>2010-01-01T00:59:13Z</time>
      </trkpt>
      <trkpt lat="42.27121" lon="2.23661">
        <ele>1327</ele>
        <time>2010-01-01T00:59:14Z</time>
      </trkpt>
      <trkpt lat="42.2712" lon="2.23666">
        <ele>1327</ele>
        <time>2010-01-01T00:59:16Z</time>
      </trkpt>
      <trkpt lat="42.27119" lon="2.23668">
        <ele>1327</ele>
        <time>2010-01-01T00:59:16Z</time>
      </trkpt>
      <trkpt lat="42.27118" lon="2.23672">
        <ele>1326</ele>
        <time>2010-01-01T00:59:18Z</time>
      </trkpt>
      <trkpt lat="42.27117" lon="2.23674">
        <ele>1326</ele>
        <time>2010-01-01T00:59:18Z</time>
      </trkpt>
      <trkpt lat="42.27116" lon="2.23679">
        <ele>1326</ele>
        <time>2010-01-01T00:59:20Z</time>
      </trkpt>
      <trkpt lat="42.27115" lon="2.23681">
        <ele>1326</ele>
        <time>2010-01-01T00:59:21Z</time>
      </trkpt>
      <trkpt lat="42.27113" lon="2.23685">
        <ele>1326</ele>
        <time>2010-01-01T00:59:22Z</time>
      </trkpt>
      <trkpt lat="42.27112" lon="2.23689">
        <ele>1325</ele>
        <time>2010-01-01T00:59:23Z</time>
      </trkpt>
      <trkpt lat="42.2711" lon="2.23692">
        <ele>1325</ele>
        <time>2010-01-01T00:59:24Z</time>
      </trkpt>
      <trkpt lat="42.27107" lon="2.23695">
        <ele>1325</ele>
        <time>2010-01-01T00:59:26Z</time>
      </trkpt>
      <trkpt lat="42.27106" lon="2.23698">
        <ele>1324</ele>
        <time>2010-01-01T00:59:27Z</time>
      </trkpt>
      <trkpt lat="42.27106" lon="2.23701">
        <ele>1324</ele>
        <time>2010-01-01T00:59:28Z</time>
      </trkpt>
      <trkpt lat="42.27104" lon="2.23704">
        <ele>1324</ele>
        <time>2010-01-01T00:59:29Z</time>
      </trkpt>
      <trkpt lat="42.27103" lon="2.23708">
        <ele>1324</ele>
        <time>2010-01-01T00:59:30Z</time>
      </trkpt>
      <trkpt lat="42.27102" lon="2.23711">
        <ele>1323</ele>
        <time>2010-01-01T00:59:31Z</time>
      </trkpt>
      <trkpt lat="42.271" lon="2.23715">
        <ele>1323</ele>
        <time>2010-01-01T00:59:32Z</time>
      </trkpt>
      <trkpt lat="42.27098" lon="2.23718">
        <ele>1323</ele>
        <time>2010-01-01T00:59:34Z</time>
      </trkpt>
      <trkpt lat="42.27097" lon="2.23722">
        <ele>1322</ele>
        <time>2010-01-01T00:59:35Z</time>
      </trkpt>
      <trkpt lat="42.27096" lon="2.23726">
        <ele>1322</ele>
        <time>2010-01-01T00:59:36Z</time>
      </trkpt>
      <trkpt lat="42.27094" lon="2.2373">
        <ele>1322</ele>
        <time>2010-01-01T00:59:37Z</time>
      </trkpt>
      <trkpt lat="42.27093" lon="2.23733">
        <ele>1321</ele>
        <time>2010-01-01T00:59:39Z</time>
      </trkpt>
      <trkpt lat="42.27091" lon="2.23737">
        <ele>1321</ele>
        <time>2010-01-01T00:59:40Z</time>
      </trkpt>
      <trkpt lat="42.2709" lon="2.2374">
        <ele>1321</ele>
        <time>2010-01-01T00:59:41Z</time>
      </trkpt>
      <trkpt lat="42.27089" lon="2.23744">
        <ele>1321</ele>
        <time>2010-01-01T00:59:42Z</time>
      </trkpt>
      <trkpt lat="42.27088" lon="2.23747">
        <ele>1321</ele>
        <time>2010-01-01T00:59:43Z</time>
      </trkpt>
      <trkpt lat="42.27087" lon="2.23749">
        <ele>1320</ele>
        <time>2010-01-01T00:59:44Z</time>
      </trkpt>
      <trkpt lat="42.27085" lon="2.23752">
        <ele>1320</ele>
        <time>2010-01-01T00:59:45Z</time>
      </trkpt>
      <trkpt lat="42.27084" lon="2.23756">
        <ele>1320</ele>
        <time>2010-01-01T00:59:46Z</time>
      </trkpt>
      <trkpt lat="42.27083" lon="2.2376">
        <ele>1320</ele>
        <time>2010-01-01T00:59:47Z</time>
      </trkpt>
      <trkpt lat="42.27081" lon="2.23764">
        <ele>1320</ele>
        <time>2010-01-01T00:59:49Z</time>
      </trkpt>
      <trkpt lat="42.2708" lon="2.23766">
        <ele>1320</ele>
        <time>2010-01-01T00:59:50Z</time>
      </trkpt>
      <trkpt lat="42.27078" lon="2.23769">
        <ele>1320</ele>
        <time>2010-01-01T00:59:51Z</time>
      </trkpt>
      <trkpt lat="42.27077" lon="2.23772">
        <ele>1320</ele>
        <time>2010-01-01T00:59:52Z</time>
      </trkpt>
      <trkpt lat="42.27076" lon="2.23774">
        <ele>1320</ele>
        <time>2010-01-01T00:59:52Z</time>
      </trkpt>
      <trkpt lat="42.27075" lon="2.23776">
        <ele>1320</ele>
        <time>2010-01-01T00:59:53Z</time>
      </trkpt>
      <trkpt lat="42.27075" lon="2.23778">
        <ele>1320</ele>
        <time>2010-01-01T00:59:54Z</time>
      </trkpt>
      <trkpt lat="42.27074" lon="2.23781">
        <ele>1320</ele>
        <time>2010-01-01T00:59:55Z</time>
      </trkpt>
      <trkpt lat="42.27073" lon="2.23783">
        <ele>1320</ele>
        <time>2010-01-01T00:59:55Z</time>
      </trkpt>
      <trkpt lat="42.27072" lon="2.23787">
        <ele>1320</ele>
        <time>2010-01-01T00:59:57Z</time>
      </trkpt>
      <trkpt lat="42.2707" lon="2.23791">
        <ele>1320</ele>
        <time>2010-01-01T00:59:58Z</time>
      </trkpt>
      <trkpt lat="42.27068" lon="2.23795">
        <ele>1320</ele>
        <time>2010-01-01T01:00:00Z</time>
      </trkpt>
      <trkpt lat="42.27067" lon="2.238">
        <ele>1319</ele>
        <time>2010-01-01T01:00:01Z</time>
      </trkpt>
      <trkpt lat="42.27066" lon="2.23802">
        <ele>1319</ele>
        <time>2010-01-01T01:00:02Z</time>
      </trkpt>
      <trkpt lat="42.27065" lon="2.23804">
        <ele>1319</ele>
        <time>2010-01-01T01:00:02Z</time>
      </trkpt>
      <trkpt lat="42.27063" lon="2.23808">
        <ele>1318</ele>
        <time>2010-01-01T01:00:04Z</time>
      </trkpt>
      <trkpt lat="42.27061" lon="2.23812">
        <ele>1317</ele>
        <time>2010-01-01T01:00:05Z</time>
      </trkpt>
      <trkpt lat="42.27059" lon="2.23817">
        <ele>1316</ele>
        <time>2010-01-01T01:00:07Z</time>
      </trkpt>
      <trkpt lat="42.27058" lon="2.23821">
        <ele>1316</ele>
        <time>2010-01-01T01:00:08Z</time>
      </trkpt>
      <trkpt lat="42.27057" lon="2.23825">
        <ele>1315</ele>
        <time>2010-01-01T01:00:09Z</time>
      </trkpt>
      <trkpt lat="42.27055" lon="2.23829">
        <ele>1314</ele>
        <time>2010-01-01T01:00:11Z</time>
      </trkpt>
      <trkpt lat="42.27054" lon="2.23833">
        <ele>1313</ele>
        <time>2010-01-01T01:00:12Z</time>
      </trkpt>
      <trkpt lat="42.27053" lon="2.23837">
        <ele>1313</ele>
        <time>2010-01-01T01:00:13Z</time>
      </trkpt>
      <trkpt lat="42.27052" lon="2.23841">
        <ele>1313</ele>
        <time>2010-01-01T01:00:15Z</time>
      </trkpt>
      <trkpt lat="42.2705" lon="2.23845">
        <ele>1312</ele>
        <time>2010-01-01T01:00:16Z</time>
      </trkpt>
      <trkpt lat="42.27048" lon="2.23849">
        <ele>1312</ele>
        <time>2010-01-01T01:00:18Z</time>
      </trkpt>
      <trkpt lat="42.27047" lon="2.23854">
        <ele>1312</ele>
        <time>2010-01-01T01:00:19Z</time>
      </trkpt>
      <trkpt lat="42.27046" lon="2.23858">
        <ele>1311</ele>
        <time>2010-01-01T01:00:20Z</time>
      </trkpt>
      <trkpt lat="42.27044" lon="2.23862">
        <ele>1311</ele>
        <time>2010-01-01T01:00:22Z</time>
      </trkpt>
      <trkpt lat="42.27043" lon="2.23866">
        <ele>1311</ele>
        <time>2010-01-01T01:00:23Z</time>
      </trkpt>
      <trkpt lat="42.27042" lon="2.2387">
        <ele>1310</ele>
        <time>2010-01-01T01:00:24Z</time>
      </trkpt>
      <trkpt lat="42.27041" lon="2.23874">
        <ele>1310</ele>
        <time>2010-01-01T01:00:26Z</time>
      </trkpt>
      <trkpt lat="42.2704" lon="2.23879">
        <ele>1310</ele>
        <time>2010-01-01T01:00:27Z</time>
      </trkpt>
      <trkpt lat="42.2704" lon="2.23883">
        <ele>1310</ele>
        <time>2010-01-01T01:00:28Z</time>
      </trkpt>
      <trkpt lat="42.2704" lon="2.23897">
        <ele>1309</ele>
        <time>2010-01-01T01:00:32Z</time>
      </trkpt>
      <trkpt lat="42.2704" lon="2.23901">
        <ele>1309</ele>
        <time>2010-01-01T01:00:34Z</time>
      </trkpt>
      <trkpt lat="42.2704" lon="2.2391">
        <ele>1308</ele>
        <time>2010-01-01T01:00:36Z</time>
      </trkpt>
      <trkpt lat="42.27041" lon="2.23914">
        <ele>1308</ele>
        <time>2010-01-01T01:00:37Z</time>
      </trkpt>
      <trkpt lat="42.27042" lon="2.23918">
        <ele>1307</ele>
        <time>2010-01-01T01:00:39Z</time>
      </trkpt>
      <trkpt lat="42.27043" lon="2.23923">
        <ele>1307</ele>
        <time>2010-01-01T01:00:40Z</time>
      </trkpt>
      <trkpt lat="42.27043" lon="2.23927">
        <ele>1306</ele>
        <time>2010-01-01T01:00:41Z</time>
      </trkpt>
      <trkpt lat="42.27044" lon="2.23931">
        <ele>1305</ele>
        <time>2010-01-01T01:00:43Z</time>
      </trkpt>
      <trkpt lat="42.27045" lon="2.23935">
        <ele>1305</ele>
        <time>2010-01-01T01:00:44Z</time>
      </trkpt>
      <trkpt lat="42.27046" lon="2.23939">
        <ele>1305</ele>
        <time>2010-01-01T01:00:45Z</time>
      </trkpt>
      <trkpt lat="42.27048" lon="2.23943">
        <ele>1304</ele>
        <time>2010-01-01T01:00:47Z</time>
      </trkpt>
      <trkpt lat="42.27049" lon="2.23948">
        <ele>1303</ele>
        <time>2010-01-01T01:00:48Z</time>
      </trkpt>
      <trkpt lat="42.2705" lon="2.2395">
        <ele>1303</ele>
        <time>2010-01-01T01:00:49Z</time>
      </trkpt>
      <trkpt lat="42.27051" lon="2.23953">
        <ele>1302</ele>
        <time>2010-01-01T01:00:49Z</time>
      </trkpt>
      <trkpt lat="42.27052" lon="2.23957">
        <ele>1302</ele>
        <time>2010-01-01T01:00:51Z</time>
      </trkpt>
      <trkpt lat="42.27053" lon="2.23961">
        <ele>1301</ele>
        <time>2010-01-01T01:00:52Z</time>
      </trkpt>
      <trkpt lat="42.27054" lon="2.23965">
        <ele>1300</ele>
        <time>2010-01-01T01:00:53Z</time>
      </trkpt>
      <trkpt lat="42.27055" lon="2.2397">
        <ele>1299</ele>
        <time>2010-01-01T01:00:55Z</time>
      </trkpt>
      <trkpt lat="42.27057" lon="2.23973">
        <ele>1299</ele>
        <time>2010-01-01T01:00:56Z</time>
      </trkpt>
      <trkpt lat="42.27058" lon="2.23977">
        <ele>1298</ele>
        <time>2010-01-01T01:00:57Z</time>
      </trkpt>
      <trkpt lat="42.27059" lon="2.23982">
        <ele>1298</ele>
        <time>2010-01-01T01:00:59Z</time>
      </trkpt>
      <trkpt lat="42.2706" lon="2.23986">
        <ele>1297</ele>
        <time>2010-01-01T01:01:00Z</time>
      </trkpt>
      <trkpt lat="42.27061" lon="2.2399">
        <ele>1297</ele>
        <time>2010-01-01T01:01:01Z</time>
      </trkpt>
      <trkpt lat="42.27062" lon="2.23995">
        <ele>1296</ele>
        <time>2010-01-01T01:01:03Z</time>
      </trkpt>
      <trkpt lat="42.27063" lon="2.23999">
        <ele>1296</ele>
        <time>2010-01-01T01:01:04Z</time>
      </trkpt>
      <trkpt lat="42.27065" lon="2.24003">
        <ele>1296</ele>
        <time>2010-01-01T01:01:05Z</time>
      </trkpt>
      <trkpt lat="42.27066" lon="2.24005">
        <ele>1296</ele>
        <time>2010-01-01T01:01:06Z</time>
      </trkpt>
      <trkpt lat="42.27067" lon="2.24007">
        <ele>1296</ele>
        <time>2010-01-01T01:01:07Z</time>
      </trkpt>
      <trkpt lat="42.27068" lon="2.24009">
        <ele>1296</ele>
        <time>2010-01-01T01:01:08Z</time>
      </trkpt>
      <trkpt lat="42.27069" lon="2.24011">
        <ele>1296</ele>
        <time>2010-01-01T01:01:09Z</time>
      </trkpt>
      <trkpt lat="42.2707" lon="2.24013">
        <ele>1296</ele>
        <time>2010-01-01T01:01:09Z</time>
      </trkpt>
      <trkpt lat="42.27072" lon="2.24016">
        <ele>1296</ele>
        <time>2010-01-01T01:01:10Z</time>
      </trkpt>
      <trkpt lat="42.27073" lon="2.24018">
        <ele>1296</ele>
        <time>2010-01-01T01:01:11Z</time>
      </trkpt>
      <trkpt lat="42.27075" lon="2.24021">
        <ele>1297</ele>
        <time>2010-01-01T01:01:12Z</time>
      </trkpt>
      <trkpt lat="42.27077" lon="2.24023">
        <ele>1297</ele>
        <time>2010-01-01T01:01:13Z</time>
      </trkpt>
      <trkpt lat="42.27078" lon="2.24025">
        <ele>1297</ele>
        <time>2010-01-01T01:01:14Z</time>
      </trkpt>
      <trkpt lat="42.27079" lon="2.24027">
        <ele>1297</ele>
        <time>2010-01-01T01:01:15Z</time>
      </trkpt>
      <trkpt lat="42.2708" lon="2.24029">
        <ele>1297</ele>
        <time>2010-01-01T01:01:15Z</time>
      </trkpt>
      <trkpt lat="42.27082" lon="2.24033">
        <ele>1296</ele>
        <time>2010-01-01T01:01:17Z</time>
      </trkpt>
      <trkpt lat="42.27083" lon="2.24035">
        <ele>1296</ele>
        <time>2010-01-01T01:01:17Z</time>
      </trkpt>
      <trkpt lat="42.27085" lon="2.24039">
        <ele>1296</ele>
        <time>2010-01-01T01:01:19Z</time>
      </trkpt>
      <trkpt lat="42.27088" lon="2.24042">
        <ele>1296</ele>
        <time>2010-01-01T01:01:20Z</time>
      </trkpt>
      <trkpt lat="42.27089" lon="2.24044">
        <ele>1296</ele>
        <time>2010-01-01T01:01:21Z</time>
      </trkpt>
      <trkpt lat="42.2709" lon="2.24046">
        <ele>1296</ele>
        <time>2010-01-01T01:01:22Z</time>
      </trkpt>
      <trkpt lat="42.27091" lon="2.24048">
        <ele>1295</ele>
        <time>2010-01-01T01:01:23Z</time>
      </trkpt>
      <trkpt lat="42.27092" lon="2.2405">
        <ele>1295</ele>
        <time>2010-01-01T01:01:23Z</time>
      </trkpt>
      <trkpt lat="42.27093" lon="2.24052">
        <ele>1295</ele>
        <time>2010-01-01T01:01:24Z</time>
      </trkpt>
      <trkpt lat="42.27094" lon="2.24054">
        <ele>1295</ele>
        <time>2010-01-01T01:01:25Z</time>
      </trkpt>
      <trkpt lat="42.27095" lon="2.24056">
        <ele>1294</ele>
        <time>2010-01-01T01:01:26Z</time>
      </trkpt>
      <trkpt lat="42.27096" lon="2.24059">
        <ele>1294</ele>
        <time>2010-01-01T01:01:26Z</time>
      </trkpt>
      <trkpt lat="42.27098" lon="2.2406">
        <ele>1294</ele>
        <time>2010-01-01T01:01:27Z</time>
      </trkpt>
      <trkpt lat="42.271" lon="2.24064">
        <ele>1294</ele>
        <time>2010-01-01T01:01:29Z</time>
      </trkpt>
      <trkpt lat="42.27102" lon="2.24065">
        <ele>1294</ele>
        <time>2010-01-01T01:01:29Z</time>
      </trkpt>
      <trkpt lat="42.27105" lon="2.24069">
        <ele>1293</ele>
        <time>2010-01-01T01:01:31Z</time>
      </trkpt>
      <trkpt lat="42.27106" lon="2.24071">
        <ele>1293</ele>
        <time>2010-01-01T01:01:32Z</time>
      </trkpt>
      <trkpt lat="42.27107" lon="2.24073">
        <ele>1293</ele>
        <time>2010-01-01T01:01:32Z</time>
      </trkpt>
      <trkpt lat="42.27108" lon="2.24075">
        <ele>1292</ele>
        <time>2010-01-01T01:01:33Z</time>
      </trkpt>
      <trkpt lat="42.27109" lon="2.24077">
        <ele>1292</ele>
        <time>2010-01-01T01:01:34Z</time>
      </trkpt>
      <trkpt lat="42.27112" lon="2.2408">
        <ele>1292</ele>
        <time>2010-01-01T01:01:35Z</time>
      </trkpt>
      <trkpt lat="42.27114" lon="2.24082">
        <ele>1292</ele>
        <time>2010-01-01T01:01:37Z</time>
      </trkpt>
      <trkpt lat="42.27116" lon="2.24084">
        <ele>1292</ele>
        <time>2010-01-01T01:01:37Z</time>
      </trkpt>
      <trkpt lat="42.27117" lon="2.24085">
        <ele>1292</ele>
        <time>2010-01-01T01:01:38Z</time>
      </trkpt>
      <trkpt lat="42.2712" lon="2.24088">
        <ele>1292</ele>
        <time>2010-01-01T01:01:39Z</time>
      </trkpt>
      <trkpt lat="42.27123" lon="2.24091">
        <ele>1293</ele>
        <time>2010-01-01T01:01:41Z</time>
      </trkpt>
      <trkpt lat="42.27125" lon="2.24093">
        <ele>1293</ele>
        <time>2010-01-01T01:01:42Z</time>
      </trkpt>
      <trkpt lat="42.27128" lon="2.24095">
        <ele>1293</ele>
        <time>2010-01-01T01:01:43Z</time>
      </trkpt>
      <trkpt lat="42.2713" lon="2.24098">
        <ele>1293</ele>
        <time>2010-01-01T01:01:44Z</time>
      </trkpt>
      <trkpt lat="42.27132" lon="2.24101">
        <ele>1293</ele>
        <time>2010-01-01T01:01:46Z</time>
      </trkpt>
      <trkpt lat="42.27134" lon="2.24104">
        <ele>1292</ele>
        <time>2010-01-01T01:01:47Z</time>
      </trkpt>
      <trkpt lat="42.27137" lon="2.24106">
        <ele>1292</ele>
        <time>2010-01-01T01:01:48Z</time>
      </trkpt>
      <trkpt lat="42.2714" lon="2.24109">
        <ele>1293</ele>
        <time>2010-01-01T01:01:49Z</time>
      </trkpt>
      <trkpt lat="42.27142" lon="2.24111">
        <ele>1294</ele>
        <time>2010-01-01T01:01:51Z</time>
      </trkpt>
      <trkpt lat="42.27145" lon="2.24114">
        <ele>1294</ele>
        <time>2010-01-01T01:01:52Z</time>
      </trkpt>
      <trkpt lat="42.27148" lon="2.24116">
        <ele>1295</ele>
        <time>2010-01-01T01:01:53Z</time>
      </trkpt>
      <trkpt lat="42.2715" lon="2.24119">
        <ele>1295</ele>
        <time>2010-01-01T01:01:55Z</time>
      </trkpt>
      <trkpt lat="42.27152" lon="2.24121">
        <ele>1295</ele>
        <time>2010-01-01T01:01:56Z</time>
      </trkpt>
      <trkpt lat="42.27155" lon="2.24123">
        <ele>1296</ele>
        <time>2010-01-01T01:01:57Z</time>
      </trkpt>
      <trkpt lat="42.27157" lon="2.24126">
        <ele>1297</ele>
        <time>2010-01-01T01:01:58Z</time>
      </trkpt>
      <trkpt lat="42.2716" lon="2.24128">
        <ele>1297</ele>
        <time>2010-01-01T01:01:59Z</time>
      </trkpt>
      <trkpt lat="42.27162" lon="2.24131">
        <ele>1297</ele>
        <time>2010-01-01T01:02:01Z</time>
      </trkpt>
      <trkpt lat="42.27164" lon="2.24134">
        <ele>1297</ele>
        <time>2010-01-01T01:02:02Z</time>
      </trkpt>
      <trkpt lat="42.27166" lon="2.24137">
        <ele>1297</ele>
        <time>2010-01-01T01:02:03Z</time>
      </trkpt>
      <trkpt lat="42.27168" lon="2.24139">
        <ele>1297</ele>
        <time>2010-01-01T01:02:04Z</time>
      </trkpt>
      <trkpt lat="42.2717" lon="2.24142">
        <ele>1297</ele>
        <time>2010-01-01T01:02:05Z</time>
      </trkpt>
      <trkpt lat="42.27172" lon="2.24145">
        <ele>1297</ele>
        <time>2010-01-01T01:02:06Z</time>
      </trkpt>
      <trkpt lat="42.27173" lon="2.24149">
        <ele>1297</ele>
        <time>2010-01-01T01:02:08Z</time>
      </trkpt>
      <trkpt lat="42.27175" lon="2.24152">
        <ele>1297</ele>
        <time>2010-01-01T01:02:09Z</time>
      </trkpt>
      <trkpt lat="42.27178" lon="2.24155">
        <ele>1297</ele>
        <time>2010-01-01T01:02:10Z</time>
      </trkpt>
      <trkpt lat="42.2718" lon="2.24158">
        <ele>1297</ele>
        <time>2010-01-01T01:02:11Z</time>
      </trkpt>
      <trkpt lat="42.27181" lon="2.24162">
        <ele>1297</ele>
        <time>2010-01-01T01:02:13Z</time>
      </trkpt>
      <trkpt lat="42.27183" lon="2.24166">
        <ele>1297</ele>
        <time>2010-01-01T01:02:14Z</time>
      </trkpt>
      <trkpt lat="42.27185" lon="2.24169">
        <ele>1297</ele>
        <time>2010-01-01T01:02:15Z</time>
      </trkpt>
      <trkpt lat="42.27187" lon="2.24172">
        <ele>1298</ele>
        <time>2010-01-01T01:02:17Z</time>
      </trkpt>
      <trkpt lat="42.27189" lon="2.24176">
        <ele>1299</ele>
        <time>2010-01-01T01:02:18Z</time>
      </trkpt>
      <trkpt lat="42.27192" lon="2.24179">
        <ele>1299</ele>
        <time>2010-01-01T01:02:19Z</time>
      </trkpt>
      <trkpt lat="42.27194" lon="2.24182">
        <ele>1300</ele>
        <time>2010-01-01T01:02:21Z</time>
      </trkpt>
      <trkpt lat="42.27196" lon="2.24186">
        <ele>1301</ele>
        <time>2010-01-01T01:02:22Z</time>
      </trkpt>
      <trkpt lat="42.27198" lon="2.24189">
        <ele>1301</ele>
        <time>2010-01-01T01:02:23Z</time>
      </trkpt>
      <trkpt lat="42.272" lon="2.24193">
        <ele>1302</ele>
        <time>2010-01-01T01:02:24Z</time>
      </trkpt>
      <trkpt lat="42.27201" lon="2.24196">
        <ele>1302</ele>
        <time>2010-01-01T01:02:26Z</time>
      </trkpt>
      <trkpt lat="42.27203" lon="2.242">
        <ele>1302</ele>
        <time>2010-01-01T01:02:27Z</time>
      </trkpt>
      <trkpt lat="42.27207" lon="2.24211">
        <ele>1301</ele>
        <time>2010-01-01T01:02:31Z</time>
      </trkpt>
      <trkpt lat="42.27211" lon="2.24223">
        <ele>1300</ele>
        <time>2010-01-01T01:02:35Z</time>
      </trkpt>
      <trkpt lat="42.27214" lon="2.24235">
        <ele>1299</ele>
        <time>2010-01-01T01:02:38Z</time>
      </trkpt>
      <trkpt lat="42.27213" lon="2.24238">
        <ele>1298</ele>
        <time>2010-01-01T01:02:39Z</time>
      </trkpt>
      <trkpt lat="42.27213" lon="2.24242">
        <ele>1297</ele>
        <time>2010-01-01T01:02:40Z</time>
      </trkpt>
      <trkpt lat="42.27212" lon="2.24246">
        <ele>1295</ele>
        <time>2010-01-01T01:02:41Z</time>
      </trkpt>
      <trkpt lat="42.27211" lon="2.2425">
        <ele>1294</ele>
        <time>2010-01-01T01:02:43Z</time>
      </trkpt>
      <trkpt lat="42.27211" lon="2.24253">
        <ele>1294</ele>
        <time>2010-01-01T01:02:44Z</time>
      </trkpt>
      <trkpt lat="42.27212" lon="2.24258">
        <ele>1293</ele>
        <time>2010-01-01T01:02:45Z</time>
      </trkpt>
      <trkpt lat="42.27212" lon="2.2426">
        <ele>1293</ele>
        <time>2010-01-01T01:02:46Z</time>
      </trkpt>
      <trkpt lat="42.27213" lon="2.24265">
        <ele>1292</ele>
        <time>2010-01-01T01:02:47Z</time>
      </trkpt>
      <trkpt lat="42.27212" lon="2.24267">
        <ele>1292</ele>
        <time>2010-01-01T01:02:48Z</time>
      </trkpt>
      <trkpt lat="42.27211" lon="2.24272">
        <ele>1291</ele>
        <time>2010-01-01T01:02:49Z</time>
      </trkpt>
      <trkpt lat="42.27211" lon="2.24276">
        <ele>1290</ele>
        <time>2010-01-01T01:02:50Z</time>
      </trkpt>
      <trkpt lat="42.2721" lon="2.24279">
        <ele>1289</ele>
        <time>2010-01-01T01:02:51Z</time>
      </trkpt>
      <trkpt lat="42.27209" lon="2.24282">
        <ele>1289</ele>
        <time>2010-01-01T01:02:52Z</time>
      </trkpt>
      <trkpt lat="42.27207" lon="2.24286">
        <ele>1288</ele>
        <time>2010-01-01T01:02:54Z</time>
      </trkpt>
      <trkpt lat="42.27206" lon="2.2429">
        <ele>1288</ele>
        <time>2010-01-01T01:02:55Z</time>
      </trkpt>
      <trkpt lat="42.27205" lon="2.24293">
        <ele>1287</ele>
        <time>2010-01-01T01:02:56Z</time>
      </trkpt>
      <trkpt lat="42.27204" lon="2.24297">
        <ele>1287</ele>
        <time>2010-01-01T01:02:57Z</time>
      </trkpt>
      <trkpt lat="42.27202" lon="2.24301">
        <ele>1286</ele>
        <time>2010-01-01T01:02:59Z</time>
      </trkpt>
      <trkpt lat="42.27201" lon="2.24305">
        <ele>1286</ele>
        <time>2010-01-01T01:03:00Z</time>
      </trkpt>
      <trkpt lat="42.272" lon="2.24308">
        <ele>1286</ele>
        <time>2010-01-01T01:03:01Z</time>
      </trkpt>
      <trkpt lat="42.272" lon="2.2431">
        <ele>1286</ele>
        <time>2010-01-01T01:03:02Z</time>
      </trkpt>
      <trkpt lat="42.27199" lon="2.24313">
        <ele>1286</ele>
        <time>2010-01-01T01:03:03Z</time>
      </trkpt>
      <trkpt lat="42.27199" lon="2.24316">
        <ele>1286</ele>
        <time>2010-01-01T01:03:03Z</time>
      </trkpt>
      <trkpt lat="42.27198" lon="2.24318">
        <ele>1286</ele>
        <time>2010-01-01T01:03:04Z</time>
      </trkpt>
      <trkpt lat="42.27196" lon="2.24322">
        <ele>1286</ele>
        <time>2010-01-01T01:03:05Z</time>
      </trkpt>
      <trkpt lat="42.27195" lon="2.24324">
        <ele>1286</ele>
        <time>2010-01-01T01:03:06Z</time>
      </trkpt>
      <trkpt lat="42.27194" lon="2.24327">
        <ele>1286</ele>
        <time>2010-01-01T01:03:07Z</time>
      </trkpt>
      <trkpt lat="42.27192" lon="2.2433">
        <ele>1286</ele>
        <time>2010-01-01T01:03:08Z</time>
      </trkpt>
      <trkpt lat="42.27191" lon="2.24334">
        <ele>1286</ele>
        <time>2010-01-01T01:03:10Z</time>
      </trkpt>
      <trkpt lat="42.27189" lon="2.24337">
        <ele>1286</ele>
        <time>2010-01-01T01:03:11Z</time>
      </trkpt>
      <trkpt lat="42.27187" lon="2.24341">
        <ele>1287</ele>
        <time>2010-01-01T01:03:12Z</time>
      </trkpt>
      <trkpt lat="42.27185" lon="2.24343">
        <ele>1287</ele>
        <time>2010-01-01T01:03:13Z</time>
      </trkpt>
      <trkpt lat="42.27183" lon="2.24347">
        <ele>1288</ele>
        <time>2010-01-01T01:03:14Z</time>
      </trkpt>
      <trkpt lat="42.27181" lon="2.2435">
        <ele>1288</ele>
        <time>2010-01-01T01:03:16Z</time>
      </trkpt>
      <trkpt lat="42.27179" lon="2.24353">
        <ele>1288</ele>
        <time>2010-01-01T01:03:17Z</time>
      </trkpt>
      <trkpt lat="42.27178" lon="2.24357">
        <ele>1289</ele>
        <time>2010-01-01T01:03:18Z</time>
      </trkpt>
      <trkpt lat="42.27176" lon="2.2436">
        <ele>1289</ele>
        <time>2010-01-01T01:03:19Z</time>
      </trkpt>
      <trkpt lat="42.27174" lon="2.24364">
        <ele>1289</ele>
        <time>2010-01-01T01:03:21Z</time>
      </trkpt>
      <trkpt lat="42.27173" lon="2.24367">
        <ele>1289</ele>
        <time>2010-01-01T01:03:22Z</time>
      </trkpt>
      <trkpt lat="42.27172" lon="2.24371">
        <ele>1290</ele>
        <time>2010-01-01T01:03:23Z</time>
      </trkpt>
      <trkpt lat="42.27171" lon="2.24374">
        <ele>1290</ele>
        <time>2010-01-01T01:03:24Z</time>
      </trkpt>
      <trkpt lat="42.2717" lon="2.24378">
        <ele>1290</ele>
        <time>2010-01-01T01:03:25Z</time>
      </trkpt>
      <trkpt lat="42.27169" lon="2.24381">
        <ele>1291</ele>
        <time>2010-01-01T01:03:26Z</time>
      </trkpt>
      <trkpt lat="42.27168" lon="2.24385">
        <ele>1291</ele>
        <time>2010-01-01T01:03:27Z</time>
      </trkpt>
      <trkpt lat="42.27168" lon="2.24388">
        <ele>1292</ele>
        <time>2010-01-01T01:03:28Z</time>
      </trkpt>
      <trkpt lat="42.27167" lon="2.24391">
        <ele>1292</ele>
        <time>2010-01-01T01:03:29Z</time>
      </trkpt>
      <trkpt lat="42.27166" lon="2.24395">
        <ele>1292</ele>
        <time>2010-01-01T01:03:30Z</time>
      </trkpt>
      <trkpt lat="42.27166" lon="2.24398">
        <ele>1292</ele>
        <time>2010-01-01T01:03:31Z</time>
      </trkpt>
      <trkpt lat="42.27165" lon="2.24402">
        <ele>1292</ele>
        <time>2010-01-01T01:03:33Z</time>
      </trkpt>
      <trkpt lat="42.27165" lon="2.24406">
        <ele>1292</ele>
        <time>2010-01-01T01:03:34Z</time>
      </trkpt>
      <trkpt lat="42.27165" lon="2.2441">
        <ele>1293</ele>
        <time>2010-01-01T01:03:35Z</time>
      </trkpt>
      <trkpt lat="42.27164" lon="2.24413">
        <ele>1293</ele>
        <time>2010-01-01T01:03:36Z</time>
      </trkpt>
      <trkpt lat="42.27164" lon="2.24417">
        <ele>1293</ele>
        <time>2010-01-01T01:03:37Z</time>
      </trkpt>
      <trkpt lat="42.27163" lon="2.24421">
        <ele>1293</ele>
        <time>2010-01-01T01:03:38Z</time>
      </trkpt>
      <trkpt lat="42.27162" lon="2.24425">
        <ele>1293</ele>
        <time>2010-01-01T01:03:40Z</time>
      </trkpt>
      <trkpt lat="42.27161" lon="2.24429">
        <ele>1293</ele>
        <time>2010-01-01T01:03:41Z</time>
      </trkpt>
      <trkpt lat="42.2716" lon="2.24432">
        <ele>1293</ele>
        <time>2010-01-01T01:03:42Z</time>
      </trkpt>
      <trkpt lat="42.2716" lon="2.24434">
        <ele>1293</ele>
        <time>2010-01-01T01:03:42Z</time>
      </trkpt>
      <trkpt lat="42.2716" lon="2.24438">
        <ele>1293</ele>
        <time>2010-01-01T01:03:44Z</time>
      </trkpt>
      <trkpt lat="42.27159" lon="2.24442">
        <ele>1293</ele>
        <time>2010-01-01T01:03:45Z</time>
      </trkpt>
      <trkpt lat="42.27159" lon="2.24446">
        <ele>1293</ele>
        <time>2010-01-01T01:03:46Z</time>
      </trkpt>
      <trkpt lat="42.27158" lon="2.2445">
        <ele>1294</ele>
        <time>2010-01-01T01:03:47Z</time>
      </trkpt>
      <trkpt lat="42.27158" lon="2.24456">
        <ele>1294</ele>
        <time>2010-01-01T01:03:49Z</time>
      </trkpt>
      <trkpt lat="42.27158" lon="2.24461">
        <ele>1294</ele>
        <time>2010-01-01T01:03:50Z</time>
      </trkpt>
      <trkpt lat="42.27157" lon="2.24465">
        <ele>1294</ele>
        <time>2010-01-01T01:03:52Z</time>
      </trkpt>
      <trkpt lat="42.27157" lon="2.2447">
        <ele>1295</ele>
        <time>2010-01-01T01:03:53Z</time>
      </trkpt>
      <trkpt lat="42.27157" lon="2.24479">
        <ele>1296</ele>
        <time>2010-01-01T01:03:56Z</time>
      </trkpt>
      <trkpt lat="42.27157" lon="2.24487">
        <ele>1297</ele>
        <time>2010-01-01T01:03:58Z</time>
      </trkpt>
      <trkpt lat="42.27157" lon="2.24491">
        <ele>1298</ele>
        <time>2010-01-01T01:03:59Z</time>
      </trkpt>
      <trkpt lat="42.27157" lon="2.24495">
        <ele>1298</ele>
        <time>2010-01-01T01:04:01Z</time>
      </trkpt>
      <trkpt lat="42.27158" lon="2.24499">
        <ele>1299</ele>
        <time>2010-01-01T01:04:02Z</time>
      </trkpt>
      <trkpt lat="42.27157" lon="2.24502">
        <ele>1299</ele>
        <time>2010-01-01T01:04:03Z</time>
      </trkpt>
      <trkpt lat="42.27157" lon="2.24506">
        <ele>1300</ele>
        <time>2010-01-01T01:04:04Z</time>
      </trkpt>
      <trkpt lat="42.27156" lon="2.2451">
        <ele>1300</ele>
        <time>2010-01-01T01:04:05Z</time>
      </trkpt>
      <trkpt lat="42.27156" lon="2.24514">
        <ele>1300</ele>
        <time>2010-01-01T01:04:06Z</time>
      </trkpt>
      <trkpt lat="42.27155" lon="2.24517">
        <ele>1300</ele>
        <time>2010-01-01T01:04:07Z</time>
      </trkpt>
      <trkpt lat="42.27154" lon="2.24521">
        <ele>1300</ele>
        <time>2010-01-01T01:04:08Z</time>
      </trkpt>
      <trkpt lat="42.27153" lon="2.24525">
        <ele>1300</ele>
        <time>2010-01-01T01:04:10Z</time>
      </trkpt>
      <trkpt lat="42.27152" lon="2.24529">
        <ele>1300</ele>
        <time>2010-01-01T01:04:11Z</time>
      </trkpt>
      <trkpt lat="42.27151" lon="2.24533">
        <ele>1300</ele>
        <time>2010-01-01T01:04:12Z</time>
      </trkpt>
      <trkpt lat="42.2715" lon="2.24537">
        <ele>1301</ele>
        <time>2010-01-01T01:04:13Z</time>
      </trkpt>
      <trkpt lat="42.2715" lon="2.24541">
        <ele>1301</ele>
        <time>2010-01-01T01:04:15Z</time>
      </trkpt>
      <trkpt lat="42.27149" lon="2.24545">
        <ele>1301</ele>
        <time>2010-01-01T01:04:16Z</time>
      </trkpt>
      <trkpt lat="42.27149" lon="2.24548">
        <ele>1301</ele>
        <time>2010-01-01T01:04:17Z</time>
      </trkpt>
      <trkpt lat="42.27148" lon="2.24552">
        <ele>1302</ele>
        <time>2010-01-01T01:04:18Z</time>
      </trkpt>
      <trkpt lat="42.27147" lon="2.24556">
        <ele>1301</ele>
        <time>2010-01-01T01:04:19Z</time>
      </trkpt>
      <trkpt lat="42.27145" lon="2.2456">
        <ele>1301</ele>
        <time>2010-01-01T01:04:21Z</time>
      </trkpt>
      <trkpt lat="42.27144" lon="2.24563">
        <ele>1301</ele>
        <time>2010-01-01T01:04:22Z</time>
      </trkpt>
      <trkpt lat="42.27142" lon="2.24569">
        <ele>1300</ele>
        <time>2010-01-01T01:04:24Z</time>
      </trkpt>
      <trkpt lat="42.27142" lon="2.24571">
        <ele>1300</ele>
        <time>2010-01-01T01:04:24Z</time>
      </trkpt>
      <trkpt lat="42.27141" lon="2.24576">
        <ele>1300</ele>
        <time>2010-01-01T01:04:26Z</time>
      </trkpt>
      <trkpt lat="42.2714" lon="2.2458">
        <ele>1301</ele>
        <time>2010-01-01T01:04:27Z</time>
      </trkpt>
      <trkpt lat="42.2714" lon="2.24582">
        <ele>1301</ele>
        <time>2010-01-01T01:04:28Z</time>
      </trkpt>
      <trkpt lat="42.27139" lon="2.24587">
        <ele>1300</ele>
        <time>2010-01-01T01:04:29Z</time>
      </trkpt>
      <trkpt lat="42.27138" lon="2.24591">
        <ele>1300</ele>
        <time>2010-01-01T01:04:30Z</time>
      </trkpt>
      <trkpt lat="42.27136" lon="2.24595">
        <ele>1300</ele>
        <time>2010-01-01T01:04:32Z</time>
      </trkpt>
      <trkpt lat="42.27135" lon="2.24599">
        <ele>1299</ele>
        <time>2010-01-01T01:04:33Z</time>
      </trkpt>
      <trkpt lat="42.27134" lon="2.24603">
        <ele>1299</ele>
        <time>2010-01-01T01:04:34Z</time>
      </trkpt>
      <trkpt lat="42.27133" lon="2.24607">
        <ele>1298</ele>
        <time>2010-01-01T01:04:35Z</time>
      </trkpt>
      <trkpt lat="42.27131" lon="2.24611">
        <ele>1298</ele>
        <time>2010-01-01T01:04:37Z</time>
      </trkpt>
      <trkpt lat="42.2713" lon="2.24614">
        <ele>1297</ele>
        <time>2010-01-01T01:04:38Z</time>
      </trkpt>
      <trkpt lat="42.27129" lon="2.24618">
        <ele>1297</ele>
        <time>2010-01-01T01:04:39Z</time>
      </trkpt>
      <trkpt lat="42.27127" lon="2.24622">
        <ele>1297</ele>
        <time>2010-01-01T01:04:40Z</time>
      </trkpt>
      <trkpt lat="42.27126" lon="2.24625">
        <ele>1296</ele>
        <time>2010-01-01T01:04:42Z</time>
      </trkpt>
      <trkpt lat="42.27125" lon="2.24629">
        <ele>1296</ele>
        <time>2010-01-01T01:04:43Z</time>
      </trkpt>
      <trkpt lat="42.27124" lon="2.24633">
        <ele>1296</ele>
        <time>2010-01-01T01:04:44Z</time>
      </trkpt>
      <trkpt lat="42.27124" lon="2.24638">
        <ele>1296</ele>
        <time>2010-01-01T01:04:45Z</time>
      </trkpt>
      <trkpt lat="42.27124" lon="2.24642">
        <ele>1297</ele>
        <time>2010-01-01T01:04:47Z</time>
      </trkpt>
      <trkpt lat="42.27123" lon="2.24646">
        <ele>1298</ele>
        <time>2010-01-01T01:04:48Z</time>
      </trkpt>
      <trkpt lat="42.27122" lon="2.2465">
        <ele>1298</ele>
        <time>2010-01-01T01:04:49Z</time>
      </trkpt>
      <trkpt lat="42.27122" lon="2.24654">
        <ele>1299</ele>
        <time>2010-01-01T01:04:50Z</time>
      </trkpt>
      <trkpt lat="42.27121" lon="2.24658">
        <ele>1300</ele>
        <time>2010-01-01T01:04:51Z</time>
      </trkpt>
      <trkpt lat="42.2712" lon="2.24662">
        <ele>1300</ele>
        <time>2010-01-01T01:04:53Z</time>
      </trkpt>
      <trkpt lat="42.2712" lon="2.24666">
        <ele>1301</ele>
        <time>2010-01-01T01:04:54Z</time>
      </trkpt>
      <trkpt lat="42.2712" lon="2.24671">
        <ele>1302</ele>
        <time>2010-01-01T01:04:55Z</time>
      </trkpt>
      <trkpt lat="42.27119" lon="2.24675">
        <ele>1303</ele>
        <time>2010-01-01T01:04:57Z</time>
      </trkpt>
      <trkpt lat="42.27119" lon="2.24679">
        <ele>1303</ele>
        <time>2010-01-01T01:04:58Z</time>
      </trkpt>
      <trkpt lat="42.27118" lon="2.24684">
        <ele>1303</ele>
        <time>2010-01-01T01:04:59Z</time>
      </trkpt>
      <trkpt lat="42.27116" lon="2.24688">
        <ele>1304</ele>
        <time>2010-01-01T01:05:01Z</time>
      </trkpt>
      <trkpt lat="42.27115" lon="2.24692">
        <ele>1304</ele>
        <time>2010-01-01T01:05:02Z</time>
      </trkpt>
      <trkpt lat="42.27114" lon="2.24696">
        <ele>1304</ele>
        <time>2010-01-01T01:05:03Z</time>
      </trkpt>
      <trkpt lat="42.27112" lon="2.247">
        <ele>1304</ele>
        <time>2010-01-01T01:05:05Z</time>
      </trkpt>
      <trkpt lat="42.27111" lon="2.24704">
        <ele>1304</ele>
        <time>2010-01-01T01:05:06Z</time>
      </trkpt>
      <trkpt lat="42.27109" lon="2.24708">
        <ele>1304</ele>
        <time>2010-01-01T01:05:07Z</time>
      </trkpt>
      <trkpt lat="42.27107" lon="2.24711">
        <ele>1304</ele>
        <time>2010-01-01T01:05:08Z</time>
      </trkpt>
      <trkpt lat="42.27105" lon="2.24714">
        <ele>1304</ele>
        <time>2010-01-01T01:05:10Z</time>
      </trkpt>
      <trkpt lat="42.27103" lon="2.24717">
        <ele>1304</ele>
        <time>2010-01-01T01:05:11Z</time>
      </trkpt>
      <trkpt lat="42.27101" lon="2.24721">
        <ele>1305</ele>
        <time>2010-01-01T01:05:12Z</time>
      </trkpt>
      <trkpt lat="42.271" lon="2.24725">
        <ele>1305</ele>
        <time>2010-01-01T01:05:13Z</time>
      </trkpt>
      <trkpt lat="42.27098" lon="2.24728">
        <ele>1305</ele>
        <time>2010-01-01T01:05:15Z</time>
      </trkpt>
      <trkpt lat="42.27097" lon="2.24733">
        <ele>1305</ele>
        <time>2010-01-01T01:05:16Z</time>
      </trkpt>
      <trkpt lat="42.27096" lon="2.24737">
        <ele>1305</ele>
        <time>2010-01-01T01:05:17Z</time>
      </trkpt>
      <trkpt lat="42.27095" lon="2.24741">
        <ele>1305</ele>
        <time>2010-01-01T01:05:19Z</time>
      </trkpt>
      <trkpt lat="42.27094" lon="2.24745">
        <ele>1306</ele>
        <time>2010-01-01T01:05:20Z</time>
      </trkpt>
      <trkpt lat="42.27093" lon="2.24749">
        <ele>1306</ele>
        <time>2010-01-01T01:05:21Z</time>
      </trkpt>
      <trkpt lat="42.27091" lon="2.24752">
        <ele>1306</ele>
        <time>2010-01-01T01:05:22Z</time>
      </trkpt>
      <trkpt lat="42.27089" lon="2.24755">
        <ele>1306</ele>
        <time>2010-01-01T01:05:24Z</time>
      </trkpt>
      <trkpt lat="42.27087" lon="2.24758">
        <ele>1305</ele>
        <time>2010-01-01T01:05:25Z</time>
      </trkpt>
      <trkpt lat="42.27085" lon="2.2476">
        <ele>1305</ele>
        <time>2010-01-01T01:05:26Z</time>
      </trkpt>
      <trkpt lat="42.27082" lon="2.24763">
        <ele>1305</ele>
        <time>2010-01-01T01:05:27Z</time>
      </trkpt>
      <trkpt lat="42.2708" lon="2.24765">
        <ele>1304</ele>
        <time>2010-01-01T01:05:28Z</time>
      </trkpt>
      <trkpt lat="42.27078" lon="2.24767">
        <ele>1304</ele>
        <time>2010-01-01T01:05:29Z</time>
      </trkpt>
      <trkpt lat="42.27076" lon="2.24769">
        <ele>1304</ele>
        <time>2010-01-01T01:05:30Z</time>
      </trkpt>
      <trkpt lat="42.27074" lon="2.24771">
        <ele>1303</ele>
        <time>2010-01-01T01:05:31Z</time>
      </trkpt>
      <trkpt lat="42.27071" lon="2.24774">
        <ele>1303</ele>
        <time>2010-01-01T01:05:33Z</time>
      </trkpt>
      <trkpt lat="42.27069" lon="2.24777">
        <ele>1302</ele>
        <time>2010-01-01T01:05:34Z</time>
      </trkpt>
      <trkpt lat="42.27067" lon="2.2478">
        <ele>1302</ele>
        <time>2010-01-01T01:05:35Z</time>
      </trkpt>
      <trkpt lat="42.27066" lon="2.24783">
        <ele>1302</ele>
        <time>2010-01-01T01:05:36Z</time>
      </trkpt>
      <trkpt lat="42.27064" lon="2.24787">
        <ele>1302</ele>
        <time>2010-01-01T01:05:37Z</time>
      </trkpt>
      <trkpt lat="42.27063" lon="2.24791">
        <ele>1302</ele>
        <time>2010-01-01T01:05:39Z</time>
      </trkpt>
      <trkpt lat="42.27063" lon="2.24794">
        <ele>1302</ele>
        <time>2010-01-01T01:05:40Z</time>
      </trkpt>
      <trkpt lat="42.27063" lon="2.24797">
        <ele>1303</ele>
        <time>2010-01-01T01:05:41Z</time>
      </trkpt>
      <trkpt lat="42.27064" lon="2.24801">
        <ele>1303</ele>
        <time>2010-01-01T01:05:42Z</time>
      </trkpt>
      <trkpt lat="42.27065" lon="2.24804">
        <ele>1304</ele>
        <time>2010-01-01T01:05:43Z</time>
      </trkpt>
      <trkpt lat="42.27066" lon="2.24808">
        <ele>1304</ele>
        <time>2010-01-01T01:05:44Z</time>
      </trkpt>
      <trkpt lat="42.27068" lon="2.24811">
        <ele>1305</ele>
        <time>2010-01-01T01:05:45Z</time>
      </trkpt>
      <trkpt lat="42.27069" lon="2.24815">
        <ele>1305</ele>
        <time>2010-01-01T01:05:46Z</time>
      </trkpt>
      <trkpt lat="42.2707" lon="2.24819">
        <ele>1305</ele>
        <time>2010-01-01T01:05:48Z</time>
      </trkpt>
      <trkpt lat="42.27072" lon="2.24822">
        <ele>1306</ele>
        <time>2010-01-01T01:05:49Z</time>
      </trkpt>
      <trkpt lat="42.27074" lon="2.24826">
        <ele>1306</ele>
        <time>2010-01-01T01:05:50Z</time>
      </trkpt>
      <trkpt lat="42.27076" lon="2.24829">
        <ele>1307</ele>
        <time>2010-01-01T01:05:52Z</time>
      </trkpt>
      <trkpt lat="42.27077" lon="2.24833">
        <ele>1307</ele>
        <time>2010-01-01T01:05:53Z</time>
      </trkpt>
      <trkpt lat="42.27079" lon="2.24837">
        <ele>1307</ele>
        <time>2010-01-01T01:05:54Z</time>
      </trkpt>
      <trkpt lat="42.2708" lon="2.2484">
        <ele>1307</ele>
        <time>2010-01-01T01:05:55Z</time>
      </trkpt>
      <trkpt lat="42.27082" lon="2.24844">
        <ele>1307</ele>
        <time>2010-01-01T01:05:56Z</time>
      </trkpt>
      <trkpt lat="42.27083" lon="2.24848">
        <ele>1307</ele>
        <time>2010-01-01T01:05:58Z</time>
      </trkpt>
      <trkpt lat="42.27084" lon="2.24851">
        <ele>1308</ele>
        <time>2010-01-01T01:05:59Z</time>
      </trkpt>
      <trkpt lat="42.27086" lon="2.24856">
        <ele>1308</ele>
        <time>2010-01-01T01:06:00Z</time>
      </trkpt>
      <trkpt lat="42.27086" lon="2.2486">
        <ele>1308</ele>
        <time>2010-01-01T01:06:01Z</time>
      </trkpt>
      <trkpt lat="42.27087" lon="2.24864">
        <ele>1307</ele>
        <time>2010-01-01T01:06:03Z</time>
      </trkpt>
      <trkpt lat="42.27088" lon="2.24868">
        <ele>1307</ele>
        <time>2010-01-01T01:06:04Z</time>
      </trkpt>
      <trkpt lat="42.27089" lon="2.24872">
        <ele>1307</ele>
        <time>2010-01-01T01:06:05Z</time>
      </trkpt>
      <trkpt lat="42.2709" lon="2.24876">
        <ele>1306</ele>
        <time>2010-01-01T01:06:06Z</time>
      </trkpt>
      <trkpt lat="42.27091" lon="2.2488">
        <ele>1306</ele>
        <time>2010-01-01T01:06:08Z</time>
      </trkpt>
      <trkpt lat="42.27092" lon="2.24883">
        <ele>1306</ele>
        <time>2010-01-01T01:06:09Z</time>
      </trkpt>
      <trkpt lat="42.27093" lon="2.24887">
        <ele>1306</ele>
        <time>2010-01-01T01:06:10Z</time>
      </trkpt>
      <trkpt lat="42.27096" lon="2.24889">
        <ele>1307</ele>
        <time>2010-01-01T01:06:11Z</time>
      </trkpt>
      <trkpt lat="42.27098" lon="2.24892">
        <ele>1307</ele>
        <time>2010-01-01T01:06:12Z</time>
      </trkpt>
      <trkpt lat="42.271" lon="2.24895">
        <ele>1307</ele>
        <time>2010-01-01T01:06:14Z</time>
      </trkpt>
      <trkpt lat="42.27103" lon="2.24897">
        <ele>1307</ele>
        <time>2010-01-01T01:06:15Z</time>
      </trkpt>
      <trkpt lat="42.27106" lon="2.24899">
        <ele>1307</ele>
        <time>2010-01-01T01:06:16Z</time>
      </trkpt>
      <trkpt lat="42.27108" lon="2.249">
        <ele>1308</ele>
        <time>2010-01-01T01:06:17Z</time>
      </trkpt>
      <trkpt lat="42.2711" lon="2.24902">
        <ele>1308</ele>
        <time>2010-01-01T01:06:18Z</time>
      </trkpt>
      <trkpt lat="42.27113" lon="2.24904">
        <ele>1308</ele>
        <time>2010-01-01T01:06:19Z</time>
      </trkpt>
      <trkpt lat="42.27115" lon="2.24905">
        <ele>1308</ele>
        <time>2010-01-01T01:06:20Z</time>
      </trkpt>
      <trkpt lat="42.27118" lon="2.24907">
        <ele>1308</ele>
        <time>2010-01-01T01:06:22Z</time>
      </trkpt>
      <trkpt lat="42.27121" lon="2.24909">
        <ele>1308</ele>
        <time>2010-01-01T01:06:23Z</time>
      </trkpt>
      <trkpt lat="42.27123" lon="2.24912">
        <ele>1307</ele>
        <time>2010-01-01T01:06:24Z</time>
      </trkpt>
      <trkpt lat="42.27125" lon="2.24915">
        <ele>1307</ele>
        <time>2010-01-01T01:06:26Z</time>
      </trkpt>
      <trkpt lat="42.27128" lon="2.24919">
        <ele>1306</ele>
        <time>2010-01-01T01:06:27Z</time>
      </trkpt>
      <trkpt lat="42.2713" lon="2.24923">
        <ele>1305</ele>
        <time>2010-01-01T01:06:28Z</time>
      </trkpt>
      <trkpt lat="42.27131" lon="2.24924">
        <ele>1304</ele>
        <time>2010-01-01T01:06:29Z</time>
      </trkpt>
      <trkpt lat="42.27133" lon="2.24926">
        <ele>1304</ele>
        <time>2010-01-01T01:06:30Z</time>
      </trkpt>
      <trkpt lat="42.27135" lon="2.24929">
        <ele>1303</ele>
        <time>2010-01-01T01:06:31Z</time>
      </trkpt>
      <trkpt lat="42.27137" lon="2.24933">
        <ele>1302</ele>
        <time>2010-01-01T01:06:33Z</time>
      </trkpt>
      <trkpt lat="42.27139" lon="2.24936">
        <ele>1301</ele>
        <time>2010-01-01T01:06:34Z</time>
      </trkpt>
      <trkpt lat="42.27142" lon="2.2494">
        <ele>1300</ele>
        <time>2010-01-01T01:06:35Z</time>
      </trkpt>
      <trkpt lat="42.27142" lon="2.24943">
        <ele>1299</ele>
        <time>2010-01-01T01:06:36Z</time>
      </trkpt>
      <trkpt lat="42.27143" lon="2.24945">
        <ele>1299</ele>
        <time>2010-01-01T01:06:37Z</time>
      </trkpt>
      <trkpt lat="42.27145" lon="2.24949">
        <ele>1299</ele>
        <time>2010-01-01T01:06:38Z</time>
      </trkpt>
      <trkpt lat="42.27147" lon="2.24953">
        <ele>1298</ele>
        <time>2010-01-01T01:06:40Z</time>
      </trkpt>
      <trkpt lat="42.27149" lon="2.24957">
        <ele>1298</ele>
        <time>2010-01-01T01:06:41Z</time>
      </trkpt>
      <trkpt lat="42.2715" lon="2.24961">
        <ele>1298</ele>
        <time>2010-01-01T01:06:42Z</time>
      </trkpt>
      <trkpt lat="42.27152" lon="2.24965">
        <ele>1298</ele>
        <time>2010-01-01T01:06:44Z</time>
      </trkpt>
      <trkpt lat="42.27152" lon="2.24969">
        <ele>1298</ele>
        <time>2010-01-01T01:06:45Z</time>
      </trkpt>
      <trkpt lat="42.27153" lon="2.24973">
        <ele>1298</ele>
        <time>2010-01-01T01:06:46Z</time>
      </trkpt>
      <trkpt lat="42.27153" lon="2.24978">
        <ele>1299</ele>
        <time>2010-01-01T01:06:48Z</time>
      </trkpt>
      <trkpt lat="42.27153" lon="2.24982">
        <ele>1299</ele>
        <time>2010-01-01T01:06:49Z</time>
      </trkpt>
      <trkpt lat="42.27153" lon="2.2499">
        <ele>1300</ele>
        <time>2010-01-01T01:06:51Z</time>
      </trkpt>
      <trkpt lat="42.27152" lon="2.24995">
        <ele>1300</ele>
        <time>2010-01-01T01:06:53Z</time>
      </trkpt>
      <trkpt lat="42.27152" lon="2.24999">
        <ele>1300</ele>
        <time>2010-01-01T01:06:54Z</time>
      </trkpt>
      <trkpt lat="42.27152" lon="2.25003">
        <ele>1301</ele>
        <time>2010-01-01T01:06:55Z</time>
      </trkpt>
      <trkpt lat="42.27151" lon="2.25007">
        <ele>1301</ele>
        <time>2010-01-01T01:06:57Z</time>
      </trkpt>
      <trkpt lat="42.2715" lon="2.25012">
        <ele>1301</ele>
        <time>2010-01-01T01:06:58Z</time>
      </trkpt>
      <trkpt lat="42.2715" lon="2.25014">
        <ele>1301</ele>
        <time>2010-01-01T01:06:59Z</time>
      </trkpt>
      <trkpt lat="42.27149" lon="2.25019">
        <ele>1301</ele>
        <time>2010-01-01T01:07:00Z</time>
      </trkpt>
      <trkpt lat="42.27148" lon="2.25023">
        <ele>1302</ele>
        <time>2010-01-01T01:07:01Z</time>
      </trkpt>
      <trkpt lat="42.27147" lon="2.25027">
        <ele>1302</ele>
        <time>2010-01-01T01:07:03Z</time>
      </trkpt>
      <trkpt lat="42.27147" lon="2.25032">
        <ele>1302</ele>
        <time>2010-01-01T01:07:04Z</time>
      </trkpt>
      <trkpt lat="42.27146" lon="2.25036">
        <ele>1303</ele>
        <time>2010-01-01T01:07:05Z</time>
      </trkpt>
      <trkpt lat="42.27144" lon="2.2504">
        <ele>1303</ele>
        <time>2010-01-01T01:07:07Z</time>
      </trkpt>
      <trkpt lat="42.27143" lon="2.25044">
        <ele>1303</ele>
        <time>2010-01-01T01:07:08Z</time>
      </trkpt>
      <trkpt lat="42.27142" lon="2.25048">
        <ele>1303</ele>
        <time>2010-01-01T01:07:09Z</time>
      </trkpt>
      <trkpt lat="42.2714" lon="2.25052">
        <ele>1303</ele>
        <time>2010-01-01T01:07:10Z</time>
      </trkpt>
      <trkpt lat="42.27138" lon="2.25055">
        <ele>1303</ele>
        <time>2010-01-01T01:07:12Z</time>
      </trkpt>
      <trkpt lat="42.27136" lon="2.25058">
        <ele>1303</ele>
        <time>2010-01-01T01:07:13Z</time>
      </trkpt>
      <trkpt lat="42.27134" lon="2.2506">
        <ele>1303</ele>
        <time>2010-01-01T01:07:14Z</time>
      </trkpt>
      <trkpt lat="42.27132" lon="2.25062">
        <ele>1303</ele>
        <time>2010-01-01T01:07:15Z</time>
      </trkpt>
      <trkpt lat="42.27129" lon="2.25064">
        <ele>1303</ele>
        <time>2010-01-01T01:07:16Z</time>
      </trkpt>
      <trkpt lat="42.27127" lon="2.25066">
        <ele>1303</ele>
        <time>2010-01-01T01:07:17Z</time>
      </trkpt>
      <trkpt lat="42.27124" lon="2.25067">
        <ele>1302</ele>
        <time>2010-01-01T01:07:19Z</time>
      </trkpt>
      <trkpt lat="42.27121" lon="2.25068">
        <ele>1302</ele>
        <time>2010-01-01T01:07:20Z</time>
      </trkpt>
      <trkpt lat="42.27118" lon="2.2507">
        <ele>1302</ele>
        <time>2010-01-01T01:07:21Z</time>
      </trkpt>
      <trkpt lat="42.27115" lon="2.25071">
        <ele>1301</ele>
        <time>2010-01-01T01:07:22Z</time>
      </trkpt>
      <trkpt lat="42.27113" lon="2.25071">
        <ele>1301</ele>
        <time>2010-01-01T01:07:23Z</time>
      </trkpt>
      <trkpt lat="42.27109" lon="2.25072">
        <ele>1301</ele>
        <time>2010-01-01T01:07:25Z</time>
      </trkpt>
      <trkpt lat="42.27106" lon="2.25073">
        <ele>1300</ele>
        <time>2010-01-01T01:07:26Z</time>
      </trkpt>
      <trkpt lat="42.27104" lon="2.25074">
        <ele>1300</ele>
        <time>2010-01-01T01:07:27Z</time>
      </trkpt>
      <trkpt lat="42.27097" lon="2.25074">
        <ele>1299</ele>
        <time>2010-01-01T01:07:29Z</time>
      </trkpt>
      <trkpt lat="42.27095" lon="2.25074">
        <ele>1299</ele>
        <time>2010-01-01T01:07:31Z</time>
      </trkpt>
      <trkpt lat="42.27091" lon="2.25075">
        <ele>1299</ele>
        <time>2010-01-01T01:07:32Z</time>
      </trkpt>
      <trkpt lat="42.27088" lon="2.25076">
        <ele>1298</ele>
        <time>2010-01-01T01:07:33Z</time>
      </trkpt>
      <trkpt lat="42.27085" lon="2.25076">
        <ele>1298</ele>
        <time>2010-01-01T01:07:34Z</time>
      </trkpt>
      <trkpt lat="42.27082" lon="2.25077">
        <ele>1298</ele>
        <time>2010-01-01T01:07:36Z</time>
      </trkpt>
      <trkpt lat="42.27079" lon="2.25078">
        <ele>1298</ele>
        <time>2010-01-01T01:07:37Z</time>
      </trkpt>
      <trkpt lat="42.27076" lon="2.25078">
        <ele>1297</ele>
        <time>2010-01-01T01:07:38Z</time>
      </trkpt>
      <trkpt lat="42.27073" lon="2.25078">
        <ele>1297</ele>
        <time>2010-01-01T01:07:39Z</time>
      </trkpt>
      <trkpt lat="42.2707" lon="2.25079">
        <ele>1297</ele>
        <time>2010-01-01T01:07:40Z</time>
      </trkpt>
      <trkpt lat="42.27067" lon="2.25081">
        <ele>1296</ele>
        <time>2010-01-01T01:07:42Z</time>
      </trkpt>
      <trkpt lat="42.27064" lon="2.25081">
        <ele>1296</ele>
        <time>2010-01-01T01:07:43Z</time>
      </trkpt>
      <trkpt lat="42.27061" lon="2.25082">
        <ele>1296</ele>
        <time>2010-01-01T01:07:44Z</time>
      </trkpt>
      <trkpt lat="42.27058" lon="2.25084">
        <ele>1296</ele>
        <time>2010-01-01T01:07:46Z</time>
      </trkpt>
      <trkpt lat="42.27048" lon="2.25089">
        <ele>1296</ele>
        <time>2010-01-01T01:07:50Z</time>
      </trkpt>
      <trkpt lat="42.27043" lon="2.25091">
        <ele>1295</ele>
        <time>2010-01-01T01:07:52Z</time>
      </trkpt>
      <trkpt lat="42.27041" lon="2.25091">
        <ele>1295</ele>
        <time>2010-01-01T01:07:53Z</time>
      </trkpt>
      <trkpt lat="42.27039" lon="2.25092">
        <ele>1295</ele>
        <time>2010-01-01T01:07:53Z</time>
      </trkpt>
      <trkpt lat="42.27036" lon="2.25094">
        <ele>1294</ele>
        <time>2010-01-01T01:07:55Z</time>
      </trkpt>
      <trkpt lat="42.27033" lon="2.25096">
        <ele>1294</ele>
        <time>2010-01-01T01:07:56Z</time>
      </trkpt>
      <trkpt lat="42.2703" lon="2.25099">
        <ele>1294</ele>
        <time>2010-01-01T01:07:58Z</time>
      </trkpt>
      <trkpt lat="42.27027" lon="2.25102">
        <ele>1294</ele>
        <time>2010-01-01T01:07:59Z</time>
      </trkpt>
      <trkpt lat="42.27025" lon="2.25105">
        <ele>1294</ele>
        <time>2010-01-01T01:08:00Z</time>
      </trkpt>
      <trkpt lat="42.27023" lon="2.25108">
        <ele>1294</ele>
        <time>2010-01-01T01:08:02Z</time>
      </trkpt>
      <trkpt lat="42.27022" lon="2.25112">
        <ele>1294</ele>
        <time>2010-01-01T01:08:03Z</time>
      </trkpt>
      <trkpt lat="42.2702" lon="2.25115">
        <ele>1294</ele>
        <time>2010-01-01T01:08:04Z</time>
      </trkpt>
      <trkpt lat="42.27019" lon="2.25119">
        <ele>1294</ele>
        <time>2010-01-01T01:08:05Z</time>
      </trkpt>
      <trkpt lat="42.27018" lon="2.25123">
        <ele>1295</ele>
        <time>2010-01-01T01:08:07Z</time>
      </trkpt>
      <trkpt lat="42.27016" lon="2.25127">
        <ele>1295</ele>
        <time>2010-01-01T01:08:08Z</time>
      </trkpt>
      <trkpt lat="42.27015" lon="2.25131">
        <ele>1296</ele>
        <time>2010-01-01T01:08:09Z</time>
      </trkpt>
      <trkpt lat="42.27014" lon="2.25135">
        <ele>1296</ele>
        <time>2010-01-01T01:08:10Z</time>
      </trkpt>
      <trkpt lat="42.27013" lon="2.2514">
        <ele>1297</ele>
        <time>2010-01-01T01:08:12Z</time>
      </trkpt>
      <trkpt lat="42.27012" lon="2.25144">
        <ele>1297</ele>
        <time>2010-01-01T01:08:13Z</time>
      </trkpt>
      <trkpt lat="42.27011" lon="2.25147">
        <ele>1296</ele>
        <time>2010-01-01T01:08:14Z</time>
      </trkpt>
      <trkpt lat="42.2701" lon="2.25151">
        <ele>1296</ele>
        <time>2010-01-01T01:08:15Z</time>
      </trkpt>
      <trkpt lat="42.27009" lon="2.25155">
        <ele>1295</ele>
        <time>2010-01-01T01:08:17Z</time>
      </trkpt>
      <trkpt lat="42.27007" lon="2.25159">
        <ele>1295</ele>
        <time>2010-01-01T01:08:18Z</time>
      </trkpt>
      <trkpt lat="42.27006" lon="2.25162">
        <ele>1294</ele>
        <time>2010-01-01T01:08:19Z</time>
      </trkpt>
      <trkpt lat="42.27004" lon="2.25166">
        <ele>1293</ele>
        <time>2010-01-01T01:08:20Z</time>
      </trkpt>
      <trkpt lat="42.27003" lon="2.2517">
        <ele>1293</ele>
        <time>2010-01-01T01:08:22Z</time>
      </trkpt>
      <trkpt lat="42.27002" lon="2.25174">
        <ele>1292</ele>
        <time>2010-01-01T01:08:23Z</time>
      </trkpt>
      <trkpt lat="42.27" lon="2.25179">
        <ele>1292</ele>
        <time>2010-01-01T01:08:24Z</time>
      </trkpt>
      <trkpt lat="42.27" lon="2.25183">
        <ele>1291</ele>
        <time>2010-01-01T01:08:26Z</time>
      </trkpt>
      <trkpt lat="42.26999" lon="2.25187">
        <ele>1291</ele>
        <time>2010-01-01T01:08:27Z</time>
      </trkpt>
      <trkpt lat="42.26998" lon="2.25192">
        <ele>1291</ele>
        <time>2010-01-01T01:08:28Z</time>
      </trkpt>
      <trkpt lat="42.26998" lon="2.25197">
        <ele>1291</ele>
        <time>2010-01-01T01:08:30Z</time>
      </trkpt>
      <trkpt lat="42.26998" lon="2.25202">
        <ele>1291</ele>
        <time>2010-01-01T01:08:32Z</time>
      </trkpt>
      <trkpt lat="42.26998" lon="2.25206">
        <ele>1291</ele>
        <time>2010-01-01T01:08:33Z</time>
      </trkpt>
      <trkpt lat="42.26998" lon="2.2521">
        <ele>1291</ele>
        <time>2010-01-01T01:08:34Z</time>
      </trkpt>
      <trkpt lat="42.26999" lon="2.25214">
        <ele>1292</ele>
        <time>2010-01-01T01:08:35Z</time>
      </trkpt>
      <trkpt lat="42.27" lon="2.25218">
        <ele>1292</ele>
        <time>2010-01-01T01:08:36Z</time>
      </trkpt>
      <trkpt lat="42.27001" lon="2.25221">
        <ele>1293</ele>
        <time>2010-01-01T01:08:37Z</time>
      </trkpt>
      <trkpt lat="42.27001" lon="2.25224">
        <ele>1293</ele>
        <time>2010-01-01T01:08:38Z</time>
      </trkpt>
      <trkpt lat="42.27003" lon="2.25227">
        <ele>1293</ele>
        <time>2010-01-01T01:08:39Z</time>
      </trkpt>
      <trkpt lat="42.27004" lon="2.2523">
        <ele>1294</ele>
        <time>2010-01-01T01:08:40Z</time>
      </trkpt>
      <trkpt lat="42.27005" lon="2.25233">
        <ele>1294</ele>
        <time>2010-01-01T01:08:41Z</time>
      </trkpt>
      <trkpt lat="42.27006" lon="2.25236">
        <ele>1294</ele>
        <time>2010-01-01T01:08:42Z</time>
      </trkpt>
      <trkpt lat="42.27007" lon="2.25239">
        <ele>1295</ele>
        <time>2010-01-01T01:08:43Z</time>
      </trkpt>
      <trkpt lat="42.27008" lon="2.25242">
        <ele>1295</ele>
        <time>2010-01-01T01:08:44Z</time>
      </trkpt>
      <trkpt lat="42.27009" lon="2.25246">
        <ele>1295</ele>
        <time>2010-01-01T01:08:45Z</time>
      </trkpt>
      <trkpt lat="42.2701" lon="2.25249">
        <ele>1295</ele>
        <time>2010-01-01T01:08:46Z</time>
      </trkpt>
      <trkpt lat="42.2701" lon="2.25253">
        <ele>1295</ele>
        <time>2010-01-01T01:08:48Z</time>
      </trkpt>
      <trkpt lat="42.27011" lon="2.25256">
        <ele>1295</ele>
        <time>2010-01-01T01:08:49Z</time>
      </trkpt>
      <trkpt lat="42.27011" lon="2.2526">
        <ele>1295</ele>
        <time>2010-01-01T01:08:50Z</time>
      </trkpt>
      <trkpt lat="42.27011" lon="2.25267">
        <ele>1295</ele>
        <time>2010-01-01T01:08:52Z</time>
      </trkpt>
      <trkpt lat="42.27011" lon="2.2527">
        <ele>1295</ele>
        <time>2010-01-01T01:08:53Z</time>
      </trkpt>
      <trkpt lat="42.27011" lon="2.25274">
        <ele>1295</ele>
        <time>2010-01-01T01:08:54Z</time>
      </trkpt>
      <trkpt lat="42.27011" lon="2.25277">
        <ele>1294</ele>
        <time>2010-01-01T01:08:55Z</time>
      </trkpt>
      <trkpt lat="42.27011" lon="2.25281">
        <ele>1294</ele>
        <time>2010-01-01T01:08:56Z</time>
      </trkpt>
      <trkpt lat="42.27011" lon="2.25284">
        <ele>1293</ele>
        <time>2010-01-01T01:08:57Z</time>
      </trkpt>
      <trkpt lat="42.27011" lon="2.25288">
        <ele>1292</ele>
        <time>2010-01-01T01:08:58Z</time>
      </trkpt>
      <trkpt lat="42.27011" lon="2.25291">
        <ele>1292</ele>
        <time>2010-01-01T01:08:59Z</time>
      </trkpt>
      <trkpt lat="42.27011" lon="2.25295">
        <ele>1291</ele>
        <time>2010-01-01T01:09:00Z</time>
      </trkpt>
      <trkpt lat="42.27011" lon="2.25299">
        <ele>1290</ele>
        <time>2010-01-01T01:09:01Z</time>
      </trkpt>
      <trkpt lat="42.27011" lon="2.25302">
        <ele>1290</ele>
        <time>2010-01-01T01:09:02Z</time>
      </trkpt>
      <trkpt lat="42.27012" lon="2.25307">
        <ele>1289</ele>
        <time>2010-01-01T01:09:03Z</time>
      </trkpt>
      <trkpt lat="42.27012" lon="2.25311">
        <ele>1288</ele>
        <time>2010-01-01T01:09:05Z</time>
      </trkpt>
      <trkpt lat="42.27012" lon="2.25319">
        <ele>1286</ele>
        <time>2010-01-01T01:09:07Z</time>
      </trkpt>
      <trkpt lat="42.27012" lon="2.25324">
        <ele>1285</ele>
        <time>2010-01-01T01:09:09Z</time>
      </trkpt>
      <trkpt lat="42.27012" lon="2.25328">
        <ele>1284</ele>
        <time>2010-01-01T01:09:10Z</time>
      </trkpt>
      <trkpt lat="42.27011" lon="2.25332">
        <ele>1284</ele>
        <time>2010-01-01T01:09:11Z</time>
      </trkpt>
      <trkpt lat="42.27011" lon="2.25336">
        <ele>1283</ele>
        <time>2010-01-01T01:09:12Z</time>
      </trkpt>
      <trkpt lat="42.27011" lon="2.25339">
        <ele>1282</ele>
        <time>2010-01-01T01:09:13Z</time>
      </trkpt>
      <trkpt lat="42.27012" lon="2.25343">
        <ele>1281</ele>
        <time>2010-01-01T01:09:14Z</time>
      </trkpt>
      <trkpt lat="42.27012" lon="2.25347">
        <ele>1280</ele>
        <time>2010-01-01T01:09:16Z</time>
      </trkpt>
      <trkpt lat="42.27012" lon="2.25352">
        <ele>1279</ele>
        <time>2010-01-01T01:09:17Z</time>
      </trkpt>
      <trkpt lat="42.27012" lon="2.25356">
        <ele>1278</ele>
        <time>2010-01-01T01:09:18Z</time>
      </trkpt>
      <trkpt lat="42.27013" lon="2.2536">
        <ele>1277</ele>
        <time>2010-01-01T01:09:19Z</time>
      </trkpt>
      <trkpt lat="42.27013" lon="2.25364">
        <ele>1276</ele>
        <time>2010-01-01T01:09:20Z</time>
      </trkpt>
      <trkpt lat="42.27014" lon="2.25367">
        <ele>1276</ele>
        <time>2010-01-01T01:09:22Z</time>
      </trkpt>
      <trkpt lat="42.27015" lon="2.2537">
        <ele>1275</ele>
        <time>2010-01-01T01:09:23Z</time>
      </trkpt>
      <trkpt lat="42.27016" lon="2.25374">
        <ele>1274</ele>
        <time>2010-01-01T01:09:24Z</time>
      </trkpt>
      <trkpt lat="42.27017" lon="2.25377">
        <ele>1273</ele>
        <time>2010-01-01T01:09:25Z</time>
      </trkpt>
      <trkpt lat="42.27018" lon="2.2538">
        <ele>1273</ele>
        <time>2010-01-01T01:09:26Z</time>
      </trkpt>
      <trkpt lat="42.27019" lon="2.25383">
        <ele>1272</ele>
        <time>2010-01-01T01:09:27Z</time>
      </trkpt>
      <trkpt lat="42.2702" lon="2.25386">
        <ele>1271</ele>
        <time>2010-01-01T01:09:28Z</time>
      </trkpt>
      <trkpt lat="42.2702" lon="2.2539">
        <ele>1270</ele>
        <time>2010-01-01T01:09:29Z</time>
      </trkpt>
      <trkpt lat="42.27021" lon="2.25393">
        <ele>1269</ele>
        <time>2010-01-01T01:09:30Z</time>
      </trkpt>
      <trkpt lat="42.27021" lon="2.25397">
        <ele>1269</ele>
        <time>2010-01-01T01:09:31Z</time>
      </trkpt>
      <trkpt lat="42.27022" lon="2.25401">
        <ele>1268</ele>
        <time>2010-01-01T01:09:32Z</time>
      </trkpt>
      <trkpt lat="42.27022" lon="2.25405">
        <ele>1267</ele>
        <time>2010-01-01T01:09:33Z</time>
      </trkpt>
      <trkpt lat="42.27022" lon="2.25408">
        <ele>1266</ele>
        <time>2010-01-01T01:09:34Z</time>
      </trkpt>
      <trkpt lat="42.27023" lon="2.25412">
        <ele>1265</ele>
        <time>2010-01-01T01:09:35Z</time>
      </trkpt>
      <trkpt lat="42.27023" lon="2.25416">
        <ele>1264</ele>
        <time>2010-01-01T01:09:37Z</time>
      </trkpt>
      <trkpt lat="42.27023" lon="2.2542">
        <ele>1264</ele>
        <time>2010-01-01T01:09:38Z</time>
      </trkpt>
      <trkpt lat="42.27024" lon="2.25424">
        <ele>1264</ele>
        <time>2010-01-01T01:09:39Z</time>
      </trkpt>
      <trkpt lat="42.27025" lon="2.25428">
        <ele>1263</ele>
        <time>2010-01-01T01:09:40Z</time>
      </trkpt>
      <trkpt lat="42.27026" lon="2.25431">
        <ele>1263</ele>
        <time>2010-01-01T01:09:41Z</time>
      </trkpt>
      <trkpt lat="42.27028" lon="2.25434">
        <ele>1263</ele>
        <time>2010-01-01T01:09:42Z</time>
      </trkpt>
      <trkpt lat="42.27029" lon="2.25437">
        <ele>1263</ele>
        <time>2010-01-01T01:09:44Z</time>
      </trkpt>
      <trkpt lat="42.27031" lon="2.2544">
        <ele>1262</ele>
        <time>2010-01-01T01:09:45Z</time>
      </trkpt>
      <trkpt lat="42.27033" lon="2.25441">
        <ele>1263</ele>
        <time>2010-01-01T01:09:45Z</time>
      </trkpt>
      <trkpt lat="42.27035" lon="2.25442">
        <ele>1263</ele>
        <time>2010-01-01T01:09:46Z</time>
      </trkpt>
      <trkpt lat="42.27038" lon="2.25443">
        <ele>1263</ele>
        <time>2010-01-01T01:09:47Z</time>
      </trkpt>
      <trkpt lat="42.2704" lon="2.25445">
        <ele>1263</ele>
        <time>2010-01-01T01:09:48Z</time>
      </trkpt>
      <trkpt lat="42.27042" lon="2.25446">
        <ele>1263</ele>
        <time>2010-01-01T01:09:49Z</time>
      </trkpt>
      <trkpt lat="42.27044" lon="2.25446">
        <ele>1263</ele>
        <time>2010-01-01T01:09:50Z</time>
      </trkpt>
      <trkpt lat="42.27047" lon="2.25447">
        <ele>1263</ele>
        <time>2010-01-01T01:09:51Z</time>
      </trkpt>
      <trkpt lat="42.2705" lon="2.25448">
        <ele>1264</ele>
        <time>2010-01-01T01:09:52Z</time>
      </trkpt>
      <trkpt lat="42.27052" lon="2.25448">
        <ele>1264</ele>
        <time>2010-01-01T01:09:53Z</time>
      </trkpt>
      <trkpt lat="42.27055" lon="2.25448">
        <ele>1264</ele>
        <time>2010-01-01T01:09:54Z</time>
      </trkpt>
      <trkpt lat="42.27057" lon="2.25449">
        <ele>1264</ele>
        <time>2010-01-01T01:09:55Z</time>
      </trkpt>
      <trkpt lat="42.2706" lon="2.25451">
        <ele>1264</ele>
        <time>2010-01-01T01:09:57Z</time>
      </trkpt>
      <trkpt lat="42.27062" lon="2.25453">
        <ele>1265</ele>
        <time>2010-01-01T01:09:58Z</time>
      </trkpt>
      <trkpt lat="42.27064" lon="2.25455">
        <ele>1265</ele>
        <time>2010-01-01T01:09:59Z</time>
      </trkpt>
      <trkpt lat="42.27066" lon="2.25458">
        <ele>1264</ele>
        <time>2010-01-01T01:10:00Z</time>
      </trkpt>
      <trkpt lat="42.27066" lon="2.25471">
        <ele>1263</ele>
        <time>2010-01-01T01:10:04Z</time>
      </trkpt>
      <trkpt lat="42.27065" lon="2.25478">
        <ele>1264</ele>
        <time>2010-01-01T01:10:06Z</time>
      </trkpt>
      <trkpt lat="42.27064" lon="2.2548">
        <ele>1264</ele>
        <time>2010-01-01T01:10:07Z</time>
      </trkpt>
      <trkpt lat="42.27062" lon="2.25482">
        <ele>1264</ele>
        <time>2010-01-01T01:10:07Z</time>
      </trkpt>
      <trkpt lat="42.27059" lon="2.25485">
        <ele>1263</ele>
        <time>2010-01-01T01:10:09Z</time>
      </trkpt>
      <trkpt lat="42.27056" lon="2.25486">
        <ele>1263</ele>
        <time>2010-01-01T01:10:10Z</time>
      </trkpt>
      <trkpt lat="42.27053" lon="2.25487">
        <ele>1263</ele>
        <time>2010-01-01T01:10:11Z</time>
      </trkpt>
      <trkpt lat="42.27045" lon="2.25495">
        <ele>1263</ele>
        <time>2010-01-01T01:10:15Z</time>
      </trkpt>
      <trkpt lat="42.27043" lon="2.25497">
        <ele>1262</ele>
        <time>2010-01-01T01:10:16Z</time>
      </trkpt>
      <trkpt lat="42.2704" lon="2.25498">
        <ele>1262</ele>
        <time>2010-01-01T01:10:17Z</time>
      </trkpt>
      <trkpt lat="42.27038" lon="2.25499">
        <ele>1262</ele>
        <time>2010-01-01T01:10:18Z</time>
      </trkpt>
      <trkpt lat="42.27036" lon="2.255">
        <ele>1262</ele>
        <time>2010-01-01T01:10:19Z</time>
      </trkpt>
      <trkpt lat="42.27034" lon="2.25502">
        <ele>1262</ele>
        <time>2010-01-01T01:10:20Z</time>
      </trkpt>
      <trkpt lat="42.27032" lon="2.25503">
        <ele>1263</ele>
        <time>2010-01-01T01:10:21Z</time>
      </trkpt>
      <trkpt lat="42.2703" lon="2.25505">
        <ele>1263</ele>
        <time>2010-01-01T01:10:22Z</time>
      </trkpt>
      <trkpt lat="42.27029" lon="2.25506">
        <ele>1263</ele>
        <time>2010-01-01T01:10:23Z</time>
      </trkpt>
      <trkpt lat="42.27026" lon="2.25508">
        <ele>1263</ele>
        <time>2010-01-01T01:10:24Z</time>
      </trkpt>
      <trkpt lat="42.27024" lon="2.2551">
        <ele>1263</ele>
        <time>2010-01-01T01:10:25Z</time>
      </trkpt>
      <trkpt lat="42.27023" lon="2.25511">
        <ele>1262</ele>
        <time>2010-01-01T01:10:26Z</time>
      </trkpt>
      <trkpt lat="42.27019" lon="2.25513">
        <ele>1262</ele>
        <time>2010-01-01T01:10:27Z</time>
      </trkpt>
      <trkpt lat="42.27017" lon="2.25514">
        <ele>1262</ele>
        <time>2010-01-01T01:10:28Z</time>
      </trkpt>
      <trkpt lat="42.27014" lon="2.25516">
        <ele>1262</ele>
        <time>2010-01-01T01:10:29Z</time>
      </trkpt>
      <trkpt lat="42.27012" lon="2.25518">
        <ele>1262</ele>
        <time>2010-01-01T01:10:30Z</time>
      </trkpt>
      <trkpt lat="42.2701" lon="2.25519">
        <ele>1261</ele>
        <time>2010-01-01T01:10:31Z</time>
      </trkpt>
      <trkpt lat="42.27008" lon="2.2552">
        <ele>1261</ele>
        <time>2010-01-01T01:10:32Z</time>
      </trkpt>
      <trkpt lat="42.27007" lon="2.25521">
        <ele>1261</ele>
        <time>2010-01-01T01:10:33Z</time>
      </trkpt>
      <trkpt lat="42.27005" lon="2.25522">
        <ele>1261</ele>
        <time>2010-01-01T01:10:33Z</time>
      </trkpt>
      <trkpt lat="42.27001" lon="2.25524">
        <ele>1260</ele>
        <time>2010-01-01T01:10:35Z</time>
      </trkpt>
      <trkpt lat="42.26998" lon="2.25527">
        <ele>1260</ele>
        <time>2010-01-01T01:10:36Z</time>
      </trkpt>
      <trkpt lat="42.26997" lon="2.25528">
        <ele>1259</ele>
        <time>2010-01-01T01:10:37Z</time>
      </trkpt>
      <trkpt lat="42.26994" lon="2.25531">
        <ele>1259</ele>
        <time>2010-01-01T01:10:38Z</time>
      </trkpt>
      <trkpt lat="42.26991" lon="2.25533">
        <ele>1259</ele>
        <time>2010-01-01T01:10:40Z</time>
      </trkpt>
      <trkpt lat="42.26989" lon="2.25535">
        <ele>1258</ele>
        <time>2010-01-01T01:10:41Z</time>
      </trkpt>
      <trkpt lat="42.26986" lon="2.25538">
        <ele>1258</ele>
        <time>2010-01-01T01:10:42Z</time>
      </trkpt>
      <trkpt lat="42.26983" lon="2.25541">
        <ele>1258</ele>
        <time>2010-01-01T01:10:44Z</time>
      </trkpt>
      <trkpt lat="42.2698" lon="2.25543">
        <ele>1257</ele>
        <time>2010-01-01T01:10:45Z</time>
      </trkpt>
      <trkpt lat="42.26978" lon="2.25545">
        <ele>1257</ele>
        <time>2010-01-01T01:10:46Z</time>
      </trkpt>
      <trkpt lat="42.26975" lon="2.25547">
        <ele>1256</ele>
        <time>2010-01-01T01:10:48Z</time>
      </trkpt>
      <trkpt lat="42.26972" lon="2.25549">
        <ele>1256</ele>
        <time>2010-01-01T01:10:49Z</time>
      </trkpt>
      <trkpt lat="42.26969" lon="2.25551">
        <ele>1256</ele>
        <time>2010-01-01T01:10:50Z</time>
      </trkpt>
      <trkpt lat="42.26966" lon="2.25553">
        <ele>1255</ele>
        <time>2010-01-01T01:10:51Z</time>
      </trkpt>
      <trkpt lat="42.26964" lon="2.25555">
        <ele>1255</ele>
        <time>2010-01-01T01:10:53Z</time>
      </trkpt>
      <trkpt lat="42.26961" lon="2.25557">
        <ele>1255</ele>
        <time>2010-01-01T01:10:54Z</time>
      </trkpt>
      <trkpt lat="42.26958" lon="2.25558">
        <ele>1255</ele>
        <time>2010-01-01T01:10:55Z</time>
      </trkpt>
      <trkpt lat="42.26955" lon="2.2556">
        <ele>1254</ele>
        <time>2010-01-01T01:10:57Z</time>
      </trkpt>
      <trkpt lat="42.26951" lon="2.25561">
        <ele>1254</ele>
        <time>2010-01-01T01:10:58Z</time>
      </trkpt>
      <trkpt lat="42.26948" lon="2.25563">
        <ele>1253</ele>
        <time>2010-01-01T01:10:59Z</time>
      </trkpt>
      <trkpt lat="42.26946" lon="2.25564">
        <ele>1253</ele>
        <time>2010-01-01T01:11:00Z</time>
      </trkpt>
      <trkpt lat="42.26943" lon="2.25567">
        <ele>1253</ele>
        <time>2010-01-01T01:11:02Z</time>
      </trkpt>
      <trkpt lat="42.26942" lon="2.25569">
        <ele>1253</ele>
        <time>2010-01-01T01:11:02Z</time>
      </trkpt>
      <trkpt lat="42.26939" lon="2.25571">
        <ele>1253</ele>
        <time>2010-01-01T01:11:04Z</time>
      </trkpt>
      <trkpt lat="42.26937" lon="2.25572">
        <ele>1253</ele>
        <time>2010-01-01T01:11:04Z</time>
      </trkpt>
      <trkpt lat="42.26934" lon="2.25574">
        <ele>1253</ele>
        <time>2010-01-01T01:11:06Z</time>
      </trkpt>
      <trkpt lat="42.26931" lon="2.25576">
        <ele>1253</ele>
        <time>2010-01-01T01:11:07Z</time>
      </trkpt>
      <trkpt lat="42.26928" lon="2.25578">
        <ele>1253</ele>
        <time>2010-01-01T01:11:09Z</time>
      </trkpt>
      <trkpt lat="42.26925" lon="2.2558">
        <ele>1253</ele>
        <time>2010-01-01T01:11:10Z</time>
      </trkpt>
      <trkpt lat="42.26923" lon="2.25581">
        <ele>1253</ele>
        <time>2010-01-01T01:11:11Z</time>
      </trkpt>
      <trkpt lat="42.26921" lon="2.25582">
        <ele>1253</ele>
        <time>2010-01-01T01:11:12Z</time>
      </trkpt>
      <trkpt lat="42.26919" lon="2.25585">
        <ele>1253</ele>
        <time>2010-01-01T01:11:13Z</time>
      </trkpt>
      <trkpt lat="42.26916" lon="2.25587">
        <ele>1253</ele>
        <time>2010-01-01T01:11:14Z</time>
      </trkpt>
      <trkpt lat="42.26914" lon="2.25588">
        <ele>1253</ele>
        <time>2010-01-01T01:11:15Z</time>
      </trkpt>
      <trkpt lat="42.26911" lon="2.25591">
        <ele>1253</ele>
        <time>2010-01-01T01:11:16Z</time>
      </trkpt>
      <trkpt lat="42.26909" lon="2.25594">
        <ele>1254</ele>
        <time>2010-01-01T01:11:18Z</time>
      </trkpt>
      <trkpt lat="42.26906" lon="2.25598">
        <ele>1254</ele>
        <time>2010-01-01T01:11:19Z</time>
      </trkpt>
      <trkpt lat="42.26904" lon="2.25601">
        <ele>1254</ele>
        <time>2010-01-01T01:11:20Z</time>
      </trkpt>
      <trkpt lat="42.26902" lon="2.25604">
        <ele>1255</ele>
        <time>2010-01-01T01:11:22Z</time>
      </trkpt>
      <trkpt lat="42.269" lon="2.25608">
        <ele>1255</ele>
        <time>2010-01-01T01:11:23Z</time>
      </trkpt>
      <trkpt lat="42.26898" lon="2.25611">
        <ele>1255</ele>
        <time>2010-01-01T01:11:24Z</time>
      </trkpt>
      <trkpt lat="42.26897" lon="2.25615">
        <ele>1255</ele>
        <time>2010-01-01T01:11:26Z</time>
      </trkpt>
      <trkpt lat="42.26896" lon="2.25619">
        <ele>1255</ele>
        <time>2010-01-01T01:11:27Z</time>
      </trkpt>
      <trkpt lat="42.26894" lon="2.25623">
        <ele>1256</ele>
        <time>2010-01-01T01:11:28Z</time>
      </trkpt>
      <trkpt lat="42.26893" lon="2.25628">
        <ele>1256</ele>
        <time>2010-01-01T01:11:30Z</time>
      </trkpt>
      <trkpt lat="42.26892" lon="2.25632">
        <ele>1256</ele>
        <time>2010-01-01T01:11:31Z</time>
      </trkpt>
      <trkpt lat="42.26891" lon="2.25636">
        <ele>1256</ele>
        <time>2010-01-01T01:11:32Z</time>
      </trkpt>
      <trkpt lat="42.2689" lon="2.2564">
        <ele>1256</ele>
        <time>2010-01-01T01:11:33Z</time>
      </trkpt>
      <trkpt lat="42.26889" lon="2.25644">
        <ele>1256</ele>
        <time>2010-01-01T01:11:35Z</time>
      </trkpt>
      <trkpt lat="42.26888" lon="2.25648">
        <ele>1257</ele>
        <time>2010-01-01T01:11:36Z</time>
      </trkpt>
      <trkpt lat="42.26887" lon="2.25652">
        <ele>1257</ele>
        <time>2010-01-01T01:11:37Z</time>
      </trkpt>
      <trkpt lat="42.26886" lon="2.25655">
        <ele>1257</ele>
        <time>2010-01-01T01:11:38Z</time>
      </trkpt>
      <trkpt lat="42.26884" lon="2.25658">
        <ele>1257</ele>
        <time>2010-01-01T01:11:39Z</time>
      </trkpt>
      <trkpt lat="42.26883" lon="2.25662">
        <ele>1257</ele>
        <time>2010-01-01T01:11:41Z</time>
      </trkpt>
      <trkpt lat="42.26881" lon="2.25665">
        <ele>1257</ele>
        <time>2010-01-01T01:11:42Z</time>
      </trkpt>
      <trkpt lat="42.26879" lon="2.25669">
        <ele>1257</ele>
        <time>2010-01-01T01:11:43Z</time>
      </trkpt>
      <trkpt lat="42.26877" lon="2.25672">
        <ele>1257</ele>
        <time>2010-01-01T01:11:45Z</time>
      </trkpt>
      <trkpt lat="42.26875" lon="2.25676">
        <ele>1257</ele>
        <time>2010-01-01T01:11:46Z</time>
      </trkpt>
      <trkpt lat="42.26873" lon="2.25679">
        <ele>1257</ele>
        <time>2010-01-01T01:11:47Z</time>
      </trkpt>
      <trkpt lat="42.26871" lon="2.25683">
        <ele>1257</ele>
        <time>2010-01-01T01:11:48Z</time>
      </trkpt>
      <trkpt lat="42.26869" lon="2.25686">
        <ele>1257</ele>
        <time>2010-01-01T01:11:50Z</time>
      </trkpt>
      <trkpt lat="42.26867" lon="2.2569">
        <ele>1258</ele>
        <time>2010-01-01T01:11:51Z</time>
      </trkpt>
      <trkpt lat="42.26865" lon="2.25693">
        <ele>1258</ele>
        <time>2010-01-01T01:11:52Z</time>
      </trkpt>
      <trkpt lat="42.26863" lon="2.25696">
        <ele>1258</ele>
        <time>2010-01-01T01:11:53Z</time>
      </trkpt>
      <trkpt lat="42.26861" lon="2.25699">
        <ele>1258</ele>
        <time>2010-01-01T01:11:55Z</time>
      </trkpt>
      <trkpt lat="42.2686" lon="2.25702">
        <ele>1257</ele>
        <time>2010-01-01T01:11:56Z</time>
      </trkpt>
      <trkpt lat="42.26858" lon="2.25705">
        <ele>1257</ele>
        <time>2010-01-01T01:11:57Z</time>
      </trkpt>
      <trkpt lat="42.26856" lon="2.25708">
        <ele>1256</ele>
        <time>2010-01-01T01:11:58Z</time>
      </trkpt>
      <trkpt lat="42.26854" lon="2.25711">
        <ele>1256</ele>
        <time>2010-01-01T01:11:59Z</time>
      </trkpt>
      <trkpt lat="42.26853" lon="2.25715">
        <ele>1256</ele>
        <time>2010-01-01T01:12:00Z</time>
      </trkpt>
      <trkpt lat="42.26851" lon="2.25718">
        <ele>1256</ele>
        <time>2010-01-01T01:12:01Z</time>
      </trkpt>
      <trkpt lat="42.2685" lon="2.25721">
        <ele>1255</ele>
        <time>2010-01-01T01:12:03Z</time>
      </trkpt>
      <trkpt lat="42.26848" lon="2.25725">
        <ele>1255</ele>
        <time>2010-01-01T01:12:04Z</time>
      </trkpt>
      <trkpt lat="42.26847" lon="2.25728">
        <ele>1255</ele>
        <time>2010-01-01T01:12:05Z</time>
      </trkpt>
      <trkpt lat="42.26846" lon="2.25732">
        <ele>1255</ele>
        <time>2010-01-01T01:12:06Z</time>
      </trkpt>
      <trkpt lat="42.26845" lon="2.25738">
        <ele>1255</ele>
        <time>2010-01-01T01:12:08Z</time>
      </trkpt>
      <trkpt lat="42.26844" lon="2.25742">
        <ele>1255</ele>
        <time>2010-01-01T01:12:09Z</time>
      </trkpt>
      <trkpt lat="42.26844" lon="2.25746">
        <ele>1255</ele>
        <time>2010-01-01T01:12:10Z</time>
      </trkpt>
      <trkpt lat="42.26844" lon="2.2575">
        <ele>1255</ele>
        <time>2010-01-01T01:12:12Z</time>
      </trkpt>
      <trkpt lat="42.26844" lon="2.25759">
        <ele>1255</ele>
        <time>2010-01-01T01:12:14Z</time>
      </trkpt>
      <trkpt lat="42.26844" lon="2.25763">
        <ele>1255</ele>
        <time>2010-01-01T01:12:15Z</time>
      </trkpt>
      <trkpt lat="42.26844" lon="2.25767">
        <ele>1255</ele>
        <time>2010-01-01T01:12:17Z</time>
      </trkpt>
      <trkpt lat="42.26845" lon="2.25771">
        <ele>1255</ele>
        <time>2010-01-01T01:12:18Z</time>
      </trkpt>
      <trkpt lat="42.26845" lon="2.25776">
        <ele>1255</ele>
        <time>2010-01-01T01:12:19Z</time>
      </trkpt>
      <trkpt lat="42.26845" lon="2.2578">
        <ele>1255</ele>
        <time>2010-01-01T01:12:20Z</time>
      </trkpt>
      <trkpt lat="42.26846" lon="2.25784">
        <ele>1255</ele>
        <time>2010-01-01T01:12:22Z</time>
      </trkpt>
      <trkpt lat="42.26846" lon="2.25788">
        <ele>1255</ele>
        <time>2010-01-01T01:12:23Z</time>
      </trkpt>
      <trkpt lat="42.26847" lon="2.25792">
        <ele>1255</ele>
        <time>2010-01-01T01:12:24Z</time>
      </trkpt>
      <trkpt lat="42.26847" lon="2.25796">
        <ele>1255</ele>
        <time>2010-01-01T01:12:25Z</time>
      </trkpt>
      <trkpt lat="42.26848" lon="2.258">
        <ele>1255</ele>
        <time>2010-01-01T01:12:27Z</time>
      </trkpt>
      <trkpt lat="42.26849" lon="2.25804">
        <ele>1256</ele>
        <time>2010-01-01T01:12:28Z</time>
      </trkpt>
      <trkpt lat="42.2685" lon="2.25808">
        <ele>1256</ele>
        <time>2010-01-01T01:12:29Z</time>
      </trkpt>
      <trkpt lat="42.26851" lon="2.25812">
        <ele>1256</ele>
        <time>2010-01-01T01:12:30Z</time>
      </trkpt>
      <trkpt lat="42.26852" lon="2.25816">
        <ele>1256</ele>
        <time>2010-01-01T01:12:32Z</time>
      </trkpt>
      <trkpt lat="42.26854" lon="2.2582">
        <ele>1257</ele>
        <time>2010-01-01T01:12:33Z</time>
      </trkpt>
      <trkpt lat="42.26855" lon="2.25824">
        <ele>1257</ele>
        <time>2010-01-01T01:12:34Z</time>
      </trkpt>
      <trkpt lat="42.26856" lon="2.25827">
        <ele>1257</ele>
        <time>2010-01-01T01:12:35Z</time>
      </trkpt>
      <trkpt lat="42.26857" lon="2.25831">
        <ele>1257</ele>
        <time>2010-01-01T01:12:36Z</time>
      </trkpt>
      <trkpt lat="42.26858" lon="2.25835">
        <ele>1257</ele>
        <time>2010-01-01T01:12:38Z</time>
      </trkpt>
      <trkpt lat="42.2686" lon="2.25839">
        <ele>1258</ele>
        <time>2010-01-01T01:12:39Z</time>
      </trkpt>
      <trkpt lat="42.26861" lon="2.25842">
        <ele>1257</ele>
        <time>2010-01-01T01:12:40Z</time>
      </trkpt>
      <trkpt lat="42.26862" lon="2.25846">
        <ele>1257</ele>
        <time>2010-01-01T01:12:41Z</time>
      </trkpt>
      <trkpt lat="42.26863" lon="2.25849">
        <ele>1257</ele>
        <time>2010-01-01T01:12:42Z</time>
      </trkpt>
      <trkpt lat="42.26864" lon="2.25853">
        <ele>1257</ele>
        <time>2010-01-01T01:12:44Z</time>
      </trkpt>
      <trkpt lat="42.26865" lon="2.25857">
        <ele>1257</ele>
        <time>2010-01-01T01:12:45Z</time>
      </trkpt>
      <trkpt lat="42.26866" lon="2.25861">
        <ele>1257</ele>
        <time>2010-01-01T01:12:46Z</time>
      </trkpt>
      <trkpt lat="42.26868" lon="2.25864">
        <ele>1257</ele>
        <time>2010-01-01T01:12:47Z</time>
      </trkpt>
      <trkpt lat="42.26869" lon="2.25868">
        <ele>1257</ele>
        <time>2010-01-01T01:12:48Z</time>
      </trkpt>
      <trkpt lat="42.26871" lon="2.25872">
        <ele>1257</ele>
        <time>2010-01-01T01:12:50Z</time>
      </trkpt>
      <trkpt lat="42.26872" lon="2.25876">
        <ele>1258</ele>
        <time>2010-01-01T01:12:51Z</time>
      </trkpt>
      <trkpt lat="42.26873" lon="2.25879">
        <ele>1258</ele>
        <time>2010-01-01T01:12:52Z</time>
      </trkpt>
      <trkpt lat="42.26875" lon="2.25883">
        <ele>1258</ele>
        <time>2010-01-01T01:12:53Z</time>
      </trkpt>
      <trkpt lat="42.26876" lon="2.25887">
        <ele>1258</ele>
        <time>2010-01-01T01:12:55Z</time>
      </trkpt>
      <trkpt lat="42.26877" lon="2.25891">
        <ele>1258</ele>
        <time>2010-01-01T01:12:56Z</time>
      </trkpt>
      <trkpt lat="42.26878" lon="2.25895">
        <ele>1258</ele>
        <time>2010-01-01T01:12:57Z</time>
      </trkpt>
      <trkpt lat="42.26878" lon="2.25899">
        <ele>1259</ele>
        <time>2010-01-01T01:12:58Z</time>
      </trkpt>
      <trkpt lat="42.26879" lon="2.25904">
        <ele>1259</ele>
        <time>2010-01-01T01:13:00Z</time>
      </trkpt>
      <trkpt lat="42.26879" lon="2.25908">
        <ele>1259</ele>
        <time>2010-01-01T01:13:01Z</time>
      </trkpt>
      <trkpt lat="42.26878" lon="2.25912">
        <ele>1259</ele>
        <time>2010-01-01T01:13:02Z</time>
      </trkpt>
      <trkpt lat="42.26877" lon="2.25916">
        <ele>1259</ele>
        <time>2010-01-01T01:13:03Z</time>
      </trkpt>
      <trkpt lat="42.26876" lon="2.25919">
        <ele>1259</ele>
        <time>2010-01-01T01:13:05Z</time>
      </trkpt>
      <trkpt lat="42.26875" lon="2.25923">
        <ele>1259</ele>
        <time>2010-01-01T01:13:06Z</time>
      </trkpt>
      <trkpt lat="42.26873" lon="2.25927">
        <ele>1258</ele>
        <time>2010-01-01T01:13:07Z</time>
      </trkpt>
      <trkpt lat="42.26871" lon="2.2593">
        <ele>1258</ele>
        <time>2010-01-01T01:13:08Z</time>
      </trkpt>
      <trkpt lat="42.26869" lon="2.25934">
        <ele>1258</ele>
        <time>2010-01-01T01:13:10Z</time>
      </trkpt>
      <trkpt lat="42.26868" lon="2.25937">
        <ele>1258</ele>
        <time>2010-01-01T01:13:11Z</time>
      </trkpt>
      <trkpt lat="42.26866" lon="2.25941">
        <ele>1258</ele>
        <time>2010-01-01T01:13:12Z</time>
      </trkpt>
      <trkpt lat="42.26865" lon="2.25944">
        <ele>1258</ele>
        <time>2010-01-01T01:13:13Z</time>
      </trkpt>
      <trkpt lat="42.26863" lon="2.25948">
        <ele>1257</ele>
        <time>2010-01-01T01:13:15Z</time>
      </trkpt>
      <trkpt lat="42.26861" lon="2.25951">
        <ele>1257</ele>
        <time>2010-01-01T01:13:16Z</time>
      </trkpt>
      <trkpt lat="42.2686" lon="2.25955">
        <ele>1257</ele>
        <time>2010-01-01T01:13:17Z</time>
      </trkpt>
      <trkpt lat="42.26859" lon="2.25959">
        <ele>1257</ele>
        <time>2010-01-01T01:13:18Z</time>
      </trkpt>
      <trkpt lat="42.26857" lon="2.25963">
        <ele>1257</ele>
        <time>2010-01-01T01:13:20Z</time>
      </trkpt>
      <trkpt lat="42.26856" lon="2.25967">
        <ele>1257</ele>
        <time>2010-01-01T01:13:21Z</time>
      </trkpt>
      <trkpt lat="42.26855" lon="2.25971">
        <ele>1257</ele>
        <time>2010-01-01T01:13:22Z</time>
      </trkpt>
      <trkpt lat="42.26854" lon="2.25976">
        <ele>1257</ele>
        <time>2010-01-01T01:13:24Z</time>
      </trkpt>
      <trkpt lat="42.26853" lon="2.2598">
        <ele>1257</ele>
        <time>2010-01-01T01:13:25Z</time>
      </trkpt>
      <trkpt lat="42.26852" lon="2.25984">
        <ele>1258</ele>
        <time>2010-01-01T01:13:26Z</time>
      </trkpt>
      <trkpt lat="42.26852" lon="2.25988">
        <ele>1258</ele>
        <time>2010-01-01T01:13:27Z</time>
      </trkpt>
      <trkpt lat="42.26852" lon="2.25992">
        <ele>1258</ele>
        <time>2010-01-01T01:13:29Z</time>
      </trkpt>
      <trkpt lat="42.26852" lon="2.25996">
        <ele>1258</ele>
        <time>2010-01-01T01:13:30Z</time>
      </trkpt>
      <trkpt lat="42.26852" lon="2.26001">
        <ele>1258</ele>
        <time>2010-01-01T01:13:31Z</time>
      </trkpt>
      <trkpt lat="42.26853" lon="2.26005">
        <ele>1258</ele>
        <time>2010-01-01T01:13:32Z</time>
      </trkpt>
      <trkpt lat="42.26853" lon="2.26009">
        <ele>1258</ele>
        <time>2010-01-01T01:13:34Z</time>
      </trkpt>
      <trkpt lat="42.26854" lon="2.26013">
        <ele>1258</ele>
        <time>2010-01-01T01:13:35Z</time>
      </trkpt>
      <trkpt lat="42.26854" lon="2.26018">
        <ele>1258</ele>
        <time>2010-01-01T01:13:36Z</time>
      </trkpt>
      <trkpt lat="42.26855" lon="2.26022">
        <ele>1258</ele>
        <time>2010-01-01T01:13:37Z</time>
      </trkpt>
      <trkpt lat="42.26856" lon="2.26026">
        <ele>1258</ele>
        <time>2010-01-01T01:13:39Z</time>
      </trkpt>
      <trkpt lat="42.26857" lon="2.26029">
        <ele>1258</ele>
        <time>2010-01-01T01:13:40Z</time>
      </trkpt>
      <trkpt lat="42.26857" lon="2.26033">
        <ele>1258</ele>
        <time>2010-01-01T01:13:41Z</time>
      </trkpt>
      <trkpt lat="42.26858" lon="2.26037">
        <ele>1258</ele>
        <time>2010-01-01T01:13:42Z</time>
      </trkpt>
      <trkpt lat="42.26859" lon="2.2604">
        <ele>1258</ele>
        <time>2010-01-01T01:13:43Z</time>
      </trkpt>
      <trkpt lat="42.2686" lon="2.26044">
        <ele>1258</ele>
        <time>2010-01-01T01:13:44Z</time>
      </trkpt>
      <trkpt lat="42.26861" lon="2.26048">
        <ele>1258</ele>
        <time>2010-01-01T01:13:46Z</time>
      </trkpt>
      <trkpt lat="42.26862" lon="2.26052">
        <ele>1258</ele>
        <time>2010-01-01T01:13:47Z</time>
      </trkpt>
      <trkpt lat="42.26863" lon="2.26056">
        <ele>1258</ele>
        <time>2010-01-01T01:13:48Z</time>
      </trkpt>
      <trkpt lat="42.26864" lon="2.2606">
        <ele>1257</ele>
        <time>2010-01-01T01:13:49Z</time>
      </trkpt>
      <trkpt lat="42.26865" lon="2.26064">
        <ele>1257</ele>
        <time>2010-01-01T01:13:51Z</time>
      </trkpt>
      <trkpt lat="42.26866" lon="2.26068">
        <ele>1256</ele>
        <time>2010-01-01T01:13:52Z</time>
      </trkpt>
      <trkpt lat="42.26867" lon="2.26071">
        <ele>1256</ele>
        <time>2010-01-01T01:13:53Z</time>
      </trkpt>
      <trkpt lat="42.26868" lon="2.26075">
        <ele>1255</ele>
        <time>2010-01-01T01:13:54Z</time>
      </trkpt>
      <trkpt lat="42.26869" lon="2.26079">
        <ele>1255</ele>
        <time>2010-01-01T01:13:55Z</time>
      </trkpt>
      <trkpt lat="42.2687" lon="2.26082">
        <ele>1254</ele>
        <time>2010-01-01T01:13:56Z</time>
      </trkpt>
      <trkpt lat="42.26871" lon="2.26086">
        <ele>1254</ele>
        <time>2010-01-01T01:13:58Z</time>
      </trkpt>
      <trkpt lat="42.26872" lon="2.2609">
        <ele>1254</ele>
        <time>2010-01-01T01:13:59Z</time>
      </trkpt>
      <trkpt lat="42.26873" lon="2.26094">
        <ele>1253</ele>
        <time>2010-01-01T01:14:00Z</time>
      </trkpt>
      <trkpt lat="42.26874" lon="2.26098">
        <ele>1253</ele>
        <time>2010-01-01T01:14:01Z</time>
      </trkpt>
      <trkpt lat="42.26874" lon="2.26102">
        <ele>1252</ele>
        <time>2010-01-01T01:14:02Z</time>
      </trkpt>
      <trkpt lat="42.26875" lon="2.26106">
        <ele>1252</ele>
        <time>2010-01-01T01:14:04Z</time>
      </trkpt>
      <trkpt lat="42.26876" lon="2.2611">
        <ele>1252</ele>
        <time>2010-01-01T01:14:05Z</time>
      </trkpt>
      <trkpt lat="42.26877" lon="2.26115">
        <ele>1251</ele>
        <time>2010-01-01T01:14:06Z</time>
      </trkpt>
      <trkpt lat="42.26876" lon="2.26124">
        <ele>1250</ele>
        <time>2010-01-01T01:14:09Z</time>
      </trkpt>
      <trkpt lat="42.26875" lon="2.26128">
        <ele>1250</ele>
        <time>2010-01-01T01:14:10Z</time>
      </trkpt>
      <trkpt lat="42.26874" lon="2.26132">
        <ele>1250</ele>
        <time>2010-01-01T01:14:12Z</time>
      </trkpt>
      <trkpt lat="42.26873" lon="2.26136">
        <ele>1249</ele>
        <time>2010-01-01T01:14:13Z</time>
      </trkpt>
      <trkpt lat="42.26872" lon="2.2614">
        <ele>1249</ele>
        <time>2010-01-01T01:14:14Z</time>
      </trkpt>
      <trkpt lat="42.26871" lon="2.26144">
        <ele>1249</ele>
        <time>2010-01-01T01:14:16Z</time>
      </trkpt>
      <trkpt lat="42.26869" lon="2.26148">
        <ele>1248</ele>
        <time>2010-01-01T01:14:17Z</time>
      </trkpt>
      <trkpt lat="42.26868" lon="2.26152">
        <ele>1248</ele>
        <time>2010-01-01T01:14:18Z</time>
      </trkpt>
      <trkpt lat="42.26867" lon="2.26157">
        <ele>1247</ele>
        <time>2010-01-01T01:14:20Z</time>
      </trkpt>
      <trkpt lat="42.26865" lon="2.26161">
        <ele>1247</ele>
        <time>2010-01-01T01:14:21Z</time>
      </trkpt>
      <trkpt lat="42.26865" lon="2.26165">
        <ele>1247</ele>
        <time>2010-01-01T01:14:22Z</time>
      </trkpt>
      <trkpt lat="42.26864" lon="2.26168">
        <ele>1246</ele>
        <time>2010-01-01T01:14:23Z</time>
      </trkpt>
      <trkpt lat="42.26863" lon="2.26171">
        <ele>1246</ele>
        <time>2010-01-01T01:14:24Z</time>
      </trkpt>
      <trkpt lat="42.26861" lon="2.26174">
        <ele>1246</ele>
        <time>2010-01-01T01:14:26Z</time>
      </trkpt>
      <trkpt lat="42.26859" lon="2.26176">
        <ele>1245</ele>
        <time>2010-01-01T01:14:26Z</time>
      </trkpt>
      <trkpt lat="42.26857" lon="2.26178">
        <ele>1245</ele>
        <time>2010-01-01T01:14:27Z</time>
      </trkpt>
      <trkpt lat="42.26855" lon="2.2618">
        <ele>1245</ele>
        <time>2010-01-01T01:14:28Z</time>
      </trkpt>
      <trkpt lat="42.26853" lon="2.26182">
        <ele>1246</ele>
        <time>2010-01-01T01:14:29Z</time>
      </trkpt>
      <trkpt lat="42.26851" lon="2.26184">
        <ele>1245</ele>
        <time>2010-01-01T01:14:31Z</time>
      </trkpt>
      <trkpt lat="42.26849" lon="2.26187">
        <ele>1245</ele>
        <time>2010-01-01T01:14:32Z</time>
      </trkpt>
      <trkpt lat="42.26847" lon="2.26191">
        <ele>1245</ele>
        <time>2010-01-01T01:14:33Z</time>
      </trkpt>
      <trkpt lat="42.26846" lon="2.26195">
        <ele>1245</ele>
        <time>2010-01-01T01:14:34Z</time>
      </trkpt>
      <trkpt lat="42.26844" lon="2.26198">
        <ele>1244</ele>
        <time>2010-01-01T01:14:35Z</time>
      </trkpt>
      <trkpt lat="42.26842" lon="2.26201">
        <ele>1244</ele>
        <time>2010-01-01T01:14:37Z</time>
      </trkpt>
      <trkpt lat="42.26838" lon="2.26212">
        <ele>1243</ele>
        <time>2010-01-01T01:14:40Z</time>
      </trkpt>
      <trkpt lat="42.26836" lon="2.26218">
        <ele>1242</ele>
        <time>2010-01-01T01:14:42Z</time>
      </trkpt>
      <trkpt lat="42.26834" lon="2.26221">
        <ele>1242</ele>
        <time>2010-01-01T01:14:43Z</time>
      </trkpt>
      <trkpt lat="42.26834" lon="2.26223">
        <ele>1241</ele>
        <time>2010-01-01T01:14:44Z</time>
      </trkpt>
      <trkpt lat="42.26831" lon="2.26231">
        <ele>1240</ele>
        <time>2010-01-01T01:14:47Z</time>
      </trkpt>
      <trkpt lat="42.2683" lon="2.26233">
        <ele>1240</ele>
        <time>2010-01-01T01:14:47Z</time>
      </trkpt>
      <trkpt lat="42.26828" lon="2.26243">
        <ele>1238</ele>
        <time>2010-01-01T01:14:51Z</time>
      </trkpt>
      <trkpt lat="42.26827" lon="2.26247">
        <ele>1238</ele>
        <time>2010-01-01T01:14:52Z</time>
      </trkpt>
      <trkpt lat="42.26826" lon="2.26253">
        <ele>1236</ele>
        <time>2010-01-01T01:14:53Z</time>
      </trkpt>
      <trkpt lat="42.26819" lon="2.26262">
        <ele>1235</ele>
        <time>2010-01-01T01:14:57Z</time>
      </trkpt>
      <trkpt lat="42.26817" lon="2.26263">
        <ele>1235</ele>
        <time>2010-01-01T01:14:59Z</time>
      </trkpt>
      <trkpt lat="42.26813" lon="2.26265">
        <ele>1235</ele>
        <time>2010-01-01T01:15:00Z</time>
      </trkpt>
      <trkpt lat="42.2681" lon="2.26267">
        <ele>1236</ele>
        <time>2010-01-01T01:15:01Z</time>
      </trkpt>
      <trkpt lat="42.26809" lon="2.26267">
        <ele>1236</ele>
        <time>2010-01-01T01:15:02Z</time>
      </trkpt>
      <trkpt lat="42.26804" lon="2.26268">
        <ele>1237</ele>
        <time>2010-01-01T01:15:04Z</time>
      </trkpt>
      <trkpt lat="42.26802" lon="2.26268">
        <ele>1238</ele>
        <time>2010-01-01T01:15:05Z</time>
      </trkpt>
      <trkpt lat="42.268" lon="2.26269">
        <ele>1239</ele>
        <time>2010-01-01T01:15:06Z</time>
      </trkpt>
      <trkpt lat="42.26798" lon="2.2627">
        <ele>1239</ele>
        <time>2010-01-01T01:15:06Z</time>
      </trkpt>
      <trkpt lat="42.26796" lon="2.26273">
        <ele>1239</ele>
        <time>2010-01-01T01:15:07Z</time>
      </trkpt>
      <trkpt lat="42.26794" lon="2.26275">
        <ele>1239</ele>
        <time>2010-01-01T01:15:08Z</time>
      </trkpt>
      <trkpt lat="42.26791" lon="2.26277">
        <ele>1240</ele>
        <time>2010-01-01T01:15:10Z</time>
      </trkpt>
      <trkpt lat="42.2679" lon="2.26278">
        <ele>1240</ele>
        <time>2010-01-01T01:15:11Z</time>
      </trkpt>
      <trkpt lat="42.26787" lon="2.2628">
        <ele>1241</ele>
        <time>2010-01-01T01:15:12Z</time>
      </trkpt>
      <trkpt lat="42.26784" lon="2.26283">
        <ele>1241</ele>
        <time>2010-01-01T01:15:13Z</time>
      </trkpt>
      <trkpt lat="42.26782" lon="2.26286">
        <ele>1241</ele>
        <time>2010-01-01T01:15:14Z</time>
      </trkpt>
      <trkpt lat="42.2678" lon="2.26288">
        <ele>1241</ele>
        <time>2010-01-01T01:15:15Z</time>
      </trkpt>
      <trkpt lat="42.26773" lon="2.26299">
        <ele>1241</ele>
        <time>2010-01-01T01:15:19Z</time>
      </trkpt>
      <trkpt lat="42.26765" lon="2.26308">
        <ele>1242</ele>
        <time>2010-01-01T01:15:24Z</time>
      </trkpt>
      <trkpt lat="42.26758" lon="2.26316">
        <ele>1243</ele>
        <time>2010-01-01T01:15:27Z</time>
      </trkpt>
      <trkpt lat="42.26756" lon="2.2633">
        <ele>1241</ele>
        <time>2010-01-01T01:15:32Z</time>
      </trkpt>
      <trkpt lat="42.26753" lon="2.26343">
        <ele>1238</ele>
        <time>2010-01-01T01:15:36Z</time>
      </trkpt>
      <trkpt lat="42.26745" lon="2.26353">
        <ele>1237</ele>
        <time>2010-01-01T01:15:40Z</time>
      </trkpt>
      <trkpt lat="42.26736" lon="2.26357">
        <ele>1239</ele>
        <time>2010-01-01T01:15:44Z</time>
      </trkpt>
      <trkpt lat="42.26727" lon="2.26363">
        <ele>1240</ele>
        <time>2010-01-01T01:15:48Z</time>
      </trkpt>
      <trkpt lat="42.2672" lon="2.26371">
        <ele>1239</ele>
        <time>2010-01-01T01:15:52Z</time>
      </trkpt>
      <trkpt lat="42.26716" lon="2.26383">
        <ele>1236</ele>
        <time>2010-01-01T01:15:56Z</time>
      </trkpt>
      <trkpt lat="42.26711" lon="2.26394">
        <ele>1232</ele>
        <time>2010-01-01T01:15:59Z</time>
      </trkpt>
      <trkpt lat="42.26702" lon="2.26399">
        <ele>1233</ele>
        <time>2010-01-01T01:16:04Z</time>
      </trkpt>
      <trkpt lat="42.26693" lon="2.26396">
        <ele>1237</ele>
        <time>2010-01-01T01:16:07Z</time>
      </trkpt>
      <trkpt lat="42.26683" lon="2.26398">
        <ele>1239</ele>
        <time>2010-01-01T01:16:11Z</time>
      </trkpt>
      <trkpt lat="42.26681" lon="2.26411">
        <ele>1234</ele>
        <time>2010-01-01T01:16:15Z</time>
      </trkpt>
      <trkpt lat="42.26679" lon="2.26423">
        <ele>1230</ele>
        <time>2010-01-01T01:16:19Z</time>
      </trkpt>
      <trkpt lat="42.2667" lon="2.2643">
        <ele>1229</ele>
        <time>2010-01-01T01:16:23Z</time>
      </trkpt>
      <trkpt lat="42.26664" lon="2.2644">
        <ele>1227</ele>
        <time>2010-01-01T01:16:27Z</time>
      </trkpt>
      <trkpt lat="42.26656" lon="2.26447">
        <ele>1228</ele>
        <time>2010-01-01T01:16:31Z</time>
      </trkpt>
      <trkpt lat="42.26653" lon="2.26448">
        <ele>1229</ele>
        <time>2010-01-01T01:16:32Z</time>
      </trkpt>
      <trkpt lat="42.26651" lon="2.26449">
        <ele>1230</ele>
        <time>2010-01-01T01:16:33Z</time>
      </trkpt>
      <trkpt lat="42.2665" lon="2.26451">
        <ele>1229</ele>
        <time>2010-01-01T01:16:33Z</time>
      </trkpt>
      <trkpt lat="42.2665" lon="2.26454">
        <ele>1229</ele>
        <time>2010-01-01T01:16:34Z</time>
      </trkpt>
      <trkpt lat="42.26649" lon="2.26456">
        <ele>1228</ele>
        <time>2010-01-01T01:16:35Z</time>
      </trkpt>
      <trkpt lat="42.26649" lon="2.26459">
        <ele>1227</ele>
        <time>2010-01-01T01:16:36Z</time>
      </trkpt>
      <trkpt lat="42.26647" lon="2.26462">
        <ele>1227</ele>
        <time>2010-01-01T01:16:37Z</time>
      </trkpt>
      <trkpt lat="42.26645" lon="2.26464">
        <ele>1227</ele>
        <time>2010-01-01T01:16:38Z</time>
      </trkpt>
      <trkpt lat="42.26643" lon="2.26468">
        <ele>1227</ele>
        <time>2010-01-01T01:16:39Z</time>
      </trkpt>
      <trkpt lat="42.26641" lon="2.26471">
        <ele>1227</ele>
        <time>2010-01-01T01:16:41Z</time>
      </trkpt>
      <trkpt lat="42.26635" lon="2.26482">
        <ele>1223</ele>
        <time>2010-01-01T01:16:45Z</time>
      </trkpt>
      <trkpt lat="42.26627" lon="2.2649">
        <ele>1221</ele>
        <time>2010-01-01T01:16:49Z</time>
      </trkpt>
      <trkpt lat="42.26618" lon="2.26499">
        <ele>1218</ele>
        <time>2010-01-01T01:16:53Z</time>
      </trkpt>
      <trkpt lat="42.26609" lon="2.26508">
        <ele>1217</ele>
        <time>2010-01-01T01:16:57Z</time>
      </trkpt>
      <trkpt lat="42.26599" lon="2.26513">
        <ele>1217</ele>
        <time>2010-01-01T01:17:02Z</time>
      </trkpt>
      <trkpt lat="42.2659" lon="2.26519">
        <ele>1216</ele>
        <time>2010-01-01T01:17:06Z</time>
      </trkpt>
      <trkpt lat="42.26581" lon="2.26524">
        <ele>1216</ele>
        <time>2010-01-01T01:17:10Z</time>
      </trkpt>
      <trkpt lat="42.26572" lon="2.26528">
        <ele>1216</ele>
        <time>2010-01-01T01:17:13Z</time>
      </trkpt>
      <trkpt lat="42.26563" lon="2.26534">
        <ele>1215</ele>
        <time>2010-01-01T01:17:17Z</time>
      </trkpt>
      <trkpt lat="42.26554" lon="2.26536">
        <ele>1215</ele>
        <time>2010-01-01T01:17:21Z</time>
      </trkpt>
      <trkpt lat="42.26543" lon="2.26536">
        <ele>1216</ele>
        <time>2010-01-01T01:17:25Z</time>
      </trkpt>
      <trkpt lat="42.2654" lon="2.26536">
        <ele>1216</ele>
        <time>2010-01-01T01:17:27Z</time>
      </trkpt>
      <trkpt lat="42.26538" lon="2.26536">
        <ele>1216</ele>
        <time>2010-01-01T01:17:28Z</time>
      </trkpt>
      <trkpt lat="42.26535" lon="2.26536">
        <ele>1216</ele>
        <time>2010-01-01T01:17:29Z</time>
      </trkpt>
      <trkpt lat="42.26531" lon="2.26537">
        <ele>1215</ele>
        <time>2010-01-01T01:17:30Z</time>
      </trkpt>
      <trkpt lat="42.26529" lon="2.26538">
        <ele>1215</ele>
        <time>2010-01-01T01:17:31Z</time>
      </trkpt>
      <trkpt lat="42.2652" lon="2.2654">
        <ele>1214</ele>
        <time>2010-01-01T01:17:35Z</time>
      </trkpt>
      <trkpt lat="42.26517" lon="2.26541">
        <ele>1213</ele>
        <time>2010-01-01T01:17:36Z</time>
      </trkpt>
      <trkpt lat="42.26515" lon="2.26542">
        <ele>1212</ele>
        <time>2010-01-01T01:17:37Z</time>
      </trkpt>
      <trkpt lat="42.26513" lon="2.26543">
        <ele>1212</ele>
        <time>2010-01-01T01:17:38Z</time>
      </trkpt>
      <trkpt lat="42.2651" lon="2.26543">
        <ele>1212</ele>
        <time>2010-01-01T01:17:39Z</time>
      </trkpt>
      <trkpt lat="42.26508" lon="2.26543">
        <ele>1212</ele>
        <time>2010-01-01T01:17:40Z</time>
      </trkpt>
      <trkpt lat="42.26503" lon="2.26542">
        <ele>1213</ele>
        <time>2010-01-01T01:17:42Z</time>
      </trkpt>
      <trkpt lat="42.26497" lon="2.26542">
        <ele>1213</ele>
        <time>2010-01-01T01:17:44Z</time>
      </trkpt>
      <trkpt lat="42.26489" lon="2.26548">
        <ele>1211</ele>
        <time>2010-01-01T01:17:48Z</time>
      </trkpt>
      <trkpt lat="42.26484" lon="2.26553">
        <ele>1209</ele>
        <time>2010-01-01T01:17:51Z</time>
      </trkpt>
      <trkpt lat="42.26483" lon="2.26555">
        <ele>1208</ele>
        <time>2010-01-01T01:17:51Z</time>
      </trkpt>
      <trkpt lat="42.26478" lon="2.2656">
        <ele>1206</ele>
        <time>2010-01-01T01:17:54Z</time>
      </trkpt>
      <trkpt lat="42.26471" lon="2.26572">
        <ele>1202</ele>
        <time>2010-01-01T01:17:58Z</time>
      </trkpt>
      <trkpt lat="42.26463" lon="2.26578">
        <ele>1200</ele>
        <time>2010-01-01T01:18:02Z</time>
      </trkpt>
      <trkpt lat="42.26455" lon="2.26586">
        <ele>1199</ele>
        <time>2010-01-01T01:18:06Z</time>
      </trkpt>
      <trkpt lat="42.26444" lon="2.26591">
        <ele>1199</ele>
        <time>2010-01-01T01:18:10Z</time>
      </trkpt>
      <trkpt lat="42.26435" lon="2.26596">
        <ele>1198</ele>
        <time>2010-01-01T01:18:14Z</time>
      </trkpt>
      <trkpt lat="42.26425" lon="2.26599">
        <ele>1199</ele>
        <time>2010-01-01T01:18:18Z</time>
      </trkpt>
      <trkpt lat="42.26417" lon="2.26603">
        <ele>1199</ele>
        <time>2010-01-01T01:18:22Z</time>
      </trkpt>
      <trkpt lat="42.26409" lon="2.26608">
        <ele>1198</ele>
        <time>2010-01-01T01:18:25Z</time>
      </trkpt>
      <trkpt lat="42.26407" lon="2.26609">
        <ele>1198</ele>
        <time>2010-01-01T01:18:26Z</time>
      </trkpt>
      <trkpt lat="42.26405" lon="2.26611">
        <ele>1198</ele>
        <time>2010-01-01T01:18:27Z</time>
      </trkpt>
      <trkpt lat="42.26402" lon="2.26613">
        <ele>1197</ele>
        <time>2010-01-01T01:18:29Z</time>
      </trkpt>
      <trkpt lat="42.26393" lon="2.26619">
        <ele>1195</ele>
        <time>2010-01-01T01:18:33Z</time>
      </trkpt>
      <trkpt lat="42.26386" lon="2.26629">
        <ele>1191</ele>
        <time>2010-01-01T01:18:37Z</time>
      </trkpt>
      <trkpt lat="42.26377" lon="2.26636">
        <ele>1188</ele>
        <time>2010-01-01T01:18:41Z</time>
      </trkpt>
      <trkpt lat="42.26369" lon="2.2664">
        <ele>1186</ele>
        <time>2010-01-01T01:18:44Z</time>
      </trkpt>
      <trkpt lat="42.2636" lon="2.26645">
        <ele>1184</ele>
        <time>2010-01-01T01:18:48Z</time>
      </trkpt>
      <trkpt lat="42.2635" lon="2.26651">
        <ele>1180</ele>
        <time>2010-01-01T01:18:53Z</time>
      </trkpt>
      <trkpt lat="42.26352" lon="2.26645">
        <ele>1183</ele>
        <time>2010-01-01T01:18:54Z</time>
      </trkpt>
      <trkpt lat="42.26354" lon="2.26644">
        <ele>1184</ele>
        <time>2010-01-01T01:18:56Z</time>
      </trkpt>
      <trkpt lat="42.26357" lon="2.26645">
        <ele>1184</ele>
        <time>2010-01-01T01:18:57Z</time>
      </trkpt>
      <trkpt lat="42.26361" lon="2.26645">
        <ele>1184</ele>
        <time>2010-01-01T01:18:58Z</time>
      </trkpt>
      <trkpt lat="42.26364" lon="2.26646">
        <ele>1184</ele>
        <time>2010-01-01T01:19:00Z</time>
      </trkpt>
      <trkpt lat="42.26367" lon="2.26645">
        <ele>1184</ele>
        <time>2010-01-01T01:19:01Z</time>
      </trkpt>
      <trkpt lat="42.2637" lon="2.26644">
        <ele>1184</ele>
        <time>2010-01-01T01:19:02Z</time>
      </trkpt>
      <trkpt lat="42.26374" lon="2.26644">
        <ele>1184</ele>
        <time>2010-01-01T01:19:03Z</time>
      </trkpt>
      <trkpt lat="42.26376" lon="2.26644">
        <ele>1184</ele>
        <time>2010-01-01T01:19:04Z</time>
      </trkpt>
      <trkpt lat="42.26382" lon="2.26644">
        <ele>1184</ele>
        <time>2010-01-01T01:19:07Z</time>
      </trkpt>
      <trkpt lat="42.26385" lon="2.26644">
        <ele>1184</ele>
        <time>2010-01-01T01:19:08Z</time>
      </trkpt>
      <trkpt lat="42.26389" lon="2.26643">
        <ele>1185</ele>
        <time>2010-01-01T01:19:10Z</time>
      </trkpt>
      <trkpt lat="42.26392" lon="2.26641">
        <ele>1185</ele>
        <time>2010-01-01T01:19:11Z</time>
      </trkpt>
      <trkpt lat="42.26395" lon="2.26642">
        <ele>1184</ele>
        <time>2010-01-01T01:19:12Z</time>
      </trkpt>
      <trkpt lat="42.26398" lon="2.26642">
        <ele>1184</ele>
        <time>2010-01-01T01:19:13Z</time>
      </trkpt>
      <trkpt lat="42.264" lon="2.26643">
        <ele>1183</ele>
        <time>2010-01-01T01:19:14Z</time>
      </trkpt>
      <trkpt lat="42.26402" lon="2.26644">
        <ele>1182</ele>
        <time>2010-01-01T01:19:15Z</time>
      </trkpt>
      <trkpt lat="42.26412" lon="2.26645">
        <ele>1180</ele>
        <time>2010-01-01T01:19:19Z</time>
      </trkpt>
      <trkpt lat="42.26423" lon="2.26645">
        <ele>1178</ele>
        <time>2010-01-01T01:19:23Z</time>
      </trkpt>
      <trkpt lat="42.26432" lon="2.26646">
        <ele>1175</ele>
        <time>2010-01-01T01:19:27Z</time>
      </trkpt>
      <trkpt lat="42.26442" lon="2.26646">
        <ele>1173</ele>
        <time>2010-01-01T01:19:31Z</time>
      </trkpt>
      <trkpt lat="42.26452" lon="2.26645">
        <ele>1172</ele>
        <time>2010-01-01T01:19:35Z</time>
      </trkpt>
      <trkpt lat="42.26462" lon="2.26642">
        <ele>1171</ele>
        <time>2010-01-01T01:19:39Z</time>
      </trkpt>
      <trkpt lat="42.26471" lon="2.26644">
        <ele>1168</ele>
        <time>2010-01-01T01:19:43Z</time>
      </trkpt>
      <trkpt lat="42.26481" lon="2.26643">
        <ele>1167</ele>
        <time>2010-01-01T01:19:47Z</time>
      </trkpt>
      <trkpt lat="42.26491" lon="2.26641">
        <ele>1167</ele>
        <time>2010-01-01T01:19:51Z</time>
      </trkpt>
      <trkpt lat="42.26498" lon="2.26642">
        <ele>1166</ele>
        <time>2010-01-01T01:19:54Z</time>
      </trkpt>
      <trkpt lat="42.26501" lon="2.26641">
        <ele>1166</ele>
        <time>2010-01-01T01:19:55Z</time>
      </trkpt>
      <trkpt lat="42.26508" lon="2.2664">
        <ele>1166</ele>
        <time>2010-01-01T01:19:58Z</time>
      </trkpt>
      <trkpt lat="42.26511" lon="2.2664">
        <ele>1166</ele>
        <time>2010-01-01T01:19:59Z</time>
      </trkpt>
      <trkpt lat="42.26515" lon="2.2664">
        <ele>1166</ele>
        <time>2010-01-01T01:20:00Z</time>
      </trkpt>
      <trkpt lat="42.26517" lon="2.2664">
        <ele>1165</ele>
        <time>2010-01-01T01:20:01Z</time>
      </trkpt>
      <trkpt lat="42.26519" lon="2.2664">
        <ele>1165</ele>
        <time>2010-01-01T01:20:02Z</time>
      </trkpt>
      <trkpt lat="42.26522" lon="2.26641">
        <ele>1165</ele>
        <time>2010-01-01T01:20:03Z</time>
      </trkpt>
      <trkpt lat="42.26528" lon="2.26644">
        <ele>1164</ele>
        <time>2010-01-01T01:20:06Z</time>
      </trkpt>
      <trkpt lat="42.2653" lon="2.26645">
        <ele>1164</ele>
        <time>2010-01-01T01:20:07Z</time>
      </trkpt>
      <trkpt lat="42.26532" lon="2.26647">
        <ele>1163</ele>
        <time>2010-01-01T01:20:08Z</time>
      </trkpt>
      <trkpt lat="42.26541" lon="2.26654">
        <ele>1160</ele>
        <time>2010-01-01T01:20:12Z</time>
      </trkpt>
      <trkpt lat="42.26545" lon="2.26668">
        <ele>1156</ele>
        <time>2010-01-01T01:20:16Z</time>
      </trkpt>
      <trkpt lat="42.26546" lon="2.26672">
        <ele>1155</ele>
        <time>2010-01-01T01:20:18Z</time>
      </trkpt>
      <trkpt lat="42.26545" lon="2.2668">
        <ele>1153</ele>
        <time>2010-01-01T01:20:20Z</time>
      </trkpt>
      <trkpt lat="42.26546" lon="2.26685">
        <ele>1151</ele>
        <time>2010-01-01T01:20:21Z</time>
      </trkpt>
      <trkpt lat="42.26545" lon="2.26689">
        <ele>1150</ele>
        <time>2010-01-01T01:20:23Z</time>
      </trkpt>
      <trkpt lat="42.26546" lon="2.26692">
        <ele>1150</ele>
        <time>2010-01-01T01:20:23Z</time>
      </trkpt>
      <trkpt lat="42.26546" lon="2.26696">
        <ele>1149</ele>
        <time>2010-01-01T01:20:25Z</time>
      </trkpt>
      <trkpt lat="42.26547" lon="2.26699">
        <ele>1148</ele>
        <time>2010-01-01T01:20:26Z</time>
      </trkpt>
      <trkpt lat="42.26547" lon="2.26704">
        <ele>1147</ele>
        <time>2010-01-01T01:20:27Z</time>
      </trkpt>
      <trkpt lat="42.26547" lon="2.26707">
        <ele>1147</ele>
        <time>2010-01-01T01:20:28Z</time>
      </trkpt>
      <trkpt lat="42.26548" lon="2.26709">
        <ele>1146</ele>
        <time>2010-01-01T01:20:29Z</time>
      </trkpt>
      <trkpt lat="42.26548" lon="2.26713">
        <ele>1146</ele>
        <time>2010-01-01T01:20:30Z</time>
      </trkpt>
      <trkpt lat="42.26548" lon="2.26716">
        <ele>1145</ele>
        <time>2010-01-01T01:20:31Z</time>
      </trkpt>
      <trkpt lat="42.26549" lon="2.26719">
        <ele>1145</ele>
        <time>2010-01-01T01:20:31Z</time>
      </trkpt>
      <trkpt lat="42.26549" lon="2.26721">
        <ele>1144</ele>
        <time>2010-01-01T01:20:32Z</time>
      </trkpt>
      <trkpt lat="42.2655" lon="2.26724">
        <ele>1144</ele>
        <time>2010-01-01T01:20:33Z</time>
      </trkpt>
      <trkpt lat="42.2655" lon="2.26728">
        <ele>1143</ele>
        <time>2010-01-01T01:20:34Z</time>
      </trkpt>
      <trkpt lat="42.26551" lon="2.26732">
        <ele>1143</ele>
        <time>2010-01-01T01:20:35Z</time>
      </trkpt>
      <trkpt lat="42.26551" lon="2.26735">
        <ele>1143</ele>
        <time>2010-01-01T01:20:36Z</time>
      </trkpt>
      <trkpt lat="42.26552" lon="2.26739">
        <ele>1143</ele>
        <time>2010-01-01T01:20:37Z</time>
      </trkpt>
      <trkpt lat="42.26552" lon="2.26743">
        <ele>1142</ele>
        <time>2010-01-01T01:20:39Z</time>
      </trkpt>
      <trkpt lat="42.26552" lon="2.26747">
        <ele>1142</ele>
        <time>2010-01-01T01:20:40Z</time>
      </trkpt>
      <trkpt lat="42.26554" lon="2.26752">
        <ele>1142</ele>
        <time>2010-01-01T01:20:41Z</time>
      </trkpt>
      <trkpt lat="42.26554" lon="2.26755">
        <ele>1141</ele>
        <time>2010-01-01T01:20:42Z</time>
      </trkpt>
      <trkpt lat="42.26555" lon="2.26757">
        <ele>1141</ele>
        <time>2010-01-01T01:20:43Z</time>
      </trkpt>
      <trkpt lat="42.26556" lon="2.2676">
        <ele>1141</ele>
        <time>2010-01-01T01:20:44Z</time>
      </trkpt>
      <trkpt lat="42.26557" lon="2.26762">
        <ele>1141</ele>
        <time>2010-01-01T01:20:45Z</time>
      </trkpt>
      <trkpt lat="42.26558" lon="2.26765">
        <ele>1140</ele>
        <time>2010-01-01T01:20:46Z</time>
      </trkpt>
      <trkpt lat="42.26558" lon="2.26768">
        <ele>1140</ele>
        <time>2010-01-01T01:20:47Z</time>
      </trkpt>
      <trkpt lat="42.26557" lon="2.2677">
        <ele>1139</ele>
        <time>2010-01-01T01:20:47Z</time>
      </trkpt>
      <trkpt lat="42.26557" lon="2.26773">
        <ele>1139</ele>
        <time>2010-01-01T01:20:48Z</time>
      </trkpt>
      <trkpt lat="42.26556" lon="2.26775">
        <ele>1138</ele>
        <time>2010-01-01T01:20:49Z</time>
      </trkpt>
      <trkpt lat="42.26554" lon="2.26778">
        <ele>1137</ele>
        <time>2010-01-01T01:20:50Z</time>
      </trkpt>
      <trkpt lat="42.26553" lon="2.2678">
        <ele>1136</ele>
        <time>2010-01-01T01:20:51Z</time>
      </trkpt>
      <trkpt lat="42.26551" lon="2.26781">
        <ele>1136</ele>
        <time>2010-01-01T01:20:52Z</time>
      </trkpt>
      <trkpt lat="42.26548" lon="2.26783">
        <ele>1135</ele>
        <time>2010-01-01T01:20:53Z</time>
      </trkpt>
      <trkpt lat="42.26546" lon="2.26784">
        <ele>1134</ele>
        <time>2010-01-01T01:20:54Z</time>
      </trkpt>
      <trkpt lat="42.26544" lon="2.26784">
        <ele>1133</ele>
        <time>2010-01-01T01:20:55Z</time>
      </trkpt>
      <trkpt lat="42.26542" lon="2.26784">
        <ele>1133</ele>
        <time>2010-01-01T01:20:55Z</time>
      </trkpt>
      <trkpt lat="42.2654" lon="2.26784">
        <ele>1132</ele>
        <time>2010-01-01T01:20:56Z</time>
      </trkpt>
      <trkpt lat="42.26538" lon="2.26783">
        <ele>1132</ele>
        <time>2010-01-01T01:20:57Z</time>
      </trkpt>
      <trkpt lat="42.26536" lon="2.26783">
        <ele>1131</ele>
        <time>2010-01-01T01:20:58Z</time>
      </trkpt>
      <trkpt lat="42.26534" lon="2.26782">
        <ele>1131</ele>
        <time>2010-01-01T01:20:59Z</time>
      </trkpt>
      <trkpt lat="42.26531" lon="2.26781">
        <ele>1130</ele>
        <time>2010-01-01T01:21:00Z</time>
      </trkpt>
      <trkpt lat="42.26529" lon="2.2678">
        <ele>1129</ele>
        <time>2010-01-01T01:21:01Z</time>
      </trkpt>
      <trkpt lat="42.26527" lon="2.26779">
        <ele>1129</ele>
        <time>2010-01-01T01:21:02Z</time>
      </trkpt>
      <trkpt lat="42.26525" lon="2.26779">
        <ele>1129</ele>
        <time>2010-01-01T01:21:03Z</time>
      </trkpt>
      <trkpt lat="42.26522" lon="2.26778">
        <ele>1128</ele>
        <time>2010-01-01T01:21:03Z</time>
      </trkpt>
      <trkpt lat="42.2652" lon="2.26779">
        <ele>1128</ele>
        <time>2010-01-01T01:21:04Z</time>
      </trkpt>
      <trkpt lat="42.26518" lon="2.26779">
        <ele>1127</ele>
        <time>2010-01-01T01:21:05Z</time>
      </trkpt>
      <trkpt lat="42.26517" lon="2.26781">
        <ele>1127</ele>
        <time>2010-01-01T01:21:06Z</time>
      </trkpt>
      <trkpt lat="42.26515" lon="2.26783">
        <ele>1126</ele>
        <time>2010-01-01T01:21:07Z</time>
      </trkpt>
      <trkpt lat="42.26514" lon="2.26785">
        <ele>1125</ele>
        <time>2010-01-01T01:21:08Z</time>
      </trkpt>
      <trkpt lat="42.26513" lon="2.26788">
        <ele>1125</ele>
        <time>2010-01-01T01:21:09Z</time>
      </trkpt>
      <trkpt lat="42.26513" lon="2.26791">
        <ele>1124</ele>
        <time>2010-01-01T01:21:10Z</time>
      </trkpt>
      <trkpt lat="42.26513" lon="2.26794">
        <ele>1124</ele>
        <time>2010-01-01T01:21:10Z</time>
      </trkpt>
      <trkpt lat="42.26513" lon="2.26797">
        <ele>1123</ele>
        <time>2010-01-01T01:21:11Z</time>
      </trkpt>
      <trkpt lat="42.26514" lon="2.268">
        <ele>1123</ele>
        <time>2010-01-01T01:21:12Z</time>
      </trkpt>
      <trkpt lat="42.26515" lon="2.26802">
        <ele>1123</ele>
        <time>2010-01-01T01:21:13Z</time>
      </trkpt>
      <trkpt lat="42.26516" lon="2.26805">
        <ele>1123</ele>
        <time>2010-01-01T01:21:14Z</time>
      </trkpt>
      <trkpt lat="42.26517" lon="2.26807">
        <ele>1123</ele>
        <time>2010-01-01T01:21:15Z</time>
      </trkpt>
      <trkpt lat="42.26519" lon="2.2681">
        <ele>1123</ele>
        <time>2010-01-01T01:21:16Z</time>
      </trkpt>
      <trkpt lat="42.26521" lon="2.26812">
        <ele>1123</ele>
        <time>2010-01-01T01:21:17Z</time>
      </trkpt>
      <trkpt lat="42.26523" lon="2.26815">
        <ele>1123</ele>
        <time>2010-01-01T01:21:18Z</time>
      </trkpt>
      <trkpt lat="42.26525" lon="2.26817">
        <ele>1123</ele>
        <time>2010-01-01T01:21:19Z</time>
      </trkpt>
      <trkpt lat="42.26527" lon="2.26819">
        <ele>1124</ele>
        <time>2010-01-01T01:21:20Z</time>
      </trkpt>
      <trkpt lat="42.26529" lon="2.26821">
        <ele>1124</ele>
        <time>2010-01-01T01:21:21Z</time>
      </trkpt>
      <trkpt lat="42.26532" lon="2.26823">
        <ele>1124</ele>
        <time>2010-01-01T01:21:22Z</time>
      </trkpt>
      <trkpt lat="42.26533" lon="2.26825">
        <ele>1124</ele>
        <time>2010-01-01T01:21:23Z</time>
      </trkpt>
      <trkpt lat="42.26535" lon="2.26828">
        <ele>1124</ele>
        <time>2010-01-01T01:21:24Z</time>
      </trkpt>
      <trkpt lat="42.26537" lon="2.2683">
        <ele>1124</ele>
        <time>2010-01-01T01:21:25Z</time>
      </trkpt>
      <trkpt lat="42.26539" lon="2.26833">
        <ele>1124</ele>
        <time>2010-01-01T01:21:26Z</time>
      </trkpt>
      <trkpt lat="42.2654" lon="2.26835">
        <ele>1124</ele>
        <time>2010-01-01T01:21:27Z</time>
      </trkpt>
      <trkpt lat="42.26542" lon="2.26837">
        <ele>1124</ele>
        <time>2010-01-01T01:21:28Z</time>
      </trkpt>
      <trkpt lat="42.26544" lon="2.26839">
        <ele>1124</ele>
        <time>2010-01-01T01:21:29Z</time>
      </trkpt>
      <trkpt lat="42.26545" lon="2.26842">
        <ele>1123</ele>
        <time>2010-01-01T01:21:30Z</time>
      </trkpt>
      <trkpt lat="42.26547" lon="2.26844">
        <ele>1123</ele>
        <time>2010-01-01T01:21:31Z</time>
      </trkpt>
      <trkpt lat="42.26548" lon="2.26847">
        <ele>1123</ele>
        <time>2010-01-01T01:21:32Z</time>
      </trkpt>
      <trkpt lat="42.2655" lon="2.26849">
        <ele>1123</ele>
        <time>2010-01-01T01:21:33Z</time>
      </trkpt>
      <trkpt lat="42.26551" lon="2.26852">
        <ele>1122</ele>
        <time>2010-01-01T01:21:34Z</time>
      </trkpt>
      <trkpt lat="42.26552" lon="2.26855">
        <ele>1122</ele>
        <time>2010-01-01T01:21:35Z</time>
      </trkpt>
      <trkpt lat="42.26554" lon="2.26857">
        <ele>1122</ele>
        <time>2010-01-01T01:21:36Z</time>
      </trkpt>
      <trkpt lat="42.26556" lon="2.2686">
        <ele>1122</ele>
        <time>2010-01-01T01:21:37Z</time>
      </trkpt>
      <trkpt lat="42.26557" lon="2.26863">
        <ele>1121</ele>
        <time>2010-01-01T01:21:38Z</time>
      </trkpt>
      <trkpt lat="42.26559" lon="2.26865">
        <ele>1121</ele>
        <time>2010-01-01T01:21:39Z</time>
      </trkpt>
      <trkpt lat="42.26561" lon="2.26868">
        <ele>1121</ele>
        <time>2010-01-01T01:21:40Z</time>
      </trkpt>
      <trkpt lat="42.26563" lon="2.26871">
        <ele>1121</ele>
        <time>2010-01-01T01:21:41Z</time>
      </trkpt>
      <trkpt lat="42.26564" lon="2.26873">
        <ele>1120</ele>
        <time>2010-01-01T01:21:42Z</time>
      </trkpt>
      <trkpt lat="42.26566" lon="2.26876">
        <ele>1120</ele>
        <time>2010-01-01T01:21:43Z</time>
      </trkpt>
      <trkpt lat="42.26567" lon="2.26879">
        <ele>1119</ele>
        <time>2010-01-01T01:21:44Z</time>
      </trkpt>
      <trkpt lat="42.26569" lon="2.26882">
        <ele>1119</ele>
        <time>2010-01-01T01:21:45Z</time>
      </trkpt>
      <trkpt lat="42.2657" lon="2.26885">
        <ele>1119</ele>
        <time>2010-01-01T01:21:46Z</time>
      </trkpt>
      <trkpt lat="42.26572" lon="2.26887">
        <ele>1118</ele>
        <time>2010-01-01T01:21:47Z</time>
      </trkpt>
      <trkpt lat="42.26574" lon="2.2689">
        <ele>1118</ele>
        <time>2010-01-01T01:21:48Z</time>
      </trkpt>
      <trkpt lat="42.26575" lon="2.26892">
        <ele>1118</ele>
        <time>2010-01-01T01:21:49Z</time>
      </trkpt>
      <trkpt lat="42.26577" lon="2.26894">
        <ele>1118</ele>
        <time>2010-01-01T01:21:50Z</time>
      </trkpt>
      <trkpt lat="42.26579" lon="2.26897">
        <ele>1118</ele>
        <time>2010-01-01T01:21:51Z</time>
      </trkpt>
      <trkpt lat="42.26581" lon="2.26899">
        <ele>1118</ele>
        <time>2010-01-01T01:21:52Z</time>
      </trkpt>
      <trkpt lat="42.26583" lon="2.269">
        <ele>1119</ele>
        <time>2010-01-01T01:21:53Z</time>
      </trkpt>
      <trkpt lat="42.26585" lon="2.26902">
        <ele>1118</ele>
        <time>2010-01-01T01:21:54Z</time>
      </trkpt>
      <trkpt lat="42.26587" lon="2.26904">
        <ele>1118</ele>
        <time>2010-01-01T01:21:55Z</time>
      </trkpt>
      <trkpt lat="42.26588" lon="2.26907">
        <ele>1117</ele>
        <time>2010-01-01T01:21:56Z</time>
      </trkpt>
      <trkpt lat="42.2659" lon="2.2691">
        <ele>1117</ele>
        <time>2010-01-01T01:21:57Z</time>
      </trkpt>
      <trkpt lat="42.26589" lon="2.26914">
        <ele>1116</ele>
        <time>2010-01-01T01:21:58Z</time>
      </trkpt>
      <trkpt lat="42.26587" lon="2.26917">
        <ele>1115</ele>
        <time>2010-01-01T01:22:00Z</time>
      </trkpt>
      <trkpt lat="42.26584" lon="2.2692">
        <ele>1114</ele>
        <time>2010-01-01T01:22:01Z</time>
      </trkpt>
      <trkpt lat="42.26581" lon="2.26921">
        <ele>1112</ele>
        <time>2010-01-01T01:22:02Z</time>
      </trkpt>
      <trkpt lat="42.26578" lon="2.26923">
        <ele>1111</ele>
        <time>2010-01-01T01:22:04Z</time>
      </trkpt>
      <trkpt lat="42.26575" lon="2.26924">
        <ele>1110</ele>
        <time>2010-01-01T01:22:05Z</time>
      </trkpt>
      <trkpt lat="42.26572" lon="2.26926">
        <ele>1109</ele>
        <time>2010-01-01T01:22:06Z</time>
      </trkpt>
      <trkpt lat="42.26569" lon="2.26927">
        <ele>1108</ele>
        <time>2010-01-01T01:22:07Z</time>
      </trkpt>
      <trkpt lat="42.26567" lon="2.26929">
        <ele>1107</ele>
        <time>2010-01-01T01:22:08Z</time>
      </trkpt>
      <trkpt lat="42.26565" lon="2.26931">
        <ele>1106</ele>
        <time>2010-01-01T01:22:10Z</time>
      </trkpt>
      <trkpt lat="42.26563" lon="2.26934">
        <ele>1105</ele>
        <time>2010-01-01T01:22:11Z</time>
      </trkpt>
      <trkpt lat="42.26562" lon="2.26938">
        <ele>1104</ele>
        <time>2010-01-01T01:22:12Z</time>
      </trkpt>
      <trkpt lat="42.26563" lon="2.26945">
        <ele>1103</ele>
        <time>2010-01-01T01:22:14Z</time>
      </trkpt>
      <trkpt lat="42.26565" lon="2.26948">
        <ele>1103</ele>
        <time>2010-01-01T01:22:15Z</time>
      </trkpt>
      <trkpt lat="42.26567" lon="2.2695">
        <ele>1103</ele>
        <time>2010-01-01T01:22:16Z</time>
      </trkpt>
      <trkpt lat="42.26569" lon="2.26952">
        <ele>1103</ele>
        <time>2010-01-01T01:22:17Z</time>
      </trkpt>
      <trkpt lat="42.26571" lon="2.26954">
        <ele>1103</ele>
        <time>2010-01-01T01:22:18Z</time>
      </trkpt>
      <trkpt lat="42.26573" lon="2.26955">
        <ele>1103</ele>
        <time>2010-01-01T01:22:19Z</time>
      </trkpt>
      <trkpt lat="42.26575" lon="2.26956">
        <ele>1104</ele>
        <time>2010-01-01T01:22:20Z</time>
      </trkpt>
      <trkpt lat="42.26577" lon="2.26958">
        <ele>1104</ele>
        <time>2010-01-01T01:22:21Z</time>
      </trkpt>
      <trkpt lat="42.2658" lon="2.26959">
        <ele>1104</ele>
        <time>2010-01-01T01:22:22Z</time>
      </trkpt>
      <trkpt lat="42.26582" lon="2.2696">
        <ele>1104</ele>
        <time>2010-01-01T01:22:23Z</time>
      </trkpt>
      <trkpt lat="42.26584" lon="2.26962">
        <ele>1104</ele>
        <time>2010-01-01T01:22:24Z</time>
      </trkpt>
      <trkpt lat="42.26587" lon="2.26963">
        <ele>1103</ele>
        <time>2010-01-01T01:22:25Z</time>
      </trkpt>
      <trkpt lat="42.26589" lon="2.26965">
        <ele>1103</ele>
        <time>2010-01-01T01:22:26Z</time>
      </trkpt>
      <trkpt lat="42.26591" lon="2.26967">
        <ele>1103</ele>
        <time>2010-01-01T01:22:27Z</time>
      </trkpt>
      <trkpt lat="42.26593" lon="2.2697">
        <ele>1102</ele>
        <time>2010-01-01T01:22:28Z</time>
      </trkpt>
      <trkpt lat="42.26594" lon="2.26973">
        <ele>1101</ele>
        <time>2010-01-01T01:22:29Z</time>
      </trkpt>
      <trkpt lat="42.26595" lon="2.26977">
        <ele>1101</ele>
        <time>2010-01-01T01:22:30Z</time>
      </trkpt>
      <trkpt lat="42.26596" lon="2.26981">
        <ele>1100</ele>
        <time>2010-01-01T01:22:32Z</time>
      </trkpt>
      <trkpt lat="42.26595" lon="2.26984">
        <ele>1099</ele>
        <time>2010-01-01T01:22:33Z</time>
      </trkpt>
      <trkpt lat="42.26592" lon="2.26988">
        <ele>1098</ele>
        <time>2010-01-01T01:22:34Z</time>
      </trkpt>
      <trkpt lat="42.26589" lon="2.2699">
        <ele>1097</ele>
        <time>2010-01-01T01:22:36Z</time>
      </trkpt>
      <trkpt lat="42.26586" lon="2.26991">
        <ele>1097</ele>
        <time>2010-01-01T01:22:37Z</time>
      </trkpt>
      <trkpt lat="42.26583" lon="2.26991">
        <ele>1097</ele>
        <time>2010-01-01T01:22:38Z</time>
      </trkpt>
      <trkpt lat="42.2658" lon="2.26992">
        <ele>1096</ele>
        <time>2010-01-01T01:22:39Z</time>
      </trkpt>
      <trkpt lat="42.26578" lon="2.26992">
        <ele>1096</ele>
        <time>2010-01-01T01:22:40Z</time>
      </trkpt>
      <trkpt lat="42.26575" lon="2.26992">
        <ele>1095</ele>
        <time>2010-01-01T01:22:41Z</time>
      </trkpt>
      <trkpt lat="42.26572" lon="2.26993">
        <ele>1095</ele>
        <time>2010-01-01T01:22:43Z</time>
      </trkpt>
      <trkpt lat="42.26569" lon="2.26995">
        <ele>1094</ele>
        <time>2010-01-01T01:22:44Z</time>
      </trkpt>
      <trkpt lat="42.26567" lon="2.26998">
        <ele>1093</ele>
        <time>2010-01-01T01:22:45Z</time>
      </trkpt>
      <trkpt lat="42.26566" lon="2.27001">
        <ele>1092</ele>
        <time>2010-01-01T01:22:46Z</time>
      </trkpt>
      <trkpt lat="42.26565" lon="2.27005">
        <ele>1091</ele>
        <time>2010-01-01T01:22:47Z</time>
      </trkpt>
      <trkpt lat="42.26566" lon="2.27008">
        <ele>1090</ele>
        <time>2010-01-01T01:22:48Z</time>
      </trkpt>
      <trkpt lat="42.26568" lon="2.27011">
        <ele>1090</ele>
        <time>2010-01-01T01:22:49Z</time>
      </trkpt>
      <trkpt lat="42.2657" lon="2.27014">
        <ele>1089</ele>
        <time>2010-01-01T01:22:50Z</time>
      </trkpt>
      <trkpt lat="42.26571" lon="2.27016">
        <ele>1089</ele>
        <time>2010-01-01T01:22:51Z</time>
      </trkpt>
      <trkpt lat="42.26573" lon="2.27018">
        <ele>1089</ele>
        <time>2010-01-01T01:22:52Z</time>
      </trkpt>
      <trkpt lat="42.26575" lon="2.2702">
        <ele>1088</ele>
        <time>2010-01-01T01:22:53Z</time>
      </trkpt>
      <trkpt lat="42.26577" lon="2.27022">
        <ele>1088</ele>
        <time>2010-01-01T01:22:54Z</time>
      </trkpt>
      <trkpt lat="42.26579" lon="2.27025">
        <ele>1088</ele>
        <time>2010-01-01T01:22:55Z</time>
      </trkpt>
      <trkpt lat="42.26581" lon="2.27027">
        <ele>1087</ele>
        <time>2010-01-01T01:22:56Z</time>
      </trkpt>
      <trkpt lat="42.26582" lon="2.2703">
        <ele>1087</ele>
        <time>2010-01-01T01:22:57Z</time>
      </trkpt>
      <trkpt lat="42.26584" lon="2.27032">
        <ele>1087</ele>
        <time>2010-01-01T01:22:58Z</time>
      </trkpt>
      <trkpt lat="42.26587" lon="2.27033">
        <ele>1087</ele>
        <time>2010-01-01T01:23:00Z</time>
      </trkpt>
      <trkpt lat="42.2659" lon="2.27035">
        <ele>1087</ele>
        <time>2010-01-01T01:23:01Z</time>
      </trkpt>
      <trkpt lat="42.26591" lon="2.27037">
        <ele>1087</ele>
        <time>2010-01-01T01:23:02Z</time>
      </trkpt>
      <trkpt lat="42.26593" lon="2.27039">
        <ele>1087</ele>
        <time>2010-01-01T01:23:03Z</time>
      </trkpt>
      <trkpt lat="42.26594" lon="2.27041">
        <ele>1087</ele>
        <time>2010-01-01T01:23:03Z</time>
      </trkpt>
      <trkpt lat="42.26597" lon="2.27043">
        <ele>1087</ele>
        <time>2010-01-01T01:23:05Z</time>
      </trkpt>
      <trkpt lat="42.266" lon="2.27045">
        <ele>1087</ele>
        <time>2010-01-01T01:23:06Z</time>
      </trkpt>
      <trkpt lat="42.26602" lon="2.27046">
        <ele>1087</ele>
        <time>2010-01-01T01:23:07Z</time>
      </trkpt>
      <trkpt lat="42.26612" lon="2.27046">
        <ele>1088</ele>
        <time>2010-01-01T01:23:11Z</time>
      </trkpt>
      <trkpt lat="42.26621" lon="2.27045">
        <ele>1088</ele>
        <time>2010-01-01T01:23:14Z</time>
      </trkpt>
      <trkpt lat="42.2663" lon="2.27042">
        <ele>1089</ele>
        <time>2010-01-01T01:23:18Z</time>
      </trkpt>
      <trkpt lat="42.26639" lon="2.27035">
        <ele>1089</ele>
        <time>2010-01-01T01:23:22Z</time>
      </trkpt>
      <trkpt lat="42.26644" lon="2.27025">
        <ele>1089</ele>
        <time>2010-01-01T01:23:26Z</time>
      </trkpt>
      <trkpt lat="42.26651" lon="2.27014">
        <ele>1088</ele>
        <time>2010-01-01T01:23:30Z</time>
      </trkpt>
      <trkpt lat="42.26657" lon="2.27003">
        <ele>1088</ele>
        <time>2010-01-01T01:23:34Z</time>
      </trkpt>
      <trkpt lat="42.26662" lon="2.26992">
        <ele>1089</ele>
        <time>2010-01-01T01:23:38Z</time>
      </trkpt>
      <trkpt lat="42.26668" lon="2.26983">
        <ele>1089</ele>
        <time>2010-01-01T01:23:42Z</time>
      </trkpt>
      <trkpt lat="42.26675" lon="2.26973">
        <ele>1088</ele>
        <time>2010-01-01T01:23:46Z</time>
      </trkpt>
      <trkpt lat="42.26682" lon="2.26963">
        <ele>1087</ele>
        <time>2010-01-01T01:23:50Z</time>
      </trkpt>
      <trkpt lat="42.26691" lon="2.26955">
        <ele>1086</ele>
        <time>2010-01-01T01:23:54Z</time>
      </trkpt>
      <trkpt lat="42.26696" lon="2.26944">
        <ele>1086</ele>
        <time>2010-01-01T01:23:58Z</time>
      </trkpt>
      <trkpt lat="42.26699" lon="2.26932">
        <ele>1088</ele>
        <time>2010-01-01T01:24:01Z</time>
      </trkpt>
      <trkpt lat="42.26705" lon="2.26923">
        <ele>1089</ele>
        <time>2010-01-01T01:24:05Z</time>
      </trkpt>
      <trkpt lat="42.26713" lon="2.26916">
        <ele>1088</ele>
        <time>2010-01-01T01:24:09Z</time>
      </trkpt>
      <trkpt lat="42.26721" lon="2.26911">
        <ele>1087</ele>
        <time>2010-01-01T01:24:13Z</time>
      </trkpt>
      <trkpt lat="42.26723" lon="2.26911">
        <ele>1087</ele>
        <time>2010-01-01T01:24:13Z</time>
      </trkpt>
      <trkpt lat="42.26725" lon="2.2691">
        <ele>1087</ele>
        <time>2010-01-01T01:24:14Z</time>
      </trkpt>
      <trkpt lat="42.26727" lon="2.26909">
        <ele>1088</ele>
        <time>2010-01-01T01:24:15Z</time>
      </trkpt>
      <trkpt lat="42.26729" lon="2.26908">
        <ele>1088</ele>
        <time>2010-01-01T01:24:16Z</time>
      </trkpt>
      <trkpt lat="42.26732" lon="2.26906">
        <ele>1088</ele>
        <time>2010-01-01T01:24:17Z</time>
      </trkpt>
      <trkpt lat="42.26735" lon="2.26902">
        <ele>1089</ele>
        <time>2010-01-01T01:24:19Z</time>
      </trkpt>
      <trkpt lat="42.26737" lon="2.26901">
        <ele>1089</ele>
        <time>2010-01-01T01:24:20Z</time>
      </trkpt>
      <trkpt lat="42.26743" lon="2.26891">
        <ele>1091</ele>
        <time>2010-01-01T01:24:23Z</time>
      </trkpt>
      <trkpt lat="42.2675" lon="2.26885">
        <ele>1092</ele>
        <time>2010-01-01T01:24:27Z</time>
      </trkpt>
      <trkpt lat="42.26761" lon="2.26884">
        <ele>1093</ele>
        <time>2010-01-01T01:24:31Z</time>
      </trkpt>
      <trkpt lat="42.26771" lon="2.26882">
        <ele>1095</ele>
        <time>2010-01-01T01:24:35Z</time>
      </trkpt>
      <trkpt lat="42.26772" lon="2.26882">
        <ele>1095</ele>
        <time>2010-01-01T01:24:36Z</time>
      </trkpt>
      <trkpt lat="42.26777" lon="2.26882">
        <ele>1096</ele>
        <time>2010-01-01T01:24:37Z</time>
      </trkpt>
      <trkpt lat="42.26786" lon="2.26881">
        <ele>1098</ele>
        <time>2010-01-01T01:24:41Z</time>
      </trkpt>
      <trkpt lat="42.26796" lon="2.26879">
        <ele>1100</ele>
        <time>2010-01-01T01:24:45Z</time>
      </trkpt>
      <trkpt lat="42.26802" lon="2.2688">
        <ele>1100</ele>
        <time>2010-01-01T01:24:48Z</time>
      </trkpt>
      <trkpt lat="42.26805" lon="2.26881">
        <ele>1101</ele>
        <time>2010-01-01T01:24:49Z</time>
      </trkpt>
      <trkpt lat="42.26807" lon="2.26881">
        <ele>1101</ele>
        <time>2010-01-01T01:24:50Z</time>
      </trkpt>
      <trkpt lat="42.26809" lon="2.2688">
        <ele>1101</ele>
        <time>2010-01-01T01:24:51Z</time>
      </trkpt>
      <trkpt lat="42.26821" lon="2.2688">
        <ele>1103</ele>
        <time>2010-01-01T01:24:55Z</time>
      </trkpt>
      <trkpt lat="42.26827" lon="2.26882">
        <ele>1102</ele>
        <time>2010-01-01T01:24:58Z</time>
      </trkpt>
      <trkpt lat="42.26831" lon="2.26883">
        <ele>1102</ele>
        <time>2010-01-01T01:24:59Z</time>
      </trkpt>
      <trkpt lat="42.26835" lon="2.26887">
        <ele>1101</ele>
        <time>2010-01-01T01:25:01Z</time>
      </trkpt>
      <trkpt lat="42.26837" lon="2.26888">
        <ele>1101</ele>
        <time>2010-01-01T01:25:02Z</time>
      </trkpt>
      <trkpt lat="42.26838" lon="2.26889">
        <ele>1101</ele>
        <time>2010-01-01T01:25:03Z</time>
      </trkpt>
      <trkpt lat="42.26841" lon="2.2689">
        <ele>1101</ele>
        <time>2010-01-01T01:25:04Z</time>
      </trkpt>
      <trkpt lat="42.26844" lon="2.26891">
        <ele>1101</ele>
        <time>2010-01-01T01:25:05Z</time>
      </trkpt>
      <trkpt lat="42.26846" lon="2.26893">
        <ele>1101</ele>
        <time>2010-01-01T01:25:06Z</time>
      </trkpt>
      <trkpt lat="42.26848" lon="2.26895">
        <ele>1100</ele>
        <time>2010-01-01T01:25:07Z</time>
      </trkpt>
      <trkpt lat="42.26849" lon="2.26897">
        <ele>1100</ele>
        <time>2010-01-01T01:25:08Z</time>
      </trkpt>
      <trkpt lat="42.2685" lon="2.26899">
        <ele>1100</ele>
        <time>2010-01-01T01:25:09Z</time>
      </trkpt>
      <trkpt lat="42.26852" lon="2.26903">
        <ele>1099</ele>
        <time>2010-01-01T01:25:10Z</time>
      </trkpt>
      <trkpt lat="42.26854" lon="2.26906">
        <ele>1099</ele>
        <time>2010-01-01T01:25:11Z</time>
      </trkpt>
      <trkpt lat="42.26856" lon="2.26909">
        <ele>1099</ele>
        <time>2010-01-01T01:25:12Z</time>
      </trkpt>
      <trkpt lat="42.26862" lon="2.26919">
        <ele>1098</ele>
        <time>2010-01-01T01:25:16Z</time>
      </trkpt>
      <trkpt lat="42.26869" lon="2.26931">
        <ele>1098</ele>
        <time>2010-01-01T01:25:21Z</time>
      </trkpt>
      <trkpt lat="42.26876" lon="2.26942">
        <ele>1098</ele>
        <time>2010-01-01T01:25:25Z</time>
      </trkpt>
      <trkpt lat="42.26883" lon="2.26953">
        <ele>1098</ele>
        <time>2010-01-01T01:25:30Z</time>
      </trkpt>
      <trkpt lat="42.26888" lon="2.26965">
        <ele>1097</ele>
        <time>2010-01-01T01:25:34Z</time>
      </trkpt>
      <trkpt lat="42.26893" lon="2.26978">
        <ele>1096</ele>
        <time>2010-01-01T01:25:38Z</time>
      </trkpt>
      <trkpt lat="42.26899" lon="2.2699">
        <ele>1095</ele>
        <time>2010-01-01T01:25:42Z</time>
      </trkpt>
      <trkpt lat="42.26906" lon="2.26998">
        <ele>1094</ele>
        <time>2010-01-01T01:25:46Z</time>
      </trkpt>
      <trkpt lat="42.26912" lon="2.27008">
        <ele>1094</ele>
        <time>2010-01-01T01:25:50Z</time>
      </trkpt>
      <trkpt lat="42.26917" lon="2.27018">
        <ele>1094</ele>
        <time>2010-01-01T01:25:53Z</time>
      </trkpt>
      <trkpt lat="42.26919" lon="2.27021">
        <ele>1093</ele>
        <time>2010-01-01T01:25:54Z</time>
      </trkpt>
      <trkpt lat="42.26924" lon="2.27032">
        <ele>1093</ele>
        <time>2010-01-01T01:25:58Z</time>
      </trkpt>
      <trkpt lat="42.26926" lon="2.27035">
        <ele>1092</ele>
        <time>2010-01-01T01:25:59Z</time>
      </trkpt>
      <trkpt lat="42.26933" lon="2.27046">
        <ele>1092</ele>
        <time>2010-01-01T01:26:04Z</time>
      </trkpt>
      <trkpt lat="42.2694" lon="2.27057">
        <ele>1091</ele>
        <time>2010-01-01T01:26:08Z</time>
      </trkpt>
      <trkpt lat="42.26948" lon="2.27065">
        <ele>1091</ele>
        <time>2010-01-01T01:26:12Z</time>
      </trkpt>
      <trkpt lat="42.26956" lon="2.27074">
        <ele>1091</ele>
        <time>2010-01-01T01:26:16Z</time>
      </trkpt>
      <trkpt lat="42.26965" lon="2.27083">
        <ele>1090</ele>
        <time>2010-01-01T01:26:20Z</time>
      </trkpt>
      <trkpt lat="42.26974" lon="2.27089">
        <ele>1090</ele>
        <time>2010-01-01T01:26:25Z</time>
      </trkpt>
      <trkpt lat="42.26982" lon="2.27095">
        <ele>1091</ele>
        <time>2010-01-01T01:26:28Z</time>
      </trkpt>
      <trkpt lat="42.26992" lon="2.27099">
        <ele>1091</ele>
        <time>2010-01-01T01:26:33Z</time>
      </trkpt>
      <trkpt lat="42.27002" lon="2.27103">
        <ele>1092</ele>
        <time>2010-01-01T01:26:37Z</time>
      </trkpt>
      <trkpt lat="42.27013" lon="2.27108">
        <ele>1092</ele>
        <time>2010-01-01T01:26:41Z</time>
      </trkpt>
      <trkpt lat="42.27015" lon="2.27114">
        <ele>1091</ele>
        <time>2010-01-01T01:26:43Z</time>
      </trkpt>
      <trkpt lat="42.27005" lon="2.27119">
        <ele>1090</ele>
        <time>2010-01-01T01:26:48Z</time>
      </trkpt>
      <trkpt lat="42.26996" lon="2.27125">
        <ele>1088</ele>
        <time>2010-01-01T01:26:52Z</time>
      </trkpt>
      <trkpt lat="42.2699" lon="2.2713">
        <ele>1087</ele>
        <time>2010-01-01T01:26:54Z</time>
      </trkpt>
      <trkpt lat="42.26986" lon="2.27131">
        <ele>1086</ele>
        <time>2010-01-01T01:26:56Z</time>
      </trkpt>
      <trkpt lat="42.26984" lon="2.27131">
        <ele>1086</ele>
        <time>2010-01-01T01:26:57Z</time>
      </trkpt>
      <trkpt lat="42.26981" lon="2.27127">
        <ele>1087</ele>
        <time>2010-01-01T01:26:58Z</time>
      </trkpt>
      <trkpt lat="42.26978" lon="2.27123">
        <ele>1087</ele>
        <time>2010-01-01T01:27:00Z</time>
      </trkpt>
      <trkpt lat="42.26975" lon="2.27121">
        <ele>1087</ele>
        <time>2010-01-01T01:27:01Z</time>
      </trkpt>
      <trkpt lat="42.26973" lon="2.2712">
        <ele>1087</ele>
        <time>2010-01-01T01:27:02Z</time>
      </trkpt>
      <trkpt lat="42.26971" lon="2.27122">
        <ele>1087</ele>
        <time>2010-01-01T01:27:03Z</time>
      </trkpt>
      <trkpt lat="42.2697" lon="2.27128">
        <ele>1085</ele>
        <time>2010-01-01T01:27:05Z</time>
      </trkpt>
      <trkpt lat="42.2697" lon="2.2713">
        <ele>1085</ele>
        <time>2010-01-01T01:27:06Z</time>
      </trkpt>
      <trkpt lat="42.26969" lon="2.27133">
        <ele>1084</ele>
        <time>2010-01-01T01:27:07Z</time>
      </trkpt>
      <trkpt lat="42.26967" lon="2.27137">
        <ele>1084</ele>
        <time>2010-01-01T01:27:08Z</time>
      </trkpt>
      <trkpt lat="42.26964" lon="2.27137">
        <ele>1083</ele>
        <time>2010-01-01T01:27:09Z</time>
      </trkpt>
      <trkpt lat="42.26961" lon="2.27138">
        <ele>1083</ele>
        <time>2010-01-01T01:27:10Z</time>
      </trkpt>
      <trkpt lat="42.26958" lon="2.27139">
        <ele>1082</ele>
        <time>2010-01-01T01:27:12Z</time>
      </trkpt>
      <trkpt lat="42.26956" lon="2.27141">
        <ele>1082</ele>
        <time>2010-01-01T01:27:13Z</time>
      </trkpt>
      <trkpt lat="42.26954" lon="2.27143">
        <ele>1081</ele>
        <time>2010-01-01T01:27:14Z</time>
      </trkpt>
      <trkpt lat="42.26947" lon="2.27148">
        <ele>1079</ele>
        <time>2010-01-01T01:27:17Z</time>
      </trkpt>
      <trkpt lat="42.26945" lon="2.27148">
        <ele>1079</ele>
        <time>2010-01-01T01:27:18Z</time>
      </trkpt>
      <trkpt lat="42.26942" lon="2.27148">
        <ele>1078</ele>
        <time>2010-01-01T01:27:19Z</time>
      </trkpt>
      <trkpt lat="42.2694" lon="2.27148">
        <ele>1077</ele>
        <time>2010-01-01T01:27:20Z</time>
      </trkpt>
      <trkpt lat="42.26935" lon="2.27148">
        <ele>1076</ele>
        <time>2010-01-01T01:27:22Z</time>
      </trkpt>
      <trkpt lat="42.26932" lon="2.27146">
        <ele>1075</ele>
        <time>2010-01-01T01:27:23Z</time>
      </trkpt>
      <trkpt lat="42.26929" lon="2.27146">
        <ele>1075</ele>
        <time>2010-01-01T01:27:24Z</time>
      </trkpt>
      <trkpt lat="42.26927" lon="2.27146">
        <ele>1074</ele>
        <time>2010-01-01T01:27:25Z</time>
      </trkpt>
      <trkpt lat="42.26918" lon="2.27146">
        <ele>1071</ele>
        <time>2010-01-01T01:27:29Z</time>
      </trkpt>
      <trkpt lat="42.26909" lon="2.27145">
        <ele>1069</ele>
        <time>2010-01-01T01:27:32Z</time>
      </trkpt>
      <trkpt lat="42.26898" lon="2.27147">
        <ele>1064</ele>
        <time>2010-01-01T01:27:37Z</time>
      </trkpt>
      <trkpt lat="42.26896" lon="2.27147">
        <ele>1063</ele>
        <time>2010-01-01T01:27:38Z</time>
      </trkpt>
      <trkpt lat="42.26894" lon="2.27148">
        <ele>1062</ele>
        <time>2010-01-01T01:27:38Z</time>
      </trkpt>
      <trkpt lat="42.26891" lon="2.27149">
        <ele>1061</ele>
        <time>2010-01-01T01:27:39Z</time>
      </trkpt>
      <trkpt lat="42.26882" lon="2.27143">
        <ele>1059</ele>
        <time>2010-01-01T01:27:44Z</time>
      </trkpt>
      <trkpt lat="42.26879" lon="2.27142">
        <ele>1059</ele>
        <time>2010-01-01T01:27:45Z</time>
      </trkpt>
      <trkpt lat="42.26876" lon="2.27139">
        <ele>1058</ele>
        <time>2010-01-01T01:27:46Z</time>
      </trkpt>
      <trkpt lat="42.26874" lon="2.27137">
        <ele>1058</ele>
        <time>2010-01-01T01:27:47Z</time>
      </trkpt>
      <trkpt lat="42.26872" lon="2.27135">
        <ele>1058</ele>
        <time>2010-01-01T01:27:48Z</time>
      </trkpt>
      <trkpt lat="42.26871" lon="2.27133">
        <ele>1058</ele>
        <time>2010-01-01T01:27:49Z</time>
      </trkpt>
      <trkpt lat="42.26869" lon="2.27131">
        <ele>1058</ele>
        <time>2010-01-01T01:27:50Z</time>
      </trkpt>
      <trkpt lat="42.2686" lon="2.27128">
        <ele>1055</ele>
        <time>2010-01-01T01:27:53Z</time>
      </trkpt>
      <trkpt lat="42.26863" lon="2.2714">
        <ele>1053</ele>
        <time>2010-01-01T01:27:57Z</time>
      </trkpt>
      <trkpt lat="42.26866" lon="2.27152">
        <ele>1050</ele>
        <time>2010-01-01T01:28:01Z</time>
      </trkpt>
      <trkpt lat="42.26858" lon="2.27161">
        <ele>1045</ele>
        <time>2010-01-01T01:28:06Z</time>
      </trkpt>
      <trkpt lat="42.26852" lon="2.27171">
        <ele>1040</ele>
        <time>2010-01-01T01:28:09Z</time>
      </trkpt>
      <trkpt lat="42.26851" lon="2.27174">
        <ele>1039</ele>
        <time>2010-01-01T01:28:10Z</time>
      </trkpt>
      <trkpt lat="42.26844" lon="2.27179">
        <ele>1036</ele>
        <time>2010-01-01T01:28:13Z</time>
      </trkpt>
      <trkpt lat="42.26843" lon="2.2718">
        <ele>1036</ele>
        <time>2010-01-01T01:28:14Z</time>
      </trkpt>
      <trkpt lat="42.26839" lon="2.27182">
        <ele>1034</ele>
        <time>2010-01-01T01:28:15Z</time>
      </trkpt>
      <trkpt lat="42.26837" lon="2.27185">
        <ele>1033</ele>
        <time>2010-01-01T01:28:17Z</time>
      </trkpt>
      <trkpt lat="42.26837" lon="2.27188">
        <ele>1032</ele>
        <time>2010-01-01T01:28:17Z</time>
      </trkpt>
      <trkpt lat="42.26845" lon="2.27189">
        <ele>1034</ele>
        <time>2010-01-01T01:28:21Z</time>
      </trkpt>
      <trkpt lat="42.26848" lon="2.2719">
        <ele>1034</ele>
        <time>2010-01-01T01:28:22Z</time>
      </trkpt>
      <trkpt lat="42.2685" lon="2.27192">
        <ele>1034</ele>
        <time>2010-01-01T01:28:23Z</time>
      </trkpt>
      <trkpt lat="42.26853" lon="2.27195">
        <ele>1034</ele>
        <time>2010-01-01T01:28:24Z</time>
      </trkpt>
      <trkpt lat="42.26856" lon="2.27197">
        <ele>1034</ele>
        <time>2010-01-01T01:28:26Z</time>
      </trkpt>
      <trkpt lat="42.26858" lon="2.27198">
        <ele>1034</ele>
        <time>2010-01-01T01:28:27Z</time>
      </trkpt>
      <trkpt lat="42.26861" lon="2.27201">
        <ele>1034</ele>
        <time>2010-01-01T01:28:28Z</time>
      </trkpt>
      <trkpt lat="42.26862" lon="2.27202">
        <ele>1034</ele>
        <time>2010-01-01T01:28:29Z</time>
      </trkpt>
      <trkpt lat="42.26864" lon="2.27204">
        <ele>1034</ele>
        <time>2010-01-01T01:28:30Z</time>
      </trkpt>
      <trkpt lat="42.26867" lon="2.27207">
        <ele>1034</ele>
        <time>2010-01-01T01:28:31Z</time>
      </trkpt>
      <trkpt lat="42.26869" lon="2.27208">
        <ele>1034</ele>
        <time>2010-01-01T01:28:32Z</time>
      </trkpt>
      <trkpt lat="42.26872" lon="2.2721">
        <ele>1035</ele>
        <time>2010-01-01T01:28:33Z</time>
      </trkpt>
      <trkpt lat="42.26878" lon="2.27219">
        <ele>1034</ele>
        <time>2010-01-01T01:28:37Z</time>
      </trkpt>
      <trkpt lat="42.2688" lon="2.27222">
        <ele>1034</ele>
        <time>2010-01-01T01:28:38Z</time>
      </trkpt>
      <trkpt lat="42.26882" lon="2.27225">
        <ele>1034</ele>
        <time>2010-01-01T01:28:39Z</time>
      </trkpt>
      <trkpt lat="42.26883" lon="2.27227">
        <ele>1034</ele>
        <time>2010-01-01T01:28:40Z</time>
      </trkpt>
      <trkpt lat="42.2688" lon="2.2724">
        <ele>1033</ele>
        <time>2010-01-01T01:28:44Z</time>
      </trkpt>
      <trkpt lat="42.26869" lon="2.2724">
        <ele>1030</ele>
        <time>2010-01-01T01:28:48Z</time>
      </trkpt>
      <trkpt lat="42.26859" lon="2.2724">
        <ele>1029</ele>
        <time>2010-01-01T01:28:52Z</time>
      </trkpt>
      <trkpt lat="42.26849" lon="2.27241">
        <ele>1027</ele>
        <time>2010-01-01T01:28:56Z</time>
      </trkpt>
      <trkpt lat="42.26839" lon="2.2724">
        <ele>1026</ele>
        <time>2010-01-01T01:29:00Z</time>
      </trkpt>
      <trkpt lat="42.2683" lon="2.27235">
        <ele>1025</ele>
        <time>2010-01-01T01:29:04Z</time>
      </trkpt>
      <trkpt lat="42.26819" lon="2.27231">
        <ele>1022</ele>
        <time>2010-01-01T01:29:09Z</time>
      </trkpt>
      <trkpt lat="42.26808" lon="2.2723">
        <ele>1020</ele>
        <time>2010-01-01T01:29:13Z</time>
      </trkpt>
      <trkpt lat="42.26797" lon="2.27228">
        <ele>1017</ele>
        <time>2010-01-01T01:29:18Z</time>
      </trkpt>
      <trkpt lat="42.2679" lon="2.2723">
        <ele>1016</ele>
        <time>2010-01-01T01:29:21Z</time>
      </trkpt>
      <trkpt lat="42.26788" lon="2.27231">
        <ele>1015</ele>
        <time>2010-01-01T01:29:22Z</time>
      </trkpt>
      <trkpt lat="42.26785" lon="2.27231">
        <ele>1015</ele>
        <time>2010-01-01T01:29:22Z</time>
      </trkpt>
      <trkpt lat="42.26782" lon="2.27232">
        <ele>1014</ele>
        <time>2010-01-01T01:29:24Z</time>
      </trkpt>
      <trkpt lat="42.26781" lon="2.27234">
        <ele>1013</ele>
        <time>2010-01-01T01:29:25Z</time>
      </trkpt>
      <trkpt lat="42.2678" lon="2.27247">
        <ele>1011</ele>
        <time>2010-01-01T01:29:29Z</time>
      </trkpt>
      <trkpt lat="42.26779" lon="2.27252">
        <ele>1011</ele>
        <time>2010-01-01T01:29:30Z</time>
      </trkpt>
      <trkpt lat="42.26778" lon="2.27256">
        <ele>1010</ele>
        <time>2010-01-01T01:29:31Z</time>
      </trkpt>
      <trkpt lat="42.26776" lon="2.27258">
        <ele>1010</ele>
        <time>2010-01-01T01:29:32Z</time>
      </trkpt>
      <trkpt lat="42.26775" lon="2.27259">
        <ele>1009</ele>
        <time>2010-01-01T01:29:33Z</time>
      </trkpt>
      <trkpt lat="42.26767" lon="2.27267">
        <ele>1008</ele>
        <time>2010-01-01T01:29:37Z</time>
      </trkpt>
      <trkpt lat="42.26762" lon="2.2727">
        <ele>1008</ele>
        <time>2010-01-01T01:29:39Z</time>
      </trkpt>
      <trkpt lat="42.2676" lon="2.27273">
        <ele>1008</ele>
        <time>2010-01-01T01:29:40Z</time>
      </trkpt>
      <trkpt lat="42.26758" lon="2.27275">
        <ele>1007</ele>
        <time>2010-01-01T01:29:41Z</time>
      </trkpt>
      <trkpt lat="42.26756" lon="2.27278">
        <ele>1007</ele>
        <time>2010-01-01T01:29:42Z</time>
      </trkpt>
      <trkpt lat="42.26753" lon="2.2728">
        <ele>1007</ele>
        <time>2010-01-01T01:29:44Z</time>
      </trkpt>
      <trkpt lat="42.26748" lon="2.27291">
        <ele>1007</ele>
        <time>2010-01-01T01:29:47Z</time>
      </trkpt>
      <trkpt lat="42.26747" lon="2.27295">
        <ele>1008</ele>
        <time>2010-01-01T01:29:49Z</time>
      </trkpt>
      <trkpt lat="42.26745" lon="2.27298">
        <ele>1008</ele>
        <time>2010-01-01T01:29:50Z</time>
      </trkpt>
      <trkpt lat="42.26743" lon="2.27302">
        <ele>1009</ele>
        <time>2010-01-01T01:29:51Z</time>
      </trkpt>
      <trkpt lat="42.26741" lon="2.27305">
        <ele>1009</ele>
        <time>2010-01-01T01:29:53Z</time>
      </trkpt>
      <trkpt lat="42.2674" lon="2.27309">
        <ele>1009</ele>
        <time>2010-01-01T01:29:54Z</time>
      </trkpt>
      <trkpt lat="42.26738" lon="2.27312">
        <ele>1009</ele>
        <time>2010-01-01T01:29:55Z</time>
      </trkpt>
      <trkpt lat="42.26737" lon="2.27316">
        <ele>1009</ele>
        <time>2010-01-01T01:29:56Z</time>
      </trkpt>
      <trkpt lat="42.26737" lon="2.2732">
        <ele>1009</ele>
        <time>2010-01-01T01:29:57Z</time>
      </trkpt>
      <trkpt lat="42.26736" lon="2.27324">
        <ele>1009</ele>
        <time>2010-01-01T01:29:59Z</time>
      </trkpt>
      <trkpt lat="42.26735" lon="2.27328">
        <ele>1008</ele>
        <time>2010-01-01T01:30:00Z</time>
      </trkpt>
      <trkpt lat="42.26734" lon="2.27333">
        <ele>1008</ele>
        <time>2010-01-01T01:30:01Z</time>
      </trkpt>
      <trkpt lat="42.26733" lon="2.27337">
        <ele>1008</ele>
        <time>2010-01-01T01:30:03Z</time>
      </trkpt>
      <trkpt lat="42.26731" lon="2.27341">
        <ele>1007</ele>
        <time>2010-01-01T01:30:04Z</time>
      </trkpt>
      <trkpt lat="42.2673" lon="2.27344">
        <ele>1007</ele>
        <time>2010-01-01T01:30:05Z</time>
      </trkpt>
      <trkpt lat="42.26729" lon="2.27347">
        <ele>1006</ele>
        <time>2010-01-01T01:30:06Z</time>
      </trkpt>
      <trkpt lat="42.26728" lon="2.27351">
        <ele>1006</ele>
        <time>2010-01-01T01:30:07Z</time>
      </trkpt>
      <trkpt lat="42.26727" lon="2.27355">
        <ele>1005</ele>
        <time>2010-01-01T01:30:08Z</time>
      </trkpt>
      <trkpt lat="42.26727" lon="2.27357">
        <ele>1004</ele>
        <time>2010-01-01T01:30:09Z</time>
      </trkpt>
      <trkpt lat="42.26727" lon="2.2736">
        <ele>1004</ele>
        <time>2010-01-01T01:30:10Z</time>
      </trkpt>
      <trkpt lat="42.26727" lon="2.27363">
        <ele>1003</ele>
        <time>2010-01-01T01:30:11Z</time>
      </trkpt>
      <trkpt lat="42.26727" lon="2.27366">
        <ele>1002</ele>
        <time>2010-01-01T01:30:12Z</time>
      </trkpt>
      <trkpt lat="42.26726" lon="2.27369">
        <ele>1001</ele>
        <time>2010-01-01T01:30:13Z</time>
      </trkpt>
      <trkpt lat="42.26727" lon="2.27373">
        <ele>1001</ele>
        <time>2010-01-01T01:30:14Z</time>
      </trkpt>
      <trkpt lat="42.26728" lon="2.27377">
        <ele>1000</ele>
        <time>2010-01-01T01:30:15Z</time>
      </trkpt>
      <trkpt lat="42.26726" lon="2.27391">
        <ele>997</ele>
        <time>2010-01-01T01:30:19Z</time>
      </trkpt>
      <trkpt lat="42.26716" lon="2.27398">
        <ele>996</ele>
        <time>2010-01-01T01:30:23Z</time>
      </trkpt>
      <trkpt lat="42.26714" lon="2.27399">
        <ele>996</ele>
        <time>2010-01-01T01:30:24Z</time>
      </trkpt>
      <trkpt lat="42.26712" lon="2.27399">
        <ele>996</ele>
        <time>2010-01-01T01:30:25Z</time>
      </trkpt>
      <trkpt lat="42.26709" lon="2.27401">
        <ele>996</ele>
        <time>2010-01-01T01:30:27Z</time>
      </trkpt>
      <trkpt lat="42.26706" lon="2.27403">
        <ele>996</ele>
        <time>2010-01-01T01:30:28Z</time>
      </trkpt>
      <trkpt lat="42.26702" lon="2.27406">
        <ele>996</ele>
        <time>2010-01-01T01:30:30Z</time>
      </trkpt>
      <trkpt lat="42.26701" lon="2.27409">
        <ele>995</ele>
        <time>2010-01-01T01:30:31Z</time>
      </trkpt>
      <trkpt lat="42.26699" lon="2.27412">
        <ele>995</ele>
        <time>2010-01-01T01:30:32Z</time>
      </trkpt>
      <trkpt lat="42.26698" lon="2.27414">
        <ele>994</ele>
        <time>2010-01-01T01:30:33Z</time>
      </trkpt>
      <trkpt lat="42.26696" lon="2.27417">
        <ele>993</ele>
        <time>2010-01-01T01:30:34Z</time>
      </trkpt>
      <trkpt lat="42.26695" lon="2.27421">
        <ele>993</ele>
        <time>2010-01-01T01:30:35Z</time>
      </trkpt>
      <trkpt lat="42.26693" lon="2.27424">
        <ele>992</ele>
        <time>2010-01-01T01:30:36Z</time>
      </trkpt>
      <trkpt lat="42.26692" lon="2.27427">
        <ele>992</ele>
        <time>2010-01-01T01:30:37Z</time>
      </trkpt>
      <trkpt lat="42.26691" lon="2.27431">
        <ele>991</ele>
        <time>2010-01-01T01:30:38Z</time>
      </trkpt>
      <trkpt lat="42.26689" lon="2.27434">
        <ele>991</ele>
        <time>2010-01-01T01:30:40Z</time>
      </trkpt>
      <trkpt lat="42.26687" lon="2.27437">
        <ele>990</ele>
        <time>2010-01-01T01:30:41Z</time>
      </trkpt>
      <trkpt lat="42.26684" lon="2.27438">
        <ele>990</ele>
        <time>2010-01-01T01:30:42Z</time>
      </trkpt>
      <trkpt lat="42.26682" lon="2.27439">
        <ele>990</ele>
        <time>2010-01-01T01:30:43Z</time>
      </trkpt>
      <trkpt lat="42.2668" lon="2.27439">
        <ele>990</ele>
        <time>2010-01-01T01:30:44Z</time>
      </trkpt>
      <trkpt lat="42.26678" lon="2.2744">
        <ele>990</ele>
        <time>2010-01-01T01:30:44Z</time>
      </trkpt>
      <trkpt lat="42.26676" lon="2.2744">
        <ele>990</ele>
        <time>2010-01-01T01:30:45Z</time>
      </trkpt>
      <trkpt lat="42.26674" lon="2.2744">
        <ele>990</ele>
        <time>2010-01-01T01:30:46Z</time>
      </trkpt>
      <trkpt lat="42.26672" lon="2.27441">
        <ele>990</ele>
        <time>2010-01-01T01:30:47Z</time>
      </trkpt>
      <trkpt lat="42.26669" lon="2.27441">
        <ele>990</ele>
        <time>2010-01-01T01:30:48Z</time>
      </trkpt>
      <trkpt lat="42.26667" lon="2.27443">
        <ele>990</ele>
        <time>2010-01-01T01:30:49Z</time>
      </trkpt>
      <trkpt lat="42.26665" lon="2.27445">
        <ele>990</ele>
        <time>2010-01-01T01:30:50Z</time>
      </trkpt>
      <trkpt lat="42.26663" lon="2.27446">
        <ele>990</ele>
        <time>2010-01-01T01:30:51Z</time>
      </trkpt>
      <trkpt lat="42.26661" lon="2.27447">
        <ele>989</ele>
        <time>2010-01-01T01:30:52Z</time>
      </trkpt>
      <trkpt lat="42.26656" lon="2.27448">
        <ele>990</ele>
        <time>2010-01-01T01:30:54Z</time>
      </trkpt>
      <trkpt lat="42.26654" lon="2.2745">
        <ele>990</ele>
        <time>2010-01-01T01:30:55Z</time>
      </trkpt>
      <trkpt lat="42.26655" lon="2.27453">
        <ele>989</ele>
        <time>2010-01-01T01:30:56Z</time>
      </trkpt>
      <trkpt lat="42.26655" lon="2.27455">
        <ele>989</ele>
        <time>2010-01-01T01:30:56Z</time>
      </trkpt>
      <trkpt lat="42.26656" lon="2.27458">
        <ele>988</ele>
        <time>2010-01-01T01:30:57Z</time>
      </trkpt>
      <trkpt lat="42.26656" lon="2.27464">
        <ele>987</ele>
        <time>2010-01-01T01:30:59Z</time>
      </trkpt>
      <trkpt lat="42.26658" lon="2.27464">
        <ele>987</ele>
        <time>2010-01-01T01:31:00Z</time>
      </trkpt>
      <trkpt lat="42.26661" lon="2.27465">
        <ele>987</ele>
        <time>2010-01-01T01:31:01Z</time>
      </trkpt>
      <trkpt lat="42.26661" lon="2.27468">
        <ele>987</ele>
        <time>2010-01-01T01:31:02Z</time>
      </trkpt>
      <trkpt lat="42.26661" lon="2.27471">
        <ele>986</ele>
        <time>2010-01-01T01:31:03Z</time>
      </trkpt>
      <trkpt lat="42.26661" lon="2.27477">
        <ele>985</ele>
        <time>2010-01-01T01:31:04Z</time>
      </trkpt>
      <trkpt lat="42.26662" lon="2.2748">
        <ele>984</ele>
        <time>2010-01-01T01:31:05Z</time>
      </trkpt>
      <trkpt lat="42.26662" lon="2.27484">
        <ele>984</ele>
        <time>2010-01-01T01:31:06Z</time>
      </trkpt>
      <trkpt lat="42.26662" lon="2.27487">
        <ele>983</ele>
        <time>2010-01-01T01:31:07Z</time>
      </trkpt>
      <trkpt lat="42.26662" lon="2.2749">
        <ele>983</ele>
        <time>2010-01-01T01:31:08Z</time>
      </trkpt>
      <trkpt lat="42.26662" lon="2.27493">
        <ele>982</ele>
        <time>2010-01-01T01:31:09Z</time>
      </trkpt>
      <trkpt lat="42.26661" lon="2.27496">
        <ele>981</ele>
        <time>2010-01-01T01:31:10Z</time>
      </trkpt>
      <trkpt lat="42.2666" lon="2.275">
        <ele>981</ele>
        <time>2010-01-01T01:31:11Z</time>
      </trkpt>
      <trkpt lat="42.26662" lon="2.27501">
        <ele>980</ele>
        <time>2010-01-01T01:31:12Z</time>
      </trkpt>
      <trkpt lat="42.26664" lon="2.275">
        <ele>981</ele>
        <time>2010-01-01T01:31:13Z</time>
      </trkpt>
      <trkpt lat="42.26666" lon="2.27498">
        <ele>981</ele>
        <time>2010-01-01T01:31:14Z</time>
      </trkpt>
      <trkpt lat="42.26669" lon="2.27497">
        <ele>981</ele>
        <time>2010-01-01T01:31:15Z</time>
      </trkpt>
      <trkpt lat="42.26672" lon="2.27495">
        <ele>982</ele>
        <time>2010-01-01T01:31:17Z</time>
      </trkpt>
      <trkpt lat="42.26675" lon="2.27493">
        <ele>982</ele>
        <time>2010-01-01T01:31:18Z</time>
      </trkpt>
      <trkpt lat="42.26677" lon="2.27494">
        <ele>982</ele>
        <time>2010-01-01T01:31:19Z</time>
      </trkpt>
      <trkpt lat="42.26678" lon="2.27496">
        <ele>982</ele>
        <time>2010-01-01T01:31:20Z</time>
      </trkpt>
      <trkpt lat="42.26679" lon="2.27498">
        <ele>982</ele>
        <time>2010-01-01T01:31:20Z</time>
      </trkpt>
      <trkpt lat="42.26678" lon="2.27501">
        <ele>981</ele>
        <time>2010-01-01T01:31:21Z</time>
      </trkpt>
      <trkpt lat="42.26679" lon="2.27508">
        <ele>980</ele>
        <time>2010-01-01T01:31:23Z</time>
      </trkpt>
      <trkpt lat="42.26674" lon="2.27519">
        <ele>978</ele>
        <time>2010-01-01T01:31:27Z</time>
      </trkpt>
      <trkpt lat="42.26671" lon="2.27532">
        <ele>974</ele>
        <time>2010-01-01T01:31:31Z</time>
      </trkpt>
      <trkpt lat="42.26664" lon="2.27541">
        <ele>971</ele>
        <time>2010-01-01T01:31:35Z</time>
      </trkpt>
      <trkpt lat="42.26662" lon="2.27544">
        <ele>970</ele>
        <time>2010-01-01T01:31:36Z</time>
      </trkpt>
      <trkpt lat="42.26657" lon="2.27549">
        <ele>969</ele>
        <time>2010-01-01T01:31:39Z</time>
      </trkpt>
      <trkpt lat="42.26655" lon="2.27552">
        <ele>968</ele>
        <time>2010-01-01T01:31:40Z</time>
      </trkpt>
      <trkpt lat="42.26654" lon="2.27555">
        <ele>967</ele>
        <time>2010-01-01T01:31:41Z</time>
      </trkpt>
      <trkpt lat="42.26653" lon="2.27558">
        <ele>967</ele>
        <time>2010-01-01T01:31:42Z</time>
      </trkpt>
      <trkpt lat="42.26651" lon="2.27561">
        <ele>967</ele>
        <time>2010-01-01T01:31:43Z</time>
      </trkpt>
      <trkpt lat="42.26649" lon="2.27563">
        <ele>966</ele>
        <time>2010-01-01T01:31:44Z</time>
      </trkpt>
      <trkpt lat="42.26647" lon="2.27566">
        <ele>966</ele>
        <time>2010-01-01T01:31:45Z</time>
      </trkpt>
      <trkpt lat="42.26645" lon="2.27568">
        <ele>966</ele>
        <time>2010-01-01T01:31:46Z</time>
      </trkpt>
      <trkpt lat="42.26643" lon="2.2757">
        <ele>965</ele>
        <time>2010-01-01T01:31:47Z</time>
      </trkpt>
      <trkpt lat="42.26641" lon="2.27572">
        <ele>965</ele>
        <time>2010-01-01T01:31:48Z</time>
      </trkpt>
      <trkpt lat="42.26638" lon="2.27575">
        <ele>965</ele>
        <time>2010-01-01T01:31:50Z</time>
      </trkpt>
      <trkpt lat="42.26636" lon="2.27577">
        <ele>965</ele>
        <time>2010-01-01T01:31:51Z</time>
      </trkpt>
      <trkpt lat="42.26634" lon="2.27579">
        <ele>965</ele>
        <time>2010-01-01T01:31:52Z</time>
      </trkpt>
      <trkpt lat="42.26631" lon="2.27581">
        <ele>965</ele>
        <time>2010-01-01T01:31:53Z</time>
      </trkpt>
      <trkpt lat="42.26629" lon="2.27584">
        <ele>965</ele>
        <time>2010-01-01T01:31:54Z</time>
      </trkpt>
      <trkpt lat="42.26627" lon="2.27587">
        <ele>965</ele>
        <time>2010-01-01T01:31:55Z</time>
      </trkpt>
      <trkpt lat="42.26626" lon="2.27588">
        <ele>965</ele>
        <time>2010-01-01T01:31:56Z</time>
      </trkpt>
      <trkpt lat="42.26624" lon="2.27591">
        <ele>965</ele>
        <time>2010-01-01T01:31:57Z</time>
      </trkpt>
      <trkpt lat="42.26623" lon="2.27594">
        <ele>965</ele>
        <time>2010-01-01T01:31:58Z</time>
      </trkpt>
      <trkpt lat="42.26621" lon="2.27597">
        <ele>965</ele>
        <time>2010-01-01T01:31:59Z</time>
      </trkpt>
      <trkpt lat="42.26619" lon="2.276">
        <ele>965</ele>
        <time>2010-01-01T01:32:00Z</time>
      </trkpt>
      <trkpt lat="42.26619" lon="2.27604">
        <ele>965</ele>
        <time>2010-01-01T01:32:02Z</time>
      </trkpt>
      <trkpt lat="42.26618" lon="2.27608">
        <ele>965</ele>
        <time>2010-01-01T01:32:03Z</time>
      </trkpt>
      <trkpt lat="42.26618" lon="2.27611">
        <ele>965</ele>
        <time>2010-01-01T01:32:04Z</time>
      </trkpt>
      <trkpt lat="42.26618" lon="2.27615">
        <ele>965</ele>
        <time>2010-01-01T01:32:05Z</time>
      </trkpt>
      <trkpt lat="42.26617" lon="2.27618">
        <ele>966</ele>
        <time>2010-01-01T01:32:06Z</time>
      </trkpt>
      <trkpt lat="42.26617" lon="2.27622">
        <ele>966</ele>
        <time>2010-01-01T01:32:07Z</time>
      </trkpt>
      <trkpt lat="42.26616" lon="2.27626">
        <ele>966</ele>
        <time>2010-01-01T01:32:08Z</time>
      </trkpt>
      <trkpt lat="42.26616" lon="2.27629">
        <ele>966</ele>
        <time>2010-01-01T01:32:09Z</time>
      </trkpt>
      <trkpt lat="42.26616" lon="2.27633">
        <ele>967</ele>
        <time>2010-01-01T01:32:10Z</time>
      </trkpt>
      <trkpt lat="42.26617" lon="2.27637">
        <ele>967</ele>
        <time>2010-01-01T01:32:11Z</time>
      </trkpt>
      <trkpt lat="42.26616" lon="2.27641">
        <ele>967</ele>
        <time>2010-01-01T01:32:13Z</time>
      </trkpt>
      <trkpt lat="42.26616" lon="2.27644">
        <ele>967</ele>
        <time>2010-01-01T01:32:14Z</time>
      </trkpt>
      <trkpt lat="42.26615" lon="2.27648">
        <ele>967</ele>
        <time>2010-01-01T01:32:15Z</time>
      </trkpt>
      <trkpt lat="42.26614" lon="2.27652">
        <ele>967</ele>
        <time>2010-01-01T01:32:16Z</time>
      </trkpt>
      <trkpt lat="42.26613" lon="2.27656">
        <ele>967</ele>
        <time>2010-01-01T01:32:17Z</time>
      </trkpt>
      <trkpt lat="42.26612" lon="2.2766">
        <ele>967</ele>
        <time>2010-01-01T01:32:18Z</time>
      </trkpt>
      <trkpt lat="42.2661" lon="2.27663">
        <ele>966</ele>
        <time>2010-01-01T01:32:20Z</time>
      </trkpt>
      <trkpt lat="42.26609" lon="2.27666">
        <ele>966</ele>
        <time>2010-01-01T01:32:21Z</time>
      </trkpt>
      <trkpt lat="42.26608" lon="2.27668">
        <ele>966</ele>
        <time>2010-01-01T01:32:21Z</time>
      </trkpt>
      <trkpt lat="42.26607" lon="2.27672">
        <ele>965</ele>
        <time>2010-01-01T01:32:23Z</time>
      </trkpt>
      <trkpt lat="42.26606" lon="2.27674">
        <ele>965</ele>
        <time>2010-01-01T01:32:23Z</time>
      </trkpt>
      <trkpt lat="42.26604" lon="2.27675">
        <ele>964</ele>
        <time>2010-01-01T01:32:24Z</time>
      </trkpt>
      <trkpt lat="42.26602" lon="2.27674">
        <ele>964</ele>
        <time>2010-01-01T01:32:25Z</time>
      </trkpt>
      <trkpt lat="42.26598" lon="2.27674">
        <ele>963</ele>
        <time>2010-01-01T01:32:27Z</time>
      </trkpt>
      <trkpt lat="42.26595" lon="2.27673">
        <ele>963</ele>
        <time>2010-01-01T01:32:28Z</time>
      </trkpt>
      <trkpt lat="42.26593" lon="2.27672">
        <ele>963</ele>
        <time>2010-01-01T01:32:29Z</time>
      </trkpt>
      <trkpt lat="42.26594" lon="2.27675">
        <ele>963</ele>
        <time>2010-01-01T01:32:30Z</time>
      </trkpt>
      <trkpt lat="42.26595" lon="2.27677">
        <ele>963</ele>
        <time>2010-01-01T01:32:31Z</time>
      </trkpt>
      <trkpt lat="42.26597" lon="2.27679">
        <ele>963</ele>
        <time>2010-01-01T01:32:32Z</time>
      </trkpt>
      <trkpt lat="42.26599" lon="2.27682">
        <ele>963</ele>
        <time>2010-01-01T01:32:33Z</time>
      </trkpt>
      <trkpt lat="42.266" lon="2.27685">
        <ele>963</ele>
        <time>2010-01-01T01:32:34Z</time>
      </trkpt>
      <trkpt lat="42.26602" lon="2.27687">
        <ele>963</ele>
        <time>2010-01-01T01:32:35Z</time>
      </trkpt>
      <trkpt lat="42.26603" lon="2.27691">
        <ele>963</ele>
        <time>2010-01-01T01:32:36Z</time>
      </trkpt>
      <trkpt lat="42.26604" lon="2.27694">
        <ele>962</ele>
        <time>2010-01-01T01:32:37Z</time>
      </trkpt>
      <trkpt lat="42.26604" lon="2.27698">
        <ele>962</ele>
        <time>2010-01-01T01:32:38Z</time>
      </trkpt>
      <trkpt lat="42.26603" lon="2.27701">
        <ele>962</ele>
        <time>2010-01-01T01:32:39Z</time>
      </trkpt>
      <trkpt lat="42.26603" lon="2.27705">
        <ele>961</ele>
        <time>2010-01-01T01:32:40Z</time>
      </trkpt>
      <trkpt lat="42.26603" lon="2.27708">
        <ele>961</ele>
        <time>2010-01-01T01:32:41Z</time>
      </trkpt>
      <trkpt lat="42.26602" lon="2.27712">
        <ele>961</ele>
        <time>2010-01-01T01:32:42Z</time>
      </trkpt>
      <trkpt lat="42.26601" lon="2.27714">
        <ele>960</ele>
        <time>2010-01-01T01:32:43Z</time>
      </trkpt>
      <trkpt lat="42.26601" lon="2.27712">
        <ele>961</ele>
        <time>2010-01-01T01:32:44Z</time>
      </trkpt>
      <trkpt lat="42.26603" lon="2.27709">
        <ele>961</ele>
        <time>2010-01-01T01:32:45Z</time>
      </trkpt>
      <trkpt lat="42.26605" lon="2.27706">
        <ele>962</ele>
        <time>2010-01-01T01:32:46Z</time>
      </trkpt>
      <trkpt lat="42.26606" lon="2.27703">
        <ele>962</ele>
        <time>2010-01-01T01:32:47Z</time>
      </trkpt>
      <trkpt lat="42.26607" lon="2.27699">
        <ele>962</ele>
        <time>2010-01-01T01:32:48Z</time>
      </trkpt>
      <trkpt lat="42.26607" lon="2.27696">
        <ele>963</ele>
        <time>2010-01-01T01:32:49Z</time>
      </trkpt>
      <trkpt lat="42.26608" lon="2.27694">
        <ele>963</ele>
        <time>2010-01-01T01:32:50Z</time>
      </trkpt>
      <trkpt lat="42.26591" lon="2.27688">
        <ele>961</ele>
        <time>2010-01-01T01:32:57Z</time>
      </trkpt>
      <trkpt lat="42.266" lon="2.27687">
        <ele>963</ele>
        <time>2010-01-01T01:33:01Z</time>
      </trkpt>
      <trkpt lat="42.26602" lon="2.27684">
        <ele>963</ele>
        <time>2010-01-01T01:33:02Z</time>
      </trkpt>
      <trkpt lat="42.26604" lon="2.27685">
        <ele>963</ele>
        <time>2010-01-01T01:33:03Z</time>
      </trkpt>
      <trkpt lat="42.26607" lon="2.27692">
        <ele>963</ele>
        <time>2010-01-01T01:33:06Z</time>
      </trkpt>
      <trkpt lat="42.26605" lon="2.27688">
        <ele>963</ele>
        <time>2010-01-01T01:33:07Z</time>
      </trkpt>
      <trkpt lat="42.26602" lon="2.27689">
        <ele>963</ele>
        <time>2010-01-01T01:33:08Z</time>
      </trkpt>
      <trkpt lat="42.26601" lon="2.27686">
        <ele>963</ele>
        <time>2010-01-01T01:33:10Z</time>
      </trkpt>
      <trkpt lat="42.26597" lon="2.27685">
        <ele>962</ele>
        <time>2010-01-01T01:33:11Z</time>
      </trkpt>
      <trkpt lat="42.26602" lon="2.27685">
        <ele>963</ele>
        <time>2010-01-01T01:33:13Z</time>
      </trkpt>
      <trkpt lat="42.26596" lon="2.27686">
        <ele>962</ele>
        <time>2010-01-01T01:33:15Z</time>
      </trkpt>
      <trkpt lat="42.26593" lon="2.27681">
        <ele>962</ele>
        <time>2010-01-01T01:33:17Z</time>
      </trkpt>
      <trkpt lat="42.26597" lon="2.27687">
        <ele>962</ele>
        <time>2010-01-01T01:33:19Z</time>
      </trkpt>
      <trkpt lat="42.26602" lon="2.27687">
        <ele>963</ele>
        <time>2010-01-01T01:33:21Z</time>
      </trkpt>
      <trkpt lat="42.26601" lon="2.27684">
        <ele>963</ele>
        <time>2010-01-01T01:33:22Z</time>
      </trkpt>
      <trkpt lat="42.26601" lon="2.2768">
        <ele>963</ele>
        <time>2010-01-01T01:33:23Z</time>
      </trkpt>
      <trkpt lat="42.26602" lon="2.27677">
        <ele>964</ele>
        <time>2010-01-01T01:33:24Z</time>
      </trkpt>
      <trkpt lat="42.26602" lon="2.27674">
        <ele>964</ele>
        <time>2010-01-01T01:33:25Z</time>
      </trkpt>
      <trkpt lat="42.26603" lon="2.27671">
        <ele>965</ele>
        <time>2010-01-01T01:33:26Z</time>
      </trkpt>
      <trkpt lat="42.26604" lon="2.27668">
        <ele>965</ele>
        <time>2010-01-01T01:33:27Z</time>
      </trkpt>
      <trkpt lat="42.26605" lon="2.27666">
        <ele>965</ele>
        <time>2010-01-01T01:33:28Z</time>
      </trkpt>
      <trkpt lat="42.26606" lon="2.27663">
        <ele>966</ele>
        <time>2010-01-01T01:33:28Z</time>
      </trkpt>
      <trkpt lat="42.26607" lon="2.27661">
        <ele>966</ele>
        <time>2010-01-01T01:33:29Z</time>
      </trkpt>
      <trkpt lat="42.26607" lon="2.27658">
        <ele>966</ele>
        <time>2010-01-01T01:33:30Z</time>
      </trkpt>
      <trkpt lat="42.26609" lon="2.27656">
        <ele>966</ele>
        <time>2010-01-01T01:33:31Z</time>
      </trkpt>
      <trkpt lat="42.2661" lon="2.27654">
        <ele>966</ele>
        <time>2010-01-01T01:33:32Z</time>
      </trkpt>
      <trkpt lat="42.26612" lon="2.27651">
        <ele>967</ele>
        <time>2010-01-01T01:33:33Z</time>
      </trkpt>
      <trkpt lat="42.26614" lon="2.2765">
        <ele>967</ele>
        <time>2010-01-01T01:33:34Z</time>
      </trkpt>
      <trkpt lat="42.26616" lon="2.2765">
        <ele>968</ele>
        <time>2010-01-01T01:33:35Z</time>
      </trkpt>
      <trkpt lat="42.26619" lon="2.27651">
        <ele>968</ele>
        <time>2010-01-01T01:33:36Z</time>
      </trkpt>
      <trkpt lat="42.26621" lon="2.27652">
        <ele>968</ele>
        <time>2010-01-01T01:33:37Z</time>
      </trkpt>
      <trkpt lat="42.26624" lon="2.27651">
        <ele>969</ele>
        <time>2010-01-01T01:33:38Z</time>
      </trkpt>
      <trkpt lat="42.26626" lon="2.27651">
        <ele>969</ele>
        <time>2010-01-01T01:33:39Z</time>
      </trkpt>
      <trkpt lat="42.26628" lon="2.27652">
        <ele>970</ele>
        <time>2010-01-01T01:33:39Z</time>
      </trkpt>
      <trkpt lat="42.26629" lon="2.27654">
        <ele>970</ele>
        <time>2010-01-01T01:33:40Z</time>
      </trkpt>
      <trkpt lat="42.26632" lon="2.27655">
        <ele>971</ele>
        <time>2010-01-01T01:33:41Z</time>
      </trkpt>
      <trkpt lat="42.26634" lon="2.27656">
        <ele>971</ele>
        <time>2010-01-01T01:33:42Z</time>
      </trkpt>
      <trkpt lat="42.26636" lon="2.27657">
        <ele>972</ele>
        <time>2010-01-01T01:33:43Z</time>
      </trkpt>
      <trkpt lat="42.26638" lon="2.27656">
        <ele>972</ele>
        <time>2010-01-01T01:33:44Z</time>
      </trkpt>
      <trkpt lat="42.2664" lon="2.27655">
        <ele>972</ele>
        <time>2010-01-01T01:33:45Z</time>
      </trkpt>
      <trkpt lat="42.26642" lon="2.27657">
        <ele>973</ele>
        <time>2010-01-01T01:33:46Z</time>
      </trkpt>
      <trkpt lat="42.26643" lon="2.2766">
        <ele>973</ele>
        <time>2010-01-01T01:33:46Z</time>
      </trkpt>
      <trkpt lat="42.26643" lon="2.27663">
        <ele>974</ele>
        <time>2010-01-01T01:33:47Z</time>
      </trkpt>
      <trkpt lat="42.26645" lon="2.27666">
        <ele>974</ele>
        <time>2010-01-01T01:33:48Z</time>
      </trkpt>
      <trkpt lat="42.26645" lon="2.27669">
        <ele>974</ele>
        <time>2010-01-01T01:33:49Z</time>
      </trkpt>
      <trkpt lat="42.26646" lon="2.27673">
        <ele>974</ele>
        <time>2010-01-01T01:33:50Z</time>
      </trkpt>
      <trkpt lat="42.26647" lon="2.27676">
        <ele>974</ele>
        <time>2010-01-01T01:33:51Z</time>
      </trkpt>
      <trkpt lat="42.26648" lon="2.27679">
        <ele>975</ele>
        <time>2010-01-01T01:33:52Z</time>
      </trkpt>
      <trkpt lat="42.26648" lon="2.27682">
        <ele>975</ele>
        <time>2010-01-01T01:33:53Z</time>
      </trkpt>
      <trkpt lat="42.26649" lon="2.27685">
        <ele>975</ele>
        <time>2010-01-01T01:33:54Z</time>
      </trkpt>
      <trkpt lat="42.2665" lon="2.27688">
        <ele>975</ele>
        <time>2010-01-01T01:33:55Z</time>
      </trkpt>
      <trkpt lat="42.26652" lon="2.27687">
        <ele>976</ele>
        <time>2010-01-01T01:33:56Z</time>
      </trkpt>
      <trkpt lat="42.26652" lon="2.27685">
        <ele>976</ele>
        <time>2010-01-01T01:33:57Z</time>
      </trkpt>
      <trkpt lat="42.26652" lon="2.27682">
        <ele>976</ele>
        <time>2010-01-01T01:33:58Z</time>
      </trkpt>
      <trkpt lat="42.26652" lon="2.27674">
        <ele>976</ele>
        <time>2010-01-01T01:34:00Z</time>
      </trkpt>
      <trkpt lat="42.26652" lon="2.27672">
        <ele>976</ele>
        <time>2010-01-01T01:34:01Z</time>
      </trkpt>
      <trkpt lat="42.26652" lon="2.27666">
        <ele>976</ele>
        <time>2010-01-01T01:34:02Z</time>
      </trkpt>
      <trkpt lat="42.26653" lon="2.27663">
        <ele>976</ele>
        <time>2010-01-01T01:34:03Z</time>
      </trkpt>
      <trkpt lat="42.26654" lon="2.27661">
        <ele>976</ele>
        <time>2010-01-01T01:34:04Z</time>
      </trkpt>
      <trkpt lat="42.26655" lon="2.27658">
        <ele>977</ele>
        <time>2010-01-01T01:34:05Z</time>
      </trkpt>
      <trkpt lat="42.26655" lon="2.27655">
        <ele>977</ele>
        <time>2010-01-01T01:34:06Z</time>
      </trkpt>
      <trkpt lat="42.26657" lon="2.27652">
        <ele>977</ele>
        <time>2010-01-01T01:34:07Z</time>
      </trkpt>
      <trkpt lat="42.26658" lon="2.2765">
        <ele>977</ele>
        <time>2010-01-01T01:34:08Z</time>
      </trkpt>
      <trkpt lat="42.2666" lon="2.27648">
        <ele>977</ele>
        <time>2010-01-01T01:34:09Z</time>
      </trkpt>
      <trkpt lat="42.26661" lon="2.27645">
        <ele>978</ele>
        <time>2010-01-01T01:34:10Z</time>
      </trkpt>
      <trkpt lat="42.26663" lon="2.27642">
        <ele>978</ele>
        <time>2010-01-01T01:34:11Z</time>
      </trkpt>
      <trkpt lat="42.26663" lon="2.27639">
        <ele>978</ele>
        <time>2010-01-01T01:34:12Z</time>
      </trkpt>
      <trkpt lat="42.26664" lon="2.27636">
        <ele>977</ele>
        <time>2010-01-01T01:34:12Z</time>
      </trkpt>
      <trkpt lat="42.26665" lon="2.27633">
        <ele>977</ele>
        <time>2010-01-01T01:34:13Z</time>
      </trkpt>
      <trkpt lat="42.26666" lon="2.27632">
        <ele>977</ele>
        <time>2010-01-01T01:34:14Z</time>
      </trkpt>
      <trkpt lat="42.26667" lon="2.27635">
        <ele>978</ele>
        <time>2010-01-01T01:34:15Z</time>
      </trkpt>
      <trkpt lat="42.26669" lon="2.27637">
        <ele>979</ele>
        <time>2010-01-01T01:34:16Z</time>
      </trkpt>
      <trkpt lat="42.2667" lon="2.2764">
        <ele>980</ele>
        <time>2010-01-01T01:34:17Z</time>
      </trkpt>
      <trkpt lat="42.26671" lon="2.27643">
        <ele>980</ele>
        <time>2010-01-01T01:34:18Z</time>
      </trkpt>
      <trkpt lat="42.26673" lon="2.27644">
        <ele>981</ele>
        <time>2010-01-01T01:34:19Z</time>
      </trkpt>
      <trkpt lat="42.26674" lon="2.27647">
        <ele>982</ele>
        <time>2010-01-01T01:34:19Z</time>
      </trkpt>
      <trkpt lat="42.26675" lon="2.27649">
        <ele>983</ele>
        <time>2010-01-01T01:34:20Z</time>
      </trkpt>
      <trkpt lat="42.26677" lon="2.2765">
        <ele>984</ele>
        <time>2010-01-01T01:34:21Z</time>
      </trkpt>
      <trkpt lat="42.26678" lon="2.27653">
        <ele>984</ele>
        <time>2010-01-01T01:34:22Z</time>
      </trkpt>
      <trkpt lat="42.2668" lon="2.27653">
        <ele>985</ele>
        <time>2010-01-01T01:34:23Z</time>
      </trkpt>
      <trkpt lat="42.26681" lon="2.27651">
        <ele>985</ele>
        <time>2010-01-01T01:34:24Z</time>
      </trkpt>
      <trkpt lat="42.2668" lon="2.27648">
        <ele>985</ele>
        <time>2010-01-01T01:34:24Z</time>
      </trkpt>
      <trkpt lat="42.2668" lon="2.27645">
        <ele>984</ele>
        <time>2010-01-01T01:34:25Z</time>
      </trkpt>
      <trkpt lat="42.2668" lon="2.27643">
        <ele>984</ele>
        <time>2010-01-01T01:34:26Z</time>
      </trkpt>
      <trkpt lat="42.26681" lon="2.27639">
        <ele>984</ele>
        <time>2010-01-01T01:34:27Z</time>
      </trkpt>
      <trkpt lat="42.26681" lon="2.27636">
        <ele>984</ele>
        <time>2010-01-01T01:34:28Z</time>
      </trkpt>
      <trkpt lat="42.26682" lon="2.27633">
        <ele>984</ele>
        <time>2010-01-01T01:34:29Z</time>
      </trkpt>
      <trkpt lat="42.26683" lon="2.2763">
        <ele>984</ele>
        <time>2010-01-01T01:34:30Z</time>
      </trkpt>
      <trkpt lat="42.26684" lon="2.27627">
        <ele>984</ele>
        <time>2010-01-01T01:34:31Z</time>
      </trkpt>
      <trkpt lat="42.26685" lon="2.27624">
        <ele>985</ele>
        <time>2010-01-01T01:34:32Z</time>
      </trkpt>
      <trkpt lat="42.26687" lon="2.27622">
        <ele>985</ele>
        <time>2010-01-01T01:34:33Z</time>
      </trkpt>
      <trkpt lat="42.26688" lon="2.27621">
        <ele>986</ele>
        <time>2010-01-01T01:34:34Z</time>
      </trkpt>
      <trkpt lat="42.26691" lon="2.2762">
        <ele>987</ele>
        <time>2010-01-01T01:34:35Z</time>
      </trkpt>
      <trkpt lat="42.26693" lon="2.27619">
        <ele>988</ele>
        <time>2010-01-01T01:34:36Z</time>
      </trkpt>
      <trkpt lat="42.26695" lon="2.2762">
        <ele>989</ele>
        <time>2010-01-01T01:34:36Z</time>
      </trkpt>
      <trkpt lat="42.26696" lon="2.27622">
        <ele>989</ele>
        <time>2010-01-01T01:34:37Z</time>
      </trkpt>
      <trkpt lat="42.26697" lon="2.27626">
        <ele>990</ele>
        <time>2010-01-01T01:34:38Z</time>
      </trkpt>
      <trkpt lat="42.26699" lon="2.27629">
        <ele>991</ele>
        <time>2010-01-01T01:34:39Z</time>
      </trkpt>
      <trkpt lat="42.267" lon="2.27631">
        <ele>992</ele>
        <time>2010-01-01T01:34:40Z</time>
      </trkpt>
      <trkpt lat="42.26701" lon="2.27634">
        <ele>993</ele>
        <time>2010-01-01T01:34:41Z</time>
      </trkpt>
      <trkpt lat="42.26702" lon="2.27636">
        <ele>993</ele>
        <time>2010-01-01T01:34:42Z</time>
      </trkpt>
      <trkpt lat="42.26703" lon="2.27639">
        <ele>994</ele>
        <time>2010-01-01T01:34:43Z</time>
      </trkpt>
      <trkpt lat="42.26705" lon="2.27638">
        <ele>995</ele>
        <time>2010-01-01T01:34:44Z</time>
      </trkpt>
      <trkpt lat="42.26705" lon="2.27636">
        <ele>995</ele>
        <time>2010-01-01T01:34:44Z</time>
      </trkpt>
      <trkpt lat="42.26705" lon="2.27633">
        <ele>994</ele>
        <time>2010-01-01T01:34:45Z</time>
      </trkpt>
      <trkpt lat="42.26705" lon="2.2763">
        <ele>994</ele>
        <time>2010-01-01T01:34:46Z</time>
      </trkpt>
      <trkpt lat="42.26706" lon="2.27627">
        <ele>995</ele>
        <time>2010-01-01T01:34:47Z</time>
      </trkpt>
      <trkpt lat="42.26707" lon="2.27624">
        <ele>995</ele>
        <time>2010-01-01T01:34:48Z</time>
      </trkpt>
      <trkpt lat="42.26708" lon="2.27621">
        <ele>995</ele>
        <time>2010-01-01T01:34:49Z</time>
      </trkpt>
      <trkpt lat="42.26708" lon="2.27619">
        <ele>995</ele>
        <time>2010-01-01T01:34:50Z</time>
      </trkpt>
      <trkpt lat="42.2671" lon="2.27617">
        <ele>996</ele>
        <time>2010-01-01T01:34:51Z</time>
      </trkpt>
      <trkpt lat="42.2671" lon="2.27614">
        <ele>996</ele>
        <time>2010-01-01T01:34:51Z</time>
      </trkpt>
      <trkpt lat="42.2671" lon="2.27611">
        <ele>996</ele>
        <time>2010-01-01T01:34:52Z</time>
      </trkpt>
      <trkpt lat="42.26711" lon="2.27608">
        <ele>996</ele>
        <time>2010-01-01T01:34:53Z</time>
      </trkpt>
      <trkpt lat="42.26713" lon="2.27605">
        <ele>997</ele>
        <time>2010-01-01T01:34:54Z</time>
      </trkpt>
      <trkpt lat="42.26714" lon="2.27603">
        <ele>997</ele>
        <time>2010-01-01T01:34:55Z</time>
      </trkpt>
      <trkpt lat="42.26716" lon="2.27601">
        <ele>998</ele>
        <time>2010-01-01T01:34:56Z</time>
      </trkpt>
      <trkpt lat="42.26718" lon="2.27598">
        <ele>999</ele>
        <time>2010-01-01T01:34:57Z</time>
      </trkpt>
      <trkpt lat="42.2672" lon="2.27596">
        <ele>999</ele>
        <time>2010-01-01T01:34:58Z</time>
      </trkpt>
      <trkpt lat="42.26722" lon="2.27593">
        <ele>1000</ele>
        <time>2010-01-01T01:34:59Z</time>
      </trkpt>
      <trkpt lat="42.26724" lon="2.2759">
        <ele>1000</ele>
        <time>2010-01-01T01:35:01Z</time>
      </trkpt>
      <trkpt lat="42.26725" lon="2.27587">
        <ele>1001</ele>
        <time>2010-01-01T01:35:02Z</time>
      </trkpt>
      <trkpt lat="42.26727" lon="2.27584">
        <ele>1001</ele>
        <time>2010-01-01T01:35:03Z</time>
      </trkpt>
      <trkpt lat="42.26728" lon="2.27582">
        <ele>1002</ele>
        <time>2010-01-01T01:35:04Z</time>
      </trkpt>
      <trkpt lat="42.2673" lon="2.27579">
        <ele>1002</ele>
        <time>2010-01-01T01:35:05Z</time>
      </trkpt>
      <trkpt lat="42.26731" lon="2.27576">
        <ele>1002</ele>
        <time>2010-01-01T01:35:06Z</time>
      </trkpt>
      <trkpt lat="42.26733" lon="2.27574">
        <ele>1002</ele>
        <time>2010-01-01T01:35:07Z</time>
      </trkpt>
      <trkpt lat="42.26734" lon="2.27571">
        <ele>1003</ele>
        <time>2010-01-01T01:35:07Z</time>
      </trkpt>
      <trkpt lat="42.26736" lon="2.2757">
        <ele>1003</ele>
        <time>2010-01-01T01:35:08Z</time>
      </trkpt>
      <trkpt lat="42.26738" lon="2.27567">
        <ele>1004</ele>
        <time>2010-01-01T01:35:09Z</time>
      </trkpt>
      <trkpt lat="42.2674" lon="2.27565">
        <ele>1004</ele>
        <time>2010-01-01T01:35:11Z</time>
      </trkpt>
      <trkpt lat="42.26742" lon="2.27562">
        <ele>1005</ele>
        <time>2010-01-01T01:35:12Z</time>
      </trkpt>
      <trkpt lat="42.26743" lon="2.2756">
        <ele>1005</ele>
        <time>2010-01-01T01:35:13Z</time>
      </trkpt>
      <trkpt lat="42.26744" lon="2.27558">
        <ele>1005</ele>
        <time>2010-01-01T01:35:13Z</time>
      </trkpt>
      <trkpt lat="42.26746" lon="2.27555">
        <ele>1006</ele>
        <time>2010-01-01T01:35:14Z</time>
      </trkpt>
      <trkpt lat="42.26746" lon="2.27553">
        <ele>1006</ele>
        <time>2010-01-01T01:35:15Z</time>
      </trkpt>
      <trkpt lat="42.26747" lon="2.27551">
        <ele>1006</ele>
        <time>2010-01-01T01:35:16Z</time>
      </trkpt>
      <trkpt lat="42.26749" lon="2.27551">
        <ele>1007</ele>
        <time>2010-01-01T01:35:17Z</time>
      </trkpt>
      <trkpt lat="42.26752" lon="2.27552">
        <ele>1008</ele>
        <time>2010-01-01T01:35:17Z</time>
      </trkpt>
      <trkpt lat="42.26754" lon="2.27549">
        <ele>1009</ele>
        <time>2010-01-01T01:35:19Z</time>
      </trkpt>
      <trkpt lat="42.26756" lon="2.27547">
        <ele>1009</ele>
        <time>2010-01-01T01:35:20Z</time>
      </trkpt>
      <trkpt lat="42.26757" lon="2.27545">
        <ele>1010</ele>
        <time>2010-01-01T01:35:20Z</time>
      </trkpt>
      <trkpt lat="42.26759" lon="2.27542">
        <ele>1011</ele>
        <time>2010-01-01T01:35:21Z</time>
      </trkpt>
      <trkpt lat="42.2676" lon="2.2754">
        <ele>1011</ele>
        <time>2010-01-01T01:35:22Z</time>
      </trkpt>
      <trkpt lat="42.26762" lon="2.27538">
        <ele>1012</ele>
        <time>2010-01-01T01:35:23Z</time>
      </trkpt>
      <trkpt lat="42.26763" lon="2.27536">
        <ele>1012</ele>
        <time>2010-01-01T01:35:24Z</time>
      </trkpt>
      <trkpt lat="42.26764" lon="2.27533">
        <ele>1013</ele>
        <time>2010-01-01T01:35:25Z</time>
      </trkpt>
      <trkpt lat="42.26766" lon="2.27531">
        <ele>1013</ele>
        <time>2010-01-01T01:35:26Z</time>
      </trkpt>
      <trkpt lat="42.26766" lon="2.27529">
        <ele>1013</ele>
        <time>2010-01-01T01:35:27Z</time>
      </trkpt>
      <trkpt lat="42.26768" lon="2.27526">
        <ele>1014</ele>
        <time>2010-01-01T01:35:28Z</time>
      </trkpt>
      <trkpt lat="42.26769" lon="2.27524">
        <ele>1015</ele>
        <time>2010-01-01T01:35:28Z</time>
      </trkpt>
      <trkpt lat="42.26771" lon="2.27522">
        <ele>1015</ele>
        <time>2010-01-01T01:35:29Z</time>
      </trkpt>
      <trkpt lat="42.26772" lon="2.27519">
        <ele>1015</ele>
        <time>2010-01-01T01:35:30Z</time>
      </trkpt>
      <trkpt lat="42.26774" lon="2.27517">
        <ele>1016</ele>
        <time>2010-01-01T01:35:31Z</time>
      </trkpt>
      <trkpt lat="42.26776" lon="2.27515">
        <ele>1017</ele>
        <time>2010-01-01T01:35:32Z</time>
      </trkpt>
      <trkpt lat="42.26778" lon="2.27513">
        <ele>1018</ele>
        <time>2010-01-01T01:35:33Z</time>
      </trkpt>
      <trkpt lat="42.2678" lon="2.27512">
        <ele>1019</ele>
        <time>2010-01-01T01:35:34Z</time>
      </trkpt>
      <trkpt lat="42.26783" lon="2.27509">
        <ele>1020</ele>
        <time>2010-01-01T01:35:35Z</time>
      </trkpt>
      <trkpt lat="42.26784" lon="2.27507">
        <ele>1020</ele>
        <time>2010-01-01T01:35:36Z</time>
      </trkpt>
      <trkpt lat="42.26786" lon="2.27506">
        <ele>1021</ele>
        <time>2010-01-01T01:35:37Z</time>
      </trkpt>
      <trkpt lat="42.26789" lon="2.27505">
        <ele>1022</ele>
        <time>2010-01-01T01:35:38Z</time>
      </trkpt>
      <trkpt lat="42.26791" lon="2.27504">
        <ele>1023</ele>
        <time>2010-01-01T01:35:39Z</time>
      </trkpt>
      <trkpt lat="42.26793" lon="2.27502">
        <ele>1024</ele>
        <time>2010-01-01T01:35:40Z</time>
      </trkpt>
      <trkpt lat="42.26794" lon="2.275">
        <ele>1024</ele>
        <time>2010-01-01T01:35:41Z</time>
      </trkpt>
      <trkpt lat="42.26795" lon="2.27498">
        <ele>1025</ele>
        <time>2010-01-01T01:35:42Z</time>
      </trkpt>
      <trkpt lat="42.26796" lon="2.27496">
        <ele>1025</ele>
        <time>2010-01-01T01:35:43Z</time>
      </trkpt>
      <trkpt lat="42.26798" lon="2.27493">
        <ele>1025</ele>
        <time>2010-01-01T01:35:43Z</time>
      </trkpt>
      <trkpt lat="42.26799" lon="2.27491">
        <ele>1025</ele>
        <time>2010-01-01T01:35:44Z</time>
      </trkpt>
      <trkpt lat="42.268" lon="2.27489">
        <ele>1025</ele>
        <time>2010-01-01T01:35:45Z</time>
      </trkpt>
      <trkpt lat="42.26802" lon="2.27487">
        <ele>1026</ele>
        <time>2010-01-01T01:35:46Z</time>
      </trkpt>
      <trkpt lat="42.26804" lon="2.27485">
        <ele>1027</ele>
        <time>2010-01-01T01:35:47Z</time>
      </trkpt>
      <trkpt lat="42.26806" lon="2.27483">
        <ele>1027</ele>
        <time>2010-01-01T01:35:48Z</time>
      </trkpt>
      <trkpt lat="42.26808" lon="2.27481">
        <ele>1028</ele>
        <time>2010-01-01T01:35:49Z</time>
      </trkpt>
      <trkpt lat="42.26809" lon="2.27479">
        <ele>1028</ele>
        <time>2010-01-01T01:35:50Z</time>
      </trkpt>
      <trkpt lat="42.26811" lon="2.27477">
        <ele>1029</ele>
        <time>2010-01-01T01:35:51Z</time>
      </trkpt>
      <trkpt lat="42.26813" lon="2.27475">
        <ele>1029</ele>
        <time>2010-01-01T01:35:52Z</time>
      </trkpt>
      <trkpt lat="42.26815" lon="2.27473">
        <ele>1030</ele>
        <time>2010-01-01T01:35:53Z</time>
      </trkpt>
      <trkpt lat="42.26816" lon="2.27471">
        <ele>1030</ele>
        <time>2010-01-01T01:35:53Z</time>
      </trkpt>
      <trkpt lat="42.26818" lon="2.27469">
        <ele>1030</ele>
        <time>2010-01-01T01:35:54Z</time>
      </trkpt>
      <trkpt lat="42.2682" lon="2.27467">
        <ele>1031</ele>
        <time>2010-01-01T01:35:55Z</time>
      </trkpt>
      <trkpt lat="42.26821" lon="2.27465">
        <ele>1031</ele>
        <time>2010-01-01T01:35:56Z</time>
      </trkpt>
      <trkpt lat="42.26822" lon="2.27463">
        <ele>1032</ele>
        <time>2010-01-01T01:35:57Z</time>
      </trkpt>
      <trkpt lat="42.26823" lon="2.27461">
        <ele>1032</ele>
        <time>2010-01-01T01:35:57Z</time>
      </trkpt>
      <trkpt lat="42.26825" lon="2.27459">
        <ele>1032</ele>
        <time>2010-01-01T01:35:59Z</time>
      </trkpt>
      <trkpt lat="42.26825" lon="2.27456">
        <ele>1032</ele>
        <time>2010-01-01T01:35:59Z</time>
      </trkpt>
      <trkpt lat="42.26826" lon="2.27453">
        <ele>1032</ele>
        <time>2010-01-01T01:36:00Z</time>
      </trkpt>
      <trkpt lat="42.26827" lon="2.27451">
        <ele>1033</ele>
        <time>2010-01-01T01:36:01Z</time>
      </trkpt>
      <trkpt lat="42.26829" lon="2.27448">
        <ele>1033</ele>
        <time>2010-01-01T01:36:02Z</time>
      </trkpt>
      <trkpt lat="42.2683" lon="2.27446">
        <ele>1033</ele>
        <time>2010-01-01T01:36:03Z</time>
      </trkpt>
      <trkpt lat="42.26832" lon="2.27444">
        <ele>1034</ele>
        <time>2010-01-01T01:36:04Z</time>
      </trkpt>
      <trkpt lat="42.26833" lon="2.27441">
        <ele>1034</ele>
        <time>2010-01-01T01:36:05Z</time>
      </trkpt>
      <trkpt lat="42.26833" lon="2.27438">
        <ele>1034</ele>
        <time>2010-01-01T01:36:06Z</time>
      </trkpt>
      <trkpt lat="42.26834" lon="2.27436">
        <ele>1034</ele>
        <time>2010-01-01T01:36:06Z</time>
      </trkpt>
      <trkpt lat="42.26835" lon="2.27434">
        <ele>1034</ele>
        <time>2010-01-01T01:36:07Z</time>
      </trkpt>
      <trkpt lat="42.26837" lon="2.27434">
        <ele>1035</ele>
        <time>2010-01-01T01:36:08Z</time>
      </trkpt>
      <trkpt lat="42.26838" lon="2.27436">
        <ele>1035</ele>
        <time>2010-01-01T01:36:09Z</time>
      </trkpt>
      <trkpt lat="42.26839" lon="2.27439">
        <ele>1036</ele>
        <time>2010-01-01T01:36:10Z</time>
      </trkpt>
      <trkpt lat="42.2684" lon="2.27443">
        <ele>1036</ele>
        <time>2010-01-01T01:36:11Z</time>
      </trkpt>
      <trkpt lat="42.26841" lon="2.27446">
        <ele>1037</ele>
        <time>2010-01-01T01:36:12Z</time>
      </trkpt>
      <trkpt lat="42.26842" lon="2.27448">
        <ele>1037</ele>
        <time>2010-01-01T01:36:13Z</time>
      </trkpt>
      <trkpt lat="42.26842" lon="2.27452">
        <ele>1038</ele>
        <time>2010-01-01T01:36:14Z</time>
      </trkpt>
      <trkpt lat="42.26843" lon="2.27454">
        <ele>1039</ele>
        <time>2010-01-01T01:36:15Z</time>
      </trkpt>
      <trkpt lat="42.26845" lon="2.27456">
        <ele>1039</ele>
        <time>2010-01-01T01:36:15Z</time>
      </trkpt>
      <trkpt lat="42.26847" lon="2.27458">
        <ele>1040</ele>
        <time>2010-01-01T01:36:16Z</time>
      </trkpt>
      <trkpt lat="42.26849" lon="2.27459">
        <ele>1041</ele>
        <time>2010-01-01T01:36:18Z</time>
      </trkpt>
      <trkpt lat="42.26851" lon="2.27461">
        <ele>1042</ele>
        <time>2010-01-01T01:36:18Z</time>
      </trkpt>
      <trkpt lat="42.26853" lon="2.27461">
        <ele>1042</ele>
        <time>2010-01-01T01:36:19Z</time>
      </trkpt>
      <trkpt lat="42.26855" lon="2.27461">
        <ele>1043</ele>
        <time>2010-01-01T01:36:20Z</time>
      </trkpt>
      <trkpt lat="42.26858" lon="2.2746">
        <ele>1044</ele>
        <time>2010-01-01T01:36:21Z</time>
      </trkpt>
      <trkpt lat="42.26859" lon="2.27457">
        <ele>1044</ele>
        <time>2010-01-01T01:36:22Z</time>
      </trkpt>
      <trkpt lat="42.26861" lon="2.27456">
        <ele>1044</ele>
        <time>2010-01-01T01:36:23Z</time>
      </trkpt>
      <trkpt lat="42.26863" lon="2.27455">
        <ele>1044</ele>
        <time>2010-01-01T01:36:24Z</time>
      </trkpt>
      <trkpt lat="42.26865" lon="2.27454">
        <ele>1045</ele>
        <time>2010-01-01T01:36:25Z</time>
      </trkpt>
      <trkpt lat="42.26867" lon="2.27453">
        <ele>1045</ele>
        <time>2010-01-01T01:36:25Z</time>
      </trkpt>
      <trkpt lat="42.26869" lon="2.27452">
        <ele>1045</ele>
        <time>2010-01-01T01:36:26Z</time>
      </trkpt>
      <trkpt lat="42.26871" lon="2.2745">
        <ele>1045</ele>
        <time>2010-01-01T01:36:27Z</time>
      </trkpt>
      <trkpt lat="42.26872" lon="2.27449">
        <ele>1046</ele>
        <time>2010-01-01T01:36:28Z</time>
      </trkpt>
      <trkpt lat="42.26874" lon="2.27448">
        <ele>1046</ele>
        <time>2010-01-01T01:36:29Z</time>
      </trkpt>
      <trkpt lat="42.26876" lon="2.27447">
        <ele>1046</ele>
        <time>2010-01-01T01:36:30Z</time>
      </trkpt>
      <trkpt lat="42.26878" lon="2.27447">
        <ele>1047</ele>
        <time>2010-01-01T01:36:30Z</time>
      </trkpt>
      <trkpt lat="42.2688" lon="2.27446">
        <ele>1047</ele>
        <time>2010-01-01T01:36:31Z</time>
      </trkpt>
      <trkpt lat="42.26882" lon="2.27445">
        <ele>1047</ele>
        <time>2010-01-01T01:36:32Z</time>
      </trkpt>
      <trkpt lat="42.26884" lon="2.27445">
        <ele>1048</ele>
        <time>2010-01-01T01:36:33Z</time>
      </trkpt>
      <trkpt lat="42.26886" lon="2.27444">
        <ele>1048</ele>
        <time>2010-01-01T01:36:34Z</time>
      </trkpt>
      <trkpt lat="42.26888" lon="2.27443">
        <ele>1048</ele>
        <time>2010-01-01T01:36:34Z</time>
      </trkpt>
      <trkpt lat="42.2689" lon="2.27442">
        <ele>1048</ele>
        <time>2010-01-01T01:36:35Z</time>
      </trkpt>
      <trkpt lat="42.26892" lon="2.2744">
        <ele>1048</ele>
        <time>2010-01-01T01:36:36Z</time>
      </trkpt>
      <trkpt lat="42.26894" lon="2.27439">
        <ele>1049</ele>
        <time>2010-01-01T01:36:37Z</time>
      </trkpt>
      <trkpt lat="42.26896" lon="2.27439">
        <ele>1049</ele>
        <time>2010-01-01T01:36:38Z</time>
      </trkpt>
      <trkpt lat="42.26899" lon="2.27439">
        <ele>1050</ele>
        <time>2010-01-01T01:36:39Z</time>
      </trkpt>
      <trkpt lat="42.26901" lon="2.27439">
        <ele>1050</ele>
        <time>2010-01-01T01:36:40Z</time>
      </trkpt>
      <trkpt lat="42.26903" lon="2.27439">
        <ele>1050</ele>
        <time>2010-01-01T01:36:41Z</time>
      </trkpt>
      <trkpt lat="42.26905" lon="2.2744">
        <ele>1051</ele>
        <time>2010-01-01T01:36:42Z</time>
      </trkpt>
      <trkpt lat="42.26909" lon="2.27439">
        <ele>1052</ele>
        <time>2010-01-01T01:36:43Z</time>
      </trkpt>
      <trkpt lat="42.26912" lon="2.2744">
        <ele>1052</ele>
        <time>2010-01-01T01:36:44Z</time>
      </trkpt>
      <trkpt lat="42.26914" lon="2.2744">
        <ele>1053</ele>
        <time>2010-01-01T01:36:45Z</time>
      </trkpt>
      <trkpt lat="42.26916" lon="2.2744">
        <ele>1054</ele>
        <time>2010-01-01T01:36:46Z</time>
      </trkpt>
      <trkpt lat="42.26919" lon="2.2744">
        <ele>1054</ele>
        <time>2010-01-01T01:36:47Z</time>
      </trkpt>
      <trkpt lat="42.26921" lon="2.27441">
        <ele>1055</ele>
        <time>2010-01-01T01:36:48Z</time>
      </trkpt>
      <trkpt lat="42.26923" lon="2.27442">
        <ele>1056</ele>
        <time>2010-01-01T01:36:49Z</time>
      </trkpt>
      <trkpt lat="42.26926" lon="2.27442">
        <ele>1056</ele>
        <time>2010-01-01T01:36:50Z</time>
      </trkpt>
      <trkpt lat="42.26928" lon="2.27443">
        <ele>1057</ele>
        <time>2010-01-01T01:36:51Z</time>
      </trkpt>
      <trkpt lat="42.2693" lon="2.27444">
        <ele>1058</ele>
        <time>2010-01-01T01:36:52Z</time>
      </trkpt>
      <trkpt lat="42.26933" lon="2.27445">
        <ele>1059</ele>
        <time>2010-01-01T01:36:53Z</time>
      </trkpt>
      <trkpt lat="42.26935" lon="2.27446">
        <ele>1059</ele>
        <time>2010-01-01T01:36:54Z</time>
      </trkpt>
      <trkpt lat="42.26938" lon="2.27447">
        <ele>1060</ele>
        <time>2010-01-01T01:36:55Z</time>
      </trkpt>
      <trkpt lat="42.2694" lon="2.27447">
        <ele>1061</ele>
        <time>2010-01-01T01:36:56Z</time>
      </trkpt>
      <trkpt lat="42.26942" lon="2.27448">
        <ele>1062</ele>
        <time>2010-01-01T01:36:57Z</time>
      </trkpt>
      <trkpt lat="42.26945" lon="2.27449">
        <ele>1062</ele>
        <time>2010-01-01T01:36:58Z</time>
      </trkpt>
      <trkpt lat="42.26947" lon="2.27449">
        <ele>1063</ele>
        <time>2010-01-01T01:36:59Z</time>
      </trkpt>
      <trkpt lat="42.26949" lon="2.27448">
        <ele>1064</ele>
        <time>2010-01-01T01:37:00Z</time>
      </trkpt>
      <trkpt lat="42.26952" lon="2.27448">
        <ele>1065</ele>
        <time>2010-01-01T01:37:01Z</time>
      </trkpt>
      <trkpt lat="42.26954" lon="2.27448">
        <ele>1066</ele>
        <time>2010-01-01T01:37:02Z</time>
      </trkpt>
      <trkpt lat="42.26957" lon="2.27447">
        <ele>1067</ele>
        <time>2010-01-01T01:37:03Z</time>
      </trkpt>
      <trkpt lat="42.26959" lon="2.27447">
        <ele>1068</ele>
        <time>2010-01-01T01:37:04Z</time>
      </trkpt>
      <trkpt lat="42.26962" lon="2.27446">
        <ele>1069</ele>
        <time>2010-01-01T01:37:05Z</time>
      </trkpt>
      <trkpt lat="42.26964" lon="2.27445">
        <ele>1069</ele>
        <time>2010-01-01T01:37:06Z</time>
      </trkpt>
      <trkpt lat="42.26966" lon="2.27444">
        <ele>1070</ele>
        <time>2010-01-01T01:37:07Z</time>
      </trkpt>
      <trkpt lat="42.26968" lon="2.27442">
        <ele>1071</ele>
        <time>2010-01-01T01:37:07Z</time>
      </trkpt>
      <trkpt lat="42.2697" lon="2.27441">
        <ele>1071</ele>
        <time>2010-01-01T01:37:08Z</time>
      </trkpt>
      <trkpt lat="42.26973" lon="2.27439">
        <ele>1071</ele>
        <time>2010-01-01T01:37:09Z</time>
      </trkpt>
      <trkpt lat="42.26974" lon="2.27437">
        <ele>1072</ele>
        <time>2010-01-01T01:37:10Z</time>
      </trkpt>
      <trkpt lat="42.26976" lon="2.27435">
        <ele>1072</ele>
        <time>2010-01-01T01:37:11Z</time>
      </trkpt>
      <trkpt lat="42.26978" lon="2.27434">
        <ele>1072</ele>
        <time>2010-01-01T01:37:12Z</time>
      </trkpt>
      <trkpt lat="42.2698" lon="2.27432">
        <ele>1073</ele>
        <time>2010-01-01T01:37:13Z</time>
      </trkpt>
      <trkpt lat="42.26982" lon="2.2743">
        <ele>1073</ele>
        <time>2010-01-01T01:37:14Z</time>
      </trkpt>
      <trkpt lat="42.26984" lon="2.27427">
        <ele>1073</ele>
        <time>2010-01-01T01:37:15Z</time>
      </trkpt>
      <trkpt lat="42.26985" lon="2.27424">
        <ele>1073</ele>
        <time>2010-01-01T01:37:16Z</time>
      </trkpt>
      <trkpt lat="42.26987" lon="2.27422">
        <ele>1073</ele>
        <time>2010-01-01T01:37:17Z</time>
      </trkpt>
      <trkpt lat="42.26988" lon="2.27419">
        <ele>1073</ele>
        <time>2010-01-01T01:37:18Z</time>
      </trkpt>
      <trkpt lat="42.2699" lon="2.27417">
        <ele>1073</ele>
        <time>2010-01-01T01:37:19Z</time>
      </trkpt>
      <trkpt lat="42.26992" lon="2.27414">
        <ele>1074</ele>
        <time>2010-01-01T01:37:20Z</time>
      </trkpt>
      <trkpt lat="42.26993" lon="2.27412">
        <ele>1074</ele>
        <time>2010-01-01T01:37:21Z</time>
      </trkpt>
      <trkpt lat="42.26996" lon="2.2741">
        <ele>1075</ele>
        <time>2010-01-01T01:37:22Z</time>
      </trkpt>
      <trkpt lat="42.26998" lon="2.27408">
        <ele>1075</ele>
        <time>2010-01-01T01:37:23Z</time>
      </trkpt>
      <trkpt lat="42.27" lon="2.27406">
        <ele>1075</ele>
        <time>2010-01-01T01:37:24Z</time>
      </trkpt>
      <trkpt lat="42.27002" lon="2.27405">
        <ele>1076</ele>
        <time>2010-01-01T01:37:25Z</time>
      </trkpt>
      <trkpt lat="42.27003" lon="2.27402">
        <ele>1076</ele>
        <time>2010-01-01T01:37:26Z</time>
      </trkpt>
      <trkpt lat="42.27005" lon="2.274">
        <ele>1076</ele>
        <time>2010-01-01T01:37:27Z</time>
      </trkpt>
      <trkpt lat="42.27007" lon="2.27397">
        <ele>1077</ele>
        <time>2010-01-01T01:37:28Z</time>
      </trkpt>
      <trkpt lat="42.27009" lon="2.27395">
        <ele>1077</ele>
        <time>2010-01-01T01:37:29Z</time>
      </trkpt>
      <trkpt lat="42.27011" lon="2.27393">
        <ele>1077</ele>
        <time>2010-01-01T01:37:30Z</time>
      </trkpt>
      <trkpt lat="42.27012" lon="2.2739">
        <ele>1077</ele>
        <time>2010-01-01T01:37:31Z</time>
      </trkpt>
      <trkpt lat="42.27014" lon="2.27387">
        <ele>1077</ele>
        <time>2010-01-01T01:37:32Z</time>
      </trkpt>
      <trkpt lat="42.27016" lon="2.27385">
        <ele>1078</ele>
        <time>2010-01-01T01:37:33Z</time>
      </trkpt>
      <trkpt lat="42.27017" lon="2.27382">
        <ele>1078</ele>
        <time>2010-01-01T01:37:34Z</time>
      </trkpt>
      <trkpt lat="42.27019" lon="2.27379">
        <ele>1078</ele>
        <time>2010-01-01T01:37:35Z</time>
      </trkpt>
      <trkpt lat="42.2702" lon="2.27376">
        <ele>1078</ele>
        <time>2010-01-01T01:37:36Z</time>
      </trkpt>
      <trkpt lat="42.27022" lon="2.27374">
        <ele>1078</ele>
        <time>2010-01-01T01:37:37Z</time>
      </trkpt>
      <trkpt lat="42.27023" lon="2.27372">
        <ele>1078</ele>
        <time>2010-01-01T01:37:38Z</time>
      </trkpt>
      <trkpt lat="42.27025" lon="2.27369">
        <ele>1079</ele>
        <time>2010-01-01T01:37:39Z</time>
      </trkpt>
      <trkpt lat="42.27027" lon="2.27367">
        <ele>1079</ele>
        <time>2010-01-01T01:37:40Z</time>
      </trkpt>
      <trkpt lat="42.27028" lon="2.27365">
        <ele>1079</ele>
        <time>2010-01-01T01:37:41Z</time>
      </trkpt>
      <trkpt lat="42.2703" lon="2.27363">
        <ele>1080</ele>
        <time>2010-01-01T01:37:42Z</time>
      </trkpt>
      <trkpt lat="42.27031" lon="2.2736">
        <ele>1080</ele>
        <time>2010-01-01T01:37:43Z</time>
      </trkpt>
      <trkpt lat="42.27033" lon="2.27358">
        <ele>1080</ele>
        <time>2010-01-01T01:37:44Z</time>
      </trkpt>
      <trkpt lat="42.27035" lon="2.27356">
        <ele>1081</ele>
        <time>2010-01-01T01:37:45Z</time>
      </trkpt>
      <trkpt lat="42.27037" lon="2.27355">
        <ele>1081</ele>
        <time>2010-01-01T01:37:46Z</time>
      </trkpt>
      <trkpt lat="42.27039" lon="2.27353">
        <ele>1082</ele>
        <time>2010-01-01T01:37:47Z</time>
      </trkpt>
      <trkpt lat="42.2704" lon="2.27351">
        <ele>1082</ele>
        <time>2010-01-01T01:37:47Z</time>
      </trkpt>
      <trkpt lat="42.27042" lon="2.27348">
        <ele>1083</ele>
        <time>2010-01-01T01:37:48Z</time>
      </trkpt>
      <trkpt lat="42.27043" lon="2.27346">
        <ele>1083</ele>
        <time>2010-01-01T01:37:49Z</time>
      </trkpt>
      <trkpt lat="42.27045" lon="2.27344">
        <ele>1083</ele>
        <time>2010-01-01T01:37:50Z</time>
      </trkpt>
      <trkpt lat="42.27046" lon="2.27342">
        <ele>1083</ele>
        <time>2010-01-01T01:37:51Z</time>
      </trkpt>
      <trkpt lat="42.27046" lon="2.27339">
        <ele>1083</ele>
        <time>2010-01-01T01:37:52Z</time>
      </trkpt>
      <trkpt lat="42.27048" lon="2.27336">
        <ele>1083</ele>
        <time>2010-01-01T01:37:53Z</time>
      </trkpt>
      <trkpt lat="42.27049" lon="2.27333">
        <ele>1083</ele>
        <time>2010-01-01T01:37:54Z</time>
      </trkpt>
      <trkpt lat="42.2705" lon="2.2733">
        <ele>1083</ele>
        <time>2010-01-01T01:37:55Z</time>
      </trkpt>
      <trkpt lat="42.27052" lon="2.27327">
        <ele>1083</ele>
        <time>2010-01-01T01:37:56Z</time>
      </trkpt>
      <trkpt lat="42.27053" lon="2.27323">
        <ele>1083</ele>
        <time>2010-01-01T01:37:57Z</time>
      </trkpt>
      <trkpt lat="42.27054" lon="2.2732">
        <ele>1083</ele>
        <time>2010-01-01T01:37:58Z</time>
      </trkpt>
      <trkpt lat="42.27056" lon="2.27317">
        <ele>1083</ele>
        <time>2010-01-01T01:37:59Z</time>
      </trkpt>
      <trkpt lat="42.27058" lon="2.27315">
        <ele>1083</ele>
        <time>2010-01-01T01:38:00Z</time>
      </trkpt>
      <trkpt lat="42.27059" lon="2.27312">
        <ele>1083</ele>
        <time>2010-01-01T01:38:01Z</time>
      </trkpt>
      <trkpt lat="42.27059" lon="2.27309">
        <ele>1083</ele>
        <time>2010-01-01T01:38:02Z</time>
      </trkpt>
      <trkpt lat="42.2706" lon="2.27306">
        <ele>1083</ele>
        <time>2010-01-01T01:38:03Z</time>
      </trkpt>
      <trkpt lat="42.27062" lon="2.27303">
        <ele>1083</ele>
        <time>2010-01-01T01:38:04Z</time>
      </trkpt>
      <trkpt lat="42.27063" lon="2.27299">
        <ele>1083</ele>
        <time>2010-01-01T01:38:05Z</time>
      </trkpt>
      <trkpt lat="42.27065" lon="2.27296">
        <ele>1083</ele>
        <time>2010-01-01T01:38:07Z</time>
      </trkpt>
      <trkpt lat="42.27067" lon="2.27293">
        <ele>1083</ele>
        <time>2010-01-01T01:38:08Z</time>
      </trkpt>
      <trkpt lat="42.27069" lon="2.2729">
        <ele>1083</ele>
        <time>2010-01-01T01:38:09Z</time>
      </trkpt>
      <trkpt lat="42.27071" lon="2.27287">
        <ele>1084</ele>
        <time>2010-01-01T01:38:10Z</time>
      </trkpt>
      <trkpt lat="42.27073" lon="2.27285">
        <ele>1084</ele>
        <time>2010-01-01T01:38:11Z</time>
      </trkpt>
      <trkpt lat="42.27074" lon="2.27282">
        <ele>1084</ele>
        <time>2010-01-01T01:38:12Z</time>
      </trkpt>
      <trkpt lat="42.27076" lon="2.2728">
        <ele>1084</ele>
        <time>2010-01-01T01:38:13Z</time>
      </trkpt>
      <trkpt lat="42.27078" lon="2.27278">
        <ele>1084</ele>
        <time>2010-01-01T01:38:14Z</time>
      </trkpt>
      <trkpt lat="42.2708" lon="2.27275">
        <ele>1085</ele>
        <time>2010-01-01T01:38:15Z</time>
      </trkpt>
      <trkpt lat="42.27082" lon="2.27273">
        <ele>1085</ele>
        <time>2010-01-01T01:38:16Z</time>
      </trkpt>
      <trkpt lat="42.27084" lon="2.27271">
        <ele>1085</ele>
        <time>2010-01-01T01:38:17Z</time>
      </trkpt>
      <trkpt lat="42.27086" lon="2.27269">
        <ele>1086</ele>
        <time>2010-01-01T01:38:18Z</time>
      </trkpt>
      <trkpt lat="42.27087" lon="2.27267">
        <ele>1086</ele>
        <time>2010-01-01T01:38:19Z</time>
      </trkpt>
      <trkpt lat="42.27089" lon="2.27265">
        <ele>1086</ele>
        <time>2010-01-01T01:38:20Z</time>
      </trkpt>
      <trkpt lat="42.27091" lon="2.27262">
        <ele>1087</ele>
        <time>2010-01-01T01:38:21Z</time>
      </trkpt>
      <trkpt lat="42.27093" lon="2.27259">
        <ele>1087</ele>
        <time>2010-01-01T01:38:22Z</time>
      </trkpt>
      <trkpt lat="42.27094" lon="2.27255">
        <ele>1087</ele>
        <time>2010-01-01T01:38:23Z</time>
      </trkpt>
      <trkpt lat="42.27094" lon="2.27251">
        <ele>1087</ele>
        <time>2010-01-01T01:38:25Z</time>
      </trkpt>
      <trkpt lat="42.27094" lon="2.27247">
        <ele>1087</ele>
        <time>2010-01-01T01:38:26Z</time>
      </trkpt>
      <trkpt lat="42.27094" lon="2.27243">
        <ele>1087</ele>
        <time>2010-01-01T01:38:27Z</time>
      </trkpt>
      <trkpt lat="42.27093" lon="2.27239">
        <ele>1087</ele>
        <time>2010-01-01T01:38:28Z</time>
      </trkpt>
      <trkpt lat="42.27092" lon="2.27236">
        <ele>1087</ele>
        <time>2010-01-01T01:38:29Z</time>
      </trkpt>
      <trkpt lat="42.27091" lon="2.27233">
        <ele>1087</ele>
        <time>2010-01-01T01:38:30Z</time>
      </trkpt>
      <trkpt lat="42.2709" lon="2.27229">
        <ele>1087</ele>
        <time>2010-01-01T01:38:31Z</time>
      </trkpt>
      <trkpt lat="42.2709" lon="2.27226">
        <ele>1087</ele>
        <time>2010-01-01T01:38:32Z</time>
      </trkpt>
      <trkpt lat="42.27089" lon="2.27223">
        <ele>1087</ele>
        <time>2010-01-01T01:38:33Z</time>
      </trkpt>
      <trkpt lat="42.27088" lon="2.2722">
        <ele>1087</ele>
        <time>2010-01-01T01:38:34Z</time>
      </trkpt>
      <trkpt lat="42.27087" lon="2.27216">
        <ele>1087</ele>
        <time>2010-01-01T01:38:35Z</time>
      </trkpt>
      <trkpt lat="42.27087" lon="2.27213">
        <ele>1087</ele>
        <time>2010-01-01T01:38:36Z</time>
      </trkpt>
      <trkpt lat="42.27087" lon="2.2721">
        <ele>1087</ele>
        <time>2010-01-01T01:38:37Z</time>
      </trkpt>
      <trkpt lat="42.27087" lon="2.27207">
        <ele>1087</ele>
        <time>2010-01-01T01:38:38Z</time>
      </trkpt>
      <trkpt lat="42.27087" lon="2.27204">
        <ele>1088</ele>
        <time>2010-01-01T01:38:39Z</time>
      </trkpt>
      <trkpt lat="42.27087" lon="2.27201">
        <ele>1088</ele>
        <time>2010-01-01T01:38:40Z</time>
      </trkpt>
      <trkpt lat="42.27087" lon="2.27198">
        <ele>1088</ele>
        <time>2010-01-01T01:38:41Z</time>
      </trkpt>
      <trkpt lat="42.27087" lon="2.27195">
        <ele>1088</ele>
        <time>2010-01-01T01:38:42Z</time>
      </trkpt>
      <trkpt lat="42.27088" lon="2.27192">
        <ele>1089</ele>
        <time>2010-01-01T01:38:43Z</time>
      </trkpt>
      <trkpt lat="42.27088" lon="2.27189">
        <ele>1089</ele>
        <time>2010-01-01T01:38:43Z</time>
      </trkpt>
      <trkpt lat="42.27088" lon="2.27186">
        <ele>1089</ele>
        <time>2010-01-01T01:38:44Z</time>
      </trkpt>
      <trkpt lat="42.27089" lon="2.27183">
        <ele>1090</ele>
        <time>2010-01-01T01:38:45Z</time>
      </trkpt>
      <trkpt lat="42.2709" lon="2.2718">
        <ele>1090</ele>
        <time>2010-01-01T01:38:46Z</time>
      </trkpt>
      <trkpt lat="42.27091" lon="2.27177">
        <ele>1090</ele>
        <time>2010-01-01T01:38:47Z</time>
      </trkpt>
      <trkpt lat="42.27091" lon="2.27174">
        <ele>1091</ele>
        <time>2010-01-01T01:38:48Z</time>
      </trkpt>
      <trkpt lat="42.27093" lon="2.27172">
        <ele>1091</ele>
        <time>2010-01-01T01:38:49Z</time>
      </trkpt>
      <trkpt lat="42.27094" lon="2.2717">
        <ele>1091</ele>
        <time>2010-01-01T01:38:50Z</time>
      </trkpt>
      <trkpt lat="42.27095" lon="2.27167">
        <ele>1092</ele>
        <time>2010-01-01T01:38:51Z</time>
      </trkpt>
      <trkpt lat="42.27097" lon="2.27166">
        <ele>1092</ele>
        <time>2010-01-01T01:38:52Z</time>
      </trkpt>
      <trkpt lat="42.27099" lon="2.27164">
        <ele>1093</ele>
        <time>2010-01-01T01:38:52Z</time>
      </trkpt>
      <trkpt lat="42.27101" lon="2.27163">
        <ele>1093</ele>
        <time>2010-01-01T01:38:54Z</time>
      </trkpt>
      <trkpt lat="42.27104" lon="2.27163">
        <ele>1094</ele>
        <time>2010-01-01T01:38:55Z</time>
      </trkpt>
      <trkpt lat="42.27106" lon="2.27162">
        <ele>1095</ele>
        <time>2010-01-01T01:38:56Z</time>
      </trkpt>
      <trkpt lat="42.27111" lon="2.27163">
        <ele>1096</ele>
        <time>2010-01-01T01:38:57Z</time>
      </trkpt>
      <trkpt lat="42.27113" lon="2.27163">
        <ele>1096</ele>
        <time>2010-01-01T01:38:58Z</time>
      </trkpt>
      <trkpt lat="42.27116" lon="2.27164">
        <ele>1097</ele>
        <time>2010-01-01T01:38:59Z</time>
      </trkpt>
      <trkpt lat="42.27118" lon="2.27165">
        <ele>1097</ele>
        <time>2010-01-01T01:39:00Z</time>
      </trkpt>
      <trkpt lat="42.2712" lon="2.27167">
        <ele>1097</ele>
        <time>2010-01-01T01:39:01Z</time>
      </trkpt>
      <trkpt lat="42.27123" lon="2.27168">
        <ele>1098</ele>
        <time>2010-01-01T01:39:02Z</time>
      </trkpt>
      <trkpt lat="42.27125" lon="2.27169">
        <ele>1098</ele>
        <time>2010-01-01T01:39:03Z</time>
      </trkpt>
      <trkpt lat="42.27127" lon="2.2717">
        <ele>1099</ele>
        <time>2010-01-01T01:39:04Z</time>
      </trkpt>
      <trkpt lat="42.2713" lon="2.2717">
        <ele>1099</ele>
        <time>2010-01-01T01:39:05Z</time>
      </trkpt>
      <trkpt lat="42.27133" lon="2.27171">
        <ele>1100</ele>
        <time>2010-01-01T01:39:06Z</time>
      </trkpt>
      <trkpt lat="42.27135" lon="2.27172">
        <ele>1100</ele>
        <time>2010-01-01T01:39:08Z</time>
      </trkpt>
      <trkpt lat="42.27138" lon="2.27172">
        <ele>1101</ele>
        <time>2010-01-01T01:39:09Z</time>
      </trkpt>
      <trkpt lat="42.27141" lon="2.27173">
        <ele>1101</ele>
        <time>2010-01-01T01:39:10Z</time>
      </trkpt>
      <trkpt lat="42.27143" lon="2.27174">
        <ele>1102</ele>
        <time>2010-01-01T01:39:11Z</time>
      </trkpt>
      <trkpt lat="42.27146" lon="2.27175">
        <ele>1103</ele>
        <time>2010-01-01T01:39:12Z</time>
      </trkpt>
      <trkpt lat="42.27148" lon="2.27175">
        <ele>1103</ele>
        <time>2010-01-01T01:39:13Z</time>
      </trkpt>
      <trkpt lat="42.27151" lon="2.27176">
        <ele>1104</ele>
        <time>2010-01-01T01:39:14Z</time>
      </trkpt>
      <trkpt lat="42.27154" lon="2.27177">
        <ele>1105</ele>
        <time>2010-01-01T01:39:15Z</time>
      </trkpt>
      <trkpt lat="42.27156" lon="2.27177">
        <ele>1105</ele>
        <time>2010-01-01T01:39:16Z</time>
      </trkpt>
      <trkpt lat="42.27159" lon="2.27178">
        <ele>1106</ele>
        <time>2010-01-01T01:39:17Z</time>
      </trkpt>
      <trkpt lat="42.27162" lon="2.27178">
        <ele>1107</ele>
        <time>2010-01-01T01:39:18Z</time>
      </trkpt>
      <trkpt lat="42.27164" lon="2.27179">
        <ele>1107</ele>
        <time>2010-01-01T01:39:19Z</time>
      </trkpt>
      <trkpt lat="42.27167" lon="2.2718">
        <ele>1108</ele>
        <time>2010-01-01T01:39:20Z</time>
      </trkpt>
      <trkpt lat="42.27169" lon="2.27181">
        <ele>1109</ele>
        <time>2010-01-01T01:39:21Z</time>
      </trkpt>
      <trkpt lat="42.27171" lon="2.27182">
        <ele>1109</ele>
        <time>2010-01-01T01:39:22Z</time>
      </trkpt>
      <trkpt lat="42.27173" lon="2.27182">
        <ele>1110</ele>
        <time>2010-01-01T01:39:23Z</time>
      </trkpt>
      <trkpt lat="42.27176" lon="2.27183">
        <ele>1110</ele>
        <time>2010-01-01T01:39:24Z</time>
      </trkpt>
      <trkpt lat="42.27178" lon="2.27183">
        <ele>1111</ele>
        <time>2010-01-01T01:39:25Z</time>
      </trkpt>
      <trkpt lat="42.27181" lon="2.27183">
        <ele>1112</ele>
        <time>2010-01-01T01:39:26Z</time>
      </trkpt>
      <trkpt lat="42.27183" lon="2.27184">
        <ele>1112</ele>
        <time>2010-01-01T01:39:27Z</time>
      </trkpt>
      <trkpt lat="42.27186" lon="2.27185">
        <ele>1113</ele>
        <time>2010-01-01T01:39:28Z</time>
      </trkpt>
      <trkpt lat="42.27188" lon="2.27186">
        <ele>1113</ele>
        <time>2010-01-01T01:39:29Z</time>
      </trkpt>
      <trkpt lat="42.27191" lon="2.27188">
        <ele>1114</ele>
        <time>2010-01-01T01:39:30Z</time>
      </trkpt>
      <trkpt lat="42.27193" lon="2.27189">
        <ele>1114</ele>
        <time>2010-01-01T01:39:31Z</time>
      </trkpt>
      <trkpt lat="42.27195" lon="2.27191">
        <ele>1115</ele>
        <time>2010-01-01T01:39:32Z</time>
      </trkpt>
      <trkpt lat="42.27198" lon="2.27193">
        <ele>1115</ele>
        <time>2010-01-01T01:39:34Z</time>
      </trkpt>
      <trkpt lat="42.272" lon="2.27195">
        <ele>1116</ele>
        <time>2010-01-01T01:39:35Z</time>
      </trkpt>
      <trkpt lat="42.27202" lon="2.27197">
        <ele>1116</ele>
        <time>2010-01-01T01:39:36Z</time>
      </trkpt>
      <trkpt lat="42.27204" lon="2.27199">
        <ele>1117</ele>
        <time>2010-01-01T01:39:37Z</time>
      </trkpt>
      <trkpt lat="42.27206" lon="2.27201">
        <ele>1117</ele>
        <time>2010-01-01T01:39:38Z</time>
      </trkpt>
      <trkpt lat="42.27208" lon="2.27203">
        <ele>1117</ele>
        <time>2010-01-01T01:39:39Z</time>
      </trkpt>
      <trkpt lat="42.27209" lon="2.27206">
        <ele>1118</ele>
        <time>2010-01-01T01:39:40Z</time>
      </trkpt>
      <trkpt lat="42.27211" lon="2.27208">
        <ele>1118</ele>
        <time>2010-01-01T01:39:41Z</time>
      </trkpt>
      <trkpt lat="42.27213" lon="2.2721">
        <ele>1119</ele>
        <time>2010-01-01T01:39:42Z</time>
      </trkpt>
      <trkpt lat="42.27215" lon="2.27212">
        <ele>1119</ele>
        <time>2010-01-01T01:39:43Z</time>
      </trkpt>
      <trkpt lat="42.27217" lon="2.27214">
        <ele>1120</ele>
        <time>2010-01-01T01:39:44Z</time>
      </trkpt>
      <trkpt lat="42.2722" lon="2.27215">
        <ele>1120</ele>
        <time>2010-01-01T01:39:45Z</time>
      </trkpt>
      <trkpt lat="42.27223" lon="2.27216">
        <ele>1121</ele>
        <time>2010-01-01T01:39:46Z</time>
      </trkpt>
      <trkpt lat="42.27224" lon="2.27219">
        <ele>1121</ele>
        <time>2010-01-01T01:39:47Z</time>
      </trkpt>
      <trkpt lat="42.27226" lon="2.27221">
        <ele>1121</ele>
        <time>2010-01-01T01:39:48Z</time>
      </trkpt>
      <trkpt lat="42.27228" lon="2.27222">
        <ele>1122</ele>
        <time>2010-01-01T01:39:49Z</time>
      </trkpt>
      <trkpt lat="42.27231" lon="2.27223">
        <ele>1123</ele>
        <time>2010-01-01T01:39:50Z</time>
      </trkpt>
      <trkpt lat="42.27233" lon="2.27223">
        <ele>1123</ele>
        <time>2010-01-01T01:39:51Z</time>
      </trkpt>
      <trkpt lat="42.27235" lon="2.27224">
        <ele>1123</ele>
        <time>2010-01-01T01:39:51Z</time>
      </trkpt>
      <trkpt lat="42.27237" lon="2.27225">
        <ele>1124</ele>
        <time>2010-01-01T01:39:52Z</time>
      </trkpt>
      <trkpt lat="42.27233" lon="2.27223">
        <ele>1123</ele>
        <time>2010-01-01T01:39:54Z</time>
      </trkpt>
      <trkpt lat="42.27237" lon="2.27223">
        <ele>1124</ele>
        <time>2010-01-01T01:39:55Z</time>
      </trkpt>
      <trkpt lat="42.27239" lon="2.27222">
        <ele>1125</ele>
        <time>2010-01-01T01:39:56Z</time>
      </trkpt>
      <trkpt lat="42.27241" lon="2.27222">
        <ele>1125</ele>
        <time>2010-01-01T01:39:57Z</time>
      </trkpt>
      <trkpt lat="42.27243" lon="2.27222">
        <ele>1126</ele>
        <time>2010-01-01T01:39:58Z</time>
      </trkpt>
      <trkpt lat="42.27245" lon="2.27221">
        <ele>1126</ele>
        <time>2010-01-01T01:39:58Z</time>
      </trkpt>
      <trkpt lat="42.2725" lon="2.27224">
        <ele>1127</ele>
        <time>2010-01-01T01:40:01Z</time>
      </trkpt>
      <trkpt lat="42.2725" lon="2.27227">
        <ele>1127</ele>
        <time>2010-01-01T01:40:02Z</time>
      </trkpt>
      <trkpt lat="42.2725" lon="2.27229">
        <ele>1127</ele>
        <time>2010-01-01T01:40:02Z</time>
      </trkpt>
      <trkpt lat="42.27251" lon="2.27233">
        <ele>1127</ele>
        <time>2010-01-01T01:40:03Z</time>
      </trkpt>
      <trkpt lat="42.27251" lon="2.27236">
        <ele>1127</ele>
        <time>2010-01-01T01:40:05Z</time>
      </trkpt>
      <trkpt lat="42.27253" lon="2.2724">
        <ele>1127</ele>
        <time>2010-01-01T01:40:06Z</time>
      </trkpt>
      <trkpt lat="42.27254" lon="2.27243">
        <ele>1127</ele>
        <time>2010-01-01T01:40:07Z</time>
      </trkpt>
      <trkpt lat="42.27256" lon="2.27246">
        <ele>1128</ele>
        <time>2010-01-01T01:40:08Z</time>
      </trkpt>
      <trkpt lat="42.27257" lon="2.27249">
        <ele>1128</ele>
        <time>2010-01-01T01:40:09Z</time>
      </trkpt>
      <trkpt lat="42.27259" lon="2.27252">
        <ele>1129</ele>
        <time>2010-01-01T01:40:10Z</time>
      </trkpt>
      <trkpt lat="42.2726" lon="2.27255">
        <ele>1129</ele>
        <time>2010-01-01T01:40:11Z</time>
      </trkpt>
      <trkpt lat="42.27261" lon="2.27259">
        <ele>1129</ele>
        <time>2010-01-01T01:40:12Z</time>
      </trkpt>
      <trkpt lat="42.27262" lon="2.27262">
        <ele>1129</ele>
        <time>2010-01-01T01:40:13Z</time>
      </trkpt>
      <trkpt lat="42.27262" lon="2.27265">
        <ele>1129</ele>
        <time>2010-01-01T01:40:14Z</time>
      </trkpt>
      <trkpt lat="42.27263" lon="2.27268">
        <ele>1129</ele>
        <time>2010-01-01T01:40:15Z</time>
      </trkpt>
      <trkpt lat="42.27265" lon="2.2727">
        <ele>1130</ele>
        <time>2010-01-01T01:40:16Z</time>
      </trkpt>
      <trkpt lat="42.27267" lon="2.27272">
        <ele>1130</ele>
        <time>2010-01-01T01:40:17Z</time>
      </trkpt>
      <trkpt lat="42.27269" lon="2.27274">
        <ele>1131</ele>
        <time>2010-01-01T01:40:18Z</time>
      </trkpt>
      <trkpt lat="42.2727" lon="2.27277">
        <ele>1131</ele>
        <time>2010-01-01T01:40:19Z</time>
      </trkpt>
      <trkpt lat="42.27272" lon="2.27279">
        <ele>1132</ele>
        <time>2010-01-01T01:40:20Z</time>
      </trkpt>
      <trkpt lat="42.27273" lon="2.2728">
        <ele>1132</ele>
        <time>2010-01-01T01:40:21Z</time>
      </trkpt>
      <trkpt lat="42.27274" lon="2.27283">
        <ele>1133</ele>
        <time>2010-01-01T01:40:21Z</time>
      </trkpt>
      <trkpt lat="42.27276" lon="2.27285">
        <ele>1133</ele>
        <time>2010-01-01T01:40:22Z</time>
      </trkpt>
      <trkpt lat="42.27277" lon="2.27288">
        <ele>1134</ele>
        <time>2010-01-01T01:40:23Z</time>
      </trkpt>
      <trkpt lat="42.27278" lon="2.2729">
        <ele>1134</ele>
        <time>2010-01-01T01:40:24Z</time>
      </trkpt>
      <trkpt lat="42.2728" lon="2.27293">
        <ele>1135</ele>
        <time>2010-01-01T01:40:25Z</time>
      </trkpt>
      <trkpt lat="42.27282" lon="2.27299">
        <ele>1136</ele>
        <time>2010-01-01T01:40:27Z</time>
      </trkpt>
      <trkpt lat="42.27285" lon="2.27301">
        <ele>1137</ele>
        <time>2010-01-01T01:40:28Z</time>
      </trkpt>
      <trkpt lat="42.27286" lon="2.27303">
        <ele>1137</ele>
        <time>2010-01-01T01:40:29Z</time>
      </trkpt>
      <trkpt lat="42.27288" lon="2.27305">
        <ele>1138</ele>
        <time>2010-01-01T01:40:30Z</time>
      </trkpt>
      <trkpt lat="42.27289" lon="2.27308">
        <ele>1138</ele>
        <time>2010-01-01T01:40:31Z</time>
      </trkpt>
      <trkpt lat="42.2729" lon="2.2731">
        <ele>1139</ele>
        <time>2010-01-01T01:40:32Z</time>
      </trkpt>
      <trkpt lat="42.27293" lon="2.27313">
        <ele>1139</ele>
        <time>2010-01-01T01:40:33Z</time>
      </trkpt>
      <trkpt lat="42.27295" lon="2.27315">
        <ele>1140</ele>
        <time>2010-01-01T01:40:34Z</time>
      </trkpt>
      <trkpt lat="42.27296" lon="2.27317">
        <ele>1140</ele>
        <time>2010-01-01T01:40:35Z</time>
      </trkpt>
      <trkpt lat="42.27298" lon="2.27318">
        <ele>1141</ele>
        <time>2010-01-01T01:40:36Z</time>
      </trkpt>
      <trkpt lat="42.27298" lon="2.27315">
        <ele>1141</ele>
        <time>2010-01-01T01:40:37Z</time>
      </trkpt>
      <trkpt lat="42.27302" lon="2.27318">
        <ele>1142</ele>
        <time>2010-01-01T01:40:39Z</time>
      </trkpt>
      <trkpt lat="42.27305" lon="2.27322">
        <ele>1143</ele>
        <time>2010-01-01T01:40:40Z</time>
      </trkpt>
      <trkpt lat="42.27308" lon="2.2732">
        <ele>1145</ele>
        <time>2010-01-01T01:40:42Z</time>
      </trkpt>
      <trkpt lat="42.27311" lon="2.27321">
        <ele>1146</ele>
        <time>2010-01-01T01:40:43Z</time>
      </trkpt>
      <trkpt lat="42.27312" lon="2.27323">
        <ele>1146</ele>
        <time>2010-01-01T01:40:44Z</time>
      </trkpt>
      <trkpt lat="42.27314" lon="2.27327">
        <ele>1147</ele>
        <time>2010-01-01T01:40:45Z</time>
      </trkpt>
      <trkpt lat="42.27316" lon="2.27329">
        <ele>1147</ele>
        <time>2010-01-01T01:40:46Z</time>
      </trkpt>
      <trkpt lat="42.27318" lon="2.2733">
        <ele>1148</ele>
        <time>2010-01-01T01:40:47Z</time>
      </trkpt>
      <trkpt lat="42.2732" lon="2.27331">
        <ele>1149</ele>
        <time>2010-01-01T01:40:48Z</time>
      </trkpt>
      <trkpt lat="42.27322" lon="2.27332">
        <ele>1149</ele>
        <time>2010-01-01T01:40:49Z</time>
      </trkpt>
      <trkpt lat="42.27324" lon="2.27334">
        <ele>1150</ele>
        <time>2010-01-01T01:40:50Z</time>
      </trkpt>
      <trkpt lat="42.2733" lon="2.27334">
        <ele>1152</ele>
        <time>2010-01-01T01:40:52Z</time>
      </trkpt>
      <trkpt lat="42.27333" lon="2.27335">
        <ele>1153</ele>
        <time>2010-01-01T01:40:53Z</time>
      </trkpt>
      <trkpt lat="42.27334" lon="2.27335">
        <ele>1154</ele>
        <time>2010-01-01T01:40:54Z</time>
      </trkpt>
      <trkpt lat="42.27338" lon="2.27339">
        <ele>1155</ele>
        <time>2010-01-01T01:40:56Z</time>
      </trkpt>
      <trkpt lat="42.2734" lon="2.27341">
        <ele>1155</ele>
        <time>2010-01-01T01:40:57Z</time>
      </trkpt>
      <trkpt lat="42.27344" lon="2.27341">
        <ele>1157</ele>
        <time>2010-01-01T01:40:58Z</time>
      </trkpt>
      <trkpt lat="42.27348" lon="2.27343">
        <ele>1158</ele>
        <time>2010-01-01T01:41:00Z</time>
      </trkpt>
      <trkpt lat="42.2735" lon="2.27345">
        <ele>1159</ele>
        <time>2010-01-01T01:41:01Z</time>
      </trkpt>
      <trkpt lat="42.27356" lon="2.27348">
        <ele>1161</ele>
        <time>2010-01-01T01:41:04Z</time>
      </trkpt>
      <trkpt lat="42.27357" lon="2.27346">
        <ele>1161</ele>
        <time>2010-01-01T01:41:04Z</time>
      </trkpt>
      <trkpt lat="42.27358" lon="2.27344">
        <ele>1162</ele>
        <time>2010-01-01T01:41:05Z</time>
      </trkpt>
      <trkpt lat="42.2736" lon="2.27343">
        <ele>1162</ele>
        <time>2010-01-01T01:41:06Z</time>
      </trkpt>
      <trkpt lat="42.27362" lon="2.27342">
        <ele>1163</ele>
        <time>2010-01-01T01:41:07Z</time>
      </trkpt>
      <trkpt lat="42.27363" lon="2.27343">
        <ele>1164</ele>
        <time>2010-01-01T01:41:07Z</time>
      </trkpt>
      <trkpt lat="42.27371" lon="2.27344">
        <ele>1167</ele>
        <time>2010-01-01T01:41:11Z</time>
      </trkpt>
      <trkpt lat="42.27376" lon="2.27343">
        <ele>1169</ele>
        <time>2010-01-01T01:41:13Z</time>
      </trkpt>
      <trkpt lat="42.27377" lon="2.27343">
        <ele>1170</ele>
        <time>2010-01-01T01:41:13Z</time>
      </trkpt>
      <trkpt lat="42.27381" lon="2.27347">
        <ele>1171</ele>
        <time>2010-01-01T01:41:15Z</time>
      </trkpt>
      <trkpt lat="42.27387" lon="2.2735">
        <ele>1173</ele>
        <time>2010-01-01T01:41:18Z</time>
      </trkpt>
      <trkpt lat="42.27392" lon="2.27351">
        <ele>1175</ele>
        <time>2010-01-01T01:41:20Z</time>
      </trkpt>
      <trkpt lat="42.27396" lon="2.27354">
        <ele>1176</ele>
        <time>2010-01-01T01:41:22Z</time>
      </trkpt>
      <trkpt lat="42.27398" lon="2.27355">
        <ele>1177</ele>
        <time>2010-01-01T01:41:22Z</time>
      </trkpt>
      <trkpt lat="42.27399" lon="2.27359">
        <ele>1176</ele>
        <time>2010-01-01T01:41:23Z</time>
      </trkpt>
      <trkpt lat="42.27401" lon="2.27362">
        <ele>1177</ele>
        <time>2010-01-01T01:41:25Z</time>
      </trkpt>
      <trkpt lat="42.27402" lon="2.27366">
        <ele>1176</ele>
        <time>2010-01-01T01:41:26Z</time>
      </trkpt>
      <trkpt lat="42.27404" lon="2.27369">
        <ele>1176</ele>
        <time>2010-01-01T01:41:27Z</time>
      </trkpt>
      <trkpt lat="42.27406" lon="2.27372">
        <ele>1176</ele>
        <time>2010-01-01T01:41:28Z</time>
      </trkpt>
      <trkpt lat="42.27408" lon="2.27375">
        <ele>1176</ele>
        <time>2010-01-01T01:41:30Z</time>
      </trkpt>
      <trkpt lat="42.2741" lon="2.27376">
        <ele>1176</ele>
        <time>2010-01-01T01:41:30Z</time>
      </trkpt>
      <trkpt lat="42.27413" lon="2.27379">
        <ele>1177</ele>
        <time>2010-01-01T01:41:32Z</time>
      </trkpt>
      <trkpt lat="42.27415" lon="2.27382">
        <ele>1177</ele>
        <time>2010-01-01T01:41:33Z</time>
      </trkpt>
      <trkpt lat="42.27417" lon="2.27385">
        <ele>1177</ele>
        <time>2010-01-01T01:41:34Z</time>
      </trkpt>
      <trkpt lat="42.27418" lon="2.27388">
        <ele>1176</ele>
        <time>2010-01-01T01:41:35Z</time>
      </trkpt>
      <trkpt lat="42.27421" lon="2.27391">
        <ele>1177</ele>
        <time>2010-01-01T01:41:36Z</time>
      </trkpt>
      <trkpt lat="42.27423" lon="2.27393">
        <ele>1178</ele>
        <time>2010-01-01T01:41:37Z</time>
      </trkpt>
      <trkpt lat="42.27424" lon="2.27395">
        <ele>1178</ele>
        <time>2010-01-01T01:41:38Z</time>
      </trkpt>
      <trkpt lat="42.27426" lon="2.27397">
        <ele>1179</ele>
        <time>2010-01-01T01:41:39Z</time>
      </trkpt>
      <trkpt lat="42.27428" lon="2.27398">
        <ele>1180</ele>
        <time>2010-01-01T01:41:40Z</time>
      </trkpt>
      <trkpt lat="42.27435" lon="2.27399">
        <ele>1184</ele>
        <time>2010-01-01T01:41:43Z</time>
      </trkpt>
      <trkpt lat="42.27437" lon="2.27399">
        <ele>1185</ele>
        <time>2010-01-01T01:41:44Z</time>
      </trkpt>
      <trkpt lat="42.27439" lon="2.274">
        <ele>1186</ele>
        <time>2010-01-01T01:41:45Z</time>
      </trkpt>
      <trkpt lat="42.27442" lon="2.274">
        <ele>1188</ele>
        <time>2010-01-01T01:41:46Z</time>
      </trkpt>
      <trkpt lat="42.27444" lon="2.27402">
        <ele>1188</ele>
        <time>2010-01-01T01:41:47Z</time>
      </trkpt>
      <trkpt lat="42.27447" lon="2.27404">
        <ele>1190</ele>
        <time>2010-01-01T01:41:48Z</time>
      </trkpt>
      <trkpt lat="42.27451" lon="2.27417">
        <ele>1190</ele>
        <time>2010-01-01T01:41:52Z</time>
      </trkpt>
      <trkpt lat="42.27452" lon="2.27429">
        <ele>1190</ele>
        <time>2010-01-01T01:41:56Z</time>
      </trkpt>
      <trkpt lat="42.27454" lon="2.27431">
        <ele>1190</ele>
        <time>2010-01-01T01:41:57Z</time>
      </trkpt>
      <trkpt lat="42.27455" lon="2.27433">
        <ele>1191</ele>
        <time>2010-01-01T01:41:58Z</time>
      </trkpt>
      <trkpt lat="42.27457" lon="2.27436">
        <ele>1191</ele>
        <time>2010-01-01T01:41:59Z</time>
      </trkpt>
      <trkpt lat="42.27458" lon="2.27438">
        <ele>1191</ele>
        <time>2010-01-01T01:41:59Z</time>
      </trkpt>
      <trkpt lat="42.27458" lon="2.27441">
        <ele>1191</ele>
        <time>2010-01-01T01:42:00Z</time>
      </trkpt>
      <trkpt lat="42.27459" lon="2.27444">
        <ele>1191</ele>
        <time>2010-01-01T01:42:01Z</time>
      </trkpt>
      <trkpt lat="42.2746" lon="2.27448">
        <ele>1191</ele>
        <time>2010-01-01T01:42:02Z</time>
      </trkpt>
      <trkpt lat="42.27461" lon="2.2745">
        <ele>1191</ele>
        <time>2010-01-01T01:42:03Z</time>
      </trkpt>
      <trkpt lat="42.27462" lon="2.27453">
        <ele>1191</ele>
        <time>2010-01-01T01:42:04Z</time>
      </trkpt>
      <trkpt lat="42.27466" lon="2.27464">
        <ele>1192</ele>
        <time>2010-01-01T01:42:08Z</time>
      </trkpt>
      <trkpt lat="42.27471" lon="2.27475">
        <ele>1193</ele>
        <time>2010-01-01T01:42:11Z</time>
      </trkpt>
      <trkpt lat="42.27473" lon="2.27473">
        <ele>1194</ele>
        <time>2010-01-01T01:42:12Z</time>
      </trkpt>
      <trkpt lat="42.27482" lon="2.27479">
        <ele>1198</ele>
        <time>2010-01-01T01:42:16Z</time>
      </trkpt>
      <trkpt lat="42.27485" lon="2.27479">
        <ele>1200</ele>
        <time>2010-01-01T01:42:18Z</time>
      </trkpt>
      <trkpt lat="42.27494" lon="2.27482">
        <ele>1204</ele>
        <time>2010-01-01T01:42:21Z</time>
      </trkpt>
      <trkpt lat="42.27499" lon="2.27493">
        <ele>1206</ele>
        <time>2010-01-01T01:42:25Z</time>
      </trkpt>
      <trkpt lat="42.27507" lon="2.275">
        <ele>1210</ele>
        <time>2010-01-01T01:42:29Z</time>
      </trkpt>
      <trkpt lat="42.27516" lon="2.27502">
        <ele>1215</ele>
        <time>2010-01-01T01:42:33Z</time>
      </trkpt>
      <trkpt lat="42.27527" lon="2.27508">
        <ele>1220</ele>
        <time>2010-01-01T01:42:37Z</time>
      </trkpt>
      <trkpt lat="42.2753" lon="2.27515">
        <ele>1222</ele>
        <time>2010-01-01T01:42:40Z</time>
      </trkpt>
      <trkpt lat="42.27535" lon="2.27526">
        <ele>1224</ele>
        <time>2010-01-01T01:42:43Z</time>
      </trkpt>
      <trkpt lat="42.27538" lon="2.27527">
        <ele>1226</ele>
        <time>2010-01-01T01:42:45Z</time>
      </trkpt>
      <trkpt lat="42.2754" lon="2.27529">
        <ele>1226</ele>
        <time>2010-01-01T01:42:46Z</time>
      </trkpt>
      <trkpt lat="42.27546" lon="2.27542">
        <ele>1229</ele>
        <time>2010-01-01T01:42:50Z</time>
      </trkpt>
      <trkpt lat="42.27551" lon="2.2755">
        <ele>1231</ele>
        <time>2010-01-01T01:42:54Z</time>
      </trkpt>
      <trkpt lat="42.27553" lon="2.27552">
        <ele>1232</ele>
        <time>2010-01-01T01:42:55Z</time>
      </trkpt>
      <trkpt lat="42.27555" lon="2.27553">
        <ele>1232</ele>
        <time>2010-01-01T01:42:55Z</time>
      </trkpt>
      <trkpt lat="42.27557" lon="2.27558">
        <ele>1233</ele>
        <time>2010-01-01T01:42:57Z</time>
      </trkpt>
      <trkpt lat="42.27559" lon="2.27558">
        <ele>1234</ele>
        <time>2010-01-01T01:42:58Z</time>
      </trkpt>
      <trkpt lat="42.27564" lon="2.27559">
        <ele>1235</ele>
        <time>2010-01-01T01:43:00Z</time>
      </trkpt>
      <trkpt lat="42.27569" lon="2.27558">
        <ele>1237</ele>
        <time>2010-01-01T01:43:02Z</time>
      </trkpt>
      <trkpt lat="42.27569" lon="2.27561">
        <ele>1237</ele>
        <time>2010-01-01T01:43:03Z</time>
      </trkpt>
      <trkpt lat="42.27574" lon="2.27561">
        <ele>1239</ele>
        <time>2010-01-01T01:43:05Z</time>
      </trkpt>
      <trkpt lat="42.2758" lon="2.27557">
        <ele>1240</ele>
        <time>2010-01-01T01:43:07Z</time>
      </trkpt>
      <trkpt lat="42.27581" lon="2.27555">
        <ele>1241</ele>
        <time>2010-01-01T01:43:08Z</time>
      </trkpt>
      <trkpt lat="42.27582" lon="2.27553">
        <ele>1241</ele>
        <time>2010-01-01T01:43:09Z</time>
      </trkpt>
      <trkpt lat="42.27586" lon="2.2755">
        <ele>1243</ele>
        <time>2010-01-01T01:43:10Z</time>
      </trkpt>
      <trkpt lat="42.27587" lon="2.27549">
        <ele>1244</ele>
        <time>2010-01-01T01:43:11Z</time>
      </trkpt>
      <trkpt lat="42.27591" lon="2.27546">
        <ele>1246</ele>
        <time>2010-01-01T01:43:13Z</time>
      </trkpt>
      <trkpt lat="42.27592" lon="2.27544">
        <ele>1247</ele>
        <time>2010-01-01T01:43:14Z</time>
      </trkpt>
      <trkpt lat="42.27592" lon="2.2754">
        <ele>1248</ele>
        <time>2010-01-01T01:43:15Z</time>
      </trkpt>
      <trkpt lat="42.27593" lon="2.27534">
        <ele>1250</ele>
        <time>2010-01-01T01:43:17Z</time>
      </trkpt>
      <trkpt lat="42.27593" lon="2.27531">
        <ele>1250</ele>
        <time>2010-01-01T01:43:17Z</time>
      </trkpt>
      <trkpt lat="42.27594" lon="2.27525">
        <ele>1252</ele>
        <time>2010-01-01T01:43:19Z</time>
      </trkpt>
      <trkpt lat="42.27595" lon="2.27522">
        <ele>1253</ele>
        <time>2010-01-01T01:43:20Z</time>
      </trkpt>
      <trkpt lat="42.27598" lon="2.27518">
        <ele>1257</ele>
        <time>2010-01-01T01:43:22Z</time>
      </trkpt>
      <trkpt lat="42.27602" lon="2.27512">
        <ele>1261</ele>
        <time>2010-01-01T01:43:24Z</time>
      </trkpt>
      <trkpt lat="42.27602" lon="2.27509">
        <ele>1262</ele>
        <time>2010-01-01T01:43:25Z</time>
      </trkpt>
      <trkpt lat="42.276" lon="2.27503">
        <ele>1262</ele>
        <time>2010-01-01T01:43:27Z</time>
      </trkpt>
      <trkpt lat="42.27599" lon="2.27501">
        <ele>1262</ele>
        <time>2010-01-01T01:43:28Z</time>
      </trkpt>
      <trkpt lat="42.27599" lon="2.27497">
        <ele>1263</ele>
        <time>2010-01-01T01:43:29Z</time>
      </trkpt>
      <trkpt lat="42.276" lon="2.27494">
        <ele>1265</ele>
        <time>2010-01-01T01:43:30Z</time>
      </trkpt>
      <trkpt lat="42.276" lon="2.27488">
        <ele>1267</ele>
        <time>2010-01-01T01:43:32Z</time>
      </trkpt>
      <trkpt lat="42.27601" lon="2.27485">
        <ele>1268</ele>
        <time>2010-01-01T01:43:32Z</time>
      </trkpt>
      <trkpt lat="42.27602" lon="2.27483">
        <ele>1270</ele>
        <time>2010-01-01T01:43:33Z</time>
      </trkpt>
      <trkpt lat="42.27606" lon="2.27479">
        <ele>1274</ele>
        <time>2010-01-01T01:43:35Z</time>
      </trkpt>
      <trkpt lat="42.27608" lon="2.27477">
        <ele>1276</ele>
        <time>2010-01-01T01:43:36Z</time>
      </trkpt>
      <trkpt lat="42.2761" lon="2.27472">
        <ele>1278</ele>
        <time>2010-01-01T01:43:38Z</time>
      </trkpt>
      <trkpt lat="42.27612" lon="2.27465">
        <ele>1283</ele>
        <time>2010-01-01T01:43:40Z</time>
      </trkpt>
      <trkpt lat="42.2762" lon="2.27461">
        <ele>1288</ele>
        <time>2010-01-01T01:43:43Z</time>
      </trkpt>
      <trkpt lat="42.27622" lon="2.27453">
        <ele>1291</ele>
        <time>2010-01-01T01:43:46Z</time>
      </trkpt>
      <trkpt lat="42.27622" lon="2.2745">
        <ele>1292</ele>
        <time>2010-01-01T01:43:47Z</time>
      </trkpt>
      <trkpt lat="42.27623" lon="2.27444">
        <ele>1294</ele>
        <time>2010-01-01T01:43:49Z</time>
      </trkpt>
      <trkpt lat="42.27626" lon="2.27438">
        <ele>1296</ele>
        <time>2010-01-01T01:43:51Z</time>
      </trkpt>
      <trkpt lat="42.27629" lon="2.2743">
        <ele>1298</ele>
        <time>2010-01-01T01:43:53Z</time>
      </trkpt>
      <trkpt lat="42.27631" lon="2.2743">
        <ele>1299</ele>
        <time>2010-01-01T01:43:54Z</time>
      </trkpt>
      <trkpt lat="42.27634" lon="2.27426">
        <ele>1301</ele>
        <time>2010-01-01T01:43:56Z</time>
      </trkpt>
      <trkpt lat="42.27638" lon="2.27422">
        <ele>1303</ele>
        <time>2010-01-01T01:43:58Z</time>
      </trkpt>
      <trkpt lat="42.2764" lon="2.27422">
        <ele>1304</ele>
        <time>2010-01-01T01:43:59Z</time>
      </trkpt>
      <trkpt lat="42.27644" lon="2.27418">
        <ele>1306</ele>
        <time>2010-01-01T01:44:00Z</time>
      </trkpt>
      <trkpt lat="42.27643" lon="2.27415">
        <ele>1306</ele>
        <time>2010-01-01T01:44:01Z</time>
      </trkpt>
      <trkpt lat="42.27648" lon="2.27413">
        <ele>1308</ele>
        <time>2010-01-01T01:44:03Z</time>
      </trkpt>
      <trkpt lat="42.27652" lon="2.27415">
        <ele>1309</ele>
        <time>2010-01-01T01:44:05Z</time>
      </trkpt>
      <trkpt lat="42.27654" lon="2.27415">
        <ele>1310</ele>
        <time>2010-01-01T01:44:06Z</time>
      </trkpt>
      <trkpt lat="42.27658" lon="2.27413">
        <ele>1312</ele>
        <time>2010-01-01T01:44:07Z</time>
      </trkpt>
      <trkpt lat="42.27662" lon="2.27407">
        <ele>1315</ele>
        <time>2010-01-01T01:44:10Z</time>
      </trkpt>
      <trkpt lat="42.27665" lon="2.27405">
        <ele>1317</ele>
        <time>2010-01-01T01:44:11Z</time>
      </trkpt>
      <trkpt lat="42.2767" lon="2.27406">
        <ele>1319</ele>
        <time>2010-01-01T01:44:13Z</time>
      </trkpt>
      <trkpt lat="42.27672" lon="2.274">
        <ele>1321</ele>
        <time>2010-01-01T01:44:15Z</time>
      </trkpt>
      <trkpt lat="42.27673" lon="2.27398">
        <ele>1322</ele>
        <time>2010-01-01T01:44:16Z</time>
      </trkpt>
      <trkpt lat="42.27678" lon="2.27399">
        <ele>1325</ele>
        <time>2010-01-01T01:44:18Z</time>
      </trkpt>
      <trkpt lat="42.27682" lon="2.274">
        <ele>1327</ele>
        <time>2010-01-01T01:44:19Z</time>
      </trkpt>
      <trkpt lat="42.27684" lon="2.274">
        <ele>1328</ele>
        <time>2010-01-01T01:44:20Z</time>
      </trkpt>
      <trkpt lat="42.27688" lon="2.27401">
        <ele>1330</ele>
        <time>2010-01-01T01:44:22Z</time>
      </trkpt>
      <trkpt lat="42.27695" lon="2.274">
        <ele>1334</ele>
        <time>2010-01-01T01:44:25Z</time>
      </trkpt>
      <trkpt lat="42.27697" lon="2.27405">
        <ele>1334</ele>
        <time>2010-01-01T01:44:26Z</time>
      </trkpt>
      <trkpt lat="42.27699" lon="2.27409">
        <ele>1334</ele>
        <time>2010-01-01T01:44:27Z</time>
      </trkpt>
      <trkpt lat="42.27701" lon="2.2741">
        <ele>1335</ele>
        <time>2010-01-01T01:44:28Z</time>
      </trkpt>
      <trkpt lat="42.27702" lon="2.27412">
        <ele>1336</ele>
        <time>2010-01-01T01:44:29Z</time>
      </trkpt>
      <trkpt lat="42.27704" lon="2.27413">
        <ele>1337</ele>
        <time>2010-01-01T01:44:30Z</time>
      </trkpt>
      <trkpt lat="42.27707" lon="2.27411">
        <ele>1339</ele>
        <time>2010-01-01T01:44:31Z</time>
      </trkpt>
      <trkpt lat="42.2771" lon="2.27405">
        <ele>1343</ele>
        <time>2010-01-01T01:44:34Z</time>
      </trkpt>
      <trkpt lat="42.27714" lon="2.27398">
        <ele>1346</ele>
        <time>2010-01-01T01:44:36Z</time>
      </trkpt>
      <trkpt lat="42.27716" lon="2.274">
        <ele>1348</ele>
        <time>2010-01-01T01:44:37Z</time>
      </trkpt>
      <trkpt lat="42.27721" lon="2.274">
        <ele>1350</ele>
        <time>2010-01-01T01:44:39Z</time>
      </trkpt>
      <trkpt lat="42.27725" lon="2.27401">
        <ele>1354</ele>
        <time>2010-01-01T01:44:41Z</time>
      </trkpt>
      <trkpt lat="42.27728" lon="2.27402">
        <ele>1357</ele>
        <time>2010-01-01T01:44:42Z</time>
      </trkpt>
      <trkpt lat="42.27729" lon="2.27401">
        <ele>1358</ele>
        <time>2010-01-01T01:44:43Z</time>
      </trkpt>
      <trkpt lat="42.27731" lon="2.27398">
        <ele>1361</ele>
        <time>2010-01-01T01:44:44Z</time>
      </trkpt>
      <trkpt lat="42.27735" lon="2.27398">
        <ele>1365</ele>
        <time>2010-01-01T01:44:45Z</time>
      </trkpt>
      <trkpt lat="42.27737" lon="2.27397">
        <ele>1367</ele>
        <time>2010-01-01T01:44:46Z</time>
      </trkpt>
      <trkpt lat="42.2774" lon="2.27394">
        <ele>1371</ele>
        <time>2010-01-01T01:44:48Z</time>
      </trkpt>
      <trkpt lat="42.27742" lon="2.27386">
        <ele>1373</ele>
        <time>2010-01-01T01:44:50Z</time>
      </trkpt>
      <trkpt lat="42.2774" lon="2.27388">
        <ele>1371</ele>
        <time>2010-01-01T01:44:51Z</time>
      </trkpt>
      <trkpt lat="42.27745" lon="2.27392">
        <ele>1376</ele>
        <time>2010-01-01T01:44:54Z</time>
      </trkpt>
      <trkpt lat="42.27748" lon="2.27394">
        <ele>1379</ele>
        <time>2010-01-01T01:44:55Z</time>
      </trkpt>
      <trkpt lat="42.27757" lon="2.27396">
        <ele>1389</ele>
        <time>2010-01-01T01:44:59Z</time>
      </trkpt>
      <trkpt lat="42.27767" lon="2.27396">
        <ele>1399</ele>
        <time>2010-01-01T01:45:03Z</time>
      </trkpt>
      <trkpt lat="42.27776" lon="2.2739">
        <ele>1408</ele>
        <time>2010-01-01T01:45:07Z</time>
      </trkpt>
      <trkpt lat="42.27786" lon="2.27386">
        <ele>1418</ele>
        <time>2010-01-01T01:45:11Z</time>
      </trkpt>
      <trkpt lat="42.27795" lon="2.27392">
        <ele>1429</ele>
        <time>2010-01-01T01:45:15Z</time>
      </trkpt>
      <trkpt lat="42.27801" lon="2.27381">
        <ele>1435</ele>
        <time>2010-01-01T01:45:19Z</time>
      </trkpt>
      <trkpt lat="42.27805" lon="2.27366">
        <ele>1438</ele>
        <time>2010-01-01T01:45:23Z</time>
      </trkpt>
      <trkpt lat="42.27811" lon="2.27353">
        <ele>1449</ele>
        <time>2010-01-01T01:45:28Z</time>
      </trkpt>
      <trkpt lat="42.27811" lon="2.27335">
        <ele>1454</ele>
        <time>2010-01-01T01:45:33Z</time>
      </trkpt>
      <trkpt lat="42.27817" lon="2.27326">
        <ele>1464</ele>
        <time>2010-01-01T01:45:37Z</time>
      </trkpt>
      <trkpt lat="42.27822" lon="2.27313">
        <ele>1476</ele>
        <time>2010-01-01T01:45:41Z</time>
      </trkpt>
      <trkpt lat="42.27818" lon="2.273">
        <ele>1475</ele>
        <time>2010-01-01T01:45:46Z</time>
      </trkpt>
      <trkpt lat="42.27819" lon="2.27285">
        <ele>1481</ele>
        <time>2010-01-01T01:45:50Z</time>
      </trkpt>
      <trkpt lat="42.27825" lon="2.27276">
        <ele>1490</ele>
        <time>2010-01-01T01:45:54Z</time>
      </trkpt>
      <trkpt lat="42.27836" lon="2.27269">
        <ele>1501</ele>
        <time>2010-01-01T01:45:59Z</time>
      </trkpt>
      <trkpt lat="42.27837" lon="2.27256">
        <ele>1500</ele>
        <time>2010-01-01T01:46:02Z</time>
      </trkpt>
      <trkpt lat="42.27843" lon="2.27244">
        <ele>1498</ele>
        <time>2010-01-01T01:46:07Z</time>
      </trkpt>
      <trkpt lat="42.27851" lon="2.27238">
        <ele>1499</ele>
        <time>2010-01-01T01:46:10Z</time>
      </trkpt>
      <trkpt lat="42.27861" lon="2.27242">
        <ele>1513</ele>
        <time>2010-01-01T01:46:15Z</time>
      </trkpt>
      <trkpt lat="42.27864" lon="2.27245">
        <ele>1519</ele>
        <time>2010-01-01T01:46:16Z</time>
      </trkpt>
      <trkpt lat="42.27864" lon="2.27236">
        <ele>1511</ele>
        <time>2010-01-01T01:46:19Z</time>
      </trkpt>
      <trkpt lat="42.27867" lon="2.27235">
        <ele>1513</ele>
        <time>2010-01-01T01:46:20Z</time>
      </trkpt>
      <trkpt lat="42.27868" lon="2.27228">
        <ele>1509</ele>
        <time>2010-01-01T01:46:22Z</time>
      </trkpt>
      <trkpt lat="42.27869" lon="2.27226">
        <ele>1508</ele>
        <time>2010-01-01T01:46:23Z</time>
      </trkpt>
      <trkpt lat="42.27873" lon="2.27225">
        <ele>1513</ele>
        <time>2010-01-01T01:46:24Z</time>
      </trkpt>
      <trkpt lat="42.27878" lon="2.27225">
        <ele>1521</ele>
        <time>2010-01-01T01:46:26Z</time>
      </trkpt>
      <trkpt lat="42.27883" lon="2.27229">
        <ele>1530</ele>
        <time>2010-01-01T01:46:29Z</time>
      </trkpt>
      <trkpt lat="42.27888" lon="2.27232">
        <ele>1538</ele>
        <time>2010-01-01T01:46:31Z</time>
      </trkpt>
      <trkpt lat="42.27893" lon="2.27235">
        <ele>1543</ele>
        <time>2010-01-01T01:46:33Z</time>
      </trkpt>
      <trkpt lat="42.27898" lon="2.27234">
        <ele>1547</ele>
        <time>2010-01-01T01:46:35Z</time>
      </trkpt>
      <trkpt lat="42.27899" lon="2.27237">
        <ele>1549</ele>
        <time>2010-01-01T01:46:36Z</time>
      </trkpt>
      <trkpt lat="42.27902" lon="2.27232">
        <ele>1549</ele>
        <time>2010-01-01T01:46:38Z</time>
      </trkpt>
      <trkpt lat="42.27907" lon="2.27235">
        <ele>1554</ele>
        <time>2010-01-01T01:46:40Z</time>
      </trkpt>
      <trkpt lat="42.27911" lon="2.27238">
        <ele>1558</ele>
        <time>2010-01-01T01:46:41Z</time>
      </trkpt>
      <trkpt lat="42.27917" lon="2.27244">
        <ele>1565</ele>
        <time>2010-01-01T01:46:45Z</time>
      </trkpt>
      <trkpt lat="42.27918" lon="2.27247">
        <ele>1567</ele>
        <time>2010-01-01T01:46:46Z</time>
      </trkpt>
      <trkpt lat="42.27919" lon="2.27255">
        <ele>1570</ele>
        <time>2010-01-01T01:46:48Z</time>
      </trkpt>
      <trkpt lat="42.27921" lon="2.27257">
        <ele>1571</ele>
        <time>2010-01-01T01:46:49Z</time>
      </trkpt>
      <trkpt lat="42.27923" lon="2.2726">
        <ele>1573</ele>
        <time>2010-01-01T01:46:50Z</time>
      </trkpt>
      <trkpt lat="42.27926" lon="2.27262">
        <ele>1575</ele>
        <time>2010-01-01T01:46:51Z</time>
      </trkpt>
      <trkpt lat="42.27927" lon="2.27263">
        <ele>1576</ele>
        <time>2010-01-01T01:46:52Z</time>
      </trkpt>
      <trkpt lat="42.27929" lon="2.27264">
        <ele>1578</ele>
        <time>2010-01-01T01:46:53Z</time>
      </trkpt>
      <trkpt lat="42.2793" lon="2.27261">
        <ele>1578</ele>
        <time>2010-01-01T01:46:54Z</time>
      </trkpt>
      <trkpt lat="42.2793" lon="2.27257">
        <ele>1578</ele>
        <time>2010-01-01T01:46:55Z</time>
      </trkpt>
      <trkpt lat="42.27931" lon="2.27255">
        <ele>1578</ele>
        <time>2010-01-01T01:46:56Z</time>
      </trkpt>
      <trkpt lat="42.27933" lon="2.27252">
        <ele>1579</ele>
        <time>2010-01-01T01:46:57Z</time>
      </trkpt>
      <trkpt lat="42.27934" lon="2.27249">
        <ele>1579</ele>
        <time>2010-01-01T01:46:58Z</time>
      </trkpt>
      <trkpt lat="42.27935" lon="2.27246">
        <ele>1579</ele>
        <time>2010-01-01T01:46:59Z</time>
      </trkpt>
      <trkpt lat="42.27936" lon="2.27244">
        <ele>1579</ele>
        <time>2010-01-01T01:47:00Z</time>
      </trkpt>
      <trkpt lat="42.27937" lon="2.27242">
        <ele>1579</ele>
        <time>2010-01-01T01:47:00Z</time>
      </trkpt>
      <trkpt lat="42.27937" lon="2.27239">
        <ele>1579</ele>
        <time>2010-01-01T01:47:01Z</time>
      </trkpt>
      <trkpt lat="42.27937" lon="2.27235">
        <ele>1578</ele>
        <time>2010-01-01T01:47:02Z</time>
      </trkpt>
      <trkpt lat="42.27938" lon="2.27232">
        <ele>1578</ele>
        <time>2010-01-01T01:47:03Z</time>
      </trkpt>
      <trkpt lat="42.27938" lon="2.27229">
        <ele>1578</ele>
        <time>2010-01-01T01:47:04Z</time>
      </trkpt>
      <trkpt lat="42.27939" lon="2.27226">
        <ele>1577</ele>
        <time>2010-01-01T01:47:05Z</time>
      </trkpt>
      <trkpt lat="42.27939" lon="2.27223">
        <ele>1577</ele>
        <time>2010-01-01T01:47:06Z</time>
      </trkpt>
      <trkpt lat="42.2794" lon="2.27219">
        <ele>1577</ele>
        <time>2010-01-01T01:47:07Z</time>
      </trkpt>
      <trkpt lat="42.27942" lon="2.27217">
        <ele>1579</ele>
        <time>2010-01-01T01:47:08Z</time>
      </trkpt>
      <trkpt lat="42.27944" lon="2.27217">
        <ele>1580</ele>
        <time>2010-01-01T01:47:09Z</time>
      </trkpt>
      <trkpt lat="42.27946" lon="2.27216">
        <ele>1582</ele>
        <time>2010-01-01T01:47:10Z</time>
      </trkpt>
      <trkpt lat="42.27948" lon="2.27214">
        <ele>1583</ele>
        <time>2010-01-01T01:47:11Z</time>
      </trkpt>
      <trkpt lat="42.2795" lon="2.27212">
        <ele>1584</ele>
        <time>2010-01-01T01:47:12Z</time>
      </trkpt>
      <trkpt lat="42.27952" lon="2.2721">
        <ele>1584</ele>
        <time>2010-01-01T01:47:13Z</time>
      </trkpt>
      <trkpt lat="42.27953" lon="2.27208">
        <ele>1585</ele>
        <time>2010-01-01T01:47:14Z</time>
      </trkpt>
      <trkpt lat="42.27955" lon="2.27205">
        <ele>1586</ele>
        <time>2010-01-01T01:47:14Z</time>
      </trkpt>
      <trkpt lat="42.27957" lon="2.27205">
        <ele>1588</ele>
        <time>2010-01-01T01:47:15Z</time>
      </trkpt>
      <trkpt lat="42.27959" lon="2.27206">
        <ele>1590</ele>
        <time>2010-01-01T01:47:16Z</time>
      </trkpt>
      <trkpt lat="42.2795" lon="2.27208">
        <ele>1583</ele>
        <time>2010-01-01T01:47:20Z</time>
      </trkpt>
      <trkpt lat="42.27959" lon="2.27215">
        <ele>1590</ele>
        <time>2010-01-01T01:47:24Z</time>
      </trkpt>
      <trkpt lat="42.27969" lon="2.27217">
        <ele>1598</ele>
        <time>2010-01-01T01:47:28Z</time>
      </trkpt>
      <trkpt lat="42.27972" lon="2.27218">
        <ele>1600</ele>
        <time>2010-01-01T01:47:29Z</time>
      </trkpt>
      <trkpt lat="42.27971" lon="2.27225">
        <ele>1599</ele>
        <time>2010-01-01T01:47:31Z</time>
      </trkpt>
      <trkpt lat="42.27969" lon="2.27226">
        <ele>1598</ele>
        <time>2010-01-01T01:47:32Z</time>
      </trkpt>
      <trkpt lat="42.27968" lon="2.27227">
        <ele>1597</ele>
        <time>2010-01-01T01:47:33Z</time>
      </trkpt>
      <trkpt lat="42.27966" lon="2.27228">
        <ele>1597</ele>
        <time>2010-01-01T01:47:34Z</time>
      </trkpt>
      <trkpt lat="42.27966" lon="2.27231">
        <ele>1597</ele>
        <time>2010-01-01T01:47:34Z</time>
      </trkpt>
      <trkpt lat="42.27967" lon="2.27236">
        <ele>1599</ele>
        <time>2010-01-01T01:47:36Z</time>
      </trkpt>
      <trkpt lat="42.2797" lon="2.27239">
        <ele>1601</ele>
        <time>2010-01-01T01:47:37Z</time>
      </trkpt>
      <trkpt lat="42.2797" lon="2.27246">
        <ele>1604</ele>
        <time>2010-01-01T01:47:40Z</time>
      </trkpt>
      <trkpt lat="42.27973" lon="2.27252">
        <ele>1606</ele>
        <time>2010-01-01T01:47:41Z</time>
      </trkpt>
      <trkpt lat="42.27972" lon="2.27257">
        <ele>1607</ele>
        <time>2010-01-01T01:47:43Z</time>
      </trkpt>
      <trkpt lat="42.27972" lon="2.27259">
        <ele>1607</ele>
        <time>2010-01-01T01:47:44Z</time>
      </trkpt>
      <trkpt lat="42.27976" lon="2.27258">
        <ele>1611</ele>
        <time>2010-01-01T01:47:45Z</time>
      </trkpt>
      <trkpt lat="42.27979" lon="2.27259">
        <ele>1615</ele>
        <time>2010-01-01T01:47:47Z</time>
      </trkpt>
      <trkpt lat="42.27982" lon="2.27264">
        <ele>1619</ele>
        <time>2010-01-01T01:47:49Z</time>
      </trkpt>
      <trkpt lat="42.27983" lon="2.27269">
        <ele>1621</ele>
        <time>2010-01-01T01:47:50Z</time>
      </trkpt>
      <trkpt lat="42.27982" lon="2.27271">
        <ele>1621</ele>
        <time>2010-01-01T01:47:51Z</time>
      </trkpt>
      <trkpt lat="42.27985" lon="2.27273">
        <ele>1625</ele>
        <time>2010-01-01T01:47:52Z</time>
      </trkpt>
      <trkpt lat="42.27988" lon="2.27275">
        <ele>1628</ele>
        <time>2010-01-01T01:47:53Z</time>
      </trkpt>
      <trkpt lat="42.2799" lon="2.27271">
        <ele>1629</ele>
        <time>2010-01-01T01:47:55Z</time>
      </trkpt>
      <trkpt lat="42.2799" lon="2.27273">
        <ele>1630</ele>
        <time>2010-01-01T01:47:55Z</time>
      </trkpt>
      <trkpt lat="42.27993" lon="2.27274">
        <ele>1633</ele>
        <time>2010-01-01T01:47:56Z</time>
      </trkpt>
      <trkpt lat="42.27995" lon="2.27275">
        <ele>1636</ele>
        <time>2010-01-01T01:47:57Z</time>
      </trkpt>
      <trkpt lat="42.27997" lon="2.27275">
        <ele>1639</ele>
        <time>2010-01-01T01:47:58Z</time>
      </trkpt>
      <trkpt lat="42.27999" lon="2.27275">
        <ele>1642</ele>
        <time>2010-01-01T01:47:59Z</time>
      </trkpt>
      <trkpt lat="42.28" lon="2.2727">
        <ele>1641</ele>
        <time>2010-01-01T01:48:01Z</time>
      </trkpt>
      <trkpt lat="42.28011" lon="2.27271">
        <ele>1650</ele>
        <time>2010-01-01T01:48:05Z</time>
      </trkpt>
      <trkpt lat="42.28017" lon="2.27268">
        <ele>1655</ele>
        <time>2010-01-01T01:48:08Z</time>
      </trkpt>
      <trkpt lat="42.28019" lon="2.27268">
        <ele>1657</ele>
        <time>2010-01-01T01:48:08Z</time>
      </trkpt>
      <trkpt lat="42.28021" lon="2.27269">
        <ele>1659</ele>
        <time>2010-01-01T01:48:09Z</time>
      </trkpt>
      <trkpt lat="42.28023" lon="2.2727">
        <ele>1661</ele>
        <time>2010-01-01T01:48:10Z</time>
      </trkpt>
      <trkpt lat="42.28027" lon="2.27269">
        <ele>1665</ele>
        <time>2010-01-01T01:48:12Z</time>
      </trkpt>
      <trkpt lat="42.2803" lon="2.27271">
        <ele>1667</ele>
        <time>2010-01-01T01:48:13Z</time>
      </trkpt>
      <trkpt lat="42.28032" lon="2.27272">
        <ele>1668</ele>
        <time>2010-01-01T01:48:14Z</time>
      </trkpt>
      <trkpt lat="42.28034" lon="2.27273">
        <ele>1670</ele>
        <time>2010-01-01T01:48:15Z</time>
      </trkpt>
      <trkpt lat="42.28035" lon="2.27276">
        <ele>1671</ele>
        <time>2010-01-01T01:48:16Z</time>
      </trkpt>
      <trkpt lat="42.28034" lon="2.27282">
        <ele>1672</ele>
        <time>2010-01-01T01:48:18Z</time>
      </trkpt>
      <trkpt lat="42.28034" lon="2.27285">
        <ele>1672</ele>
        <time>2010-01-01T01:48:18Z</time>
      </trkpt>
      <trkpt lat="42.28034" lon="2.27288">
        <ele>1673</ele>
        <time>2010-01-01T01:48:19Z</time>
      </trkpt>
      <trkpt lat="42.28034" lon="2.2729">
        <ele>1673</ele>
        <time>2010-01-01T01:48:20Z</time>
      </trkpt>
      <trkpt lat="42.28034" lon="2.27293">
        <ele>1674</ele>
        <time>2010-01-01T01:48:21Z</time>
      </trkpt>
      <trkpt lat="42.28034" lon="2.27299">
        <ele>1675</ele>
        <time>2010-01-01T01:48:23Z</time>
      </trkpt>
      <trkpt lat="42.28033" lon="2.27302">
        <ele>1675</ele>
        <time>2010-01-01T01:48:24Z</time>
      </trkpt>
      <trkpt lat="42.28034" lon="2.27305">
        <ele>1676</ele>
        <time>2010-01-01T01:48:24Z</time>
      </trkpt>
      <trkpt lat="42.28033" lon="2.27308">
        <ele>1676</ele>
        <time>2010-01-01T01:48:25Z</time>
      </trkpt>
      <trkpt lat="42.28032" lon="2.27311">
        <ele>1676</ele>
        <time>2010-01-01T01:48:26Z</time>
      </trkpt>
      <trkpt lat="42.28032" lon="2.27313">
        <ele>1676</ele>
        <time>2010-01-01T01:48:27Z</time>
      </trkpt>
      <trkpt lat="42.28031" lon="2.27317">
        <ele>1676</ele>
        <time>2010-01-01T01:48:28Z</time>
      </trkpt>
      <trkpt lat="42.2803" lon="2.27319">
        <ele>1676</ele>
        <time>2010-01-01T01:48:29Z</time>
      </trkpt>
      <trkpt lat="42.2803" lon="2.27323">
        <ele>1676</ele>
        <time>2010-01-01T01:48:30Z</time>
      </trkpt>
      <trkpt lat="42.2803" lon="2.27327">
        <ele>1677</ele>
        <time>2010-01-01T01:48:31Z</time>
      </trkpt>
      <trkpt lat="42.28029" lon="2.27331">
        <ele>1677</ele>
        <time>2010-01-01T01:48:32Z</time>
      </trkpt>
      <trkpt lat="42.28028" lon="2.27337">
        <ele>1676</ele>
        <time>2010-01-01T01:48:34Z</time>
      </trkpt>
      <trkpt lat="42.2803" lon="2.27339">
        <ele>1677</ele>
        <time>2010-01-01T01:48:35Z</time>
      </trkpt>
      <trkpt lat="42.28032" lon="2.27338">
        <ele>1678</ele>
        <time>2010-01-01T01:48:36Z</time>
      </trkpt>
      <trkpt lat="42.28033" lon="2.27337">
        <ele>1679</ele>
        <time>2010-01-01T01:48:37Z</time>
      </trkpt>
      <trkpt lat="42.28035" lon="2.27333">
        <ele>1680</ele>
        <time>2010-01-01T01:48:38Z</time>
      </trkpt>
      <trkpt lat="42.28034" lon="2.27336">
        <ele>1680</ele>
        <time>2010-01-01T01:48:39Z</time>
      </trkpt>
      <trkpt lat="42.28033" lon="2.27338">
        <ele>1679</ele>
        <time>2010-01-01T01:48:40Z</time>
      </trkpt>
      <trkpt lat="42.28031" lon="2.2734">
        <ele>1678</ele>
        <time>2010-01-01T01:48:41Z</time>
      </trkpt>
      <trkpt lat="42.28035" lon="2.27337">
        <ele>1680</ele>
        <time>2010-01-01T01:48:43Z</time>
      </trkpt>
      <trkpt lat="42.28036" lon="2.27335">
        <ele>1681</ele>
        <time>2010-01-01T01:48:44Z</time>
      </trkpt>
      <trkpt lat="42.28038" lon="2.27333">
        <ele>1682</ele>
        <time>2010-01-01T01:48:45Z</time>
      </trkpt>
      <trkpt lat="42.2804" lon="2.27331">
        <ele>1683</ele>
        <time>2010-01-01T01:48:46Z</time>
      </trkpt>
      <trkpt lat="42.28043" lon="2.27331">
        <ele>1684</ele>
        <time>2010-01-01T01:48:46Z</time>
      </trkpt>
      <trkpt lat="42.28045" lon="2.2733">
        <ele>1684</ele>
        <time>2010-01-01T01:48:47Z</time>
      </trkpt>
      <trkpt lat="42.28047" lon="2.27328">
        <ele>1685</ele>
        <time>2010-01-01T01:48:48Z</time>
      </trkpt>
      <trkpt lat="42.28049" lon="2.27328">
        <ele>1686</ele>
        <time>2010-01-01T01:48:49Z</time>
      </trkpt>
      <trkpt lat="42.28049" lon="2.27324">
        <ele>1686</ele>
        <time>2010-01-01T01:48:50Z</time>
      </trkpt>
      <trkpt lat="42.28051" lon="2.27321">
        <ele>1686</ele>
        <time>2010-01-01T01:48:51Z</time>
      </trkpt>
      <trkpt lat="42.28052" lon="2.27319">
        <ele>1686</ele>
        <time>2010-01-01T01:48:52Z</time>
      </trkpt>
      <trkpt lat="42.28054" lon="2.27316">
        <ele>1687</ele>
        <time>2010-01-01T01:48:53Z</time>
      </trkpt>
      <trkpt lat="42.28055" lon="2.27314">
        <ele>1687</ele>
        <time>2010-01-01T01:48:54Z</time>
      </trkpt>
      <trkpt lat="42.28057" lon="2.27312">
        <ele>1687</ele>
        <time>2010-01-01T01:48:55Z</time>
      </trkpt>
      <trkpt lat="42.28058" lon="2.2731">
        <ele>1687</ele>
        <time>2010-01-01T01:48:56Z</time>
      </trkpt>
      <trkpt lat="42.28061" lon="2.27308">
        <ele>1688</ele>
        <time>2010-01-01T01:48:57Z</time>
      </trkpt>
      <trkpt lat="42.28062" lon="2.27306">
        <ele>1689</ele>
        <time>2010-01-01T01:48:58Z</time>
      </trkpt>
      <trkpt lat="42.28064" lon="2.27305">
        <ele>1689</ele>
        <time>2010-01-01T01:48:58Z</time>
      </trkpt>
      <trkpt lat="42.28066" lon="2.27303">
        <ele>1690</ele>
        <time>2010-01-01T01:48:59Z</time>
      </trkpt>
      <trkpt lat="42.28067" lon="2.27301">
        <ele>1691</ele>
        <time>2010-01-01T01:49:00Z</time>
      </trkpt>
      <trkpt lat="42.28069" lon="2.27299">
        <ele>1691</ele>
        <time>2010-01-01T01:49:01Z</time>
      </trkpt>
      <trkpt lat="42.28071" lon="2.27297">
        <ele>1692</ele>
        <time>2010-01-01T01:49:02Z</time>
      </trkpt>
      <trkpt lat="42.28073" lon="2.27296">
        <ele>1692</ele>
        <time>2010-01-01T01:49:03Z</time>
      </trkpt>
      <trkpt lat="42.28074" lon="2.27295">
        <ele>1693</ele>
        <time>2010-01-01T01:49:04Z</time>
      </trkpt>
      <trkpt lat="42.28076" lon="2.27293">
        <ele>1694</ele>
        <time>2010-01-01T01:49:04Z</time>
      </trkpt>
      <trkpt lat="42.28078" lon="2.27292">
        <ele>1694</ele>
        <time>2010-01-01T01:49:05Z</time>
      </trkpt>
      <trkpt lat="42.28079" lon="2.27289">
        <ele>1695</ele>
        <time>2010-01-01T01:49:06Z</time>
      </trkpt>
      <trkpt lat="42.2808" lon="2.27287">
        <ele>1695</ele>
        <time>2010-01-01T01:49:07Z</time>
      </trkpt>
      <trkpt lat="42.28081" lon="2.27284">
        <ele>1695</ele>
        <time>2010-01-01T01:49:08Z</time>
      </trkpt>
      <trkpt lat="42.28083" lon="2.27281">
        <ele>1696</ele>
        <time>2010-01-01T01:49:09Z</time>
      </trkpt>
      <trkpt lat="42.28085" lon="2.27279">
        <ele>1696</ele>
        <time>2010-01-01T01:49:10Z</time>
      </trkpt>
      <trkpt lat="42.28086" lon="2.27277">
        <ele>1696</ele>
        <time>2010-01-01T01:49:11Z</time>
      </trkpt>
      <trkpt lat="42.28087" lon="2.27275">
        <ele>1697</ele>
        <time>2010-01-01T01:49:11Z</time>
      </trkpt>
      <trkpt lat="42.28089" lon="2.27273">
        <ele>1697</ele>
        <time>2010-01-01T01:49:12Z</time>
      </trkpt>
      <trkpt lat="42.2809" lon="2.27272">
        <ele>1698</ele>
        <time>2010-01-01T01:49:13Z</time>
      </trkpt>
      <trkpt lat="42.28092" lon="2.2727">
        <ele>1699</ele>
        <time>2010-01-01T01:49:14Z</time>
      </trkpt>
      <trkpt lat="42.28093" lon="2.27268">
        <ele>1699</ele>
        <time>2010-01-01T01:49:15Z</time>
      </trkpt>
      <trkpt lat="42.28095" lon="2.27268">
        <ele>1700</ele>
        <time>2010-01-01T01:49:15Z</time>
      </trkpt>
      <trkpt lat="42.28097" lon="2.27266">
        <ele>1701</ele>
        <time>2010-01-01T01:49:16Z</time>
      </trkpt>
      <trkpt lat="42.28099" lon="2.27264">
        <ele>1701</ele>
        <time>2010-01-01T01:49:17Z</time>
      </trkpt>
      <trkpt lat="42.281" lon="2.27262">
        <ele>1702</ele>
        <time>2010-01-01T01:49:18Z</time>
      </trkpt>
      <trkpt lat="42.28102" lon="2.27261">
        <ele>1702</ele>
        <time>2010-01-01T01:49:19Z</time>
      </trkpt>
      <trkpt lat="42.28103" lon="2.27259">
        <ele>1703</ele>
        <time>2010-01-01T01:49:20Z</time>
      </trkpt>
      <trkpt lat="42.28105" lon="2.27257">
        <ele>1703</ele>
        <time>2010-01-01T01:49:20Z</time>
      </trkpt>
      <trkpt lat="42.28107" lon="2.27254">
        <ele>1704</ele>
        <time>2010-01-01T01:49:21Z</time>
      </trkpt>
      <trkpt lat="42.28109" lon="2.27252">
        <ele>1705</ele>
        <time>2010-01-01T01:49:22Z</time>
      </trkpt>
      <trkpt lat="42.2811" lon="2.2725">
        <ele>1705</ele>
        <time>2010-01-01T01:49:23Z</time>
      </trkpt>
      <trkpt lat="42.28112" lon="2.27249">
        <ele>1706</ele>
        <time>2010-01-01T01:49:24Z</time>
      </trkpt>
      <trkpt lat="42.28114" lon="2.27247">
        <ele>1706</ele>
        <time>2010-01-01T01:49:25Z</time>
      </trkpt>
      <trkpt lat="42.28115" lon="2.27244">
        <ele>1706</ele>
        <time>2010-01-01T01:49:26Z</time>
      </trkpt>
      <trkpt lat="42.28117" lon="2.27242">
        <ele>1706</ele>
        <time>2010-01-01T01:49:27Z</time>
      </trkpt>
      <trkpt lat="42.28118" lon="2.2724">
        <ele>1707</ele>
        <time>2010-01-01T01:49:28Z</time>
      </trkpt>
      <trkpt lat="42.2812" lon="2.27238">
        <ele>1707</ele>
        <time>2010-01-01T01:49:29Z</time>
      </trkpt>
      <trkpt lat="42.28121" lon="2.27236">
        <ele>1707</ele>
        <time>2010-01-01T01:49:30Z</time>
      </trkpt>
      <trkpt lat="42.28123" lon="2.27233">
        <ele>1708</ele>
        <time>2010-01-01T01:49:30Z</time>
      </trkpt>
      <trkpt lat="42.28124" lon="2.27231">
        <ele>1708</ele>
        <time>2010-01-01T01:49:31Z</time>
      </trkpt>
      <trkpt lat="42.28126" lon="2.27229">
        <ele>1709</ele>
        <time>2010-01-01T01:49:32Z</time>
      </trkpt>
      <trkpt lat="42.28128" lon="2.27227">
        <ele>1710</ele>
        <time>2010-01-01T01:49:33Z</time>
      </trkpt>
      <trkpt lat="42.2813" lon="2.27225">
        <ele>1711</ele>
        <time>2010-01-01T01:49:34Z</time>
      </trkpt>
      <trkpt lat="42.28131" lon="2.27223">
        <ele>1712</ele>
        <time>2010-01-01T01:49:35Z</time>
      </trkpt>
      <trkpt lat="42.28133" lon="2.27221">
        <ele>1712</ele>
        <time>2010-01-01T01:49:36Z</time>
      </trkpt>
      <trkpt lat="42.28134" lon="2.27218">
        <ele>1713</ele>
        <time>2010-01-01T01:49:37Z</time>
      </trkpt>
      <trkpt lat="42.28135" lon="2.27216">
        <ele>1713</ele>
        <time>2010-01-01T01:49:38Z</time>
      </trkpt>
      <trkpt lat="42.28136" lon="2.27213">
        <ele>1714</ele>
        <time>2010-01-01T01:49:39Z</time>
      </trkpt>
      <trkpt lat="42.28137" lon="2.27209">
        <ele>1714</ele>
        <time>2010-01-01T01:49:40Z</time>
      </trkpt>
      <trkpt lat="42.28138" lon="2.27205">
        <ele>1714</ele>
        <time>2010-01-01T01:49:41Z</time>
      </trkpt>
      <trkpt lat="42.28139" lon="2.27201">
        <ele>1715</ele>
        <time>2010-01-01T01:49:42Z</time>
      </trkpt>
      <trkpt lat="42.28141" lon="2.27198">
        <ele>1715</ele>
        <time>2010-01-01T01:49:43Z</time>
      </trkpt>
      <trkpt lat="42.28142" lon="2.27195">
        <ele>1716</ele>
        <time>2010-01-01T01:49:45Z</time>
      </trkpt>
      <trkpt lat="42.28144" lon="2.27192">
        <ele>1716</ele>
        <time>2010-01-01T01:49:46Z</time>
      </trkpt>
      <trkpt lat="42.28145" lon="2.27189">
        <ele>1717</ele>
        <time>2010-01-01T01:49:47Z</time>
      </trkpt>
      <trkpt lat="42.28146" lon="2.27185">
        <ele>1717</ele>
        <time>2010-01-01T01:49:48Z</time>
      </trkpt>
      <trkpt lat="42.28147" lon="2.27182">
        <ele>1717</ele>
        <time>2010-01-01T01:49:49Z</time>
      </trkpt>
      <trkpt lat="42.28148" lon="2.27178">
        <ele>1717</ele>
        <time>2010-01-01T01:49:50Z</time>
      </trkpt>
      <trkpt lat="42.28149" lon="2.27174">
        <ele>1716</ele>
        <time>2010-01-01T01:49:52Z</time>
      </trkpt>
      <trkpt lat="42.2815" lon="2.2717">
        <ele>1716</ele>
        <time>2010-01-01T01:49:53Z</time>
      </trkpt>
      <trkpt lat="42.28151" lon="2.27167">
        <ele>1717</ele>
        <time>2010-01-01T01:49:54Z</time>
      </trkpt>
      <trkpt lat="42.28152" lon="2.27165">
        <ele>1717</ele>
        <time>2010-01-01T01:49:55Z</time>
      </trkpt>
      <trkpt lat="42.28154" lon="2.27162">
        <ele>1717</ele>
        <time>2010-01-01T01:49:56Z</time>
      </trkpt>
      <trkpt lat="42.28155" lon="2.2716">
        <ele>1718</ele>
        <time>2010-01-01T01:49:56Z</time>
      </trkpt>
      <trkpt lat="42.28155" lon="2.27157">
        <ele>1718</ele>
        <time>2010-01-01T01:49:57Z</time>
      </trkpt>
      <trkpt lat="42.28157" lon="2.27153">
        <ele>1718</ele>
        <time>2010-01-01T01:49:58Z</time>
      </trkpt>
      <trkpt lat="42.28157" lon="2.2715">
        <ele>1718</ele>
        <time>2010-01-01T01:49:59Z</time>
      </trkpt>
      <trkpt lat="42.28158" lon="2.27148">
        <ele>1718</ele>
        <time>2010-01-01T01:50:00Z</time>
      </trkpt>
      <trkpt lat="42.28159" lon="2.27145">
        <ele>1718</ele>
        <time>2010-01-01T01:50:01Z</time>
      </trkpt>
      <trkpt lat="42.2816" lon="2.27142">
        <ele>1718</ele>
        <time>2010-01-01T01:50:02Z</time>
      </trkpt>
      <trkpt lat="42.28161" lon="2.2714">
        <ele>1718</ele>
        <time>2010-01-01T01:50:03Z</time>
      </trkpt>
      <trkpt lat="42.28162" lon="2.27137">
        <ele>1718</ele>
        <time>2010-01-01T01:50:04Z</time>
      </trkpt>
      <trkpt lat="42.28161" lon="2.27133">
        <ele>1717</ele>
        <time>2010-01-01T01:50:05Z</time>
      </trkpt>
      <trkpt lat="42.2816" lon="2.27129">
        <ele>1717</ele>
        <time>2010-01-01T01:50:06Z</time>
      </trkpt>
      <trkpt lat="42.28161" lon="2.27125">
        <ele>1716</ele>
        <time>2010-01-01T01:50:07Z</time>
      </trkpt>
      <trkpt lat="42.2816" lon="2.27121">
        <ele>1716</ele>
        <time>2010-01-01T01:50:08Z</time>
      </trkpt>
      <trkpt lat="42.2816" lon="2.27117">
        <ele>1715</ele>
        <time>2010-01-01T01:50:10Z</time>
      </trkpt>
      <trkpt lat="42.2816" lon="2.27112">
        <ele>1714</ele>
        <time>2010-01-01T01:50:11Z</time>
      </trkpt>
      <trkpt lat="42.28159" lon="2.27108">
        <ele>1713</ele>
        <time>2010-01-01T01:50:12Z</time>
      </trkpt>
      <trkpt lat="42.28159" lon="2.27103">
        <ele>1712</ele>
        <time>2010-01-01T01:50:14Z</time>
      </trkpt>
      <trkpt lat="42.2816" lon="2.27099">
        <ele>1712</ele>
        <time>2010-01-01T01:50:15Z</time>
      </trkpt>
      <trkpt lat="42.2816" lon="2.27096">
        <ele>1711</ele>
        <time>2010-01-01T01:50:16Z</time>
      </trkpt>
      <trkpt lat="42.2816" lon="2.27091">
        <ele>1711</ele>
        <time>2010-01-01T01:50:17Z</time>
      </trkpt>
      <trkpt lat="42.28161" lon="2.27087">
        <ele>1710</ele>
        <time>2010-01-01T01:50:19Z</time>
      </trkpt>
      <trkpt lat="42.28161" lon="2.27083">
        <ele>1710</ele>
        <time>2010-01-01T01:50:20Z</time>
      </trkpt>
      <trkpt lat="42.28162" lon="2.2708">
        <ele>1709</ele>
        <time>2010-01-01T01:50:21Z</time>
      </trkpt>
      <trkpt lat="42.28162" lon="2.27076">
        <ele>1709</ele>
        <time>2010-01-01T01:50:22Z</time>
      </trkpt>
      <trkpt lat="42.28162" lon="2.27072">
        <ele>1708</ele>
        <time>2010-01-01T01:50:23Z</time>
      </trkpt>
      <trkpt lat="42.28162" lon="2.27063">
        <ele>1707</ele>
        <time>2010-01-01T01:50:26Z</time>
      </trkpt>
      <trkpt lat="42.28162" lon="2.27059">
        <ele>1706</ele>
        <time>2010-01-01T01:50:27Z</time>
      </trkpt>
      <trkpt lat="42.28162" lon="2.27051">
        <ele>1707</ele>
        <time>2010-01-01T01:50:29Z</time>
      </trkpt>
      <trkpt lat="42.28162" lon="2.27047">
        <ele>1707</ele>
        <time>2010-01-01T01:50:30Z</time>
      </trkpt>
      <trkpt lat="42.28162" lon="2.27043">
        <ele>1708</ele>
        <time>2010-01-01T01:50:32Z</time>
      </trkpt>
      <trkpt lat="42.28162" lon="2.2704">
        <ele>1709</ele>
        <time>2010-01-01T01:50:32Z</time>
      </trkpt>
      <trkpt lat="42.28162" lon="2.27037">
        <ele>1710</ele>
        <time>2010-01-01T01:50:34Z</time>
      </trkpt>
      <trkpt lat="42.28162" lon="2.27033">
        <ele>1710</ele>
        <time>2010-01-01T01:50:35Z</time>
      </trkpt>
      <trkpt lat="42.28163" lon="2.27026">
        <ele>1712</ele>
        <time>2010-01-01T01:50:37Z</time>
      </trkpt>
      <trkpt lat="42.28163" lon="2.27023">
        <ele>1713</ele>
        <time>2010-01-01T01:50:38Z</time>
      </trkpt>
      <trkpt lat="42.28163" lon="2.27019">
        <ele>1713</ele>
        <time>2010-01-01T01:50:39Z</time>
      </trkpt>
      <trkpt lat="42.28163" lon="2.27015">
        <ele>1714</ele>
        <time>2010-01-01T01:50:40Z</time>
      </trkpt>
      <trkpt lat="42.28162" lon="2.27011">
        <ele>1715</ele>
        <time>2010-01-01T01:50:41Z</time>
      </trkpt>
      <trkpt lat="42.28162" lon="2.27">
        <ele>1717</ele>
        <time>2010-01-01T01:50:45Z</time>
      </trkpt>
      <trkpt lat="42.28161" lon="2.26996">
        <ele>1716</ele>
        <time>2010-01-01T01:50:46Z</time>
      </trkpt>
      <trkpt lat="42.28161" lon="2.26992">
        <ele>1716</ele>
        <time>2010-01-01T01:50:47Z</time>
      </trkpt>
      <trkpt lat="42.28162" lon="2.26988">
        <ele>1717</ele>
        <time>2010-01-01T01:50:48Z</time>
      </trkpt>
      <trkpt lat="42.28162" lon="2.26984">
        <ele>1717</ele>
        <time>2010-01-01T01:50:49Z</time>
      </trkpt>
      <trkpt lat="42.28162" lon="2.26977">
        <ele>1717</ele>
        <time>2010-01-01T01:50:51Z</time>
      </trkpt>
      <trkpt lat="42.28162" lon="2.26973">
        <ele>1718</ele>
        <time>2010-01-01T01:50:52Z</time>
      </trkpt>
      <trkpt lat="42.28163" lon="2.26965">
        <ele>1718</ele>
        <time>2010-01-01T01:50:55Z</time>
      </trkpt>
      <trkpt lat="42.28163" lon="2.26962">
        <ele>1719</ele>
        <time>2010-01-01T01:50:56Z</time>
      </trkpt>
      <trkpt lat="42.28163" lon="2.26958">
        <ele>1719</ele>
        <time>2010-01-01T01:50:57Z</time>
      </trkpt>
      <trkpt lat="42.28163" lon="2.2695">
        <ele>1719</ele>
        <time>2010-01-01T01:50:59Z</time>
      </trkpt>
      <trkpt lat="42.28162" lon="2.26946">
        <ele>1719</ele>
        <time>2010-01-01T01:51:01Z</time>
      </trkpt>
      <trkpt lat="42.28162" lon="2.26942">
        <ele>1719</ele>
        <time>2010-01-01T01:51:02Z</time>
      </trkpt>
      <trkpt lat="42.28162" lon="2.26938">
        <ele>1719</ele>
        <time>2010-01-01T01:51:03Z</time>
      </trkpt>
      <trkpt lat="42.28161" lon="2.26933">
        <ele>1719</ele>
        <time>2010-01-01T01:51:04Z</time>
      </trkpt>
      <trkpt lat="42.2816" lon="2.2693">
        <ele>1718</ele>
        <time>2010-01-01T01:51:06Z</time>
      </trkpt>
      <trkpt lat="42.2816" lon="2.26925">
        <ele>1718</ele>
        <time>2010-01-01T01:51:07Z</time>
      </trkpt>
      <trkpt lat="42.28159" lon="2.26921">
        <ele>1717</ele>
        <time>2010-01-01T01:51:08Z</time>
      </trkpt>
      <trkpt lat="42.2816" lon="2.26913">
        <ele>1718</ele>
        <time>2010-01-01T01:51:10Z</time>
      </trkpt>
      <trkpt lat="42.28159" lon="2.2691">
        <ele>1717</ele>
        <time>2010-01-01T01:51:11Z</time>
      </trkpt>
      <trkpt lat="42.28158" lon="2.26905">
        <ele>1715</ele>
        <time>2010-01-01T01:51:13Z</time>
      </trkpt>
      <trkpt lat="42.28158" lon="2.26901">
        <ele>1714</ele>
        <time>2010-01-01T01:51:14Z</time>
      </trkpt>
      <trkpt lat="42.28157" lon="2.26897">
        <ele>1713</ele>
        <time>2010-01-01T01:51:15Z</time>
      </trkpt>
      <trkpt lat="42.28157" lon="2.26893">
        <ele>1712</ele>
        <time>2010-01-01T01:51:17Z</time>
      </trkpt>
      <trkpt lat="42.28156" lon="2.26889">
        <ele>1711</ele>
        <time>2010-01-01T01:51:18Z</time>
      </trkpt>
      <trkpt lat="42.28156" lon="2.26885">
        <ele>1711</ele>
        <time>2010-01-01T01:51:19Z</time>
      </trkpt>
      <trkpt lat="42.28156" lon="2.26881">
        <ele>1711</ele>
        <time>2010-01-01T01:51:20Z</time>
      </trkpt>
      <trkpt lat="42.28155" lon="2.26877">
        <ele>1711</ele>
        <time>2010-01-01T01:51:21Z</time>
      </trkpt>
      <trkpt lat="42.28155" lon="2.26873">
        <ele>1712</ele>
        <time>2010-01-01T01:51:22Z</time>
      </trkpt>
      <trkpt lat="42.28154" lon="2.26869">
        <ele>1712</ele>
        <time>2010-01-01T01:51:24Z</time>
      </trkpt>
      <trkpt lat="42.28154" lon="2.26865">
        <ele>1712</ele>
        <time>2010-01-01T01:51:25Z</time>
      </trkpt>
      <trkpt lat="42.28154" lon="2.26861">
        <ele>1712</ele>
        <time>2010-01-01T01:51:26Z</time>
      </trkpt>
      <trkpt lat="42.28154" lon="2.26857">
        <ele>1713</ele>
        <time>2010-01-01T01:51:27Z</time>
      </trkpt>
      <trkpt lat="42.28154" lon="2.26854">
        <ele>1714</ele>
        <time>2010-01-01T01:51:28Z</time>
      </trkpt>
      <trkpt lat="42.28155" lon="2.26851">
        <ele>1714</ele>
        <time>2010-01-01T01:51:29Z</time>
      </trkpt>
      <trkpt lat="42.28154" lon="2.26847">
        <ele>1715</ele>
        <time>2010-01-01T01:51:30Z</time>
      </trkpt>
      <trkpt lat="42.28154" lon="2.26844">
        <ele>1715</ele>
        <time>2010-01-01T01:51:31Z</time>
      </trkpt>
      <trkpt lat="42.28154" lon="2.2684">
        <ele>1716</ele>
        <time>2010-01-01T01:51:32Z</time>
      </trkpt>
      <trkpt lat="42.28154" lon="2.26833">
        <ele>1717</ele>
        <time>2010-01-01T01:51:34Z</time>
      </trkpt>
      <trkpt lat="42.28154" lon="2.2683">
        <ele>1717</ele>
        <time>2010-01-01T01:51:35Z</time>
      </trkpt>
      <trkpt lat="42.28153" lon="2.26826">
        <ele>1717</ele>
        <time>2010-01-01T01:51:37Z</time>
      </trkpt>
      <trkpt lat="42.28153" lon="2.26822">
        <ele>1717</ele>
        <time>2010-01-01T01:51:38Z</time>
      </trkpt>
      <trkpt lat="42.28152" lon="2.26819">
        <ele>1718</ele>
        <time>2010-01-01T01:51:39Z</time>
      </trkpt>
      <trkpt lat="42.28152" lon="2.26815">
        <ele>1718</ele>
        <time>2010-01-01T01:51:40Z</time>
      </trkpt>
      <trkpt lat="42.28153" lon="2.26809">
        <ele>1719</ele>
        <time>2010-01-01T01:51:42Z</time>
      </trkpt>
      <trkpt lat="42.28153" lon="2.26806">
        <ele>1720</ele>
        <time>2010-01-01T01:51:43Z</time>
      </trkpt>
      <trkpt lat="42.28153" lon="2.26803">
        <ele>1720</ele>
        <time>2010-01-01T01:51:43Z</time>
      </trkpt>
      <trkpt lat="42.28152" lon="2.268">
        <ele>1721</ele>
        <time>2010-01-01T01:51:44Z</time>
      </trkpt>
      <trkpt lat="42.28151" lon="2.26797">
        <ele>1721</ele>
        <time>2010-01-01T01:51:45Z</time>
      </trkpt>
      <trkpt lat="42.28151" lon="2.26794">
        <ele>1721</ele>
        <time>2010-01-01T01:51:46Z</time>
      </trkpt>
      <trkpt lat="42.28151" lon="2.2679">
        <ele>1722</ele>
        <time>2010-01-01T01:51:47Z</time>
      </trkpt>
      <trkpt lat="42.2815" lon="2.26787">
        <ele>1722</ele>
        <time>2010-01-01T01:51:48Z</time>
      </trkpt>
      <trkpt lat="42.2815" lon="2.26783">
        <ele>1723</ele>
        <time>2010-01-01T01:51:49Z</time>
      </trkpt>
      <trkpt lat="42.2815" lon="2.2678">
        <ele>1723</ele>
        <time>2010-01-01T01:51:50Z</time>
      </trkpt>
      <trkpt lat="42.28149" lon="2.26776">
        <ele>1723</ele>
        <time>2010-01-01T01:51:52Z</time>
      </trkpt>
      <trkpt lat="42.28149" lon="2.26772">
        <ele>1723</ele>
        <time>2010-01-01T01:51:53Z</time>
      </trkpt>
      <trkpt lat="42.28148" lon="2.26765">
        <ele>1723</ele>
        <time>2010-01-01T01:51:55Z</time>
      </trkpt>
      <trkpt lat="42.28148" lon="2.26761">
        <ele>1723</ele>
        <time>2010-01-01T01:51:56Z</time>
      </trkpt>
      <trkpt lat="42.28148" lon="2.26757">
        <ele>1723</ele>
        <time>2010-01-01T01:51:57Z</time>
      </trkpt>
      <trkpt lat="42.28148" lon="2.26753">
        <ele>1723</ele>
        <time>2010-01-01T01:51:58Z</time>
      </trkpt>
      <trkpt lat="42.28148" lon="2.2675">
        <ele>1723</ele>
        <time>2010-01-01T01:51:59Z</time>
      </trkpt>
      <trkpt lat="42.28148" lon="2.26738">
        <ele>1723</ele>
        <time>2010-01-01T01:52:03Z</time>
      </trkpt>
      <trkpt lat="42.28149" lon="2.26735">
        <ele>1723</ele>
        <time>2010-01-01T01:52:04Z</time>
      </trkpt>
      <trkpt lat="42.2815" lon="2.26732">
        <ele>1723</ele>
        <time>2010-01-01T01:52:05Z</time>
      </trkpt>
      <trkpt lat="42.28151" lon="2.26729">
        <ele>1724</ele>
        <time>2010-01-01T01:52:06Z</time>
      </trkpt>
      <trkpt lat="42.28152" lon="2.26726">
        <ele>1724</ele>
        <time>2010-01-01T01:52:07Z</time>
      </trkpt>
      <trkpt lat="42.28153" lon="2.26722">
        <ele>1724</ele>
        <time>2010-01-01T01:52:08Z</time>
      </trkpt>
      <trkpt lat="42.28153" lon="2.26719">
        <ele>1724</ele>
        <time>2010-01-01T01:52:09Z</time>
      </trkpt>
      <trkpt lat="42.28154" lon="2.26715">
        <ele>1723</ele>
        <time>2010-01-01T01:52:10Z</time>
      </trkpt>
      <trkpt lat="42.28155" lon="2.26712">
        <ele>1723</ele>
        <time>2010-01-01T01:52:11Z</time>
      </trkpt>
      <trkpt lat="42.28156" lon="2.26709">
        <ele>1723</ele>
        <time>2010-01-01T01:52:12Z</time>
      </trkpt>
      <trkpt lat="42.28157" lon="2.26706">
        <ele>1722</ele>
        <time>2010-01-01T01:52:13Z</time>
      </trkpt>
      <trkpt lat="42.28158" lon="2.26703">
        <ele>1722</ele>
        <time>2010-01-01T01:52:14Z</time>
      </trkpt>
      <trkpt lat="42.28158" lon="2.26699">
        <ele>1721</ele>
        <time>2010-01-01T01:52:15Z</time>
      </trkpt>
      <trkpt lat="42.28157" lon="2.26695">
        <ele>1720</ele>
        <time>2010-01-01T01:52:16Z</time>
      </trkpt>
      <trkpt lat="42.28157" lon="2.2669">
        <ele>1720</ele>
        <time>2010-01-01T01:52:18Z</time>
      </trkpt>
      <trkpt lat="42.28156" lon="2.26686">
        <ele>1719</ele>
        <time>2010-01-01T01:52:19Z</time>
      </trkpt>
      <trkpt lat="42.28156" lon="2.26682">
        <ele>1719</ele>
        <time>2010-01-01T01:52:20Z</time>
      </trkpt>
      <trkpt lat="42.28156" lon="2.26677">
        <ele>1718</ele>
        <time>2010-01-01T01:52:21Z</time>
      </trkpt>
      <trkpt lat="42.28156" lon="2.26673">
        <ele>1718</ele>
        <time>2010-01-01T01:52:23Z</time>
      </trkpt>
      <trkpt lat="42.28156" lon="2.26669">
        <ele>1718</ele>
        <time>2010-01-01T01:52:24Z</time>
      </trkpt>
      <trkpt lat="42.28156" lon="2.26664">
        <ele>1718</ele>
        <time>2010-01-01T01:52:25Z</time>
      </trkpt>
      <trkpt lat="42.28156" lon="2.2666">
        <ele>1719</ele>
        <time>2010-01-01T01:52:27Z</time>
      </trkpt>
      <trkpt lat="42.28155" lon="2.26655">
        <ele>1720</ele>
        <time>2010-01-01T01:52:28Z</time>
      </trkpt>
      <trkpt lat="42.28156" lon="2.26647">
        <ele>1722</ele>
        <time>2010-01-01T01:52:31Z</time>
      </trkpt>
      <trkpt lat="42.28156" lon="2.26643">
        <ele>1723</ele>
        <time>2010-01-01T01:52:32Z</time>
      </trkpt>
      <trkpt lat="42.28157" lon="2.26638">
        <ele>1724</ele>
        <time>2010-01-01T01:52:33Z</time>
      </trkpt>
      <trkpt lat="42.28157" lon="2.26634">
        <ele>1725</ele>
        <time>2010-01-01T01:52:35Z</time>
      </trkpt>
      <trkpt lat="42.28156" lon="2.2663">
        <ele>1725</ele>
        <time>2010-01-01T01:52:36Z</time>
      </trkpt>
      <trkpt lat="42.28155" lon="2.26626">
        <ele>1726</ele>
        <time>2010-01-01T01:52:37Z</time>
      </trkpt>
      <trkpt lat="42.28155" lon="2.26624">
        <ele>1727</ele>
        <time>2010-01-01T01:52:38Z</time>
      </trkpt>
      <trkpt lat="42.28154" lon="2.26621">
        <ele>1727</ele>
        <time>2010-01-01T01:52:38Z</time>
      </trkpt>
      <trkpt lat="42.28153" lon="2.26619">
        <ele>1727</ele>
        <time>2010-01-01T01:52:39Z</time>
      </trkpt>
      <trkpt lat="42.28152" lon="2.26616">
        <ele>1728</ele>
        <time>2010-01-01T01:52:40Z</time>
      </trkpt>
      <trkpt lat="42.28152" lon="2.26613">
        <ele>1728</ele>
        <time>2010-01-01T01:52:41Z</time>
      </trkpt>
      <trkpt lat="42.28151" lon="2.2661">
        <ele>1729</ele>
        <time>2010-01-01T01:52:42Z</time>
      </trkpt>
      <trkpt lat="42.28152" lon="2.26608">
        <ele>1729</ele>
        <time>2010-01-01T01:52:43Z</time>
      </trkpt>
      <trkpt lat="42.28151" lon="2.26604">
        <ele>1730</ele>
        <time>2010-01-01T01:52:44Z</time>
      </trkpt>
      <trkpt lat="42.2815" lon="2.26601">
        <ele>1730</ele>
        <time>2010-01-01T01:52:45Z</time>
      </trkpt>
      <trkpt lat="42.2815" lon="2.26598">
        <ele>1731</ele>
        <time>2010-01-01T01:52:46Z</time>
      </trkpt>
      <trkpt lat="42.28149" lon="2.26595">
        <ele>1731</ele>
        <time>2010-01-01T01:52:46Z</time>
      </trkpt>
      <trkpt lat="42.2815" lon="2.26593">
        <ele>1732</ele>
        <time>2010-01-01T01:52:47Z</time>
      </trkpt>
      <trkpt lat="42.28151" lon="2.2659">
        <ele>1732</ele>
        <time>2010-01-01T01:52:48Z</time>
      </trkpt>
      <trkpt lat="42.28152" lon="2.26588">
        <ele>1733</ele>
        <time>2010-01-01T01:52:49Z</time>
      </trkpt>
      <trkpt lat="42.28151" lon="2.26586">
        <ele>1734</ele>
        <time>2010-01-01T01:52:50Z</time>
      </trkpt>
      <trkpt lat="42.2815" lon="2.26583">
        <ele>1734</ele>
        <time>2010-01-01T01:52:51Z</time>
      </trkpt>
      <trkpt lat="42.28149" lon="2.26581">
        <ele>1734</ele>
        <time>2010-01-01T01:52:51Z</time>
      </trkpt>
      <trkpt lat="42.28148" lon="2.26578">
        <ele>1734</ele>
        <time>2010-01-01T01:52:52Z</time>
      </trkpt>
      <trkpt lat="42.28148" lon="2.26575">
        <ele>1734</ele>
        <time>2010-01-01T01:52:53Z</time>
      </trkpt>
      <trkpt lat="42.28148" lon="2.26571">
        <ele>1735</ele>
        <time>2010-01-01T01:52:54Z</time>
      </trkpt>
      <trkpt lat="42.28147" lon="2.26569">
        <ele>1735</ele>
        <time>2010-01-01T01:52:55Z</time>
      </trkpt>
      <trkpt lat="42.28146" lon="2.26566">
        <ele>1735</ele>
        <time>2010-01-01T01:52:56Z</time>
      </trkpt>
      <trkpt lat="42.28146" lon="2.26563">
        <ele>1736</ele>
        <time>2010-01-01T01:52:57Z</time>
      </trkpt>
      <trkpt lat="42.28145" lon="2.26561">
        <ele>1736</ele>
        <time>2010-01-01T01:52:58Z</time>
      </trkpt>
      <trkpt lat="42.28144" lon="2.26557">
        <ele>1736</ele>
        <time>2010-01-01T01:52:59Z</time>
      </trkpt>
      <trkpt lat="42.28144" lon="2.26554">
        <ele>1736</ele>
        <time>2010-01-01T01:53:00Z</time>
      </trkpt>
      <trkpt lat="42.28144" lon="2.26548">
        <ele>1737</ele>
        <time>2010-01-01T01:53:02Z</time>
      </trkpt>
      <trkpt lat="42.28144" lon="2.26545">
        <ele>1737</ele>
        <time>2010-01-01T01:53:03Z</time>
      </trkpt>
      <trkpt lat="42.28143" lon="2.26542">
        <ele>1737</ele>
        <time>2010-01-01T01:53:03Z</time>
      </trkpt>
      <trkpt lat="42.28143" lon="2.26539">
        <ele>1737</ele>
        <time>2010-01-01T01:53:04Z</time>
      </trkpt>
      <trkpt lat="42.28143" lon="2.26536">
        <ele>1737</ele>
        <time>2010-01-01T01:53:05Z</time>
      </trkpt>
      <trkpt lat="42.28142" lon="2.26533">
        <ele>1737</ele>
        <time>2010-01-01T01:53:06Z</time>
      </trkpt>
      <trkpt lat="42.28142" lon="2.26528">
        <ele>1738</ele>
        <time>2010-01-01T01:53:08Z</time>
      </trkpt>
      <trkpt lat="42.28142" lon="2.26525">
        <ele>1738</ele>
        <time>2010-01-01T01:53:09Z</time>
      </trkpt>
      <trkpt lat="42.28142" lon="2.26521">
        <ele>1739</ele>
        <time>2010-01-01T01:53:09Z</time>
      </trkpt>
      <trkpt lat="42.28142" lon="2.26518">
        <ele>1739</ele>
        <time>2010-01-01T01:53:10Z</time>
      </trkpt>
      <trkpt lat="42.28142" lon="2.26516">
        <ele>1740</ele>
        <time>2010-01-01T01:53:11Z</time>
      </trkpt>
      <trkpt lat="42.28142" lon="2.26513">
        <ele>1741</ele>
        <time>2010-01-01T01:53:12Z</time>
      </trkpt>
      <trkpt lat="42.28142" lon="2.2651">
        <ele>1741</ele>
        <time>2010-01-01T01:53:13Z</time>
      </trkpt>
      <trkpt lat="42.28142" lon="2.26507">
        <ele>1742</ele>
        <time>2010-01-01T01:53:14Z</time>
      </trkpt>
      <trkpt lat="42.28142" lon="2.26504">
        <ele>1742</ele>
        <time>2010-01-01T01:53:15Z</time>
      </trkpt>
      <trkpt lat="42.28142" lon="2.26498">
        <ele>1744</ele>
        <time>2010-01-01T01:53:16Z</time>
      </trkpt>
      <trkpt lat="42.28143" lon="2.26496">
        <ele>1744</ele>
        <time>2010-01-01T01:53:17Z</time>
      </trkpt>
      <trkpt lat="42.28142" lon="2.26492">
        <ele>1745</ele>
        <time>2010-01-01T01:53:18Z</time>
      </trkpt>
      <trkpt lat="42.28141" lon="2.26489">
        <ele>1746</ele>
        <time>2010-01-01T01:53:19Z</time>
      </trkpt>
      <trkpt lat="42.2814" lon="2.26486">
        <ele>1746</ele>
        <time>2010-01-01T01:53:20Z</time>
      </trkpt>
      <trkpt lat="42.2814" lon="2.26482">
        <ele>1747</ele>
        <time>2010-01-01T01:53:21Z</time>
      </trkpt>
      <trkpt lat="42.28139" lon="2.26479">
        <ele>1748</ele>
        <time>2010-01-01T01:53:22Z</time>
      </trkpt>
      <trkpt lat="42.28138" lon="2.26475">
        <ele>1749</ele>
        <time>2010-01-01T01:53:24Z</time>
      </trkpt>
      <trkpt lat="42.28138" lon="2.26472">
        <ele>1750</ele>
        <time>2010-01-01T01:53:25Z</time>
      </trkpt>
      <trkpt lat="42.28137" lon="2.26466">
        <ele>1751</ele>
        <time>2010-01-01T01:53:26Z</time>
      </trkpt>
      <trkpt lat="42.28137" lon="2.26463">
        <ele>1751</ele>
        <time>2010-01-01T01:53:27Z</time>
      </trkpt>
      <trkpt lat="42.28136" lon="2.2646">
        <ele>1752</ele>
        <time>2010-01-01T01:53:28Z</time>
      </trkpt>
      <trkpt lat="42.28137" lon="2.26457">
        <ele>1752</ele>
        <time>2010-01-01T01:53:29Z</time>
      </trkpt>
      <trkpt lat="42.28136" lon="2.26454">
        <ele>1753</ele>
        <time>2010-01-01T01:53:30Z</time>
      </trkpt>
      <trkpt lat="42.28136" lon="2.26451">
        <ele>1753</ele>
        <time>2010-01-01T01:53:31Z</time>
      </trkpt>
      <trkpt lat="42.28136" lon="2.26448">
        <ele>1754</ele>
        <time>2010-01-01T01:53:32Z</time>
      </trkpt>
      <trkpt lat="42.28137" lon="2.26444">
        <ele>1754</ele>
        <time>2010-01-01T01:53:33Z</time>
      </trkpt>
      <trkpt lat="42.28136" lon="2.26441">
        <ele>1755</ele>
        <time>2010-01-01T01:53:34Z</time>
      </trkpt>
      <trkpt lat="42.28136" lon="2.26438">
        <ele>1755</ele>
        <time>2010-01-01T01:53:35Z</time>
      </trkpt>
      <trkpt lat="42.28135" lon="2.26435">
        <ele>1755</ele>
        <time>2010-01-01T01:53:36Z</time>
      </trkpt>
      <trkpt lat="42.28134" lon="2.26432">
        <ele>1755</ele>
        <time>2010-01-01T01:53:37Z</time>
      </trkpt>
      <trkpt lat="42.28133" lon="2.26429">
        <ele>1756</ele>
        <time>2010-01-01T01:53:38Z</time>
      </trkpt>
      <trkpt lat="42.28133" lon="2.26426">
        <ele>1756</ele>
        <time>2010-01-01T01:53:38Z</time>
      </trkpt>
      <trkpt lat="42.28133" lon="2.26423">
        <ele>1756</ele>
        <time>2010-01-01T01:53:39Z</time>
      </trkpt>
      <trkpt lat="42.28133" lon="2.26421">
        <ele>1756</ele>
        <time>2010-01-01T01:53:40Z</time>
      </trkpt>
      <trkpt lat="42.28133" lon="2.26418">
        <ele>1756</ele>
        <time>2010-01-01T01:53:41Z</time>
      </trkpt>
      <trkpt lat="42.28134" lon="2.26415">
        <ele>1757</ele>
        <time>2010-01-01T01:53:42Z</time>
      </trkpt>
      <trkpt lat="42.28135" lon="2.26413">
        <ele>1757</ele>
        <time>2010-01-01T01:53:42Z</time>
      </trkpt>
      <trkpt lat="42.28135" lon="2.2641">
        <ele>1757</ele>
        <time>2010-01-01T01:53:43Z</time>
      </trkpt>
      <trkpt lat="42.28136" lon="2.26407">
        <ele>1757</ele>
        <time>2010-01-01T01:53:44Z</time>
      </trkpt>
      <trkpt lat="42.28137" lon="2.26403">
        <ele>1757</ele>
        <time>2010-01-01T01:53:45Z</time>
      </trkpt>
      <trkpt lat="42.28138" lon="2.264">
        <ele>1757</ele>
        <time>2010-01-01T01:53:46Z</time>
      </trkpt>
      <trkpt lat="42.28139" lon="2.26398">
        <ele>1757</ele>
        <time>2010-01-01T01:53:47Z</time>
      </trkpt>
      <trkpt lat="42.28139" lon="2.26393">
        <ele>1758</ele>
        <time>2010-01-01T01:53:49Z</time>
      </trkpt>
      <trkpt lat="42.2814" lon="2.2639">
        <ele>1758</ele>
        <time>2010-01-01T01:53:50Z</time>
      </trkpt>
      <trkpt lat="42.28141" lon="2.26388">
        <ele>1758</ele>
        <time>2010-01-01T01:53:50Z</time>
      </trkpt>
      <trkpt lat="42.28141" lon="2.26384">
        <ele>1760</ele>
        <time>2010-01-01T01:53:51Z</time>
      </trkpt>
      <trkpt lat="42.28141" lon="2.26381">
        <ele>1760</ele>
        <time>2010-01-01T01:53:52Z</time>
      </trkpt>
      <trkpt lat="42.28142" lon="2.26379">
        <ele>1761</ele>
        <time>2010-01-01T01:53:53Z</time>
      </trkpt>
      <trkpt lat="42.28143" lon="2.26376">
        <ele>1762</ele>
        <time>2010-01-01T01:53:54Z</time>
      </trkpt>
      <trkpt lat="42.28144" lon="2.26373">
        <ele>1763</ele>
        <time>2010-01-01T01:53:55Z</time>
      </trkpt>
      <trkpt lat="42.28144" lon="2.2637">
        <ele>1763</ele>
        <time>2010-01-01T01:53:56Z</time>
      </trkpt>
      <trkpt lat="42.28145" lon="2.26368">
        <ele>1764</ele>
        <time>2010-01-01T01:53:56Z</time>
      </trkpt>
      <trkpt lat="42.28145" lon="2.26365">
        <ele>1765</ele>
        <time>2010-01-01T01:53:57Z</time>
      </trkpt>
      <trkpt lat="42.28145" lon="2.26363">
        <ele>1765</ele>
        <time>2010-01-01T01:53:58Z</time>
      </trkpt>
      <trkpt lat="42.28146" lon="2.2636">
        <ele>1766</ele>
        <time>2010-01-01T01:53:59Z</time>
      </trkpt>
      <trkpt lat="42.28146" lon="2.26358">
        <ele>1767</ele>
        <time>2010-01-01T01:54:00Z</time>
      </trkpt>
      <trkpt lat="42.28146" lon="2.26355">
        <ele>1767</ele>
        <time>2010-01-01T01:54:00Z</time>
      </trkpt>
      <trkpt lat="42.28147" lon="2.26352">
        <ele>1768</ele>
        <time>2010-01-01T01:54:01Z</time>
      </trkpt>
      <trkpt lat="42.28148" lon="2.26349">
        <ele>1768</ele>
        <time>2010-01-01T01:54:02Z</time>
      </trkpt>
      <trkpt lat="42.28148" lon="2.26346">
        <ele>1769</ele>
        <time>2010-01-01T01:54:03Z</time>
      </trkpt>
      <trkpt lat="42.28149" lon="2.26343">
        <ele>1769</ele>
        <time>2010-01-01T01:54:04Z</time>
      </trkpt>
      <trkpt lat="42.28149" lon="2.26341">
        <ele>1770</ele>
        <time>2010-01-01T01:54:05Z</time>
      </trkpt>
      <trkpt lat="42.2815" lon="2.26338">
        <ele>1771</ele>
        <time>2010-01-01T01:54:06Z</time>
      </trkpt>
      <trkpt lat="42.2815" lon="2.26335">
        <ele>1771</ele>
        <time>2010-01-01T01:54:07Z</time>
      </trkpt>
      <trkpt lat="42.28151" lon="2.26333">
        <ele>1772</ele>
        <time>2010-01-01T01:54:07Z</time>
      </trkpt>
      <trkpt lat="42.28153" lon="2.2633">
        <ele>1773</ele>
        <time>2010-01-01T01:54:08Z</time>
      </trkpt>
      <trkpt lat="42.28154" lon="2.26328">
        <ele>1773</ele>
        <time>2010-01-01T01:54:09Z</time>
      </trkpt>
      <trkpt lat="42.28154" lon="2.26324">
        <ele>1774</ele>
        <time>2010-01-01T01:54:10Z</time>
      </trkpt>
      <trkpt lat="42.28153" lon="2.26322">
        <ele>1774</ele>
        <time>2010-01-01T01:54:11Z</time>
      </trkpt>
      <trkpt lat="42.28153" lon="2.26318">
        <ele>1774</ele>
        <time>2010-01-01T01:54:12Z</time>
      </trkpt>
      <trkpt lat="42.28153" lon="2.26315">
        <ele>1775</ele>
        <time>2010-01-01T01:54:13Z</time>
      </trkpt>
      <trkpt lat="42.28152" lon="2.26312">
        <ele>1775</ele>
        <time>2010-01-01T01:54:14Z</time>
      </trkpt>
      <trkpt lat="42.28152" lon="2.26309">
        <ele>1775</ele>
        <time>2010-01-01T01:54:15Z</time>
      </trkpt>
      <trkpt lat="42.28152" lon="2.26306">
        <ele>1775</ele>
        <time>2010-01-01T01:54:16Z</time>
      </trkpt>
      <trkpt lat="42.28152" lon="2.26303">
        <ele>1775</ele>
        <time>2010-01-01T01:54:17Z</time>
      </trkpt>
      <trkpt lat="42.28152" lon="2.263">
        <ele>1776</ele>
        <time>2010-01-01T01:54:17Z</time>
      </trkpt>
      <trkpt lat="42.28151" lon="2.26297">
        <ele>1776</ele>
        <time>2010-01-01T01:54:19Z</time>
      </trkpt>
      <trkpt lat="42.2815" lon="2.26294">
        <ele>1776</ele>
        <time>2010-01-01T01:54:19Z</time>
      </trkpt>
      <trkpt lat="42.28149" lon="2.26291">
        <ele>1776</ele>
        <time>2010-01-01T01:54:20Z</time>
      </trkpt>
      <trkpt lat="42.28149" lon="2.26288">
        <ele>1776</ele>
        <time>2010-01-01T01:54:21Z</time>
      </trkpt>
      <trkpt lat="42.28149" lon="2.26285">
        <ele>1777</ele>
        <time>2010-01-01T01:54:22Z</time>
      </trkpt>
      <trkpt lat="42.28149" lon="2.26281">
        <ele>1778</ele>
        <time>2010-01-01T01:54:23Z</time>
      </trkpt>
      <trkpt lat="42.2815" lon="2.26278">
        <ele>1778</ele>
        <time>2010-01-01T01:54:24Z</time>
      </trkpt>
      <trkpt lat="42.2815" lon="2.26275">
        <ele>1779</ele>
        <time>2010-01-01T01:54:25Z</time>
      </trkpt>
      <trkpt lat="42.28152" lon="2.26273">
        <ele>1781</ele>
        <time>2010-01-01T01:54:26Z</time>
      </trkpt>
      <trkpt lat="42.28154" lon="2.26271">
        <ele>1783</ele>
        <time>2010-01-01T01:54:27Z</time>
      </trkpt>
      <trkpt lat="42.28155" lon="2.26268">
        <ele>1784</ele>
        <time>2010-01-01T01:54:28Z</time>
      </trkpt>
      <trkpt lat="42.28156" lon="2.26266">
        <ele>1785</ele>
        <time>2010-01-01T01:54:29Z</time>
      </trkpt>
      <trkpt lat="42.28155" lon="2.26263">
        <ele>1785</ele>
        <time>2010-01-01T01:54:30Z</time>
      </trkpt>
      <trkpt lat="42.28155" lon="2.2626">
        <ele>1786</ele>
        <time>2010-01-01T01:54:30Z</time>
      </trkpt>
      <trkpt lat="42.28155" lon="2.26257">
        <ele>1787</ele>
        <time>2010-01-01T01:54:31Z</time>
      </trkpt>
      <trkpt lat="42.28156" lon="2.26254">
        <ele>1788</ele>
        <time>2010-01-01T01:54:32Z</time>
      </trkpt>
      <trkpt lat="42.28157" lon="2.26251">
        <ele>1789</ele>
        <time>2010-01-01T01:54:33Z</time>
      </trkpt>
      <trkpt lat="42.28157" lon="2.26248">
        <ele>1790</ele>
        <time>2010-01-01T01:54:34Z</time>
      </trkpt>
      <trkpt lat="42.28158" lon="2.26246">
        <ele>1790</ele>
        <time>2010-01-01T01:54:35Z</time>
      </trkpt>
      <trkpt lat="42.28159" lon="2.26243">
        <ele>1791</ele>
        <time>2010-01-01T01:54:36Z</time>
      </trkpt>
      <trkpt lat="42.28159" lon="2.26241">
        <ele>1792</ele>
        <time>2010-01-01T01:54:36Z</time>
      </trkpt>
      <trkpt lat="42.28159" lon="2.26238">
        <ele>1793</ele>
        <time>2010-01-01T01:54:37Z</time>
      </trkpt>
      <trkpt lat="42.28159" lon="2.26234">
        <ele>1793</ele>
        <time>2010-01-01T01:54:39Z</time>
      </trkpt>
      <trkpt lat="42.28158" lon="2.26231">
        <ele>1793</ele>
        <time>2010-01-01T01:54:39Z</time>
      </trkpt>
      <trkpt lat="42.28158" lon="2.26228">
        <ele>1794</ele>
        <time>2010-01-01T01:54:40Z</time>
      </trkpt>
      <trkpt lat="42.28157" lon="2.26226">
        <ele>1794</ele>
        <time>2010-01-01T01:54:41Z</time>
      </trkpt>
      <trkpt lat="42.28156" lon="2.26223">
        <ele>1794</ele>
        <time>2010-01-01T01:54:42Z</time>
      </trkpt>
      <trkpt lat="42.28155" lon="2.26221">
        <ele>1794</ele>
        <time>2010-01-01T01:54:43Z</time>
      </trkpt>
      <trkpt lat="42.28154" lon="2.26218">
        <ele>1794</ele>
        <time>2010-01-01T01:54:44Z</time>
      </trkpt>
      <trkpt lat="42.28154" lon="2.26216">
        <ele>1795</ele>
        <time>2010-01-01T01:54:44Z</time>
      </trkpt>
      <trkpt lat="42.28154" lon="2.26211">
        <ele>1798</ele>
        <time>2010-01-01T01:54:46Z</time>
      </trkpt>
      <trkpt lat="42.28155" lon="2.26209">
        <ele>1799</ele>
        <time>2010-01-01T01:54:46Z</time>
      </trkpt>
      <trkpt lat="42.28156" lon="2.26206">
        <ele>1800</ele>
        <time>2010-01-01T01:54:47Z</time>
      </trkpt>
      <trkpt lat="42.28158" lon="2.26204">
        <ele>1802</ele>
        <time>2010-01-01T01:54:48Z</time>
      </trkpt>
      <trkpt lat="42.2816" lon="2.26203">
        <ele>1804</ele>
        <time>2010-01-01T01:54:49Z</time>
      </trkpt>
      <trkpt lat="42.28163" lon="2.26196">
        <ele>1808</ele>
        <time>2010-01-01T01:54:52Z</time>
      </trkpt>
      <trkpt lat="42.28164" lon="2.26193">
        <ele>1809</ele>
        <time>2010-01-01T01:54:53Z</time>
      </trkpt>
      <trkpt lat="42.28164" lon="2.2619">
        <ele>1809</ele>
        <time>2010-01-01T01:54:53Z</time>
      </trkpt>
      <trkpt lat="42.28164" lon="2.26187">
        <ele>1810</ele>
        <time>2010-01-01T01:54:54Z</time>
      </trkpt>
      <trkpt lat="42.28164" lon="2.26184">
        <ele>1810</ele>
        <time>2010-01-01T01:54:55Z</time>
      </trkpt>
      <trkpt lat="42.28164" lon="2.26181">
        <ele>1811</ele>
        <time>2010-01-01T01:54:56Z</time>
      </trkpt>
      <trkpt lat="42.28164" lon="2.26178">
        <ele>1811</ele>
        <time>2010-01-01T01:54:57Z</time>
      </trkpt>
      <trkpt lat="42.28165" lon="2.26175">
        <ele>1812</ele>
        <time>2010-01-01T01:54:58Z</time>
      </trkpt>
      <trkpt lat="42.28165" lon="2.26172">
        <ele>1813</ele>
        <time>2010-01-01T01:54:59Z</time>
      </trkpt>
      <trkpt lat="42.28166" lon="2.26169">
        <ele>1814</ele>
        <time>2010-01-01T01:55:00Z</time>
      </trkpt>
      <trkpt lat="42.28167" lon="2.26167">
        <ele>1815</ele>
        <time>2010-01-01T01:55:01Z</time>
      </trkpt>
      <trkpt lat="42.28168" lon="2.26163">
        <ele>1815</ele>
        <time>2010-01-01T01:55:02Z</time>
      </trkpt>
      <trkpt lat="42.28169" lon="2.26161">
        <ele>1816</ele>
        <time>2010-01-01T01:55:02Z</time>
      </trkpt>
      <trkpt lat="42.2817" lon="2.26159">
        <ele>1817</ele>
        <time>2010-01-01T01:55:03Z</time>
      </trkpt>
      <trkpt lat="42.28171" lon="2.26156">
        <ele>1818</ele>
        <time>2010-01-01T01:55:04Z</time>
      </trkpt>
      <trkpt lat="42.28172" lon="2.26153">
        <ele>1818</ele>
        <time>2010-01-01T01:55:05Z</time>
      </trkpt>
      <trkpt lat="42.28172" lon="2.2615">
        <ele>1819</ele>
        <time>2010-01-01T01:55:06Z</time>
      </trkpt>
      <trkpt lat="42.28173" lon="2.26148">
        <ele>1820</ele>
        <time>2010-01-01T01:55:07Z</time>
      </trkpt>
      <trkpt lat="42.28174" lon="2.26145">
        <ele>1820</ele>
        <time>2010-01-01T01:55:08Z</time>
      </trkpt>
      <trkpt lat="42.28175" lon="2.26142">
        <ele>1821</ele>
        <time>2010-01-01T01:55:09Z</time>
      </trkpt>
      <trkpt lat="42.28175" lon="2.26138">
        <ele>1822</ele>
        <time>2010-01-01T01:55:10Z</time>
      </trkpt>
      <trkpt lat="42.28176" lon="2.26133">
        <ele>1822</ele>
        <time>2010-01-01T01:55:11Z</time>
      </trkpt>
      <trkpt lat="42.28176" lon="2.2613">
        <ele>1823</ele>
        <time>2010-01-01T01:55:12Z</time>
      </trkpt>
      <trkpt lat="42.28177" lon="2.26127">
        <ele>1823</ele>
        <time>2010-01-01T01:55:13Z</time>
      </trkpt>
      <trkpt lat="42.28176" lon="2.26124">
        <ele>1824</ele>
        <time>2010-01-01T01:55:14Z</time>
      </trkpt>
      <trkpt lat="42.28176" lon="2.26121">
        <ele>1824</ele>
        <time>2010-01-01T01:55:15Z</time>
      </trkpt>
      <trkpt lat="42.28176" lon="2.26118">
        <ele>1824</ele>
        <time>2010-01-01T01:55:16Z</time>
      </trkpt>
      <trkpt lat="42.28176" lon="2.26115">
        <ele>1825</ele>
        <time>2010-01-01T01:55:17Z</time>
      </trkpt>
      <trkpt lat="42.28176" lon="2.26112">
        <ele>1825</ele>
        <time>2010-01-01T01:55:18Z</time>
      </trkpt>
      <trkpt lat="42.28176" lon="2.26107">
        <ele>1825</ele>
        <time>2010-01-01T01:55:19Z</time>
      </trkpt>
      <trkpt lat="42.28176" lon="2.26104">
        <ele>1825</ele>
        <time>2010-01-01T01:55:20Z</time>
      </trkpt>
      <trkpt lat="42.28176" lon="2.26102">
        <ele>1826</ele>
        <time>2010-01-01T01:55:21Z</time>
      </trkpt>
      <trkpt lat="42.28176" lon="2.26099">
        <ele>1826</ele>
        <time>2010-01-01T01:55:22Z</time>
      </trkpt>
      <trkpt lat="42.28177" lon="2.26096">
        <ele>1826</ele>
        <time>2010-01-01T01:55:22Z</time>
      </trkpt>
      <trkpt lat="42.28177" lon="2.26093">
        <ele>1827</ele>
        <time>2010-01-01T01:55:23Z</time>
      </trkpt>
      <trkpt lat="42.28177" lon="2.2609">
        <ele>1827</ele>
        <time>2010-01-01T01:55:24Z</time>
      </trkpt>
      <trkpt lat="42.28176" lon="2.26087">
        <ele>1827</ele>
        <time>2010-01-01T01:55:25Z</time>
      </trkpt>
      <trkpt lat="42.28176" lon="2.26083">
        <ele>1827</ele>
        <time>2010-01-01T01:55:26Z</time>
      </trkpt>
      <trkpt lat="42.28177" lon="2.26081">
        <ele>1827</ele>
        <time>2010-01-01T01:55:27Z</time>
      </trkpt>
      <trkpt lat="42.28176" lon="2.26078">
        <ele>1827</ele>
        <time>2010-01-01T01:55:28Z</time>
      </trkpt>
      <trkpt lat="42.28177" lon="2.26075">
        <ele>1827</ele>
        <time>2010-01-01T01:55:29Z</time>
      </trkpt>
      <trkpt lat="42.28177" lon="2.26072">
        <ele>1827</ele>
        <time>2010-01-01T01:55:30Z</time>
      </trkpt>
      <trkpt lat="42.28178" lon="2.26069">
        <ele>1827</ele>
        <time>2010-01-01T01:55:30Z</time>
      </trkpt>
      <trkpt lat="42.28178" lon="2.26066">
        <ele>1827</ele>
        <time>2010-01-01T01:55:31Z</time>
      </trkpt>
      <trkpt lat="42.28178" lon="2.26063">
        <ele>1828</ele>
        <time>2010-01-01T01:55:32Z</time>
      </trkpt>
      <trkpt lat="42.28179" lon="2.2606">
        <ele>1828</ele>
        <time>2010-01-01T01:55:33Z</time>
      </trkpt>
      <trkpt lat="42.28179" lon="2.26057">
        <ele>1828</ele>
        <time>2010-01-01T01:55:34Z</time>
      </trkpt>
      <trkpt lat="42.2818" lon="2.26054">
        <ele>1829</ele>
        <time>2010-01-01T01:55:35Z</time>
      </trkpt>
      <trkpt lat="42.2818" lon="2.26051">
        <ele>1829</ele>
        <time>2010-01-01T01:55:36Z</time>
      </trkpt>
      <trkpt lat="42.2818" lon="2.26048">
        <ele>1830</ele>
        <time>2010-01-01T01:55:37Z</time>
      </trkpt>
      <trkpt lat="42.2818" lon="2.26045">
        <ele>1830</ele>
        <time>2010-01-01T01:55:38Z</time>
      </trkpt>
      <trkpt lat="42.28179" lon="2.26042">
        <ele>1830</ele>
        <time>2010-01-01T01:55:39Z</time>
      </trkpt>
      <trkpt lat="42.28179" lon="2.26038">
        <ele>1830</ele>
        <time>2010-01-01T01:55:40Z</time>
      </trkpt>
      <trkpt lat="42.28179" lon="2.26035">
        <ele>1831</ele>
        <time>2010-01-01T01:55:41Z</time>
      </trkpt>
      <trkpt lat="42.28179" lon="2.26031">
        <ele>1831</ele>
        <time>2010-01-01T01:55:42Z</time>
      </trkpt>
      <trkpt lat="42.28179" lon="2.26027">
        <ele>1832</ele>
        <time>2010-01-01T01:55:43Z</time>
      </trkpt>
      <trkpt lat="42.28179" lon="2.26024">
        <ele>1833</ele>
        <time>2010-01-01T01:55:44Z</time>
      </trkpt>
      <trkpt lat="42.2818" lon="2.26021">
        <ele>1834</ele>
        <time>2010-01-01T01:55:45Z</time>
      </trkpt>
      <trkpt lat="42.2818" lon="2.26018">
        <ele>1835</ele>
        <time>2010-01-01T01:55:46Z</time>
      </trkpt>
      <trkpt lat="42.28181" lon="2.26015">
        <ele>1836</ele>
        <time>2010-01-01T01:55:47Z</time>
      </trkpt>
      <trkpt lat="42.28182" lon="2.26013">
        <ele>1837</ele>
        <time>2010-01-01T01:55:47Z</time>
      </trkpt>
      <trkpt lat="42.28182" lon="2.2601">
        <ele>1838</ele>
        <time>2010-01-01T01:55:48Z</time>
      </trkpt>
      <trkpt lat="42.28183" lon="2.26008">
        <ele>1839</ele>
        <time>2010-01-01T01:55:49Z</time>
      </trkpt>
      <trkpt lat="42.28183" lon="2.26005">
        <ele>1840</ele>
        <time>2010-01-01T01:55:50Z</time>
      </trkpt>
      <trkpt lat="42.28184" lon="2.26002">
        <ele>1841</ele>
        <time>2010-01-01T01:55:51Z</time>
      </trkpt>
      <trkpt lat="42.28184" lon="2.26">
        <ele>1842</ele>
        <time>2010-01-01T01:55:51Z</time>
      </trkpt>
      <trkpt lat="42.28185" lon="2.25997">
        <ele>1842</ele>
        <time>2010-01-01T01:55:52Z</time>
      </trkpt>
      <trkpt lat="42.28185" lon="2.25994">
        <ele>1843</ele>
        <time>2010-01-01T01:55:53Z</time>
      </trkpt>
      <trkpt lat="42.28185" lon="2.25992">
        <ele>1843</ele>
        <time>2010-01-01T01:55:54Z</time>
      </trkpt>
      <trkpt lat="42.28186" lon="2.25989">
        <ele>1843</ele>
        <time>2010-01-01T01:55:55Z</time>
      </trkpt>
      <trkpt lat="42.28187" lon="2.25986">
        <ele>1844</ele>
        <time>2010-01-01T01:55:56Z</time>
      </trkpt>
      <trkpt lat="42.28188" lon="2.25983">
        <ele>1844</ele>
        <time>2010-01-01T01:55:56Z</time>
      </trkpt>
      <trkpt lat="42.28188" lon="2.25981">
        <ele>1844</ele>
        <time>2010-01-01T01:55:57Z</time>
      </trkpt>
      <trkpt lat="42.28188" lon="2.25977">
        <ele>1845</ele>
        <time>2010-01-01T01:55:58Z</time>
      </trkpt>
      <trkpt lat="42.28189" lon="2.25966">
        <ele>1845</ele>
        <time>2010-01-01T01:56:02Z</time>
      </trkpt>
      <trkpt lat="42.28189" lon="2.25963">
        <ele>1845</ele>
        <time>2010-01-01T01:56:03Z</time>
      </trkpt>
      <trkpt lat="42.28189" lon="2.25959">
        <ele>1845</ele>
        <time>2010-01-01T01:56:04Z</time>
      </trkpt>
      <trkpt lat="42.28189" lon="2.25957">
        <ele>1845</ele>
        <time>2010-01-01T01:56:04Z</time>
      </trkpt>
      <trkpt lat="42.2819" lon="2.25953">
        <ele>1845</ele>
        <time>2010-01-01T01:56:05Z</time>
      </trkpt>
      <trkpt lat="42.2819" lon="2.25947">
        <ele>1845</ele>
        <time>2010-01-01T01:56:07Z</time>
      </trkpt>
      <trkpt lat="42.2819" lon="2.25943">
        <ele>1846</ele>
        <time>2010-01-01T01:56:08Z</time>
      </trkpt>
      <trkpt lat="42.2819" lon="2.25941">
        <ele>1847</ele>
        <time>2010-01-01T01:56:09Z</time>
      </trkpt>
      <trkpt lat="42.28191" lon="2.25938">
        <ele>1848</ele>
        <time>2010-01-01T01:56:10Z</time>
      </trkpt>
      <trkpt lat="42.2819" lon="2.25933">
        <ele>1849</ele>
        <time>2010-01-01T01:56:12Z</time>
      </trkpt>
      <trkpt lat="42.2819" lon="2.2593">
        <ele>1850</ele>
        <time>2010-01-01T01:56:12Z</time>
      </trkpt>
      <trkpt lat="42.2819" lon="2.25927">
        <ele>1851</ele>
        <time>2010-01-01T01:56:13Z</time>
      </trkpt>
      <trkpt lat="42.28189" lon="2.25924">
        <ele>1852</ele>
        <time>2010-01-01T01:56:14Z</time>
      </trkpt>
      <trkpt lat="42.2819" lon="2.25921">
        <ele>1853</ele>
        <time>2010-01-01T01:56:15Z</time>
      </trkpt>
      <trkpt lat="42.2819" lon="2.25919">
        <ele>1854</ele>
        <time>2010-01-01T01:56:16Z</time>
      </trkpt>
      <trkpt lat="42.2819" lon="2.25915">
        <ele>1855</ele>
        <time>2010-01-01T01:56:17Z</time>
      </trkpt>
      <trkpt lat="42.28191" lon="2.25912">
        <ele>1855</ele>
        <time>2010-01-01T01:56:18Z</time>
      </trkpt>
      <trkpt lat="42.28191" lon="2.25909">
        <ele>1856</ele>
        <time>2010-01-01T01:56:19Z</time>
      </trkpt>
      <trkpt lat="42.28191" lon="2.25906">
        <ele>1856</ele>
        <time>2010-01-01T01:56:20Z</time>
      </trkpt>
      <trkpt lat="42.28192" lon="2.25903">
        <ele>1857</ele>
        <time>2010-01-01T01:56:21Z</time>
      </trkpt>
      <trkpt lat="42.28193" lon="2.25899">
        <ele>1858</ele>
        <time>2010-01-01T01:56:22Z</time>
      </trkpt>
      <trkpt lat="42.28193" lon="2.25897">
        <ele>1858</ele>
        <time>2010-01-01T01:56:22Z</time>
      </trkpt>
      <trkpt lat="42.28193" lon="2.25894">
        <ele>1858</ele>
        <time>2010-01-01T01:56:23Z</time>
      </trkpt>
      <trkpt lat="42.28194" lon="2.25888">
        <ele>1859</ele>
        <time>2010-01-01T01:56:25Z</time>
      </trkpt>
      <trkpt lat="42.28195" lon="2.25885">
        <ele>1860</ele>
        <time>2010-01-01T01:56:26Z</time>
      </trkpt>
      <trkpt lat="42.28195" lon="2.25882">
        <ele>1861</ele>
        <time>2010-01-01T01:56:27Z</time>
      </trkpt>
      <trkpt lat="42.28195" lon="2.25879">
        <ele>1862</ele>
        <time>2010-01-01T01:56:28Z</time>
      </trkpt>
      <trkpt lat="42.28196" lon="2.25876">
        <ele>1863</ele>
        <time>2010-01-01T01:56:29Z</time>
      </trkpt>
      <trkpt lat="42.28198" lon="2.25872">
        <ele>1864</ele>
        <time>2010-01-01T01:56:30Z</time>
      </trkpt>
      <trkpt lat="42.28198" lon="2.2587">
        <ele>1865</ele>
        <time>2010-01-01T01:56:31Z</time>
      </trkpt>
      <trkpt lat="42.28198" lon="2.25867">
        <ele>1865</ele>
        <time>2010-01-01T01:56:32Z</time>
      </trkpt>
      <trkpt lat="42.28198" lon="2.25864">
        <ele>1866</ele>
        <time>2010-01-01T01:56:33Z</time>
      </trkpt>
      <trkpt lat="42.282" lon="2.25862">
        <ele>1867</ele>
        <time>2010-01-01T01:56:34Z</time>
      </trkpt>
      <trkpt lat="42.28201" lon="2.25859">
        <ele>1868</ele>
        <time>2010-01-01T01:56:35Z</time>
      </trkpt>
      <trkpt lat="42.28202" lon="2.25857">
        <ele>1869</ele>
        <time>2010-01-01T01:56:35Z</time>
      </trkpt>
      <trkpt lat="42.28202" lon="2.25854">
        <ele>1870</ele>
        <time>2010-01-01T01:56:36Z</time>
      </trkpt>
      <trkpt lat="42.28203" lon="2.25851">
        <ele>1871</ele>
        <time>2010-01-01T01:56:37Z</time>
      </trkpt>
      <trkpt lat="42.28204" lon="2.25848">
        <ele>1872</ele>
        <time>2010-01-01T01:56:38Z</time>
      </trkpt>
      <trkpt lat="42.28204" lon="2.25845">
        <ele>1872</ele>
        <time>2010-01-01T01:56:39Z</time>
      </trkpt>
      <trkpt lat="42.28205" lon="2.25842">
        <ele>1873</ele>
        <time>2010-01-01T01:56:40Z</time>
      </trkpt>
      <trkpt lat="42.28206" lon="2.2584">
        <ele>1874</ele>
        <time>2010-01-01T01:56:41Z</time>
      </trkpt>
      <trkpt lat="42.28207" lon="2.25837">
        <ele>1875</ele>
        <time>2010-01-01T01:56:42Z</time>
      </trkpt>
      <trkpt lat="42.28208" lon="2.25835">
        <ele>1876</ele>
        <time>2010-01-01T01:56:42Z</time>
      </trkpt>
      <trkpt lat="42.28209" lon="2.25832">
        <ele>1877</ele>
        <time>2010-01-01T01:56:43Z</time>
      </trkpt>
      <trkpt lat="42.2821" lon="2.2583">
        <ele>1877</ele>
        <time>2010-01-01T01:56:44Z</time>
      </trkpt>
      <trkpt lat="42.28211" lon="2.25827">
        <ele>1878</ele>
        <time>2010-01-01T01:56:45Z</time>
      </trkpt>
      <trkpt lat="42.28212" lon="2.25825">
        <ele>1879</ele>
        <time>2010-01-01T01:56:46Z</time>
      </trkpt>
      <trkpt lat="42.28213" lon="2.25822">
        <ele>1880</ele>
        <time>2010-01-01T01:56:47Z</time>
      </trkpt>
      <trkpt lat="42.28214" lon="2.2582">
        <ele>1880</ele>
        <time>2010-01-01T01:56:48Z</time>
      </trkpt>
      <trkpt lat="42.28215" lon="2.25817">
        <ele>1881</ele>
        <time>2010-01-01T01:56:48Z</time>
      </trkpt>
      <trkpt lat="42.28216" lon="2.25814">
        <ele>1881</ele>
        <time>2010-01-01T01:56:49Z</time>
      </trkpt>
      <trkpt lat="42.28217" lon="2.25811">
        <ele>1882</ele>
        <time>2010-01-01T01:56:50Z</time>
      </trkpt>
      <trkpt lat="42.28218" lon="2.25809">
        <ele>1882</ele>
        <time>2010-01-01T01:56:51Z</time>
      </trkpt>
      <trkpt lat="42.28218" lon="2.25806">
        <ele>1883</ele>
        <time>2010-01-01T01:56:52Z</time>
      </trkpt>
      <trkpt lat="42.28219" lon="2.25804">
        <ele>1883</ele>
        <time>2010-01-01T01:56:53Z</time>
      </trkpt>
      <trkpt lat="42.28221" lon="2.25801">
        <ele>1884</ele>
        <time>2010-01-01T01:56:54Z</time>
      </trkpt>
      <trkpt lat="42.28222" lon="2.25799">
        <ele>1884</ele>
        <time>2010-01-01T01:56:54Z</time>
      </trkpt>
      <trkpt lat="42.28223" lon="2.25796">
        <ele>1885</ele>
        <time>2010-01-01T01:56:55Z</time>
      </trkpt>
      <trkpt lat="42.28224" lon="2.25794">
        <ele>1885</ele>
        <time>2010-01-01T01:56:56Z</time>
      </trkpt>
      <trkpt lat="42.28225" lon="2.25792">
        <ele>1886</ele>
        <time>2010-01-01T01:56:57Z</time>
      </trkpt>
      <trkpt lat="42.28226" lon="2.25789">
        <ele>1887</ele>
        <time>2010-01-01T01:56:58Z</time>
      </trkpt>
      <trkpt lat="42.28228" lon="2.25786">
        <ele>1887</ele>
        <time>2010-01-01T01:56:59Z</time>
      </trkpt>
      <trkpt lat="42.28229" lon="2.25784">
        <ele>1888</ele>
        <time>2010-01-01T01:57:00Z</time>
      </trkpt>
      <trkpt lat="42.2823" lon="2.25781">
        <ele>1888</ele>
        <time>2010-01-01T01:57:01Z</time>
      </trkpt>
      <trkpt lat="42.28231" lon="2.25778">
        <ele>1889</ele>
        <time>2010-01-01T01:57:02Z</time>
      </trkpt>
      <trkpt lat="42.28232" lon="2.25775">
        <ele>1889</ele>
        <time>2010-01-01T01:57:03Z</time>
      </trkpt>
      <trkpt lat="42.28233" lon="2.25772">
        <ele>1890</ele>
        <time>2010-01-01T01:57:04Z</time>
      </trkpt>
      <trkpt lat="42.28234" lon="2.25769">
        <ele>1890</ele>
        <time>2010-01-01T01:57:04Z</time>
      </trkpt>
      <trkpt lat="42.28235" lon="2.25767">
        <ele>1891</ele>
        <time>2010-01-01T01:57:05Z</time>
      </trkpt>
      <trkpt lat="42.28236" lon="2.25765">
        <ele>1892</ele>
        <time>2010-01-01T01:57:06Z</time>
      </trkpt>
      <trkpt lat="42.28237" lon="2.25762">
        <ele>1892</ele>
        <time>2010-01-01T01:57:07Z</time>
      </trkpt>
      <trkpt lat="42.28238" lon="2.25759">
        <ele>1892</ele>
        <time>2010-01-01T01:57:08Z</time>
      </trkpt>
      <trkpt lat="42.2824" lon="2.25756">
        <ele>1893</ele>
        <time>2010-01-01T01:57:09Z</time>
      </trkpt>
      <trkpt lat="42.28241" lon="2.25754">
        <ele>1894</ele>
        <time>2010-01-01T01:57:10Z</time>
      </trkpt>
      <trkpt lat="42.28243" lon="2.25753">
        <ele>1894</ele>
        <time>2010-01-01T01:57:11Z</time>
      </trkpt>
      <trkpt lat="42.28244" lon="2.25751">
        <ele>1895</ele>
        <time>2010-01-01T01:57:11Z</time>
      </trkpt>
      <trkpt lat="42.28245" lon="2.25748">
        <ele>1896</ele>
        <time>2010-01-01T01:57:12Z</time>
      </trkpt>
      <trkpt lat="42.28247" lon="2.25746">
        <ele>1896</ele>
        <time>2010-01-01T01:57:13Z</time>
      </trkpt>
      <trkpt lat="42.28249" lon="2.25744">
        <ele>1897</ele>
        <time>2010-01-01T01:57:14Z</time>
      </trkpt>
      <trkpt lat="42.2825" lon="2.25742">
        <ele>1898</ele>
        <time>2010-01-01T01:57:15Z</time>
      </trkpt>
      <trkpt lat="42.28251" lon="2.2574">
        <ele>1899</ele>
        <time>2010-01-01T01:57:16Z</time>
      </trkpt>
      <trkpt lat="42.28253" lon="2.25737">
        <ele>1900</ele>
        <time>2010-01-01T01:57:17Z</time>
      </trkpt>
      <trkpt lat="42.28254" lon="2.25735">
        <ele>1901</ele>
        <time>2010-01-01T01:57:18Z</time>
      </trkpt>
      <trkpt lat="42.28255" lon="2.25731">
        <ele>1902</ele>
        <time>2010-01-01T01:57:19Z</time>
      </trkpt>
      <trkpt lat="42.28256" lon="2.25728">
        <ele>1903</ele>
        <time>2010-01-01T01:57:20Z</time>
      </trkpt>
      <trkpt lat="42.28257" lon="2.25727">
        <ele>1904</ele>
        <time>2010-01-01T01:57:20Z</time>
      </trkpt>
      <trkpt lat="42.28258" lon="2.25725">
        <ele>1905</ele>
        <time>2010-01-01T01:57:21Z</time>
      </trkpt>
      <trkpt lat="42.28259" lon="2.25722">
        <ele>1906</ele>
        <time>2010-01-01T01:57:22Z</time>
      </trkpt>
      <trkpt lat="42.2826" lon="2.25719">
        <ele>1906</ele>
        <time>2010-01-01T01:57:23Z</time>
      </trkpt>
      <trkpt lat="42.28262" lon="2.25716">
        <ele>1907</ele>
        <time>2010-01-01T01:57:24Z</time>
      </trkpt>
      <trkpt lat="42.28263" lon="2.25714">
        <ele>1908</ele>
        <time>2010-01-01T01:57:25Z</time>
      </trkpt>
      <trkpt lat="42.28264" lon="2.25712">
        <ele>1908</ele>
        <time>2010-01-01T01:57:26Z</time>
      </trkpt>
      <trkpt lat="42.28265" lon="2.25709">
        <ele>1909</ele>
        <time>2010-01-01T01:57:27Z</time>
      </trkpt>
      <trkpt lat="42.28266" lon="2.25706">
        <ele>1910</ele>
        <time>2010-01-01T01:57:28Z</time>
      </trkpt>
      <trkpt lat="42.28268" lon="2.25703">
        <ele>1910</ele>
        <time>2010-01-01T01:57:29Z</time>
      </trkpt>
      <trkpt lat="42.28269" lon="2.25701">
        <ele>1911</ele>
        <time>2010-01-01T01:57:30Z</time>
      </trkpt>
      <trkpt lat="42.28271" lon="2.25698">
        <ele>1911</ele>
        <time>2010-01-01T01:57:31Z</time>
      </trkpt>
      <trkpt lat="42.28272" lon="2.25696">
        <ele>1912</ele>
        <time>2010-01-01T01:57:31Z</time>
      </trkpt>
      <trkpt lat="42.28273" lon="2.25693">
        <ele>1912</ele>
        <time>2010-01-01T01:57:32Z</time>
      </trkpt>
      <trkpt lat="42.28274" lon="2.25691">
        <ele>1913</ele>
        <time>2010-01-01T01:57:33Z</time>
      </trkpt>
      <trkpt lat="42.28275" lon="2.25688">
        <ele>1913</ele>
        <time>2010-01-01T01:57:34Z</time>
      </trkpt>
      <trkpt lat="42.28277" lon="2.25686">
        <ele>1914</ele>
        <time>2010-01-01T01:57:35Z</time>
      </trkpt>
      <trkpt lat="42.28279" lon="2.25685">
        <ele>1915</ele>
        <time>2010-01-01T01:57:36Z</time>
      </trkpt>
      <trkpt lat="42.28281" lon="2.25683">
        <ele>1915</ele>
        <time>2010-01-01T01:57:37Z</time>
      </trkpt>
      <trkpt lat="42.28283" lon="2.25682">
        <ele>1916</ele>
        <time>2010-01-01T01:57:38Z</time>
      </trkpt>
      <trkpt lat="42.28284" lon="2.25679">
        <ele>1916</ele>
        <time>2010-01-01T01:57:39Z</time>
      </trkpt>
      <trkpt lat="42.28286" lon="2.25677">
        <ele>1917</ele>
        <time>2010-01-01T01:57:40Z</time>
      </trkpt>
      <trkpt lat="42.28288" lon="2.25674">
        <ele>1917</ele>
        <time>2010-01-01T01:57:41Z</time>
      </trkpt>
      <trkpt lat="42.28289" lon="2.25672">
        <ele>1917</ele>
        <time>2010-01-01T01:57:42Z</time>
      </trkpt>
      <trkpt lat="42.28291" lon="2.25669">
        <ele>1918</ele>
        <time>2010-01-01T01:57:43Z</time>
      </trkpt>
      <trkpt lat="42.28292" lon="2.25667">
        <ele>1918</ele>
        <time>2010-01-01T01:57:44Z</time>
      </trkpt>
      <trkpt lat="42.28294" lon="2.25666">
        <ele>1919</ele>
        <time>2010-01-01T01:57:44Z</time>
      </trkpt>
      <trkpt lat="42.28296" lon="2.25664">
        <ele>1919</ele>
        <time>2010-01-01T01:57:45Z</time>
      </trkpt>
      <trkpt lat="42.28298" lon="2.25663">
        <ele>1920</ele>
        <time>2010-01-01T01:57:46Z</time>
      </trkpt>
      <trkpt lat="42.28299" lon="2.25661">
        <ele>1921</ele>
        <time>2010-01-01T01:57:47Z</time>
      </trkpt>
      <trkpt lat="42.28301" lon="2.25659">
        <ele>1921</ele>
        <time>2010-01-01T01:57:48Z</time>
      </trkpt>
      <trkpt lat="42.28302" lon="2.25657">
        <ele>1922</ele>
        <time>2010-01-01T01:57:49Z</time>
      </trkpt>
      <trkpt lat="42.28303" lon="2.25655">
        <ele>1922</ele>
        <time>2010-01-01T01:57:49Z</time>
      </trkpt>
      <trkpt lat="42.28305" lon="2.25653">
        <ele>1923</ele>
        <time>2010-01-01T01:57:50Z</time>
      </trkpt>
      <trkpt lat="42.28307" lon="2.25651">
        <ele>1924</ele>
        <time>2010-01-01T01:57:51Z</time>
      </trkpt>
      <trkpt lat="42.28308" lon="2.25649">
        <ele>1925</ele>
        <time>2010-01-01T01:57:52Z</time>
      </trkpt>
      <trkpt lat="42.28309" lon="2.25647">
        <ele>1926</ele>
        <time>2010-01-01T01:57:53Z</time>
      </trkpt>
      <trkpt lat="42.2831" lon="2.25645">
        <ele>1926</ele>
        <time>2010-01-01T01:57:53Z</time>
      </trkpt>
      <trkpt lat="42.28311" lon="2.25642">
        <ele>1927</ele>
        <time>2010-01-01T01:57:54Z</time>
      </trkpt>
      <trkpt lat="42.28313" lon="2.2564">
        <ele>1928</ele>
        <time>2010-01-01T01:57:55Z</time>
      </trkpt>
      <trkpt lat="42.28314" lon="2.25637">
        <ele>1929</ele>
        <time>2010-01-01T01:57:56Z</time>
      </trkpt>
      <trkpt lat="42.28316" lon="2.25635">
        <ele>1930</ele>
        <time>2010-01-01T01:57:57Z</time>
      </trkpt>
      <trkpt lat="42.28318" lon="2.25633">
        <ele>1931</ele>
        <time>2010-01-01T01:57:58Z</time>
      </trkpt>
      <trkpt lat="42.2832" lon="2.25631">
        <ele>1933</ele>
        <time>2010-01-01T01:57:59Z</time>
      </trkpt>
      <trkpt lat="42.28322" lon="2.25628">
        <ele>1934</ele>
        <time>2010-01-01T01:58:00Z</time>
      </trkpt>
      <trkpt lat="42.28324" lon="2.25627">
        <ele>1935</ele>
        <time>2010-01-01T01:58:01Z</time>
      </trkpt>
      <trkpt lat="42.28325" lon="2.25625">
        <ele>1936</ele>
        <time>2010-01-01T01:58:02Z</time>
      </trkpt>
      <trkpt lat="42.28327" lon="2.25622">
        <ele>1937</ele>
        <time>2010-01-01T01:58:03Z</time>
      </trkpt>
      <trkpt lat="42.28328" lon="2.2562">
        <ele>1938</ele>
        <time>2010-01-01T01:58:04Z</time>
      </trkpt>
      <trkpt lat="42.28329" lon="2.25618">
        <ele>1939</ele>
        <time>2010-01-01T01:58:05Z</time>
      </trkpt>
      <trkpt lat="42.28331" lon="2.25615">
        <ele>1940</ele>
        <time>2010-01-01T01:58:06Z</time>
      </trkpt>
      <trkpt lat="42.28333" lon="2.25613">
        <ele>1941</ele>
        <time>2010-01-01T01:58:07Z</time>
      </trkpt>
      <trkpt lat="42.28334" lon="2.25611">
        <ele>1942</ele>
        <time>2010-01-01T01:58:07Z</time>
      </trkpt>
      <trkpt lat="42.28336" lon="2.25608">
        <ele>1944</ele>
        <time>2010-01-01T01:58:08Z</time>
      </trkpt>
      <trkpt lat="42.28337" lon="2.25607">
        <ele>1945</ele>
        <time>2010-01-01T01:58:09Z</time>
      </trkpt>
      <trkpt lat="42.28339" lon="2.25605">
        <ele>1946</ele>
        <time>2010-01-01T01:58:10Z</time>
      </trkpt>
      <trkpt lat="42.2834" lon="2.25602">
        <ele>1948</ele>
        <time>2010-01-01T01:58:11Z</time>
      </trkpt>
      <trkpt lat="42.28341" lon="2.256">
        <ele>1949</ele>
        <time>2010-01-01T01:58:12Z</time>
      </trkpt>
      <trkpt lat="42.28343" lon="2.25598">
        <ele>1950</ele>
        <time>2010-01-01T01:58:13Z</time>
      </trkpt>
      <trkpt lat="42.28344" lon="2.25595">
        <ele>1951</ele>
        <time>2010-01-01T01:58:14Z</time>
      </trkpt>
      <trkpt lat="42.28346" lon="2.25593">
        <ele>1953</ele>
        <time>2010-01-01T01:58:15Z</time>
      </trkpt>
      <trkpt lat="42.28347" lon="2.25591">
        <ele>1954</ele>
        <time>2010-01-01T01:58:15Z</time>
      </trkpt>
      <trkpt lat="42.28348" lon="2.25589">
        <ele>1955</ele>
        <time>2010-01-01T01:58:16Z</time>
      </trkpt>
      <trkpt lat="42.2835" lon="2.25587">
        <ele>1956</ele>
        <time>2010-01-01T01:58:17Z</time>
      </trkpt>
      <trkpt lat="42.28352" lon="2.25585">
        <ele>1957</ele>
        <time>2010-01-01T01:58:18Z</time>
      </trkpt>
      <trkpt lat="42.28353" lon="2.25584">
        <ele>1958</ele>
        <time>2010-01-01T01:58:19Z</time>
      </trkpt>
      <trkpt lat="42.28355" lon="2.25582">
        <ele>1959</ele>
        <time>2010-01-01T01:58:19Z</time>
      </trkpt>
      <trkpt lat="42.28356" lon="2.25579">
        <ele>1959</ele>
        <time>2010-01-01T01:58:20Z</time>
      </trkpt>
      <trkpt lat="42.28358" lon="2.25577">
        <ele>1960</ele>
        <time>2010-01-01T01:58:21Z</time>
      </trkpt>
      <trkpt lat="42.28359" lon="2.25576">
        <ele>1961</ele>
        <time>2010-01-01T01:58:22Z</time>
      </trkpt>
      <trkpt lat="42.28361" lon="2.25574">
        <ele>1962</ele>
        <time>2010-01-01T01:58:23Z</time>
      </trkpt>
      <trkpt lat="42.28362" lon="2.25572">
        <ele>1962</ele>
        <time>2010-01-01T01:58:24Z</time>
      </trkpt>
      <trkpt lat="42.28363" lon="2.2557">
        <ele>1963</ele>
        <time>2010-01-01T01:58:24Z</time>
      </trkpt>
      <trkpt lat="42.28365" lon="2.25569">
        <ele>1964</ele>
        <time>2010-01-01T01:58:25Z</time>
      </trkpt>
      <trkpt lat="42.28366" lon="2.25566">
        <ele>1964</ele>
        <time>2010-01-01T01:58:26Z</time>
      </trkpt>
      <trkpt lat="42.28368" lon="2.25564">
        <ele>1965</ele>
        <time>2010-01-01T01:58:27Z</time>
      </trkpt>
      <trkpt lat="42.28369" lon="2.25562">
        <ele>1966</ele>
        <time>2010-01-01T01:58:28Z</time>
      </trkpt>
      <trkpt lat="42.2837" lon="2.25561">
        <ele>1966</ele>
        <time>2010-01-01T01:58:28Z</time>
      </trkpt>
      <trkpt lat="42.28372" lon="2.25558">
        <ele>1967</ele>
        <time>2010-01-01T01:58:29Z</time>
      </trkpt>
      <trkpt lat="42.28373" lon="2.25556">
        <ele>1968</ele>
        <time>2010-01-01T01:58:30Z</time>
      </trkpt>
      <trkpt lat="42.28375" lon="2.25554">
        <ele>1969</ele>
        <time>2010-01-01T01:58:31Z</time>
      </trkpt>
      <trkpt lat="42.28376" lon="2.25552">
        <ele>1969</ele>
        <time>2010-01-01T01:58:32Z</time>
      </trkpt>
      <trkpt lat="42.28377" lon="2.2555">
        <ele>1970</ele>
        <time>2010-01-01T01:58:33Z</time>
      </trkpt>
      <trkpt lat="42.28379" lon="2.25549">
        <ele>1971</ele>
        <time>2010-01-01T01:58:33Z</time>
      </trkpt>
      <trkpt lat="42.2838" lon="2.25546">
        <ele>1971</ele>
        <time>2010-01-01T01:58:34Z</time>
      </trkpt>
      <trkpt lat="42.2838" lon="2.25543">
        <ele>1972</ele>
        <time>2010-01-01T01:58:35Z</time>
      </trkpt>
      <trkpt lat="42.28381" lon="2.2554">
        <ele>1973</ele>
        <time>2010-01-01T01:58:36Z</time>
      </trkpt>
      <trkpt lat="42.28383" lon="2.25538">
        <ele>1974</ele>
        <time>2010-01-01T01:58:37Z</time>
      </trkpt>
      <trkpt lat="42.28384" lon="2.25534">
        <ele>1975</ele>
        <time>2010-01-01T01:58:38Z</time>
      </trkpt>
      <trkpt lat="42.28385" lon="2.25532">
        <ele>1976</ele>
        <time>2010-01-01T01:58:39Z</time>
      </trkpt>
      <trkpt lat="42.28386" lon="2.2553">
        <ele>1977</ele>
        <time>2010-01-01T01:58:40Z</time>
      </trkpt>
      <trkpt lat="42.28388" lon="2.25528">
        <ele>1978</ele>
        <time>2010-01-01T01:58:41Z</time>
      </trkpt>
      <trkpt lat="42.28389" lon="2.25525">
        <ele>1979</ele>
        <time>2010-01-01T01:58:42Z</time>
      </trkpt>
      <trkpt lat="42.2839" lon="2.25523">
        <ele>1980</ele>
        <time>2010-01-01T01:58:43Z</time>
      </trkpt>
      <trkpt lat="42.28392" lon="2.25521">
        <ele>1981</ele>
        <time>2010-01-01T01:58:43Z</time>
      </trkpt>
      <trkpt lat="42.28393" lon="2.25519">
        <ele>1982</ele>
        <time>2010-01-01T01:58:44Z</time>
      </trkpt>
      <trkpt lat="42.28394" lon="2.25517">
        <ele>1983</ele>
        <time>2010-01-01T01:58:45Z</time>
      </trkpt>
      <trkpt lat="42.28395" lon="2.25515">
        <ele>1984</ele>
        <time>2010-01-01T01:58:46Z</time>
      </trkpt>
      <trkpt lat="42.28397" lon="2.25515">
        <ele>1985</ele>
        <time>2010-01-01T01:58:47Z</time>
      </trkpt>
      <trkpt lat="42.28399" lon="2.25514">
        <ele>1986</ele>
        <time>2010-01-01T01:58:47Z</time>
      </trkpt>
      <trkpt lat="42.28401" lon="2.25512">
        <ele>1987</ele>
        <time>2010-01-01T01:58:48Z</time>
      </trkpt>
      <trkpt lat="42.28403" lon="2.25512">
        <ele>1988</ele>
        <time>2010-01-01T01:58:49Z</time>
      </trkpt>
      <trkpt lat="42.28404" lon="2.25509">
        <ele>1989</ele>
        <time>2010-01-01T01:58:50Z</time>
      </trkpt>
      <trkpt lat="42.28404" lon="2.25506">
        <ele>1990</ele>
        <time>2010-01-01T01:58:51Z</time>
      </trkpt>
      <trkpt lat="42.28408" lon="2.25502">
        <ele>1992</ele>
        <time>2010-01-01T01:58:53Z</time>
      </trkpt>
      <trkpt lat="42.28409" lon="2.25499">
        <ele>1993</ele>
        <time>2010-01-01T01:58:54Z</time>
      </trkpt>
      <trkpt lat="42.2841" lon="2.25497">
        <ele>1993</ele>
        <time>2010-01-01T01:58:54Z</time>
      </trkpt>
      <trkpt lat="42.28411" lon="2.25494">
        <ele>1994</ele>
        <time>2010-01-01T01:58:56Z</time>
      </trkpt>
      <trkpt lat="42.28412" lon="2.25491">
        <ele>1994</ele>
        <time>2010-01-01T01:58:56Z</time>
      </trkpt>
      <trkpt lat="42.28416" lon="2.25487">
        <ele>1996</ele>
        <time>2010-01-01T01:58:59Z</time>
      </trkpt>
      <trkpt lat="42.2842" lon="2.25483">
        <ele>1997</ele>
        <time>2010-01-01T01:59:01Z</time>
      </trkpt>
      <trkpt lat="42.28422" lon="2.2548">
        <ele>1997</ele>
        <time>2010-01-01T01:59:02Z</time>
      </trkpt>
      <trkpt lat="42.28423" lon="2.25478">
        <ele>1997</ele>
        <time>2010-01-01T01:59:02Z</time>
      </trkpt>
      <trkpt lat="42.28425" lon="2.25477">
        <ele>1997</ele>
        <time>2010-01-01T01:59:03Z</time>
      </trkpt>
      <trkpt lat="42.28428" lon="2.25476">
        <ele>1998</ele>
        <time>2010-01-01T01:59:04Z</time>
      </trkpt>
      <trkpt lat="42.28431" lon="2.25474">
        <ele>1998</ele>
        <time>2010-01-01T01:59:06Z</time>
      </trkpt>
      <trkpt lat="42.28434" lon="2.25473">
        <ele>1998</ele>
        <time>2010-01-01T01:59:07Z</time>
      </trkpt>
      <trkpt lat="42.28435" lon="2.25472">
        <ele>1998</ele>
        <time>2010-01-01T01:59:08Z</time>
      </trkpt>
      <trkpt lat="42.28439" lon="2.25467">
        <ele>1998</ele>
        <time>2010-01-01T01:59:10Z</time>
      </trkpt>
      <trkpt lat="42.28439" lon="2.25463">
        <ele>1998</ele>
        <time>2010-01-01T01:59:11Z</time>
      </trkpt>
      <trkpt lat="42.28441" lon="2.25461">
        <ele>1998</ele>
        <time>2010-01-01T01:59:12Z</time>
      </trkpt>
      <trkpt lat="42.28441" lon="2.25458">
        <ele>1997</ele>
        <time>2010-01-01T01:59:12Z</time>
      </trkpt>
      <trkpt lat="42.28439" lon="2.25456">
        <ele>1997</ele>
        <time>2010-01-01T01:59:13Z</time>
      </trkpt>
      <trkpt lat="42.28438" lon="2.25451">
        <ele>1997</ele>
        <time>2010-01-01T01:59:15Z</time>
      </trkpt>
      <trkpt lat="42.28438" lon="2.25453">
        <ele>1997</ele>
        <time>2010-01-01T01:59:16Z</time>
      </trkpt>
      <trkpt lat="42.28437" lon="2.25456">
        <ele>1997</ele>
        <time>2010-01-01T01:59:17Z</time>
      </trkpt>
      <trkpt lat="42.28435" lon="2.25449">
        <ele>1996</ele>
        <time>2010-01-01T01:59:19Z</time>
      </trkpt>
      <trkpt lat="42.28439" lon="2.25444">
        <ele>1996</ele>
        <time>2010-01-01T01:59:21Z</time>
      </trkpt>
      <trkpt lat="42.2844" lon="2.25442">
        <ele>1997</ele>
        <time>2010-01-01T01:59:21Z</time>
      </trkpt>
      <trkpt lat="42.28439" lon="2.2544">
        <ele>1997</ele>
        <time>2010-01-01T01:59:22Z</time>
      </trkpt>
      <trkpt lat="42.28438" lon="2.25437">
        <ele>1997</ele>
        <time>2010-01-01T01:59:23Z</time>
      </trkpt>
      <trkpt lat="42.28438" lon="2.25433">
        <ele>1997</ele>
        <time>2010-01-01T01:59:24Z</time>
      </trkpt>
      <trkpt lat="42.28437" lon="2.25431">
        <ele>1997</ele>
        <time>2010-01-01T01:59:25Z</time>
      </trkpt>
      <trkpt lat="42.28436" lon="2.25428">
        <ele>1997</ele>
        <time>2010-01-01T01:59:26Z</time>
      </trkpt>
      <trkpt lat="42.28435" lon="2.25426">
        <ele>1997</ele>
        <time>2010-01-01T01:59:27Z</time>
      </trkpt>
      <trkpt lat="42.28434" lon="2.25424">
        <ele>1998</ele>
        <time>2010-01-01T01:59:28Z</time>
      </trkpt>
      <trkpt lat="42.28433" lon="2.25421">
        <ele>1998</ele>
        <time>2010-01-01T01:59:29Z</time>
      </trkpt>
      <trkpt lat="42.28433" lon="2.25418">
        <ele>1998</ele>
        <time>2010-01-01T01:59:29Z</time>
      </trkpt>
      <trkpt lat="42.28432" lon="2.25415">
        <ele>1998</ele>
        <time>2010-01-01T01:59:30Z</time>
      </trkpt>
      <trkpt lat="42.28432" lon="2.25412">
        <ele>1999</ele>
        <time>2010-01-01T01:59:31Z</time>
      </trkpt>
      <trkpt lat="42.28431" lon="2.25409">
        <ele>1999</ele>
        <time>2010-01-01T01:59:32Z</time>
      </trkpt>
      <trkpt lat="42.2843" lon="2.25406">
        <ele>1999</ele>
        <time>2010-01-01T01:59:33Z</time>
      </trkpt>
      <trkpt lat="42.2843" lon="2.25403">
        <ele>1999</ele>
        <time>2010-01-01T01:59:34Z</time>
      </trkpt>
      <trkpt lat="42.28429" lon="2.254">
        <ele>2000</ele>
        <time>2010-01-01T01:59:35Z</time>
      </trkpt>
      <trkpt lat="42.28429" lon="2.25396">
        <ele>2000</ele>
        <time>2010-01-01T01:59:36Z</time>
      </trkpt>
      <trkpt lat="42.28429" lon="2.25393">
        <ele>2001</ele>
        <time>2010-01-01T01:59:37Z</time>
      </trkpt>
      <trkpt lat="42.28428" lon="2.2539">
        <ele>2001</ele>
        <time>2010-01-01T01:59:38Z</time>
      </trkpt>
      <trkpt lat="42.28427" lon="2.25386">
        <ele>2001</ele>
        <time>2010-01-01T01:59:39Z</time>
      </trkpt>
      <trkpt lat="42.28426" lon="2.25382">
        <ele>2002</ele>
        <time>2010-01-01T01:59:40Z</time>
      </trkpt>
      <trkpt lat="42.28425" lon="2.25378">
        <ele>2002</ele>
        <time>2010-01-01T01:59:42Z</time>
      </trkpt>
      <trkpt lat="42.28425" lon="2.25375">
        <ele>2003</ele>
        <time>2010-01-01T01:59:43Z</time>
      </trkpt>
      <trkpt lat="42.28424" lon="2.25371">
        <ele>2003</ele>
        <time>2010-01-01T01:59:44Z</time>
      </trkpt>
      <trkpt lat="42.28423" lon="2.25367">
        <ele>2004</ele>
        <time>2010-01-01T01:59:45Z</time>
      </trkpt>
      <trkpt lat="42.28422" lon="2.25363">
        <ele>2004</ele>
        <time>2010-01-01T01:59:46Z</time>
      </trkpt>
      <trkpt lat="42.28421" lon="2.2536">
        <ele>2004</ele>
        <time>2010-01-01T01:59:47Z</time>
      </trkpt>
      <trkpt lat="42.2842" lon="2.25356">
        <ele>2005</ele>
        <time>2010-01-01T01:59:48Z</time>
      </trkpt>
      <trkpt lat="42.28419" lon="2.25353">
        <ele>2005</ele>
        <time>2010-01-01T01:59:50Z</time>
      </trkpt>
      <trkpt lat="42.28417" lon="2.2535">
        <ele>2005</ele>
        <time>2010-01-01T01:59:51Z</time>
      </trkpt>
      <trkpt lat="42.28416" lon="2.25347">
        <ele>2005</ele>
        <time>2010-01-01T01:59:52Z</time>
      </trkpt>
      <trkpt lat="42.28414" lon="2.25343">
        <ele>2005</ele>
        <time>2010-01-01T01:59:53Z</time>
      </trkpt>
      <trkpt lat="42.28413" lon="2.2534">
        <ele>2005</ele>
        <time>2010-01-01T01:59:54Z</time>
      </trkpt>
      <trkpt lat="42.28412" lon="2.25337">
        <ele>2005</ele>
        <time>2010-01-01T01:59:55Z</time>
      </trkpt>
      <trkpt lat="42.28411" lon="2.25333">
        <ele>2005</ele>
        <time>2010-01-01T01:59:56Z</time>
      </trkpt>
      <trkpt lat="42.28409" lon="2.2533">
        <ele>2005</ele>
        <time>2010-01-01T01:59:57Z</time>
      </trkpt>
      <trkpt lat="42.28407" lon="2.25327">
        <ele>2005</ele>
        <time>2010-01-01T01:59:58Z</time>
      </trkpt>
      <trkpt lat="42.28406" lon="2.25323">
        <ele>2005</ele>
        <time>2010-01-01T02:00:00Z</time>
      </trkpt>
      <trkpt lat="42.28405" lon="2.2532">
        <ele>2005</ele>
        <time>2010-01-01T02:00:01Z</time>
      </trkpt>
      <trkpt lat="42.28404" lon="2.25316">
        <ele>2005</ele>
        <time>2010-01-01T02:00:02Z</time>
      </trkpt>
      <trkpt lat="42.28404" lon="2.25312">
        <ele>2005</ele>
        <time>2010-01-01T02:00:03Z</time>
      </trkpt>
      <trkpt lat="42.28402" lon="2.25308">
        <ele>2005</ele>
        <time>2010-01-01T02:00:04Z</time>
      </trkpt>
      <trkpt lat="42.28401" lon="2.25305">
        <ele>2005</ele>
        <time>2010-01-01T02:00:06Z</time>
      </trkpt>
      <trkpt lat="42.284" lon="2.25301">
        <ele>2005</ele>
        <time>2010-01-01T02:00:07Z</time>
      </trkpt>
      <trkpt lat="42.284" lon="2.25297">
        <ele>2005</ele>
        <time>2010-01-01T02:00:08Z</time>
      </trkpt>
      <trkpt lat="42.28399" lon="2.25293">
        <ele>2004</ele>
        <time>2010-01-01T02:00:09Z</time>
      </trkpt>
      <trkpt lat="42.28398" lon="2.25289">
        <ele>2004</ele>
        <time>2010-01-01T02:00:10Z</time>
      </trkpt>
      <trkpt lat="42.28398" lon="2.25286">
        <ele>2004</ele>
        <time>2010-01-01T02:00:11Z</time>
      </trkpt>
      <trkpt lat="42.28397" lon="2.25282">
        <ele>2004</ele>
        <time>2010-01-01T02:00:13Z</time>
      </trkpt>
      <trkpt lat="42.28396" lon="2.25279">
        <ele>2004</ele>
        <time>2010-01-01T02:00:14Z</time>
      </trkpt>
      <trkpt lat="42.28396" lon="2.25275">
        <ele>2003</ele>
        <time>2010-01-01T02:00:15Z</time>
      </trkpt>
      <trkpt lat="42.28395" lon="2.25272">
        <ele>2002</ele>
        <time>2010-01-01T02:00:16Z</time>
      </trkpt>
      <trkpt lat="42.28395" lon="2.25265">
        <ele>2001</ele>
        <time>2010-01-01T02:00:18Z</time>
      </trkpt>
      <trkpt lat="42.28395" lon="2.25262">
        <ele>2001</ele>
        <time>2010-01-01T02:00:19Z</time>
      </trkpt>
      <trkpt lat="42.28395" lon="2.25259">
        <ele>2000</ele>
        <time>2010-01-01T02:00:20Z</time>
      </trkpt>
      <trkpt lat="42.28395" lon="2.25255">
        <ele>2000</ele>
        <time>2010-01-01T02:00:21Z</time>
      </trkpt>
      <trkpt lat="42.28395" lon="2.25252">
        <ele>1999</ele>
        <time>2010-01-01T02:00:22Z</time>
      </trkpt>
      <trkpt lat="42.28394" lon="2.25248">
        <ele>1998</ele>
        <time>2010-01-01T02:00:23Z</time>
      </trkpt>
      <trkpt lat="42.28394" lon="2.25244">
        <ele>1998</ele>
        <time>2010-01-01T02:00:24Z</time>
      </trkpt>
      <trkpt lat="42.28394" lon="2.2524">
        <ele>1998</ele>
        <time>2010-01-01T02:00:25Z</time>
      </trkpt>
      <trkpt lat="42.28394" lon="2.25237">
        <ele>1998</ele>
        <time>2010-01-01T02:00:26Z</time>
      </trkpt>
      <trkpt lat="42.28395" lon="2.25234">
        <ele>1998</ele>
        <time>2010-01-01T02:00:27Z</time>
      </trkpt>
      <trkpt lat="42.28395" lon="2.25231">
        <ele>1998</ele>
        <time>2010-01-01T02:00:28Z</time>
      </trkpt>
      <trkpt lat="42.28395" lon="2.25227">
        <ele>1997</ele>
        <time>2010-01-01T02:00:29Z</time>
      </trkpt>
      <trkpt lat="42.28395" lon="2.25223">
        <ele>1997</ele>
        <time>2010-01-01T02:00:30Z</time>
      </trkpt>
      <trkpt lat="42.28395" lon="2.25219">
        <ele>1997</ele>
        <time>2010-01-01T02:00:31Z</time>
      </trkpt>
      <trkpt lat="42.28394" lon="2.25215">
        <ele>1996</ele>
        <time>2010-01-01T02:00:33Z</time>
      </trkpt>
      <trkpt lat="42.28394" lon="2.25211">
        <ele>1995</ele>
        <time>2010-01-01T02:00:34Z</time>
      </trkpt>
      <trkpt lat="42.28394" lon="2.25207">
        <ele>1995</ele>
        <time>2010-01-01T02:00:35Z</time>
      </trkpt>
      <trkpt lat="42.28394" lon="2.25203">
        <ele>1994</ele>
        <time>2010-01-01T02:00:36Z</time>
      </trkpt>
      <trkpt lat="42.28393" lon="2.25199">
        <ele>1994</ele>
        <time>2010-01-01T02:00:37Z</time>
      </trkpt>
      <trkpt lat="42.28392" lon="2.25195">
        <ele>1993</ele>
        <time>2010-01-01T02:00:39Z</time>
      </trkpt>
      <trkpt lat="42.28392" lon="2.25192">
        <ele>1993</ele>
        <time>2010-01-01T02:00:40Z</time>
      </trkpt>
      <trkpt lat="42.28392" lon="2.2519">
        <ele>1993</ele>
        <time>2010-01-01T02:00:40Z</time>
      </trkpt>
      <trkpt lat="42.28393" lon="2.25187">
        <ele>1993</ele>
        <time>2010-01-01T02:00:41Z</time>
      </trkpt>
      <trkpt lat="42.28394" lon="2.25184">
        <ele>1993</ele>
        <time>2010-01-01T02:00:42Z</time>
      </trkpt>
      <trkpt lat="42.28394" lon="2.2518">
        <ele>1993</ele>
        <time>2010-01-01T02:00:43Z</time>
      </trkpt>
      <trkpt lat="42.28395" lon="2.25177">
        <ele>1993</ele>
        <time>2010-01-01T02:00:44Z</time>
      </trkpt>
      <trkpt lat="42.28395" lon="2.25173">
        <ele>1993</ele>
        <time>2010-01-01T02:00:45Z</time>
      </trkpt>
      <trkpt lat="42.28396" lon="2.25169">
        <ele>1993</ele>
        <time>2010-01-01T02:00:47Z</time>
      </trkpt>
      <trkpt lat="42.28396" lon="2.25165">
        <ele>1993</ele>
        <time>2010-01-01T02:00:48Z</time>
      </trkpt>
      <trkpt lat="42.28396" lon="2.25161">
        <ele>1993</ele>
        <time>2010-01-01T02:00:49Z</time>
      </trkpt>
      <trkpt lat="42.28395" lon="2.25157">
        <ele>1992</ele>
        <time>2010-01-01T02:00:50Z</time>
      </trkpt>
      <trkpt lat="42.28395" lon="2.25152">
        <ele>1992</ele>
        <time>2010-01-01T02:00:52Z</time>
      </trkpt>
      <trkpt lat="42.28395" lon="2.25148">
        <ele>1992</ele>
        <time>2010-01-01T02:00:53Z</time>
      </trkpt>
      <trkpt lat="42.28395" lon="2.25144">
        <ele>1991</ele>
        <time>2010-01-01T02:00:54Z</time>
      </trkpt>
      <trkpt lat="42.28394" lon="2.2514">
        <ele>1991</ele>
        <time>2010-01-01T02:00:55Z</time>
      </trkpt>
      <trkpt lat="42.28393" lon="2.25136">
        <ele>1991</ele>
        <time>2010-01-01T02:00:57Z</time>
      </trkpt>
      <trkpt lat="42.28392" lon="2.25132">
        <ele>1990</ele>
        <time>2010-01-01T02:00:58Z</time>
      </trkpt>
      <trkpt lat="42.28392" lon="2.25128">
        <ele>1990</ele>
        <time>2010-01-01T02:00:59Z</time>
      </trkpt>
      <trkpt lat="42.28392" lon="2.25125">
        <ele>1989</ele>
        <time>2010-01-01T02:01:00Z</time>
      </trkpt>
      <trkpt lat="42.28391" lon="2.25121">
        <ele>1989</ele>
        <time>2010-01-01T02:01:01Z</time>
      </trkpt>
      <trkpt lat="42.2839" lon="2.25117">
        <ele>1988</ele>
        <time>2010-01-01T02:01:02Z</time>
      </trkpt>
      <trkpt lat="42.2839" lon="2.25113">
        <ele>1988</ele>
        <time>2010-01-01T02:01:04Z</time>
      </trkpt>
      <trkpt lat="42.28389" lon="2.25108">
        <ele>1987</ele>
        <time>2010-01-01T02:01:05Z</time>
      </trkpt>
      <trkpt lat="42.28388" lon="2.25104">
        <ele>1986</ele>
        <time>2010-01-01T02:01:06Z</time>
      </trkpt>
      <trkpt lat="42.28388" lon="2.25099">
        <ele>1985</ele>
        <time>2010-01-01T02:01:08Z</time>
      </trkpt>
      <trkpt lat="42.28387" lon="2.2509">
        <ele>1984</ele>
        <time>2010-01-01T02:01:10Z</time>
      </trkpt>
      <trkpt lat="42.28386" lon="2.25086">
        <ele>1983</ele>
        <time>2010-01-01T02:01:12Z</time>
      </trkpt>
      <trkpt lat="42.28386" lon="2.25082">
        <ele>1983</ele>
        <time>2010-01-01T02:01:13Z</time>
      </trkpt>
      <trkpt lat="42.28386" lon="2.25078">
        <ele>1983</ele>
        <time>2010-01-01T02:01:14Z</time>
      </trkpt>
      <trkpt lat="42.28386" lon="2.25075">
        <ele>1983</ele>
        <time>2010-01-01T02:01:15Z</time>
      </trkpt>
      <trkpt lat="42.28385" lon="2.2506">
        <ele>1983</ele>
        <time>2010-01-01T02:01:19Z</time>
      </trkpt>
      <trkpt lat="42.28384" lon="2.25056">
        <ele>1983</ele>
        <time>2010-01-01T02:01:20Z</time>
      </trkpt>
      <trkpt lat="42.28383" lon="2.25053">
        <ele>1982</ele>
        <time>2010-01-01T02:01:22Z</time>
      </trkpt>
      <trkpt lat="42.28382" lon="2.2505">
        <ele>1981</ele>
        <time>2010-01-01T02:01:23Z</time>
      </trkpt>
      <trkpt lat="42.28381" lon="2.25047">
        <ele>1980</ele>
        <time>2010-01-01T02:01:24Z</time>
      </trkpt>
      <trkpt lat="42.2838" lon="2.25044">
        <ele>1979</ele>
        <time>2010-01-01T02:01:25Z</time>
      </trkpt>
      <trkpt lat="42.28379" lon="2.2504">
        <ele>1978</ele>
        <time>2010-01-01T02:01:26Z</time>
      </trkpt>
      <trkpt lat="42.28378" lon="2.25036">
        <ele>1978</ele>
        <time>2010-01-01T02:01:27Z</time>
      </trkpt>
      <trkpt lat="42.28378" lon="2.25033">
        <ele>1977</ele>
        <time>2010-01-01T02:01:28Z</time>
      </trkpt>
      <trkpt lat="42.28377" lon="2.25029">
        <ele>1976</ele>
        <time>2010-01-01T02:01:29Z</time>
      </trkpt>
      <trkpt lat="42.28377" lon="2.25026">
        <ele>1975</ele>
        <time>2010-01-01T02:01:30Z</time>
      </trkpt>
      <trkpt lat="42.28377" lon="2.25018">
        <ele>1973</ele>
        <time>2010-01-01T02:01:32Z</time>
      </trkpt>
      <trkpt lat="42.28378" lon="2.25014">
        <ele>1972</ele>
        <time>2010-01-01T02:01:34Z</time>
      </trkpt>
      <trkpt lat="42.28378" lon="2.25011">
        <ele>1971</ele>
        <time>2010-01-01T02:01:35Z</time>
      </trkpt>
      <trkpt lat="42.28378" lon="2.25007">
        <ele>1970</ele>
        <time>2010-01-01T02:01:36Z</time>
      </trkpt>
      <trkpt lat="42.28378" lon="2.25004">
        <ele>1969</ele>
        <time>2010-01-01T02:01:37Z</time>
      </trkpt>
      <trkpt lat="42.28377" lon="2.25001">
        <ele>1968</ele>
        <time>2010-01-01T02:01:38Z</time>
      </trkpt>
      <trkpt lat="42.28377" lon="2.24998">
        <ele>1968</ele>
        <time>2010-01-01T02:01:38Z</time>
      </trkpt>
      <trkpt lat="42.28376" lon="2.24995">
        <ele>1967</ele>
        <time>2010-01-01T02:01:39Z</time>
      </trkpt>
      <trkpt lat="42.28376" lon="2.24992">
        <ele>1967</ele>
        <time>2010-01-01T02:01:40Z</time>
      </trkpt>
      <trkpt lat="42.28376" lon="2.24988">
        <ele>1967</ele>
        <time>2010-01-01T02:01:41Z</time>
      </trkpt>
      <trkpt lat="42.28376" lon="2.24986">
        <ele>1966</ele>
        <time>2010-01-01T02:01:42Z</time>
      </trkpt>
      <trkpt lat="42.28376" lon="2.24983">
        <ele>1966</ele>
        <time>2010-01-01T02:01:43Z</time>
      </trkpt>
      <trkpt lat="42.28377" lon="2.24981">
        <ele>1966</ele>
        <time>2010-01-01T02:01:44Z</time>
      </trkpt>
      <trkpt lat="42.28377" lon="2.24978">
        <ele>1965</ele>
        <time>2010-01-01T02:01:45Z</time>
      </trkpt>
      <trkpt lat="42.28378" lon="2.24975">
        <ele>1965</ele>
        <time>2010-01-01T02:01:45Z</time>
      </trkpt>
      <trkpt lat="42.28378" lon="2.24972">
        <ele>1964</ele>
        <time>2010-01-01T02:01:46Z</time>
      </trkpt>
      <trkpt lat="42.28378" lon="2.2497">
        <ele>1964</ele>
        <time>2010-01-01T02:01:47Z</time>
      </trkpt>
      <trkpt lat="42.28378" lon="2.24967">
        <ele>1965</ele>
        <time>2010-01-01T02:01:48Z</time>
      </trkpt>
      <trkpt lat="42.28378" lon="2.24964">
        <ele>1965</ele>
        <time>2010-01-01T02:01:49Z</time>
      </trkpt>
      <trkpt lat="42.28377" lon="2.24961">
        <ele>1965</ele>
        <time>2010-01-01T02:01:50Z</time>
      </trkpt>
      <trkpt lat="42.28378" lon="2.24959">
        <ele>1965</ele>
        <time>2010-01-01T02:01:50Z</time>
      </trkpt>
      <trkpt lat="42.28378" lon="2.24955">
        <ele>1966</ele>
        <time>2010-01-01T02:01:51Z</time>
      </trkpt>
      <trkpt lat="42.28377" lon="2.24952">
        <ele>1966</ele>
        <time>2010-01-01T02:01:52Z</time>
      </trkpt>
      <trkpt lat="42.28377" lon="2.24949">
        <ele>1966</ele>
        <time>2010-01-01T02:01:53Z</time>
      </trkpt>
      <trkpt lat="42.28376" lon="2.24945">
        <ele>1966</ele>
        <time>2010-01-01T02:01:54Z</time>
      </trkpt>
      <trkpt lat="42.28376" lon="2.24942">
        <ele>1967</ele>
        <time>2010-01-01T02:01:56Z</time>
      </trkpt>
      <trkpt lat="42.28376" lon="2.24938">
        <ele>1967</ele>
        <time>2010-01-01T02:01:57Z</time>
      </trkpt>
      <trkpt lat="42.28376" lon="2.24935">
        <ele>1967</ele>
        <time>2010-01-01T02:01:58Z</time>
      </trkpt>
      <trkpt lat="42.28376" lon="2.24931">
        <ele>1968</ele>
        <time>2010-01-01T02:01:59Z</time>
      </trkpt>
      <trkpt lat="42.28377" lon="2.24928">
        <ele>1968</ele>
        <time>2010-01-01T02:02:00Z</time>
      </trkpt>
      <trkpt lat="42.28377" lon="2.24924">
        <ele>1968</ele>
        <time>2010-01-01T02:02:01Z</time>
      </trkpt>
      <trkpt lat="42.28377" lon="2.24917">
        <ele>1969</ele>
        <time>2010-01-01T02:02:03Z</time>
      </trkpt>
      <trkpt lat="42.28377" lon="2.24913">
        <ele>1969</ele>
        <time>2010-01-01T02:02:04Z</time>
      </trkpt>
      <trkpt lat="42.28377" lon="2.24909">
        <ele>1969</ele>
        <time>2010-01-01T02:02:05Z</time>
      </trkpt>
      <trkpt lat="42.28376" lon="2.24906">
        <ele>1969</ele>
        <time>2010-01-01T02:02:06Z</time>
      </trkpt>
      <trkpt lat="42.28376" lon="2.24902">
        <ele>1969</ele>
        <time>2010-01-01T02:02:07Z</time>
      </trkpt>
      <trkpt lat="42.28376" lon="2.24898">
        <ele>1970</ele>
        <time>2010-01-01T02:02:09Z</time>
      </trkpt>
      <trkpt lat="42.28377" lon="2.24894">
        <ele>1970</ele>
        <time>2010-01-01T02:02:10Z</time>
      </trkpt>
      <trkpt lat="42.28378" lon="2.2489">
        <ele>1970</ele>
        <time>2010-01-01T02:02:11Z</time>
      </trkpt>
      <trkpt lat="42.28378" lon="2.24886">
        <ele>1970</ele>
        <time>2010-01-01T02:02:12Z</time>
      </trkpt>
      <trkpt lat="42.28377" lon="2.24882">
        <ele>1970</ele>
        <time>2010-01-01T02:02:13Z</time>
      </trkpt>
      <trkpt lat="42.28377" lon="2.24879">
        <ele>1969</ele>
        <time>2010-01-01T02:02:14Z</time>
      </trkpt>
      <trkpt lat="42.28377" lon="2.24876">
        <ele>1969</ele>
        <time>2010-01-01T02:02:15Z</time>
      </trkpt>
      <trkpt lat="42.28377" lon="2.24872">
        <ele>1969</ele>
        <time>2010-01-01T02:02:16Z</time>
      </trkpt>
      <trkpt lat="42.28376" lon="2.24869">
        <ele>1968</ele>
        <time>2010-01-01T02:02:17Z</time>
      </trkpt>
      <trkpt lat="42.28376" lon="2.24865">
        <ele>1968</ele>
        <time>2010-01-01T02:02:19Z</time>
      </trkpt>
      <trkpt lat="42.28376" lon="2.24861">
        <ele>1967</ele>
        <time>2010-01-01T02:02:20Z</time>
      </trkpt>
      <trkpt lat="42.28376" lon="2.24857">
        <ele>1966</ele>
        <time>2010-01-01T02:02:21Z</time>
      </trkpt>
      <trkpt lat="42.28376" lon="2.24853">
        <ele>1966</ele>
        <time>2010-01-01T02:02:22Z</time>
      </trkpt>
      <trkpt lat="42.28376" lon="2.24849">
        <ele>1965</ele>
        <time>2010-01-01T02:02:23Z</time>
      </trkpt>
      <trkpt lat="42.28377" lon="2.24845">
        <ele>1964</ele>
        <time>2010-01-01T02:02:25Z</time>
      </trkpt>
      <trkpt lat="42.28377" lon="2.24834">
        <ele>1962</ele>
        <time>2010-01-01T02:02:28Z</time>
      </trkpt>
      <trkpt lat="42.28378" lon="2.24825">
        <ele>1961</ele>
        <time>2010-01-01T02:02:31Z</time>
      </trkpt>
      <trkpt lat="42.28378" lon="2.24822">
        <ele>1961</ele>
        <time>2010-01-01T02:02:31Z</time>
      </trkpt>
      <trkpt lat="42.28378" lon="2.24819">
        <ele>1961</ele>
        <time>2010-01-01T02:02:32Z</time>
      </trkpt>
      <trkpt lat="42.28378" lon="2.24816">
        <ele>1961</ele>
        <time>2010-01-01T02:02:33Z</time>
      </trkpt>
      <trkpt lat="42.28377" lon="2.24813">
        <ele>1961</ele>
        <time>2010-01-01T02:02:34Z</time>
      </trkpt>
      <trkpt lat="42.28376" lon="2.24809">
        <ele>1960</ele>
        <time>2010-01-01T02:02:35Z</time>
      </trkpt>
      <trkpt lat="42.28377" lon="2.24806">
        <ele>1960</ele>
        <time>2010-01-01T02:02:36Z</time>
      </trkpt>
      <trkpt lat="42.28377" lon="2.24803">
        <ele>1960</ele>
        <time>2010-01-01T02:02:37Z</time>
      </trkpt>
      <trkpt lat="42.28377" lon="2.248">
        <ele>1960</ele>
        <time>2010-01-01T02:02:38Z</time>
      </trkpt>
      <trkpt lat="42.28377" lon="2.24798">
        <ele>1960</ele>
        <time>2010-01-01T02:02:39Z</time>
      </trkpt>
      <trkpt lat="42.28378" lon="2.24795">
        <ele>1960</ele>
        <time>2010-01-01T02:02:40Z</time>
      </trkpt>
      <trkpt lat="42.28378" lon="2.24792">
        <ele>1960</ele>
        <time>2010-01-01T02:02:41Z</time>
      </trkpt>
      <trkpt lat="42.28378" lon="2.24789">
        <ele>1960</ele>
        <time>2010-01-01T02:02:41Z</time>
      </trkpt>
      <trkpt lat="42.28377" lon="2.24786">
        <ele>1959</ele>
        <time>2010-01-01T02:02:42Z</time>
      </trkpt>
      <trkpt lat="42.28376" lon="2.24784">
        <ele>1959</ele>
        <time>2010-01-01T02:02:43Z</time>
      </trkpt>
      <trkpt lat="42.28377" lon="2.24776">
        <ele>1959</ele>
        <time>2010-01-01T02:02:45Z</time>
      </trkpt>
      <trkpt lat="42.28377" lon="2.24773">
        <ele>1958</ele>
        <time>2010-01-01T02:02:46Z</time>
      </trkpt>
      <trkpt lat="42.28378" lon="2.24769">
        <ele>1958</ele>
        <time>2010-01-01T02:02:47Z</time>
      </trkpt>
      <trkpt lat="42.28378" lon="2.24766">
        <ele>1957</ele>
        <time>2010-01-01T02:02:48Z</time>
      </trkpt>
      <trkpt lat="42.28377" lon="2.24763">
        <ele>1957</ele>
        <time>2010-01-01T02:02:49Z</time>
      </trkpt>
      <trkpt lat="42.28377" lon="2.24759">
        <ele>1956</ele>
        <time>2010-01-01T02:02:50Z</time>
      </trkpt>
      <trkpt lat="42.28377" lon="2.24756">
        <ele>1955</ele>
        <time>2010-01-01T02:02:52Z</time>
      </trkpt>
      <trkpt lat="42.28378" lon="2.24753">
        <ele>1955</ele>
        <time>2010-01-01T02:02:52Z</time>
      </trkpt>
      <trkpt lat="42.28379" lon="2.24749">
        <ele>1954</ele>
        <time>2010-01-01T02:02:53Z</time>
      </trkpt>
      <trkpt lat="42.2838" lon="2.24746">
        <ele>1954</ele>
        <time>2010-01-01T02:02:54Z</time>
      </trkpt>
      <trkpt lat="42.2838" lon="2.24743">
        <ele>1955</ele>
        <time>2010-01-01T02:02:55Z</time>
      </trkpt>
      <trkpt lat="42.28381" lon="2.24741">
        <ele>1955</ele>
        <time>2010-01-01T02:02:56Z</time>
      </trkpt>
      <trkpt lat="42.28382" lon="2.24738">
        <ele>1955</ele>
        <time>2010-01-01T02:02:57Z</time>
      </trkpt>
      <trkpt lat="42.28382" lon="2.24735">
        <ele>1955</ele>
        <time>2010-01-01T02:02:58Z</time>
      </trkpt>
      <trkpt lat="42.28382" lon="2.24728">
        <ele>1955</ele>
        <time>2010-01-01T02:03:00Z</time>
      </trkpt>
      <trkpt lat="42.28382" lon="2.24725">
        <ele>1955</ele>
        <time>2010-01-01T02:03:01Z</time>
      </trkpt>
      <trkpt lat="42.28381" lon="2.24723">
        <ele>1955</ele>
        <time>2010-01-01T02:03:02Z</time>
      </trkpt>
      <trkpt lat="42.2838" lon="2.2472">
        <ele>1954</ele>
        <time>2010-01-01T02:03:03Z</time>
      </trkpt>
      <trkpt lat="42.2838" lon="2.24717">
        <ele>1954</ele>
        <time>2010-01-01T02:03:04Z</time>
      </trkpt>
      <trkpt lat="42.28379" lon="2.24714">
        <ele>1953</ele>
        <time>2010-01-01T02:03:04Z</time>
      </trkpt>
      <trkpt lat="42.2838" lon="2.24711">
        <ele>1953</ele>
        <time>2010-01-01T02:03:05Z</time>
      </trkpt>
      <trkpt lat="42.2838" lon="2.24709">
        <ele>1952</ele>
        <time>2010-01-01T02:03:06Z</time>
      </trkpt>
      <trkpt lat="42.28379" lon="2.24705">
        <ele>1951</ele>
        <time>2010-01-01T02:03:07Z</time>
      </trkpt>
      <trkpt lat="42.28378" lon="2.24703">
        <ele>1951</ele>
        <time>2010-01-01T02:03:08Z</time>
      </trkpt>
      <trkpt lat="42.28376" lon="2.24704">
        <ele>1951</ele>
        <time>2010-01-01T02:03:09Z</time>
      </trkpt>
      <trkpt lat="42.28375" lon="2.24702">
        <ele>1951</ele>
        <time>2010-01-01T02:03:10Z</time>
      </trkpt>
      <trkpt lat="42.28375" lon="2.247">
        <ele>1950</ele>
        <time>2010-01-01T02:03:10Z</time>
      </trkpt>
      <trkpt lat="42.28375" lon="2.24697">
        <ele>1950</ele>
        <time>2010-01-01T02:03:11Z</time>
      </trkpt>
      <trkpt lat="42.28375" lon="2.24694">
        <ele>1950</ele>
        <time>2010-01-01T02:03:12Z</time>
      </trkpt>
      <trkpt lat="42.28376" lon="2.2469">
        <ele>1950</ele>
        <time>2010-01-01T02:03:13Z</time>
      </trkpt>
      <trkpt lat="42.28377" lon="2.24687">
        <ele>1950</ele>
        <time>2010-01-01T02:03:14Z</time>
      </trkpt>
      <trkpt lat="42.28377" lon="2.24684">
        <ele>1950</ele>
        <time>2010-01-01T02:03:15Z</time>
      </trkpt>
      <trkpt lat="42.28376" lon="2.2468">
        <ele>1950</ele>
        <time>2010-01-01T02:03:16Z</time>
      </trkpt>
      <trkpt lat="42.28375" lon="2.24676">
        <ele>1950</ele>
        <time>2010-01-01T02:03:18Z</time>
      </trkpt>
      <trkpt lat="42.28373" lon="2.24675">
        <ele>1950</ele>
        <time>2010-01-01T02:03:19Z</time>
      </trkpt>
      <trkpt lat="42.28372" lon="2.24673">
        <ele>1950</ele>
        <time>2010-01-01T02:03:19Z</time>
      </trkpt>
      <trkpt lat="42.28371" lon="2.24671">
        <ele>1950</ele>
        <time>2010-01-01T02:03:20Z</time>
      </trkpt>
      <trkpt lat="42.2837" lon="2.24668">
        <ele>1950</ele>
        <time>2010-01-01T02:03:21Z</time>
      </trkpt>
      <trkpt lat="42.28369" lon="2.24665">
        <ele>1950</ele>
        <time>2010-01-01T02:03:22Z</time>
      </trkpt>
      <trkpt lat="42.28369" lon="2.24663">
        <ele>1949</ele>
        <time>2010-01-01T02:03:23Z</time>
      </trkpt>
      <trkpt lat="42.28367" lon="2.2466">
        <ele>1949</ele>
        <time>2010-01-01T02:03:24Z</time>
      </trkpt>
      <trkpt lat="42.28365" lon="2.24657">
        <ele>1948</ele>
        <time>2010-01-01T02:03:25Z</time>
      </trkpt>
      <trkpt lat="42.28365" lon="2.24654">
        <ele>1948</ele>
        <time>2010-01-01T02:03:26Z</time>
      </trkpt>
      <trkpt lat="42.28364" lon="2.2465">
        <ele>1948</ele>
        <time>2010-01-01T02:03:27Z</time>
      </trkpt>
      <trkpt lat="42.28365" lon="2.24646">
        <ele>1947</ele>
        <time>2010-01-01T02:03:28Z</time>
      </trkpt>
      <trkpt lat="42.28365" lon="2.24643">
        <ele>1947</ele>
        <time>2010-01-01T02:03:29Z</time>
      </trkpt>
      <trkpt lat="42.28365" lon="2.24635">
        <ele>1946</ele>
        <time>2010-01-01T02:03:32Z</time>
      </trkpt>
      <trkpt lat="42.28364" lon="2.24632">
        <ele>1945</ele>
        <time>2010-01-01T02:03:33Z</time>
      </trkpt>
      <trkpt lat="42.28363" lon="2.24628">
        <ele>1944</ele>
        <time>2010-01-01T02:03:34Z</time>
      </trkpt>
      <trkpt lat="42.28363" lon="2.24624">
        <ele>1943</ele>
        <time>2010-01-01T02:03:35Z</time>
      </trkpt>
      <trkpt lat="42.28363" lon="2.2462">
        <ele>1942</ele>
        <time>2010-01-01T02:03:36Z</time>
      </trkpt>
      <trkpt lat="42.28364" lon="2.24616">
        <ele>1941</ele>
        <time>2010-01-01T02:03:38Z</time>
      </trkpt>
      <trkpt lat="42.28365" lon="2.24613">
        <ele>1940</ele>
        <time>2010-01-01T02:03:39Z</time>
      </trkpt>
      <trkpt lat="42.28366" lon="2.2461">
        <ele>1939</ele>
        <time>2010-01-01T02:03:40Z</time>
      </trkpt>
      <trkpt lat="42.28366" lon="2.24607">
        <ele>1938</ele>
        <time>2010-01-01T02:03:40Z</time>
      </trkpt>
      <trkpt lat="42.28364" lon="2.24606">
        <ele>1939</ele>
        <time>2010-01-01T02:03:42Z</time>
      </trkpt>
      <trkpt lat="42.28362" lon="2.24605">
        <ele>1940</ele>
        <time>2010-01-01T02:03:42Z</time>
      </trkpt>
      <trkpt lat="42.2836" lon="2.24603">
        <ele>1940</ele>
        <time>2010-01-01T02:03:43Z</time>
      </trkpt>
      <trkpt lat="42.28359" lon="2.24601">
        <ele>1940</ele>
        <time>2010-01-01T02:03:44Z</time>
      </trkpt>
      <trkpt lat="42.28357" lon="2.24599">
        <ele>1939</ele>
        <time>2010-01-01T02:03:45Z</time>
      </trkpt>
      <trkpt lat="42.28356" lon="2.24596">
        <ele>1939</ele>
        <time>2010-01-01T02:03:46Z</time>
      </trkpt>
      <trkpt lat="42.28355" lon="2.24594">
        <ele>1939</ele>
        <time>2010-01-01T02:03:47Z</time>
      </trkpt>
      <trkpt lat="42.28355" lon="2.24591">
        <ele>1939</ele>
        <time>2010-01-01T02:03:47Z</time>
      </trkpt>
      <trkpt lat="42.28355" lon="2.24589">
        <ele>1939</ele>
        <time>2010-01-01T02:03:48Z</time>
      </trkpt>
      <trkpt lat="42.28355" lon="2.24586">
        <ele>1939</ele>
        <time>2010-01-01T02:03:49Z</time>
      </trkpt>
      <trkpt lat="42.28355" lon="2.24583">
        <ele>1939</ele>
        <time>2010-01-01T02:03:50Z</time>
      </trkpt>
      <trkpt lat="42.28354" lon="2.24581">
        <ele>1938</ele>
        <time>2010-01-01T02:03:51Z</time>
      </trkpt>
      <trkpt lat="42.28354" lon="2.24578">
        <ele>1938</ele>
        <time>2010-01-01T02:03:51Z</time>
      </trkpt>
      <trkpt lat="42.28354" lon="2.24575">
        <ele>1937</ele>
        <time>2010-01-01T02:03:52Z</time>
      </trkpt>
      <trkpt lat="42.28354" lon="2.24571">
        <ele>1937</ele>
        <time>2010-01-01T02:03:54Z</time>
      </trkpt>
      <trkpt lat="42.28353" lon="2.24568">
        <ele>1936</ele>
        <time>2010-01-01T02:03:54Z</time>
      </trkpt>
      <trkpt lat="42.28352" lon="2.24565">
        <ele>1935</ele>
        <time>2010-01-01T02:03:55Z</time>
      </trkpt>
      <trkpt lat="42.28351" lon="2.24562">
        <ele>1935</ele>
        <time>2010-01-01T02:03:56Z</time>
      </trkpt>
      <trkpt lat="42.28351" lon="2.24559">
        <ele>1934</ele>
        <time>2010-01-01T02:03:57Z</time>
      </trkpt>
      <trkpt lat="42.2835" lon="2.24556">
        <ele>1933</ele>
        <time>2010-01-01T02:03:58Z</time>
      </trkpt>
      <trkpt lat="42.28349" lon="2.24553">
        <ele>1933</ele>
        <time>2010-01-01T02:03:59Z</time>
      </trkpt>
      <trkpt lat="42.28349" lon="2.2455">
        <ele>1932</ele>
        <time>2010-01-01T02:04:00Z</time>
      </trkpt>
      <trkpt lat="42.28348" lon="2.24547">
        <ele>1931</ele>
        <time>2010-01-01T02:04:01Z</time>
      </trkpt>
      <trkpt lat="42.28348" lon="2.24544">
        <ele>1931</ele>
        <time>2010-01-01T02:04:02Z</time>
      </trkpt>
      <trkpt lat="42.2835" lon="2.24542">
        <ele>1931</ele>
        <time>2010-01-01T02:04:03Z</time>
      </trkpt>
      <trkpt lat="42.28351" lon="2.24541">
        <ele>1931</ele>
        <time>2010-01-01T02:04:03Z</time>
      </trkpt>
      <trkpt lat="42.2835" lon="2.24538">
        <ele>1930</ele>
        <time>2010-01-01T02:04:04Z</time>
      </trkpt>
      <trkpt lat="42.28351" lon="2.24535">
        <ele>1930</ele>
        <time>2010-01-01T02:04:05Z</time>
      </trkpt>
      <trkpt lat="42.28352" lon="2.24532">
        <ele>1929</ele>
        <time>2010-01-01T02:04:06Z</time>
      </trkpt>
      <trkpt lat="42.28352" lon="2.2453">
        <ele>1929</ele>
        <time>2010-01-01T02:04:07Z</time>
      </trkpt>
      <trkpt lat="42.28353" lon="2.24527">
        <ele>1929</ele>
        <time>2010-01-01T02:04:08Z</time>
      </trkpt>
      <trkpt lat="42.28355" lon="2.24528">
        <ele>1929</ele>
        <time>2010-01-01T02:04:09Z</time>
      </trkpt>
      <trkpt lat="42.28354" lon="2.24525">
        <ele>1929</ele>
        <time>2010-01-01T02:04:09Z</time>
      </trkpt>
      <trkpt lat="42.28353" lon="2.24522">
        <ele>1928</ele>
        <time>2010-01-01T02:04:10Z</time>
      </trkpt>
      <trkpt lat="42.28352" lon="2.2452">
        <ele>1928</ele>
        <time>2010-01-01T02:04:11Z</time>
      </trkpt>
      <trkpt lat="42.28351" lon="2.24518">
        <ele>1927</ele>
        <time>2010-01-01T02:04:12Z</time>
      </trkpt>
      <trkpt lat="42.2835" lon="2.24515">
        <ele>1927</ele>
        <time>2010-01-01T02:04:13Z</time>
      </trkpt>
      <trkpt lat="42.2835" lon="2.24512">
        <ele>1926</ele>
        <time>2010-01-01T02:04:14Z</time>
      </trkpt>
      <trkpt lat="42.28351" lon="2.2451">
        <ele>1926</ele>
        <time>2010-01-01T02:04:15Z</time>
      </trkpt>
      <trkpt lat="42.28351" lon="2.24507">
        <ele>1926</ele>
        <time>2010-01-01T02:04:15Z</time>
      </trkpt>
      <trkpt lat="42.28353" lon="2.24505">
        <ele>1926</ele>
        <time>2010-01-01T02:04:16Z</time>
      </trkpt>
      <trkpt lat="42.28354" lon="2.24503">
        <ele>1925</ele>
        <time>2010-01-01T02:04:17Z</time>
      </trkpt>
      <trkpt lat="42.28356" lon="2.245">
        <ele>1925</ele>
        <time>2010-01-01T02:04:18Z</time>
      </trkpt>
      <trkpt lat="42.28358" lon="2.245">
        <ele>1925</ele>
        <time>2010-01-01T02:04:19Z</time>
      </trkpt>
      <trkpt lat="42.2836" lon="2.245">
        <ele>1925</ele>
        <time>2010-01-01T02:04:20Z</time>
      </trkpt>
      <trkpt lat="42.28362" lon="2.24501">
        <ele>1926</ele>
        <time>2010-01-01T02:04:20Z</time>
      </trkpt>
      <trkpt lat="42.28364" lon="2.24501">
        <ele>1925</ele>
        <time>2010-01-01T02:04:21Z</time>
      </trkpt>
      <trkpt lat="42.2837" lon="2.24501">
        <ele>1923</ele>
        <time>2010-01-01T02:04:24Z</time>
      </trkpt>
      <trkpt lat="42.28372" lon="2.24503">
        <ele>1923</ele>
        <time>2010-01-01T02:04:25Z</time>
      </trkpt>
      <trkpt lat="42.28376" lon="2.24498">
        <ele>1921</ele>
        <time>2010-01-01T02:04:27Z</time>
      </trkpt>
      <trkpt lat="42.28378" lon="2.24496">
        <ele>1920</ele>
        <time>2010-01-01T02:04:28Z</time>
      </trkpt>
      <trkpt lat="42.28379" lon="2.24495">
        <ele>1919</ele>
        <time>2010-01-01T02:04:29Z</time>
      </trkpt>
      <trkpt lat="42.28382" lon="2.24493">
        <ele>1918</ele>
        <time>2010-01-01T02:04:30Z</time>
      </trkpt>
      <trkpt lat="42.28384" lon="2.24493">
        <ele>1918</ele>
        <time>2010-01-01T02:04:30Z</time>
      </trkpt>
      <trkpt lat="42.28386" lon="2.24495">
        <ele>1917</ele>
        <time>2010-01-01T02:04:31Z</time>
      </trkpt>
      <trkpt lat="42.28388" lon="2.24496">
        <ele>1917</ele>
        <time>2010-01-01T02:04:32Z</time>
      </trkpt>
      <trkpt lat="42.2839" lon="2.24498">
        <ele>1917</ele>
        <time>2010-01-01T02:04:33Z</time>
      </trkpt>
      <trkpt lat="42.28393" lon="2.245">
        <ele>1916</ele>
        <time>2010-01-01T02:04:35Z</time>
      </trkpt>
      <trkpt lat="42.28395" lon="2.24501">
        <ele>1914</ele>
        <time>2010-01-01T02:04:35Z</time>
      </trkpt>
      <trkpt lat="42.28397" lon="2.24501">
        <ele>1913</ele>
        <time>2010-01-01T02:04:36Z</time>
      </trkpt>
      <trkpt lat="42.28402" lon="2.245">
        <ele>1909</ele>
        <time>2010-01-01T02:04:38Z</time>
      </trkpt>
      <trkpt lat="42.28404" lon="2.24499">
        <ele>1907</ele>
        <time>2010-01-01T02:04:39Z</time>
      </trkpt>
      <trkpt lat="42.28406" lon="2.24497">
        <ele>1905</ele>
        <time>2010-01-01T02:04:40Z</time>
      </trkpt>
      <trkpt lat="42.28407" lon="2.24495">
        <ele>1903</ele>
        <time>2010-01-01T02:04:41Z</time>
      </trkpt>
      <trkpt lat="42.28408" lon="2.24492">
        <ele>1902</ele>
        <time>2010-01-01T02:04:42Z</time>
      </trkpt>
      <trkpt lat="42.2841" lon="2.2449">
        <ele>1900</ele>
        <time>2010-01-01T02:04:43Z</time>
      </trkpt>
      <trkpt lat="42.28413" lon="2.24489">
        <ele>1898</ele>
        <time>2010-01-01T02:04:44Z</time>
      </trkpt>
      <trkpt lat="42.28415" lon="2.24487">
        <ele>1896</ele>
        <time>2010-01-01T02:04:45Z</time>
      </trkpt>
      <trkpt lat="42.28416" lon="2.24484">
        <ele>1895</ele>
        <time>2010-01-01T02:04:46Z</time>
      </trkpt>
      <trkpt lat="42.28416" lon="2.24482">
        <ele>1894</ele>
        <time>2010-01-01T02:04:47Z</time>
      </trkpt>
      <trkpt lat="42.28418" lon="2.2448">
        <ele>1892</ele>
        <time>2010-01-01T02:04:47Z</time>
      </trkpt>
      <trkpt lat="42.2842" lon="2.24478">
        <ele>1891</ele>
        <time>2010-01-01T02:04:48Z</time>
      </trkpt>
      <trkpt lat="42.28422" lon="2.24476">
        <ele>1889</ele>
        <time>2010-01-01T02:04:49Z</time>
      </trkpt>
      <trkpt lat="42.28424" lon="2.24475">
        <ele>1887</ele>
        <time>2010-01-01T02:04:50Z</time>
      </trkpt>
      <trkpt lat="42.28425" lon="2.24477">
        <ele>1887</ele>
        <time>2010-01-01T02:04:51Z</time>
      </trkpt>
      <trkpt lat="42.28427" lon="2.24476">
        <ele>1885</ele>
        <time>2010-01-01T02:04:52Z</time>
      </trkpt>
      <trkpt lat="42.28429" lon="2.24473">
        <ele>1884</ele>
        <time>2010-01-01T02:04:53Z</time>
      </trkpt>
      <trkpt lat="42.2843" lon="2.24471">
        <ele>1883</ele>
        <time>2010-01-01T02:04:54Z</time>
      </trkpt>
      <trkpt lat="42.28433" lon="2.24472">
        <ele>1881</ele>
        <time>2010-01-01T02:04:55Z</time>
      </trkpt>
      <trkpt lat="42.28435" lon="2.2447">
        <ele>1879</ele>
        <time>2010-01-01T02:04:56Z</time>
      </trkpt>
      <trkpt lat="42.28436" lon="2.24466">
        <ele>1879</ele>
        <time>2010-01-01T02:04:57Z</time>
      </trkpt>
      <trkpt lat="42.28437" lon="2.24464">
        <ele>1878</ele>
        <time>2010-01-01T02:04:58Z</time>
      </trkpt>
      <trkpt lat="42.28438" lon="2.24462">
        <ele>1877</ele>
        <time>2010-01-01T02:04:59Z</time>
      </trkpt>
      <trkpt lat="42.2844" lon="2.24459">
        <ele>1876</ele>
        <time>2010-01-01T02:05:00Z</time>
      </trkpt>
      <trkpt lat="42.28441" lon="2.24458">
        <ele>1875</ele>
        <time>2010-01-01T02:05:01Z</time>
      </trkpt>
      <trkpt lat="42.28443" lon="2.24459">
        <ele>1874</ele>
        <time>2010-01-01T02:05:02Z</time>
      </trkpt>
      <trkpt lat="42.28446" lon="2.2446">
        <ele>1872</ele>
        <time>2010-01-01T02:05:03Z</time>
      </trkpt>
      <trkpt lat="42.28448" lon="2.24458">
        <ele>1871</ele>
        <time>2010-01-01T02:05:04Z</time>
      </trkpt>
      <trkpt lat="42.2845" lon="2.24456">
        <ele>1869</ele>
        <time>2010-01-01T02:05:05Z</time>
      </trkpt>
      <trkpt lat="42.28452" lon="2.24457">
        <ele>1868</ele>
        <time>2010-01-01T02:05:05Z</time>
      </trkpt>
      <trkpt lat="42.28454" lon="2.24456">
        <ele>1866</ele>
        <time>2010-01-01T02:05:06Z</time>
      </trkpt>
      <trkpt lat="42.28455" lon="2.24458">
        <ele>1865</ele>
        <time>2010-01-01T02:05:07Z</time>
      </trkpt>
      <trkpt lat="42.28457" lon="2.2446">
        <ele>1864</ele>
        <time>2010-01-01T02:05:08Z</time>
      </trkpt>
      <trkpt lat="42.2846" lon="2.24456">
        <ele>1862</ele>
        <time>2010-01-01T02:05:10Z</time>
      </trkpt>
      <trkpt lat="42.28463" lon="2.24456">
        <ele>1860</ele>
        <time>2010-01-01T02:05:11Z</time>
      </trkpt>
      <trkpt lat="42.28465" lon="2.24459">
        <ele>1858</ele>
        <time>2010-01-01T02:05:13Z</time>
      </trkpt>
      <trkpt lat="42.28468" lon="2.24458">
        <ele>1856</ele>
        <time>2010-01-01T02:05:14Z</time>
      </trkpt>
      <trkpt lat="42.2847" lon="2.24455">
        <ele>1855</ele>
        <time>2010-01-01T02:05:15Z</time>
      </trkpt>
      <trkpt lat="42.28472" lon="2.24454">
        <ele>1853</ele>
        <time>2010-01-01T02:05:15Z</time>
      </trkpt>
      <trkpt lat="42.28474" lon="2.24451">
        <ele>1852</ele>
        <time>2010-01-01T02:05:17Z</time>
      </trkpt>
      <trkpt lat="42.28475" lon="2.2445">
        <ele>1850</ele>
        <time>2010-01-01T02:05:17Z</time>
      </trkpt>
      <trkpt lat="42.28478" lon="2.24448">
        <ele>1848</ele>
        <time>2010-01-01T02:05:18Z</time>
      </trkpt>
      <trkpt lat="42.2848" lon="2.24448">
        <ele>1846</ele>
        <time>2010-01-01T02:05:19Z</time>
      </trkpt>
      <trkpt lat="42.28482" lon="2.2445">
        <ele>1845</ele>
        <time>2010-01-01T02:05:20Z</time>
      </trkpt>
      <trkpt lat="42.28484" lon="2.2445">
        <ele>1843</ele>
        <time>2010-01-01T02:05:21Z</time>
      </trkpt>
      <trkpt lat="42.28486" lon="2.24449">
        <ele>1842</ele>
        <time>2010-01-01T02:05:22Z</time>
      </trkpt>
      <trkpt lat="42.28488" lon="2.24447">
        <ele>1840</ele>
        <time>2010-01-01T02:05:23Z</time>
      </trkpt>
      <trkpt lat="42.2849" lon="2.24446">
        <ele>1839</ele>
        <time>2010-01-01T02:05:24Z</time>
      </trkpt>
      <trkpt lat="42.28491" lon="2.24443">
        <ele>1838</ele>
        <time>2010-01-01T02:05:25Z</time>
      </trkpt>
      <trkpt lat="42.28493" lon="2.24442">
        <ele>1836</ele>
        <time>2010-01-01T02:05:25Z</time>
      </trkpt>
      <trkpt lat="42.28495" lon="2.24444">
        <ele>1834</ele>
        <time>2010-01-01T02:05:27Z</time>
      </trkpt>
      <trkpt lat="42.28497" lon="2.24445">
        <ele>1833</ele>
        <time>2010-01-01T02:05:27Z</time>
      </trkpt>
      <trkpt lat="42.28499" lon="2.24447">
        <ele>1832</ele>
        <time>2010-01-01T02:05:28Z</time>
      </trkpt>
      <trkpt lat="42.285" lon="2.2445">
        <ele>1831</ele>
        <time>2010-01-01T02:05:29Z</time>
      </trkpt>
      <trkpt lat="42.28501" lon="2.24452">
        <ele>1831</ele>
        <time>2010-01-01T02:05:30Z</time>
      </trkpt>
      <trkpt lat="42.28503" lon="2.24454">
        <ele>1830</ele>
        <time>2010-01-01T02:05:31Z</time>
      </trkpt>
      <trkpt lat="42.28504" lon="2.24457">
        <ele>1830</ele>
        <time>2010-01-01T02:05:32Z</time>
      </trkpt>
      <trkpt lat="42.28506" lon="2.24457">
        <ele>1829</ele>
        <time>2010-01-01T02:05:33Z</time>
      </trkpt>
      <trkpt lat="42.28508" lon="2.24459">
        <ele>1828</ele>
        <time>2010-01-01T02:05:34Z</time>
      </trkpt>
      <trkpt lat="42.2851" lon="2.24462">
        <ele>1828</ele>
        <time>2010-01-01T02:05:35Z</time>
      </trkpt>
      <trkpt lat="42.28511" lon="2.24465">
        <ele>1827</ele>
        <time>2010-01-01T02:05:36Z</time>
      </trkpt>
      <trkpt lat="42.28514" lon="2.24466">
        <ele>1826</ele>
        <time>2010-01-01T02:05:37Z</time>
      </trkpt>
      <trkpt lat="42.28516" lon="2.24467">
        <ele>1825</ele>
        <time>2010-01-01T02:05:38Z</time>
      </trkpt>
      <trkpt lat="42.28518" lon="2.24469">
        <ele>1824</ele>
        <time>2010-01-01T02:05:39Z</time>
      </trkpt>
      <trkpt lat="42.28519" lon="2.24471">
        <ele>1823</ele>
        <time>2010-01-01T02:05:40Z</time>
      </trkpt>
      <trkpt lat="42.28521" lon="2.24474">
        <ele>1822</ele>
        <time>2010-01-01T02:05:41Z</time>
      </trkpt>
      <trkpt lat="42.28523" lon="2.24474">
        <ele>1821</ele>
        <time>2010-01-01T02:05:42Z</time>
      </trkpt>
      <trkpt lat="42.28525" lon="2.24475">
        <ele>1820</ele>
        <time>2010-01-01T02:05:43Z</time>
      </trkpt>
      <trkpt lat="42.28528" lon="2.24477">
        <ele>1818</ele>
        <time>2010-01-01T02:05:44Z</time>
      </trkpt>
      <trkpt lat="42.2853" lon="2.24477">
        <ele>1817</ele>
        <time>2010-01-01T02:05:45Z</time>
      </trkpt>
      <trkpt lat="42.28532" lon="2.24477">
        <ele>1816</ele>
        <time>2010-01-01T02:05:45Z</time>
      </trkpt>
      <trkpt lat="42.28534" lon="2.24476">
        <ele>1815</ele>
        <time>2010-01-01T02:05:46Z</time>
      </trkpt>
      <trkpt lat="42.28536" lon="2.24475">
        <ele>1814</ele>
        <time>2010-01-01T02:05:47Z</time>
      </trkpt>
      <trkpt lat="42.28538" lon="2.24475">
        <ele>1812</ele>
        <time>2010-01-01T02:05:48Z</time>
      </trkpt>
      <trkpt lat="42.2854" lon="2.24475">
        <ele>1811</ele>
        <time>2010-01-01T02:05:49Z</time>
      </trkpt>
      <trkpt lat="42.28542" lon="2.24474">
        <ele>1810</ele>
        <time>2010-01-01T02:05:50Z</time>
      </trkpt>
      <trkpt lat="42.28544" lon="2.24472">
        <ele>1809</ele>
        <time>2010-01-01T02:05:51Z</time>
      </trkpt>
      <trkpt lat="42.28545" lon="2.24469">
        <ele>1808</ele>
        <time>2010-01-01T02:05:52Z</time>
      </trkpt>
      <trkpt lat="42.28547" lon="2.24467">
        <ele>1807</ele>
        <time>2010-01-01T02:05:53Z</time>
      </trkpt>
      <trkpt lat="42.28549" lon="2.24464">
        <ele>1805</ele>
        <time>2010-01-01T02:05:54Z</time>
      </trkpt>
      <trkpt lat="42.28552" lon="2.24461">
        <ele>1803</ele>
        <time>2010-01-01T02:05:55Z</time>
      </trkpt>
      <trkpt lat="42.28555" lon="2.24459">
        <ele>1802</ele>
        <time>2010-01-01T02:05:56Z</time>
      </trkpt>
      <trkpt lat="42.28557" lon="2.24457">
        <ele>1800</ele>
        <time>2010-01-01T02:05:58Z</time>
      </trkpt>
      <trkpt lat="42.28559" lon="2.24455">
        <ele>1798</ele>
        <time>2010-01-01T02:05:59Z</time>
      </trkpt>
      <trkpt lat="42.28562" lon="2.24452">
        <ele>1797</ele>
        <time>2010-01-01T02:06:00Z</time>
      </trkpt>
      <trkpt lat="42.28563" lon="2.2445">
        <ele>1796</ele>
        <time>2010-01-01T02:06:01Z</time>
      </trkpt>
      <trkpt lat="42.28564" lon="2.24448">
        <ele>1795</ele>
        <time>2010-01-01T02:06:02Z</time>
      </trkpt>
      <trkpt lat="42.28564" lon="2.24451">
        <ele>1795</ele>
        <time>2010-01-01T02:06:02Z</time>
      </trkpt>
      <trkpt lat="42.28564" lon="2.24455">
        <ele>1795</ele>
        <time>2010-01-01T02:06:03Z</time>
      </trkpt>
      <trkpt lat="42.28563" lon="2.24458">
        <ele>1796</ele>
        <time>2010-01-01T02:06:05Z</time>
      </trkpt>
      <trkpt lat="42.28564" lon="2.24466">
        <ele>1796</ele>
        <time>2010-01-01T02:06:07Z</time>
      </trkpt>
      <trkpt lat="42.28565" lon="2.2447">
        <ele>1796</ele>
        <time>2010-01-01T02:06:08Z</time>
      </trkpt>
      <trkpt lat="42.28565" lon="2.24473">
        <ele>1796</ele>
        <time>2010-01-01T02:06:09Z</time>
      </trkpt>
      <trkpt lat="42.28567" lon="2.24477">
        <ele>1795</ele>
        <time>2010-01-01T02:06:10Z</time>
      </trkpt>
      <trkpt lat="42.28568" lon="2.24481">
        <ele>1795</ele>
        <time>2010-01-01T02:06:11Z</time>
      </trkpt>
      <trkpt lat="42.28569" lon="2.24484">
        <ele>1795</ele>
        <time>2010-01-01T02:06:13Z</time>
      </trkpt>
      <trkpt lat="42.2857" lon="2.24488">
        <ele>1795</ele>
        <time>2010-01-01T02:06:14Z</time>
      </trkpt>
      <trkpt lat="42.28571" lon="2.24491">
        <ele>1795</ele>
        <time>2010-01-01T02:06:15Z</time>
      </trkpt>
      <trkpt lat="42.28573" lon="2.24494">
        <ele>1794</ele>
        <time>2010-01-01T02:06:16Z</time>
      </trkpt>
      <trkpt lat="42.28575" lon="2.24496">
        <ele>1793</ele>
        <time>2010-01-01T02:06:17Z</time>
      </trkpt>
      <trkpt lat="42.28576" lon="2.24499">
        <ele>1793</ele>
        <time>2010-01-01T02:06:18Z</time>
      </trkpt>
      <trkpt lat="42.28578" lon="2.24501">
        <ele>1793</ele>
        <time>2010-01-01T02:06:19Z</time>
      </trkpt>
      <trkpt lat="42.28579" lon="2.24503">
        <ele>1792</ele>
        <time>2010-01-01T02:06:20Z</time>
      </trkpt>
      <trkpt lat="42.28581" lon="2.24506">
        <ele>1791</ele>
        <time>2010-01-01T02:06:21Z</time>
      </trkpt>
      <trkpt lat="42.28583" lon="2.24507">
        <ele>1791</ele>
        <time>2010-01-01T02:06:22Z</time>
      </trkpt>
      <trkpt lat="42.28585" lon="2.24507">
        <ele>1789</ele>
        <time>2010-01-01T02:06:23Z</time>
      </trkpt>
      <trkpt lat="42.28587" lon="2.24509">
        <ele>1789</ele>
        <time>2010-01-01T02:06:23Z</time>
      </trkpt>
      <trkpt lat="42.28589" lon="2.24508">
        <ele>1787</ele>
        <time>2010-01-01T02:06:24Z</time>
      </trkpt>
      <trkpt lat="42.2859" lon="2.24507">
        <ele>1786</ele>
        <time>2010-01-01T02:06:25Z</time>
      </trkpt>
      <trkpt lat="42.28592" lon="2.24507">
        <ele>1785</ele>
        <time>2010-01-01T02:06:26Z</time>
      </trkpt>
      <trkpt lat="42.28593" lon="2.24504">
        <ele>1784</ele>
        <time>2010-01-01T02:06:27Z</time>
      </trkpt>
      <trkpt lat="42.28593" lon="2.24501">
        <ele>1784</ele>
        <time>2010-01-01T02:06:28Z</time>
      </trkpt>
      <trkpt lat="42.28595" lon="2.245">
        <ele>1783</ele>
        <time>2010-01-01T02:06:28Z</time>
      </trkpt>
      <trkpt lat="42.28597" lon="2.245">
        <ele>1782</ele>
        <time>2010-01-01T02:06:29Z</time>
      </trkpt>
      <trkpt lat="42.28599" lon="2.245">
        <ele>1781</ele>
        <time>2010-01-01T02:06:30Z</time>
      </trkpt>
      <trkpt lat="42.28605" lon="2.24496">
        <ele>1777</ele>
        <time>2010-01-01T02:06:33Z</time>
      </trkpt>
      <trkpt lat="42.28608" lon="2.24492">
        <ele>1773</ele>
        <time>2010-01-01T02:06:35Z</time>
      </trkpt>
      <trkpt lat="42.28611" lon="2.24491">
        <ele>1771</ele>
        <time>2010-01-01T02:06:36Z</time>
      </trkpt>
      <trkpt lat="42.28614" lon="2.24493">
        <ele>1769</ele>
        <time>2010-01-01T02:06:37Z</time>
      </trkpt>
      <trkpt lat="42.28615" lon="2.24496">
        <ele>1770</ele>
        <time>2010-01-01T02:06:38Z</time>
      </trkpt>
      <trkpt lat="42.28616" lon="2.245">
        <ele>1770</ele>
        <time>2010-01-01T02:06:39Z</time>
      </trkpt>
      <trkpt lat="42.28616" lon="2.24503">
        <ele>1770</ele>
        <time>2010-01-01T02:06:40Z</time>
      </trkpt>
      <trkpt lat="42.28617" lon="2.24505">
        <ele>1769</ele>
        <time>2010-01-01T02:06:41Z</time>
      </trkpt>
      <trkpt lat="42.28618" lon="2.24508">
        <ele>1769</ele>
        <time>2010-01-01T02:06:42Z</time>
      </trkpt>
      <trkpt lat="42.2862" lon="2.24509">
        <ele>1768</ele>
        <time>2010-01-01T02:06:43Z</time>
      </trkpt>
      <trkpt lat="42.28624" lon="2.24505">
        <ele>1765</ele>
        <time>2010-01-01T02:06:45Z</time>
      </trkpt>
      <trkpt lat="42.28624" lon="2.24502">
        <ele>1764</ele>
        <time>2010-01-01T02:06:45Z</time>
      </trkpt>
      <trkpt lat="42.28625" lon="2.24499">
        <ele>1763</ele>
        <time>2010-01-01T02:06:46Z</time>
      </trkpt>
      <trkpt lat="42.28625" lon="2.24497">
        <ele>1762</ele>
        <time>2010-01-01T02:06:47Z</time>
      </trkpt>
      <trkpt lat="42.28629" lon="2.24495">
        <ele>1759</ele>
        <time>2010-01-01T02:06:49Z</time>
      </trkpt>
      <trkpt lat="42.28632" lon="2.24492">
        <ele>1756</ele>
        <time>2010-01-01T02:06:50Z</time>
      </trkpt>
      <trkpt lat="42.28632" lon="2.24489">
        <ele>1755</ele>
        <time>2010-01-01T02:06:51Z</time>
      </trkpt>
      <trkpt lat="42.28634" lon="2.24488">
        <ele>1754</ele>
        <time>2010-01-01T02:06:52Z</time>
      </trkpt>
      <trkpt lat="42.28636" lon="2.24486">
        <ele>1752</ele>
        <time>2010-01-01T02:06:53Z</time>
      </trkpt>
      <trkpt lat="42.28638" lon="2.24485">
        <ele>1750</ele>
        <time>2010-01-01T02:06:54Z</time>
      </trkpt>
      <trkpt lat="42.2864" lon="2.24482">
        <ele>1748</ele>
        <time>2010-01-01T02:06:55Z</time>
      </trkpt>
      <trkpt lat="42.28642" lon="2.24481">
        <ele>1747</ele>
        <time>2010-01-01T02:06:56Z</time>
      </trkpt>
      <trkpt lat="42.28643" lon="2.2448">
        <ele>1745</ele>
        <time>2010-01-01T02:06:56Z</time>
      </trkpt>
      <trkpt lat="42.28646" lon="2.24478">
        <ele>1744</ele>
        <time>2010-01-01T02:06:57Z</time>
      </trkpt>
      <trkpt lat="42.28648" lon="2.24476">
        <ele>1742</ele>
        <time>2010-01-01T02:06:59Z</time>
      </trkpt>
      <trkpt lat="42.2865" lon="2.24474">
        <ele>1741</ele>
        <time>2010-01-01T02:06:59Z</time>
      </trkpt>
      <trkpt lat="42.28651" lon="2.24472">
        <ele>1739</ele>
        <time>2010-01-01T02:07:00Z</time>
      </trkpt>
      <trkpt lat="42.28652" lon="2.2447">
        <ele>1738</ele>
        <time>2010-01-01T02:07:01Z</time>
      </trkpt>
      <trkpt lat="42.28653" lon="2.24468">
        <ele>1737</ele>
        <time>2010-01-01T02:07:02Z</time>
      </trkpt>
      <trkpt lat="42.28656" lon="2.24467">
        <ele>1736</ele>
        <time>2010-01-01T02:07:03Z</time>
      </trkpt>
      <trkpt lat="42.28658" lon="2.24467">
        <ele>1734</ele>
        <time>2010-01-01T02:07:04Z</time>
      </trkpt>
      <trkpt lat="42.28661" lon="2.24467">
        <ele>1733</ele>
        <time>2010-01-01T02:07:05Z</time>
      </trkpt>
      <trkpt lat="42.28663" lon="2.24465">
        <ele>1731</ele>
        <time>2010-01-01T02:07:06Z</time>
      </trkpt>
      <trkpt lat="42.28665" lon="2.24464">
        <ele>1729</ele>
        <time>2010-01-01T02:07:07Z</time>
      </trkpt>
      <trkpt lat="42.28667" lon="2.24463">
        <ele>1728</ele>
        <time>2010-01-01T02:07:08Z</time>
      </trkpt>
      <trkpt lat="42.28668" lon="2.2446">
        <ele>1727</ele>
        <time>2010-01-01T02:07:09Z</time>
      </trkpt>
      <trkpt lat="42.28669" lon="2.24458">
        <ele>1726</ele>
        <time>2010-01-01T02:07:09Z</time>
      </trkpt>
      <trkpt lat="42.28671" lon="2.24455">
        <ele>1724</ele>
        <time>2010-01-01T02:07:11Z</time>
      </trkpt>
      <trkpt lat="42.28674" lon="2.24454">
        <ele>1723</ele>
        <time>2010-01-01T02:07:12Z</time>
      </trkpt>
      <trkpt lat="42.28676" lon="2.24452">
        <ele>1722</ele>
        <time>2010-01-01T02:07:13Z</time>
      </trkpt>
      <trkpt lat="42.28679" lon="2.2445">
        <ele>1721</ele>
        <time>2010-01-01T02:07:14Z</time>
      </trkpt>
      <trkpt lat="42.28681" lon="2.24447">
        <ele>1719</ele>
        <time>2010-01-01T02:07:15Z</time>
      </trkpt>
      <trkpt lat="42.28683" lon="2.24444">
        <ele>1718</ele>
        <time>2010-01-01T02:07:16Z</time>
      </trkpt>
      <trkpt lat="42.28684" lon="2.2444">
        <ele>1716</ele>
        <time>2010-01-01T02:07:18Z</time>
      </trkpt>
      <trkpt lat="42.28686" lon="2.24437">
        <ele>1715</ele>
        <time>2010-01-01T02:07:19Z</time>
      </trkpt>
      <trkpt lat="42.28688" lon="2.24433">
        <ele>1713</ele>
        <time>2010-01-01T02:07:20Z</time>
      </trkpt>
      <trkpt lat="42.2869" lon="2.24431">
        <ele>1712</ele>
        <time>2010-01-01T02:07:21Z</time>
      </trkpt>
      <trkpt lat="42.28693" lon="2.2443">
        <ele>1710</ele>
        <time>2010-01-01T02:07:22Z</time>
      </trkpt>
      <trkpt lat="42.28695" lon="2.24428">
        <ele>1709</ele>
        <time>2010-01-01T02:07:24Z</time>
      </trkpt>
      <trkpt lat="42.28701" lon="2.24423">
        <ele>1705</ele>
        <time>2010-01-01T02:07:26Z</time>
      </trkpt>
      <trkpt lat="42.28706" lon="2.24421">
        <ele>1702</ele>
        <time>2010-01-01T02:07:29Z</time>
      </trkpt>
      <trkpt lat="42.28708" lon="2.24419">
        <ele>1700</ele>
        <time>2010-01-01T02:07:30Z</time>
      </trkpt>
      <trkpt lat="42.28711" lon="2.24418">
        <ele>1699</ele>
        <time>2010-01-01T02:07:31Z</time>
      </trkpt>
      <trkpt lat="42.28713" lon="2.2442">
        <ele>1698</ele>
        <time>2010-01-01T02:07:32Z</time>
      </trkpt>
      <trkpt lat="42.28716" lon="2.24422">
        <ele>1698</ele>
        <time>2010-01-01T02:07:33Z</time>
      </trkpt>
      <trkpt lat="42.28719" lon="2.24422">
        <ele>1697</ele>
        <time>2010-01-01T02:07:34Z</time>
      </trkpt>
      <trkpt lat="42.28721" lon="2.24421">
        <ele>1695</ele>
        <time>2010-01-01T02:07:35Z</time>
      </trkpt>
      <trkpt lat="42.28723" lon="2.24418">
        <ele>1694</ele>
        <time>2010-01-01T02:07:36Z</time>
      </trkpt>
      <trkpt lat="42.28725" lon="2.24419">
        <ele>1693</ele>
        <time>2010-01-01T02:07:37Z</time>
      </trkpt>
      <trkpt lat="42.28727" lon="2.2442">
        <ele>1692</ele>
        <time>2010-01-01T02:07:38Z</time>
      </trkpt>
      <trkpt lat="42.28729" lon="2.2442">
        <ele>1692</ele>
        <time>2010-01-01T02:07:39Z</time>
      </trkpt>
      <trkpt lat="42.28732" lon="2.24421">
        <ele>1691</ele>
        <time>2010-01-01T02:07:40Z</time>
      </trkpt>
      <trkpt lat="42.28734" lon="2.24419">
        <ele>1690</ele>
        <time>2010-01-01T02:07:41Z</time>
      </trkpt>
      <trkpt lat="42.28734" lon="2.24417">
        <ele>1689</ele>
        <time>2010-01-01T02:07:42Z</time>
      </trkpt>
      <trkpt lat="42.28736" lon="2.24414">
        <ele>1688</ele>
        <time>2010-01-01T02:07:43Z</time>
      </trkpt>
      <trkpt lat="42.28739" lon="2.24413">
        <ele>1687</ele>
        <time>2010-01-01T02:07:44Z</time>
      </trkpt>
      <trkpt lat="42.2874" lon="2.24411">
        <ele>1686</ele>
        <time>2010-01-01T02:07:45Z</time>
      </trkpt>
      <trkpt lat="42.28741" lon="2.24408">
        <ele>1685</ele>
        <time>2010-01-01T02:07:45Z</time>
      </trkpt>
      <trkpt lat="42.28743" lon="2.24407">
        <ele>1684</ele>
        <time>2010-01-01T02:07:46Z</time>
      </trkpt>
      <trkpt lat="42.28744" lon="2.24405">
        <ele>1684</ele>
        <time>2010-01-01T02:07:47Z</time>
      </trkpt>
      <trkpt lat="42.28746" lon="2.24404">
        <ele>1683</ele>
        <time>2010-01-01T02:07:48Z</time>
      </trkpt>
      <trkpt lat="42.28748" lon="2.24403">
        <ele>1682</ele>
        <time>2010-01-01T02:07:49Z</time>
      </trkpt>
      <trkpt lat="42.28751" lon="2.24402">
        <ele>1681</ele>
        <time>2010-01-01T02:07:50Z</time>
      </trkpt>
      <trkpt lat="42.28753" lon="2.24402">
        <ele>1680</ele>
        <time>2010-01-01T02:07:51Z</time>
      </trkpt>
      <trkpt lat="42.28755" lon="2.24403">
        <ele>1679</ele>
        <time>2010-01-01T02:07:51Z</time>
      </trkpt>
      <trkpt lat="42.28757" lon="2.24401">
        <ele>1678</ele>
        <time>2010-01-01T02:07:52Z</time>
      </trkpt>
      <trkpt lat="42.28759" lon="2.244">
        <ele>1677</ele>
        <time>2010-01-01T02:07:53Z</time>
      </trkpt>
      <trkpt lat="42.2876" lon="2.24398">
        <ele>1677</ele>
        <time>2010-01-01T02:07:54Z</time>
      </trkpt>
      <trkpt lat="42.2876" lon="2.24395">
        <ele>1676</ele>
        <time>2010-01-01T02:07:55Z</time>
      </trkpt>
      <trkpt lat="42.28762" lon="2.24392">
        <ele>1675</ele>
        <time>2010-01-01T02:07:56Z</time>
      </trkpt>
      <trkpt lat="42.28764" lon="2.2439">
        <ele>1674</ele>
        <time>2010-01-01T02:07:57Z</time>
      </trkpt>
      <trkpt lat="42.28767" lon="2.24389">
        <ele>1673</ele>
        <time>2010-01-01T02:07:58Z</time>
      </trkpt>
      <trkpt lat="42.28769" lon="2.24388">
        <ele>1672</ele>
        <time>2010-01-01T02:07:59Z</time>
      </trkpt>
      <trkpt lat="42.28771" lon="2.24387">
        <ele>1671</ele>
        <time>2010-01-01T02:08:00Z</time>
      </trkpt>
      <trkpt lat="42.28773" lon="2.24386">
        <ele>1671</ele>
        <time>2010-01-01T02:08:01Z</time>
      </trkpt>
      <trkpt lat="42.28776" lon="2.24385">
        <ele>1670</ele>
        <time>2010-01-01T02:08:02Z</time>
      </trkpt>
      <trkpt lat="42.28778" lon="2.24382">
        <ele>1669</ele>
        <time>2010-01-01T02:08:03Z</time>
      </trkpt>
      <trkpt lat="42.2878" lon="2.2438">
        <ele>1668</ele>
        <time>2010-01-01T02:08:04Z</time>
      </trkpt>
      <trkpt lat="42.28782" lon="2.24378">
        <ele>1667</ele>
        <time>2010-01-01T02:08:05Z</time>
      </trkpt>
      <trkpt lat="42.28784" lon="2.24376">
        <ele>1666</ele>
        <time>2010-01-01T02:08:06Z</time>
      </trkpt>
      <trkpt lat="42.28785" lon="2.24374">
        <ele>1665</ele>
        <time>2010-01-01T02:08:07Z</time>
      </trkpt>
      <trkpt lat="42.28787" lon="2.24373">
        <ele>1664</ele>
        <time>2010-01-01T02:08:08Z</time>
      </trkpt>
      <trkpt lat="42.28791" lon="2.24374">
        <ele>1662</ele>
        <time>2010-01-01T02:08:09Z</time>
      </trkpt>
      <trkpt lat="42.28794" lon="2.24373">
        <ele>1661</ele>
        <time>2010-01-01T02:08:10Z</time>
      </trkpt>
      <trkpt lat="42.28796" lon="2.24372">
        <ele>1661</ele>
        <time>2010-01-01T02:08:11Z</time>
      </trkpt>
      <trkpt lat="42.28798" lon="2.2437">
        <ele>1659</ele>
        <time>2010-01-01T02:08:12Z</time>
      </trkpt>
      <trkpt lat="42.288" lon="2.24367">
        <ele>1658</ele>
        <time>2010-01-01T02:08:14Z</time>
      </trkpt>
      <trkpt lat="42.28802" lon="2.24365">
        <ele>1657</ele>
        <time>2010-01-01T02:08:15Z</time>
      </trkpt>
      <trkpt lat="42.28804" lon="2.24363">
        <ele>1656</ele>
        <time>2010-01-01T02:08:16Z</time>
      </trkpt>
      <trkpt lat="42.28806" lon="2.24361">
        <ele>1655</ele>
        <time>2010-01-01T02:08:17Z</time>
      </trkpt>
      <trkpt lat="42.28808" lon="2.24359">
        <ele>1655</ele>
        <time>2010-01-01T02:08:17Z</time>
      </trkpt>
      <trkpt lat="42.2881" lon="2.24358">
        <ele>1654</ele>
        <time>2010-01-01T02:08:18Z</time>
      </trkpt>
      <trkpt lat="42.28812" lon="2.24359">
        <ele>1653</ele>
        <time>2010-01-01T02:08:19Z</time>
      </trkpt>
      <trkpt lat="42.28815" lon="2.2436">
        <ele>1652</ele>
        <time>2010-01-01T02:08:21Z</time>
      </trkpt>
      <trkpt lat="42.28818" lon="2.2436">
        <ele>1651</ele>
        <time>2010-01-01T02:08:22Z</time>
      </trkpt>
      <trkpt lat="42.2882" lon="2.2436">
        <ele>1650</ele>
        <time>2010-01-01T02:08:23Z</time>
      </trkpt>
      <trkpt lat="42.28823" lon="2.2436">
        <ele>1648</ele>
        <time>2010-01-01T02:08:24Z</time>
      </trkpt>
      <trkpt lat="42.28825" lon="2.24358">
        <ele>1647</ele>
        <time>2010-01-01T02:08:25Z</time>
      </trkpt>
      <trkpt lat="42.28827" lon="2.24357">
        <ele>1646</ele>
        <time>2010-01-01T02:08:26Z</time>
      </trkpt>
      <trkpt lat="42.2883" lon="2.24356">
        <ele>1645</ele>
        <time>2010-01-01T02:08:27Z</time>
      </trkpt>
      <trkpt lat="42.28832" lon="2.24354">
        <ele>1644</ele>
        <time>2010-01-01T02:08:28Z</time>
      </trkpt>
      <trkpt lat="42.28834" lon="2.24352">
        <ele>1643</ele>
        <time>2010-01-01T02:08:29Z</time>
      </trkpt>
      <trkpt lat="42.28836" lon="2.2435">
        <ele>1642</ele>
        <time>2010-01-01T02:08:30Z</time>
      </trkpt>
      <trkpt lat="42.28836" lon="2.24347">
        <ele>1641</ele>
        <time>2010-01-01T02:08:30Z</time>
      </trkpt>
      <trkpt lat="42.28838" lon="2.24346">
        <ele>1640</ele>
        <time>2010-01-01T02:08:31Z</time>
      </trkpt>
      <trkpt lat="42.2884" lon="2.24347">
        <ele>1640</ele>
        <time>2010-01-01T02:08:32Z</time>
      </trkpt>
      <trkpt lat="42.28843" lon="2.24346">
        <ele>1638</ele>
        <time>2010-01-01T02:08:33Z</time>
      </trkpt>
      <trkpt lat="42.28845" lon="2.24344">
        <ele>1638</ele>
        <time>2010-01-01T02:08:34Z</time>
      </trkpt>
      <trkpt lat="42.28847" lon="2.24341">
        <ele>1637</ele>
        <time>2010-01-01T02:08:35Z</time>
      </trkpt>
      <trkpt lat="42.28849" lon="2.24341">
        <ele>1636</ele>
        <time>2010-01-01T02:08:36Z</time>
      </trkpt>
      <trkpt lat="42.2885" lon="2.24341">
        <ele>1635</ele>
        <time>2010-01-01T02:08:37Z</time>
      </trkpt>
      <trkpt lat="42.28853" lon="2.2434">
        <ele>1635</ele>
        <time>2010-01-01T02:08:38Z</time>
      </trkpt>
      <trkpt lat="42.28855" lon="2.24338">
        <ele>1634</ele>
        <time>2010-01-01T02:08:39Z</time>
      </trkpt>
      <trkpt lat="42.28857" lon="2.24338">
        <ele>1633</ele>
        <time>2010-01-01T02:08:39Z</time>
      </trkpt>
      <trkpt lat="42.28859" lon="2.24338">
        <ele>1632</ele>
        <time>2010-01-01T02:08:40Z</time>
      </trkpt>
      <trkpt lat="42.28862" lon="2.24338">
        <ele>1632</ele>
        <time>2010-01-01T02:08:41Z</time>
      </trkpt>
      <trkpt lat="42.28864" lon="2.2434">
        <ele>1632</ele>
        <time>2010-01-01T02:08:43Z</time>
      </trkpt>
      <trkpt lat="42.28867" lon="2.24341">
        <ele>1631</ele>
        <time>2010-01-01T02:08:44Z</time>
      </trkpt>
      <trkpt lat="42.2887" lon="2.24343">
        <ele>1631</ele>
        <time>2010-01-01T02:08:45Z</time>
      </trkpt>
      <trkpt lat="42.28872" lon="2.24345">
        <ele>1631</ele>
        <time>2010-01-01T02:08:46Z</time>
      </trkpt>
      <trkpt lat="42.28875" lon="2.24348">
        <ele>1631</ele>
        <time>2010-01-01T02:08:47Z</time>
      </trkpt>
      <trkpt lat="42.28878" lon="2.2435">
        <ele>1631</ele>
        <time>2010-01-01T02:08:49Z</time>
      </trkpt>
      <trkpt lat="42.2888" lon="2.24351">
        <ele>1630</ele>
        <time>2010-01-01T02:08:50Z</time>
      </trkpt>
      <trkpt lat="42.28883" lon="2.24353">
        <ele>1630</ele>
        <time>2010-01-01T02:08:51Z</time>
      </trkpt>
      <trkpt lat="42.28885" lon="2.24354">
        <ele>1630</ele>
        <time>2010-01-01T02:08:52Z</time>
      </trkpt>
      <trkpt lat="42.28888" lon="2.24353">
        <ele>1629</ele>
        <time>2010-01-01T02:08:53Z</time>
      </trkpt>
      <trkpt lat="42.28891" lon="2.24353">
        <ele>1629</ele>
        <time>2010-01-01T02:08:54Z</time>
      </trkpt>
      <trkpt lat="42.28894" lon="2.24353">
        <ele>1628</ele>
        <time>2010-01-01T02:08:55Z</time>
      </trkpt>
      <trkpt lat="42.28897" lon="2.24353">
        <ele>1628</ele>
        <time>2010-01-01T02:08:57Z</time>
      </trkpt>
      <trkpt lat="42.289" lon="2.24354">
        <ele>1627</ele>
        <time>2010-01-01T02:08:58Z</time>
      </trkpt>
      <trkpt lat="42.28903" lon="2.24355">
        <ele>1627</ele>
        <time>2010-01-01T02:08:59Z</time>
      </trkpt>
      <trkpt lat="42.28906" lon="2.24355">
        <ele>1626</ele>
        <time>2010-01-01T02:09:00Z</time>
      </trkpt>
      <trkpt lat="42.28909" lon="2.24356">
        <ele>1626</ele>
        <time>2010-01-01T02:09:02Z</time>
      </trkpt>
      <trkpt lat="42.28912" lon="2.24357">
        <ele>1625</ele>
        <time>2010-01-01T02:09:03Z</time>
      </trkpt>
      <trkpt lat="42.28915" lon="2.24357">
        <ele>1625</ele>
        <time>2010-01-01T02:09:04Z</time>
      </trkpt>
      <trkpt lat="42.28918" lon="2.24357">
        <ele>1624</ele>
        <time>2010-01-01T02:09:05Z</time>
      </trkpt>
      <trkpt lat="42.28921" lon="2.24357">
        <ele>1624</ele>
        <time>2010-01-01T02:09:07Z</time>
      </trkpt>
      <trkpt lat="42.28925" lon="2.24356">
        <ele>1623</ele>
        <time>2010-01-01T02:09:08Z</time>
      </trkpt>
      <trkpt lat="42.28928" lon="2.24355">
        <ele>1623</ele>
        <time>2010-01-01T02:09:09Z</time>
      </trkpt>
      <trkpt lat="42.28931" lon="2.24355">
        <ele>1623</ele>
        <time>2010-01-01T02:09:10Z</time>
      </trkpt>
      <trkpt lat="42.28937" lon="2.24355">
        <ele>1622</ele>
        <time>2010-01-01T02:09:13Z</time>
      </trkpt>
      <trkpt lat="42.2894" lon="2.24355">
        <ele>1622</ele>
        <time>2010-01-01T02:09:14Z</time>
      </trkpt>
      <trkpt lat="42.28953" lon="2.24355">
        <ele>1621</ele>
        <time>2010-01-01T02:09:19Z</time>
      </trkpt>
      <trkpt lat="42.28956" lon="2.24356">
        <ele>1621</ele>
        <time>2010-01-01T02:09:20Z</time>
      </trkpt>
      <trkpt lat="42.28959" lon="2.24356">
        <ele>1621</ele>
        <time>2010-01-01T02:09:22Z</time>
      </trkpt>
      <trkpt lat="42.28962" lon="2.24356">
        <ele>1620</ele>
        <time>2010-01-01T02:09:23Z</time>
      </trkpt>
      <trkpt lat="42.28965" lon="2.24355">
        <ele>1620</ele>
        <time>2010-01-01T02:09:24Z</time>
      </trkpt>
      <trkpt lat="42.28968" lon="2.24355">
        <ele>1620</ele>
        <time>2010-01-01T02:09:25Z</time>
      </trkpt>
      <trkpt lat="42.28971" lon="2.24355">
        <ele>1620</ele>
        <time>2010-01-01T02:09:27Z</time>
      </trkpt>
      <trkpt lat="42.28977" lon="2.24355">
        <ele>1620</ele>
        <time>2010-01-01T02:09:29Z</time>
      </trkpt>
      <trkpt lat="42.2898" lon="2.24356">
        <ele>1621</ele>
        <time>2010-01-01T02:09:30Z</time>
      </trkpt>
      <trkpt lat="42.28982" lon="2.24356">
        <ele>1621</ele>
        <time>2010-01-01T02:09:31Z</time>
      </trkpt>
      <trkpt lat="42.28985" lon="2.24356">
        <ele>1621</ele>
        <time>2010-01-01T02:09:32Z</time>
      </trkpt>
      <trkpt lat="42.28988" lon="2.24356">
        <ele>1621</ele>
        <time>2010-01-01T02:09:33Z</time>
      </trkpt>
      <trkpt lat="42.2899" lon="2.24356">
        <ele>1621</ele>
        <time>2010-01-01T02:09:34Z</time>
      </trkpt>
      <trkpt lat="42.28995" lon="2.24356">
        <ele>1622</ele>
        <time>2010-01-01T02:09:36Z</time>
      </trkpt>
      <trkpt lat="42.28998" lon="2.24356">
        <ele>1622</ele>
        <time>2010-01-01T02:09:37Z</time>
      </trkpt>
      <trkpt lat="42.28999" lon="2.24357">
        <ele>1622</ele>
        <time>2010-01-01T02:09:38Z</time>
      </trkpt>
      <trkpt lat="42.29003" lon="2.24358">
        <ele>1622</ele>
        <time>2010-01-01T02:09:40Z</time>
      </trkpt>
      <trkpt lat="42.29006" lon="2.24358">
        <ele>1622</ele>
        <time>2010-01-01T02:09:41Z</time>
      </trkpt>
      <trkpt lat="42.29008" lon="2.24357">
        <ele>1622</ele>
        <time>2010-01-01T02:09:41Z</time>
      </trkpt>
      <trkpt lat="42.2901" lon="2.24357">
        <ele>1622</ele>
        <time>2010-01-01T02:09:42Z</time>
      </trkpt>
      <trkpt lat="42.29012" lon="2.24355">
        <ele>1622</ele>
        <time>2010-01-01T02:09:43Z</time>
      </trkpt>
      <trkpt lat="42.29014" lon="2.24354">
        <ele>1622</ele>
        <time>2010-01-01T02:09:44Z</time>
      </trkpt>
      <trkpt lat="42.29016" lon="2.24354">
        <ele>1622</ele>
        <time>2010-01-01T02:09:45Z</time>
      </trkpt>
      <trkpt lat="42.29018" lon="2.24353">
        <ele>1622</ele>
        <time>2010-01-01T02:09:46Z</time>
      </trkpt>
      <trkpt lat="42.29021" lon="2.24353">
        <ele>1623</ele>
        <time>2010-01-01T02:09:47Z</time>
      </trkpt>
      <trkpt lat="42.29023" lon="2.24354">
        <ele>1623</ele>
        <time>2010-01-01T02:09:48Z</time>
      </trkpt>
      <trkpt lat="42.29025" lon="2.24354">
        <ele>1623</ele>
        <time>2010-01-01T02:09:49Z</time>
      </trkpt>
      <trkpt lat="42.29027" lon="2.24354">
        <ele>1623</ele>
        <time>2010-01-01T02:09:50Z</time>
      </trkpt>
      <trkpt lat="42.2903" lon="2.24355">
        <ele>1623</ele>
        <time>2010-01-01T02:09:51Z</time>
      </trkpt>
      <trkpt lat="42.29032" lon="2.24354">
        <ele>1623</ele>
        <time>2010-01-01T02:09:52Z</time>
      </trkpt>
      <trkpt lat="42.29034" lon="2.24354">
        <ele>1623</ele>
        <time>2010-01-01T02:09:52Z</time>
      </trkpt>
      <trkpt lat="42.29037" lon="2.24353">
        <ele>1624</ele>
        <time>2010-01-01T02:09:54Z</time>
      </trkpt>
      <trkpt lat="42.2904" lon="2.24353">
        <ele>1624</ele>
        <time>2010-01-01T02:09:55Z</time>
      </trkpt>
      <trkpt lat="42.29043" lon="2.24353">
        <ele>1624</ele>
        <time>2010-01-01T02:09:56Z</time>
      </trkpt>
      <trkpt lat="42.29045" lon="2.24353">
        <ele>1624</ele>
        <time>2010-01-01T02:09:57Z</time>
      </trkpt>
      <trkpt lat="42.29048" lon="2.24352">
        <ele>1624</ele>
        <time>2010-01-01T02:09:58Z</time>
      </trkpt>
      <trkpt lat="42.29052" lon="2.24352">
        <ele>1625</ele>
        <time>2010-01-01T02:09:59Z</time>
      </trkpt>
      <trkpt lat="42.29055" lon="2.24352">
        <ele>1625</ele>
        <time>2010-01-01T02:10:01Z</time>
      </trkpt>
      <trkpt lat="42.29057" lon="2.24351">
        <ele>1625</ele>
        <time>2010-01-01T02:10:02Z</time>
      </trkpt>
      <trkpt lat="42.2906" lon="2.2435">
        <ele>1625</ele>
        <time>2010-01-01T02:10:03Z</time>
      </trkpt>
      <trkpt lat="42.29062" lon="2.2435">
        <ele>1626</ele>
        <time>2010-01-01T02:10:04Z</time>
      </trkpt>
      <trkpt lat="42.29065" lon="2.2435">
        <ele>1626</ele>
        <time>2010-01-01T02:10:05Z</time>
      </trkpt>
      <trkpt lat="42.29067" lon="2.24351">
        <ele>1626</ele>
        <time>2010-01-01T02:10:06Z</time>
      </trkpt>
      <trkpt lat="42.29069" lon="2.24351">
        <ele>1626</ele>
        <time>2010-01-01T02:10:06Z</time>
      </trkpt>
      <trkpt lat="42.29073" lon="2.24351">
        <ele>1627</ele>
        <time>2010-01-01T02:10:08Z</time>
      </trkpt>
      <trkpt lat="42.29075" lon="2.24352">
        <ele>1627</ele>
        <time>2010-01-01T02:10:09Z</time>
      </trkpt>
      <trkpt lat="42.29078" lon="2.24353">
        <ele>1628</ele>
        <time>2010-01-01T02:10:10Z</time>
      </trkpt>
      <trkpt lat="42.29081" lon="2.24353">
        <ele>1628</ele>
        <time>2010-01-01T02:10:11Z</time>
      </trkpt>
      <trkpt lat="42.29083" lon="2.24353">
        <ele>1628</ele>
        <time>2010-01-01T02:10:12Z</time>
      </trkpt>
      <trkpt lat="42.29085" lon="2.24355">
        <ele>1628</ele>
        <time>2010-01-01T02:10:13Z</time>
      </trkpt>
      <trkpt lat="42.29086" lon="2.24357">
        <ele>1629</ele>
        <time>2010-01-01T02:10:14Z</time>
      </trkpt>
      <trkpt lat="42.29089" lon="2.24359">
        <ele>1629</ele>
        <time>2010-01-01T02:10:15Z</time>
      </trkpt>
      <trkpt lat="42.2909" lon="2.2436">
        <ele>1629</ele>
        <time>2010-01-01T02:10:16Z</time>
      </trkpt>
      <trkpt lat="42.29092" lon="2.24361">
        <ele>1630</ele>
        <time>2010-01-01T02:10:17Z</time>
      </trkpt>
      <trkpt lat="42.29094" lon="2.24362">
        <ele>1630</ele>
        <time>2010-01-01T02:10:17Z</time>
      </trkpt>
      <trkpt lat="42.29096" lon="2.24364">
        <ele>1630</ele>
        <time>2010-01-01T02:10:18Z</time>
      </trkpt>
      <trkpt lat="42.29099" lon="2.24364">
        <ele>1631</ele>
        <time>2010-01-01T02:10:19Z</time>
      </trkpt>
      <trkpt lat="42.29101" lon="2.24364">
        <ele>1631</ele>
        <time>2010-01-01T02:10:20Z</time>
      </trkpt>
      <trkpt lat="42.29104" lon="2.24364">
        <ele>1631</ele>
        <time>2010-01-01T02:10:21Z</time>
      </trkpt>
      <trkpt lat="42.29106" lon="2.24364">
        <ele>1632</ele>
        <time>2010-01-01T02:10:22Z</time>
      </trkpt>
      <trkpt lat="42.29109" lon="2.24364">
        <ele>1632</ele>
        <time>2010-01-01T02:10:23Z</time>
      </trkpt>
      <trkpt lat="42.2911" lon="2.24363">
        <ele>1632</ele>
        <time>2010-01-01T02:10:24Z</time>
      </trkpt>
      <trkpt lat="42.29112" lon="2.24361">
        <ele>1633</ele>
        <time>2010-01-01T02:10:25Z</time>
      </trkpt>
      <trkpt lat="42.29113" lon="2.24359">
        <ele>1633</ele>
        <time>2010-01-01T02:10:26Z</time>
      </trkpt>
      <trkpt lat="42.29114" lon="2.24357">
        <ele>1633</ele>
        <time>2010-01-01T02:10:27Z</time>
      </trkpt>
      <trkpt lat="42.29117" lon="2.24355">
        <ele>1633</ele>
        <time>2010-01-01T02:10:28Z</time>
      </trkpt>
      <trkpt lat="42.29119" lon="2.24354">
        <ele>1633</ele>
        <time>2010-01-01T02:10:29Z</time>
      </trkpt>
      <trkpt lat="42.29122" lon="2.24352">
        <ele>1634</ele>
        <time>2010-01-01T02:10:30Z</time>
      </trkpt>
      <trkpt lat="42.29125" lon="2.24351">
        <ele>1634</ele>
        <time>2010-01-01T02:10:31Z</time>
      </trkpt>
      <trkpt lat="42.29127" lon="2.2435">
        <ele>1634</ele>
        <time>2010-01-01T02:10:32Z</time>
      </trkpt>
      <trkpt lat="42.2913" lon="2.24348">
        <ele>1635</ele>
        <time>2010-01-01T02:10:33Z</time>
      </trkpt>
      <trkpt lat="42.29132" lon="2.24346">
        <ele>1635</ele>
        <time>2010-01-01T02:10:35Z</time>
      </trkpt>
      <trkpt lat="42.29135" lon="2.24345">
        <ele>1635</ele>
        <time>2010-01-01T02:10:36Z</time>
      </trkpt>
      <trkpt lat="42.29138" lon="2.24345">
        <ele>1635</ele>
        <time>2010-01-01T02:10:37Z</time>
      </trkpt>
      <trkpt lat="42.29139" lon="2.24343">
        <ele>1635</ele>
        <time>2010-01-01T02:10:38Z</time>
      </trkpt>
      <trkpt lat="42.29142" lon="2.24342">
        <ele>1635</ele>
        <time>2010-01-01T02:10:39Z</time>
      </trkpt>
      <trkpt lat="42.29146" lon="2.24341">
        <ele>1635</ele>
        <time>2010-01-01T02:10:40Z</time>
      </trkpt>
      <trkpt lat="42.29149" lon="2.2434">
        <ele>1634</ele>
        <time>2010-01-01T02:10:41Z</time>
      </trkpt>
      <trkpt lat="42.29152" lon="2.2434">
        <ele>1634</ele>
        <time>2010-01-01T02:10:43Z</time>
      </trkpt>
      <trkpt lat="42.29155" lon="2.2434">
        <ele>1633</ele>
        <time>2010-01-01T02:10:44Z</time>
      </trkpt>
      <trkpt lat="42.29158" lon="2.2434">
        <ele>1633</ele>
        <time>2010-01-01T02:10:45Z</time>
      </trkpt>
      <trkpt lat="42.29161" lon="2.24341">
        <ele>1633</ele>
        <time>2010-01-01T02:10:46Z</time>
      </trkpt>
      <trkpt lat="42.29165" lon="2.2434">
        <ele>1632</ele>
        <time>2010-01-01T02:10:48Z</time>
      </trkpt>
      <trkpt lat="42.29168" lon="2.2434">
        <ele>1632</ele>
        <time>2010-01-01T02:10:49Z</time>
      </trkpt>
      <trkpt lat="42.29171" lon="2.24341">
        <ele>1631</ele>
        <time>2010-01-01T02:10:50Z</time>
      </trkpt>
      <trkpt lat="42.29173" lon="2.24342">
        <ele>1631</ele>
        <time>2010-01-01T02:10:51Z</time>
      </trkpt>
      <trkpt lat="42.29175" lon="2.24344">
        <ele>1630</ele>
        <time>2010-01-01T02:10:52Z</time>
      </trkpt>
      <trkpt lat="42.29177" lon="2.24345">
        <ele>1630</ele>
        <time>2010-01-01T02:10:53Z</time>
      </trkpt>
      <trkpt lat="42.2918" lon="2.24344">
        <ele>1629</ele>
        <time>2010-01-01T02:10:54Z</time>
      </trkpt>
      <trkpt lat="42.29182" lon="2.24345">
        <ele>1629</ele>
        <time>2010-01-01T02:10:55Z</time>
      </trkpt>
      <trkpt lat="42.29185" lon="2.24345">
        <ele>1628</ele>
        <time>2010-01-01T02:10:56Z</time>
      </trkpt>
      <trkpt lat="42.29188" lon="2.24345">
        <ele>1627</ele>
        <time>2010-01-01T02:10:57Z</time>
      </trkpt>
      <trkpt lat="42.29191" lon="2.24344">
        <ele>1626</ele>
        <time>2010-01-01T02:10:59Z</time>
      </trkpt>
      <trkpt lat="42.29194" lon="2.24345">
        <ele>1626</ele>
        <time>2010-01-01T02:11:00Z</time>
      </trkpt>
      <trkpt lat="42.29197" lon="2.24347">
        <ele>1625</ele>
        <time>2010-01-01T02:11:01Z</time>
      </trkpt>
      <trkpt lat="42.292" lon="2.24349">
        <ele>1625</ele>
        <time>2010-01-01T02:11:02Z</time>
      </trkpt>
      <trkpt lat="42.29203" lon="2.24351">
        <ele>1625</ele>
        <time>2010-01-01T02:11:04Z</time>
      </trkpt>
      <trkpt lat="42.29206" lon="2.24352">
        <ele>1624</ele>
        <time>2010-01-01T02:11:05Z</time>
      </trkpt>
      <trkpt lat="42.29209" lon="2.24354">
        <ele>1624</ele>
        <time>2010-01-01T02:11:06Z</time>
      </trkpt>
      <trkpt lat="42.29212" lon="2.24356">
        <ele>1624</ele>
        <time>2010-01-01T02:11:08Z</time>
      </trkpt>
      <trkpt lat="42.29214" lon="2.24359">
        <ele>1623</ele>
        <time>2010-01-01T02:11:09Z</time>
      </trkpt>
      <trkpt lat="42.29217" lon="2.2436">
        <ele>1623</ele>
        <time>2010-01-01T02:11:10Z</time>
      </trkpt>
      <trkpt lat="42.2922" lon="2.24362">
        <ele>1622</ele>
        <time>2010-01-01T02:11:11Z</time>
      </trkpt>
      <trkpt lat="42.29223" lon="2.24364">
        <ele>1621</ele>
        <time>2010-01-01T02:11:13Z</time>
      </trkpt>
      <trkpt lat="42.29226" lon="2.24365">
        <ele>1620</ele>
        <time>2010-01-01T02:11:14Z</time>
      </trkpt>
      <trkpt lat="42.29229" lon="2.24366">
        <ele>1620</ele>
        <time>2010-01-01T02:11:15Z</time>
      </trkpt>
      <trkpt lat="42.29232" lon="2.24367">
        <ele>1619</ele>
        <time>2010-01-01T02:11:17Z</time>
      </trkpt>
      <trkpt lat="42.29235" lon="2.24369">
        <ele>1618</ele>
        <time>2010-01-01T02:11:18Z</time>
      </trkpt>
      <trkpt lat="42.29237" lon="2.24372">
        <ele>1617</ele>
        <time>2010-01-01T02:11:19Z</time>
      </trkpt>
      <trkpt lat="42.2924" lon="2.24373">
        <ele>1617</ele>
        <time>2010-01-01T02:11:20Z</time>
      </trkpt>
      <trkpt lat="42.29243" lon="2.24374">
        <ele>1616</ele>
        <time>2010-01-01T02:11:21Z</time>
      </trkpt>
      <trkpt lat="42.29246" lon="2.24374">
        <ele>1615</ele>
        <time>2010-01-01T02:11:23Z</time>
      </trkpt>
      <trkpt lat="42.29249" lon="2.24376">
        <ele>1614</ele>
        <time>2010-01-01T02:11:24Z</time>
      </trkpt>
      <trkpt lat="42.29252" lon="2.24378">
        <ele>1613</ele>
        <time>2010-01-01T02:11:25Z</time>
      </trkpt>
      <trkpt lat="42.29255" lon="2.24379">
        <ele>1612</ele>
        <time>2010-01-01T02:11:27Z</time>
      </trkpt>
      <trkpt lat="42.29258" lon="2.24381">
        <ele>1612</ele>
        <time>2010-01-01T02:11:28Z</time>
      </trkpt>
      <trkpt lat="42.29261" lon="2.24383">
        <ele>1611</ele>
        <time>2010-01-01T02:11:29Z</time>
      </trkpt>
      <trkpt lat="42.29264" lon="2.24385">
        <ele>1610</ele>
        <time>2010-01-01T02:11:30Z</time>
      </trkpt>
      <trkpt lat="42.29266" lon="2.24386">
        <ele>1609</ele>
        <time>2010-01-01T02:11:31Z</time>
      </trkpt>
      <trkpt lat="42.29269" lon="2.24387">
        <ele>1608</ele>
        <time>2010-01-01T02:11:33Z</time>
      </trkpt>
      <trkpt lat="42.29272" lon="2.24388">
        <ele>1608</ele>
        <time>2010-01-01T02:11:34Z</time>
      </trkpt>
      <trkpt lat="42.29277" lon="2.24388">
        <ele>1606</ele>
        <time>2010-01-01T02:11:36Z</time>
      </trkpt>
      <trkpt lat="42.2928" lon="2.24387">
        <ele>1605</ele>
        <time>2010-01-01T02:11:37Z</time>
      </trkpt>
      <trkpt lat="42.29283" lon="2.24387">
        <ele>1604</ele>
        <time>2010-01-01T02:11:38Z</time>
      </trkpt>
      <trkpt lat="42.29285" lon="2.24387">
        <ele>1603</ele>
        <time>2010-01-01T02:11:39Z</time>
      </trkpt>
      <trkpt lat="42.29287" lon="2.24388">
        <ele>1602</ele>
        <time>2010-01-01T02:11:40Z</time>
      </trkpt>
      <trkpt lat="42.29289" lon="2.24388">
        <ele>1601</ele>
        <time>2010-01-01T02:11:41Z</time>
      </trkpt>
      <trkpt lat="42.29292" lon="2.24389">
        <ele>1600</ele>
        <time>2010-01-01T02:11:42Z</time>
      </trkpt>
      <trkpt lat="42.29294" lon="2.2439">
        <ele>1600</ele>
        <time>2010-01-01T02:11:43Z</time>
      </trkpt>
      <trkpt lat="42.29297" lon="2.2439">
        <ele>1599</ele>
        <time>2010-01-01T02:11:44Z</time>
      </trkpt>
      <trkpt lat="42.29299" lon="2.24391">
        <ele>1598</ele>
        <time>2010-01-01T02:11:45Z</time>
      </trkpt>
      <trkpt lat="42.29301" lon="2.24392">
        <ele>1597</ele>
        <time>2010-01-01T02:11:46Z</time>
      </trkpt>
      <trkpt lat="42.29304" lon="2.24394">
        <ele>1597</ele>
        <time>2010-01-01T02:11:47Z</time>
      </trkpt>
      <trkpt lat="42.29306" lon="2.24395">
        <ele>1596</ele>
        <time>2010-01-01T02:11:48Z</time>
      </trkpt>
      <trkpt lat="42.29308" lon="2.24394">
        <ele>1594</ele>
        <time>2010-01-01T02:11:49Z</time>
      </trkpt>
      <trkpt lat="42.29311" lon="2.24396">
        <ele>1593</ele>
        <time>2010-01-01T02:11:50Z</time>
      </trkpt>
      <trkpt lat="42.29314" lon="2.24397">
        <ele>1592</ele>
        <time>2010-01-01T02:11:51Z</time>
      </trkpt>
      <trkpt lat="42.29317" lon="2.24399">
        <ele>1591</ele>
        <time>2010-01-01T02:11:52Z</time>
      </trkpt>
      <trkpt lat="42.29319" lon="2.24401">
        <ele>1589</ele>
        <time>2010-01-01T02:11:54Z</time>
      </trkpt>
      <trkpt lat="42.29321" lon="2.24402">
        <ele>1589</ele>
        <time>2010-01-01T02:11:55Z</time>
      </trkpt>
      <trkpt lat="42.29324" lon="2.24405">
        <ele>1587</ele>
        <time>2010-01-01T02:11:56Z</time>
      </trkpt>
      <trkpt lat="42.29327" lon="2.24404">
        <ele>1586</ele>
        <time>2010-01-01T02:11:57Z</time>
      </trkpt>
      <trkpt lat="42.29329" lon="2.24403">
        <ele>1585</ele>
        <time>2010-01-01T02:11:58Z</time>
      </trkpt>
      <trkpt lat="42.29332" lon="2.24406">
        <ele>1583</ele>
        <time>2010-01-01T02:11:59Z</time>
      </trkpt>
      <trkpt lat="42.29334" lon="2.24408">
        <ele>1583</ele>
        <time>2010-01-01T02:12:00Z</time>
      </trkpt>
      <trkpt lat="42.29337" lon="2.2441">
        <ele>1582</ele>
        <time>2010-01-01T02:12:02Z</time>
      </trkpt>
      <trkpt lat="42.29339" lon="2.24411">
        <ele>1581</ele>
        <time>2010-01-01T02:12:03Z</time>
      </trkpt>
      <trkpt lat="42.29341" lon="2.24414">
        <ele>1580</ele>
        <time>2010-01-01T02:12:04Z</time>
      </trkpt>
      <trkpt lat="42.29344" lon="2.24417">
        <ele>1579</ele>
        <time>2010-01-01T02:12:05Z</time>
      </trkpt>
      <trkpt lat="42.29345" lon="2.24419">
        <ele>1579</ele>
        <time>2010-01-01T02:12:06Z</time>
      </trkpt>
      <trkpt lat="42.29346" lon="2.24421">
        <ele>1579</ele>
        <time>2010-01-01T02:12:07Z</time>
      </trkpt>
      <trkpt lat="42.29347" lon="2.24423">
        <ele>1578</ele>
        <time>2010-01-01T02:12:07Z</time>
      </trkpt>
      <trkpt lat="42.29349" lon="2.24425">
        <ele>1578</ele>
        <time>2010-01-01T02:12:08Z</time>
      </trkpt>
      <trkpt lat="42.29351" lon="2.24429">
        <ele>1577</ele>
        <time>2010-01-01T02:12:10Z</time>
      </trkpt>
      <trkpt lat="42.29352" lon="2.24431">
        <ele>1576</ele>
        <time>2010-01-01T02:12:10Z</time>
      </trkpt>
      <trkpt lat="42.29354" lon="2.24432">
        <ele>1576</ele>
        <time>2010-01-01T02:12:11Z</time>
      </trkpt>
      <trkpt lat="42.29355" lon="2.24434">
        <ele>1575</ele>
        <time>2010-01-01T02:12:12Z</time>
      </trkpt>
      <trkpt lat="42.29358" lon="2.24437">
        <ele>1575</ele>
        <time>2010-01-01T02:12:13Z</time>
      </trkpt>
      <trkpt lat="42.29361" lon="2.24439">
        <ele>1574</ele>
        <time>2010-01-01T02:12:15Z</time>
      </trkpt>
      <trkpt lat="42.29364" lon="2.24441">
        <ele>1573</ele>
        <time>2010-01-01T02:12:16Z</time>
      </trkpt>
      <trkpt lat="42.29367" lon="2.24442">
        <ele>1573</ele>
        <time>2010-01-01T02:12:17Z</time>
      </trkpt>
      <trkpt lat="42.2937" lon="2.24444">
        <ele>1572</ele>
        <time>2010-01-01T02:12:19Z</time>
      </trkpt>
      <trkpt lat="42.29373" lon="2.24445">
        <ele>1572</ele>
        <time>2010-01-01T02:12:20Z</time>
      </trkpt>
      <trkpt lat="42.29376" lon="2.24447">
        <ele>1572</ele>
        <time>2010-01-01T02:12:21Z</time>
      </trkpt>
      <trkpt lat="42.29378" lon="2.24448">
        <ele>1572</ele>
        <time>2010-01-01T02:12:22Z</time>
      </trkpt>
      <trkpt lat="42.2938" lon="2.2445">
        <ele>1572</ele>
        <time>2010-01-01T02:12:23Z</time>
      </trkpt>
      <trkpt lat="42.29383" lon="2.24452">
        <ele>1572</ele>
        <time>2010-01-01T02:12:24Z</time>
      </trkpt>
      <trkpt lat="42.29386" lon="2.24453">
        <ele>1571</ele>
        <time>2010-01-01T02:12:26Z</time>
      </trkpt>
      <trkpt lat="42.29388" lon="2.24454">
        <ele>1571</ele>
        <time>2010-01-01T02:12:27Z</time>
      </trkpt>
      <trkpt lat="42.29391" lon="2.24456">
        <ele>1571</ele>
        <time>2010-01-01T02:12:28Z</time>
      </trkpt>
      <trkpt lat="42.29395" lon="2.24458">
        <ele>1571</ele>
        <time>2010-01-01T02:12:29Z</time>
      </trkpt>
      <trkpt lat="42.29397" lon="2.24461">
        <ele>1571</ele>
        <time>2010-01-01T02:12:31Z</time>
      </trkpt>
      <trkpt lat="42.29398" lon="2.24464">
        <ele>1572</ele>
        <time>2010-01-01T02:12:32Z</time>
      </trkpt>
      <trkpt lat="42.294" lon="2.24467">
        <ele>1572</ele>
        <time>2010-01-01T02:12:33Z</time>
      </trkpt>
      <trkpt lat="42.29403" lon="2.24468">
        <ele>1572</ele>
        <time>2010-01-01T02:12:34Z</time>
      </trkpt>
      <trkpt lat="42.29406" lon="2.2447">
        <ele>1572</ele>
        <time>2010-01-01T02:12:35Z</time>
      </trkpt>
      <trkpt lat="42.29408" lon="2.24471">
        <ele>1572</ele>
        <time>2010-01-01T02:12:36Z</time>
      </trkpt>
      <trkpt lat="42.2941" lon="2.24472">
        <ele>1572</ele>
        <time>2010-01-01T02:12:37Z</time>
      </trkpt>
      <trkpt lat="42.29414" lon="2.24472">
        <ele>1572</ele>
        <time>2010-01-01T02:12:39Z</time>
      </trkpt>
      <trkpt lat="42.29416" lon="2.24473">
        <ele>1572</ele>
        <time>2010-01-01T02:12:40Z</time>
      </trkpt>
      <trkpt lat="42.29418" lon="2.24475">
        <ele>1572</ele>
        <time>2010-01-01T02:12:41Z</time>
      </trkpt>
      <trkpt lat="42.2942" lon="2.24477">
        <ele>1572</ele>
        <time>2010-01-01T02:12:42Z</time>
      </trkpt>
      <trkpt lat="42.29422" lon="2.24479">
        <ele>1573</ele>
        <time>2010-01-01T02:12:43Z</time>
      </trkpt>
      <trkpt lat="42.29423" lon="2.24482">
        <ele>1573</ele>
        <time>2010-01-01T02:12:44Z</time>
      </trkpt>
      <trkpt lat="42.29425" lon="2.24484">
        <ele>1573</ele>
        <time>2010-01-01T02:12:44Z</time>
      </trkpt>
      <trkpt lat="42.29426" lon="2.24486">
        <ele>1573</ele>
        <time>2010-01-01T02:12:45Z</time>
      </trkpt>
      <trkpt lat="42.29427" lon="2.24488">
        <ele>1574</ele>
        <time>2010-01-01T02:12:46Z</time>
      </trkpt>
      <trkpt lat="42.29429" lon="2.2449">
        <ele>1574</ele>
        <time>2010-01-01T02:12:47Z</time>
      </trkpt>
      <trkpt lat="42.29432" lon="2.24491">
        <ele>1574</ele>
        <time>2010-01-01T02:12:48Z</time>
      </trkpt>
      <trkpt lat="42.29434" lon="2.24492">
        <ele>1574</ele>
        <time>2010-01-01T02:12:49Z</time>
      </trkpt>
      <trkpt lat="42.29437" lon="2.24493">
        <ele>1574</ele>
        <time>2010-01-01T02:12:50Z</time>
      </trkpt>
      <trkpt lat="42.29439" lon="2.24495">
        <ele>1574</ele>
        <time>2010-01-01T02:12:51Z</time>
      </trkpt>
      <trkpt lat="42.29442" lon="2.24497">
        <ele>1574</ele>
        <time>2010-01-01T02:12:52Z</time>
      </trkpt>
      <trkpt lat="42.29445" lon="2.24499">
        <ele>1574</ele>
        <time>2010-01-01T02:12:54Z</time>
      </trkpt>
      <trkpt lat="42.29447" lon="2.24501">
        <ele>1574</ele>
        <time>2010-01-01T02:12:55Z</time>
      </trkpt>
      <trkpt lat="42.29449" lon="2.24503">
        <ele>1574</ele>
        <time>2010-01-01T02:12:56Z</time>
      </trkpt>
      <trkpt lat="42.29452" lon="2.24504">
        <ele>1574</ele>
        <time>2010-01-01T02:12:57Z</time>
      </trkpt>
      <trkpt lat="42.29455" lon="2.24504">
        <ele>1574</ele>
        <time>2010-01-01T02:12:58Z</time>
      </trkpt>
      <trkpt lat="42.29458" lon="2.24505">
        <ele>1574</ele>
        <time>2010-01-01T02:12:59Z</time>
      </trkpt>
      <trkpt lat="42.2946" lon="2.24505">
        <ele>1573</ele>
        <time>2010-01-01T02:13:00Z</time>
      </trkpt>
      <trkpt lat="42.29463" lon="2.24505">
        <ele>1573</ele>
        <time>2010-01-01T02:13:01Z</time>
      </trkpt>
      <trkpt lat="42.29466" lon="2.24505">
        <ele>1573</ele>
        <time>2010-01-01T02:13:03Z</time>
      </trkpt>
      <trkpt lat="42.29471" lon="2.24505">
        <ele>1573</ele>
        <time>2010-01-01T02:13:05Z</time>
      </trkpt>
      <trkpt lat="42.29474" lon="2.24505">
        <ele>1573</ele>
        <time>2010-01-01T02:13:06Z</time>
      </trkpt>
      <trkpt lat="42.29476" lon="2.24504">
        <ele>1573</ele>
        <time>2010-01-01T02:13:07Z</time>
      </trkpt>
      <trkpt lat="42.29478" lon="2.24503">
        <ele>1573</ele>
        <time>2010-01-01T02:13:08Z</time>
      </trkpt>
      <trkpt lat="42.29481" lon="2.245">
        <ele>1573</ele>
        <time>2010-01-01T02:13:09Z</time>
      </trkpt>
      <trkpt lat="42.29484" lon="2.24498">
        <ele>1573</ele>
        <time>2010-01-01T02:13:10Z</time>
      </trkpt>
      <trkpt lat="42.29486" lon="2.24496">
        <ele>1573</ele>
        <time>2010-01-01T02:13:11Z</time>
      </trkpt>
      <trkpt lat="42.29489" lon="2.24493">
        <ele>1573</ele>
        <time>2010-01-01T02:13:13Z</time>
      </trkpt>
      <trkpt lat="42.29491" lon="2.2449">
        <ele>1573</ele>
        <time>2010-01-01T02:13:14Z</time>
      </trkpt>
      <trkpt lat="42.29493" lon="2.24486">
        <ele>1573</ele>
        <time>2010-01-01T02:13:15Z</time>
      </trkpt>
      <trkpt lat="42.29495" lon="2.24483">
        <ele>1573</ele>
        <time>2010-01-01T02:13:17Z</time>
      </trkpt>
      <trkpt lat="42.29498" lon="2.2448">
        <ele>1573</ele>
        <time>2010-01-01T02:13:18Z</time>
      </trkpt>
      <trkpt lat="42.295" lon="2.24477">
        <ele>1572</ele>
        <time>2010-01-01T02:13:19Z</time>
      </trkpt>
      <trkpt lat="42.29503" lon="2.24474">
        <ele>1572</ele>
        <time>2010-01-01T02:13:21Z</time>
      </trkpt>
      <trkpt lat="42.29506" lon="2.24472">
        <ele>1572</ele>
        <time>2010-01-01T02:13:22Z</time>
      </trkpt>
      <trkpt lat="42.29509" lon="2.2447">
        <ele>1572</ele>
        <time>2010-01-01T02:13:23Z</time>
      </trkpt>
      <trkpt lat="42.29511" lon="2.24467">
        <ele>1572</ele>
        <time>2010-01-01T02:13:25Z</time>
      </trkpt>
      <trkpt lat="42.29515" lon="2.24466">
        <ele>1572</ele>
        <time>2010-01-01T02:13:26Z</time>
      </trkpt>
      <trkpt lat="42.29518" lon="2.24465">
        <ele>1572</ele>
        <time>2010-01-01T02:13:27Z</time>
      </trkpt>
      <trkpt lat="42.29521" lon="2.24464">
        <ele>1572</ele>
        <time>2010-01-01T02:13:29Z</time>
      </trkpt>
      <trkpt lat="42.29524" lon="2.24463">
        <ele>1571</ele>
        <time>2010-01-01T02:13:30Z</time>
      </trkpt>
      <trkpt lat="42.29527" lon="2.24462">
        <ele>1571</ele>
        <time>2010-01-01T02:13:31Z</time>
      </trkpt>
      <trkpt lat="42.2953" lon="2.24461">
        <ele>1571</ele>
        <time>2010-01-01T02:13:32Z</time>
      </trkpt>
      <trkpt lat="42.29534" lon="2.2446">
        <ele>1571</ele>
        <time>2010-01-01T02:13:34Z</time>
      </trkpt>
      <trkpt lat="42.29537" lon="2.2446">
        <ele>1570</ele>
        <time>2010-01-01T02:13:35Z</time>
      </trkpt>
      <trkpt lat="42.29541" lon="2.24459">
        <ele>1570</ele>
        <time>2010-01-01T02:13:37Z</time>
      </trkpt>
      <trkpt lat="42.29544" lon="2.2446">
        <ele>1569</ele>
        <time>2010-01-01T02:13:38Z</time>
      </trkpt>
      <trkpt lat="42.29547" lon="2.24461">
        <ele>1569</ele>
        <time>2010-01-01T02:13:39Z</time>
      </trkpt>
      <trkpt lat="42.29551" lon="2.24462">
        <ele>1568</ele>
        <time>2010-01-01T02:13:41Z</time>
      </trkpt>
      <trkpt lat="42.29553" lon="2.24463">
        <ele>1568</ele>
        <time>2010-01-01T02:13:42Z</time>
      </trkpt>
      <trkpt lat="42.29554" lon="2.24463">
        <ele>1568</ele>
        <time>2010-01-01T02:13:42Z</time>
      </trkpt>
      <trkpt lat="42.29556" lon="2.24464">
        <ele>1567</ele>
        <time>2010-01-01T02:13:43Z</time>
      </trkpt>
      <trkpt lat="42.29559" lon="2.24466">
        <ele>1567</ele>
        <time>2010-01-01T02:13:44Z</time>
      </trkpt>
      <trkpt lat="42.29563" lon="2.24467">
        <ele>1566</ele>
        <time>2010-01-01T02:13:46Z</time>
      </trkpt>
      <trkpt lat="42.29566" lon="2.24468">
        <ele>1566</ele>
        <time>2010-01-01T02:13:47Z</time>
      </trkpt>
      <trkpt lat="42.29569" lon="2.24469">
        <ele>1565</ele>
        <time>2010-01-01T02:13:49Z</time>
      </trkpt>
      <trkpt lat="42.29573" lon="2.2447">
        <ele>1564</ele>
        <time>2010-01-01T02:13:50Z</time>
      </trkpt>
      <trkpt lat="42.29576" lon="2.24472">
        <ele>1564</ele>
        <time>2010-01-01T02:13:51Z</time>
      </trkpt>
      <trkpt lat="42.2958" lon="2.24472">
        <ele>1563</ele>
        <time>2010-01-01T02:13:53Z</time>
      </trkpt>
      <trkpt lat="42.29583" lon="2.24473">
        <ele>1562</ele>
        <time>2010-01-01T02:13:54Z</time>
      </trkpt>
      <trkpt lat="42.29586" lon="2.24472">
        <ele>1562</ele>
        <time>2010-01-01T02:13:55Z</time>
      </trkpt>
      <trkpt lat="42.29589" lon="2.24471">
        <ele>1561</ele>
        <time>2010-01-01T02:13:57Z</time>
      </trkpt>
      <trkpt lat="42.29591" lon="2.24469">
        <ele>1561</ele>
        <time>2010-01-01T02:13:58Z</time>
      </trkpt>
      <trkpt lat="42.29594" lon="2.24466">
        <ele>1561</ele>
        <time>2010-01-01T02:13:59Z</time>
      </trkpt>
      <trkpt lat="42.29596" lon="2.24465">
        <ele>1560</ele>
        <time>2010-01-01T02:14:00Z</time>
      </trkpt>
      <trkpt lat="42.29598" lon="2.24463">
        <ele>1560</ele>
        <time>2010-01-01T02:14:01Z</time>
      </trkpt>
      <trkpt lat="42.29601" lon="2.24462">
        <ele>1559</ele>
        <time>2010-01-01T02:14:02Z</time>
      </trkpt>
      <trkpt lat="42.29604" lon="2.24459">
        <ele>1558</ele>
        <time>2010-01-01T02:14:03Z</time>
      </trkpt>
      <trkpt lat="42.29607" lon="2.24458">
        <ele>1557</ele>
        <time>2010-01-01T02:14:05Z</time>
      </trkpt>
      <trkpt lat="42.29609" lon="2.24457">
        <ele>1557</ele>
        <time>2010-01-01T02:14:06Z</time>
      </trkpt>
      <trkpt lat="42.29612" lon="2.24455">
        <ele>1556</ele>
        <time>2010-01-01T02:14:07Z</time>
      </trkpt>
      <trkpt lat="42.29615" lon="2.24454">
        <ele>1555</ele>
        <time>2010-01-01T02:14:08Z</time>
      </trkpt>
      <trkpt lat="42.29618" lon="2.24452">
        <ele>1553</ele>
        <time>2010-01-01T02:14:10Z</time>
      </trkpt>
      <trkpt lat="42.2962" lon="2.24451">
        <ele>1553</ele>
        <time>2010-01-01T02:14:10Z</time>
      </trkpt>
      <trkpt lat="42.29623" lon="2.24448">
        <ele>1552</ele>
        <time>2010-01-01T02:14:12Z</time>
      </trkpt>
      <trkpt lat="42.29626" lon="2.24447">
        <ele>1551</ele>
        <time>2010-01-01T02:14:13Z</time>
      </trkpt>
      <trkpt lat="42.29628" lon="2.24446">
        <ele>1550</ele>
        <time>2010-01-01T02:14:14Z</time>
      </trkpt>
      <trkpt lat="42.2963" lon="2.24447">
        <ele>1549</ele>
        <time>2010-01-01T02:14:15Z</time>
      </trkpt>
      <trkpt lat="42.29632" lon="2.24448">
        <ele>1548</ele>
        <time>2010-01-01T02:14:16Z</time>
      </trkpt>
      <trkpt lat="42.29634" lon="2.24448">
        <ele>1547</ele>
        <time>2010-01-01T02:14:17Z</time>
      </trkpt>
      <trkpt lat="42.29637" lon="2.24448">
        <ele>1546</ele>
        <time>2010-01-01T02:14:18Z</time>
      </trkpt>
      <trkpt lat="42.2964" lon="2.24446">
        <ele>1545</ele>
        <time>2010-01-01T02:14:19Z</time>
      </trkpt>
      <trkpt lat="42.29643" lon="2.24444">
        <ele>1544</ele>
        <time>2010-01-01T02:14:20Z</time>
      </trkpt>
      <trkpt lat="42.29646" lon="2.24441">
        <ele>1543</ele>
        <time>2010-01-01T02:14:22Z</time>
      </trkpt>
      <trkpt lat="42.29649" lon="2.24439">
        <ele>1542</ele>
        <time>2010-01-01T02:14:23Z</time>
      </trkpt>
      <trkpt lat="42.2965" lon="2.24437">
        <ele>1541</ele>
        <time>2010-01-01T02:14:24Z</time>
      </trkpt>
      <trkpt lat="42.29652" lon="2.24436">
        <ele>1540</ele>
        <time>2010-01-01T02:14:25Z</time>
      </trkpt>
      <trkpt lat="42.29655" lon="2.24435">
        <ele>1539</ele>
        <time>2010-01-01T02:14:26Z</time>
      </trkpt>
      <trkpt lat="42.29657" lon="2.24435">
        <ele>1539</ele>
        <time>2010-01-01T02:14:27Z</time>
      </trkpt>
      <trkpt lat="42.29659" lon="2.24434">
        <ele>1538</ele>
        <time>2010-01-01T02:14:28Z</time>
      </trkpt>
      <trkpt lat="42.29662" lon="2.24433">
        <ele>1537</ele>
        <time>2010-01-01T02:14:29Z</time>
      </trkpt>
      <trkpt lat="42.29665" lon="2.24431">
        <ele>1536</ele>
        <time>2010-01-01T02:14:30Z</time>
      </trkpt>
      <trkpt lat="42.29668" lon="2.2443">
        <ele>1535</ele>
        <time>2010-01-01T02:14:31Z</time>
      </trkpt>
      <trkpt lat="42.29671" lon="2.24429">
        <ele>1535</ele>
        <time>2010-01-01T02:14:33Z</time>
      </trkpt>
      <trkpt lat="42.29673" lon="2.24427">
        <ele>1534</ele>
        <time>2010-01-01T02:14:34Z</time>
      </trkpt>
      <trkpt lat="42.29676" lon="2.24425">
        <ele>1534</ele>
        <time>2010-01-01T02:14:35Z</time>
      </trkpt>
      <trkpt lat="42.29679" lon="2.24424">
        <ele>1534</ele>
        <time>2010-01-01T02:14:36Z</time>
      </trkpt>
      <trkpt lat="42.29681" lon="2.24422">
        <ele>1533</ele>
        <time>2010-01-01T02:14:37Z</time>
      </trkpt>
      <trkpt lat="42.29684" lon="2.2442">
        <ele>1533</ele>
        <time>2010-01-01T02:14:39Z</time>
      </trkpt>
      <trkpt lat="42.29687" lon="2.2442">
        <ele>1532</ele>
        <time>2010-01-01T02:14:40Z</time>
      </trkpt>
      <trkpt lat="42.29689" lon="2.24421">
        <ele>1532</ele>
        <time>2010-01-01T02:14:41Z</time>
      </trkpt>
      <trkpt lat="42.29692" lon="2.24422">
        <ele>1532</ele>
        <time>2010-01-01T02:14:42Z</time>
      </trkpt>
      <trkpt lat="42.29695" lon="2.24422">
        <ele>1531</ele>
        <time>2010-01-01T02:14:43Z</time>
      </trkpt>
      <trkpt lat="42.29698" lon="2.24421">
        <ele>1531</ele>
        <time>2010-01-01T02:14:44Z</time>
      </trkpt>
      <trkpt lat="42.29701" lon="2.24419">
        <ele>1531</ele>
        <time>2010-01-01T02:14:46Z</time>
      </trkpt>
      <trkpt lat="42.29704" lon="2.24417">
        <ele>1530</ele>
        <time>2010-01-01T02:14:47Z</time>
      </trkpt>
      <trkpt lat="42.29707" lon="2.24415">
        <ele>1530</ele>
        <time>2010-01-01T02:14:48Z</time>
      </trkpt>
      <trkpt lat="42.29709" lon="2.24412">
        <ele>1529</ele>
        <time>2010-01-01T02:14:49Z</time>
      </trkpt>
      <trkpt lat="42.29712" lon="2.24411">
        <ele>1529</ele>
        <time>2010-01-01T02:14:51Z</time>
      </trkpt>
      <trkpt lat="42.29715" lon="2.24411">
        <ele>1528</ele>
        <time>2010-01-01T02:14:52Z</time>
      </trkpt>
      <trkpt lat="42.29718" lon="2.24413">
        <ele>1528</ele>
        <time>2010-01-01T02:14:53Z</time>
      </trkpt>
      <trkpt lat="42.29721" lon="2.24413">
        <ele>1528</ele>
        <time>2010-01-01T02:14:55Z</time>
      </trkpt>
      <trkpt lat="42.29724" lon="2.24414">
        <ele>1527</ele>
        <time>2010-01-01T02:14:56Z</time>
      </trkpt>
      <trkpt lat="42.29729" lon="2.24412">
        <ele>1525</ele>
        <time>2010-01-01T02:14:58Z</time>
      </trkpt>
      <trkpt lat="42.29731" lon="2.24411">
        <ele>1525</ele>
        <time>2010-01-01T02:14:59Z</time>
      </trkpt>
      <trkpt lat="42.29735" lon="2.2441">
        <ele>1524</ele>
        <time>2010-01-01T02:15:00Z</time>
      </trkpt>
      <trkpt lat="42.29738" lon="2.2441">
        <ele>1523</ele>
        <time>2010-01-01T02:15:02Z</time>
      </trkpt>
      <trkpt lat="42.29741" lon="2.24409">
        <ele>1522</ele>
        <time>2010-01-01T02:15:03Z</time>
      </trkpt>
      <trkpt lat="42.29745" lon="2.24407">
        <ele>1521</ele>
        <time>2010-01-01T02:15:05Z</time>
      </trkpt>
      <trkpt lat="42.29748" lon="2.24405">
        <ele>1520</ele>
        <time>2010-01-01T02:15:06Z</time>
      </trkpt>
      <trkpt lat="42.29751" lon="2.24404">
        <ele>1519</ele>
        <time>2010-01-01T02:15:07Z</time>
      </trkpt>
      <trkpt lat="42.29754" lon="2.24402">
        <ele>1518</ele>
        <time>2010-01-01T02:15:09Z</time>
      </trkpt>
      <trkpt lat="42.29755" lon="2.24401">
        <ele>1518</ele>
        <time>2010-01-01T02:15:09Z</time>
      </trkpt>
      <trkpt lat="42.29759" lon="2.244">
        <ele>1518</ele>
        <time>2010-01-01T02:15:11Z</time>
      </trkpt>
      <trkpt lat="42.29761" lon="2.244">
        <ele>1517</ele>
        <time>2010-01-01T02:15:12Z</time>
      </trkpt>
      <trkpt lat="42.29764" lon="2.24399">
        <ele>1517</ele>
        <time>2010-01-01T02:15:13Z</time>
      </trkpt>
      <trkpt lat="42.29767" lon="2.24398">
        <ele>1517</ele>
        <time>2010-01-01T02:15:14Z</time>
      </trkpt>
      <trkpt lat="42.2977" lon="2.24399">
        <ele>1516</ele>
        <time>2010-01-01T02:15:15Z</time>
      </trkpt>
      <trkpt lat="42.29776" lon="2.24399">
        <ele>1515</ele>
        <time>2010-01-01T02:15:18Z</time>
      </trkpt>
      <trkpt lat="42.29779" lon="2.24397">
        <ele>1515</ele>
        <time>2010-01-01T02:15:19Z</time>
      </trkpt>
      <trkpt lat="42.29782" lon="2.24397">
        <ele>1515</ele>
        <time>2010-01-01T02:15:20Z</time>
      </trkpt>
      <trkpt lat="42.29785" lon="2.24396">
        <ele>1516</ele>
        <time>2010-01-01T02:15:21Z</time>
      </trkpt>
      <trkpt lat="42.29787" lon="2.24394">
        <ele>1516</ele>
        <time>2010-01-01T02:15:22Z</time>
      </trkpt>
      <trkpt lat="42.2979" lon="2.24393">
        <ele>1516</ele>
        <time>2010-01-01T02:15:24Z</time>
      </trkpt>
      <trkpt lat="42.29793" lon="2.24391">
        <ele>1516</ele>
        <time>2010-01-01T02:15:25Z</time>
      </trkpt>
      <trkpt lat="42.29796" lon="2.2439">
        <ele>1517</ele>
        <time>2010-01-01T02:15:26Z</time>
      </trkpt>
      <trkpt lat="42.298" lon="2.24388">
        <ele>1517</ele>
        <time>2010-01-01T02:15:28Z</time>
      </trkpt>
      <trkpt lat="42.29802" lon="2.24389">
        <ele>1517</ele>
        <time>2010-01-01T02:15:29Z</time>
      </trkpt>
      <trkpt lat="42.29804" lon="2.24389">
        <ele>1517</ele>
        <time>2010-01-01T02:15:29Z</time>
      </trkpt>
      <trkpt lat="42.29807" lon="2.24389">
        <ele>1518</ele>
        <time>2010-01-01T02:15:31Z</time>
      </trkpt>
      <trkpt lat="42.29809" lon="2.24385">
        <ele>1518</ele>
        <time>2010-01-01T02:15:32Z</time>
      </trkpt>
      <trkpt lat="42.2981" lon="2.24381">
        <ele>1517</ele>
        <time>2010-01-01T02:15:33Z</time>
      </trkpt>
      <trkpt lat="42.29812" lon="2.24379">
        <ele>1517</ele>
        <time>2010-01-01T02:15:34Z</time>
      </trkpt>
      <trkpt lat="42.29813" lon="2.24376">
        <ele>1517</ele>
        <time>2010-01-01T02:15:35Z</time>
      </trkpt>
      <trkpt lat="42.29814" lon="2.24372">
        <ele>1517</ele>
        <time>2010-01-01T02:15:36Z</time>
      </trkpt>
      <trkpt lat="42.29815" lon="2.24368">
        <ele>1516</ele>
        <time>2010-01-01T02:15:38Z</time>
      </trkpt>
      <trkpt lat="42.29816" lon="2.24366">
        <ele>1516</ele>
        <time>2010-01-01T02:15:38Z</time>
      </trkpt>
      <trkpt lat="42.29817" lon="2.24363">
        <ele>1516</ele>
        <time>2010-01-01T02:15:39Z</time>
      </trkpt>
      <trkpt lat="42.29818" lon="2.24359">
        <ele>1515</ele>
        <time>2010-01-01T02:15:41Z</time>
      </trkpt>
      <trkpt lat="42.29818" lon="2.24355">
        <ele>1515</ele>
        <time>2010-01-01T02:15:42Z</time>
      </trkpt>
      <trkpt lat="42.29818" lon="2.24351">
        <ele>1515</ele>
        <time>2010-01-01T02:15:43Z</time>
      </trkpt>
      <trkpt lat="42.29818" lon="2.24342">
        <ele>1514</ele>
        <time>2010-01-01T02:15:46Z</time>
      </trkpt>
      <trkpt lat="42.29818" lon="2.24338">
        <ele>1513</ele>
        <time>2010-01-01T02:15:47Z</time>
      </trkpt>
      <trkpt lat="42.29818" lon="2.24333">
        <ele>1513</ele>
        <time>2010-01-01T02:15:48Z</time>
      </trkpt>
      <trkpt lat="42.29817" lon="2.24329">
        <ele>1512</ele>
        <time>2010-01-01T02:15:50Z</time>
      </trkpt>
      <trkpt lat="42.29818" lon="2.24324">
        <ele>1512</ele>
        <time>2010-01-01T02:15:51Z</time>
      </trkpt>
      <trkpt lat="42.29818" lon="2.24321">
        <ele>1512</ele>
        <time>2010-01-01T02:15:52Z</time>
      </trkpt>
      <trkpt lat="42.29818" lon="2.24319">
        <ele>1512</ele>
        <time>2010-01-01T02:15:53Z</time>
      </trkpt>
      <trkpt lat="42.29819" lon="2.24314">
        <ele>1512</ele>
        <time>2010-01-01T02:15:54Z</time>
      </trkpt>
      <trkpt lat="42.29819" lon="2.2431">
        <ele>1512</ele>
        <time>2010-01-01T02:15:55Z</time>
      </trkpt>
      <trkpt lat="42.2982" lon="2.24305">
        <ele>1512</ele>
        <time>2010-01-01T02:15:57Z</time>
      </trkpt>
      <trkpt lat="42.29821" lon="2.24301">
        <ele>1511</ele>
        <time>2010-01-01T02:15:58Z</time>
      </trkpt>
      <trkpt lat="42.29821" lon="2.24298">
        <ele>1511</ele>
        <time>2010-01-01T02:15:59Z</time>
      </trkpt>
      <trkpt lat="42.29821" lon="2.24294">
        <ele>1511</ele>
        <time>2010-01-01T02:16:00Z</time>
      </trkpt>
      <trkpt lat="42.29821" lon="2.24289">
        <ele>1511</ele>
        <time>2010-01-01T02:16:02Z</time>
      </trkpt>
      <trkpt lat="42.29821" lon="2.24284">
        <ele>1511</ele>
        <time>2010-01-01T02:16:03Z</time>
      </trkpt>
      <trkpt lat="42.29821" lon="2.2428">
        <ele>1510</ele>
        <time>2010-01-01T02:16:04Z</time>
      </trkpt>
      <trkpt lat="42.29821" lon="2.24275">
        <ele>1510</ele>
        <time>2010-01-01T02:16:06Z</time>
      </trkpt>
      <trkpt lat="42.29822" lon="2.24271">
        <ele>1510</ele>
        <time>2010-01-01T02:16:07Z</time>
      </trkpt>
      <trkpt lat="42.29822" lon="2.24266">
        <ele>1509</ele>
        <time>2010-01-01T02:16:08Z</time>
      </trkpt>
      <trkpt lat="42.29822" lon="2.24262">
        <ele>1509</ele>
        <time>2010-01-01T02:16:10Z</time>
      </trkpt>
      <trkpt lat="42.29822" lon="2.24252">
        <ele>1508</ele>
        <time>2010-01-01T02:16:12Z</time>
      </trkpt>
      <trkpt lat="42.29822" lon="2.24248">
        <ele>1507</ele>
        <time>2010-01-01T02:16:14Z</time>
      </trkpt>
      <trkpt lat="42.29823" lon="2.24243">
        <ele>1507</ele>
        <time>2010-01-01T02:16:15Z</time>
      </trkpt>
      <trkpt lat="42.29824" lon="2.24241">
        <ele>1507</ele>
        <time>2010-01-01T02:16:16Z</time>
      </trkpt>
      <trkpt lat="42.29824" lon="2.24238">
        <ele>1506</ele>
        <time>2010-01-01T02:16:17Z</time>
      </trkpt>
      <trkpt lat="42.29824" lon="2.24236">
        <ele>1506</ele>
        <time>2010-01-01T02:16:17Z</time>
      </trkpt>
      <trkpt lat="42.29825" lon="2.24233">
        <ele>1506</ele>
        <time>2010-01-01T02:16:18Z</time>
      </trkpt>
      <trkpt lat="42.29825" lon="2.24231">
        <ele>1506</ele>
        <time>2010-01-01T02:16:19Z</time>
      </trkpt>
      <trkpt lat="42.29826" lon="2.24228">
        <ele>1505</ele>
        <time>2010-01-01T02:16:20Z</time>
      </trkpt>
      <trkpt lat="42.29826" lon="2.24226">
        <ele>1505</ele>
        <time>2010-01-01T02:16:20Z</time>
      </trkpt>
      <trkpt lat="42.29827" lon="2.24223">
        <ele>1505</ele>
        <time>2010-01-01T02:16:21Z</time>
      </trkpt>
      <trkpt lat="42.29827" lon="2.24221">
        <ele>1504</ele>
        <time>2010-01-01T02:16:22Z</time>
      </trkpt>
      <trkpt lat="42.29828" lon="2.24218">
        <ele>1504</ele>
        <time>2010-01-01T02:16:23Z</time>
      </trkpt>
      <trkpt lat="42.29828" lon="2.24214">
        <ele>1504</ele>
        <time>2010-01-01T02:16:24Z</time>
      </trkpt>
      <trkpt lat="42.29829" lon="2.24212">
        <ele>1503</ele>
        <time>2010-01-01T02:16:25Z</time>
      </trkpt>
      <trkpt lat="42.29829" lon="2.24209">
        <ele>1503</ele>
        <time>2010-01-01T02:16:26Z</time>
      </trkpt>
      <trkpt lat="42.29829" lon="2.24204">
        <ele>1503</ele>
        <time>2010-01-01T02:16:27Z</time>
      </trkpt>
      <trkpt lat="42.29829" lon="2.24199">
        <ele>1502</ele>
        <time>2010-01-01T02:16:28Z</time>
      </trkpt>
      <trkpt lat="42.29829" lon="2.24194">
        <ele>1502</ele>
        <time>2010-01-01T02:16:30Z</time>
      </trkpt>
      <trkpt lat="42.29829" lon="2.24192">
        <ele>1501</ele>
        <time>2010-01-01T02:16:31Z</time>
      </trkpt>
      <trkpt lat="42.29829" lon="2.24185">
        <ele>1500</ele>
        <time>2010-01-01T02:16:33Z</time>
      </trkpt>
      <trkpt lat="42.29829" lon="2.24182">
        <ele>1500</ele>
        <time>2010-01-01T02:16:34Z</time>
      </trkpt>
      <trkpt lat="42.29828" lon="2.24179">
        <ele>1500</ele>
        <time>2010-01-01T02:16:34Z</time>
      </trkpt>
      <trkpt lat="42.29828" lon="2.24177">
        <ele>1499</ele>
        <time>2010-01-01T02:16:35Z</time>
      </trkpt>
      <trkpt lat="42.29828" lon="2.24174">
        <ele>1499</ele>
        <time>2010-01-01T02:16:36Z</time>
      </trkpt>
      <trkpt lat="42.29827" lon="2.2417">
        <ele>1499</ele>
        <time>2010-01-01T02:16:37Z</time>
      </trkpt>
      <trkpt lat="42.29827" lon="2.24165">
        <ele>1498</ele>
        <time>2010-01-01T02:16:39Z</time>
      </trkpt>
      <trkpt lat="42.29827" lon="2.24161">
        <ele>1498</ele>
        <time>2010-01-01T02:16:40Z</time>
      </trkpt>
      <trkpt lat="42.29827" lon="2.24156">
        <ele>1497</ele>
        <time>2010-01-01T02:16:41Z</time>
      </trkpt>
      <trkpt lat="42.29827" lon="2.24151">
        <ele>1497</ele>
        <time>2010-01-01T02:16:43Z</time>
      </trkpt>
      <trkpt lat="42.29828" lon="2.24149">
        <ele>1496</ele>
        <time>2010-01-01T02:16:43Z</time>
      </trkpt>
      <trkpt lat="42.29828" lon="2.24144">
        <ele>1496</ele>
        <time>2010-01-01T02:16:45Z</time>
      </trkpt>
      <trkpt lat="42.29829" lon="2.2414">
        <ele>1495</ele>
        <time>2010-01-01T02:16:46Z</time>
      </trkpt>
      <trkpt lat="42.29829" lon="2.24135">
        <ele>1495</ele>
        <time>2010-01-01T02:16:47Z</time>
      </trkpt>
      <trkpt lat="42.2983" lon="2.24131">
        <ele>1494</ele>
        <time>2010-01-01T02:16:49Z</time>
      </trkpt>
      <trkpt lat="42.2983" lon="2.24128">
        <ele>1493</ele>
        <time>2010-01-01T02:16:50Z</time>
      </trkpt>
      <trkpt lat="42.29831" lon="2.24124">
        <ele>1493</ele>
        <time>2010-01-01T02:16:51Z</time>
      </trkpt>
      <trkpt lat="42.2983" lon="2.24121">
        <ele>1492</ele>
        <time>2010-01-01T02:16:52Z</time>
      </trkpt>
      <trkpt lat="42.2983" lon="2.24119">
        <ele>1492</ele>
        <time>2010-01-01T02:16:53Z</time>
      </trkpt>
      <trkpt lat="42.2983" lon="2.24116">
        <ele>1492</ele>
        <time>2010-01-01T02:16:53Z</time>
      </trkpt>
      <trkpt lat="42.2983" lon="2.24113">
        <ele>1491</ele>
        <time>2010-01-01T02:16:54Z</time>
      </trkpt>
      <trkpt lat="42.29831" lon="2.24109">
        <ele>1491</ele>
        <time>2010-01-01T02:16:55Z</time>
      </trkpt>
      <trkpt lat="42.29831" lon="2.24106">
        <ele>1490</ele>
        <time>2010-01-01T02:16:56Z</time>
      </trkpt>
      <trkpt lat="42.29832" lon="2.24103">
        <ele>1489</ele>
        <time>2010-01-01T02:16:57Z</time>
      </trkpt>
      <trkpt lat="42.29833" lon="2.241">
        <ele>1489</ele>
        <time>2010-01-01T02:16:58Z</time>
      </trkpt>
      <trkpt lat="42.29834" lon="2.24096">
        <ele>1488</ele>
        <time>2010-01-01T02:16:59Z</time>
      </trkpt>
      <trkpt lat="42.29834" lon="2.24093">
        <ele>1488</ele>
        <time>2010-01-01T02:17:00Z</time>
      </trkpt>
      <trkpt lat="42.29835" lon="2.2409">
        <ele>1488</ele>
        <time>2010-01-01T02:17:01Z</time>
      </trkpt>
      <trkpt lat="42.29836" lon="2.24086">
        <ele>1487</ele>
        <time>2010-01-01T02:17:02Z</time>
      </trkpt>
      <trkpt lat="42.29836" lon="2.24083">
        <ele>1487</ele>
        <time>2010-01-01T02:17:04Z</time>
      </trkpt>
      <trkpt lat="42.29837" lon="2.24079">
        <ele>1486</ele>
        <time>2010-01-01T02:17:05Z</time>
      </trkpt>
      <trkpt lat="42.29838" lon="2.24076">
        <ele>1486</ele>
        <time>2010-01-01T02:17:06Z</time>
      </trkpt>
      <trkpt lat="42.29839" lon="2.24072">
        <ele>1485</ele>
        <time>2010-01-01T02:17:07Z</time>
      </trkpt>
      <trkpt lat="42.29839" lon="2.24068">
        <ele>1484</ele>
        <time>2010-01-01T02:17:08Z</time>
      </trkpt>
      <trkpt lat="42.29841" lon="2.24064">
        <ele>1484</ele>
        <time>2010-01-01T02:17:09Z</time>
      </trkpt>
      <trkpt lat="42.29841" lon="2.24061">
        <ele>1483</ele>
        <time>2010-01-01T02:17:10Z</time>
      </trkpt>
      <trkpt lat="42.29842" lon="2.24057">
        <ele>1482</ele>
        <time>2010-01-01T02:17:11Z</time>
      </trkpt>
      <trkpt lat="42.29842" lon="2.24054">
        <ele>1482</ele>
        <time>2010-01-01T02:17:12Z</time>
      </trkpt>
      <trkpt lat="42.29843" lon="2.2405">
        <ele>1481</ele>
        <time>2010-01-01T02:17:14Z</time>
      </trkpt>
      <trkpt lat="42.29844" lon="2.24047">
        <ele>1481</ele>
        <time>2010-01-01T02:17:15Z</time>
      </trkpt>
      <trkpt lat="42.29845" lon="2.24044">
        <ele>1480</ele>
        <time>2010-01-01T02:17:16Z</time>
      </trkpt>
      <trkpt lat="42.29846" lon="2.24041">
        <ele>1480</ele>
        <time>2010-01-01T02:17:17Z</time>
      </trkpt>
      <trkpt lat="42.29847" lon="2.24038">
        <ele>1479</ele>
        <time>2010-01-01T02:17:18Z</time>
      </trkpt>
      <trkpt lat="42.29849" lon="2.24035">
        <ele>1479</ele>
        <time>2010-01-01T02:17:19Z</time>
      </trkpt>
      <trkpt lat="42.2985" lon="2.24033">
        <ele>1478</ele>
        <time>2010-01-01T02:17:20Z</time>
      </trkpt>
      <trkpt lat="42.29852" lon="2.24031">
        <ele>1478</ele>
        <time>2010-01-01T02:17:20Z</time>
      </trkpt>
      <trkpt lat="42.29853" lon="2.24029">
        <ele>1477</ele>
        <time>2010-01-01T02:17:21Z</time>
      </trkpt>
      <trkpt lat="42.29854" lon="2.24026">
        <ele>1477</ele>
        <time>2010-01-01T02:17:22Z</time>
      </trkpt>
      <trkpt lat="42.29855" lon="2.24024">
        <ele>1476</ele>
        <time>2010-01-01T02:17:23Z</time>
      </trkpt>
      <trkpt lat="42.29857" lon="2.24021">
        <ele>1476</ele>
        <time>2010-01-01T02:17:24Z</time>
      </trkpt>
      <trkpt lat="42.29859" lon="2.24018">
        <ele>1475</ele>
        <time>2010-01-01T02:17:25Z</time>
      </trkpt>
      <trkpt lat="42.2986" lon="2.24016">
        <ele>1475</ele>
        <time>2010-01-01T02:17:26Z</time>
      </trkpt>
      <trkpt lat="42.29862" lon="2.24013">
        <ele>1474</ele>
        <time>2010-01-01T02:17:27Z</time>
      </trkpt>
      <trkpt lat="42.29864" lon="2.2401">
        <ele>1474</ele>
        <time>2010-01-01T02:17:28Z</time>
      </trkpt>
      <trkpt lat="42.29865" lon="2.24007">
        <ele>1474</ele>
        <time>2010-01-01T02:17:29Z</time>
      </trkpt>
      <trkpt lat="42.29867" lon="2.24004">
        <ele>1473</ele>
        <time>2010-01-01T02:17:30Z</time>
      </trkpt>
      <trkpt lat="42.29869" lon="2.24001">
        <ele>1473</ele>
        <time>2010-01-01T02:17:32Z</time>
      </trkpt>
      <trkpt lat="42.29871" lon="2.23998">
        <ele>1473</ele>
        <time>2010-01-01T02:17:33Z</time>
      </trkpt>
      <trkpt lat="42.29873" lon="2.23995">
        <ele>1472</ele>
        <time>2010-01-01T02:17:34Z</time>
      </trkpt>
      <trkpt lat="42.29874" lon="2.23992">
        <ele>1472</ele>
        <time>2010-01-01T02:17:35Z</time>
      </trkpt>
      <trkpt lat="42.29876" lon="2.23988">
        <ele>1471</ele>
        <time>2010-01-01T02:17:36Z</time>
      </trkpt>
      <trkpt lat="42.29876" lon="2.23985">
        <ele>1470</ele>
        <time>2010-01-01T02:17:37Z</time>
      </trkpt>
      <trkpt lat="42.29877" lon="2.23981">
        <ele>1470</ele>
        <time>2010-01-01T02:17:38Z</time>
      </trkpt>
      <trkpt lat="42.29878" lon="2.23977">
        <ele>1469</ele>
        <time>2010-01-01T02:17:40Z</time>
      </trkpt>
      <trkpt lat="42.29878" lon="2.23974">
        <ele>1468</ele>
        <time>2010-01-01T02:17:41Z</time>
      </trkpt>
      <trkpt lat="42.29879" lon="2.2397">
        <ele>1468</ele>
        <time>2010-01-01T02:17:42Z</time>
      </trkpt>
      <trkpt lat="42.2988" lon="2.23967">
        <ele>1467</ele>
        <time>2010-01-01T02:17:43Z</time>
      </trkpt>
      <trkpt lat="42.29882" lon="2.23964">
        <ele>1466</ele>
        <time>2010-01-01T02:17:44Z</time>
      </trkpt>
      <trkpt lat="42.29883" lon="2.23961">
        <ele>1466</ele>
        <time>2010-01-01T02:17:45Z</time>
      </trkpt>
      <trkpt lat="42.29885" lon="2.23959">
        <ele>1466</ele>
        <time>2010-01-01T02:17:46Z</time>
      </trkpt>
      <trkpt lat="42.29887" lon="2.23956">
        <ele>1465</ele>
        <time>2010-01-01T02:17:47Z</time>
      </trkpt>
      <trkpt lat="42.29888" lon="2.23953">
        <ele>1465</ele>
        <time>2010-01-01T02:17:48Z</time>
      </trkpt>
      <trkpt lat="42.2989" lon="2.23951">
        <ele>1464</ele>
        <time>2010-01-01T02:17:49Z</time>
      </trkpt>
      <trkpt lat="42.29892" lon="2.23948">
        <ele>1464</ele>
        <time>2010-01-01T02:17:50Z</time>
      </trkpt>
      <trkpt lat="42.29894" lon="2.23946">
        <ele>1463</ele>
        <time>2010-01-01T02:17:51Z</time>
      </trkpt>
      <trkpt lat="42.29896" lon="2.23944">
        <ele>1463</ele>
        <time>2010-01-01T02:17:52Z</time>
      </trkpt>
      <trkpt lat="42.29898" lon="2.23941">
        <ele>1462</ele>
        <time>2010-01-01T02:17:53Z</time>
      </trkpt>
      <trkpt lat="42.299" lon="2.23939">
        <ele>1462</ele>
        <time>2010-01-01T02:17:54Z</time>
      </trkpt>
      <trkpt lat="42.29902" lon="2.23936">
        <ele>1461</ele>
        <time>2010-01-01T02:17:55Z</time>
      </trkpt>
      <trkpt lat="42.29904" lon="2.23933">
        <ele>1461</ele>
        <time>2010-01-01T02:17:57Z</time>
      </trkpt>
      <trkpt lat="42.29906" lon="2.23931">
        <ele>1460</ele>
        <time>2010-01-01T02:17:58Z</time>
      </trkpt>
      <trkpt lat="42.29907" lon="2.23928">
        <ele>1460</ele>
        <time>2010-01-01T02:17:59Z</time>
      </trkpt>
      <trkpt lat="42.29909" lon="2.23925">
        <ele>1459</ele>
        <time>2010-01-01T02:18:00Z</time>
      </trkpt>
      <trkpt lat="42.29911" lon="2.23922">
        <ele>1459</ele>
        <time>2010-01-01T02:18:01Z</time>
      </trkpt>
      <trkpt lat="42.29913" lon="2.23919">
        <ele>1458</ele>
        <time>2010-01-01T02:18:02Z</time>
      </trkpt>
      <trkpt lat="42.29915" lon="2.23916">
        <ele>1457</ele>
        <time>2010-01-01T02:18:03Z</time>
      </trkpt>
      <trkpt lat="42.29917" lon="2.23913">
        <ele>1457</ele>
        <time>2010-01-01T02:18:04Z</time>
      </trkpt>
      <trkpt lat="42.29918" lon="2.2391">
        <ele>1456</ele>
        <time>2010-01-01T02:18:06Z</time>
      </trkpt>
      <trkpt lat="42.2992" lon="2.23907">
        <ele>1455</ele>
        <time>2010-01-01T02:18:07Z</time>
      </trkpt>
      <trkpt lat="42.29922" lon="2.23904">
        <ele>1455</ele>
        <time>2010-01-01T02:18:08Z</time>
      </trkpt>
      <trkpt lat="42.29924" lon="2.23902">
        <ele>1454</ele>
        <time>2010-01-01T02:18:09Z</time>
      </trkpt>
      <trkpt lat="42.29926" lon="2.23899">
        <ele>1453</ele>
        <time>2010-01-01T02:18:10Z</time>
      </trkpt>
      <trkpt lat="42.29928" lon="2.23896">
        <ele>1453</ele>
        <time>2010-01-01T02:18:11Z</time>
      </trkpt>
      <trkpt lat="42.2993" lon="2.23894">
        <ele>1452</ele>
        <time>2010-01-01T02:18:12Z</time>
      </trkpt>
      <trkpt lat="42.29932" lon="2.23891">
        <ele>1452</ele>
        <time>2010-01-01T02:18:13Z</time>
      </trkpt>
      <trkpt lat="42.29934" lon="2.23889">
        <ele>1451</ele>
        <time>2010-01-01T02:18:15Z</time>
      </trkpt>
      <trkpt lat="42.29936" lon="2.23887">
        <ele>1451</ele>
        <time>2010-01-01T02:18:16Z</time>
      </trkpt>
      <trkpt lat="42.29938" lon="2.23884">
        <ele>1450</ele>
        <time>2010-01-01T02:18:17Z</time>
      </trkpt>
      <trkpt lat="42.29941" lon="2.23883">
        <ele>1450</ele>
        <time>2010-01-01T02:18:18Z</time>
      </trkpt>
      <trkpt lat="42.29943" lon="2.23881">
        <ele>1449</ele>
        <time>2010-01-01T02:18:19Z</time>
      </trkpt>
      <trkpt lat="42.29945" lon="2.23879">
        <ele>1449</ele>
        <time>2010-01-01T02:18:20Z</time>
      </trkpt>
      <trkpt lat="42.29948" lon="2.23877">
        <ele>1448</ele>
        <time>2010-01-01T02:18:21Z</time>
      </trkpt>
      <trkpt lat="42.2995" lon="2.23875">
        <ele>1448</ele>
        <time>2010-01-01T02:18:22Z</time>
      </trkpt>
      <trkpt lat="42.29952" lon="2.23874">
        <ele>1448</ele>
        <time>2010-01-01T02:18:23Z</time>
      </trkpt>
      <trkpt lat="42.29954" lon="2.23873">
        <ele>1447</ele>
        <time>2010-01-01T02:18:24Z</time>
      </trkpt>
      <trkpt lat="42.29956" lon="2.23872">
        <ele>1447</ele>
        <time>2010-01-01T02:18:25Z</time>
      </trkpt>
      <trkpt lat="42.29958" lon="2.23871">
        <ele>1447</ele>
        <time>2010-01-01T02:18:26Z</time>
      </trkpt>
      <trkpt lat="42.29961" lon="2.23869">
        <ele>1447</ele>
        <time>2010-01-01T02:18:27Z</time>
      </trkpt>
      <trkpt lat="42.29963" lon="2.23868">
        <ele>1447</ele>
        <time>2010-01-01T02:18:28Z</time>
      </trkpt>
      <trkpt lat="42.29966" lon="2.23867">
        <ele>1447</ele>
        <time>2010-01-01T02:18:29Z</time>
      </trkpt>
      <trkpt lat="42.29968" lon="2.23866">
        <ele>1446</ele>
        <time>2010-01-01T02:18:30Z</time>
      </trkpt>
      <trkpt lat="42.2997" lon="2.23864">
        <ele>1446</ele>
        <time>2010-01-01T02:18:31Z</time>
      </trkpt>
      <trkpt lat="42.29972" lon="2.23863">
        <ele>1446</ele>
        <time>2010-01-01T02:18:32Z</time>
      </trkpt>
      <trkpt lat="42.29975" lon="2.23862">
        <ele>1445</ele>
        <time>2010-01-01T02:18:33Z</time>
      </trkpt>
      <trkpt lat="42.29977" lon="2.2386">
        <ele>1445</ele>
        <time>2010-01-01T02:18:34Z</time>
      </trkpt>
      <trkpt lat="42.2998" lon="2.23859">
        <ele>1444</ele>
        <time>2010-01-01T02:18:35Z</time>
      </trkpt>
      <trkpt lat="42.29982" lon="2.23858">
        <ele>1444</ele>
        <time>2010-01-01T02:18:36Z</time>
      </trkpt>
      <trkpt lat="42.29984" lon="2.23856">
        <ele>1443</ele>
        <time>2010-01-01T02:18:37Z</time>
      </trkpt>
      <trkpt lat="42.29986" lon="2.23855">
        <ele>1443</ele>
        <time>2010-01-01T02:18:38Z</time>
      </trkpt>
      <trkpt lat="42.29988" lon="2.23854">
        <ele>1443</ele>
        <time>2010-01-01T02:18:38Z</time>
      </trkpt>
      <trkpt lat="42.2999" lon="2.23852">
        <ele>1442</ele>
        <time>2010-01-01T02:18:40Z</time>
      </trkpt>
      <trkpt lat="42.29992" lon="2.23849">
        <ele>1441</ele>
        <time>2010-01-01T02:18:41Z</time>
      </trkpt>
      <trkpt lat="42.29994" lon="2.23846">
        <ele>1440</ele>
        <time>2010-01-01T02:18:42Z</time>
      </trkpt>
      <trkpt lat="42.29995" lon="2.23843">
        <ele>1440</ele>
        <time>2010-01-01T02:18:43Z</time>
      </trkpt>
      <trkpt lat="42.29996" lon="2.2384">
        <ele>1439</ele>
        <time>2010-01-01T02:18:44Z</time>
      </trkpt>
      <trkpt lat="42.29995" lon="2.23837">
        <ele>1438</ele>
        <time>2010-01-01T02:18:45Z</time>
      </trkpt>
      <trkpt lat="42.29994" lon="2.23834">
        <ele>1438</ele>
        <time>2010-01-01T02:18:46Z</time>
      </trkpt>
      <trkpt lat="42.29992" lon="2.23832">
        <ele>1437</ele>
        <time>2010-01-01T02:18:47Z</time>
      </trkpt>
      <trkpt lat="42.29989" lon="2.23831">
        <ele>1437</ele>
        <time>2010-01-01T02:18:48Z</time>
      </trkpt>
      <trkpt lat="42.29987" lon="2.23831">
        <ele>1437</ele>
        <time>2010-01-01T02:18:49Z</time>
      </trkpt>
      <trkpt lat="42.29984" lon="2.2383">
        <ele>1437</ele>
        <time>2010-01-01T02:18:50Z</time>
      </trkpt>
      <trkpt lat="42.29982" lon="2.23829">
        <ele>1437</ele>
        <time>2010-01-01T02:18:51Z</time>
      </trkpt>
      <trkpt lat="42.29979" lon="2.23828">
        <ele>1437</ele>
        <time>2010-01-01T02:18:52Z</time>
      </trkpt>
      <trkpt lat="42.29977" lon="2.23827">
        <ele>1437</ele>
        <time>2010-01-01T02:18:53Z</time>
      </trkpt>
      <trkpt lat="42.29975" lon="2.23825">
        <ele>1437</ele>
        <time>2010-01-01T02:18:54Z</time>
      </trkpt>
      <trkpt lat="42.29972" lon="2.23823">
        <ele>1436</ele>
        <time>2010-01-01T02:18:55Z</time>
      </trkpt>
      <trkpt lat="42.2997" lon="2.23822">
        <ele>1436</ele>
        <time>2010-01-01T02:18:56Z</time>
      </trkpt>
      <trkpt lat="42.29968" lon="2.23821">
        <ele>1436</ele>
        <time>2010-01-01T02:18:57Z</time>
      </trkpt>
      <trkpt lat="42.29966" lon="2.23821">
        <ele>1436</ele>
        <time>2010-01-01T02:18:58Z</time>
      </trkpt>
      <trkpt lat="42.29964" lon="2.23821">
        <ele>1437</ele>
        <time>2010-01-01T02:18:59Z</time>
      </trkpt>
      <trkpt lat="42.29961" lon="2.23822">
        <ele>1437</ele>
        <time>2010-01-01T02:19:00Z</time>
      </trkpt>
      <trkpt lat="42.2996" lon="2.23823">
        <ele>1437</ele>
        <time>2010-01-01T02:19:00Z</time>
      </trkpt>
      <trkpt lat="42.29957" lon="2.23823">
        <ele>1437</ele>
        <time>2010-01-01T02:19:01Z</time>
      </trkpt>
      <trkpt lat="42.29955" lon="2.23824">
        <ele>1437</ele>
        <time>2010-01-01T02:19:02Z</time>
      </trkpt>
      <trkpt lat="42.29953" lon="2.23825">
        <ele>1437</ele>
        <time>2010-01-01T02:19:03Z</time>
      </trkpt>
      <trkpt lat="42.29951" lon="2.23826">
        <ele>1438</ele>
        <time>2010-01-01T02:19:04Z</time>
      </trkpt>
      <trkpt lat="42.29949" lon="2.23826">
        <ele>1438</ele>
        <time>2010-01-01T02:19:05Z</time>
      </trkpt>
      <trkpt lat="42.29946" lon="2.23826">
        <ele>1438</ele>
        <time>2010-01-01T02:19:06Z</time>
      </trkpt>
      <trkpt lat="42.29945" lon="2.23825">
        <ele>1438</ele>
        <time>2010-01-01T02:19:07Z</time>
      </trkpt>
      <trkpt lat="42.29943" lon="2.23824">
        <ele>1438</ele>
        <time>2010-01-01T02:19:07Z</time>
      </trkpt>
      <trkpt lat="42.29942" lon="2.23821">
        <ele>1438</ele>
        <time>2010-01-01T02:19:08Z</time>
      </trkpt>
      <trkpt lat="42.29942" lon="2.23818">
        <ele>1438</ele>
        <time>2010-01-01T02:19:09Z</time>
      </trkpt>
      <trkpt lat="42.29943" lon="2.23815">
        <ele>1437</ele>
        <time>2010-01-01T02:19:10Z</time>
      </trkpt>
      <trkpt lat="42.29944" lon="2.23812">
        <ele>1437</ele>
        <time>2010-01-01T02:19:11Z</time>
      </trkpt>
      <trkpt lat="42.29946" lon="2.23809">
        <ele>1437</ele>
        <time>2010-01-01T02:19:12Z</time>
      </trkpt>
      <trkpt lat="42.29947" lon="2.23806">
        <ele>1436</ele>
        <time>2010-01-01T02:19:13Z</time>
      </trkpt>
      <trkpt lat="42.29948" lon="2.23804">
        <ele>1436</ele>
        <time>2010-01-01T02:19:14Z</time>
      </trkpt>
      <trkpt lat="42.29949" lon="2.23801">
        <ele>1437</ele>
        <time>2010-01-01T02:19:15Z</time>
      </trkpt>
      <trkpt lat="42.29951" lon="2.23799">
        <ele>1437</ele>
        <time>2010-01-01T02:19:16Z</time>
      </trkpt>
      <trkpt lat="42.29952" lon="2.23797">
        <ele>1437</ele>
        <time>2010-01-01T02:19:17Z</time>
      </trkpt>
      <trkpt lat="42.29953" lon="2.23795">
        <ele>1437</ele>
        <time>2010-01-01T02:19:17Z</time>
      </trkpt>
      <trkpt lat="42.29954" lon="2.23792">
        <ele>1438</ele>
        <time>2010-01-01T02:19:18Z</time>
      </trkpt>
      <trkpt lat="42.29955" lon="2.23789">
        <ele>1438</ele>
        <time>2010-01-01T02:19:19Z</time>
      </trkpt>
      <trkpt lat="42.29957" lon="2.23786">
        <ele>1438</ele>
        <time>2010-01-01T02:19:20Z</time>
      </trkpt>
      <trkpt lat="42.29958" lon="2.23783">
        <ele>1438</ele>
        <time>2010-01-01T02:19:22Z</time>
      </trkpt>
      <trkpt lat="42.2996" lon="2.2378">
        <ele>1439</ele>
        <time>2010-01-01T02:19:23Z</time>
      </trkpt>
      <trkpt lat="42.29962" lon="2.23777">
        <ele>1439</ele>
        <time>2010-01-01T02:19:24Z</time>
      </trkpt>
      <trkpt lat="42.29964" lon="2.23775">
        <ele>1439</ele>
        <time>2010-01-01T02:19:25Z</time>
      </trkpt>
      <trkpt lat="42.29967" lon="2.23772">
        <ele>1439</ele>
        <time>2010-01-01T02:19:26Z</time>
      </trkpt>
      <trkpt lat="42.29969" lon="2.23769">
        <ele>1439</ele>
        <time>2010-01-01T02:19:28Z</time>
      </trkpt>
      <trkpt lat="42.29971" lon="2.23766">
        <ele>1439</ele>
        <time>2010-01-01T02:19:29Z</time>
      </trkpt>
      <trkpt lat="42.29973" lon="2.23763">
        <ele>1438</ele>
        <time>2010-01-01T02:19:30Z</time>
      </trkpt>
      <trkpt lat="42.29975" lon="2.2376">
        <ele>1438</ele>
        <time>2010-01-01T02:19:31Z</time>
      </trkpt>
      <trkpt lat="42.29977" lon="2.23756">
        <ele>1438</ele>
        <time>2010-01-01T02:19:33Z</time>
      </trkpt>
      <trkpt lat="42.29979" lon="2.23753">
        <ele>1438</ele>
        <time>2010-01-01T02:19:34Z</time>
      </trkpt>
      <trkpt lat="42.2998" lon="2.23749">
        <ele>1438</ele>
        <time>2010-01-01T02:19:35Z</time>
      </trkpt>
      <trkpt lat="42.29982" lon="2.23746">
        <ele>1438</ele>
        <time>2010-01-01T02:19:36Z</time>
      </trkpt>
      <trkpt lat="42.29984" lon="2.23744">
        <ele>1438</ele>
        <time>2010-01-01T02:19:37Z</time>
      </trkpt>
      <trkpt lat="42.29986" lon="2.23741">
        <ele>1437</ele>
        <time>2010-01-01T02:19:38Z</time>
      </trkpt>
      <trkpt lat="42.29989" lon="2.23738">
        <ele>1437</ele>
        <time>2010-01-01T02:19:40Z</time>
      </trkpt>
      <trkpt lat="42.29991" lon="2.23736">
        <ele>1437</ele>
        <time>2010-01-01T02:19:41Z</time>
      </trkpt>
      <trkpt lat="42.29994" lon="2.23733">
        <ele>1437</ele>
        <time>2010-01-01T02:19:42Z</time>
      </trkpt>
      <trkpt lat="42.29996" lon="2.2373">
        <ele>1437</ele>
        <time>2010-01-01T02:19:44Z</time>
      </trkpt>
      <trkpt lat="42.29998" lon="2.23727">
        <ele>1436</ele>
        <time>2010-01-01T02:19:45Z</time>
      </trkpt>
      <trkpt lat="42.3" lon="2.23726">
        <ele>1436</ele>
        <time>2010-01-01T02:19:46Z</time>
      </trkpt>
      <trkpt lat="42.30003" lon="2.23724">
        <ele>1436</ele>
        <time>2010-01-01T02:19:47Z</time>
      </trkpt>
      <trkpt lat="42.30005" lon="2.23723">
        <ele>1436</ele>
        <time>2010-01-01T02:19:48Z</time>
      </trkpt>
      <trkpt lat="42.30006" lon="2.23721">
        <ele>1436</ele>
        <time>2010-01-01T02:19:49Z</time>
      </trkpt>
      <trkpt lat="42.30008" lon="2.23719">
        <ele>1435</ele>
        <time>2010-01-01T02:19:49Z</time>
      </trkpt>
      <trkpt lat="42.3001" lon="2.23717">
        <ele>1435</ele>
        <time>2010-01-01T02:19:50Z</time>
      </trkpt>
      <trkpt lat="42.30011" lon="2.23716">
        <ele>1435</ele>
        <time>2010-01-01T02:19:51Z</time>
      </trkpt>
      <trkpt lat="42.30013" lon="2.23714">
        <ele>1435</ele>
        <time>2010-01-01T02:19:52Z</time>
      </trkpt>
      <trkpt lat="42.30015" lon="2.23713">
        <ele>1435</ele>
        <time>2010-01-01T02:19:53Z</time>
      </trkpt>
      <trkpt lat="42.30017" lon="2.23711">
        <ele>1434</ele>
        <time>2010-01-01T02:19:54Z</time>
      </trkpt>
      <trkpt lat="42.30019" lon="2.2371">
        <ele>1434</ele>
        <time>2010-01-01T02:19:55Z</time>
      </trkpt>
      <trkpt lat="42.30022" lon="2.23708">
        <ele>1434</ele>
        <time>2010-01-01T02:19:56Z</time>
      </trkpt>
      <trkpt lat="42.30024" lon="2.23707">
        <ele>1434</ele>
        <time>2010-01-01T02:19:57Z</time>
      </trkpt>
      <trkpt lat="42.30026" lon="2.23706">
        <ele>1433</ele>
        <time>2010-01-01T02:19:58Z</time>
      </trkpt>
      <trkpt lat="42.30029" lon="2.23704">
        <ele>1433</ele>
        <time>2010-01-01T02:19:59Z</time>
      </trkpt>
      <trkpt lat="42.30031" lon="2.23703">
        <ele>1433</ele>
        <time>2010-01-01T02:20:00Z</time>
      </trkpt>
      <trkpt lat="42.30033" lon="2.237">
        <ele>1432</ele>
        <time>2010-01-01T02:20:01Z</time>
      </trkpt>
      <trkpt lat="42.30035" lon="2.23698">
        <ele>1432</ele>
        <time>2010-01-01T02:20:02Z</time>
      </trkpt>
      <trkpt lat="42.30038" lon="2.23696">
        <ele>1432</ele>
        <time>2010-01-01T02:20:03Z</time>
      </trkpt>
      <trkpt lat="42.30039" lon="2.23693">
        <ele>1431</ele>
        <time>2010-01-01T02:20:04Z</time>
      </trkpt>
      <trkpt lat="42.30041" lon="2.23691">
        <ele>1431</ele>
        <time>2010-01-01T02:20:05Z</time>
      </trkpt>
      <trkpt lat="42.30042" lon="2.23688">
        <ele>1431</ele>
        <time>2010-01-01T02:20:06Z</time>
      </trkpt>
      <trkpt lat="42.30044" lon="2.23685">
        <ele>1431</ele>
        <time>2010-01-01T02:20:07Z</time>
      </trkpt>
      <trkpt lat="42.30046" lon="2.23682">
        <ele>1430</ele>
        <time>2010-01-01T02:20:09Z</time>
      </trkpt>
      <trkpt lat="42.30047" lon="2.23678">
        <ele>1430</ele>
        <time>2010-01-01T02:20:10Z</time>
      </trkpt>
      <trkpt lat="42.30049" lon="2.23675">
        <ele>1430</ele>
        <time>2010-01-01T02:20:11Z</time>
      </trkpt>
      <trkpt lat="42.30051" lon="2.23672">
        <ele>1429</ele>
        <time>2010-01-01T02:20:12Z</time>
      </trkpt>
      <trkpt lat="42.30052" lon="2.2367">
        <ele>1429</ele>
        <time>2010-01-01T02:20:13Z</time>
      </trkpt>
      <trkpt lat="42.30054" lon="2.23667">
        <ele>1429</ele>
        <time>2010-01-01T02:20:14Z</time>
      </trkpt>
      <trkpt lat="42.30056" lon="2.23664">
        <ele>1428</ele>
        <time>2010-01-01T02:20:15Z</time>
      </trkpt>
      <trkpt lat="42.30058" lon="2.23662">
        <ele>1428</ele>
        <time>2010-01-01T02:20:16Z</time>
      </trkpt>
      <trkpt lat="42.3006" lon="2.23659">
        <ele>1427</ele>
        <time>2010-01-01T02:20:17Z</time>
      </trkpt>
      <trkpt lat="42.30061" lon="2.23657">
        <ele>1427</ele>
        <time>2010-01-01T02:20:18Z</time>
      </trkpt>
      <trkpt lat="42.30063" lon="2.23654">
        <ele>1427</ele>
        <time>2010-01-01T02:20:19Z</time>
      </trkpt>
      <trkpt lat="42.30064" lon="2.23651">
        <ele>1427</ele>
        <time>2010-01-01T02:20:20Z</time>
      </trkpt>
      <trkpt lat="42.30065" lon="2.23648">
        <ele>1426</ele>
        <time>2010-01-01T02:20:21Z</time>
      </trkpt>
      <trkpt lat="42.30067" lon="2.23646">
        <ele>1426</ele>
        <time>2010-01-01T02:20:22Z</time>
      </trkpt>
      <trkpt lat="42.30067" lon="2.23643">
        <ele>1426</ele>
        <time>2010-01-01T02:20:23Z</time>
      </trkpt>
      <trkpt lat="42.30067" lon="2.2364">
        <ele>1426</ele>
        <time>2010-01-01T02:20:24Z</time>
      </trkpt>
      <trkpt lat="42.30067" lon="2.23637">
        <ele>1426</ele>
        <time>2010-01-01T02:20:25Z</time>
      </trkpt>
      <trkpt lat="42.30066" lon="2.23635">
        <ele>1427</ele>
        <time>2010-01-01T02:20:25Z</time>
      </trkpt>
      <trkpt lat="42.30065" lon="2.23632">
        <ele>1427</ele>
        <time>2010-01-01T02:20:26Z</time>
      </trkpt>
      <trkpt lat="42.30064" lon="2.23629">
        <ele>1428</ele>
        <time>2010-01-01T02:20:27Z</time>
      </trkpt>
      <trkpt lat="42.30064" lon="2.23626">
        <ele>1428</ele>
        <time>2010-01-01T02:20:28Z</time>
      </trkpt>
      <trkpt lat="42.30063" lon="2.23623">
        <ele>1428</ele>
        <time>2010-01-01T02:20:29Z</time>
      </trkpt>
      <trkpt lat="42.30063" lon="2.2362">
        <ele>1429</ele>
        <time>2010-01-01T02:20:30Z</time>
      </trkpt>
      <trkpt lat="42.30063" lon="2.23613">
        <ele>1429</ele>
        <time>2010-01-01T02:20:32Z</time>
      </trkpt>
      <trkpt lat="42.30064" lon="2.2361">
        <ele>1429</ele>
        <time>2010-01-01T02:20:33Z</time>
      </trkpt>
      <trkpt lat="42.30065" lon="2.23607">
        <ele>1429</ele>
        <time>2010-01-01T02:20:34Z</time>
      </trkpt>
      <trkpt lat="42.30067" lon="2.23604">
        <ele>1429</ele>
        <time>2010-01-01T02:20:35Z</time>
      </trkpt>
      <trkpt lat="42.30068" lon="2.23601">
        <ele>1430</ele>
        <time>2010-01-01T02:20:36Z</time>
      </trkpt>
      <trkpt lat="42.3007" lon="2.23599">
        <ele>1429</ele>
        <time>2010-01-01T02:20:37Z</time>
      </trkpt>
      <trkpt lat="42.30072" lon="2.23596">
        <ele>1429</ele>
        <time>2010-01-01T02:20:38Z</time>
      </trkpt>
      <trkpt lat="42.30074" lon="2.23593">
        <ele>1429</ele>
        <time>2010-01-01T02:20:39Z</time>
      </trkpt>
      <trkpt lat="42.30075" lon="2.2359">
        <ele>1429</ele>
        <time>2010-01-01T02:20:40Z</time>
      </trkpt>
      <trkpt lat="42.30077" lon="2.23588">
        <ele>1429</ele>
        <time>2010-01-01T02:20:42Z</time>
      </trkpt>
      <trkpt lat="42.3008" lon="2.23586">
        <ele>1428</ele>
        <time>2010-01-01T02:20:43Z</time>
      </trkpt>
      <trkpt lat="42.30082" lon="2.23585">
        <ele>1428</ele>
        <time>2010-01-01T02:20:43Z</time>
      </trkpt>
      <trkpt lat="42.30084" lon="2.23585">
        <ele>1427</ele>
        <time>2010-01-01T02:20:45Z</time>
      </trkpt>
      <trkpt lat="42.30087" lon="2.23584">
        <ele>1426</ele>
        <time>2010-01-01T02:20:46Z</time>
      </trkpt>
      <trkpt lat="42.3009" lon="2.23583">
        <ele>1426</ele>
        <time>2010-01-01T02:20:47Z</time>
      </trkpt>
      <trkpt lat="42.30093" lon="2.23583">
        <ele>1425</ele>
        <time>2010-01-01T02:20:48Z</time>
      </trkpt>
      <trkpt lat="42.30095" lon="2.23582">
        <ele>1424</ele>
        <time>2010-01-01T02:20:49Z</time>
      </trkpt>
      <trkpt lat="42.30097" lon="2.23581">
        <ele>1424</ele>
        <time>2010-01-01T02:20:50Z</time>
      </trkpt>
      <trkpt lat="42.301" lon="2.23579">
        <ele>1423</ele>
        <time>2010-01-01T02:20:51Z</time>
      </trkpt>
      <trkpt lat="42.30102" lon="2.23578">
        <ele>1423</ele>
        <time>2010-01-01T02:20:52Z</time>
      </trkpt>
      <trkpt lat="42.30104" lon="2.23576">
        <ele>1422</ele>
        <time>2010-01-01T02:20:53Z</time>
      </trkpt>
      <trkpt lat="42.30107" lon="2.23574">
        <ele>1422</ele>
        <time>2010-01-01T02:20:54Z</time>
      </trkpt>
      <trkpt lat="42.30109" lon="2.23573">
        <ele>1421</ele>
        <time>2010-01-01T02:20:55Z</time>
      </trkpt>
      <trkpt lat="42.30111" lon="2.23571">
        <ele>1421</ele>
        <time>2010-01-01T02:20:56Z</time>
      </trkpt>
      <trkpt lat="42.30113" lon="2.23569">
        <ele>1420</ele>
        <time>2010-01-01T02:20:57Z</time>
      </trkpt>
      <trkpt lat="42.30116" lon="2.23567">
        <ele>1420</ele>
        <time>2010-01-01T02:20:58Z</time>
      </trkpt>
      <trkpt lat="42.30118" lon="2.23565">
        <ele>1419</ele>
        <time>2010-01-01T02:20:59Z</time>
      </trkpt>
      <trkpt lat="42.3012" lon="2.23563">
        <ele>1418</ele>
        <time>2010-01-01T02:21:00Z</time>
      </trkpt>
      <trkpt lat="42.30122" lon="2.23562">
        <ele>1418</ele>
        <time>2010-01-01T02:21:01Z</time>
      </trkpt>
      <trkpt lat="42.30124" lon="2.2356">
        <ele>1417</ele>
        <time>2010-01-01T02:21:02Z</time>
      </trkpt>
      <trkpt lat="42.30126" lon="2.23558">
        <ele>1416</ele>
        <time>2010-01-01T02:21:03Z</time>
      </trkpt>
      <trkpt lat="42.30129" lon="2.23556">
        <ele>1416</ele>
        <time>2010-01-01T02:21:04Z</time>
      </trkpt>
      <trkpt lat="42.30131" lon="2.23554">
        <ele>1415</ele>
        <time>2010-01-01T02:21:05Z</time>
      </trkpt>
      <trkpt lat="42.30133" lon="2.23552">
        <ele>1415</ele>
        <time>2010-01-01T02:21:06Z</time>
      </trkpt>
      <trkpt lat="42.30134" lon="2.2355">
        <ele>1414</ele>
        <time>2010-01-01T02:21:07Z</time>
      </trkpt>
      <trkpt lat="42.30136" lon="2.23547">
        <ele>1414</ele>
        <time>2010-01-01T02:21:08Z</time>
      </trkpt>
      <trkpt lat="42.30138" lon="2.23544">
        <ele>1414</ele>
        <time>2010-01-01T02:21:09Z</time>
      </trkpt>
      <trkpt lat="42.30139" lon="2.23542">
        <ele>1414</ele>
        <time>2010-01-01T02:21:10Z</time>
      </trkpt>
      <trkpt lat="42.30141" lon="2.23539">
        <ele>1414</ele>
        <time>2010-01-01T02:21:11Z</time>
      </trkpt>
      <trkpt lat="42.30143" lon="2.23537">
        <ele>1414</ele>
        <time>2010-01-01T02:21:12Z</time>
      </trkpt>
      <trkpt lat="42.30145" lon="2.23535">
        <ele>1414</ele>
        <time>2010-01-01T02:21:13Z</time>
      </trkpt>
      <trkpt lat="42.30146" lon="2.23533">
        <ele>1414</ele>
        <time>2010-01-01T02:21:14Z</time>
      </trkpt>
      <trkpt lat="42.30148" lon="2.23531">
        <ele>1414</ele>
        <time>2010-01-01T02:21:15Z</time>
      </trkpt>
      <trkpt lat="42.3015" lon="2.23528">
        <ele>1413</ele>
        <time>2010-01-01T02:21:16Z</time>
      </trkpt>
      <trkpt lat="42.30151" lon="2.23526">
        <ele>1413</ele>
        <time>2010-01-01T02:21:17Z</time>
      </trkpt>
      <trkpt lat="42.30153" lon="2.23523">
        <ele>1413</ele>
        <time>2010-01-01T02:21:18Z</time>
      </trkpt>
      <trkpt lat="42.30154" lon="2.2352">
        <ele>1413</ele>
        <time>2010-01-01T02:21:19Z</time>
      </trkpt>
      <trkpt lat="42.30156" lon="2.23517">
        <ele>1413</ele>
        <time>2010-01-01T02:21:20Z</time>
      </trkpt>
      <trkpt lat="42.30158" lon="2.23515">
        <ele>1413</ele>
        <time>2010-01-01T02:21:21Z</time>
      </trkpt>
      <trkpt lat="42.3016" lon="2.23513">
        <ele>1413</ele>
        <time>2010-01-01T02:21:22Z</time>
      </trkpt>
      <trkpt lat="42.30162" lon="2.23511">
        <ele>1412</ele>
        <time>2010-01-01T02:21:23Z</time>
      </trkpt>
      <trkpt lat="42.30164" lon="2.23508">
        <ele>1412</ele>
        <time>2010-01-01T02:21:25Z</time>
      </trkpt>
      <trkpt lat="42.30166" lon="2.23506">
        <ele>1412</ele>
        <time>2010-01-01T02:21:26Z</time>
      </trkpt>
      <trkpt lat="42.30168" lon="2.23504">
        <ele>1412</ele>
        <time>2010-01-01T02:21:27Z</time>
      </trkpt>
      <trkpt lat="42.3017" lon="2.23502">
        <ele>1411</ele>
        <time>2010-01-01T02:21:28Z</time>
      </trkpt>
      <trkpt lat="42.30172" lon="2.23499">
        <ele>1410</ele>
        <time>2010-01-01T02:21:29Z</time>
      </trkpt>
      <trkpt lat="42.30174" lon="2.23497">
        <ele>1410</ele>
        <time>2010-01-01T02:21:30Z</time>
      </trkpt>
      <trkpt lat="42.30176" lon="2.23495">
        <ele>1409</ele>
        <time>2010-01-01T02:21:31Z</time>
      </trkpt>
      <trkpt lat="42.30178" lon="2.23492">
        <ele>1409</ele>
        <time>2010-01-01T02:21:32Z</time>
      </trkpt>
      <trkpt lat="42.30181" lon="2.2349">
        <ele>1408</ele>
        <time>2010-01-01T02:21:33Z</time>
      </trkpt>
      <trkpt lat="42.30183" lon="2.23487">
        <ele>1407</ele>
        <time>2010-01-01T02:21:34Z</time>
      </trkpt>
      <trkpt lat="42.30185" lon="2.23485">
        <ele>1407</ele>
        <time>2010-01-01T02:21:35Z</time>
      </trkpt>
      <trkpt lat="42.30187" lon="2.23484">
        <ele>1406</ele>
        <time>2010-01-01T02:21:36Z</time>
      </trkpt>
      <trkpt lat="42.30189" lon="2.23482">
        <ele>1405</ele>
        <time>2010-01-01T02:21:37Z</time>
      </trkpt>
      <trkpt lat="42.30192" lon="2.2348">
        <ele>1405</ele>
        <time>2010-01-01T02:21:38Z</time>
      </trkpt>
      <trkpt lat="42.30194" lon="2.23478">
        <ele>1404</ele>
        <time>2010-01-01T02:21:39Z</time>
      </trkpt>
      <trkpt lat="42.30196" lon="2.23476">
        <ele>1404</ele>
        <time>2010-01-01T02:21:40Z</time>
      </trkpt>
      <trkpt lat="42.30198" lon="2.23474">
        <ele>1403</ele>
        <time>2010-01-01T02:21:41Z</time>
      </trkpt>
      <trkpt lat="42.302" lon="2.23472">
        <ele>1403</ele>
        <time>2010-01-01T02:21:43Z</time>
      </trkpt>
      <trkpt lat="42.30202" lon="2.2347">
        <ele>1402</ele>
        <time>2010-01-01T02:21:44Z</time>
      </trkpt>
      <trkpt lat="42.30204" lon="2.23468">
        <ele>1402</ele>
        <time>2010-01-01T02:21:44Z</time>
      </trkpt>
      <trkpt lat="42.30206" lon="2.23466">
        <ele>1401</ele>
        <time>2010-01-01T02:21:45Z</time>
      </trkpt>
      <trkpt lat="42.30208" lon="2.23464">
        <ele>1401</ele>
        <time>2010-01-01T02:21:47Z</time>
      </trkpt>
      <trkpt lat="42.3021" lon="2.23462">
        <ele>1400</ele>
        <time>2010-01-01T02:21:48Z</time>
      </trkpt>
      <trkpt lat="42.30212" lon="2.23459">
        <ele>1400</ele>
        <time>2010-01-01T02:21:48Z</time>
      </trkpt>
      <trkpt lat="42.30213" lon="2.23457">
        <ele>1399</ele>
        <time>2010-01-01T02:21:49Z</time>
      </trkpt>
      <trkpt lat="42.30215" lon="2.23455">
        <ele>1399</ele>
        <time>2010-01-01T02:21:50Z</time>
      </trkpt>
      <trkpt lat="42.30217" lon="2.23453">
        <ele>1399</ele>
        <time>2010-01-01T02:21:51Z</time>
      </trkpt>
      <trkpt lat="42.30219" lon="2.2345">
        <ele>1398</ele>
        <time>2010-01-01T02:21:52Z</time>
      </trkpt>
      <trkpt lat="42.3022" lon="2.23448">
        <ele>1398</ele>
        <time>2010-01-01T02:21:53Z</time>
      </trkpt>
      <trkpt lat="42.30222" lon="2.23445">
        <ele>1398</ele>
        <time>2010-01-01T02:21:54Z</time>
      </trkpt>
      <trkpt lat="42.30224" lon="2.23443">
        <ele>1397</ele>
        <time>2010-01-01T02:21:55Z</time>
      </trkpt>
      <trkpt lat="42.30225" lon="2.23441">
        <ele>1397</ele>
        <time>2010-01-01T02:21:56Z</time>
      </trkpt>
      <trkpt lat="42.30227" lon="2.23438">
        <ele>1397</ele>
        <time>2010-01-01T02:21:57Z</time>
      </trkpt>
      <trkpt lat="42.30229" lon="2.23436">
        <ele>1397</ele>
        <time>2010-01-01T02:21:58Z</time>
      </trkpt>
      <trkpt lat="42.30231" lon="2.23434">
        <ele>1397</ele>
        <time>2010-01-01T02:21:59Z</time>
      </trkpt>
      <trkpt lat="42.30233" lon="2.23432">
        <ele>1397</ele>
        <time>2010-01-01T02:22:00Z</time>
      </trkpt>
      <trkpt lat="42.30235" lon="2.2343">
        <ele>1397</ele>
        <time>2010-01-01T02:22:01Z</time>
      </trkpt>
      <trkpt lat="42.30237" lon="2.23428">
        <ele>1397</ele>
        <time>2010-01-01T02:22:02Z</time>
      </trkpt>
      <trkpt lat="42.3024" lon="2.23425">
        <ele>1397</ele>
        <time>2010-01-01T02:22:04Z</time>
      </trkpt>
      <trkpt lat="42.30242" lon="2.23423">
        <ele>1397</ele>
        <time>2010-01-01T02:22:05Z</time>
      </trkpt>
      <trkpt lat="42.30244" lon="2.23421">
        <ele>1397</ele>
        <time>2010-01-01T02:22:06Z</time>
      </trkpt>
      <trkpt lat="42.30247" lon="2.23419">
        <ele>1397</ele>
        <time>2010-01-01T02:22:07Z</time>
      </trkpt>
      <trkpt lat="42.30249" lon="2.23418">
        <ele>1397</ele>
        <time>2010-01-01T02:22:08Z</time>
      </trkpt>
      <trkpt lat="42.30252" lon="2.23416">
        <ele>1396</ele>
        <time>2010-01-01T02:22:09Z</time>
      </trkpt>
      <trkpt lat="42.30254" lon="2.23414">
        <ele>1396</ele>
        <time>2010-01-01T02:22:10Z</time>
      </trkpt>
      <trkpt lat="42.30256" lon="2.23412">
        <ele>1396</ele>
        <time>2010-01-01T02:22:11Z</time>
      </trkpt>
      <trkpt lat="42.30259" lon="2.2341">
        <ele>1396</ele>
        <time>2010-01-01T02:22:13Z</time>
      </trkpt>
      <trkpt lat="42.30261" lon="2.23408">
        <ele>1395</ele>
        <time>2010-01-01T02:22:14Z</time>
      </trkpt>
      <trkpt lat="42.30264" lon="2.23406">
        <ele>1395</ele>
        <time>2010-01-01T02:22:15Z</time>
      </trkpt>
      <trkpt lat="42.30266" lon="2.23405">
        <ele>1395</ele>
        <time>2010-01-01T02:22:16Z</time>
      </trkpt>
      <trkpt lat="42.30268" lon="2.23404">
        <ele>1395</ele>
        <time>2010-01-01T02:22:17Z</time>
      </trkpt>
      <trkpt lat="42.30271" lon="2.23402">
        <ele>1394</ele>
        <time>2010-01-01T02:22:18Z</time>
      </trkpt>
      <trkpt lat="42.30273" lon="2.23401">
        <ele>1394</ele>
        <time>2010-01-01T02:22:19Z</time>
      </trkpt>
      <trkpt lat="42.30275" lon="2.23399">
        <ele>1394</ele>
        <time>2010-01-01T02:22:20Z</time>
      </trkpt>
      <trkpt lat="42.30277" lon="2.23397">
        <ele>1393</ele>
        <time>2010-01-01T02:22:21Z</time>
      </trkpt>
      <trkpt lat="42.30279" lon="2.23396">
        <ele>1393</ele>
        <time>2010-01-01T02:22:22Z</time>
      </trkpt>
      <trkpt lat="42.30281" lon="2.23394">
        <ele>1393</ele>
        <time>2010-01-01T02:22:23Z</time>
      </trkpt>
      <trkpt lat="42.30283" lon="2.23392">
        <ele>1393</ele>
        <time>2010-01-01T02:22:24Z</time>
      </trkpt>
      <trkpt lat="42.30285" lon="2.23391">
        <ele>1392</ele>
        <time>2010-01-01T02:22:25Z</time>
      </trkpt>
      <trkpt lat="42.30288" lon="2.23389">
        <ele>1392</ele>
        <time>2010-01-01T02:22:26Z</time>
      </trkpt>
      <trkpt lat="42.3029" lon="2.23388">
        <ele>1392</ele>
        <time>2010-01-01T02:22:27Z</time>
      </trkpt>
      <trkpt lat="42.30292" lon="2.23387">
        <ele>1392</ele>
        <time>2010-01-01T02:22:28Z</time>
      </trkpt>
      <trkpt lat="42.30294" lon="2.23386">
        <ele>1391</ele>
        <time>2010-01-01T02:22:28Z</time>
      </trkpt>
      <trkpt lat="42.30296" lon="2.23384">
        <ele>1391</ele>
        <time>2010-01-01T02:22:29Z</time>
      </trkpt>
      <trkpt lat="42.30299" lon="2.23382">
        <ele>1391</ele>
        <time>2010-01-01T02:22:31Z</time>
      </trkpt>
      <trkpt lat="42.30302" lon="2.2338">
        <ele>1391</ele>
        <time>2010-01-01T02:22:32Z</time>
      </trkpt>
      <trkpt lat="42.30304" lon="2.23379">
        <ele>1391</ele>
        <time>2010-01-01T02:22:33Z</time>
      </trkpt>
      <trkpt lat="42.30307" lon="2.23377">
        <ele>1391</ele>
        <time>2010-01-01T02:22:34Z</time>
      </trkpt>
      <trkpt lat="42.30309" lon="2.23375">
        <ele>1391</ele>
        <time>2010-01-01T02:22:35Z</time>
      </trkpt>
      <trkpt lat="42.30312" lon="2.23374">
        <ele>1391</ele>
        <time>2010-01-01T02:22:36Z</time>
      </trkpt>
      <trkpt lat="42.30314" lon="2.23373">
        <ele>1391</ele>
        <time>2010-01-01T02:22:37Z</time>
      </trkpt>
      <trkpt lat="42.30317" lon="2.23371">
        <ele>1391</ele>
        <time>2010-01-01T02:22:39Z</time>
      </trkpt>
      <trkpt lat="42.30319" lon="2.2337">
        <ele>1391</ele>
        <time>2010-01-01T02:22:40Z</time>
      </trkpt>
      <trkpt lat="42.30322" lon="2.23369">
        <ele>1391</ele>
        <time>2010-01-01T02:22:41Z</time>
      </trkpt>
      <trkpt lat="42.30324" lon="2.2337">
        <ele>1391</ele>
        <time>2010-01-01T02:22:41Z</time>
      </trkpt>
      <trkpt lat="42.30326" lon="2.2337">
        <ele>1391</ele>
        <time>2010-01-01T02:22:42Z</time>
      </trkpt>
      <trkpt lat="42.30328" lon="2.2337">
        <ele>1391</ele>
        <time>2010-01-01T02:22:43Z</time>
      </trkpt>
      <trkpt lat="42.30331" lon="2.2337">
        <ele>1391</ele>
        <time>2010-01-01T02:22:44Z</time>
      </trkpt>
      <trkpt lat="42.30333" lon="2.2337">
        <ele>1391</ele>
        <time>2010-01-01T02:22:45Z</time>
      </trkpt>
      <trkpt lat="42.30338" lon="2.2337">
        <ele>1390</ele>
        <time>2010-01-01T02:22:47Z</time>
      </trkpt>
      <trkpt lat="42.3034" lon="2.2337">
        <ele>1390</ele>
        <time>2010-01-01T02:22:48Z</time>
      </trkpt>
      <trkpt lat="42.30343" lon="2.23368">
        <ele>1389</ele>
        <time>2010-01-01T02:22:49Z</time>
      </trkpt>
      <trkpt lat="42.30346" lon="2.23367">
        <ele>1389</ele>
        <time>2010-01-01T02:22:50Z</time>
      </trkpt>
      <trkpt lat="42.30347" lon="2.23366">
        <ele>1389</ele>
        <time>2010-01-01T02:22:51Z</time>
      </trkpt>
      <trkpt lat="42.3035" lon="2.23362">
        <ele>1389</ele>
        <time>2010-01-01T02:22:53Z</time>
      </trkpt>
      <trkpt lat="42.30352" lon="2.2336">
        <ele>1389</ele>
        <time>2010-01-01T02:22:54Z</time>
      </trkpt>
      <trkpt lat="42.30354" lon="2.23357">
        <ele>1389</ele>
        <time>2010-01-01T02:22:55Z</time>
      </trkpt>
      <trkpt lat="42.30356" lon="2.23354">
        <ele>1388</ele>
        <time>2010-01-01T02:22:56Z</time>
      </trkpt>
      <trkpt lat="42.30358" lon="2.23351">
        <ele>1388</ele>
        <time>2010-01-01T02:22:57Z</time>
      </trkpt>
      <trkpt lat="42.30359" lon="2.23347">
        <ele>1388</ele>
        <time>2010-01-01T02:22:58Z</time>
      </trkpt>
      <trkpt lat="42.30361" lon="2.23343">
        <ele>1387</ele>
        <time>2010-01-01T02:23:00Z</time>
      </trkpt>
      <trkpt lat="42.30363" lon="2.2334">
        <ele>1387</ele>
        <time>2010-01-01T02:23:01Z</time>
      </trkpt>
      <trkpt lat="42.30365" lon="2.23337">
        <ele>1387</ele>
        <time>2010-01-01T02:23:02Z</time>
      </trkpt>
      <trkpt lat="42.30367" lon="2.23334">
        <ele>1386</ele>
        <time>2010-01-01T02:23:03Z</time>
      </trkpt>
      <trkpt lat="42.30368" lon="2.2333">
        <ele>1386</ele>
        <time>2010-01-01T02:23:05Z</time>
      </trkpt>
      <trkpt lat="42.3037" lon="2.23327">
        <ele>1386</ele>
        <time>2010-01-01T02:23:06Z</time>
      </trkpt>
      <trkpt lat="42.30372" lon="2.23324">
        <ele>1386</ele>
        <time>2010-01-01T02:23:07Z</time>
      </trkpt>
      <trkpt lat="42.30373" lon="2.23321">
        <ele>1385</ele>
        <time>2010-01-01T02:23:08Z</time>
      </trkpt>
      <trkpt lat="42.30375" lon="2.23318">
        <ele>1385</ele>
        <time>2010-01-01T02:23:09Z</time>
      </trkpt>
      <trkpt lat="42.30377" lon="2.23316">
        <ele>1385</ele>
        <time>2010-01-01T02:23:10Z</time>
      </trkpt>
      <trkpt lat="42.30379" lon="2.23315">
        <ele>1385</ele>
        <time>2010-01-01T02:23:11Z</time>
      </trkpt>
      <trkpt lat="42.30382" lon="2.23316">
        <ele>1384</ele>
        <time>2010-01-01T02:23:12Z</time>
      </trkpt>
      <trkpt lat="42.30384" lon="2.23318">
        <ele>1384</ele>
        <time>2010-01-01T02:23:13Z</time>
      </trkpt>
      <trkpt lat="42.30386" lon="2.23321">
        <ele>1383</ele>
        <time>2010-01-01T02:23:14Z</time>
      </trkpt>
      <trkpt lat="42.30388" lon="2.23324">
        <ele>1383</ele>
        <time>2010-01-01T02:23:15Z</time>
      </trkpt>
      <trkpt lat="42.30389" lon="2.23327">
        <ele>1383</ele>
        <time>2010-01-01T02:23:16Z</time>
      </trkpt>
      <trkpt lat="42.30391" lon="2.2333">
        <ele>1382</ele>
        <time>2010-01-01T02:23:18Z</time>
      </trkpt>
      <trkpt lat="42.30392" lon="2.23333">
        <ele>1382</ele>
        <time>2010-01-01T02:23:19Z</time>
      </trkpt>
      <trkpt lat="42.30394" lon="2.23336">
        <ele>1381</ele>
        <time>2010-01-01T02:23:20Z</time>
      </trkpt>
      <trkpt lat="42.30396" lon="2.23339">
        <ele>1381</ele>
        <time>2010-01-01T02:23:21Z</time>
      </trkpt>
      <trkpt lat="42.30397" lon="2.23342">
        <ele>1381</ele>
        <time>2010-01-01T02:23:22Z</time>
      </trkpt>
      <trkpt lat="42.30399" lon="2.23345">
        <ele>1380</ele>
        <time>2010-01-01T02:23:23Z</time>
      </trkpt>
      <trkpt lat="42.30401" lon="2.23347">
        <ele>1380</ele>
        <time>2010-01-01T02:23:24Z</time>
      </trkpt>
      <trkpt lat="42.30403" lon="2.23349">
        <ele>1380</ele>
        <time>2010-01-01T02:23:25Z</time>
      </trkpt>
      <trkpt lat="42.30404" lon="2.2335">
        <ele>1379</ele>
        <time>2010-01-01T02:23:26Z</time>
      </trkpt>
      <trkpt lat="42.30407" lon="2.23352">
        <ele>1379</ele>
        <time>2010-01-01T02:23:27Z</time>
      </trkpt>
      <trkpt lat="42.30409" lon="2.2335">
        <ele>1378</ele>
        <time>2010-01-01T02:23:28Z</time>
      </trkpt>
      <trkpt lat="42.30411" lon="2.23348">
        <ele>1378</ele>
        <time>2010-01-01T02:23:29Z</time>
      </trkpt>
      <trkpt lat="42.30413" lon="2.23346">
        <ele>1378</ele>
        <time>2010-01-01T02:23:30Z</time>
      </trkpt>
      <trkpt lat="42.30415" lon="2.23344">
        <ele>1377</ele>
        <time>2010-01-01T02:23:31Z</time>
      </trkpt>
      <trkpt lat="42.30417" lon="2.23342">
        <ele>1377</ele>
        <time>2010-01-01T02:23:32Z</time>
      </trkpt>
      <trkpt lat="42.3042" lon="2.23339">
        <ele>1376</ele>
        <time>2010-01-01T02:23:33Z</time>
      </trkpt>
      <trkpt lat="42.30422" lon="2.23337">
        <ele>1376</ele>
        <time>2010-01-01T02:23:34Z</time>
      </trkpt>
      <trkpt lat="42.30424" lon="2.23335">
        <ele>1375</ele>
        <time>2010-01-01T02:23:36Z</time>
      </trkpt>
      <trkpt lat="42.30427" lon="2.23333">
        <ele>1375</ele>
        <time>2010-01-01T02:23:37Z</time>
      </trkpt>
      <trkpt lat="42.30429" lon="2.23332">
        <ele>1375</ele>
        <time>2010-01-01T02:23:38Z</time>
      </trkpt>
      <trkpt lat="42.30432" lon="2.2333">
        <ele>1374</ele>
        <time>2010-01-01T02:23:39Z</time>
      </trkpt>
      <trkpt lat="42.30434" lon="2.23328">
        <ele>1374</ele>
        <time>2010-01-01T02:23:40Z</time>
      </trkpt>
      <trkpt lat="42.30436" lon="2.23326">
        <ele>1374</ele>
        <time>2010-01-01T02:23:41Z</time>
      </trkpt>
      <trkpt lat="42.30439" lon="2.23325">
        <ele>1373</ele>
        <time>2010-01-01T02:23:42Z</time>
      </trkpt>
      <trkpt lat="42.30441" lon="2.23323">
        <ele>1373</ele>
        <time>2010-01-01T02:23:43Z</time>
      </trkpt>
      <trkpt lat="42.30443" lon="2.23321">
        <ele>1372</ele>
        <time>2010-01-01T02:23:44Z</time>
      </trkpt>
      <trkpt lat="42.30445" lon="2.2332">
        <ele>1372</ele>
        <time>2010-01-01T02:23:45Z</time>
      </trkpt>
      <trkpt lat="42.30448" lon="2.23319">
        <ele>1372</ele>
        <time>2010-01-01T02:23:46Z</time>
      </trkpt>
      <trkpt lat="42.3045" lon="2.23318">
        <ele>1371</ele>
        <time>2010-01-01T02:23:47Z</time>
      </trkpt>
      <trkpt lat="42.30452" lon="2.23316">
        <ele>1371</ele>
        <time>2010-01-01T02:23:48Z</time>
      </trkpt>
      <trkpt lat="42.30455" lon="2.23315">
        <ele>1371</ele>
        <time>2010-01-01T02:23:49Z</time>
      </trkpt>
      <trkpt lat="42.30457" lon="2.23314">
        <ele>1370</ele>
        <time>2010-01-01T02:23:50Z</time>
      </trkpt>
      <trkpt lat="42.30459" lon="2.23313">
        <ele>1370</ele>
        <time>2010-01-01T02:23:51Z</time>
      </trkpt>
      <trkpt lat="42.30462" lon="2.23311">
        <ele>1370</ele>
        <time>2010-01-01T02:23:52Z</time>
      </trkpt>
      <trkpt lat="42.30464" lon="2.2331">
        <ele>1370</ele>
        <time>2010-01-01T02:23:53Z</time>
      </trkpt>
      <trkpt lat="42.30466" lon="2.23309">
        <ele>1370</ele>
        <time>2010-01-01T02:23:54Z</time>
      </trkpt>
      <trkpt lat="42.30469" lon="2.23308">
        <ele>1370</ele>
        <time>2010-01-01T02:23:55Z</time>
      </trkpt>
      <trkpt lat="42.30471" lon="2.23306">
        <ele>1370</ele>
        <time>2010-01-01T02:23:56Z</time>
      </trkpt>
      <trkpt lat="42.30474" lon="2.23304">
        <ele>1370</ele>
        <time>2010-01-01T02:23:57Z</time>
      </trkpt>
      <trkpt lat="42.30476" lon="2.23302">
        <ele>1369</ele>
        <time>2010-01-01T02:23:58Z</time>
      </trkpt>
      <trkpt lat="42.30478" lon="2.233">
        <ele>1369</ele>
        <time>2010-01-01T02:23:59Z</time>
      </trkpt>
      <trkpt lat="42.3048" lon="2.23299">
        <ele>1369</ele>
        <time>2010-01-01T02:24:00Z</time>
      </trkpt>
      <trkpt lat="42.30482" lon="2.23297">
        <ele>1369</ele>
        <time>2010-01-01T02:24:01Z</time>
      </trkpt>
      <trkpt lat="42.30485" lon="2.23296">
        <ele>1369</ele>
        <time>2010-01-01T02:24:03Z</time>
      </trkpt>
      <trkpt lat="42.30487" lon="2.23296">
        <ele>1369</ele>
        <time>2010-01-01T02:24:04Z</time>
      </trkpt>
      <trkpt lat="42.3049" lon="2.23296">
        <ele>1369</ele>
        <time>2010-01-01T02:24:04Z</time>
      </trkpt>
      <trkpt lat="42.30492" lon="2.23295">
        <ele>1368</ele>
        <time>2010-01-01T02:24:05Z</time>
      </trkpt>
      <trkpt lat="42.30495" lon="2.23294">
        <ele>1368</ele>
        <time>2010-01-01T02:24:07Z</time>
      </trkpt>
      <trkpt lat="42.30498" lon="2.23294">
        <ele>1368</ele>
        <time>2010-01-01T02:24:08Z</time>
      </trkpt>
      <trkpt lat="42.305" lon="2.23294">
        <ele>1368</ele>
        <time>2010-01-01T02:24:09Z</time>
      </trkpt>
      <trkpt lat="42.30503" lon="2.23295">
        <ele>1367</ele>
        <time>2010-01-01T02:24:10Z</time>
      </trkpt>
      <trkpt lat="42.30505" lon="2.23295">
        <ele>1367</ele>
        <time>2010-01-01T02:24:11Z</time>
      </trkpt>
      <trkpt lat="42.30508" lon="2.23296">
        <ele>1366</ele>
        <time>2010-01-01T02:24:12Z</time>
      </trkpt>
      <trkpt lat="42.30511" lon="2.23298">
        <ele>1366</ele>
        <time>2010-01-01T02:24:13Z</time>
      </trkpt>
      <trkpt lat="42.30514" lon="2.23298">
        <ele>1366</ele>
        <time>2010-01-01T02:24:14Z</time>
      </trkpt>
      <trkpt lat="42.30516" lon="2.23299">
        <ele>1365</ele>
        <time>2010-01-01T02:24:15Z</time>
      </trkpt>
      <trkpt lat="42.30519" lon="2.233">
        <ele>1365</ele>
        <time>2010-01-01T02:24:16Z</time>
      </trkpt>
      <trkpt lat="42.30521" lon="2.23301">
        <ele>1364</ele>
        <time>2010-01-01T02:24:17Z</time>
      </trkpt>
      <trkpt lat="42.30524" lon="2.23301">
        <ele>1364</ele>
        <time>2010-01-01T02:24:18Z</time>
      </trkpt>
      <trkpt lat="42.30527" lon="2.23302">
        <ele>1364</ele>
        <time>2010-01-01T02:24:19Z</time>
      </trkpt>
      <trkpt lat="42.3053" lon="2.23302">
        <ele>1363</ele>
        <time>2010-01-01T02:24:21Z</time>
      </trkpt>
      <trkpt lat="42.30532" lon="2.23303">
        <ele>1363</ele>
        <time>2010-01-01T02:24:22Z</time>
      </trkpt>
      <trkpt lat="42.30535" lon="2.23304">
        <ele>1362</ele>
        <time>2010-01-01T02:24:23Z</time>
      </trkpt>
      <trkpt lat="42.30538" lon="2.23305">
        <ele>1362</ele>
        <time>2010-01-01T02:24:24Z</time>
      </trkpt>
      <trkpt lat="42.30541" lon="2.23306">
        <ele>1361</ele>
        <time>2010-01-01T02:24:25Z</time>
      </trkpt>
      <trkpt lat="42.30543" lon="2.23307">
        <ele>1361</ele>
        <time>2010-01-01T02:24:26Z</time>
      </trkpt>
      <trkpt lat="42.30546" lon="2.23307">
        <ele>1360</ele>
        <time>2010-01-01T02:24:27Z</time>
      </trkpt>
      <trkpt lat="42.30548" lon="2.23308">
        <ele>1360</ele>
        <time>2010-01-01T02:24:28Z</time>
      </trkpt>
      <trkpt lat="42.30551" lon="2.23308">
        <ele>1360</ele>
        <time>2010-01-01T02:24:30Z</time>
      </trkpt>
      <trkpt lat="42.30554" lon="2.23309">
        <ele>1359</ele>
        <time>2010-01-01T02:24:31Z</time>
      </trkpt>
      <trkpt lat="42.30556" lon="2.2331">
        <ele>1359</ele>
        <time>2010-01-01T02:24:32Z</time>
      </trkpt>
      <trkpt lat="42.30559" lon="2.2331">
        <ele>1359</ele>
        <time>2010-01-01T02:24:33Z</time>
      </trkpt>
      <trkpt lat="42.30562" lon="2.2331">
        <ele>1359</ele>
        <time>2010-01-01T02:24:34Z</time>
      </trkpt>
      <trkpt lat="42.30567" lon="2.23311">
        <ele>1359</ele>
        <time>2010-01-01T02:24:36Z</time>
      </trkpt>
      <trkpt lat="42.3057" lon="2.2331">
        <ele>1359</ele>
        <time>2010-01-01T02:24:37Z</time>
      </trkpt>
      <trkpt lat="42.30572" lon="2.23311">
        <ele>1359</ele>
        <time>2010-01-01T02:24:38Z</time>
      </trkpt>
      <trkpt lat="42.30575" lon="2.23311">
        <ele>1359</ele>
        <time>2010-01-01T02:24:39Z</time>
      </trkpt>
      <trkpt lat="42.30577" lon="2.23311">
        <ele>1359</ele>
        <time>2010-01-01T02:24:40Z</time>
      </trkpt>
      <trkpt lat="42.3058" lon="2.23311">
        <ele>1359</ele>
        <time>2010-01-01T02:24:41Z</time>
      </trkpt>
      <trkpt lat="42.30583" lon="2.2331">
        <ele>1359</ele>
        <time>2010-01-01T02:24:42Z</time>
      </trkpt>
      <trkpt lat="42.30585" lon="2.2331">
        <ele>1359</ele>
        <time>2010-01-01T02:24:43Z</time>
      </trkpt>
      <trkpt lat="42.30588" lon="2.2331">
        <ele>1358</ele>
        <time>2010-01-01T02:24:44Z</time>
      </trkpt>
      <trkpt lat="42.3059" lon="2.2331">
        <ele>1358</ele>
        <time>2010-01-01T02:24:45Z</time>
      </trkpt>
      <trkpt lat="42.30598" lon="2.23311">
        <ele>1358</ele>
        <time>2010-01-01T02:24:48Z</time>
      </trkpt>
      <trkpt lat="42.30601" lon="2.23311">
        <ele>1358</ele>
        <time>2010-01-01T02:24:49Z</time>
      </trkpt>
      <trkpt lat="42.30603" lon="2.23311">
        <ele>1358</ele>
        <time>2010-01-01T02:24:50Z</time>
      </trkpt>
      <trkpt lat="42.30606" lon="2.23312">
        <ele>1357</ele>
        <time>2010-01-01T02:24:52Z</time>
      </trkpt>
      <trkpt lat="42.30609" lon="2.23312">
        <ele>1357</ele>
        <time>2010-01-01T02:24:53Z</time>
      </trkpt>
      <trkpt lat="42.30611" lon="2.23312">
        <ele>1357</ele>
        <time>2010-01-01T02:24:54Z</time>
      </trkpt>
      <trkpt lat="42.30614" lon="2.23313">
        <ele>1357</ele>
        <time>2010-01-01T02:24:55Z</time>
      </trkpt>
      <trkpt lat="42.30619" lon="2.23313">
        <ele>1356</ele>
        <time>2010-01-01T02:24:57Z</time>
      </trkpt>
      <trkpt lat="42.30622" lon="2.23314">
        <ele>1356</ele>
        <time>2010-01-01T02:24:58Z</time>
      </trkpt>
      <trkpt lat="42.30624" lon="2.23315">
        <ele>1356</ele>
        <time>2010-01-01T02:24:59Z</time>
      </trkpt>
      <trkpt lat="42.30627" lon="2.23315">
        <ele>1355</ele>
        <time>2010-01-01T02:25:00Z</time>
      </trkpt>
      <trkpt lat="42.30629" lon="2.23316">
        <ele>1355</ele>
        <time>2010-01-01T02:25:01Z</time>
      </trkpt>
      <trkpt lat="42.30632" lon="2.23318">
        <ele>1355</ele>
        <time>2010-01-01T02:25:02Z</time>
      </trkpt>
      <trkpt lat="42.30634" lon="2.23319">
        <ele>1354</ele>
        <time>2010-01-01T02:25:03Z</time>
      </trkpt>
      <trkpt lat="42.30636" lon="2.2332">
        <ele>1354</ele>
        <time>2010-01-01T02:25:04Z</time>
      </trkpt>
      <trkpt lat="42.30638" lon="2.23322">
        <ele>1354</ele>
        <time>2010-01-01T02:25:05Z</time>
      </trkpt>
      <trkpt lat="42.3064" lon="2.23324">
        <ele>1353</ele>
        <time>2010-01-01T02:25:06Z</time>
      </trkpt>
      <trkpt lat="42.30642" lon="2.23326">
        <ele>1353</ele>
        <time>2010-01-01T02:25:07Z</time>
      </trkpt>
      <trkpt lat="42.30644" lon="2.23327">
        <ele>1352</ele>
        <time>2010-01-01T02:25:08Z</time>
      </trkpt>
      <trkpt lat="42.30646" lon="2.23329">
        <ele>1352</ele>
        <time>2010-01-01T02:25:09Z</time>
      </trkpt>
      <trkpt lat="42.30648" lon="2.23331">
        <ele>1352</ele>
        <time>2010-01-01T02:25:10Z</time>
      </trkpt>
      <trkpt lat="42.3065" lon="2.23333">
        <ele>1352</ele>
        <time>2010-01-01T02:25:11Z</time>
      </trkpt>
      <trkpt lat="42.30652" lon="2.23335">
        <ele>1351</ele>
        <time>2010-01-01T02:25:12Z</time>
      </trkpt>
      <trkpt lat="42.30654" lon="2.23337">
        <ele>1351</ele>
        <time>2010-01-01T02:25:13Z</time>
      </trkpt>
      <trkpt lat="42.30656" lon="2.23338">
        <ele>1351</ele>
        <time>2010-01-01T02:25:14Z</time>
      </trkpt>
      <trkpt lat="42.30658" lon="2.2334">
        <ele>1350</ele>
        <time>2010-01-01T02:25:15Z</time>
      </trkpt>
      <trkpt lat="42.3066" lon="2.23342">
        <ele>1350</ele>
        <time>2010-01-01T02:25:16Z</time>
      </trkpt>
      <trkpt lat="42.30662" lon="2.23344">
        <ele>1350</ele>
        <time>2010-01-01T02:25:17Z</time>
      </trkpt>
      <trkpt lat="42.30664" lon="2.23347">
        <ele>1350</ele>
        <time>2010-01-01T02:25:18Z</time>
      </trkpt>
      <trkpt lat="42.30666" lon="2.23349">
        <ele>1349</ele>
        <time>2010-01-01T02:25:19Z</time>
      </trkpt>
      <trkpt lat="42.30668" lon="2.2335">
        <ele>1349</ele>
        <time>2010-01-01T02:25:20Z</time>
      </trkpt>
      <trkpt lat="42.30671" lon="2.23352">
        <ele>1348</ele>
        <time>2010-01-01T02:25:21Z</time>
      </trkpt>
      <trkpt lat="42.30673" lon="2.23355">
        <ele>1348</ele>
        <time>2010-01-01T02:25:22Z</time>
      </trkpt>
      <trkpt lat="42.30676" lon="2.23356">
        <ele>1347</ele>
        <time>2010-01-01T02:25:23Z</time>
      </trkpt>
      <trkpt lat="42.30678" lon="2.23357">
        <ele>1347</ele>
        <time>2010-01-01T02:25:24Z</time>
      </trkpt>
      <trkpt lat="42.3068" lon="2.23358">
        <ele>1346</ele>
        <time>2010-01-01T02:25:25Z</time>
      </trkpt>
      <trkpt lat="42.30683" lon="2.23359">
        <ele>1346</ele>
        <time>2010-01-01T02:25:26Z</time>
      </trkpt>
      <trkpt lat="42.30685" lon="2.23361">
        <ele>1346</ele>
        <time>2010-01-01T02:25:27Z</time>
      </trkpt>
      <trkpt lat="42.30687" lon="2.23362">
        <ele>1345</ele>
        <time>2010-01-01T02:25:28Z</time>
      </trkpt>
      <trkpt lat="42.30689" lon="2.23363">
        <ele>1345</ele>
        <time>2010-01-01T02:25:29Z</time>
      </trkpt>
      <trkpt lat="42.30692" lon="2.23364">
        <ele>1344</ele>
        <time>2010-01-01T02:25:30Z</time>
      </trkpt>
      <trkpt lat="42.30694" lon="2.23364">
        <ele>1344</ele>
        <time>2010-01-01T02:25:31Z</time>
      </trkpt>
      <trkpt lat="42.30698" lon="2.23364">
        <ele>1343</ele>
        <time>2010-01-01T02:25:33Z</time>
      </trkpt>
      <trkpt lat="42.307" lon="2.23364">
        <ele>1342</ele>
        <time>2010-01-01T02:25:33Z</time>
      </trkpt>
      <trkpt lat="42.30703" lon="2.23364">
        <ele>1341</ele>
        <time>2010-01-01T02:25:34Z</time>
      </trkpt>
      <trkpt lat="42.30705" lon="2.23363">
        <ele>1341</ele>
        <time>2010-01-01T02:25:35Z</time>
      </trkpt>
      <trkpt lat="42.30707" lon="2.23363">
        <ele>1340</ele>
        <time>2010-01-01T02:25:36Z</time>
      </trkpt>
      <trkpt lat="42.3071" lon="2.23361">
        <ele>1339</ele>
        <time>2010-01-01T02:25:37Z</time>
      </trkpt>
      <trkpt lat="42.30712" lon="2.23359">
        <ele>1339</ele>
        <time>2010-01-01T02:25:38Z</time>
      </trkpt>
      <trkpt lat="42.30714" lon="2.23357">
        <ele>1338</ele>
        <time>2010-01-01T02:25:39Z</time>
      </trkpt>
      <trkpt lat="42.30716" lon="2.23355">
        <ele>1338</ele>
        <time>2010-01-01T02:25:40Z</time>
      </trkpt>
      <trkpt lat="42.30717" lon="2.23353">
        <ele>1337</ele>
        <time>2010-01-01T02:25:41Z</time>
      </trkpt>
      <trkpt lat="42.30719" lon="2.2335">
        <ele>1337</ele>
        <time>2010-01-01T02:25:42Z</time>
      </trkpt>
      <trkpt lat="42.30721" lon="2.23347">
        <ele>1336</ele>
        <time>2010-01-01T02:25:43Z</time>
      </trkpt>
      <trkpt lat="42.30723" lon="2.23345">
        <ele>1335</ele>
        <time>2010-01-01T02:25:45Z</time>
      </trkpt>
      <trkpt lat="42.30724" lon="2.23342">
        <ele>1335</ele>
        <time>2010-01-01T02:25:46Z</time>
      </trkpt>
      <trkpt lat="42.30725" lon="2.23339">
        <ele>1334</ele>
        <time>2010-01-01T02:25:47Z</time>
      </trkpt>
      <trkpt lat="42.30726" lon="2.23336">
        <ele>1334</ele>
        <time>2010-01-01T02:25:47Z</time>
      </trkpt>
      <trkpt lat="42.30726" lon="2.23333">
        <ele>1334</ele>
        <time>2010-01-01T02:25:48Z</time>
      </trkpt>
      <trkpt lat="42.30726" lon="2.23331">
        <ele>1334</ele>
        <time>2010-01-01T02:25:49Z</time>
      </trkpt>
      <trkpt lat="42.30726" lon="2.23328">
        <ele>1334</ele>
        <time>2010-01-01T02:25:50Z</time>
      </trkpt>
      <trkpt lat="42.30725" lon="2.23323">
        <ele>1334</ele>
        <time>2010-01-01T02:25:51Z</time>
      </trkpt>
      <trkpt lat="42.30724" lon="2.23318">
        <ele>1335</ele>
        <time>2010-01-01T02:25:53Z</time>
      </trkpt>
      <trkpt lat="42.30724" lon="2.23316">
        <ele>1335</ele>
        <time>2010-01-01T02:25:54Z</time>
      </trkpt>
      <trkpt lat="42.30723" lon="2.2331">
        <ele>1335</ele>
        <time>2010-01-01T02:25:55Z</time>
      </trkpt>
      <trkpt lat="42.30723" lon="2.23307">
        <ele>1335</ele>
        <time>2010-01-01T02:25:56Z</time>
      </trkpt>
      <trkpt lat="42.30722" lon="2.23304">
        <ele>1336</ele>
        <time>2010-01-01T02:25:57Z</time>
      </trkpt>
      <trkpt lat="42.30721" lon="2.23301">
        <ele>1336</ele>
        <time>2010-01-01T02:25:58Z</time>
      </trkpt>
      <trkpt lat="42.3072" lon="2.23298">
        <ele>1336</ele>
        <time>2010-01-01T02:25:59Z</time>
      </trkpt>
      <trkpt lat="42.30718" lon="2.23295">
        <ele>1336</ele>
        <time>2010-01-01T02:26:00Z</time>
      </trkpt>
      <trkpt lat="42.30717" lon="2.23292">
        <ele>1336</ele>
        <time>2010-01-01T02:26:01Z</time>
      </trkpt>
      <trkpt lat="42.30716" lon="2.23289">
        <ele>1337</ele>
        <time>2010-01-01T02:26:02Z</time>
      </trkpt>
      <trkpt lat="42.30715" lon="2.23286">
        <ele>1337</ele>
        <time>2010-01-01T02:26:03Z</time>
      </trkpt>
      <trkpt lat="42.30714" lon="2.23284">
        <ele>1337</ele>
        <time>2010-01-01T02:26:04Z</time>
      </trkpt>
      <trkpt lat="42.30713" lon="2.23281">
        <ele>1337</ele>
        <time>2010-01-01T02:26:05Z</time>
      </trkpt>
      <trkpt lat="42.30713" lon="2.23278">
        <ele>1337</ele>
        <time>2010-01-01T02:26:06Z</time>
      </trkpt>
      <trkpt lat="42.30712" lon="2.23275">
        <ele>1337</ele>
        <time>2010-01-01T02:26:07Z</time>
      </trkpt>
      <trkpt lat="42.30712" lon="2.23272">
        <ele>1337</ele>
        <time>2010-01-01T02:26:08Z</time>
      </trkpt>
      <trkpt lat="42.30712" lon="2.23269">
        <ele>1337</ele>
        <time>2010-01-01T02:26:09Z</time>
      </trkpt>
      <trkpt lat="42.30711" lon="2.23266">
        <ele>1337</ele>
        <time>2010-01-01T02:26:10Z</time>
      </trkpt>
      <trkpt lat="42.30711" lon="2.23258">
        <ele>1336</ele>
        <time>2010-01-01T02:26:12Z</time>
      </trkpt>
      <trkpt lat="42.30711" lon="2.23254">
        <ele>1335</ele>
        <time>2010-01-01T02:26:13Z</time>
      </trkpt>
      <trkpt lat="42.30711" lon="2.2324">
        <ele>1333</ele>
        <time>2010-01-01T02:26:17Z</time>
      </trkpt>
      <trkpt lat="42.30711" lon="2.23231">
        <ele>1332</ele>
        <time>2010-01-01T02:26:20Z</time>
      </trkpt>
      <trkpt lat="42.30712" lon="2.23227">
        <ele>1331</ele>
        <time>2010-01-01T02:26:21Z</time>
      </trkpt>
      <trkpt lat="42.30712" lon="2.23221">
        <ele>1330</ele>
        <time>2010-01-01T02:26:23Z</time>
      </trkpt>
      <trkpt lat="42.30711" lon="2.23218">
        <ele>1330</ele>
        <time>2010-01-01T02:26:24Z</time>
      </trkpt>
      <trkpt lat="42.30711" lon="2.23216">
        <ele>1330</ele>
        <time>2010-01-01T02:26:24Z</time>
      </trkpt>
      <trkpt lat="42.30712" lon="2.23213">
        <ele>1329</ele>
        <time>2010-01-01T02:26:25Z</time>
      </trkpt>
      <trkpt lat="42.30712" lon="2.23209">
        <ele>1329</ele>
        <time>2010-01-01T02:26:26Z</time>
      </trkpt>
      <trkpt lat="42.30712" lon="2.23206">
        <ele>1328</ele>
        <time>2010-01-01T02:26:27Z</time>
      </trkpt>
      <trkpt lat="42.30712" lon="2.23202">
        <ele>1328</ele>
        <time>2010-01-01T02:26:28Z</time>
      </trkpt>
      <trkpt lat="42.30711" lon="2.23199">
        <ele>1327</ele>
        <time>2010-01-01T02:26:30Z</time>
      </trkpt>
      <trkpt lat="42.30712" lon="2.23195">
        <ele>1326</ele>
        <time>2010-01-01T02:26:31Z</time>
      </trkpt>
      <trkpt lat="42.30712" lon="2.23192">
        <ele>1326</ele>
        <time>2010-01-01T02:26:32Z</time>
      </trkpt>
      <trkpt lat="42.30713" lon="2.23189">
        <ele>1325</ele>
        <time>2010-01-01T02:26:33Z</time>
      </trkpt>
      <trkpt lat="42.30713" lon="2.23185">
        <ele>1324</ele>
        <time>2010-01-01T02:26:34Z</time>
      </trkpt>
      <trkpt lat="42.30713" lon="2.23182">
        <ele>1324</ele>
        <time>2010-01-01T02:26:34Z</time>
      </trkpt>
      <trkpt lat="42.30713" lon="2.23179">
        <ele>1323</ele>
        <time>2010-01-01T02:26:35Z</time>
      </trkpt>
      <trkpt lat="42.30713" lon="2.23172">
        <ele>1322</ele>
        <time>2010-01-01T02:26:37Z</time>
      </trkpt>
      <trkpt lat="42.30712" lon="2.23169">
        <ele>1321</ele>
        <time>2010-01-01T02:26:38Z</time>
      </trkpt>
      <trkpt lat="42.3071" lon="2.23166">
        <ele>1322</ele>
        <time>2010-01-01T02:26:40Z</time>
      </trkpt>
      <trkpt lat="42.30708" lon="2.23163">
        <ele>1322</ele>
        <time>2010-01-01T02:26:41Z</time>
      </trkpt>
      <trkpt lat="42.30707" lon="2.23161">
        <ele>1322</ele>
        <time>2010-01-01T02:26:42Z</time>
      </trkpt>
      <trkpt lat="42.30705" lon="2.23158">
        <ele>1322</ele>
        <time>2010-01-01T02:26:43Z</time>
      </trkpt>
      <trkpt lat="42.30704" lon="2.23155">
        <ele>1322</ele>
        <time>2010-01-01T02:26:44Z</time>
      </trkpt>
      <trkpt lat="42.30702" lon="2.23152">
        <ele>1322</ele>
        <time>2010-01-01T02:26:45Z</time>
      </trkpt>
      <trkpt lat="42.30701" lon="2.23149">
        <ele>1322</ele>
        <time>2010-01-01T02:26:46Z</time>
      </trkpt>
      <trkpt lat="42.307" lon="2.23146">
        <ele>1322</ele>
        <time>2010-01-01T02:26:47Z</time>
      </trkpt>
      <trkpt lat="42.30699" lon="2.23143">
        <ele>1321</ele>
        <time>2010-01-01T02:26:48Z</time>
      </trkpt>
      <trkpt lat="42.30698" lon="2.2314">
        <ele>1321</ele>
        <time>2010-01-01T02:26:49Z</time>
      </trkpt>
      <trkpt lat="42.30696" lon="2.23136">
        <ele>1320</ele>
        <time>2010-01-01T02:26:50Z</time>
      </trkpt>
      <trkpt lat="42.30695" lon="2.23133">
        <ele>1320</ele>
        <time>2010-01-01T02:26:51Z</time>
      </trkpt>
      <trkpt lat="42.30693" lon="2.2313">
        <ele>1320</ele>
        <time>2010-01-01T02:26:52Z</time>
      </trkpt>
      <trkpt lat="42.30691" lon="2.23126">
        <ele>1320</ele>
        <time>2010-01-01T02:26:54Z</time>
      </trkpt>
      <trkpt lat="42.3069" lon="2.23123">
        <ele>1320</ele>
        <time>2010-01-01T02:26:55Z</time>
      </trkpt>
      <trkpt lat="42.30688" lon="2.23119">
        <ele>1320</ele>
        <time>2010-01-01T02:26:56Z</time>
      </trkpt>
      <trkpt lat="42.30686" lon="2.23116">
        <ele>1320</ele>
        <time>2010-01-01T02:26:57Z</time>
      </trkpt>
      <trkpt lat="42.30684" lon="2.23113">
        <ele>1320</ele>
        <time>2010-01-01T02:26:59Z</time>
      </trkpt>
      <trkpt lat="42.30682" lon="2.23109">
        <ele>1320</ele>
        <time>2010-01-01T02:27:00Z</time>
      </trkpt>
      <trkpt lat="42.3068" lon="2.23107">
        <ele>1320</ele>
        <time>2010-01-01T02:27:01Z</time>
      </trkpt>
      <trkpt lat="42.30678" lon="2.23104">
        <ele>1320</ele>
        <time>2010-01-01T02:27:02Z</time>
      </trkpt>
      <trkpt lat="42.30677" lon="2.231">
        <ele>1320</ele>
        <time>2010-01-01T02:27:03Z</time>
      </trkpt>
      <trkpt lat="42.30675" lon="2.23097">
        <ele>1319</ele>
        <time>2010-01-01T02:27:04Z</time>
      </trkpt>
      <trkpt lat="42.30674" lon="2.23094">
        <ele>1319</ele>
        <time>2010-01-01T02:27:05Z</time>
      </trkpt>
      <trkpt lat="42.30672" lon="2.23091">
        <ele>1319</ele>
        <time>2010-01-01T02:27:07Z</time>
      </trkpt>
      <trkpt lat="42.3067" lon="2.23089">
        <ele>1318</ele>
        <time>2010-01-01T02:27:08Z</time>
      </trkpt>
      <trkpt lat="42.30667" lon="2.23086">
        <ele>1318</ele>
        <time>2010-01-01T02:27:09Z</time>
      </trkpt>
      <trkpt lat="42.30665" lon="2.23083">
        <ele>1318</ele>
        <time>2010-01-01T02:27:10Z</time>
      </trkpt>
      <trkpt lat="42.30663" lon="2.2308">
        <ele>1318</ele>
        <time>2010-01-01T02:27:11Z</time>
      </trkpt>
      <trkpt lat="42.30661" lon="2.23077">
        <ele>1318</ele>
        <time>2010-01-01T02:27:13Z</time>
      </trkpt>
      <trkpt lat="42.30659" lon="2.23075">
        <ele>1318</ele>
        <time>2010-01-01T02:27:14Z</time>
      </trkpt>
      <trkpt lat="42.30657" lon="2.23072">
        <ele>1317</ele>
        <time>2010-01-01T02:27:15Z</time>
      </trkpt>
      <trkpt lat="42.30655" lon="2.2307">
        <ele>1317</ele>
        <time>2010-01-01T02:27:16Z</time>
      </trkpt>
      <trkpt lat="42.30653" lon="2.23068">
        <ele>1317</ele>
        <time>2010-01-01T02:27:17Z</time>
      </trkpt>
      <trkpt lat="42.30652" lon="2.23065">
        <ele>1317</ele>
        <time>2010-01-01T02:27:18Z</time>
      </trkpt>
      <trkpt lat="42.30651" lon="2.23061">
        <ele>1316</ele>
        <time>2010-01-01T02:27:19Z</time>
      </trkpt>
      <trkpt lat="42.3065" lon="2.23057">
        <ele>1315</ele>
        <time>2010-01-01T02:27:20Z</time>
      </trkpt>
      <trkpt lat="42.3065" lon="2.23054">
        <ele>1315</ele>
        <time>2010-01-01T02:27:21Z</time>
      </trkpt>
      <trkpt lat="42.30649" lon="2.23051">
        <ele>1314</ele>
        <time>2010-01-01T02:27:22Z</time>
      </trkpt>
      <trkpt lat="42.30648" lon="2.23047">
        <ele>1314</ele>
        <time>2010-01-01T02:27:23Z</time>
      </trkpt>
      <trkpt lat="42.30647" lon="2.23042">
        <ele>1313</ele>
        <time>2010-01-01T02:27:25Z</time>
      </trkpt>
      <trkpt lat="42.30645" lon="2.23038">
        <ele>1313</ele>
        <time>2010-01-01T02:27:26Z</time>
      </trkpt>
      <trkpt lat="42.30644" lon="2.23035">
        <ele>1312</ele>
        <time>2010-01-01T02:27:27Z</time>
      </trkpt>
      <trkpt lat="42.30643" lon="2.23031">
        <ele>1312</ele>
        <time>2010-01-01T02:27:28Z</time>
      </trkpt>
      <trkpt lat="42.30642" lon="2.23029">
        <ele>1311</ele>
        <time>2010-01-01T02:27:29Z</time>
      </trkpt>
      <trkpt lat="42.30641" lon="2.23025">
        <ele>1311</ele>
        <time>2010-01-01T02:27:30Z</time>
      </trkpt>
      <trkpt lat="42.30641" lon="2.23023">
        <ele>1311</ele>
        <time>2010-01-01T02:27:31Z</time>
      </trkpt>
      <trkpt lat="42.30642" lon="2.2302">
        <ele>1311</ele>
        <time>2010-01-01T02:27:32Z</time>
      </trkpt>
      <trkpt lat="42.30643" lon="2.23016">
        <ele>1310</ele>
        <time>2010-01-01T02:27:33Z</time>
      </trkpt>
      <trkpt lat="42.30644" lon="2.23013">
        <ele>1310</ele>
        <time>2010-01-01T02:27:34Z</time>
      </trkpt>
      <trkpt lat="42.30646" lon="2.23011">
        <ele>1310</ele>
        <time>2010-01-01T02:27:35Z</time>
      </trkpt>
      <trkpt lat="42.30648" lon="2.23008">
        <ele>1310</ele>
        <time>2010-01-01T02:27:36Z</time>
      </trkpt>
      <trkpt lat="42.3065" lon="2.23006">
        <ele>1309</ele>
        <time>2010-01-01T02:27:37Z</time>
      </trkpt>
      <trkpt lat="42.30651" lon="2.23004">
        <ele>1309</ele>
        <time>2010-01-01T02:27:38Z</time>
      </trkpt>
      <trkpt lat="42.30653" lon="2.23002">
        <ele>1309</ele>
        <time>2010-01-01T02:27:39Z</time>
      </trkpt>
      <trkpt lat="42.30655" lon="2.23">
        <ele>1309</ele>
        <time>2010-01-01T02:27:40Z</time>
      </trkpt>
      <trkpt lat="42.30657" lon="2.22999">
        <ele>1309</ele>
        <time>2010-01-01T02:27:41Z</time>
      </trkpt>
      <trkpt lat="42.30659" lon="2.22997">
        <ele>1309</ele>
        <time>2010-01-01T02:27:42Z</time>
      </trkpt>
      <trkpt lat="42.30661" lon="2.22995">
        <ele>1309</ele>
        <time>2010-01-01T02:27:43Z</time>
      </trkpt>
      <trkpt lat="42.30662" lon="2.22993">
        <ele>1309</ele>
        <time>2010-01-01T02:27:44Z</time>
      </trkpt>
      <trkpt lat="42.30665" lon="2.22992">
        <ele>1309</ele>
        <time>2010-01-01T02:27:45Z</time>
      </trkpt>
      <trkpt lat="42.30667" lon="2.2299">
        <ele>1309</ele>
        <time>2010-01-01T02:27:46Z</time>
      </trkpt>
      <trkpt lat="42.30669" lon="2.22989">
        <ele>1309</ele>
        <time>2010-01-01T02:27:47Z</time>
      </trkpt>
      <trkpt lat="42.30672" lon="2.22988">
        <ele>1308</ele>
        <time>2010-01-01T02:27:48Z</time>
      </trkpt>
      <trkpt lat="42.30675" lon="2.22987">
        <ele>1308</ele>
        <time>2010-01-01T02:27:49Z</time>
      </trkpt>
      <trkpt lat="42.30678" lon="2.22986">
        <ele>1308</ele>
        <time>2010-01-01T02:27:50Z</time>
      </trkpt>
      <trkpt lat="42.3068" lon="2.22985">
        <ele>1307</ele>
        <time>2010-01-01T02:27:51Z</time>
      </trkpt>
      <trkpt lat="42.30682" lon="2.22984">
        <ele>1307</ele>
        <time>2010-01-01T02:27:52Z</time>
      </trkpt>
      <trkpt lat="42.30684" lon="2.22982">
        <ele>1307</ele>
        <time>2010-01-01T02:27:53Z</time>
      </trkpt>
      <trkpt lat="42.30686" lon="2.2298">
        <ele>1307</ele>
        <time>2010-01-01T02:27:54Z</time>
      </trkpt>
      <trkpt lat="42.30688" lon="2.22978">
        <ele>1306</ele>
        <time>2010-01-01T02:27:55Z</time>
      </trkpt>
      <trkpt lat="42.3069" lon="2.22976">
        <ele>1306</ele>
        <time>2010-01-01T02:27:56Z</time>
      </trkpt>
      <trkpt lat="42.30692" lon="2.22974">
        <ele>1306</ele>
        <time>2010-01-01T02:27:57Z</time>
      </trkpt>
      <trkpt lat="42.30693" lon="2.22971">
        <ele>1306</ele>
        <time>2010-01-01T02:27:58Z</time>
      </trkpt>
      <trkpt lat="42.30695" lon="2.22968">
        <ele>1306</ele>
        <time>2010-01-01T02:27:59Z</time>
      </trkpt>
      <trkpt lat="42.30696" lon="2.22965">
        <ele>1305</ele>
        <time>2010-01-01T02:28:00Z</time>
      </trkpt>
      <trkpt lat="42.30698" lon="2.22963">
        <ele>1305</ele>
        <time>2010-01-01T02:28:01Z</time>
      </trkpt>
      <trkpt lat="42.30699" lon="2.22959">
        <ele>1305</ele>
        <time>2010-01-01T02:28:02Z</time>
      </trkpt>
      <trkpt lat="42.307" lon="2.22956">
        <ele>1305</ele>
        <time>2010-01-01T02:28:03Z</time>
      </trkpt>
      <trkpt lat="42.30701" lon="2.22953">
        <ele>1305</ele>
        <time>2010-01-01T02:28:04Z</time>
      </trkpt>
      <trkpt lat="42.30702" lon="2.2295">
        <ele>1305</ele>
        <time>2010-01-01T02:28:05Z</time>
      </trkpt>
      <trkpt lat="42.30702" lon="2.22946">
        <ele>1305</ele>
        <time>2010-01-01T02:28:06Z</time>
      </trkpt>
      <trkpt lat="42.30703" lon="2.22943">
        <ele>1304</ele>
        <time>2010-01-01T02:28:07Z</time>
      </trkpt>
      <trkpt lat="42.30703" lon="2.2294">
        <ele>1304</ele>
        <time>2010-01-01T02:28:08Z</time>
      </trkpt>
      <trkpt lat="42.30703" lon="2.22938">
        <ele>1304</ele>
        <time>2010-01-01T02:28:09Z</time>
      </trkpt>
      <trkpt lat="42.30702" lon="2.22935">
        <ele>1305</ele>
        <time>2010-01-01T02:28:10Z</time>
      </trkpt>
      <trkpt lat="42.30702" lon="2.22932">
        <ele>1305</ele>
        <time>2010-01-01T02:28:10Z</time>
      </trkpt>
      <trkpt lat="42.30702" lon="2.22929">
        <ele>1305</ele>
        <time>2010-01-01T02:28:11Z</time>
      </trkpt>
      <trkpt lat="42.30702" lon="2.22926">
        <ele>1305</ele>
        <time>2010-01-01T02:28:12Z</time>
      </trkpt>
      <trkpt lat="42.30702" lon="2.22923">
        <ele>1305</ele>
        <time>2010-01-01T02:28:13Z</time>
      </trkpt>
      <trkpt lat="42.30703" lon="2.22919">
        <ele>1305</ele>
        <time>2010-01-01T02:28:14Z</time>
      </trkpt>
      <trkpt lat="42.30703" lon="2.22916">
        <ele>1305</ele>
        <time>2010-01-01T02:28:15Z</time>
      </trkpt>
      <trkpt lat="42.30704" lon="2.22912">
        <ele>1304</ele>
        <time>2010-01-01T02:28:17Z</time>
      </trkpt>
      <trkpt lat="42.30706" lon="2.22908">
        <ele>1304</ele>
        <time>2010-01-01T02:28:18Z</time>
      </trkpt>
      <trkpt lat="42.30707" lon="2.22905">
        <ele>1303</ele>
        <time>2010-01-01T02:28:19Z</time>
      </trkpt>
      <trkpt lat="42.30709" lon="2.22902">
        <ele>1303</ele>
        <time>2010-01-01T02:28:20Z</time>
      </trkpt>
      <trkpt lat="42.3071" lon="2.22899">
        <ele>1302</ele>
        <time>2010-01-01T02:28:21Z</time>
      </trkpt>
      <trkpt lat="42.30712" lon="2.22897">
        <ele>1302</ele>
        <time>2010-01-01T02:28:22Z</time>
      </trkpt>
      <trkpt lat="42.30713" lon="2.22894">
        <ele>1302</ele>
        <time>2010-01-01T02:28:23Z</time>
      </trkpt>
      <trkpt lat="42.30715" lon="2.22891">
        <ele>1301</ele>
        <time>2010-01-01T02:28:24Z</time>
      </trkpt>
      <trkpt lat="42.30717" lon="2.22888">
        <ele>1301</ele>
        <time>2010-01-01T02:28:25Z</time>
      </trkpt>
      <trkpt lat="42.30718" lon="2.22886">
        <ele>1300</ele>
        <time>2010-01-01T02:28:26Z</time>
      </trkpt>
      <trkpt lat="42.3072" lon="2.22884">
        <ele>1300</ele>
        <time>2010-01-01T02:28:27Z</time>
      </trkpt>
      <trkpt lat="42.30722" lon="2.22882">
        <ele>1300</ele>
        <time>2010-01-01T02:28:28Z</time>
      </trkpt>
      <trkpt lat="42.30724" lon="2.2288">
        <ele>1299</ele>
        <time>2010-01-01T02:28:29Z</time>
      </trkpt>
      <trkpt lat="42.30726" lon="2.22877">
        <ele>1299</ele>
        <time>2010-01-01T02:28:30Z</time>
      </trkpt>
      <trkpt lat="42.30728" lon="2.22875">
        <ele>1299</ele>
        <time>2010-01-01T02:28:31Z</time>
      </trkpt>
      <trkpt lat="42.3073" lon="2.22872">
        <ele>1298</ele>
        <time>2010-01-01T02:28:32Z</time>
      </trkpt>
      <trkpt lat="42.30732" lon="2.2287">
        <ele>1298</ele>
        <time>2010-01-01T02:28:34Z</time>
      </trkpt>
      <trkpt lat="42.30734" lon="2.22867">
        <ele>1298</ele>
        <time>2010-01-01T02:28:35Z</time>
      </trkpt>
      <trkpt lat="42.30736" lon="2.22865">
        <ele>1297</ele>
        <time>2010-01-01T02:28:36Z</time>
      </trkpt>
      <trkpt lat="42.30739" lon="2.22863">
        <ele>1297</ele>
        <time>2010-01-01T02:28:37Z</time>
      </trkpt>
      <trkpt lat="42.30741" lon="2.22861">
        <ele>1297</ele>
        <time>2010-01-01T02:28:38Z</time>
      </trkpt>
      <trkpt lat="42.30744" lon="2.2286">
        <ele>1296</ele>
        <time>2010-01-01T02:28:39Z</time>
      </trkpt>
      <trkpt lat="42.30746" lon="2.22858">
        <ele>1296</ele>
        <time>2010-01-01T02:28:40Z</time>
      </trkpt>
      <trkpt lat="42.30748" lon="2.22856">
        <ele>1296</ele>
        <time>2010-01-01T02:28:41Z</time>
      </trkpt>
      <trkpt lat="42.30751" lon="2.22855">
        <ele>1295</ele>
        <time>2010-01-01T02:28:42Z</time>
      </trkpt>
      <trkpt lat="42.30753" lon="2.22854">
        <ele>1295</ele>
        <time>2010-01-01T02:28:43Z</time>
      </trkpt>
      <trkpt lat="42.30756" lon="2.22853">
        <ele>1295</ele>
        <time>2010-01-01T02:28:44Z</time>
      </trkpt>
      <trkpt lat="42.30758" lon="2.22853">
        <ele>1295</ele>
        <time>2010-01-01T02:28:45Z</time>
      </trkpt>
      <trkpt lat="42.30761" lon="2.22854">
        <ele>1294</ele>
        <time>2010-01-01T02:28:46Z</time>
      </trkpt>
      <trkpt lat="42.30766" lon="2.22853">
        <ele>1294</ele>
        <time>2010-01-01T02:28:48Z</time>
      </trkpt>
      <trkpt lat="42.30768" lon="2.22853">
        <ele>1294</ele>
        <time>2010-01-01T02:28:49Z</time>
      </trkpt>
      <trkpt lat="42.3077" lon="2.22851">
        <ele>1294</ele>
        <time>2010-01-01T02:28:50Z</time>
      </trkpt>
      <trkpt lat="42.30773" lon="2.22849">
        <ele>1293</ele>
        <time>2010-01-01T02:28:51Z</time>
      </trkpt>
      <trkpt lat="42.30774" lon="2.22846">
        <ele>1293</ele>
        <time>2010-01-01T02:28:52Z</time>
      </trkpt>
      <trkpt lat="42.30773" lon="2.22843">
        <ele>1293</ele>
        <time>2010-01-01T02:28:53Z</time>
      </trkpt>
      <trkpt lat="42.30772" lon="2.2284">
        <ele>1293</ele>
        <time>2010-01-01T02:28:54Z</time>
      </trkpt>
      <trkpt lat="42.30771" lon="2.22836">
        <ele>1293</ele>
        <time>2010-01-01T02:28:55Z</time>
      </trkpt>
      <trkpt lat="42.3077" lon="2.22833">
        <ele>1293</ele>
        <time>2010-01-01T02:28:56Z</time>
      </trkpt>
      <trkpt lat="42.30769" lon="2.2283">
        <ele>1293</ele>
        <time>2010-01-01T02:28:57Z</time>
      </trkpt>
      <trkpt lat="42.30768" lon="2.22827">
        <ele>1292</ele>
        <time>2010-01-01T02:28:58Z</time>
      </trkpt>
      <trkpt lat="42.30767" lon="2.22824">
        <ele>1292</ele>
        <time>2010-01-01T02:28:59Z</time>
      </trkpt>
      <trkpt lat="42.30766" lon="2.2282">
        <ele>1292</ele>
        <time>2010-01-01T02:29:01Z</time>
      </trkpt>
      <trkpt lat="42.30765" lon="2.22817">
        <ele>1292</ele>
        <time>2010-01-01T02:29:02Z</time>
      </trkpt>
      <trkpt lat="42.30764" lon="2.22814">
        <ele>1291</ele>
        <time>2010-01-01T02:29:03Z</time>
      </trkpt>
      <trkpt lat="42.30763" lon="2.22811">
        <ele>1291</ele>
        <time>2010-01-01T02:29:04Z</time>
      </trkpt>
      <trkpt lat="42.30762" lon="2.22808">
        <ele>1291</ele>
        <time>2010-01-01T02:29:05Z</time>
      </trkpt>
      <trkpt lat="42.30761" lon="2.22805">
        <ele>1291</ele>
        <time>2010-01-01T02:29:06Z</time>
      </trkpt>
      <trkpt lat="42.30761" lon="2.22801">
        <ele>1290</ele>
        <time>2010-01-01T02:29:07Z</time>
      </trkpt>
      <trkpt lat="42.3076" lon="2.22798">
        <ele>1289</ele>
        <time>2010-01-01T02:29:08Z</time>
      </trkpt>
      <trkpt lat="42.30761" lon="2.22794">
        <ele>1289</ele>
        <time>2010-01-01T02:29:09Z</time>
      </trkpt>
      <trkpt lat="42.30762" lon="2.22791">
        <ele>1288</ele>
        <time>2010-01-01T02:29:10Z</time>
      </trkpt>
      <trkpt lat="42.30763" lon="2.22788">
        <ele>1287</ele>
        <time>2010-01-01T02:29:11Z</time>
      </trkpt>
      <trkpt lat="42.30765" lon="2.22785">
        <ele>1286</ele>
        <time>2010-01-01T02:29:12Z</time>
      </trkpt>
      <trkpt lat="42.30767" lon="2.22782">
        <ele>1285</ele>
        <time>2010-01-01T02:29:13Z</time>
      </trkpt>
      <trkpt lat="42.30769" lon="2.2278">
        <ele>1285</ele>
        <time>2010-01-01T02:29:14Z</time>
      </trkpt>
      <trkpt lat="42.3077" lon="2.22777">
        <ele>1284</ele>
        <time>2010-01-01T02:29:15Z</time>
      </trkpt>
      <trkpt lat="42.30772" lon="2.22775">
        <ele>1283</ele>
        <time>2010-01-01T02:29:16Z</time>
      </trkpt>
      <trkpt lat="42.30774" lon="2.22772">
        <ele>1282</ele>
        <time>2010-01-01T02:29:17Z</time>
      </trkpt>
      <trkpt lat="42.30776" lon="2.2277">
        <ele>1281</ele>
        <time>2010-01-01T02:29:18Z</time>
      </trkpt>
      <trkpt lat="42.30779" lon="2.22767">
        <ele>1280</ele>
        <time>2010-01-01T02:29:19Z</time>
      </trkpt>
      <trkpt lat="42.30781" lon="2.22765">
        <ele>1279</ele>
        <time>2010-01-01T02:29:21Z</time>
      </trkpt>
      <trkpt lat="42.30783" lon="2.22763">
        <ele>1279</ele>
        <time>2010-01-01T02:29:22Z</time>
      </trkpt>
      <trkpt lat="42.30785" lon="2.2276">
        <ele>1278</ele>
        <time>2010-01-01T02:29:23Z</time>
      </trkpt>
      <trkpt lat="42.30788" lon="2.22758">
        <ele>1277</ele>
        <time>2010-01-01T02:29:24Z</time>
      </trkpt>
      <trkpt lat="42.3079" lon="2.22756">
        <ele>1277</ele>
        <time>2010-01-01T02:29:25Z</time>
      </trkpt>
      <trkpt lat="42.30792" lon="2.22753">
        <ele>1276</ele>
        <time>2010-01-01T02:29:26Z</time>
      </trkpt>
      <trkpt lat="42.30794" lon="2.22751">
        <ele>1276</ele>
        <time>2010-01-01T02:29:27Z</time>
      </trkpt>
      <trkpt lat="42.30796" lon="2.22749">
        <ele>1276</ele>
        <time>2010-01-01T02:29:28Z</time>
      </trkpt>
      <trkpt lat="42.30798" lon="2.22746">
        <ele>1275</ele>
        <time>2010-01-01T02:29:30Z</time>
      </trkpt>
      <trkpt lat="42.308" lon="2.22743">
        <ele>1275</ele>
        <time>2010-01-01T02:29:31Z</time>
      </trkpt>
      <trkpt lat="42.30802" lon="2.2274">
        <ele>1275</ele>
        <time>2010-01-01T02:29:32Z</time>
      </trkpt>
      <trkpt lat="42.30803" lon="2.22737">
        <ele>1275</ele>
        <time>2010-01-01T02:29:33Z</time>
      </trkpt>
      <trkpt lat="42.30805" lon="2.22734">
        <ele>1274</ele>
        <time>2010-01-01T02:29:34Z</time>
      </trkpt>
      <trkpt lat="42.30807" lon="2.22731">
        <ele>1274</ele>
        <time>2010-01-01T02:29:35Z</time>
      </trkpt>
      <trkpt lat="42.30809" lon="2.22728">
        <ele>1274</ele>
        <time>2010-01-01T02:29:36Z</time>
      </trkpt>
      <trkpt lat="42.3081" lon="2.22725">
        <ele>1274</ele>
        <time>2010-01-01T02:29:37Z</time>
      </trkpt>
      <trkpt lat="42.30812" lon="2.22722">
        <ele>1273</ele>
        <time>2010-01-01T02:29:39Z</time>
      </trkpt>
      <trkpt lat="42.30814" lon="2.22718">
        <ele>1273</ele>
        <time>2010-01-01T02:29:40Z</time>
      </trkpt>
      <trkpt lat="42.30815" lon="2.22715">
        <ele>1273</ele>
        <time>2010-01-01T02:29:41Z</time>
      </trkpt>
      <trkpt lat="42.30816" lon="2.22711">
        <ele>1272</ele>
        <time>2010-01-01T02:29:42Z</time>
      </trkpt>
      <trkpt lat="42.30817" lon="2.22708">
        <ele>1272</ele>
        <time>2010-01-01T02:29:43Z</time>
      </trkpt>
      <trkpt lat="42.30818" lon="2.22705">
        <ele>1272</ele>
        <time>2010-01-01T02:29:44Z</time>
      </trkpt>
      <trkpt lat="42.30818" lon="2.22701">
        <ele>1272</ele>
        <time>2010-01-01T02:29:45Z</time>
      </trkpt>
      <trkpt lat="42.30819" lon="2.22698">
        <ele>1272</ele>
        <time>2010-01-01T02:29:46Z</time>
      </trkpt>
      <trkpt lat="42.3082" lon="2.22694">
        <ele>1271</ele>
        <time>2010-01-01T02:29:47Z</time>
      </trkpt>
      <trkpt lat="42.3082" lon="2.22691">
        <ele>1271</ele>
        <time>2010-01-01T02:29:48Z</time>
      </trkpt>
      <trkpt lat="42.30821" lon="2.22687">
        <ele>1271</ele>
        <time>2010-01-01T02:29:49Z</time>
      </trkpt>
      <trkpt lat="42.30822" lon="2.22684">
        <ele>1271</ele>
        <time>2010-01-01T02:29:51Z</time>
      </trkpt>
      <trkpt lat="42.30823" lon="2.22681">
        <ele>1270</ele>
        <time>2010-01-01T02:29:52Z</time>
      </trkpt>
      <trkpt lat="42.30824" lon="2.22677">
        <ele>1270</ele>
        <time>2010-01-01T02:29:53Z</time>
      </trkpt>
      <trkpt lat="42.30825" lon="2.22674">
        <ele>1270</ele>
        <time>2010-01-01T02:29:54Z</time>
      </trkpt>
      <trkpt lat="42.30826" lon="2.22671">
        <ele>1270</ele>
        <time>2010-01-01T02:29:55Z</time>
      </trkpt>
      <trkpt lat="42.30828" lon="2.22667">
        <ele>1269</ele>
        <time>2010-01-01T02:29:56Z</time>
      </trkpt>
      <trkpt lat="42.3083" lon="2.22664">
        <ele>1269</ele>
        <time>2010-01-01T02:29:57Z</time>
      </trkpt>
      <trkpt lat="42.30832" lon="2.22661">
        <ele>1269</ele>
        <time>2010-01-01T02:29:59Z</time>
      </trkpt>
      <trkpt lat="42.30834" lon="2.22658">
        <ele>1269</ele>
        <time>2010-01-01T02:30:00Z</time>
      </trkpt>
      <trkpt lat="42.30836" lon="2.22656">
        <ele>1269</ele>
        <time>2010-01-01T02:30:01Z</time>
      </trkpt>
      <trkpt lat="42.30838" lon="2.22653">
        <ele>1268</ele>
        <time>2010-01-01T02:30:02Z</time>
      </trkpt>
      <trkpt lat="42.30841" lon="2.22652">
        <ele>1268</ele>
        <time>2010-01-01T02:30:03Z</time>
      </trkpt>
      <trkpt lat="42.30844" lon="2.22652">
        <ele>1267</ele>
        <time>2010-01-01T02:30:04Z</time>
      </trkpt>
      <trkpt lat="42.30847" lon="2.22654">
        <ele>1267</ele>
        <time>2010-01-01T02:30:06Z</time>
      </trkpt>
      <trkpt lat="42.30849" lon="2.22657">
        <ele>1267</ele>
        <time>2010-01-01T02:30:07Z</time>
      </trkpt>
      <trkpt lat="42.30852" lon="2.2266">
        <ele>1266</ele>
        <time>2010-01-01T02:30:08Z</time>
      </trkpt>
      <trkpt lat="42.30854" lon="2.22662">
        <ele>1266</ele>
        <time>2010-01-01T02:30:09Z</time>
      </trkpt>
      <trkpt lat="42.30856" lon="2.22664">
        <ele>1266</ele>
        <time>2010-01-01T02:30:10Z</time>
      </trkpt>
      <trkpt lat="42.30859" lon="2.22666">
        <ele>1266</ele>
        <time>2010-01-01T02:30:12Z</time>
      </trkpt>
      <trkpt lat="42.30861" lon="2.22667">
        <ele>1266</ele>
        <time>2010-01-01T02:30:13Z</time>
      </trkpt>
      <trkpt lat="42.30864" lon="2.22668">
        <ele>1265</ele>
        <time>2010-01-01T02:30:14Z</time>
      </trkpt>
      <trkpt lat="42.30866" lon="2.22668">
        <ele>1265</ele>
        <time>2010-01-01T02:30:15Z</time>
      </trkpt>
      <trkpt lat="42.30872" lon="2.22669">
        <ele>1263</ele>
        <time>2010-01-01T02:30:17Z</time>
      </trkpt>
      <trkpt lat="42.30875" lon="2.22669">
        <ele>1263</ele>
        <time>2010-01-01T02:30:18Z</time>
      </trkpt>
      <trkpt lat="42.30877" lon="2.22669">
        <ele>1262</ele>
        <time>2010-01-01T02:30:19Z</time>
      </trkpt>
      <trkpt lat="42.3088" lon="2.22669">
        <ele>1262</ele>
        <time>2010-01-01T02:30:20Z</time>
      </trkpt>
      <trkpt lat="42.30883" lon="2.22669">
        <ele>1261</ele>
        <time>2010-01-01T02:30:21Z</time>
      </trkpt>
      <trkpt lat="42.30886" lon="2.22668">
        <ele>1260</ele>
        <time>2010-01-01T02:30:23Z</time>
      </trkpt>
      <trkpt lat="42.30889" lon="2.22668">
        <ele>1260</ele>
        <time>2010-01-01T02:30:24Z</time>
      </trkpt>
      <trkpt lat="42.30891" lon="2.22667">
        <ele>1259</ele>
        <time>2010-01-01T02:30:25Z</time>
      </trkpt>
      <trkpt lat="42.30894" lon="2.22667">
        <ele>1258</ele>
        <time>2010-01-01T02:30:26Z</time>
      </trkpt>
      <trkpt lat="42.30897" lon="2.22666">
        <ele>1258</ele>
        <time>2010-01-01T02:30:27Z</time>
      </trkpt>
      <trkpt lat="42.309" lon="2.22666">
        <ele>1257</ele>
        <time>2010-01-01T02:30:28Z</time>
      </trkpt>
      <trkpt lat="42.30902" lon="2.22665">
        <ele>1256</ele>
        <time>2010-01-01T02:30:29Z</time>
      </trkpt>
      <trkpt lat="42.30905" lon="2.22665">
        <ele>1256</ele>
        <time>2010-01-01T02:30:30Z</time>
      </trkpt>
      <trkpt lat="42.30908" lon="2.22664">
        <ele>1255</ele>
        <time>2010-01-01T02:30:31Z</time>
      </trkpt>
      <trkpt lat="42.30911" lon="2.22664">
        <ele>1255</ele>
        <time>2010-01-01T02:30:33Z</time>
      </trkpt>
      <trkpt lat="42.30914" lon="2.22664">
        <ele>1254</ele>
        <time>2010-01-01T02:30:34Z</time>
      </trkpt>
      <trkpt lat="42.30916" lon="2.22664">
        <ele>1254</ele>
        <time>2010-01-01T02:30:35Z</time>
      </trkpt>
      <trkpt lat="42.30919" lon="2.22665">
        <ele>1253</ele>
        <time>2010-01-01T02:30:36Z</time>
      </trkpt>
      <trkpt lat="42.30922" lon="2.22666">
        <ele>1253</ele>
        <time>2010-01-01T02:30:37Z</time>
      </trkpt>
      <trkpt lat="42.30924" lon="2.22666">
        <ele>1252</ele>
        <time>2010-01-01T02:30:38Z</time>
      </trkpt>
      <trkpt lat="42.30927" lon="2.22667">
        <ele>1252</ele>
        <time>2010-01-01T02:30:39Z</time>
      </trkpt>
      <trkpt lat="42.3093" lon="2.22667">
        <ele>1251</ele>
        <time>2010-01-01T02:30:40Z</time>
      </trkpt>
      <trkpt lat="42.30933" lon="2.22668">
        <ele>1251</ele>
        <time>2010-01-01T02:30:42Z</time>
      </trkpt>
      <trkpt lat="42.30935" lon="2.22669">
        <ele>1250</ele>
        <time>2010-01-01T02:30:43Z</time>
      </trkpt>
      <trkpt lat="42.30938" lon="2.22669">
        <ele>1250</ele>
        <time>2010-01-01T02:30:44Z</time>
      </trkpt>
      <trkpt lat="42.30941" lon="2.22669">
        <ele>1249</ele>
        <time>2010-01-01T02:30:45Z</time>
      </trkpt>
      <trkpt lat="42.30943" lon="2.2267">
        <ele>1249</ele>
        <time>2010-01-01T02:30:46Z</time>
      </trkpt>
      <trkpt lat="42.30946" lon="2.22671">
        <ele>1248</ele>
        <time>2010-01-01T02:30:47Z</time>
      </trkpt>
      <trkpt lat="42.30949" lon="2.22671">
        <ele>1248</ele>
        <time>2010-01-01T02:30:48Z</time>
      </trkpt>
      <trkpt lat="42.30952" lon="2.22672">
        <ele>1248</ele>
        <time>2010-01-01T02:30:49Z</time>
      </trkpt>
      <trkpt lat="42.30954" lon="2.22673">
        <ele>1247</ele>
        <time>2010-01-01T02:30:50Z</time>
      </trkpt>
      <trkpt lat="42.30959" lon="2.22672">
        <ele>1247</ele>
        <time>2010-01-01T02:30:52Z</time>
      </trkpt>
      <trkpt lat="42.30962" lon="2.22672">
        <ele>1246</ele>
        <time>2010-01-01T02:30:53Z</time>
      </trkpt>
      <trkpt lat="42.3097" lon="2.22672">
        <ele>1246</ele>
        <time>2010-01-01T02:30:57Z</time>
      </trkpt>
      <trkpt lat="42.30973" lon="2.22673">
        <ele>1245</ele>
        <time>2010-01-01T02:30:58Z</time>
      </trkpt>
      <trkpt lat="42.30976" lon="2.22672">
        <ele>1245</ele>
        <time>2010-01-01T02:30:59Z</time>
      </trkpt>
      <trkpt lat="42.30978" lon="2.22672">
        <ele>1245</ele>
        <time>2010-01-01T02:31:00Z</time>
      </trkpt>
      <trkpt lat="42.30981" lon="2.22672">
        <ele>1245</ele>
        <time>2010-01-01T02:31:01Z</time>
      </trkpt>
      <trkpt lat="42.30984" lon="2.22671">
        <ele>1245</ele>
        <time>2010-01-01T02:31:02Z</time>
      </trkpt>
      <trkpt lat="42.30986" lon="2.2267">
        <ele>1245</ele>
        <time>2010-01-01T02:31:03Z</time>
      </trkpt>
      <trkpt lat="42.30989" lon="2.22669">
        <ele>1245</ele>
        <time>2010-01-01T02:31:04Z</time>
      </trkpt>
      <trkpt lat="42.30991" lon="2.22667">
        <ele>1245</ele>
        <time>2010-01-01T02:31:05Z</time>
      </trkpt>
      <trkpt lat="42.30993" lon="2.22665">
        <ele>1244</ele>
        <time>2010-01-01T02:31:06Z</time>
      </trkpt>
      <trkpt lat="42.30995" lon="2.22664">
        <ele>1244</ele>
        <time>2010-01-01T02:31:07Z</time>
      </trkpt>
      <trkpt lat="42.30998" lon="2.22662">
        <ele>1244</ele>
        <time>2010-01-01T02:31:08Z</time>
      </trkpt>
      <trkpt lat="42.31" lon="2.2266">
        <ele>1244</ele>
        <time>2010-01-01T02:31:10Z</time>
      </trkpt>
      <trkpt lat="42.31003" lon="2.22659">
        <ele>1243</ele>
        <time>2010-01-01T02:31:11Z</time>
      </trkpt>
      <trkpt lat="42.31005" lon="2.22657">
        <ele>1242</ele>
        <time>2010-01-01T02:31:12Z</time>
      </trkpt>
      <trkpt lat="42.31008" lon="2.22657">
        <ele>1242</ele>
        <time>2010-01-01T02:31:13Z</time>
      </trkpt>
      <trkpt lat="42.31011" lon="2.22657">
        <ele>1241</ele>
        <time>2010-01-01T02:31:14Z</time>
      </trkpt>
      <trkpt lat="42.31013" lon="2.22658">
        <ele>1241</ele>
        <time>2010-01-01T02:31:15Z</time>
      </trkpt>
      <trkpt lat="42.31016" lon="2.22661">
        <ele>1241</ele>
        <time>2010-01-01T02:31:16Z</time>
      </trkpt>
      <trkpt lat="42.31019" lon="2.22664">
        <ele>1241</ele>
        <time>2010-01-01T02:31:18Z</time>
      </trkpt>
      <trkpt lat="42.31021" lon="2.22668">
        <ele>1241</ele>
        <time>2010-01-01T02:31:19Z</time>
      </trkpt>
      <trkpt lat="42.31023" lon="2.22671">
        <ele>1241</ele>
        <time>2010-01-01T02:31:21Z</time>
      </trkpt>
      <trkpt lat="42.31025" lon="2.22675">
        <ele>1241</ele>
        <time>2010-01-01T02:31:22Z</time>
      </trkpt>
      <trkpt lat="42.31028" lon="2.22678">
        <ele>1240</ele>
        <time>2010-01-01T02:31:23Z</time>
      </trkpt>
      <trkpt lat="42.31029" lon="2.22682">
        <ele>1240</ele>
        <time>2010-01-01T02:31:25Z</time>
      </trkpt>
      <trkpt lat="42.3103" lon="2.22686">
        <ele>1240</ele>
        <time>2010-01-01T02:31:26Z</time>
      </trkpt>
      <trkpt lat="42.31031" lon="2.2269">
        <ele>1240</ele>
        <time>2010-01-01T02:31:27Z</time>
      </trkpt>
      <trkpt lat="42.31032" lon="2.22694">
        <ele>1240</ele>
        <time>2010-01-01T02:31:29Z</time>
      </trkpt>
      <trkpt lat="42.31032" lon="2.22699">
        <ele>1240</ele>
        <time>2010-01-01T02:31:30Z</time>
      </trkpt>
      <trkpt lat="42.31032" lon="2.22703">
        <ele>1240</ele>
        <time>2010-01-01T02:31:31Z</time>
      </trkpt>
      <trkpt lat="42.31032" lon="2.22708">
        <ele>1240</ele>
        <time>2010-01-01T02:31:32Z</time>
      </trkpt>
      <trkpt lat="42.31031" lon="2.22712">
        <ele>1240</ele>
        <time>2010-01-01T02:31:34Z</time>
      </trkpt>
      <trkpt lat="42.3103" lon="2.22716">
        <ele>1240</ele>
        <time>2010-01-01T02:31:35Z</time>
      </trkpt>
      <trkpt lat="42.31029" lon="2.22719">
        <ele>1240</ele>
        <time>2010-01-01T02:31:36Z</time>
      </trkpt>
      <trkpt lat="42.31028" lon="2.22722">
        <ele>1241</ele>
        <time>2010-01-01T02:31:37Z</time>
      </trkpt>
      <trkpt lat="42.31026" lon="2.22725">
        <ele>1240</ele>
        <time>2010-01-01T02:31:38Z</time>
      </trkpt>
      <trkpt lat="42.31025" lon="2.22729">
        <ele>1240</ele>
        <time>2010-01-01T02:31:39Z</time>
      </trkpt>
      <trkpt lat="42.31024" lon="2.22732">
        <ele>1240</ele>
        <time>2010-01-01T02:31:40Z</time>
      </trkpt>
      <trkpt lat="42.31023" lon="2.22736">
        <ele>1240</ele>
        <time>2010-01-01T02:31:42Z</time>
      </trkpt>
      <trkpt lat="42.31024" lon="2.22739">
        <ele>1239</ele>
        <time>2010-01-01T02:31:42Z</time>
      </trkpt>
      <trkpt lat="42.31026" lon="2.22741">
        <ele>1239</ele>
        <time>2010-01-01T02:31:43Z</time>
      </trkpt>
      <trkpt lat="42.31028" lon="2.22741">
        <ele>1238</ele>
        <time>2010-01-01T02:31:44Z</time>
      </trkpt>
      <trkpt lat="42.3103" lon="2.2274">
        <ele>1238</ele>
        <time>2010-01-01T02:31:45Z</time>
      </trkpt>
      <trkpt lat="42.31032" lon="2.22739">
        <ele>1238</ele>
        <time>2010-01-01T02:31:46Z</time>
      </trkpt>
      <trkpt lat="42.31034" lon="2.22738">
        <ele>1237</ele>
        <time>2010-01-01T02:31:47Z</time>
      </trkpt>
      <trkpt lat="42.31037" lon="2.22736">
        <ele>1237</ele>
        <time>2010-01-01T02:31:48Z</time>
      </trkpt>
      <trkpt lat="42.31039" lon="2.22735">
        <ele>1237</ele>
        <time>2010-01-01T02:31:49Z</time>
      </trkpt>
      <trkpt lat="42.31041" lon="2.22733">
        <ele>1236</ele>
        <time>2010-01-01T02:31:50Z</time>
      </trkpt>
      <trkpt lat="42.31043" lon="2.22732">
        <ele>1236</ele>
        <time>2010-01-01T02:31:51Z</time>
      </trkpt>
      <trkpt lat="42.31045" lon="2.22731">
        <ele>1235</ele>
        <time>2010-01-01T02:31:52Z</time>
      </trkpt>
      <trkpt lat="42.31048" lon="2.2273">
        <ele>1235</ele>
        <time>2010-01-01T02:31:53Z</time>
      </trkpt>
      <trkpt lat="42.31049" lon="2.22729">
        <ele>1234</ele>
        <time>2010-01-01T02:31:54Z</time>
      </trkpt>
      <trkpt lat="42.31052" lon="2.22727">
        <ele>1234</ele>
        <time>2010-01-01T02:31:55Z</time>
      </trkpt>
      <trkpt lat="42.31054" lon="2.22725">
        <ele>1233</ele>
        <time>2010-01-01T02:31:56Z</time>
      </trkpt>
      <trkpt lat="42.31056" lon="2.22724">
        <ele>1232</ele>
        <time>2010-01-01T02:31:57Z</time>
      </trkpt>
      <trkpt lat="42.31059" lon="2.22722">
        <ele>1232</ele>
        <time>2010-01-01T02:31:58Z</time>
      </trkpt>
      <trkpt lat="42.31061" lon="2.2272">
        <ele>1231</ele>
        <time>2010-01-01T02:31:59Z</time>
      </trkpt>
      <trkpt lat="42.31063" lon="2.22718">
        <ele>1230</ele>
        <time>2010-01-01T02:32:00Z</time>
      </trkpt>
      <trkpt lat="42.31065" lon="2.22717">
        <ele>1230</ele>
        <time>2010-01-01T02:32:01Z</time>
      </trkpt>
      <trkpt lat="42.31067" lon="2.22715">
        <ele>1229</ele>
        <time>2010-01-01T02:32:02Z</time>
      </trkpt>
      <trkpt lat="42.3107" lon="2.22713">
        <ele>1229</ele>
        <time>2010-01-01T02:32:03Z</time>
      </trkpt>
      <trkpt lat="42.31072" lon="2.22712">
        <ele>1228</ele>
        <time>2010-01-01T02:32:04Z</time>
      </trkpt>
      <trkpt lat="42.31074" lon="2.2271">
        <ele>1227</ele>
        <time>2010-01-01T02:32:05Z</time>
      </trkpt>
      <trkpt lat="42.31076" lon="2.22709">
        <ele>1227</ele>
        <time>2010-01-01T02:32:06Z</time>
      </trkpt>
      <trkpt lat="42.31079" lon="2.2271">
        <ele>1226</ele>
        <time>2010-01-01T02:32:07Z</time>
      </trkpt>
      <trkpt lat="42.31081" lon="2.22711">
        <ele>1225</ele>
        <time>2010-01-01T02:32:08Z</time>
      </trkpt>
      <trkpt lat="42.31083" lon="2.22713">
        <ele>1225</ele>
        <time>2010-01-01T02:32:09Z</time>
      </trkpt>
      <trkpt lat="42.31085" lon="2.22715">
        <ele>1225</ele>
        <time>2010-01-01T02:32:10Z</time>
      </trkpt>
      <trkpt lat="42.31086" lon="2.22718">
        <ele>1225</ele>
        <time>2010-01-01T02:32:11Z</time>
      </trkpt>
      <trkpt lat="42.31087" lon="2.2272">
        <ele>1225</ele>
        <time>2010-01-01T02:32:12Z</time>
      </trkpt>
      <trkpt lat="42.31089" lon="2.22722">
        <ele>1225</ele>
        <time>2010-01-01T02:32:13Z</time>
      </trkpt>
      <trkpt lat="42.31092" lon="2.22723">
        <ele>1224</ele>
        <time>2010-01-01T02:32:14Z</time>
      </trkpt>
      <trkpt lat="42.31093" lon="2.2272">
        <ele>1224</ele>
        <time>2010-01-01T02:32:15Z</time>
      </trkpt>
      <trkpt lat="42.31093" lon="2.22718">
        <ele>1223</ele>
        <time>2010-01-01T02:32:16Z</time>
      </trkpt>
      <trkpt lat="42.31094" lon="2.22714">
        <ele>1223</ele>
        <time>2010-01-01T02:32:17Z</time>
      </trkpt>
      <trkpt lat="42.31095" lon="2.2271">
        <ele>1223</ele>
        <time>2010-01-01T02:32:18Z</time>
      </trkpt>
      <trkpt lat="42.31096" lon="2.22708">
        <ele>1222</ele>
        <time>2010-01-01T02:32:19Z</time>
      </trkpt>
      <trkpt lat="42.31097" lon="2.22706">
        <ele>1222</ele>
        <time>2010-01-01T02:32:20Z</time>
      </trkpt>
      <trkpt lat="42.31099" lon="2.22704">
        <ele>1221</ele>
        <time>2010-01-01T02:32:21Z</time>
      </trkpt>
      <trkpt lat="42.31103" lon="2.22704">
        <ele>1221</ele>
        <time>2010-01-01T02:32:22Z</time>
      </trkpt>
      <trkpt lat="42.31105" lon="2.22702">
        <ele>1220</ele>
        <time>2010-01-01T02:32:23Z</time>
      </trkpt>
      <trkpt lat="42.31106" lon="2.22701">
        <ele>1220</ele>
        <time>2010-01-01T02:32:24Z</time>
      </trkpt>
      <trkpt lat="42.31108" lon="2.22697">
        <ele>1219</ele>
        <time>2010-01-01T02:32:25Z</time>
      </trkpt>
      <trkpt lat="42.31109" lon="2.22691">
        <ele>1219</ele>
        <time>2010-01-01T02:32:27Z</time>
      </trkpt>
      <trkpt lat="42.3111" lon="2.22688">
        <ele>1218</ele>
        <time>2010-01-01T02:32:28Z</time>
      </trkpt>
      <trkpt lat="42.31111" lon="2.22685">
        <ele>1218</ele>
        <time>2010-01-01T02:32:29Z</time>
      </trkpt>
      <trkpt lat="42.31112" lon="2.22683">
        <ele>1217</ele>
        <time>2010-01-01T02:32:30Z</time>
      </trkpt>
      <trkpt lat="42.31113" lon="2.2268">
        <ele>1217</ele>
        <time>2010-01-01T02:32:31Z</time>
      </trkpt>
      <trkpt lat="42.31115" lon="2.22676">
        <ele>1216</ele>
        <time>2010-01-01T02:32:32Z</time>
      </trkpt>
      <trkpt lat="42.31116" lon="2.22672">
        <ele>1216</ele>
        <time>2010-01-01T02:32:33Z</time>
      </trkpt>
      <trkpt lat="42.31117" lon="2.22669">
        <ele>1215</ele>
        <time>2010-01-01T02:32:34Z</time>
      </trkpt>
      <trkpt lat="42.31118" lon="2.22666">
        <ele>1215</ele>
        <time>2010-01-01T02:32:35Z</time>
      </trkpt>
      <trkpt lat="42.31119" lon="2.22663">
        <ele>1214</ele>
        <time>2010-01-01T02:32:36Z</time>
      </trkpt>
      <trkpt lat="42.31119" lon="2.2266">
        <ele>1214</ele>
        <time>2010-01-01T02:32:37Z</time>
      </trkpt>
      <trkpt lat="42.3112" lon="2.22657">
        <ele>1214</ele>
        <time>2010-01-01T02:32:38Z</time>
      </trkpt>
      <trkpt lat="42.3112" lon="2.22654">
        <ele>1213</ele>
        <time>2010-01-01T02:32:39Z</time>
      </trkpt>
      <trkpt lat="42.3112" lon="2.22651">
        <ele>1213</ele>
        <time>2010-01-01T02:32:40Z</time>
      </trkpt>
      <trkpt lat="42.3112" lon="2.22649">
        <ele>1213</ele>
        <time>2010-01-01T02:32:40Z</time>
      </trkpt>
      <trkpt lat="42.3112" lon="2.22646">
        <ele>1212</ele>
        <time>2010-01-01T02:32:41Z</time>
      </trkpt>
      <trkpt lat="42.31121" lon="2.22643">
        <ele>1212</ele>
        <time>2010-01-01T02:32:42Z</time>
      </trkpt>
      <trkpt lat="42.31122" lon="2.2264">
        <ele>1211</ele>
        <time>2010-01-01T02:32:43Z</time>
      </trkpt>
      <trkpt lat="42.31122" lon="2.22636">
        <ele>1211</ele>
        <time>2010-01-01T02:32:44Z</time>
      </trkpt>
      <trkpt lat="42.31123" lon="2.22633">
        <ele>1210</ele>
        <time>2010-01-01T02:32:45Z</time>
      </trkpt>
      <trkpt lat="42.31123" lon="2.22629">
        <ele>1210</ele>
        <time>2010-01-01T02:32:46Z</time>
      </trkpt>
      <trkpt lat="42.31124" lon="2.22626">
        <ele>1209</ele>
        <time>2010-01-01T02:32:47Z</time>
      </trkpt>
      <trkpt lat="42.31124" lon="2.22622">
        <ele>1209</ele>
        <time>2010-01-01T02:32:48Z</time>
      </trkpt>
      <trkpt lat="42.31124" lon="2.22619">
        <ele>1208</ele>
        <time>2010-01-01T02:32:49Z</time>
      </trkpt>
      <trkpt lat="42.31125" lon="2.22615">
        <ele>1208</ele>
        <time>2010-01-01T02:32:51Z</time>
      </trkpt>
      <trkpt lat="42.31125" lon="2.22611">
        <ele>1207</ele>
        <time>2010-01-01T02:32:52Z</time>
      </trkpt>
      <trkpt lat="42.31126" lon="2.22603">
        <ele>1206</ele>
        <time>2010-01-01T02:32:54Z</time>
      </trkpt>
      <trkpt lat="42.31126" lon="2.226">
        <ele>1205</ele>
        <time>2010-01-01T02:32:55Z</time>
      </trkpt>
      <trkpt lat="42.31127" lon="2.22596">
        <ele>1205</ele>
        <time>2010-01-01T02:32:56Z</time>
      </trkpt>
      <trkpt lat="42.31129" lon="2.22593">
        <ele>1204</ele>
        <time>2010-01-01T02:32:57Z</time>
      </trkpt>
      <trkpt lat="42.3113" lon="2.2259">
        <ele>1203</ele>
        <time>2010-01-01T02:32:58Z</time>
      </trkpt>
      <trkpt lat="42.31132" lon="2.22587">
        <ele>1202</ele>
        <time>2010-01-01T02:32:59Z</time>
      </trkpt>
      <trkpt lat="42.31134" lon="2.22585">
        <ele>1202</ele>
        <time>2010-01-01T02:33:01Z</time>
      </trkpt>
      <trkpt lat="42.31136" lon="2.22582">
        <ele>1201</ele>
        <time>2010-01-01T02:33:02Z</time>
      </trkpt>
      <trkpt lat="42.31139" lon="2.2258">
        <ele>1200</ele>
        <time>2010-01-01T02:33:03Z</time>
      </trkpt>
      <trkpt lat="42.31141" lon="2.22577">
        <ele>1200</ele>
        <time>2010-01-01T02:33:04Z</time>
      </trkpt>
      <trkpt lat="42.31144" lon="2.22575">
        <ele>1200</ele>
        <time>2010-01-01T02:33:05Z</time>
      </trkpt>
      <trkpt lat="42.31147" lon="2.22574">
        <ele>1200</ele>
        <time>2010-01-01T02:33:07Z</time>
      </trkpt>
      <trkpt lat="42.31149" lon="2.22572">
        <ele>1200</ele>
        <time>2010-01-01T02:33:08Z</time>
      </trkpt>
      <trkpt lat="42.31152" lon="2.2257">
        <ele>1200</ele>
        <time>2010-01-01T02:33:09Z</time>
      </trkpt>
      <trkpt lat="42.31155" lon="2.22568">
        <ele>1200</ele>
        <time>2010-01-01T02:33:10Z</time>
      </trkpt>
      <trkpt lat="42.31157" lon="2.22566">
        <ele>1200</ele>
        <time>2010-01-01T02:33:11Z</time>
      </trkpt>
      <trkpt lat="42.31159" lon="2.22564">
        <ele>1200</ele>
        <time>2010-01-01T02:33:12Z</time>
      </trkpt>
      <trkpt lat="42.31162" lon="2.22562">
        <ele>1200</ele>
        <time>2010-01-01T02:33:14Z</time>
      </trkpt>
      <trkpt lat="42.31164" lon="2.2256">
        <ele>1200</ele>
        <time>2010-01-01T02:33:15Z</time>
      </trkpt>
      <trkpt lat="42.31167" lon="2.22558">
        <ele>1200</ele>
        <time>2010-01-01T02:33:16Z</time>
      </trkpt>
      <trkpt lat="42.31169" lon="2.22556">
        <ele>1200</ele>
        <time>2010-01-01T02:33:17Z</time>
      </trkpt>
      <trkpt lat="42.31171" lon="2.22554">
        <ele>1199</ele>
        <time>2010-01-01T02:33:18Z</time>
      </trkpt>
      <trkpt lat="42.31174" lon="2.22552">
        <ele>1199</ele>
        <time>2010-01-01T02:33:19Z</time>
      </trkpt>
      <trkpt lat="42.31176" lon="2.2255">
        <ele>1199</ele>
        <time>2010-01-01T02:33:20Z</time>
      </trkpt>
      <trkpt lat="42.31178" lon="2.22547">
        <ele>1198</ele>
        <time>2010-01-01T02:33:22Z</time>
      </trkpt>
      <trkpt lat="42.31181" lon="2.22545">
        <ele>1198</ele>
        <time>2010-01-01T02:33:23Z</time>
      </trkpt>
      <trkpt lat="42.31183" lon="2.22543">
        <ele>1197</ele>
        <time>2010-01-01T02:33:24Z</time>
      </trkpt>
      <trkpt lat="42.31185" lon="2.2254">
        <ele>1197</ele>
        <time>2010-01-01T02:33:25Z</time>
      </trkpt>
      <trkpt lat="42.31188" lon="2.22538">
        <ele>1197</ele>
        <time>2010-01-01T02:33:26Z</time>
      </trkpt>
      <trkpt lat="42.3119" lon="2.22537">
        <ele>1196</ele>
        <time>2010-01-01T02:33:27Z</time>
      </trkpt>
      <trkpt lat="42.31193" lon="2.22537">
        <ele>1196</ele>
        <time>2010-01-01T02:33:28Z</time>
      </trkpt>
      <trkpt lat="42.31196" lon="2.2254">
        <ele>1196</ele>
        <time>2010-01-01T02:33:30Z</time>
      </trkpt>
      <trkpt lat="42.31199" lon="2.22542">
        <ele>1197</ele>
        <time>2010-01-01T02:33:31Z</time>
      </trkpt>
      <trkpt lat="42.31201" lon="2.22545">
        <ele>1197</ele>
        <time>2010-01-01T02:33:32Z</time>
      </trkpt>
      <trkpt lat="42.31203" lon="2.22548">
        <ele>1197</ele>
        <time>2010-01-01T02:33:33Z</time>
      </trkpt>
      <trkpt lat="42.31205" lon="2.2255">
        <ele>1197</ele>
        <time>2010-01-01T02:33:35Z</time>
      </trkpt>
      <trkpt lat="42.31207" lon="2.22553">
        <ele>1197</ele>
        <time>2010-01-01T02:33:36Z</time>
      </trkpt>
      <trkpt lat="42.31209" lon="2.22556">
        <ele>1197</ele>
        <time>2010-01-01T02:33:37Z</time>
      </trkpt>
      <trkpt lat="42.31211" lon="2.22559">
        <ele>1197</ele>
        <time>2010-01-01T02:33:38Z</time>
      </trkpt>
      <trkpt lat="42.31213" lon="2.22562">
        <ele>1197</ele>
        <time>2010-01-01T02:33:39Z</time>
      </trkpt>
      <trkpt lat="42.31216" lon="2.22565">
        <ele>1197</ele>
        <time>2010-01-01T02:33:41Z</time>
      </trkpt>
      <trkpt lat="42.31217" lon="2.22569">
        <ele>1197</ele>
        <time>2010-01-01T02:33:42Z</time>
      </trkpt>
      <trkpt lat="42.31219" lon="2.22572">
        <ele>1197</ele>
        <time>2010-01-01T02:33:43Z</time>
      </trkpt>
      <trkpt lat="42.3122" lon="2.22575">
        <ele>1197</ele>
        <time>2010-01-01T02:33:44Z</time>
      </trkpt>
      <trkpt lat="42.31223" lon="2.22578">
        <ele>1197</ele>
        <time>2010-01-01T02:33:45Z</time>
      </trkpt>
      <trkpt lat="42.31225" lon="2.22581">
        <ele>1197</ele>
        <time>2010-01-01T02:33:47Z</time>
      </trkpt>
      <trkpt lat="42.31227" lon="2.22584">
        <ele>1197</ele>
        <time>2010-01-01T02:33:48Z</time>
      </trkpt>
      <trkpt lat="42.31228" lon="2.22587">
        <ele>1197</ele>
        <time>2010-01-01T02:33:49Z</time>
      </trkpt>
      <trkpt lat="42.3123" lon="2.2259">
        <ele>1197</ele>
        <time>2010-01-01T02:33:50Z</time>
      </trkpt>
      <trkpt lat="42.31232" lon="2.22594">
        <ele>1197</ele>
        <time>2010-01-01T02:33:51Z</time>
      </trkpt>
      <trkpt lat="42.31234" lon="2.22596">
        <ele>1197</ele>
        <time>2010-01-01T02:33:52Z</time>
      </trkpt>
      <trkpt lat="42.31235" lon="2.22599">
        <ele>1197</ele>
        <time>2010-01-01T02:33:53Z</time>
      </trkpt>
      <trkpt lat="42.31236" lon="2.22602">
        <ele>1197</ele>
        <time>2010-01-01T02:33:54Z</time>
      </trkpt>
      <trkpt lat="42.31237" lon="2.22606">
        <ele>1197</ele>
        <time>2010-01-01T02:33:56Z</time>
      </trkpt>
      <trkpt lat="42.31237" lon="2.2261">
        <ele>1197</ele>
        <time>2010-01-01T02:33:57Z</time>
      </trkpt>
      <trkpt lat="42.31238" lon="2.22614">
        <ele>1197</ele>
        <time>2010-01-01T02:33:58Z</time>
      </trkpt>
      <trkpt lat="42.31238" lon="2.22618">
        <ele>1198</ele>
        <time>2010-01-01T02:33:59Z</time>
      </trkpt>
      <trkpt lat="42.31238" lon="2.22622">
        <ele>1198</ele>
        <time>2010-01-01T02:34:00Z</time>
      </trkpt>
      <trkpt lat="42.31237" lon="2.22626">
        <ele>1198</ele>
        <time>2010-01-01T02:34:02Z</time>
      </trkpt>
      <trkpt lat="42.31237" lon="2.22629">
        <ele>1198</ele>
        <time>2010-01-01T02:34:03Z</time>
      </trkpt>
      <trkpt lat="42.31237" lon="2.22637">
        <ele>1199</ele>
        <time>2010-01-01T02:34:05Z</time>
      </trkpt>
      <trkpt lat="42.31237" lon="2.22641">
        <ele>1199</ele>
        <time>2010-01-01T02:34:06Z</time>
      </trkpt>
      <trkpt lat="42.31237" lon="2.22645">
        <ele>1199</ele>
        <time>2010-01-01T02:34:07Z</time>
      </trkpt>
      <trkpt lat="42.31238" lon="2.22649">
        <ele>1200</ele>
        <time>2010-01-01T02:34:08Z</time>
      </trkpt>
      <trkpt lat="42.31238" lon="2.22652">
        <ele>1200</ele>
        <time>2010-01-01T02:34:09Z</time>
      </trkpt>
      <trkpt lat="42.3124" lon="2.22655">
        <ele>1200</ele>
        <time>2010-01-01T02:34:10Z</time>
      </trkpt>
      <trkpt lat="42.31241" lon="2.22659">
        <ele>1200</ele>
        <time>2010-01-01T02:34:12Z</time>
      </trkpt>
      <trkpt lat="42.31242" lon="2.22662">
        <ele>1201</ele>
        <time>2010-01-01T02:34:13Z</time>
      </trkpt>
      <trkpt lat="42.31243" lon="2.22666">
        <ele>1201</ele>
        <time>2010-01-01T02:34:14Z</time>
      </trkpt>
      <trkpt lat="42.31244" lon="2.22668">
        <ele>1201</ele>
        <time>2010-01-01T02:34:15Z</time>
      </trkpt>
      <trkpt lat="42.31245" lon="2.22673">
        <ele>1201</ele>
        <time>2010-01-01T02:34:16Z</time>
      </trkpt>
      <trkpt lat="42.31247" lon="2.22675">
        <ele>1201</ele>
        <time>2010-01-01T02:34:17Z</time>
      </trkpt>
      <trkpt lat="42.31248" lon="2.22678">
        <ele>1201</ele>
        <time>2010-01-01T02:34:18Z</time>
      </trkpt>
      <trkpt lat="42.31248" lon="2.2268">
        <ele>1202</ele>
        <time>2010-01-01T02:34:19Z</time>
      </trkpt>
      <trkpt lat="42.31246" lon="2.22693">
        <ele>1203</ele>
        <time>2010-01-01T02:34:23Z</time>
      </trkpt>
      <trkpt lat="42.31255" lon="2.22699">
        <ele>1203</ele>
        <time>2010-01-01T02:34:27Z</time>
      </trkpt>
      <trkpt lat="42.31259" lon="2.22686">
        <ele>1203</ele>
        <time>2010-01-01T02:34:31Z</time>
      </trkpt>
      <trkpt lat="42.3126" lon="2.22672">
        <ele>1202</ele>
        <time>2010-01-01T02:34:35Z</time>
      </trkpt>
      <trkpt lat="42.31258" lon="2.22656">
        <ele>1201</ele>
        <time>2010-01-01T02:34:40Z</time>
      </trkpt>
      <trkpt lat="42.31257" lon="2.2265">
        <ele>1200</ele>
        <time>2010-01-01T02:34:42Z</time>
      </trkpt>
      <trkpt lat="42.31257" lon="2.22647">
        <ele>1199</ele>
        <time>2010-01-01T02:34:43Z</time>
      </trkpt>
      <trkpt lat="42.31256" lon="2.22633">
        <ele>1198</ele>
        <time>2010-01-01T02:34:47Z</time>
      </trkpt>
      <trkpt lat="42.31259" lon="2.2262">
        <ele>1198</ele>
        <time>2010-01-01T02:34:51Z</time>
      </trkpt>
      <trkpt lat="42.31263" lon="2.22606">
        <ele>1198</ele>
        <time>2010-01-01T02:34:55Z</time>
      </trkpt>
      <trkpt lat="42.31264" lon="2.22601">
        <ele>1198</ele>
        <time>2010-01-01T02:34:57Z</time>
      </trkpt>
      <trkpt lat="42.31265" lon="2.22588">
        <ele>1198</ele>
        <time>2010-01-01T02:35:01Z</time>
      </trkpt>
      <trkpt lat="42.31265" lon="2.22582">
        <ele>1198</ele>
        <time>2010-01-01T02:35:02Z</time>
      </trkpt>
      <trkpt lat="42.31263" lon="2.22572">
        <ele>1197</ele>
        <time>2010-01-01T02:35:05Z</time>
      </trkpt>
      <trkpt lat="42.31263" lon="2.22567">
        <ele>1196</ele>
        <time>2010-01-01T02:35:07Z</time>
      </trkpt>
      <trkpt lat="42.31263" lon="2.22563">
        <ele>1196</ele>
        <time>2010-01-01T02:35:08Z</time>
      </trkpt>
      <trkpt lat="42.31264" lon="2.22558">
        <ele>1196</ele>
        <time>2010-01-01T02:35:09Z</time>
      </trkpt>
      <trkpt lat="42.31265" lon="2.22556">
        <ele>1196</ele>
        <time>2010-01-01T02:35:10Z</time>
      </trkpt>
      <trkpt lat="42.31266" lon="2.22554">
        <ele>1197</ele>
        <time>2010-01-01T02:35:11Z</time>
      </trkpt>
      <trkpt lat="42.31266" lon="2.22551">
        <ele>1197</ele>
        <time>2010-01-01T02:35:12Z</time>
      </trkpt>
      <trkpt lat="42.31267" lon="2.22548">
        <ele>1197</ele>
        <time>2010-01-01T02:35:13Z</time>
      </trkpt>
      <trkpt lat="42.31267" lon="2.22546">
        <ele>1197</ele>
        <time>2010-01-01T02:35:13Z</time>
      </trkpt>
      <trkpt lat="42.31268" lon="2.22543">
        <ele>1197</ele>
        <time>2010-01-01T02:35:14Z</time>
      </trkpt>
      <trkpt lat="42.31269" lon="2.2254">
        <ele>1197</ele>
        <time>2010-01-01T02:35:15Z</time>
      </trkpt>
      <trkpt lat="42.31269" lon="2.22537">
        <ele>1197</ele>
        <time>2010-01-01T02:35:16Z</time>
      </trkpt>
      <trkpt lat="42.31269" lon="2.22534">
        <ele>1197</ele>
        <time>2010-01-01T02:35:17Z</time>
      </trkpt>
      <trkpt lat="42.31269" lon="2.22532">
        <ele>1197</ele>
        <time>2010-01-01T02:35:18Z</time>
      </trkpt>
      <trkpt lat="42.3127" lon="2.22529">
        <ele>1197</ele>
        <time>2010-01-01T02:35:19Z</time>
      </trkpt>
      <trkpt lat="42.31271" lon="2.22524">
        <ele>1197</ele>
        <time>2010-01-01T02:35:20Z</time>
      </trkpt>
      <trkpt lat="42.31272" lon="2.22522">
        <ele>1197</ele>
        <time>2010-01-01T02:35:21Z</time>
      </trkpt>
      <trkpt lat="42.31273" lon="2.22519">
        <ele>1197</ele>
        <time>2010-01-01T02:35:22Z</time>
      </trkpt>
      <trkpt lat="42.31273" lon="2.22516">
        <ele>1196</ele>
        <time>2010-01-01T02:35:23Z</time>
      </trkpt>
      <trkpt lat="42.31274" lon="2.22514">
        <ele>1196</ele>
        <time>2010-01-01T02:35:23Z</time>
      </trkpt>
      <trkpt lat="42.31275" lon="2.22511">
        <ele>1196</ele>
        <time>2010-01-01T02:35:24Z</time>
      </trkpt>
      <trkpt lat="42.31275" lon="2.22508">
        <ele>1196</ele>
        <time>2010-01-01T02:35:25Z</time>
      </trkpt>
      <trkpt lat="42.31276" lon="2.22505">
        <ele>1196</ele>
        <time>2010-01-01T02:35:26Z</time>
      </trkpt>
      <trkpt lat="42.31276" lon="2.22502">
        <ele>1195</ele>
        <time>2010-01-01T02:35:27Z</time>
      </trkpt>
      <trkpt lat="42.31277" lon="2.225">
        <ele>1195</ele>
        <time>2010-01-01T02:35:28Z</time>
      </trkpt>
      <trkpt lat="42.31277" lon="2.22497">
        <ele>1195</ele>
        <time>2010-01-01T02:35:29Z</time>
      </trkpt>
      <trkpt lat="42.31278" lon="2.22493">
        <ele>1195</ele>
        <time>2010-01-01T02:35:30Z</time>
      </trkpt>
      <trkpt lat="42.31278" lon="2.2249">
        <ele>1195</ele>
        <time>2010-01-01T02:35:31Z</time>
      </trkpt>
      <trkpt lat="42.31279" lon="2.22488">
        <ele>1195</ele>
        <time>2010-01-01T02:35:31Z</time>
      </trkpt>
      <trkpt lat="42.31279" lon="2.22485">
        <ele>1196</ele>
        <time>2010-01-01T02:35:32Z</time>
      </trkpt>
      <trkpt lat="42.3128" lon="2.22481">
        <ele>1196</ele>
        <time>2010-01-01T02:35:33Z</time>
      </trkpt>
      <trkpt lat="42.3128" lon="2.22478">
        <ele>1196</ele>
        <time>2010-01-01T02:35:34Z</time>
      </trkpt>
      <trkpt lat="42.31281" lon="2.22475">
        <ele>1196</ele>
        <time>2010-01-01T02:35:35Z</time>
      </trkpt>
      <trkpt lat="42.31281" lon="2.22471">
        <ele>1196</ele>
        <time>2010-01-01T02:35:36Z</time>
      </trkpt>
      <trkpt lat="42.31282" lon="2.22468">
        <ele>1196</ele>
        <time>2010-01-01T02:35:37Z</time>
      </trkpt>
      <trkpt lat="42.31282" lon="2.22466">
        <ele>1196</ele>
        <time>2010-01-01T02:35:38Z</time>
      </trkpt>
      <trkpt lat="42.31283" lon="2.22463">
        <ele>1197</ele>
        <time>2010-01-01T02:35:39Z</time>
      </trkpt>
      <trkpt lat="42.31283" lon="2.2246">
        <ele>1197</ele>
        <time>2010-01-01T02:35:40Z</time>
      </trkpt>
      <trkpt lat="42.31284" lon="2.22457">
        <ele>1197</ele>
        <time>2010-01-01T02:35:41Z</time>
      </trkpt>
      <trkpt lat="42.31284" lon="2.22454">
        <ele>1197</ele>
        <time>2010-01-01T02:35:42Z</time>
      </trkpt>
      <trkpt lat="42.31284" lon="2.22451">
        <ele>1197</ele>
        <time>2010-01-01T02:35:42Z</time>
      </trkpt>
      <trkpt lat="42.31284" lon="2.22448">
        <ele>1197</ele>
        <time>2010-01-01T02:35:43Z</time>
      </trkpt>
      <trkpt lat="42.31284" lon="2.22442">
        <ele>1198</ele>
        <time>2010-01-01T02:35:45Z</time>
      </trkpt>
      <trkpt lat="42.31283" lon="2.22439">
        <ele>1198</ele>
        <time>2010-01-01T02:35:46Z</time>
      </trkpt>
      <trkpt lat="42.31282" lon="2.22436">
        <ele>1198</ele>
        <time>2010-01-01T02:35:47Z</time>
      </trkpt>
      <trkpt lat="42.31282" lon="2.22433">
        <ele>1199</ele>
        <time>2010-01-01T02:35:48Z</time>
      </trkpt>
      <trkpt lat="42.31281" lon="2.22429">
        <ele>1199</ele>
        <time>2010-01-01T02:35:49Z</time>
      </trkpt>
      <trkpt lat="42.31281" lon="2.22427">
        <ele>1199</ele>
        <time>2010-01-01T02:35:50Z</time>
      </trkpt>
      <trkpt lat="42.31279" lon="2.22425">
        <ele>1199</ele>
        <time>2010-01-01T02:35:51Z</time>
      </trkpt>
      <trkpt lat="42.31278" lon="2.22422">
        <ele>1199</ele>
        <time>2010-01-01T02:35:52Z</time>
      </trkpt>
      <trkpt lat="42.31278" lon="2.22419">
        <ele>1199</ele>
        <time>2010-01-01T02:35:52Z</time>
      </trkpt>
      <trkpt lat="42.31277" lon="2.22417">
        <ele>1199</ele>
        <time>2010-01-01T02:35:53Z</time>
      </trkpt>
      <trkpt lat="42.31276" lon="2.22414">
        <ele>1199</ele>
        <time>2010-01-01T02:35:54Z</time>
      </trkpt>
      <trkpt lat="42.31275" lon="2.22411">
        <ele>1200</ele>
        <time>2010-01-01T02:35:55Z</time>
      </trkpt>
      <trkpt lat="42.31274" lon="2.22409">
        <ele>1200</ele>
        <time>2010-01-01T02:35:56Z</time>
      </trkpt>
      <trkpt lat="42.31272" lon="2.22406">
        <ele>1200</ele>
        <time>2010-01-01T02:35:57Z</time>
      </trkpt>
      <trkpt lat="42.31272" lon="2.22404">
        <ele>1200</ele>
        <time>2010-01-01T02:35:58Z</time>
      </trkpt>
      <trkpt lat="42.31271" lon="2.22402">
        <ele>1200</ele>
        <time>2010-01-01T02:35:58Z</time>
      </trkpt>
      <trkpt lat="42.3127" lon="2.22399">
        <ele>1201</ele>
        <time>2010-01-01T02:35:59Z</time>
      </trkpt>
      <trkpt lat="42.31269" lon="2.22396">
        <ele>1201</ele>
        <time>2010-01-01T02:36:00Z</time>
      </trkpt>
      <trkpt lat="42.31269" lon="2.22393">
        <ele>1201</ele>
        <time>2010-01-01T02:36:01Z</time>
      </trkpt>
      <trkpt lat="42.31268" lon="2.2239">
        <ele>1202</ele>
        <time>2010-01-01T02:36:02Z</time>
      </trkpt>
      <trkpt lat="42.31268" lon="2.22387">
        <ele>1203</ele>
        <time>2010-01-01T02:36:03Z</time>
      </trkpt>
      <trkpt lat="42.31269" lon="2.22383">
        <ele>1204</ele>
        <time>2010-01-01T02:36:04Z</time>
      </trkpt>
      <trkpt lat="42.31271" lon="2.22381">
        <ele>1206</ele>
        <time>2010-01-01T02:36:05Z</time>
      </trkpt>
      <trkpt lat="42.31276" lon="2.22379">
        <ele>1209</ele>
        <time>2010-01-01T02:36:07Z</time>
      </trkpt>
      <trkpt lat="42.31274" lon="2.22381">
        <ele>1207</ele>
        <time>2010-01-01T02:36:08Z</time>
      </trkpt>
      <trkpt lat="42.31273" lon="2.22378">
        <ele>1208</ele>
        <time>2010-01-01T02:36:09Z</time>
      </trkpt>
      <trkpt lat="42.31273" lon="2.22375">
        <ele>1208</ele>
        <time>2010-01-01T02:36:10Z</time>
      </trkpt>
      <trkpt lat="42.31271" lon="2.22372">
        <ele>1208</ele>
        <time>2010-01-01T02:36:11Z</time>
      </trkpt>
      <trkpt lat="42.3127" lon="2.22369">
        <ele>1207</ele>
        <time>2010-01-01T02:36:12Z</time>
      </trkpt>
      <trkpt lat="42.31269" lon="2.22366">
        <ele>1207</ele>
        <time>2010-01-01T02:36:13Z</time>
      </trkpt>
      <trkpt lat="42.31267" lon="2.22362">
        <ele>1207</ele>
        <time>2010-01-01T02:36:14Z</time>
      </trkpt>
      <trkpt lat="42.31266" lon="2.22359">
        <ele>1207</ele>
        <time>2010-01-01T02:36:16Z</time>
      </trkpt>
      <trkpt lat="42.31265" lon="2.22356">
        <ele>1207</ele>
        <time>2010-01-01T02:36:17Z</time>
      </trkpt>
      <trkpt lat="42.31264" lon="2.22352">
        <ele>1207</ele>
        <time>2010-01-01T02:36:18Z</time>
      </trkpt>
      <trkpt lat="42.31262" lon="2.22349">
        <ele>1207</ele>
        <time>2010-01-01T02:36:19Z</time>
      </trkpt>
      <trkpt lat="42.3126" lon="2.22345">
        <ele>1207</ele>
        <time>2010-01-01T02:36:20Z</time>
      </trkpt>
      <trkpt lat="42.31259" lon="2.22342">
        <ele>1207</ele>
        <time>2010-01-01T02:36:21Z</time>
      </trkpt>
      <trkpt lat="42.31258" lon="2.22339">
        <ele>1207</ele>
        <time>2010-01-01T02:36:22Z</time>
      </trkpt>
      <trkpt lat="42.31257" lon="2.22335">
        <ele>1207</ele>
        <time>2010-01-01T02:36:24Z</time>
      </trkpt>
      <trkpt lat="42.31256" lon="2.22332">
        <ele>1207</ele>
        <time>2010-01-01T02:36:25Z</time>
      </trkpt>
      <trkpt lat="42.31255" lon="2.22329">
        <ele>1207</ele>
        <time>2010-01-01T02:36:26Z</time>
      </trkpt>
      <trkpt lat="42.31254" lon="2.22325">
        <ele>1207</ele>
        <time>2010-01-01T02:36:27Z</time>
      </trkpt>
      <trkpt lat="42.31253" lon="2.22322">
        <ele>1207</ele>
        <time>2010-01-01T02:36:28Z</time>
      </trkpt>
      <trkpt lat="42.31252" lon="2.22319">
        <ele>1207</ele>
        <time>2010-01-01T02:36:29Z</time>
      </trkpt>
      <trkpt lat="42.31252" lon="2.22315">
        <ele>1207</ele>
        <time>2010-01-01T02:36:30Z</time>
      </trkpt>
      <trkpt lat="42.31252" lon="2.22312">
        <ele>1208</ele>
        <time>2010-01-01T02:36:31Z</time>
      </trkpt>
      <trkpt lat="42.31252" lon="2.22308">
        <ele>1208</ele>
        <time>2010-01-01T02:36:32Z</time>
      </trkpt>
      <trkpt lat="42.31251" lon="2.22304">
        <ele>1208</ele>
        <time>2010-01-01T02:36:33Z</time>
      </trkpt>
      <trkpt lat="42.3125" lon="2.22301">
        <ele>1207</ele>
        <time>2010-01-01T02:36:34Z</time>
      </trkpt>
      <trkpt lat="42.31249" lon="2.22298">
        <ele>1207</ele>
        <time>2010-01-01T02:36:35Z</time>
      </trkpt>
      <trkpt lat="42.31248" lon="2.22294">
        <ele>1206</ele>
        <time>2010-01-01T02:36:36Z</time>
      </trkpt>
      <trkpt lat="42.31248" lon="2.2229">
        <ele>1206</ele>
        <time>2010-01-01T02:36:38Z</time>
      </trkpt>
      <trkpt lat="42.31247" lon="2.22286">
        <ele>1205</ele>
        <time>2010-01-01T02:36:39Z</time>
      </trkpt>
      <trkpt lat="42.31246" lon="2.22282">
        <ele>1205</ele>
        <time>2010-01-01T02:36:40Z</time>
      </trkpt>
      <trkpt lat="42.31246" lon="2.22278">
        <ele>1204</ele>
        <time>2010-01-01T02:36:41Z</time>
      </trkpt>
      <trkpt lat="42.31246" lon="2.22275">
        <ele>1204</ele>
        <time>2010-01-01T02:36:42Z</time>
      </trkpt>
      <trkpt lat="42.31245" lon="2.22267">
        <ele>1203</ele>
        <time>2010-01-01T02:36:45Z</time>
      </trkpt>
      <trkpt lat="42.31246" lon="2.22262">
        <ele>1202</ele>
        <time>2010-01-01T02:36:46Z</time>
      </trkpt>
      <trkpt lat="42.31246" lon="2.22258">
        <ele>1202</ele>
        <time>2010-01-01T02:36:47Z</time>
      </trkpt>
      <trkpt lat="42.31246" lon="2.22249">
        <ele>1201</ele>
        <time>2010-01-01T02:36:50Z</time>
      </trkpt>
      <trkpt lat="42.31246" lon="2.22244">
        <ele>1201</ele>
        <time>2010-01-01T02:36:51Z</time>
      </trkpt>
      <trkpt lat="42.31247" lon="2.2224">
        <ele>1200</ele>
        <time>2010-01-01T02:36:53Z</time>
      </trkpt>
      <trkpt lat="42.31248" lon="2.22236">
        <ele>1200</ele>
        <time>2010-01-01T02:36:54Z</time>
      </trkpt>
      <trkpt lat="42.31249" lon="2.22232">
        <ele>1200</ele>
        <time>2010-01-01T02:36:55Z</time>
      </trkpt>
      <trkpt lat="42.31249" lon="2.22229">
        <ele>1200</ele>
        <time>2010-01-01T02:36:56Z</time>
      </trkpt>
      <trkpt lat="42.31251" lon="2.22225">
        <ele>1200</ele>
        <time>2010-01-01T02:36:57Z</time>
      </trkpt>
      <trkpt lat="42.31253" lon="2.22222">
        <ele>1201</ele>
        <time>2010-01-01T02:36:58Z</time>
      </trkpt>
      <trkpt lat="42.31255" lon="2.22218">
        <ele>1201</ele>
        <time>2010-01-01T02:37:00Z</time>
      </trkpt>
      <trkpt lat="42.31256" lon="2.22215">
        <ele>1201</ele>
        <time>2010-01-01T02:37:01Z</time>
      </trkpt>
      <trkpt lat="42.31258" lon="2.22211">
        <ele>1201</ele>
        <time>2010-01-01T02:37:02Z</time>
      </trkpt>
      <trkpt lat="42.3126" lon="2.22208">
        <ele>1202</ele>
        <time>2010-01-01T02:37:04Z</time>
      </trkpt>
      <trkpt lat="42.31263" lon="2.22204">
        <ele>1202</ele>
        <time>2010-01-01T02:37:05Z</time>
      </trkpt>
      <trkpt lat="42.31265" lon="2.22201">
        <ele>1203</ele>
        <time>2010-01-01T02:37:06Z</time>
      </trkpt>
      <trkpt lat="42.31268" lon="2.22199">
        <ele>1204</ele>
        <time>2010-01-01T02:37:08Z</time>
      </trkpt>
      <trkpt lat="42.3127" lon="2.22196">
        <ele>1204</ele>
        <time>2010-01-01T02:37:09Z</time>
      </trkpt>
      <trkpt lat="42.31273" lon="2.22194">
        <ele>1205</ele>
        <time>2010-01-01T02:37:10Z</time>
      </trkpt>
      <trkpt lat="42.31275" lon="2.22192">
        <ele>1206</ele>
        <time>2010-01-01T02:37:11Z</time>
      </trkpt>
      <trkpt lat="42.31278" lon="2.22189">
        <ele>1206</ele>
        <time>2010-01-01T02:37:13Z</time>
      </trkpt>
      <trkpt lat="42.3128" lon="2.22187">
        <ele>1207</ele>
        <time>2010-01-01T02:37:14Z</time>
      </trkpt>
      <trkpt lat="42.31283" lon="2.22184">
        <ele>1207</ele>
        <time>2010-01-01T02:37:15Z</time>
      </trkpt>
      <trkpt lat="42.31286" lon="2.22181">
        <ele>1207</ele>
        <time>2010-01-01T02:37:17Z</time>
      </trkpt>
      <trkpt lat="42.31287" lon="2.22179">
        <ele>1208</ele>
        <time>2010-01-01T02:37:17Z</time>
      </trkpt>
      <trkpt lat="42.3129" lon="2.22176">
        <ele>1208</ele>
        <time>2010-01-01T02:37:19Z</time>
      </trkpt>
      <trkpt lat="42.31293" lon="2.22174">
        <ele>1209</ele>
        <time>2010-01-01T02:37:20Z</time>
      </trkpt>
      <trkpt lat="42.31296" lon="2.22172">
        <ele>1210</ele>
        <time>2010-01-01T02:37:21Z</time>
      </trkpt>
      <trkpt lat="42.31299" lon="2.2217">
        <ele>1211</ele>
        <time>2010-01-01T02:37:23Z</time>
      </trkpt>
      <trkpt lat="42.31301" lon="2.22168">
        <ele>1211</ele>
        <time>2010-01-01T02:37:24Z</time>
      </trkpt>
      <trkpt lat="42.31303" lon="2.22166">
        <ele>1211</ele>
        <time>2010-01-01T02:37:25Z</time>
      </trkpt>
      <trkpt lat="42.31305" lon="2.22164">
        <ele>1212</ele>
        <time>2010-01-01T02:37:26Z</time>
      </trkpt>
      <trkpt lat="42.31308" lon="2.22162">
        <ele>1212</ele>
        <time>2010-01-01T02:37:27Z</time>
      </trkpt>
      <trkpt lat="42.3131" lon="2.22161">
        <ele>1213</ele>
        <time>2010-01-01T02:37:28Z</time>
      </trkpt>
      <trkpt lat="42.31312" lon="2.22161">
        <ele>1213</ele>
        <time>2010-01-01T02:37:29Z</time>
      </trkpt>
      <trkpt lat="42.31314" lon="2.2216">
        <ele>1214</ele>
        <time>2010-01-01T02:37:30Z</time>
      </trkpt>
      <trkpt lat="42.31316" lon="2.2216">
        <ele>1215</ele>
        <time>2010-01-01T02:37:31Z</time>
      </trkpt>
      <trkpt lat="42.31319" lon="2.22159">
        <ele>1216</ele>
        <time>2010-01-01T02:37:32Z</time>
      </trkpt>
      <trkpt lat="42.31321" lon="2.22159">
        <ele>1216</ele>
        <time>2010-01-01T02:37:33Z</time>
      </trkpt>
      <trkpt lat="42.31324" lon="2.22159">
        <ele>1217</ele>
        <time>2010-01-01T02:37:34Z</time>
      </trkpt>
      <trkpt lat="42.31327" lon="2.22158">
        <ele>1218</ele>
        <time>2010-01-01T02:37:35Z</time>
      </trkpt>
      <trkpt lat="42.3133" lon="2.22155">
        <ele>1219</ele>
        <time>2010-01-01T02:37:36Z</time>
      </trkpt>
      <trkpt lat="42.31332" lon="2.22152">
        <ele>1219</ele>
        <time>2010-01-01T02:37:38Z</time>
      </trkpt>
      <trkpt lat="42.31333" lon="2.22148">
        <ele>1219</ele>
        <time>2010-01-01T02:37:39Z</time>
      </trkpt>
      <trkpt lat="42.31333" lon="2.22145">
        <ele>1218</ele>
        <time>2010-01-01T02:37:40Z</time>
      </trkpt>
      <trkpt lat="42.31332" lon="2.22142">
        <ele>1217</ele>
        <time>2010-01-01T02:37:41Z</time>
      </trkpt>
      <trkpt lat="42.3133" lon="2.22139">
        <ele>1217</ele>
        <time>2010-01-01T02:37:42Z</time>
      </trkpt>
      <trkpt lat="42.31328" lon="2.22137">
        <ele>1216</ele>
        <time>2010-01-01T02:37:43Z</time>
      </trkpt>
      <trkpt lat="42.31326" lon="2.22133">
        <ele>1215</ele>
        <time>2010-01-01T02:37:44Z</time>
      </trkpt>
      <trkpt lat="42.31324" lon="2.2213">
        <ele>1215</ele>
        <time>2010-01-01T02:37:45Z</time>
      </trkpt>
      <trkpt lat="42.31322" lon="2.22127">
        <ele>1215</ele>
        <time>2010-01-01T02:37:47Z</time>
      </trkpt>
      <trkpt lat="42.3132" lon="2.22125">
        <ele>1214</ele>
        <time>2010-01-01T02:37:48Z</time>
      </trkpt>
      <trkpt lat="42.31318" lon="2.22122">
        <ele>1214</ele>
        <time>2010-01-01T02:37:49Z</time>
      </trkpt>
      <trkpt lat="42.31316" lon="2.22119">
        <ele>1213</ele>
        <time>2010-01-01T02:37:50Z</time>
      </trkpt>
      <trkpt lat="42.31313" lon="2.22115">
        <ele>1213</ele>
        <time>2010-01-01T02:37:51Z</time>
      </trkpt>
      <trkpt lat="42.31311" lon="2.22112">
        <ele>1212</ele>
        <time>2010-01-01T02:37:53Z</time>
      </trkpt>
      <trkpt lat="42.3131" lon="2.22109">
        <ele>1212</ele>
        <time>2010-01-01T02:37:54Z</time>
      </trkpt>
      <trkpt lat="42.31308" lon="2.22106">
        <ele>1213</ele>
        <time>2010-01-01T02:37:55Z</time>
      </trkpt>
      <trkpt lat="42.31307" lon="2.22102">
        <ele>1213</ele>
        <time>2010-01-01T02:37:56Z</time>
      </trkpt>
      <trkpt lat="42.31305" lon="2.22099">
        <ele>1213</ele>
        <time>2010-01-01T02:37:57Z</time>
      </trkpt>
      <trkpt lat="42.31304" lon="2.22095">
        <ele>1213</ele>
        <time>2010-01-01T02:37:59Z</time>
      </trkpt>
      <trkpt lat="42.31302" lon="2.22092">
        <ele>1213</ele>
        <time>2010-01-01T02:38:00Z</time>
      </trkpt>
      <trkpt lat="42.31302" lon="2.22088">
        <ele>1213</ele>
        <time>2010-01-01T02:38:01Z</time>
      </trkpt>
      <trkpt lat="42.31301" lon="2.22085">
        <ele>1214</ele>
        <time>2010-01-01T02:38:02Z</time>
      </trkpt>
      <trkpt lat="42.31301" lon="2.22081">
        <ele>1214</ele>
        <time>2010-01-01T02:38:03Z</time>
      </trkpt>
      <trkpt lat="42.313" lon="2.22077">
        <ele>1214</ele>
        <time>2010-01-01T02:38:04Z</time>
      </trkpt>
      <trkpt lat="42.313" lon="2.22074">
        <ele>1214</ele>
        <time>2010-01-01T02:38:05Z</time>
      </trkpt>
      <trkpt lat="42.313" lon="2.2207">
        <ele>1215</ele>
        <time>2010-01-01T02:38:06Z</time>
      </trkpt>
      <trkpt lat="42.31301" lon="2.22067">
        <ele>1216</ele>
        <time>2010-01-01T02:38:07Z</time>
      </trkpt>
      <trkpt lat="42.31301" lon="2.22063">
        <ele>1217</ele>
        <time>2010-01-01T02:38:08Z</time>
      </trkpt>
      <trkpt lat="42.31301" lon="2.2206">
        <ele>1217</ele>
        <time>2010-01-01T02:38:09Z</time>
      </trkpt>
      <trkpt lat="42.31302" lon="2.22057">
        <ele>1218</ele>
        <time>2010-01-01T02:38:10Z</time>
      </trkpt>
      <trkpt lat="42.31304" lon="2.22054">
        <ele>1219</ele>
        <time>2010-01-01T02:38:11Z</time>
      </trkpt>
      <trkpt lat="42.31304" lon="2.2205">
        <ele>1219</ele>
        <time>2010-01-01T02:38:13Z</time>
      </trkpt>
      <trkpt lat="42.31304" lon="2.22046">
        <ele>1219</ele>
        <time>2010-01-01T02:38:14Z</time>
      </trkpt>
      <trkpt lat="42.31305" lon="2.22042">
        <ele>1219</ele>
        <time>2010-01-01T02:38:15Z</time>
      </trkpt>
      <trkpt lat="42.31305" lon="2.22038">
        <ele>1219</ele>
        <time>2010-01-01T02:38:16Z</time>
      </trkpt>
      <trkpt lat="42.31306" lon="2.22034">
        <ele>1219</ele>
        <time>2010-01-01T02:38:17Z</time>
      </trkpt>
      <trkpt lat="42.31307" lon="2.2203">
        <ele>1219</ele>
        <time>2010-01-01T02:38:19Z</time>
      </trkpt>
      <trkpt lat="42.31308" lon="2.22026">
        <ele>1220</ele>
        <time>2010-01-01T02:38:20Z</time>
      </trkpt>
      <trkpt lat="42.31309" lon="2.22023">
        <ele>1220</ele>
        <time>2010-01-01T02:38:21Z</time>
      </trkpt>
      <trkpt lat="42.3131" lon="2.2202">
        <ele>1220</ele>
        <time>2010-01-01T02:38:22Z</time>
      </trkpt>
      <trkpt lat="42.31311" lon="2.22016">
        <ele>1220</ele>
        <time>2010-01-01T02:38:23Z</time>
      </trkpt>
      <trkpt lat="42.31311" lon="2.22013">
        <ele>1220</ele>
        <time>2010-01-01T02:38:24Z</time>
      </trkpt>
      <trkpt lat="42.31312" lon="2.22009">
        <ele>1220</ele>
        <time>2010-01-01T02:38:25Z</time>
      </trkpt>
      <trkpt lat="42.31312" lon="2.22006">
        <ele>1220</ele>
        <time>2010-01-01T02:38:26Z</time>
      </trkpt>
      <trkpt lat="42.31313" lon="2.22002">
        <ele>1220</ele>
        <time>2010-01-01T02:38:27Z</time>
      </trkpt>
      <trkpt lat="42.31314" lon="2.21998">
        <ele>1220</ele>
        <time>2010-01-01T02:38:28Z</time>
      </trkpt>
      <trkpt lat="42.31314" lon="2.21994">
        <ele>1220</ele>
        <time>2010-01-01T02:38:30Z</time>
      </trkpt>
      <trkpt lat="42.31315" lon="2.21991">
        <ele>1221</ele>
        <time>2010-01-01T02:38:31Z</time>
      </trkpt>
      <trkpt lat="42.31315" lon="2.21988">
        <ele>1221</ele>
        <time>2010-01-01T02:38:32Z</time>
      </trkpt>
      <trkpt lat="42.31316" lon="2.21984">
        <ele>1221</ele>
        <time>2010-01-01T02:38:33Z</time>
      </trkpt>
      <trkpt lat="42.31317" lon="2.21981">
        <ele>1221</ele>
        <time>2010-01-01T02:38:34Z</time>
      </trkpt>
      <trkpt lat="42.31317" lon="2.21977">
        <ele>1221</ele>
        <time>2010-01-01T02:38:35Z</time>
      </trkpt>
      <trkpt lat="42.31318" lon="2.21974">
        <ele>1222</ele>
        <time>2010-01-01T02:38:36Z</time>
      </trkpt>
      <trkpt lat="42.31318" lon="2.2197">
        <ele>1222</ele>
        <time>2010-01-01T02:38:37Z</time>
      </trkpt>
      <trkpt lat="42.31318" lon="2.21966">
        <ele>1222</ele>
        <time>2010-01-01T02:38:38Z</time>
      </trkpt>
      <trkpt lat="42.31319" lon="2.21962">
        <ele>1223</ele>
        <time>2010-01-01T02:38:39Z</time>
      </trkpt>
      <trkpt lat="42.31319" lon="2.21958">
        <ele>1223</ele>
        <time>2010-01-01T02:38:41Z</time>
      </trkpt>
      <trkpt lat="42.31319" lon="2.21954">
        <ele>1223</ele>
        <time>2010-01-01T02:38:42Z</time>
      </trkpt>
      <trkpt lat="42.31319" lon="2.21946">
        <ele>1224</ele>
        <time>2010-01-01T02:38:44Z</time>
      </trkpt>
      <trkpt lat="42.3132" lon="2.21939">
        <ele>1224</ele>
        <time>2010-01-01T02:38:46Z</time>
      </trkpt>
      <trkpt lat="42.3132" lon="2.21935">
        <ele>1224</ele>
        <time>2010-01-01T02:38:47Z</time>
      </trkpt>
      <trkpt lat="42.3132" lon="2.21931">
        <ele>1224</ele>
        <time>2010-01-01T02:38:48Z</time>
      </trkpt>
      <trkpt lat="42.3132" lon="2.21927">
        <ele>1224</ele>
        <time>2010-01-01T02:38:50Z</time>
      </trkpt>
      <trkpt lat="42.3132" lon="2.2192">
        <ele>1225</ele>
        <time>2010-01-01T02:38:52Z</time>
      </trkpt>
      <trkpt lat="42.3132" lon="2.21916">
        <ele>1225</ele>
        <time>2010-01-01T02:38:53Z</time>
      </trkpt>
      <trkpt lat="42.3132" lon="2.21912">
        <ele>1225</ele>
        <time>2010-01-01T02:38:54Z</time>
      </trkpt>
      <trkpt lat="42.3132" lon="2.21909">
        <ele>1225</ele>
        <time>2010-01-01T02:38:55Z</time>
      </trkpt>
      <trkpt lat="42.31321" lon="2.21905">
        <ele>1225</ele>
        <time>2010-01-01T02:38:56Z</time>
      </trkpt>
      <trkpt lat="42.31321" lon="2.21901">
        <ele>1225</ele>
        <time>2010-01-01T02:38:57Z</time>
      </trkpt>
      <trkpt lat="42.31321" lon="2.21898">
        <ele>1225</ele>
        <time>2010-01-01T02:38:58Z</time>
      </trkpt>
      <trkpt lat="42.31321" lon="2.21894">
        <ele>1225</ele>
        <time>2010-01-01T02:39:00Z</time>
      </trkpt>
      <trkpt lat="42.31322" lon="2.2189">
        <ele>1225</ele>
        <time>2010-01-01T02:39:01Z</time>
      </trkpt>
      <trkpt lat="42.31322" lon="2.21887">
        <ele>1226</ele>
        <time>2010-01-01T02:39:02Z</time>
      </trkpt>
      <trkpt lat="42.31323" lon="2.21883">
        <ele>1226</ele>
        <time>2010-01-01T02:39:03Z</time>
      </trkpt>
      <trkpt lat="42.31323" lon="2.2188">
        <ele>1227</ele>
        <time>2010-01-01T02:39:04Z</time>
      </trkpt>
      <trkpt lat="42.31323" lon="2.21876">
        <ele>1227</ele>
        <time>2010-01-01T02:39:05Z</time>
      </trkpt>
      <trkpt lat="42.31323" lon="2.21872">
        <ele>1227</ele>
        <time>2010-01-01T02:39:06Z</time>
      </trkpt>
      <trkpt lat="42.31324" lon="2.21868">
        <ele>1228</ele>
        <time>2010-01-01T02:39:07Z</time>
      </trkpt>
      <trkpt lat="42.31324" lon="2.21864">
        <ele>1228</ele>
        <time>2010-01-01T02:39:08Z</time>
      </trkpt>
      <trkpt lat="42.31324" lon="2.21861">
        <ele>1228</ele>
        <time>2010-01-01T02:39:10Z</time>
      </trkpt>
      <trkpt lat="42.31324" lon="2.21857">
        <ele>1229</ele>
        <time>2010-01-01T02:39:11Z</time>
      </trkpt>
      <trkpt lat="42.31324" lon="2.21853">
        <ele>1229</ele>
        <time>2010-01-01T02:39:12Z</time>
      </trkpt>
      <trkpt lat="42.31324" lon="2.2185">
        <ele>1229</ele>
        <time>2010-01-01T02:39:13Z</time>
      </trkpt>
      <trkpt lat="42.31324" lon="2.21843">
        <ele>1230</ele>
        <time>2010-01-01T02:39:15Z</time>
      </trkpt>
      <trkpt lat="42.31324" lon="2.21839">
        <ele>1230</ele>
        <time>2010-01-01T02:39:16Z</time>
      </trkpt>
      <trkpt lat="42.31323" lon="2.21835">
        <ele>1230</ele>
        <time>2010-01-01T02:39:17Z</time>
      </trkpt>
      <trkpt lat="42.31323" lon="2.21832">
        <ele>1230</ele>
        <time>2010-01-01T02:39:18Z</time>
      </trkpt>
      <trkpt lat="42.31323" lon="2.21828">
        <ele>1230</ele>
        <time>2010-01-01T02:39:19Z</time>
      </trkpt>
      <trkpt lat="42.31323" lon="2.21821">
        <ele>1229</ele>
        <time>2010-01-01T02:39:21Z</time>
      </trkpt>
      <trkpt lat="42.31322" lon="2.21817">
        <ele>1229</ele>
        <time>2010-01-01T02:39:22Z</time>
      </trkpt>
      <trkpt lat="42.31322" lon="2.21814">
        <ele>1229</ele>
        <time>2010-01-01T02:39:23Z</time>
      </trkpt>
      <trkpt lat="42.31322" lon="2.2181">
        <ele>1229</ele>
        <time>2010-01-01T02:39:25Z</time>
      </trkpt>
      <trkpt lat="42.31322" lon="2.21806">
        <ele>1229</ele>
        <time>2010-01-01T02:39:26Z</time>
      </trkpt>
      <trkpt lat="42.31321" lon="2.21802">
        <ele>1229</ele>
        <time>2010-01-01T02:39:27Z</time>
      </trkpt>
      <trkpt lat="42.31321" lon="2.21798">
        <ele>1229</ele>
        <time>2010-01-01T02:39:28Z</time>
      </trkpt>
      <trkpt lat="42.31321" lon="2.2179">
        <ele>1229</ele>
        <time>2010-01-01T02:39:30Z</time>
      </trkpt>
      <trkpt lat="42.31321" lon="2.21782">
        <ele>1230</ele>
        <time>2010-01-01T02:39:33Z</time>
      </trkpt>
      <trkpt lat="42.31322" lon="2.21778">
        <ele>1231</ele>
        <time>2010-01-01T02:39:34Z</time>
      </trkpt>
      <trkpt lat="42.31322" lon="2.21775">
        <ele>1231</ele>
        <time>2010-01-01T02:39:35Z</time>
      </trkpt>
      <trkpt lat="42.31322" lon="2.21771">
        <ele>1232</ele>
        <time>2010-01-01T02:39:36Z</time>
      </trkpt>
      <trkpt lat="42.31323" lon="2.21767">
        <ele>1232</ele>
        <time>2010-01-01T02:39:37Z</time>
      </trkpt>
      <trkpt lat="42.31323" lon="2.21764">
        <ele>1233</ele>
        <time>2010-01-01T02:39:38Z</time>
      </trkpt>
      <trkpt lat="42.31324" lon="2.2176">
        <ele>1234</ele>
        <time>2010-01-01T02:39:39Z</time>
      </trkpt>
      <trkpt lat="42.31324" lon="2.21756">
        <ele>1234</ele>
        <time>2010-01-01T02:39:41Z</time>
      </trkpt>
      <trkpt lat="42.31325" lon="2.21753">
        <ele>1235</ele>
        <time>2010-01-01T02:39:42Z</time>
      </trkpt>
      <trkpt lat="42.31325" lon="2.21749">
        <ele>1235</ele>
        <time>2010-01-01T02:39:43Z</time>
      </trkpt>
      <trkpt lat="42.31326" lon="2.21745">
        <ele>1236</ele>
        <time>2010-01-01T02:39:44Z</time>
      </trkpt>
      <trkpt lat="42.31326" lon="2.21742">
        <ele>1236</ele>
        <time>2010-01-01T02:39:45Z</time>
      </trkpt>
      <trkpt lat="42.31327" lon="2.21738">
        <ele>1236</ele>
        <time>2010-01-01T02:39:46Z</time>
      </trkpt>
      <trkpt lat="42.31327" lon="2.21735">
        <ele>1236</ele>
        <time>2010-01-01T02:39:47Z</time>
      </trkpt>
      <trkpt lat="42.31327" lon="2.21731">
        <ele>1236</ele>
        <time>2010-01-01T02:39:48Z</time>
      </trkpt>
      <trkpt lat="42.31328" lon="2.21727">
        <ele>1236</ele>
        <time>2010-01-01T02:39:49Z</time>
      </trkpt>
      <trkpt lat="42.31328" lon="2.21724">
        <ele>1235</ele>
        <time>2010-01-01T02:39:50Z</time>
      </trkpt>
      <trkpt lat="42.31328" lon="2.2172">
        <ele>1236</ele>
        <time>2010-01-01T02:39:52Z</time>
      </trkpt>
      <trkpt lat="42.31329" lon="2.21716">
        <ele>1235</ele>
        <time>2010-01-01T02:39:53Z</time>
      </trkpt>
      <trkpt lat="42.31329" lon="2.21712">
        <ele>1236</ele>
        <time>2010-01-01T02:39:54Z</time>
      </trkpt>
      <trkpt lat="42.31329" lon="2.21708">
        <ele>1236</ele>
        <time>2010-01-01T02:39:55Z</time>
      </trkpt>
      <trkpt lat="42.31329" lon="2.21705">
        <ele>1235</ele>
        <time>2010-01-01T02:39:56Z</time>
      </trkpt>
      <trkpt lat="42.3133" lon="2.21701">
        <ele>1235</ele>
        <time>2010-01-01T02:39:57Z</time>
      </trkpt>
      <trkpt lat="42.3133" lon="2.21697">
        <ele>1236</ele>
        <time>2010-01-01T02:39:58Z</time>
      </trkpt>
      <trkpt lat="42.31331" lon="2.21693">
        <ele>1236</ele>
        <time>2010-01-01T02:39:59Z</time>
      </trkpt>
      <trkpt lat="42.31331" lon="2.21689">
        <ele>1236</ele>
        <time>2010-01-01T02:40:01Z</time>
      </trkpt>
      <trkpt lat="42.31332" lon="2.21686">
        <ele>1236</ele>
        <time>2010-01-01T02:40:02Z</time>
      </trkpt>
      <trkpt lat="42.31332" lon="2.21682">
        <ele>1236</ele>
        <time>2010-01-01T02:40:03Z</time>
      </trkpt>
      <trkpt lat="42.31332" lon="2.21677">
        <ele>1237</ele>
        <time>2010-01-01T02:40:04Z</time>
      </trkpt>
      <trkpt lat="42.31332" lon="2.21674">
        <ele>1237</ele>
        <time>2010-01-01T02:40:05Z</time>
      </trkpt>
      <trkpt lat="42.31333" lon="2.2167">
        <ele>1237</ele>
        <time>2010-01-01T02:40:06Z</time>
      </trkpt>
      <trkpt lat="42.31333" lon="2.21666">
        <ele>1237</ele>
        <time>2010-01-01T02:40:07Z</time>
      </trkpt>
      <trkpt lat="42.31333" lon="2.21663">
        <ele>1238</ele>
        <time>2010-01-01T02:40:09Z</time>
      </trkpt>
      <trkpt lat="42.31333" lon="2.21658">
        <ele>1239</ele>
        <time>2010-01-01T02:40:10Z</time>
      </trkpt>
      <trkpt lat="42.31334" lon="2.21654">
        <ele>1240</ele>
        <time>2010-01-01T02:40:11Z</time>
      </trkpt>
      <trkpt lat="42.31334" lon="2.2165">
        <ele>1241</ele>
        <time>2010-01-01T02:40:12Z</time>
      </trkpt>
      <trkpt lat="42.31334" lon="2.21646">
        <ele>1242</ele>
        <time>2010-01-01T02:40:13Z</time>
      </trkpt>
      <trkpt lat="42.31334" lon="2.21642">
        <ele>1242</ele>
        <time>2010-01-01T02:40:15Z</time>
      </trkpt>
      <trkpt lat="42.31334" lon="2.21638">
        <ele>1243</ele>
        <time>2010-01-01T02:40:16Z</time>
      </trkpt>
      <trkpt lat="42.31333" lon="2.21635">
        <ele>1243</ele>
        <time>2010-01-01T02:40:17Z</time>
      </trkpt>
      <trkpt lat="42.31332" lon="2.21631">
        <ele>1243</ele>
        <time>2010-01-01T02:40:18Z</time>
      </trkpt>
      <trkpt lat="42.31331" lon="2.21627">
        <ele>1243</ele>
        <time>2010-01-01T02:40:19Z</time>
      </trkpt>
      <trkpt lat="42.3133" lon="2.21624">
        <ele>1243</ele>
        <time>2010-01-01T02:40:20Z</time>
      </trkpt>
      <trkpt lat="42.31328" lon="2.2162">
        <ele>1242</ele>
        <time>2010-01-01T02:40:22Z</time>
      </trkpt>
      <trkpt lat="42.31327" lon="2.21617">
        <ele>1242</ele>
        <time>2010-01-01T02:40:23Z</time>
      </trkpt>
      <trkpt lat="42.31325" lon="2.21614">
        <ele>1242</ele>
        <time>2010-01-01T02:40:24Z</time>
      </trkpt>
      <trkpt lat="42.31324" lon="2.21611">
        <ele>1241</ele>
        <time>2010-01-01T02:40:25Z</time>
      </trkpt>
      <trkpt lat="42.31322" lon="2.21608">
        <ele>1241</ele>
        <time>2010-01-01T02:40:26Z</time>
      </trkpt>
      <trkpt lat="42.3132" lon="2.21604">
        <ele>1241</ele>
        <time>2010-01-01T02:40:27Z</time>
      </trkpt>
      <trkpt lat="42.31317" lon="2.21601">
        <ele>1241</ele>
        <time>2010-01-01T02:40:29Z</time>
      </trkpt>
      <trkpt lat="42.31315" lon="2.21598">
        <ele>1240</ele>
        <time>2010-01-01T02:40:30Z</time>
      </trkpt>
      <trkpt lat="42.31314" lon="2.21594">
        <ele>1240</ele>
        <time>2010-01-01T02:40:31Z</time>
      </trkpt>
      <trkpt lat="42.31312" lon="2.21592">
        <ele>1240</ele>
        <time>2010-01-01T02:40:32Z</time>
      </trkpt>
      <trkpt lat="42.3131" lon="2.21589">
        <ele>1240</ele>
        <time>2010-01-01T02:40:34Z</time>
      </trkpt>
      <trkpt lat="42.31307" lon="2.21587">
        <ele>1239</ele>
        <time>2010-01-01T02:40:35Z</time>
      </trkpt>
      <trkpt lat="42.31305" lon="2.21584">
        <ele>1239</ele>
        <time>2010-01-01T02:40:36Z</time>
      </trkpt>
      <trkpt lat="42.31303" lon="2.21582">
        <ele>1239</ele>
        <time>2010-01-01T02:40:37Z</time>
      </trkpt>
      <trkpt lat="42.313" lon="2.21579">
        <ele>1238</ele>
        <time>2010-01-01T02:40:38Z</time>
      </trkpt>
      <trkpt lat="42.31298" lon="2.21577">
        <ele>1238</ele>
        <time>2010-01-01T02:40:39Z</time>
      </trkpt>
      <trkpt lat="42.31296" lon="2.21575">
        <ele>1238</ele>
        <time>2010-01-01T02:40:40Z</time>
      </trkpt>
      <trkpt lat="42.31295" lon="2.21574">
        <ele>1238</ele>
        <time>2010-01-01T02:40:41Z</time>
      </trkpt>
      <trkpt lat="42.31293" lon="2.21572">
        <ele>1238</ele>
        <time>2010-01-01T02:40:42Z</time>
      </trkpt>
      <trkpt lat="42.3129" lon="2.2157">
        <ele>1238</ele>
        <time>2010-01-01T02:40:43Z</time>
      </trkpt>
      <trkpt lat="42.31288" lon="2.21567">
        <ele>1238</ele>
        <time>2010-01-01T02:40:44Z</time>
      </trkpt>
      <trkpt lat="42.31286" lon="2.21565">
        <ele>1239</ele>
        <time>2010-01-01T02:40:45Z</time>
      </trkpt>
      <trkpt lat="42.31284" lon="2.21563">
        <ele>1239</ele>
        <time>2010-01-01T02:40:46Z</time>
      </trkpt>
      <trkpt lat="42.31282" lon="2.2156">
        <ele>1240</ele>
        <time>2010-01-01T02:40:47Z</time>
      </trkpt>
      <trkpt lat="42.3128" lon="2.21558">
        <ele>1241</ele>
        <time>2010-01-01T02:40:49Z</time>
      </trkpt>
      <trkpt lat="42.31278" lon="2.21555">
        <ele>1241</ele>
        <time>2010-01-01T02:40:50Z</time>
      </trkpt>
      <trkpt lat="42.31275" lon="2.21553">
        <ele>1241</ele>
        <time>2010-01-01T02:40:51Z</time>
      </trkpt>
      <trkpt lat="42.31273" lon="2.2155">
        <ele>1241</ele>
        <time>2010-01-01T02:40:52Z</time>
      </trkpt>
      <trkpt lat="42.31271" lon="2.21547">
        <ele>1240</ele>
        <time>2010-01-01T02:40:53Z</time>
      </trkpt>
      <trkpt lat="42.3127" lon="2.21545">
        <ele>1240</ele>
        <time>2010-01-01T02:40:54Z</time>
      </trkpt>
      <trkpt lat="42.31268" lon="2.21542">
        <ele>1240</ele>
        <time>2010-01-01T02:40:55Z</time>
      </trkpt>
      <trkpt lat="42.31266" lon="2.21539">
        <ele>1240</ele>
        <time>2010-01-01T02:40:57Z</time>
      </trkpt>
      <trkpt lat="42.31264" lon="2.21537">
        <ele>1240</ele>
        <time>2010-01-01T02:40:58Z</time>
      </trkpt>
      <trkpt lat="42.31262" lon="2.21534">
        <ele>1240</ele>
        <time>2010-01-01T02:40:59Z</time>
      </trkpt>
      <trkpt lat="42.31261" lon="2.21532">
        <ele>1240</ele>
        <time>2010-01-01T02:41:00Z</time>
      </trkpt>
      <trkpt lat="42.31259" lon="2.21529">
        <ele>1240</ele>
        <time>2010-01-01T02:41:01Z</time>
      </trkpt>
      <trkpt lat="42.31257" lon="2.21526">
        <ele>1239</ele>
        <time>2010-01-01T02:41:02Z</time>
      </trkpt>
      <trkpt lat="42.31256" lon="2.21523">
        <ele>1239</ele>
        <time>2010-01-01T02:41:03Z</time>
      </trkpt>
      <trkpt lat="42.31255" lon="2.21521">
        <ele>1239</ele>
        <time>2010-01-01T02:41:03Z</time>
      </trkpt>
      <trkpt lat="42.31254" lon="2.21518">
        <ele>1239</ele>
        <time>2010-01-01T02:41:04Z</time>
      </trkpt>
      <trkpt lat="42.31253" lon="2.21515">
        <ele>1239</ele>
        <time>2010-01-01T02:41:06Z</time>
      </trkpt>
      <trkpt lat="42.31252" lon="2.21512">
        <ele>1239</ele>
        <time>2010-01-01T02:41:06Z</time>
      </trkpt>
      <trkpt lat="42.31249" lon="2.21509">
        <ele>1238</ele>
        <time>2010-01-01T02:41:08Z</time>
      </trkpt>
      <trkpt lat="42.31247" lon="2.21507">
        <ele>1237</ele>
        <time>2010-01-01T02:41:09Z</time>
      </trkpt>
      <trkpt lat="42.31244" lon="2.21504">
        <ele>1236</ele>
        <time>2010-01-01T02:41:10Z</time>
      </trkpt>
      <trkpt lat="42.31241" lon="2.21502">
        <ele>1236</ele>
        <time>2010-01-01T02:41:12Z</time>
      </trkpt>
      <trkpt lat="42.31238" lon="2.21501">
        <ele>1235</ele>
        <time>2010-01-01T02:41:13Z</time>
      </trkpt>
      <trkpt lat="42.31235" lon="2.21498">
        <ele>1234</ele>
        <time>2010-01-01T02:41:14Z</time>
      </trkpt>
      <trkpt lat="42.31234" lon="2.21497">
        <ele>1233</ele>
        <time>2010-01-01T02:41:15Z</time>
      </trkpt>
      <trkpt lat="42.31231" lon="2.21495">
        <ele>1232</ele>
        <time>2010-01-01T02:41:16Z</time>
      </trkpt>
      <trkpt lat="42.31229" lon="2.21491">
        <ele>1232</ele>
        <time>2010-01-01T02:41:18Z</time>
      </trkpt>
      <trkpt lat="42.3123" lon="2.21486">
        <ele>1232</ele>
        <time>2010-01-01T02:41:19Z</time>
      </trkpt>
      <trkpt lat="42.3123" lon="2.21483">
        <ele>1232</ele>
        <time>2010-01-01T02:41:20Z</time>
      </trkpt>
      <trkpt lat="42.31231" lon="2.2148">
        <ele>1233</ele>
        <time>2010-01-01T02:41:21Z</time>
      </trkpt>
      <trkpt lat="42.31232" lon="2.21477">
        <ele>1233</ele>
        <time>2010-01-01T02:41:22Z</time>
      </trkpt>
      <trkpt lat="42.31233" lon="2.21475">
        <ele>1233</ele>
        <time>2010-01-01T02:41:23Z</time>
      </trkpt>
      <trkpt lat="42.31234" lon="2.21472">
        <ele>1234</ele>
        <time>2010-01-01T02:41:24Z</time>
      </trkpt>
      <trkpt lat="42.31235" lon="2.21469">
        <ele>1234</ele>
        <time>2010-01-01T02:41:25Z</time>
      </trkpt>
      <trkpt lat="42.31237" lon="2.21466">
        <ele>1235</ele>
        <time>2010-01-01T02:41:26Z</time>
      </trkpt>
      <trkpt lat="42.31239" lon="2.21463">
        <ele>1236</ele>
        <time>2010-01-01T02:41:27Z</time>
      </trkpt>
      <trkpt lat="42.31239" lon="2.21459">
        <ele>1236</ele>
        <time>2010-01-01T02:41:28Z</time>
      </trkpt>
      <trkpt lat="42.31237" lon="2.21456">
        <ele>1235</ele>
        <time>2010-01-01T02:41:29Z</time>
      </trkpt>
      <trkpt lat="42.31235" lon="2.21454">
        <ele>1235</ele>
        <time>2010-01-01T02:41:30Z</time>
      </trkpt>
      <trkpt lat="42.31233" lon="2.21452">
        <ele>1234</ele>
        <time>2010-01-01T02:41:31Z</time>
      </trkpt>
      <trkpt lat="42.31231" lon="2.2145">
        <ele>1234</ele>
        <time>2010-01-01T02:41:32Z</time>
      </trkpt>
      <trkpt lat="42.3123" lon="2.21448">
        <ele>1234</ele>
        <time>2010-01-01T02:41:33Z</time>
      </trkpt>
      <trkpt lat="42.31229" lon="2.21444">
        <ele>1233</ele>
        <time>2010-01-01T02:41:34Z</time>
      </trkpt>
      <trkpt lat="42.31229" lon="2.21441">
        <ele>1234</ele>
        <time>2010-01-01T02:41:35Z</time>
      </trkpt>
      <trkpt lat="42.31228" lon="2.21436">
        <ele>1234</ele>
        <time>2010-01-01T02:41:37Z</time>
      </trkpt>
      <trkpt lat="42.31229" lon="2.21432">
        <ele>1235</ele>
        <time>2010-01-01T02:41:38Z</time>
      </trkpt>
      <trkpt lat="42.31229" lon="2.21427">
        <ele>1235</ele>
        <time>2010-01-01T02:41:39Z</time>
      </trkpt>
      <trkpt lat="42.31228" lon="2.21417">
        <ele>1237</ele>
        <time>2010-01-01T02:41:42Z</time>
      </trkpt>
      <trkpt lat="42.31228" lon="2.21413">
        <ele>1237</ele>
        <time>2010-01-01T02:41:44Z</time>
      </trkpt>
      <trkpt lat="42.31229" lon="2.21409">
        <ele>1237</ele>
        <time>2010-01-01T02:41:45Z</time>
      </trkpt>
      <trkpt lat="42.3123" lon="2.21406">
        <ele>1237</ele>
        <time>2010-01-01T02:41:46Z</time>
      </trkpt>
      <trkpt lat="42.3123" lon="2.21404">
        <ele>1237</ele>
        <time>2010-01-01T02:41:46Z</time>
      </trkpt>
      <trkpt lat="42.31231" lon="2.21401">
        <ele>1237</ele>
        <time>2010-01-01T02:41:47Z</time>
      </trkpt>
      <trkpt lat="42.31231" lon="2.21399">
        <ele>1238</ele>
        <time>2010-01-01T02:41:48Z</time>
      </trkpt>
      <trkpt lat="42.31233" lon="2.21395">
        <ele>1238</ele>
        <time>2010-01-01T02:41:49Z</time>
      </trkpt>
      <trkpt lat="42.31234" lon="2.21391">
        <ele>1238</ele>
        <time>2010-01-01T02:41:50Z</time>
      </trkpt>
      <trkpt lat="42.31235" lon="2.21388">
        <ele>1238</ele>
        <time>2010-01-01T02:41:51Z</time>
      </trkpt>
      <trkpt lat="42.31237" lon="2.21386">
        <ele>1238</ele>
        <time>2010-01-01T02:41:52Z</time>
      </trkpt>
      <trkpt lat="42.31238" lon="2.21383">
        <ele>1238</ele>
        <time>2010-01-01T02:41:53Z</time>
      </trkpt>
      <trkpt lat="42.31239" lon="2.21379">
        <ele>1238</ele>
        <time>2010-01-01T02:41:55Z</time>
      </trkpt>
      <trkpt lat="42.3124" lon="2.21376">
        <ele>1238</ele>
        <time>2010-01-01T02:41:56Z</time>
      </trkpt>
      <trkpt lat="42.31241" lon="2.21373">
        <ele>1237</ele>
        <time>2010-01-01T02:41:57Z</time>
      </trkpt>
      <trkpt lat="42.31243" lon="2.2137">
        <ele>1237</ele>
        <time>2010-01-01T02:41:58Z</time>
      </trkpt>
      <trkpt lat="42.31244" lon="2.21367">
        <ele>1237</ele>
        <time>2010-01-01T02:41:59Z</time>
      </trkpt>
      <trkpt lat="42.31245" lon="2.21363">
        <ele>1237</ele>
        <time>2010-01-01T02:42:00Z</time>
      </trkpt>
      <trkpt lat="42.31246" lon="2.2136">
        <ele>1236</ele>
        <time>2010-01-01T02:42:01Z</time>
      </trkpt>
      <trkpt lat="42.3124" lon="2.21349">
        <ele>1235</ele>
        <time>2010-01-01T02:42:05Z</time>
      </trkpt>
      <trkpt lat="42.31234" lon="2.2134">
        <ele>1235</ele>
        <time>2010-01-01T02:42:09Z</time>
      </trkpt>
      <trkpt lat="42.31234" lon="2.21352">
        <ele>1235</ele>
        <time>2010-01-01T02:42:12Z</time>
      </trkpt>
      <trkpt lat="42.31239" lon="2.21356">
        <ele>1236</ele>
        <time>2010-01-01T02:42:15Z</time>
      </trkpt>
      <trkpt lat="42.31241" lon="2.21356">
        <ele>1236</ele>
        <time>2010-01-01T02:42:16Z</time>
      </trkpt>
      <trkpt lat="42.31243" lon="2.21352">
        <ele>1236</ele>
        <time>2010-01-01T02:42:17Z</time>
      </trkpt>
      <trkpt lat="42.31244" lon="2.2135">
        <ele>1236</ele>
        <time>2010-01-01T02:42:18Z</time>
      </trkpt>
      <trkpt lat="42.31244" lon="2.21346">
        <ele>1235</ele>
        <time>2010-01-01T02:42:19Z</time>
      </trkpt>
      <trkpt lat="42.31245" lon="2.21344">
        <ele>1235</ele>
        <time>2010-01-01T02:42:20Z</time>
      </trkpt>
      <trkpt lat="42.31247" lon="2.21341">
        <ele>1235</ele>
        <time>2010-01-01T02:42:21Z</time>
      </trkpt>
      <trkpt lat="42.31249" lon="2.21338">
        <ele>1235</ele>
        <time>2010-01-01T02:42:22Z</time>
      </trkpt>
      <trkpt lat="42.3125" lon="2.21335">
        <ele>1235</ele>
        <time>2010-01-01T02:42:23Z</time>
      </trkpt>
      <trkpt lat="42.31251" lon="2.21332">
        <ele>1235</ele>
        <time>2010-01-01T02:42:24Z</time>
      </trkpt>
      <trkpt lat="42.3125" lon="2.21328">
        <ele>1235</ele>
        <time>2010-01-01T02:42:25Z</time>
      </trkpt>
      <trkpt lat="42.3125" lon="2.21324">
        <ele>1235</ele>
        <time>2010-01-01T02:42:26Z</time>
      </trkpt>
      <trkpt lat="42.31251" lon="2.21321">
        <ele>1235</ele>
        <time>2010-01-01T02:42:27Z</time>
      </trkpt>
      <trkpt lat="42.31256" lon="2.21321">
        <ele>1235</ele>
        <time>2010-01-01T02:42:29Z</time>
      </trkpt>
      <trkpt lat="42.3126" lon="2.21322">
        <ele>1235</ele>
        <time>2010-01-01T02:42:31Z</time>
      </trkpt>
      <trkpt lat="42.31259" lon="2.21325">
        <ele>1235</ele>
        <time>2010-01-01T02:42:32Z</time>
      </trkpt>
      <trkpt lat="42.31259" lon="2.21328">
        <ele>1235</ele>
        <time>2010-01-01T02:42:33Z</time>
      </trkpt>
      <trkpt lat="42.31258" lon="2.21331">
        <ele>1235</ele>
        <time>2010-01-01T02:42:33Z</time>
      </trkpt>
      <trkpt lat="42.31257" lon="2.21334">
        <ele>1235</ele>
        <time>2010-01-01T02:42:34Z</time>
      </trkpt>
      <trkpt lat="42.31256" lon="2.21337">
        <ele>1235</ele>
        <time>2010-01-01T02:42:35Z</time>
      </trkpt>
      <trkpt lat="42.31256" lon="2.2134">
        <ele>1235</ele>
        <time>2010-01-01T02:42:36Z</time>
      </trkpt>
      <trkpt lat="42.31255" lon="2.21343">
        <ele>1235</ele>
        <time>2010-01-01T02:42:37Z</time>
      </trkpt>
      <trkpt lat="42.31255" lon="2.21346">
        <ele>1236</ele>
        <time>2010-01-01T02:42:38Z</time>
      </trkpt>
      <trkpt lat="42.31254" lon="2.21351">
        <ele>1236</ele>
        <time>2010-01-01T02:42:40Z</time>
      </trkpt>
      <trkpt lat="42.31255" lon="2.21354">
        <ele>1236</ele>
        <time>2010-01-01T02:42:41Z</time>
      </trkpt>
      <trkpt lat="42.31256" lon="2.21357">
        <ele>1236</ele>
        <time>2010-01-01T02:42:41Z</time>
      </trkpt>
      <trkpt lat="42.31257" lon="2.2136">
        <ele>1236</ele>
        <time>2010-01-01T02:42:42Z</time>
      </trkpt>
      <trkpt lat="42.31259" lon="2.21362">
        <ele>1237</ele>
        <time>2010-01-01T02:42:44Z</time>
      </trkpt>
      <trkpt lat="42.31261" lon="2.21365">
        <ele>1237</ele>
        <time>2010-01-01T02:42:45Z</time>
      </trkpt>
      <trkpt lat="42.31262" lon="2.21377">
        <ele>1238</ele>
        <time>2010-01-01T02:42:48Z</time>
      </trkpt>
      <trkpt lat="42.31263" lon="2.21383">
        <ele>1239</ele>
        <time>2010-01-01T02:42:50Z</time>
      </trkpt>
      <trkpt lat="42.31264" lon="2.21386">
        <ele>1239</ele>
        <time>2010-01-01T02:42:51Z</time>
      </trkpt>
      <trkpt lat="42.31264" lon="2.21389">
        <ele>1239</ele>
        <time>2010-01-01T02:42:52Z</time>
      </trkpt>
      <trkpt lat="42.31264" lon="2.21393">
        <ele>1239</ele>
        <time>2010-01-01T02:42:53Z</time>
      </trkpt>
      <trkpt lat="42.31263" lon="2.21396">
        <ele>1240</ele>
        <time>2010-01-01T02:42:54Z</time>
      </trkpt>
      <trkpt lat="42.31265" lon="2.21402">
        <ele>1240</ele>
        <time>2010-01-01T02:42:56Z</time>
      </trkpt>
      <trkpt lat="42.31265" lon="2.21405">
        <ele>1241</ele>
        <time>2010-01-01T02:42:57Z</time>
      </trkpt>
      <trkpt lat="42.31267" lon="2.21407">
        <ele>1241</ele>
        <time>2010-01-01T02:42:58Z</time>
      </trkpt>
      <trkpt lat="42.31268" lon="2.21409">
        <ele>1241</ele>
        <time>2010-01-01T02:42:59Z</time>
      </trkpt>
      <trkpt lat="42.31269" lon="2.21411">
        <ele>1242</ele>
        <time>2010-01-01T02:42:59Z</time>
      </trkpt>
      <trkpt lat="42.31271" lon="2.21412">
        <ele>1242</ele>
        <time>2010-01-01T02:43:00Z</time>
      </trkpt>
      <trkpt lat="42.31273" lon="2.21413">
        <ele>1242</ele>
        <time>2010-01-01T02:43:01Z</time>
      </trkpt>
      <trkpt lat="42.31274" lon="2.21417">
        <ele>1243</ele>
        <time>2010-01-01T02:43:03Z</time>
      </trkpt>
      <trkpt lat="42.31274" lon="2.21421">
        <ele>1243</ele>
        <time>2010-01-01T02:43:04Z</time>
      </trkpt>
      <trkpt lat="42.31274" lon="2.21424">
        <ele>1243</ele>
        <time>2010-01-01T02:43:05Z</time>
      </trkpt>
      <trkpt lat="42.31274" lon="2.21427">
        <ele>1243</ele>
        <time>2010-01-01T02:43:05Z</time>
      </trkpt>
      <trkpt lat="42.31275" lon="2.21433">
        <ele>1244</ele>
        <time>2010-01-01T02:43:07Z</time>
      </trkpt>
      <trkpt lat="42.31276" lon="2.21436">
        <ele>1244</ele>
        <time>2010-01-01T02:43:08Z</time>
      </trkpt>
      <trkpt lat="42.31277" lon="2.21438">
        <ele>1244</ele>
        <time>2010-01-01T02:43:09Z</time>
      </trkpt>
      <trkpt lat="42.31279" lon="2.21439">
        <ele>1244</ele>
        <time>2010-01-01T02:43:10Z</time>
      </trkpt>
      <trkpt lat="42.3128" lon="2.2144">
        <ele>1245</ele>
        <time>2010-01-01T02:43:10Z</time>
      </trkpt>
      <trkpt lat="42.31282" lon="2.21442">
        <ele>1245</ele>
        <time>2010-01-01T02:43:11Z</time>
      </trkpt>
      <trkpt lat="42.31284" lon="2.21443">
        <ele>1245</ele>
        <time>2010-01-01T02:43:12Z</time>
      </trkpt>
      <trkpt lat="42.31285" lon="2.21445">
        <ele>1246</ele>
        <time>2010-01-01T02:43:13Z</time>
      </trkpt>
      <trkpt lat="42.31287" lon="2.21446">
        <ele>1246</ele>
        <time>2010-01-01T02:43:13Z</time>
      </trkpt>
      <trkpt lat="42.31289" lon="2.21447">
        <ele>1247</ele>
        <time>2010-01-01T02:43:14Z</time>
      </trkpt>
      <trkpt lat="42.3129" lon="2.21449">
        <ele>1247</ele>
        <time>2010-01-01T02:43:15Z</time>
      </trkpt>
      <trkpt lat="42.31292" lon="2.2145">
        <ele>1247</ele>
        <time>2010-01-01T02:43:16Z</time>
      </trkpt>
      <trkpt lat="42.31293" lon="2.21453">
        <ele>1248</ele>
        <time>2010-01-01T02:43:17Z</time>
      </trkpt>
      <trkpt lat="42.31294" lon="2.21455">
        <ele>1248</ele>
        <time>2010-01-01T02:43:18Z</time>
      </trkpt>
      <trkpt lat="42.31295" lon="2.21457">
        <ele>1249</ele>
        <time>2010-01-01T02:43:18Z</time>
      </trkpt>
      <trkpt lat="42.31297" lon="2.21459">
        <ele>1249</ele>
        <time>2010-01-01T02:43:19Z</time>
      </trkpt>
      <trkpt lat="42.31298" lon="2.21462">
        <ele>1250</ele>
        <time>2010-01-01T02:43:20Z</time>
      </trkpt>
      <trkpt lat="42.31299" lon="2.21464">
        <ele>1250</ele>
        <time>2010-01-01T02:43:21Z</time>
      </trkpt>
      <trkpt lat="42.313" lon="2.21467">
        <ele>1251</ele>
        <time>2010-01-01T02:43:22Z</time>
      </trkpt>
      <trkpt lat="42.31301" lon="2.2147">
        <ele>1251</ele>
        <time>2010-01-01T02:43:23Z</time>
      </trkpt>
      <trkpt lat="42.31301" lon="2.21474">
        <ele>1251</ele>
        <time>2010-01-01T02:43:24Z</time>
      </trkpt>
      <trkpt lat="42.31301" lon="2.21477">
        <ele>1252</ele>
        <time>2010-01-01T02:43:25Z</time>
      </trkpt>
      <trkpt lat="42.31302" lon="2.2148">
        <ele>1252</ele>
        <time>2010-01-01T02:43:26Z</time>
      </trkpt>
      <trkpt lat="42.31301" lon="2.21485">
        <ele>1253</ele>
        <time>2010-01-01T02:43:28Z</time>
      </trkpt>
      <trkpt lat="42.31301" lon="2.21488">
        <ele>1253</ele>
        <time>2010-01-01T02:43:28Z</time>
      </trkpt>
      <trkpt lat="42.31302" lon="2.21491">
        <ele>1253</ele>
        <time>2010-01-01T02:43:29Z</time>
      </trkpt>
      <trkpt lat="42.31302" lon="2.21497">
        <ele>1254</ele>
        <time>2010-01-01T02:43:31Z</time>
      </trkpt>
      <trkpt lat="42.31303" lon="2.21499">
        <ele>1254</ele>
        <time>2010-01-01T02:43:32Z</time>
      </trkpt>
      <trkpt lat="42.31303" lon="2.21502">
        <ele>1255</ele>
        <time>2010-01-01T02:43:33Z</time>
      </trkpt>
      <trkpt lat="42.31304" lon="2.21505">
        <ele>1255</ele>
        <time>2010-01-01T02:43:34Z</time>
      </trkpt>
      <trkpt lat="42.31305" lon="2.21508">
        <ele>1255</ele>
        <time>2010-01-01T02:43:35Z</time>
      </trkpt>
      <trkpt lat="42.31306" lon="2.21511">
        <ele>1256</ele>
        <time>2010-01-01T02:43:36Z</time>
      </trkpt>
      <trkpt lat="42.31308" lon="2.21514">
        <ele>1256</ele>
        <time>2010-01-01T02:43:37Z</time>
      </trkpt>
      <trkpt lat="42.31309" lon="2.21517">
        <ele>1256</ele>
        <time>2010-01-01T02:43:38Z</time>
      </trkpt>
      <trkpt lat="42.3131" lon="2.2152">
        <ele>1256</ele>
        <time>2010-01-01T02:43:39Z</time>
      </trkpt>
      <trkpt lat="42.31311" lon="2.21523">
        <ele>1257</ele>
        <time>2010-01-01T02:43:39Z</time>
      </trkpt>
      <trkpt lat="42.31312" lon="2.21525">
        <ele>1257</ele>
        <time>2010-01-01T02:43:40Z</time>
      </trkpt>
      <trkpt lat="42.31313" lon="2.21527">
        <ele>1257</ele>
        <time>2010-01-01T02:43:41Z</time>
      </trkpt>
      <trkpt lat="42.31315" lon="2.2153">
        <ele>1257</ele>
        <time>2010-01-01T02:43:42Z</time>
      </trkpt>
      <trkpt lat="42.31316" lon="2.21532">
        <ele>1257</ele>
        <time>2010-01-01T02:43:43Z</time>
      </trkpt>
      <trkpt lat="42.31318" lon="2.21535">
        <ele>1257</ele>
        <time>2010-01-01T02:43:44Z</time>
      </trkpt>
      <trkpt lat="42.3132" lon="2.21537">
        <ele>1257</ele>
        <time>2010-01-01T02:43:45Z</time>
      </trkpt>
      <trkpt lat="42.31322" lon="2.21539">
        <ele>1257</ele>
        <time>2010-01-01T02:43:46Z</time>
      </trkpt>
      <trkpt lat="42.31324" lon="2.21541">
        <ele>1258</ele>
        <time>2010-01-01T02:43:47Z</time>
      </trkpt>
      <trkpt lat="42.31326" lon="2.21543">
        <ele>1258</ele>
        <time>2010-01-01T02:43:48Z</time>
      </trkpt>
      <trkpt lat="42.31328" lon="2.21544">
        <ele>1259</ele>
        <time>2010-01-01T02:43:49Z</time>
      </trkpt>
      <trkpt lat="42.3133" lon="2.21546">
        <ele>1259</ele>
        <time>2010-01-01T02:43:50Z</time>
      </trkpt>
      <trkpt lat="42.31331" lon="2.21548">
        <ele>1260</ele>
        <time>2010-01-01T02:43:51Z</time>
      </trkpt>
      <trkpt lat="42.31333" lon="2.21549">
        <ele>1261</ele>
        <time>2010-01-01T02:43:51Z</time>
      </trkpt>
      <trkpt lat="42.31335" lon="2.21551">
        <ele>1261</ele>
        <time>2010-01-01T02:43:52Z</time>
      </trkpt>
      <trkpt lat="42.31336" lon="2.21554">
        <ele>1262</ele>
        <time>2010-01-01T02:43:53Z</time>
      </trkpt>
      <trkpt lat="42.31338" lon="2.21556">
        <ele>1262</ele>
        <time>2010-01-01T02:43:54Z</time>
      </trkpt>
      <trkpt lat="42.31339" lon="2.21558">
        <ele>1263</ele>
        <time>2010-01-01T02:43:55Z</time>
      </trkpt>
      <trkpt lat="42.3134" lon="2.21561">
        <ele>1262</ele>
        <time>2010-01-01T02:43:56Z</time>
      </trkpt>
      <trkpt lat="42.31341" lon="2.21564">
        <ele>1262</ele>
        <time>2010-01-01T02:43:57Z</time>
      </trkpt>
      <trkpt lat="42.31342" lon="2.21566">
        <ele>1262</ele>
        <time>2010-01-01T02:43:58Z</time>
      </trkpt>
      <trkpt lat="42.31344" lon="2.21569">
        <ele>1262</ele>
        <time>2010-01-01T02:43:59Z</time>
      </trkpt>
      <trkpt lat="42.31346" lon="2.21571">
        <ele>1262</ele>
        <time>2010-01-01T02:44:00Z</time>
      </trkpt>
      <trkpt lat="42.31347" lon="2.21574">
        <ele>1263</ele>
        <time>2010-01-01T02:44:01Z</time>
      </trkpt>
      <trkpt lat="42.31349" lon="2.21576">
        <ele>1263</ele>
        <time>2010-01-01T02:44:02Z</time>
      </trkpt>
      <trkpt lat="42.31351" lon="2.21578">
        <ele>1264</ele>
        <time>2010-01-01T02:44:03Z</time>
      </trkpt>
      <trkpt lat="42.31353" lon="2.2158">
        <ele>1265</ele>
        <time>2010-01-01T02:44:04Z</time>
      </trkpt>
      <trkpt lat="42.31356" lon="2.21581">
        <ele>1266</ele>
        <time>2010-01-01T02:44:05Z</time>
      </trkpt>
      <trkpt lat="42.31358" lon="2.21583">
        <ele>1267</ele>
        <time>2010-01-01T02:44:06Z</time>
      </trkpt>
      <trkpt lat="42.31359" lon="2.21585">
        <ele>1267</ele>
        <time>2010-01-01T02:44:07Z</time>
      </trkpt>
      <trkpt lat="42.3136" lon="2.21588">
        <ele>1267</ele>
        <time>2010-01-01T02:44:08Z</time>
      </trkpt>
      <trkpt lat="42.31361" lon="2.2159">
        <ele>1266</ele>
        <time>2010-01-01T02:44:08Z</time>
      </trkpt>
      <trkpt lat="42.31362" lon="2.21592">
        <ele>1266</ele>
        <time>2010-01-01T02:44:09Z</time>
      </trkpt>
      <trkpt lat="42.31364" lon="2.21595">
        <ele>1266</ele>
        <time>2010-01-01T02:44:10Z</time>
      </trkpt>
      <trkpt lat="42.31365" lon="2.21598">
        <ele>1266</ele>
        <time>2010-01-01T02:44:11Z</time>
      </trkpt>
      <trkpt lat="42.31367" lon="2.21601">
        <ele>1266</ele>
        <time>2010-01-01T02:44:12Z</time>
      </trkpt>
      <trkpt lat="42.31368" lon="2.21604">
        <ele>1266</ele>
        <time>2010-01-01T02:44:13Z</time>
      </trkpt>
      <trkpt lat="42.3137" lon="2.21607">
        <ele>1266</ele>
        <time>2010-01-01T02:44:14Z</time>
      </trkpt>
      <trkpt lat="42.3137" lon="2.21611">
        <ele>1265</ele>
        <time>2010-01-01T02:44:16Z</time>
      </trkpt>
      <trkpt lat="42.31369" lon="2.21615">
        <ele>1264</ele>
        <time>2010-01-01T02:44:17Z</time>
      </trkpt>
      <trkpt lat="42.31368" lon="2.21618">
        <ele>1263</ele>
        <time>2010-01-01T02:44:18Z</time>
      </trkpt>
      <trkpt lat="42.31367" lon="2.21622">
        <ele>1261</ele>
        <time>2010-01-01T02:44:19Z</time>
      </trkpt>
      <trkpt lat="42.31366" lon="2.21626">
        <ele>1260</ele>
        <time>2010-01-01T02:44:20Z</time>
      </trkpt>
      <trkpt lat="42.31365" lon="2.2163">
        <ele>1259</ele>
        <time>2010-01-01T02:44:21Z</time>
      </trkpt>
      <trkpt lat="42.31365" lon="2.21634">
        <ele>1259</ele>
        <time>2010-01-01T02:44:23Z</time>
      </trkpt>
      <trkpt lat="42.31366" lon="2.21638">
        <ele>1258</ele>
        <time>2010-01-01T02:44:24Z</time>
      </trkpt>
      <trkpt lat="42.31366" lon="2.21642">
        <ele>1258</ele>
        <time>2010-01-01T02:44:25Z</time>
      </trkpt>
      <trkpt lat="42.31367" lon="2.21646">
        <ele>1258</ele>
        <time>2010-01-01T02:44:26Z</time>
      </trkpt>
      <trkpt lat="42.31367" lon="2.21649">
        <ele>1258</ele>
        <time>2010-01-01T02:44:27Z</time>
      </trkpt>
      <trkpt lat="42.31368" lon="2.21652">
        <ele>1258</ele>
        <time>2010-01-01T02:44:28Z</time>
      </trkpt>
      <trkpt lat="42.31368" lon="2.21656">
        <ele>1257</ele>
        <time>2010-01-01T02:44:29Z</time>
      </trkpt>
      <trkpt lat="42.31368" lon="2.21659">
        <ele>1257</ele>
        <time>2010-01-01T02:44:30Z</time>
      </trkpt>
      <trkpt lat="42.31369" lon="2.21663">
        <ele>1257</ele>
        <time>2010-01-01T02:44:31Z</time>
      </trkpt>
      <trkpt lat="42.3137" lon="2.21667">
        <ele>1257</ele>
        <time>2010-01-01T02:44:33Z</time>
      </trkpt>
      <trkpt lat="42.3137" lon="2.21671">
        <ele>1257</ele>
        <time>2010-01-01T02:44:34Z</time>
      </trkpt>
      <trkpt lat="42.31371" lon="2.21674">
        <ele>1258</ele>
        <time>2010-01-01T02:44:35Z</time>
      </trkpt>
      <trkpt lat="42.31372" lon="2.21678">
        <ele>1258</ele>
        <time>2010-01-01T02:44:36Z</time>
      </trkpt>
      <trkpt lat="42.31373" lon="2.21682">
        <ele>1258</ele>
        <time>2010-01-01T02:44:37Z</time>
      </trkpt>
      <trkpt lat="42.31374" lon="2.21686">
        <ele>1258</ele>
        <time>2010-01-01T02:44:38Z</time>
      </trkpt>
      <trkpt lat="42.31374" lon="2.2169">
        <ele>1258</ele>
        <time>2010-01-01T02:44:40Z</time>
      </trkpt>
      <trkpt lat="42.31374" lon="2.21694">
        <ele>1258</ele>
        <time>2010-01-01T02:44:41Z</time>
      </trkpt>
      <trkpt lat="42.31374" lon="2.21698">
        <ele>1258</ele>
        <time>2010-01-01T02:44:42Z</time>
      </trkpt>
      <trkpt lat="42.31373" lon="2.21702">
        <ele>1257</ele>
        <time>2010-01-01T02:44:43Z</time>
      </trkpt>
      <trkpt lat="42.31372" lon="2.21705">
        <ele>1256</ele>
        <time>2010-01-01T02:44:44Z</time>
      </trkpt>
      <trkpt lat="42.3137" lon="2.21709">
        <ele>1255</ele>
        <time>2010-01-01T02:44:46Z</time>
      </trkpt>
      <trkpt lat="42.31369" lon="2.21712">
        <ele>1254</ele>
        <time>2010-01-01T02:44:47Z</time>
      </trkpt>
      <trkpt lat="42.31368" lon="2.21716">
        <ele>1254</ele>
        <time>2010-01-01T02:44:48Z</time>
      </trkpt>
      <trkpt lat="42.31367" lon="2.2172">
        <ele>1254</ele>
        <time>2010-01-01T02:44:49Z</time>
      </trkpt>
      <trkpt lat="42.31367" lon="2.21724">
        <ele>1253</ele>
        <time>2010-01-01T02:44:50Z</time>
      </trkpt>
      <trkpt lat="42.31367" lon="2.21728">
        <ele>1254</ele>
        <time>2010-01-01T02:44:51Z</time>
      </trkpt>
      <trkpt lat="42.31366" lon="2.21732">
        <ele>1254</ele>
        <time>2010-01-01T02:44:53Z</time>
      </trkpt>
      <trkpt lat="42.31367" lon="2.21739">
        <ele>1254</ele>
        <time>2010-01-01T02:44:55Z</time>
      </trkpt>
      <trkpt lat="42.31367" lon="2.21742">
        <ele>1254</ele>
        <time>2010-01-01T02:44:56Z</time>
      </trkpt>
      <trkpt lat="42.31367" lon="2.2175">
        <ele>1255</ele>
        <time>2010-01-01T02:44:58Z</time>
      </trkpt>
      <trkpt lat="42.31367" lon="2.21754">
        <ele>1255</ele>
        <time>2010-01-01T02:44:59Z</time>
      </trkpt>
      <trkpt lat="42.31367" lon="2.21758">
        <ele>1255</ele>
        <time>2010-01-01T02:45:00Z</time>
      </trkpt>
      <trkpt lat="42.31368" lon="2.21762">
        <ele>1255</ele>
        <time>2010-01-01T02:45:01Z</time>
      </trkpt>
      <trkpt lat="42.31368" lon="2.21765">
        <ele>1256</ele>
        <time>2010-01-01T02:45:03Z</time>
      </trkpt>
      <trkpt lat="42.31369" lon="2.21769">
        <ele>1256</ele>
        <time>2010-01-01T02:45:04Z</time>
      </trkpt>
      <trkpt lat="42.31369" lon="2.21772">
        <ele>1256</ele>
        <time>2010-01-01T02:45:05Z</time>
      </trkpt>
      <trkpt lat="42.31369" lon="2.21776">
        <ele>1256</ele>
        <time>2010-01-01T02:45:06Z</time>
      </trkpt>
      <trkpt lat="42.3137" lon="2.2178">
        <ele>1256</ele>
        <time>2010-01-01T02:45:07Z</time>
      </trkpt>
      <trkpt lat="42.31369" lon="2.21788">
        <ele>1255</ele>
        <time>2010-01-01T02:45:09Z</time>
      </trkpt>
      <trkpt lat="42.31369" lon="2.21792">
        <ele>1255</ele>
        <time>2010-01-01T02:45:11Z</time>
      </trkpt>
      <trkpt lat="42.31368" lon="2.21796">
        <ele>1254</ele>
        <time>2010-01-01T02:45:12Z</time>
      </trkpt>
      <trkpt lat="42.31367" lon="2.21801">
        <ele>1254</ele>
        <time>2010-01-01T02:45:13Z</time>
      </trkpt>
      <trkpt lat="42.31367" lon="2.21805">
        <ele>1253</ele>
        <time>2010-01-01T02:45:14Z</time>
      </trkpt>
      <trkpt lat="42.31366" lon="2.21809">
        <ele>1253</ele>
        <time>2010-01-01T02:45:16Z</time>
      </trkpt>
      <trkpt lat="42.31365" lon="2.21813">
        <ele>1252</ele>
        <time>2010-01-01T02:45:17Z</time>
      </trkpt>
      <trkpt lat="42.31364" lon="2.21816">
        <ele>1252</ele>
        <time>2010-01-01T02:45:18Z</time>
      </trkpt>
      <trkpt lat="42.31363" lon="2.21819">
        <ele>1252</ele>
        <time>2010-01-01T02:45:19Z</time>
      </trkpt>
      <trkpt lat="42.31363" lon="2.21822">
        <ele>1251</ele>
        <time>2010-01-01T02:45:20Z</time>
      </trkpt>
      <trkpt lat="42.31362" lon="2.21825">
        <ele>1251</ele>
        <time>2010-01-01T02:45:21Z</time>
      </trkpt>
      <trkpt lat="42.31361" lon="2.21829">
        <ele>1251</ele>
        <time>2010-01-01T02:45:22Z</time>
      </trkpt>
      <trkpt lat="42.31361" lon="2.21833">
        <ele>1250</ele>
        <time>2010-01-01T02:45:23Z</time>
      </trkpt>
      <trkpt lat="42.31361" lon="2.21837">
        <ele>1250</ele>
        <time>2010-01-01T02:45:24Z</time>
      </trkpt>
      <trkpt lat="42.3136" lon="2.21841">
        <ele>1250</ele>
        <time>2010-01-01T02:45:25Z</time>
      </trkpt>
      <trkpt lat="42.3136" lon="2.21845">
        <ele>1249</ele>
        <time>2010-01-01T02:45:27Z</time>
      </trkpt>
      <trkpt lat="42.31359" lon="2.21848">
        <ele>1249</ele>
        <time>2010-01-01T02:45:28Z</time>
      </trkpt>
      <trkpt lat="42.31359" lon="2.21851">
        <ele>1249</ele>
        <time>2010-01-01T02:45:29Z</time>
      </trkpt>
      <trkpt lat="42.31359" lon="2.21855">
        <ele>1248</ele>
        <time>2010-01-01T02:45:30Z</time>
      </trkpt>
      <trkpt lat="42.31358" lon="2.21859">
        <ele>1248</ele>
        <time>2010-01-01T02:45:31Z</time>
      </trkpt>
      <trkpt lat="42.31359" lon="2.21861">
        <ele>1248</ele>
        <time>2010-01-01T02:45:32Z</time>
      </trkpt>
      <trkpt lat="42.3136" lon="2.21864">
        <ele>1249</ele>
        <time>2010-01-01T02:45:32Z</time>
      </trkpt>
      <trkpt lat="42.31361" lon="2.21867">
        <ele>1249</ele>
        <time>2010-01-01T02:45:34Z</time>
      </trkpt>
      <trkpt lat="42.31361" lon="2.21869">
        <ele>1250</ele>
        <time>2010-01-01T02:45:34Z</time>
      </trkpt>
      <trkpt lat="42.3136" lon="2.21866">
        <ele>1249</ele>
        <time>2010-01-01T02:45:35Z</time>
      </trkpt>
      <trkpt lat="42.31358" lon="2.21864">
        <ele>1248</ele>
        <time>2010-01-01T02:45:36Z</time>
      </trkpt>
      <trkpt lat="42.31357" lon="2.21862">
        <ele>1247</ele>
        <time>2010-01-01T02:45:37Z</time>
      </trkpt>
      <trkpt lat="42.31357" lon="2.21865">
        <ele>1247</ele>
        <time>2010-01-01T02:45:38Z</time>
      </trkpt>
      <trkpt lat="42.31357" lon="2.21868">
        <ele>1247</ele>
        <time>2010-01-01T02:45:39Z</time>
      </trkpt>
      <trkpt lat="42.31358" lon="2.21872">
        <ele>1248</ele>
        <time>2010-01-01T02:45:40Z</time>
      </trkpt>
      <trkpt lat="42.31359" lon="2.21875">
        <ele>1248</ele>
        <time>2010-01-01T02:45:41Z</time>
      </trkpt>
      <trkpt lat="42.31359" lon="2.21878">
        <ele>1248</ele>
        <time>2010-01-01T02:45:42Z</time>
      </trkpt>
      <trkpt lat="42.3136" lon="2.21881">
        <ele>1249</ele>
        <time>2010-01-01T02:45:43Z</time>
      </trkpt>
      <trkpt lat="42.3136" lon="2.21886">
        <ele>1249</ele>
        <time>2010-01-01T02:45:44Z</time>
      </trkpt>
      <trkpt lat="42.31361" lon="2.2189">
        <ele>1249</ele>
        <time>2010-01-01T02:45:45Z</time>
      </trkpt>
      <trkpt lat="42.31361" lon="2.21893">
        <ele>1250</ele>
        <time>2010-01-01T02:45:47Z</time>
      </trkpt>
      <trkpt lat="42.31362" lon="2.21897">
        <ele>1249</ele>
        <time>2010-01-01T02:45:48Z</time>
      </trkpt>
      <trkpt lat="42.31362" lon="2.21901">
        <ele>1250</ele>
        <time>2010-01-01T02:45:49Z</time>
      </trkpt>
      <trkpt lat="42.31363" lon="2.21904">
        <ele>1250</ele>
        <time>2010-01-01T02:45:50Z</time>
      </trkpt>
      <trkpt lat="42.31364" lon="2.21908">
        <ele>1250</ele>
        <time>2010-01-01T02:45:51Z</time>
      </trkpt>
      <trkpt lat="42.31364" lon="2.21911">
        <ele>1250</ele>
        <time>2010-01-01T02:45:52Z</time>
      </trkpt>
      <trkpt lat="42.31365" lon="2.21915">
        <ele>1250</ele>
        <time>2010-01-01T02:45:53Z</time>
      </trkpt>
      <trkpt lat="42.31365" lon="2.21918">
        <ele>1251</ele>
        <time>2010-01-01T02:45:54Z</time>
      </trkpt>
      <trkpt lat="42.31366" lon="2.21922">
        <ele>1251</ele>
        <time>2010-01-01T02:45:55Z</time>
      </trkpt>
      <trkpt lat="42.31366" lon="2.21925">
        <ele>1250</ele>
        <time>2010-01-01T02:45:56Z</time>
      </trkpt>
      <trkpt lat="42.31366" lon="2.21928">
        <ele>1251</ele>
        <time>2010-01-01T02:45:57Z</time>
      </trkpt>
      <trkpt lat="42.31367" lon="2.21931">
        <ele>1251</ele>
        <time>2010-01-01T02:45:58Z</time>
      </trkpt>
      <trkpt lat="42.31368" lon="2.21934">
        <ele>1251</ele>
        <time>2010-01-01T02:45:59Z</time>
      </trkpt>
      <trkpt lat="42.31369" lon="2.21937">
        <ele>1251</ele>
        <time>2010-01-01T02:46:00Z</time>
      </trkpt>
      <trkpt lat="42.3137" lon="2.2194">
        <ele>1252</ele>
        <time>2010-01-01T02:46:01Z</time>
      </trkpt>
      <trkpt lat="42.3137" lon="2.21943">
        <ele>1252</ele>
        <time>2010-01-01T02:46:02Z</time>
      </trkpt>
      <trkpt lat="42.31371" lon="2.21946">
        <ele>1252</ele>
        <time>2010-01-01T02:46:03Z</time>
      </trkpt>
      <trkpt lat="42.31372" lon="2.21949">
        <ele>1252</ele>
        <time>2010-01-01T02:46:04Z</time>
      </trkpt>
      <trkpt lat="42.31372" lon="2.21953">
        <ele>1253</ele>
        <time>2010-01-01T02:46:05Z</time>
      </trkpt>
      <trkpt lat="42.31373" lon="2.21956">
        <ele>1253</ele>
        <time>2010-01-01T02:46:06Z</time>
      </trkpt>
      <trkpt lat="42.31373" lon="2.21959">
        <ele>1253</ele>
        <time>2010-01-01T02:46:07Z</time>
      </trkpt>
      <trkpt lat="42.31374" lon="2.21962">
        <ele>1253</ele>
        <time>2010-01-01T02:46:08Z</time>
      </trkpt>
      <trkpt lat="42.31374" lon="2.21965">
        <ele>1254</ele>
        <time>2010-01-01T02:46:09Z</time>
      </trkpt>
      <trkpt lat="42.31374" lon="2.21969">
        <ele>1253</ele>
        <time>2010-01-01T02:46:10Z</time>
      </trkpt>
      <trkpt lat="42.31374" lon="2.21972">
        <ele>1254</ele>
        <time>2010-01-01T02:46:11Z</time>
      </trkpt>
      <trkpt lat="42.31375" lon="2.21976">
        <ele>1254</ele>
        <time>2010-01-01T02:46:12Z</time>
      </trkpt>
      <trkpt lat="42.31375" lon="2.21979">
        <ele>1254</ele>
        <time>2010-01-01T02:46:13Z</time>
      </trkpt>
      <trkpt lat="42.31375" lon="2.21982">
        <ele>1254</ele>
        <time>2010-01-01T02:46:14Z</time>
      </trkpt>
      <trkpt lat="42.31375" lon="2.21985">
        <ele>1254</ele>
        <time>2010-01-01T02:46:15Z</time>
      </trkpt>
      <trkpt lat="42.31375" lon="2.21989">
        <ele>1254</ele>
        <time>2010-01-01T02:46:16Z</time>
      </trkpt>
      <trkpt lat="42.31375" lon="2.21992">
        <ele>1254</ele>
        <time>2010-01-01T02:46:16Z</time>
      </trkpt>
      <trkpt lat="42.31375" lon="2.21995">
        <ele>1254</ele>
        <time>2010-01-01T02:46:17Z</time>
      </trkpt>
      <trkpt lat="42.31376" lon="2.21998">
        <ele>1254</ele>
        <time>2010-01-01T02:46:18Z</time>
      </trkpt>
      <trkpt lat="42.31376" lon="2.22002">
        <ele>1255</ele>
        <time>2010-01-01T02:46:19Z</time>
      </trkpt>
      <trkpt lat="42.31377" lon="2.22004">
        <ele>1255</ele>
        <time>2010-01-01T02:46:20Z</time>
      </trkpt>
      <trkpt lat="42.31378" lon="2.22007">
        <ele>1255</ele>
        <time>2010-01-01T02:46:21Z</time>
      </trkpt>
      <trkpt lat="42.31378" lon="2.22011">
        <ele>1255</ele>
        <time>2010-01-01T02:46:22Z</time>
      </trkpt>
      <trkpt lat="42.31378" lon="2.22014">
        <ele>1255</ele>
        <time>2010-01-01T02:46:23Z</time>
      </trkpt>
      <trkpt lat="42.31378" lon="2.22021">
        <ele>1254</ele>
        <time>2010-01-01T02:46:25Z</time>
      </trkpt>
      <trkpt lat="42.31377" lon="2.22024">
        <ele>1253</ele>
        <time>2010-01-01T02:46:26Z</time>
      </trkpt>
      <trkpt lat="42.31376" lon="2.22028">
        <ele>1253</ele>
        <time>2010-01-01T02:46:27Z</time>
      </trkpt>
      <trkpt lat="42.31376" lon="2.22031">
        <ele>1253</ele>
        <time>2010-01-01T02:46:28Z</time>
      </trkpt>
      <trkpt lat="42.31377" lon="2.22034">
        <ele>1253</ele>
        <time>2010-01-01T02:46:29Z</time>
      </trkpt>
      <trkpt lat="42.31378" lon="2.22037">
        <ele>1253</ele>
        <time>2010-01-01T02:46:30Z</time>
      </trkpt>
      <trkpt lat="42.31379" lon="2.2204">
        <ele>1253</ele>
        <time>2010-01-01T02:46:31Z</time>
      </trkpt>
      <trkpt lat="42.31379" lon="2.22043">
        <ele>1254</ele>
        <time>2010-01-01T02:46:32Z</time>
      </trkpt>
      <trkpt lat="42.31381" lon="2.22045">
        <ele>1254</ele>
        <time>2010-01-01T02:46:33Z</time>
      </trkpt>
      <trkpt lat="42.31382" lon="2.22046">
        <ele>1255</ele>
        <time>2010-01-01T02:46:34Z</time>
      </trkpt>
      <trkpt lat="42.31385" lon="2.22047">
        <ele>1256</ele>
        <time>2010-01-01T02:46:35Z</time>
      </trkpt>
      <trkpt lat="42.31387" lon="2.22048">
        <ele>1257</ele>
        <time>2010-01-01T02:46:36Z</time>
      </trkpt>
      <trkpt lat="42.31389" lon="2.22049">
        <ele>1258</ele>
        <time>2010-01-01T02:46:36Z</time>
      </trkpt>
      <trkpt lat="42.31391" lon="2.2205">
        <ele>1258</ele>
        <time>2010-01-01T02:46:37Z</time>
      </trkpt>
      <trkpt lat="42.31393" lon="2.22052">
        <ele>1259</ele>
        <time>2010-01-01T02:46:38Z</time>
      </trkpt>
      <trkpt lat="42.31396" lon="2.22053">
        <ele>1260</ele>
        <time>2010-01-01T02:46:39Z</time>
      </trkpt>
      <trkpt lat="42.31398" lon="2.22053">
        <ele>1260</ele>
        <time>2010-01-01T02:46:40Z</time>
      </trkpt>
      <trkpt lat="42.31401" lon="2.22054">
        <ele>1261</ele>
        <time>2010-01-01T02:46:41Z</time>
      </trkpt>
      <trkpt lat="42.31403" lon="2.22055">
        <ele>1261</ele>
        <time>2010-01-01T02:46:42Z</time>
      </trkpt>
      <trkpt lat="42.31405" lon="2.22055">
        <ele>1262</ele>
        <time>2010-01-01T02:46:43Z</time>
      </trkpt>
      <trkpt lat="42.3141" lon="2.22056">
        <ele>1264</ele>
        <time>2010-01-01T02:46:45Z</time>
      </trkpt>
      <trkpt lat="42.31413" lon="2.22057">
        <ele>1264</ele>
        <time>2010-01-01T02:46:46Z</time>
      </trkpt>
      <trkpt lat="42.31415" lon="2.22057">
        <ele>1265</ele>
        <time>2010-01-01T02:46:47Z</time>
      </trkpt>
      <trkpt lat="42.31418" lon="2.22058">
        <ele>1265</ele>
        <time>2010-01-01T02:46:48Z</time>
      </trkpt>
      <trkpt lat="42.3142" lon="2.22059">
        <ele>1265</ele>
        <time>2010-01-01T02:46:49Z</time>
      </trkpt>
      <trkpt lat="42.31423" lon="2.2206">
        <ele>1266</ele>
        <time>2010-01-01T02:46:50Z</time>
      </trkpt>
      <trkpt lat="42.31426" lon="2.2206">
        <ele>1266</ele>
        <time>2010-01-01T02:46:52Z</time>
      </trkpt>
      <trkpt lat="42.31428" lon="2.2206">
        <ele>1266</ele>
        <time>2010-01-01T02:46:53Z</time>
      </trkpt>
      <trkpt lat="42.31431" lon="2.2206">
        <ele>1266</ele>
        <time>2010-01-01T02:46:54Z</time>
      </trkpt>
      <trkpt lat="42.31434" lon="2.22061">
        <ele>1267</ele>
        <time>2010-01-01T02:46:55Z</time>
      </trkpt>
      <trkpt lat="42.31436" lon="2.22062">
        <ele>1267</ele>
        <time>2010-01-01T02:46:56Z</time>
      </trkpt>
      <trkpt lat="42.31439" lon="2.22062">
        <ele>1267</ele>
        <time>2010-01-01T02:46:57Z</time>
      </trkpt>
      <trkpt lat="42.31441" lon="2.22062">
        <ele>1268</ele>
        <time>2010-01-01T02:46:58Z</time>
      </trkpt>
      <trkpt lat="42.31444" lon="2.22062">
        <ele>1268</ele>
        <time>2010-01-01T02:46:59Z</time>
      </trkpt>
      <trkpt lat="42.3145" lon="2.22062">
        <ele>1270</ele>
        <time>2010-01-01T02:47:01Z</time>
      </trkpt>
      <trkpt lat="42.31453" lon="2.22061">
        <ele>1271</ele>
        <time>2010-01-01T02:47:03Z</time>
      </trkpt>
      <trkpt lat="42.31455" lon="2.22062">
        <ele>1271</ele>
        <time>2010-01-01T02:47:04Z</time>
      </trkpt>
      <trkpt lat="42.31458" lon="2.22061">
        <ele>1272</ele>
        <time>2010-01-01T02:47:04Z</time>
      </trkpt>
      <trkpt lat="42.3146" lon="2.22061">
        <ele>1273</ele>
        <time>2010-01-01T02:47:05Z</time>
      </trkpt>
      <trkpt lat="42.31462" lon="2.22059">
        <ele>1274</ele>
        <time>2010-01-01T02:47:06Z</time>
      </trkpt>
      <trkpt lat="42.31464" lon="2.22057">
        <ele>1275</ele>
        <time>2010-01-01T02:47:07Z</time>
      </trkpt>
      <trkpt lat="42.31466" lon="2.22055">
        <ele>1276</ele>
        <time>2010-01-01T02:47:08Z</time>
      </trkpt>
      <trkpt lat="42.31467" lon="2.22052">
        <ele>1277</ele>
        <time>2010-01-01T02:47:09Z</time>
      </trkpt>
      <trkpt lat="42.31468" lon="2.22049">
        <ele>1279</ele>
        <time>2010-01-01T02:47:10Z</time>
      </trkpt>
      <trkpt lat="42.31471" lon="2.22048">
        <ele>1280</ele>
        <time>2010-01-01T02:47:11Z</time>
      </trkpt>
      <trkpt lat="42.31473" lon="2.22046">
        <ele>1281</ele>
        <time>2010-01-01T02:47:12Z</time>
      </trkpt>
      <trkpt lat="42.31476" lon="2.22046">
        <ele>1283</ele>
        <time>2010-01-01T02:47:13Z</time>
      </trkpt>
      <trkpt lat="42.31475" lon="2.22051">
        <ele>1281</ele>
        <time>2010-01-01T02:47:15Z</time>
      </trkpt>
      <trkpt lat="42.31475" lon="2.22054">
        <ele>1280</ele>
        <time>2010-01-01T02:47:16Z</time>
      </trkpt>
      <trkpt lat="42.31476" lon="2.22058">
        <ele>1279</ele>
        <time>2010-01-01T02:47:17Z</time>
      </trkpt>
      <trkpt lat="42.31476" lon="2.22061">
        <ele>1278</ele>
        <time>2010-01-01T02:47:18Z</time>
      </trkpt>
      <trkpt lat="42.31476" lon="2.22063">
        <ele>1278</ele>
        <time>2010-01-01T02:47:19Z</time>
      </trkpt>
      <trkpt lat="42.31476" lon="2.22068">
        <ele>1277</ele>
        <time>2010-01-01T02:47:20Z</time>
      </trkpt>
      <trkpt lat="42.31476" lon="2.22071">
        <ele>1277</ele>
        <time>2010-01-01T02:47:21Z</time>
      </trkpt>
      <trkpt lat="42.31479" lon="2.22076">
        <ele>1278</ele>
        <time>2010-01-01T02:47:23Z</time>
      </trkpt>
      <trkpt lat="42.3148" lon="2.22079">
        <ele>1278</ele>
        <time>2010-01-01T02:47:24Z</time>
      </trkpt>
      <trkpt lat="42.31482" lon="2.22083">
        <ele>1279</ele>
        <time>2010-01-01T02:47:25Z</time>
      </trkpt>
      <trkpt lat="42.31484" lon="2.22085">
        <ele>1279</ele>
        <time>2010-01-01T02:47:26Z</time>
      </trkpt>
      <trkpt lat="42.31485" lon="2.22087">
        <ele>1280</ele>
        <time>2010-01-01T02:47:27Z</time>
      </trkpt>
      <trkpt lat="42.31486" lon="2.2209">
        <ele>1280</ele>
        <time>2010-01-01T02:47:28Z</time>
      </trkpt>
      <trkpt lat="42.31486" lon="2.22092">
        <ele>1280</ele>
        <time>2010-01-01T02:47:29Z</time>
      </trkpt>
      <trkpt lat="42.31487" lon="2.22095">
        <ele>1280</ele>
        <time>2010-01-01T02:47:30Z</time>
      </trkpt>
      <trkpt lat="42.31488" lon="2.22098">
        <ele>1281</ele>
        <time>2010-01-01T02:47:30Z</time>
      </trkpt>
      <trkpt lat="42.3149" lon="2.221">
        <ele>1281</ele>
        <time>2010-01-01T02:47:31Z</time>
      </trkpt>
      <trkpt lat="42.31491" lon="2.22102">
        <ele>1282</ele>
        <time>2010-01-01T02:47:32Z</time>
      </trkpt>
      <trkpt lat="42.31492" lon="2.22104">
        <ele>1282</ele>
        <time>2010-01-01T02:47:33Z</time>
      </trkpt>
      <trkpt lat="42.31493" lon="2.22107">
        <ele>1282</ele>
        <time>2010-01-01T02:47:34Z</time>
      </trkpt>
      <trkpt lat="42.31495" lon="2.22109">
        <ele>1283</ele>
        <time>2010-01-01T02:47:35Z</time>
      </trkpt>
      <trkpt lat="42.31495" lon="2.22112">
        <ele>1283</ele>
        <time>2010-01-01T02:47:35Z</time>
      </trkpt>
      <trkpt lat="42.31496" lon="2.22115">
        <ele>1284</ele>
        <time>2010-01-01T02:47:36Z</time>
      </trkpt>
      <trkpt lat="42.31498" lon="2.22117">
        <ele>1284</ele>
        <time>2010-01-01T02:47:37Z</time>
      </trkpt>
      <trkpt lat="42.315" lon="2.2212">
        <ele>1285</ele>
        <time>2010-01-01T02:47:39Z</time>
      </trkpt>
      <trkpt lat="42.31501" lon="2.22122">
        <ele>1286</ele>
        <time>2010-01-01T02:47:39Z</time>
      </trkpt>
      <trkpt lat="42.31503" lon="2.22124">
        <ele>1287</ele>
        <time>2010-01-01T02:47:40Z</time>
      </trkpt>
      <trkpt lat="42.31505" lon="2.22126">
        <ele>1288</ele>
        <time>2010-01-01T02:47:41Z</time>
      </trkpt>
      <trkpt lat="42.31507" lon="2.22127">
        <ele>1290</ele>
        <time>2010-01-01T02:47:42Z</time>
      </trkpt>
      <trkpt lat="42.31509" lon="2.22129">
        <ele>1290</ele>
        <time>2010-01-01T02:47:43Z</time>
      </trkpt>
      <trkpt lat="42.3151" lon="2.22131">
        <ele>1291</ele>
        <time>2010-01-01T02:47:44Z</time>
      </trkpt>
      <trkpt lat="42.31511" lon="2.22133">
        <ele>1292</ele>
        <time>2010-01-01T02:47:45Z</time>
      </trkpt>
      <trkpt lat="42.31512" lon="2.22137">
        <ele>1292</ele>
        <time>2010-01-01T02:47:46Z</time>
      </trkpt>
      <trkpt lat="42.31512" lon="2.22139">
        <ele>1293</ele>
        <time>2010-01-01T02:47:46Z</time>
      </trkpt>
      <trkpt lat="42.31513" lon="2.22143">
        <ele>1293</ele>
        <time>2010-01-01T02:47:47Z</time>
      </trkpt>
      <trkpt lat="42.31514" lon="2.22145">
        <ele>1293</ele>
        <time>2010-01-01T02:47:48Z</time>
      </trkpt>
      <trkpt lat="42.31515" lon="2.22147">
        <ele>1294</ele>
        <time>2010-01-01T02:47:49Z</time>
      </trkpt>
      <trkpt lat="42.31516" lon="2.22149">
        <ele>1295</ele>
        <time>2010-01-01T02:47:50Z</time>
      </trkpt>
      <trkpt lat="42.31517" lon="2.22151">
        <ele>1295</ele>
        <time>2010-01-01T02:47:50Z</time>
      </trkpt>
      <trkpt lat="42.31517" lon="2.22156">
        <ele>1295</ele>
        <time>2010-01-01T02:47:52Z</time>
      </trkpt>
      <trkpt lat="42.31515" lon="2.22159">
        <ele>1294</ele>
        <time>2010-01-01T02:47:53Z</time>
      </trkpt>
      <trkpt lat="42.31511" lon="2.22161">
        <ele>1292</ele>
        <time>2010-01-01T02:47:55Z</time>
      </trkpt>
      <trkpt lat="42.3151" lon="2.22164">
        <ele>1291</ele>
        <time>2010-01-01T02:47:56Z</time>
      </trkpt>
      <trkpt lat="42.31511" lon="2.22169">
        <ele>1292</ele>
        <time>2010-01-01T02:47:57Z</time>
      </trkpt>
      <trkpt lat="42.31513" lon="2.22173">
        <ele>1294</ele>
        <time>2010-01-01T02:47:59Z</time>
      </trkpt>
      <trkpt lat="42.31514" lon="2.22176">
        <ele>1295</ele>
        <time>2010-01-01T02:48:00Z</time>
      </trkpt>
      <trkpt lat="42.31513" lon="2.22185">
        <ele>1296</ele>
        <time>2010-01-01T02:48:02Z</time>
      </trkpt>
      <trkpt lat="42.31511" lon="2.22191">
        <ele>1296</ele>
        <time>2010-01-01T02:48:04Z</time>
      </trkpt>
      <trkpt lat="42.31509" lon="2.22193">
        <ele>1296</ele>
        <time>2010-01-01T02:48:05Z</time>
      </trkpt>
      <trkpt lat="42.31507" lon="2.22196">
        <ele>1295</ele>
        <time>2010-01-01T02:48:06Z</time>
      </trkpt>
      <trkpt lat="42.31506" lon="2.22198">
        <ele>1296</ele>
        <time>2010-01-01T02:48:07Z</time>
      </trkpt>
      <trkpt lat="42.31505" lon="2.22201">
        <ele>1296</ele>
        <time>2010-01-01T02:48:08Z</time>
      </trkpt>
      <trkpt lat="42.31503" lon="2.22203">
        <ele>1297</ele>
        <time>2010-01-01T02:48:09Z</time>
      </trkpt>
      <trkpt lat="42.31501" lon="2.22206">
        <ele>1297</ele>
        <time>2010-01-01T02:48:10Z</time>
      </trkpt>
      <trkpt lat="42.31499" lon="2.22208">
        <ele>1296</ele>
        <time>2010-01-01T02:48:11Z</time>
      </trkpt>
      <trkpt lat="42.31497" lon="2.2221">
        <ele>1296</ele>
        <time>2010-01-01T02:48:12Z</time>
      </trkpt>
      <trkpt lat="42.31495" lon="2.22212">
        <ele>1296</ele>
        <time>2010-01-01T02:48:13Z</time>
      </trkpt>
      <trkpt lat="42.31493" lon="2.22214">
        <ele>1297</ele>
        <time>2010-01-01T02:48:14Z</time>
      </trkpt>
      <trkpt lat="42.31492" lon="2.22218">
        <ele>1298</ele>
        <time>2010-01-01T02:48:15Z</time>
      </trkpt>
      <trkpt lat="42.31491" lon="2.2222">
        <ele>1298</ele>
        <time>2010-01-01T02:48:16Z</time>
      </trkpt>
      <trkpt lat="42.31491" lon="2.22224">
        <ele>1299</ele>
        <time>2010-01-01T02:48:17Z</time>
      </trkpt>
      <trkpt lat="42.3149" lon="2.22226">
        <ele>1300</ele>
        <time>2010-01-01T02:48:18Z</time>
      </trkpt>
      <trkpt lat="42.31488" lon="2.22228">
        <ele>1300</ele>
        <time>2010-01-01T02:48:19Z</time>
      </trkpt>
      <trkpt lat="42.31487" lon="2.2223">
        <ele>1300</ele>
        <time>2010-01-01T02:48:20Z</time>
      </trkpt>
      <trkpt lat="42.31485" lon="2.22233">
        <ele>1300</ele>
        <time>2010-01-01T02:48:21Z</time>
      </trkpt>
      <trkpt lat="42.31483" lon="2.22235">
        <ele>1300</ele>
        <time>2010-01-01T02:48:22Z</time>
      </trkpt>
      <trkpt lat="42.31481" lon="2.22237">
        <ele>1300</ele>
        <time>2010-01-01T02:48:23Z</time>
      </trkpt>
      <trkpt lat="42.3148" lon="2.2224">
        <ele>1300</ele>
        <time>2010-01-01T02:48:24Z</time>
      </trkpt>
      <trkpt lat="42.31478" lon="2.22241">
        <ele>1300</ele>
        <time>2010-01-01T02:48:25Z</time>
      </trkpt>
      <trkpt lat="42.31476" lon="2.22243">
        <ele>1299</ele>
        <time>2010-01-01T02:48:25Z</time>
      </trkpt>
      <trkpt lat="42.31474" lon="2.22245">
        <ele>1299</ele>
        <time>2010-01-01T02:48:26Z</time>
      </trkpt>
      <trkpt lat="42.31473" lon="2.22248">
        <ele>1299</ele>
        <time>2010-01-01T02:48:28Z</time>
      </trkpt>
      <trkpt lat="42.31471" lon="2.22251">
        <ele>1299</ele>
        <time>2010-01-01T02:48:29Z</time>
      </trkpt>
      <trkpt lat="42.31469" lon="2.22253">
        <ele>1299</ele>
        <time>2010-01-01T02:48:30Z</time>
      </trkpt>
      <trkpt lat="42.31468" lon="2.22257">
        <ele>1299</ele>
        <time>2010-01-01T02:48:31Z</time>
      </trkpt>
      <trkpt lat="42.31466" lon="2.22259">
        <ele>1299</ele>
        <time>2010-01-01T02:48:32Z</time>
      </trkpt>
      <trkpt lat="42.31465" lon="2.22262">
        <ele>1299</ele>
        <time>2010-01-01T02:48:33Z</time>
      </trkpt>
      <trkpt lat="42.31463" lon="2.22265">
        <ele>1299</ele>
        <time>2010-01-01T02:48:34Z</time>
      </trkpt>
      <trkpt lat="42.31462" lon="2.22268">
        <ele>1299</ele>
        <time>2010-01-01T02:48:35Z</time>
      </trkpt>
      <trkpt lat="42.31461" lon="2.2227">
        <ele>1299</ele>
        <time>2010-01-01T02:48:36Z</time>
      </trkpt>
      <trkpt lat="42.31459" lon="2.22273">
        <ele>1299</ele>
        <time>2010-01-01T02:48:37Z</time>
      </trkpt>
      <trkpt lat="42.31457" lon="2.22276">
        <ele>1299</ele>
        <time>2010-01-01T02:48:38Z</time>
      </trkpt>
      <trkpt lat="42.31456" lon="2.22278">
        <ele>1299</ele>
        <time>2010-01-01T02:48:39Z</time>
      </trkpt>
      <trkpt lat="42.31454" lon="2.22281">
        <ele>1299</ele>
        <time>2010-01-01T02:48:40Z</time>
      </trkpt>
      <trkpt lat="42.31453" lon="2.22284">
        <ele>1299</ele>
        <time>2010-01-01T02:48:41Z</time>
      </trkpt>
      <trkpt lat="42.31451" lon="2.22286">
        <ele>1298</ele>
        <time>2010-01-01T02:48:42Z</time>
      </trkpt>
      <trkpt lat="42.31449" lon="2.22288">
        <ele>1298</ele>
        <time>2010-01-01T02:48:43Z</time>
      </trkpt>
      <trkpt lat="42.31447" lon="2.22291">
        <ele>1297</ele>
        <time>2010-01-01T02:48:44Z</time>
      </trkpt>
      <trkpt lat="42.31445" lon="2.22293">
        <ele>1297</ele>
        <time>2010-01-01T02:48:45Z</time>
      </trkpt>
      <trkpt lat="42.31443" lon="2.22296">
        <ele>1296</ele>
        <time>2010-01-01T02:48:46Z</time>
      </trkpt>
      <trkpt lat="42.31442" lon="2.22298">
        <ele>1296</ele>
        <time>2010-01-01T02:48:47Z</time>
      </trkpt>
      <trkpt lat="42.3144" lon="2.22302">
        <ele>1296</ele>
        <time>2010-01-01T02:48:48Z</time>
      </trkpt>
      <trkpt lat="42.31439" lon="2.22305">
        <ele>1296</ele>
        <time>2010-01-01T02:48:49Z</time>
      </trkpt>
      <trkpt lat="42.31437" lon="2.22308">
        <ele>1296</ele>
        <time>2010-01-01T02:48:50Z</time>
      </trkpt>
      <trkpt lat="42.31437" lon="2.22311">
        <ele>1296</ele>
        <time>2010-01-01T02:48:51Z</time>
      </trkpt>
      <trkpt lat="42.31436" lon="2.22314">
        <ele>1296</ele>
        <time>2010-01-01T02:48:52Z</time>
      </trkpt>
      <trkpt lat="42.31436" lon="2.22317">
        <ele>1297</ele>
        <time>2010-01-01T02:48:53Z</time>
      </trkpt>
      <trkpt lat="42.31436" lon="2.2232">
        <ele>1297</ele>
        <time>2010-01-01T02:48:54Z</time>
      </trkpt>
      <trkpt lat="42.31436" lon="2.22323">
        <ele>1298</ele>
        <time>2010-01-01T02:48:55Z</time>
      </trkpt>
      <trkpt lat="42.31437" lon="2.22326">
        <ele>1298</ele>
        <time>2010-01-01T02:48:56Z</time>
      </trkpt>
      <trkpt lat="42.31438" lon="2.22328">
        <ele>1299</ele>
        <time>2010-01-01T02:48:57Z</time>
      </trkpt>
      <trkpt lat="42.31438" lon="2.22331">
        <ele>1300</ele>
        <time>2010-01-01T02:48:58Z</time>
      </trkpt>
      <trkpt lat="42.3144" lon="2.22334">
        <ele>1301</ele>
        <time>2010-01-01T02:48:59Z</time>
      </trkpt>
      <trkpt lat="42.31441" lon="2.22337">
        <ele>1302</ele>
        <time>2010-01-01T02:49:00Z</time>
      </trkpt>
      <trkpt lat="42.31442" lon="2.2234">
        <ele>1302</ele>
        <time>2010-01-01T02:49:01Z</time>
      </trkpt>
      <trkpt lat="42.31443" lon="2.22343">
        <ele>1303</ele>
        <time>2010-01-01T02:49:01Z</time>
      </trkpt>
      <trkpt lat="42.31444" lon="2.22345">
        <ele>1303</ele>
        <time>2010-01-01T02:49:02Z</time>
      </trkpt>
      <trkpt lat="42.31446" lon="2.22348">
        <ele>1305</ele>
        <time>2010-01-01T02:49:03Z</time>
      </trkpt>
      <trkpt lat="42.31447" lon="2.22351">
        <ele>1305</ele>
        <time>2010-01-01T02:49:04Z</time>
      </trkpt>
      <trkpt lat="42.31449" lon="2.22354">
        <ele>1306</ele>
        <time>2010-01-01T02:49:06Z</time>
      </trkpt>
      <trkpt lat="42.3145" lon="2.22357">
        <ele>1307</ele>
        <time>2010-01-01T02:49:07Z</time>
      </trkpt>
      <trkpt lat="42.3145" lon="2.22361">
        <ele>1308</ele>
        <time>2010-01-01T02:49:08Z</time>
      </trkpt>
      <trkpt lat="42.31451" lon="2.22364">
        <ele>1308</ele>
        <time>2010-01-01T02:49:09Z</time>
      </trkpt>
      <trkpt lat="42.31452" lon="2.22367">
        <ele>1309</ele>
        <time>2010-01-01T02:49:10Z</time>
      </trkpt>
      <trkpt lat="42.31453" lon="2.2237">
        <ele>1310</ele>
        <time>2010-01-01T02:49:11Z</time>
      </trkpt>
      <trkpt lat="42.31454" lon="2.22373">
        <ele>1310</ele>
        <time>2010-01-01T02:49:12Z</time>
      </trkpt>
      <trkpt lat="42.31455" lon="2.22376">
        <ele>1311</ele>
        <time>2010-01-01T02:49:13Z</time>
      </trkpt>
      <trkpt lat="42.31456" lon="2.22379">
        <ele>1311</ele>
        <time>2010-01-01T02:49:13Z</time>
      </trkpt>
      <trkpt lat="42.31457" lon="2.22381">
        <ele>1312</ele>
        <time>2010-01-01T02:49:14Z</time>
      </trkpt>
      <trkpt lat="42.31458" lon="2.22384">
        <ele>1312</ele>
        <time>2010-01-01T02:49:15Z</time>
      </trkpt>
      <trkpt lat="42.31459" lon="2.22387">
        <ele>1313</ele>
        <time>2010-01-01T02:49:16Z</time>
      </trkpt>
      <trkpt lat="42.3146" lon="2.2239">
        <ele>1313</ele>
        <time>2010-01-01T02:49:17Z</time>
      </trkpt>
      <trkpt lat="42.31461" lon="2.22392">
        <ele>1314</ele>
        <time>2010-01-01T02:49:18Z</time>
      </trkpt>
      <trkpt lat="42.31462" lon="2.22395">
        <ele>1315</ele>
        <time>2010-01-01T02:49:19Z</time>
      </trkpt>
      <trkpt lat="42.31463" lon="2.22397">
        <ele>1315</ele>
        <time>2010-01-01T02:49:19Z</time>
      </trkpt>
      <trkpt lat="42.31464" lon="2.22399">
        <ele>1316</ele>
        <time>2010-01-01T02:49:20Z</time>
      </trkpt>
      <trkpt lat="42.31465" lon="2.22402">
        <ele>1316</ele>
        <time>2010-01-01T02:49:21Z</time>
      </trkpt>
      <trkpt lat="42.31466" lon="2.22405">
        <ele>1316</ele>
        <time>2010-01-01T02:49:22Z</time>
      </trkpt>
      <trkpt lat="42.31467" lon="2.22408">
        <ele>1316</ele>
        <time>2010-01-01T02:49:23Z</time>
      </trkpt>
      <trkpt lat="42.31468" lon="2.22411">
        <ele>1317</ele>
        <time>2010-01-01T02:49:24Z</time>
      </trkpt>
      <trkpt lat="42.31468" lon="2.22414">
        <ele>1317</ele>
        <time>2010-01-01T02:49:25Z</time>
      </trkpt>
      <trkpt lat="42.31469" lon="2.22417">
        <ele>1317</ele>
        <time>2010-01-01T02:49:26Z</time>
      </trkpt>
      <trkpt lat="42.3147" lon="2.22421">
        <ele>1317</ele>
        <time>2010-01-01T02:49:27Z</time>
      </trkpt>
      <trkpt lat="42.3147" lon="2.22424">
        <ele>1316</ele>
        <time>2010-01-01T02:49:28Z</time>
      </trkpt>
      <trkpt lat="42.31471" lon="2.22428">
        <ele>1316</ele>
        <time>2010-01-01T02:49:29Z</time>
      </trkpt>
      <trkpt lat="42.31472" lon="2.22431">
        <ele>1316</ele>
        <time>2010-01-01T02:49:30Z</time>
      </trkpt>
      <trkpt lat="42.31473" lon="2.22434">
        <ele>1317</ele>
        <time>2010-01-01T02:49:31Z</time>
      </trkpt>
      <trkpt lat="42.31475" lon="2.22438">
        <ele>1317</ele>
        <time>2010-01-01T02:49:33Z</time>
      </trkpt>
      <trkpt lat="42.31476" lon="2.22441">
        <ele>1318</ele>
        <time>2010-01-01T02:49:34Z</time>
      </trkpt>
      <trkpt lat="42.31478" lon="2.22444">
        <ele>1318</ele>
        <time>2010-01-01T02:49:35Z</time>
      </trkpt>
      <trkpt lat="42.31479" lon="2.22447">
        <ele>1318</ele>
        <time>2010-01-01T02:49:36Z</time>
      </trkpt>
      <trkpt lat="42.31481" lon="2.2245">
        <ele>1319</ele>
        <time>2010-01-01T02:49:37Z</time>
      </trkpt>
      <trkpt lat="42.31482" lon="2.22454">
        <ele>1319</ele>
        <time>2010-01-01T02:49:38Z</time>
      </trkpt>
      <trkpt lat="42.31484" lon="2.22457">
        <ele>1319</ele>
        <time>2010-01-01T02:49:39Z</time>
      </trkpt>
      <trkpt lat="42.31485" lon="2.2246">
        <ele>1319</ele>
        <time>2010-01-01T02:49:40Z</time>
      </trkpt>
      <trkpt lat="42.31486" lon="2.22463">
        <ele>1319</ele>
        <time>2010-01-01T02:49:41Z</time>
      </trkpt>
      <trkpt lat="42.31488" lon="2.22467">
        <ele>1320</ele>
        <time>2010-01-01T02:49:43Z</time>
      </trkpt>
      <trkpt lat="42.31489" lon="2.2247">
        <ele>1320</ele>
        <time>2010-01-01T02:49:44Z</time>
      </trkpt>
      <trkpt lat="42.31491" lon="2.22473">
        <ele>1321</ele>
        <time>2010-01-01T02:49:45Z</time>
      </trkpt>
      <trkpt lat="42.31492" lon="2.22476">
        <ele>1321</ele>
        <time>2010-01-01T02:49:46Z</time>
      </trkpt>
      <trkpt lat="42.31493" lon="2.2248">
        <ele>1322</ele>
        <time>2010-01-01T02:49:47Z</time>
      </trkpt>
      <trkpt lat="42.31494" lon="2.22484">
        <ele>1321</ele>
        <time>2010-01-01T02:49:48Z</time>
      </trkpt>
      <trkpt lat="42.31494" lon="2.22487">
        <ele>1321</ele>
        <time>2010-01-01T02:49:49Z</time>
      </trkpt>
      <trkpt lat="42.31495" lon="2.22491">
        <ele>1321</ele>
        <time>2010-01-01T02:49:50Z</time>
      </trkpt>
      <trkpt lat="42.31495" lon="2.22495">
        <ele>1320</ele>
        <time>2010-01-01T02:49:52Z</time>
      </trkpt>
      <trkpt lat="42.31495" lon="2.22498">
        <ele>1320</ele>
        <time>2010-01-01T02:49:53Z</time>
      </trkpt>
      <trkpt lat="42.31496" lon="2.22502">
        <ele>1320</ele>
        <time>2010-01-01T02:49:54Z</time>
      </trkpt>
      <trkpt lat="42.31497" lon="2.22506">
        <ele>1320</ele>
        <time>2010-01-01T02:49:55Z</time>
      </trkpt>
      <trkpt lat="42.31497" lon="2.2251">
        <ele>1320</ele>
        <time>2010-01-01T02:49:56Z</time>
      </trkpt>
      <trkpt lat="42.31498" lon="2.22513">
        <ele>1321</ele>
        <time>2010-01-01T02:49:57Z</time>
      </trkpt>
      <trkpt lat="42.315" lon="2.22517">
        <ele>1322</ele>
        <time>2010-01-01T02:49:58Z</time>
      </trkpt>
      <trkpt lat="42.31501" lon="2.2252">
        <ele>1322</ele>
        <time>2010-01-01T02:49:59Z</time>
      </trkpt>
      <trkpt lat="42.31502" lon="2.22524">
        <ele>1323</ele>
        <time>2010-01-01T02:50:01Z</time>
      </trkpt>
      <trkpt lat="42.31502" lon="2.22526">
        <ele>1323</ele>
        <time>2010-01-01T02:50:01Z</time>
      </trkpt>
      <trkpt lat="42.31501" lon="2.22532">
        <ele>1322</ele>
        <time>2010-01-01T02:50:03Z</time>
      </trkpt>
      <trkpt lat="42.31495" lon="2.22543">
        <ele>1318</ele>
        <time>2010-01-01T02:50:07Z</time>
      </trkpt>
      <trkpt lat="42.31494" lon="2.22546">
        <ele>1317</ele>
        <time>2010-01-01T02:50:08Z</time>
      </trkpt>
      <trkpt lat="42.31493" lon="2.22549">
        <ele>1317</ele>
        <time>2010-01-01T02:50:09Z</time>
      </trkpt>
      <trkpt lat="42.31491" lon="2.22552">
        <ele>1316</ele>
        <time>2010-01-01T02:50:10Z</time>
      </trkpt>
      <trkpt lat="42.3149" lon="2.22556">
        <ele>1315</ele>
        <time>2010-01-01T02:50:12Z</time>
      </trkpt>
      <trkpt lat="42.31489" lon="2.22559">
        <ele>1315</ele>
        <time>2010-01-01T02:50:13Z</time>
      </trkpt>
      <trkpt lat="42.31488" lon="2.22562">
        <ele>1315</ele>
        <time>2010-01-01T02:50:14Z</time>
      </trkpt>
      <trkpt lat="42.31487" lon="2.22565">
        <ele>1314</ele>
        <time>2010-01-01T02:50:15Z</time>
      </trkpt>
      <trkpt lat="42.31486" lon="2.22569">
        <ele>1314</ele>
        <time>2010-01-01T02:50:16Z</time>
      </trkpt>
      <trkpt lat="42.31487" lon="2.22576">
        <ele>1315</ele>
        <time>2010-01-01T02:50:18Z</time>
      </trkpt>
      <trkpt lat="42.31487" lon="2.22582">
        <ele>1315</ele>
        <time>2010-01-01T02:50:20Z</time>
      </trkpt>
      <trkpt lat="42.31487" lon="2.22585">
        <ele>1316</ele>
        <time>2010-01-01T02:50:21Z</time>
      </trkpt>
      <trkpt lat="42.31487" lon="2.22588">
        <ele>1316</ele>
        <time>2010-01-01T02:50:22Z</time>
      </trkpt>
      <trkpt lat="42.31488" lon="2.22592">
        <ele>1317</ele>
        <time>2010-01-01T02:50:23Z</time>
      </trkpt>
      <trkpt lat="42.31488" lon="2.22595">
        <ele>1318</ele>
        <time>2010-01-01T02:50:24Z</time>
      </trkpt>
      <trkpt lat="42.31488" lon="2.22603">
        <ele>1319</ele>
        <time>2010-01-01T02:50:26Z</time>
      </trkpt>
      <trkpt lat="42.31489" lon="2.22606">
        <ele>1320</ele>
        <time>2010-01-01T02:50:27Z</time>
      </trkpt>
      <trkpt lat="42.3149" lon="2.22609">
        <ele>1321</ele>
        <time>2010-01-01T02:50:28Z</time>
      </trkpt>
      <trkpt lat="42.31492" lon="2.22611">
        <ele>1323</ele>
        <time>2010-01-01T02:50:29Z</time>
      </trkpt>
      <trkpt lat="42.31493" lon="2.22613">
        <ele>1324</ele>
        <time>2010-01-01T02:50:30Z</time>
      </trkpt>
      <trkpt lat="42.31495" lon="2.22615">
        <ele>1326</ele>
        <time>2010-01-01T02:50:31Z</time>
      </trkpt>
      <trkpt lat="42.31497" lon="2.22617">
        <ele>1327</ele>
        <time>2010-01-01T02:50:31Z</time>
      </trkpt>
      <trkpt lat="42.31498" lon="2.22619">
        <ele>1329</ele>
        <time>2010-01-01T02:50:32Z</time>
      </trkpt>
      <trkpt lat="42.31501" lon="2.22624">
        <ele>1331</ele>
        <time>2010-01-01T02:50:34Z</time>
      </trkpt>
      <trkpt lat="42.31502" lon="2.22626">
        <ele>1332</ele>
        <time>2010-01-01T02:50:35Z</time>
      </trkpt>
      <trkpt lat="42.31504" lon="2.22628">
        <ele>1334</ele>
        <time>2010-01-01T02:50:36Z</time>
      </trkpt>
      <trkpt lat="42.31505" lon="2.2263">
        <ele>1335</ele>
        <time>2010-01-01T02:50:37Z</time>
      </trkpt>
      <trkpt lat="42.31505" lon="2.22639">
        <ele>1336</ele>
        <time>2010-01-01T02:50:39Z</time>
      </trkpt>
      <trkpt lat="42.31504" lon="2.22643">
        <ele>1335</ele>
        <time>2010-01-01T02:50:41Z</time>
      </trkpt>
      <trkpt lat="42.31503" lon="2.22647">
        <ele>1335</ele>
        <time>2010-01-01T02:50:42Z</time>
      </trkpt>
      <trkpt lat="42.31503" lon="2.22649">
        <ele>1335</ele>
        <time>2010-01-01T02:50:42Z</time>
      </trkpt>
      <trkpt lat="42.31503" lon="2.22658">
        <ele>1335</ele>
        <time>2010-01-01T02:50:45Z</time>
      </trkpt>
      <trkpt lat="42.31503" lon="2.2266">
        <ele>1335</ele>
        <time>2010-01-01T02:50:46Z</time>
      </trkpt>
      <trkpt lat="42.31499" lon="2.22667">
        <ele>1333</ele>
        <time>2010-01-01T02:50:48Z</time>
      </trkpt>
      <trkpt lat="42.31496" lon="2.22671">
        <ele>1332</ele>
        <time>2010-01-01T02:50:50Z</time>
      </trkpt>
      <trkpt lat="42.31495" lon="2.22673">
        <ele>1332</ele>
        <time>2010-01-01T02:50:51Z</time>
      </trkpt>
      <trkpt lat="42.31494" lon="2.22675">
        <ele>1332</ele>
        <time>2010-01-01T02:50:51Z</time>
      </trkpt>
      <trkpt lat="42.31493" lon="2.22678">
        <ele>1332</ele>
        <time>2010-01-01T02:50:52Z</time>
      </trkpt>
      <trkpt lat="42.31492" lon="2.22681">
        <ele>1332</ele>
        <time>2010-01-01T02:50:53Z</time>
      </trkpt>
      <trkpt lat="42.31491" lon="2.22683">
        <ele>1331</ele>
        <time>2010-01-01T02:50:54Z</time>
      </trkpt>
      <trkpt lat="42.3149" lon="2.22686">
        <ele>1331</ele>
        <time>2010-01-01T02:50:55Z</time>
      </trkpt>
      <trkpt lat="42.31488" lon="2.22691">
        <ele>1331</ele>
        <time>2010-01-01T02:50:56Z</time>
      </trkpt>
      <trkpt lat="42.31487" lon="2.22693">
        <ele>1331</ele>
        <time>2010-01-01T02:50:57Z</time>
      </trkpt>
      <trkpt lat="42.31486" lon="2.22696">
        <ele>1331</ele>
        <time>2010-01-01T02:50:58Z</time>
      </trkpt>
      <trkpt lat="42.31486" lon="2.22699">
        <ele>1331</ele>
        <time>2010-01-01T02:50:59Z</time>
      </trkpt>
      <trkpt lat="42.31485" lon="2.22701">
        <ele>1332</ele>
        <time>2010-01-01T02:51:00Z</time>
      </trkpt>
      <trkpt lat="42.31484" lon="2.22703">
        <ele>1332</ele>
        <time>2010-01-01T02:51:01Z</time>
      </trkpt>
      <trkpt lat="42.31483" lon="2.22706">
        <ele>1332</ele>
        <time>2010-01-01T02:51:01Z</time>
      </trkpt>
      <trkpt lat="42.31483" lon="2.22708">
        <ele>1333</ele>
        <time>2010-01-01T02:51:02Z</time>
      </trkpt>
      <trkpt lat="42.31483" lon="2.22712">
        <ele>1334</ele>
        <time>2010-01-01T02:51:03Z</time>
      </trkpt>
      <trkpt lat="42.31482" lon="2.22715">
        <ele>1334</ele>
        <time>2010-01-01T02:51:04Z</time>
      </trkpt>
      <trkpt lat="42.31482" lon="2.22717">
        <ele>1335</ele>
        <time>2010-01-01T02:51:05Z</time>
      </trkpt>
      <trkpt lat="42.31482" lon="2.2272">
        <ele>1336</ele>
        <time>2010-01-01T02:51:06Z</time>
      </trkpt>
      <trkpt lat="42.31482" lon="2.22723">
        <ele>1337</ele>
        <time>2010-01-01T02:51:07Z</time>
      </trkpt>
      <trkpt lat="42.31482" lon="2.22726">
        <ele>1337</ele>
        <time>2010-01-01T02:51:08Z</time>
      </trkpt>
      <trkpt lat="42.31482" lon="2.22729">
        <ele>1338</ele>
        <time>2010-01-01T02:51:08Z</time>
      </trkpt>
      <trkpt lat="42.31481" lon="2.22732">
        <ele>1339</ele>
        <time>2010-01-01T02:51:09Z</time>
      </trkpt>
      <trkpt lat="42.31481" lon="2.22736">
        <ele>1339</ele>
        <time>2010-01-01T02:51:10Z</time>
      </trkpt>
      <trkpt lat="42.31481" lon="2.22739">
        <ele>1340</ele>
        <time>2010-01-01T02:51:11Z</time>
      </trkpt>
      <trkpt lat="42.31481" lon="2.22742">
        <ele>1341</ele>
        <time>2010-01-01T02:51:12Z</time>
      </trkpt>
      <trkpt lat="42.3148" lon="2.22745">
        <ele>1341</ele>
        <time>2010-01-01T02:51:13Z</time>
      </trkpt>
      <trkpt lat="42.31479" lon="2.22749">
        <ele>1342</ele>
        <time>2010-01-01T02:51:14Z</time>
      </trkpt>
      <trkpt lat="42.31479" lon="2.22753">
        <ele>1342</ele>
        <time>2010-01-01T02:51:16Z</time>
      </trkpt>
      <trkpt lat="42.31478" lon="2.22756">
        <ele>1341</ele>
        <time>2010-01-01T02:51:17Z</time>
      </trkpt>
      <trkpt lat="42.31478" lon="2.2276">
        <ele>1341</ele>
        <time>2010-01-01T02:51:18Z</time>
      </trkpt>
      <trkpt lat="42.31478" lon="2.22763">
        <ele>1341</ele>
        <time>2010-01-01T02:51:19Z</time>
      </trkpt>
      <trkpt lat="42.31479" lon="2.22766">
        <ele>1342</ele>
        <time>2010-01-01T02:51:19Z</time>
      </trkpt>
      <trkpt lat="42.31479" lon="2.22769">
        <ele>1342</ele>
        <time>2010-01-01T02:51:20Z</time>
      </trkpt>
      <trkpt lat="42.31479" lon="2.22773">
        <ele>1342</ele>
        <time>2010-01-01T02:51:22Z</time>
      </trkpt>
      <trkpt lat="42.31479" lon="2.22777">
        <ele>1342</ele>
        <time>2010-01-01T02:51:23Z</time>
      </trkpt>
      <trkpt lat="42.31479" lon="2.22784">
        <ele>1341</ele>
        <time>2010-01-01T02:51:25Z</time>
      </trkpt>
      <trkpt lat="42.31479" lon="2.22788">
        <ele>1341</ele>
        <time>2010-01-01T02:51:26Z</time>
      </trkpt>
      <trkpt lat="42.31479" lon="2.22791">
        <ele>1341</ele>
        <time>2010-01-01T02:51:27Z</time>
      </trkpt>
      <trkpt lat="42.31479" lon="2.22795">
        <ele>1342</ele>
        <time>2010-01-01T02:51:28Z</time>
      </trkpt>
      <trkpt lat="42.3148" lon="2.22798">
        <ele>1342</ele>
        <time>2010-01-01T02:51:29Z</time>
      </trkpt>
      <trkpt lat="42.3148" lon="2.22802">
        <ele>1342</ele>
        <time>2010-01-01T02:51:30Z</time>
      </trkpt>
      <trkpt lat="42.3148" lon="2.22813">
        <ele>1342</ele>
        <time>2010-01-01T02:51:34Z</time>
      </trkpt>
      <trkpt lat="42.3148" lon="2.22817">
        <ele>1341</ele>
        <time>2010-01-01T02:51:35Z</time>
      </trkpt>
      <trkpt lat="42.3148" lon="2.2282">
        <ele>1341</ele>
        <time>2010-01-01T02:51:36Z</time>
      </trkpt>
      <trkpt lat="42.3148" lon="2.22824">
        <ele>1341</ele>
        <time>2010-01-01T02:51:37Z</time>
      </trkpt>
      <trkpt lat="42.3148" lon="2.22828">
        <ele>1341</ele>
        <time>2010-01-01T02:51:38Z</time>
      </trkpt>
      <trkpt lat="42.3148" lon="2.22832">
        <ele>1340</ele>
        <time>2010-01-01T02:51:39Z</time>
      </trkpt>
      <trkpt lat="42.3148" lon="2.22836">
        <ele>1340</ele>
        <time>2010-01-01T02:51:40Z</time>
      </trkpt>
      <trkpt lat="42.3148" lon="2.2284">
        <ele>1339</ele>
        <time>2010-01-01T02:51:41Z</time>
      </trkpt>
      <trkpt lat="42.3148" lon="2.22844">
        <ele>1339</ele>
        <time>2010-01-01T02:51:43Z</time>
      </trkpt>
      <trkpt lat="42.3148" lon="2.22848">
        <ele>1339</ele>
        <time>2010-01-01T02:51:44Z</time>
      </trkpt>
      <trkpt lat="42.31481" lon="2.22852">
        <ele>1339</ele>
        <time>2010-01-01T02:51:45Z</time>
      </trkpt>
      <trkpt lat="42.31481" lon="2.22856">
        <ele>1339</ele>
        <time>2010-01-01T02:51:46Z</time>
      </trkpt>
      <trkpt lat="42.31482" lon="2.22859">
        <ele>1339</ele>
        <time>2010-01-01T02:51:47Z</time>
      </trkpt>
      <trkpt lat="42.31483" lon="2.22863">
        <ele>1340</ele>
        <time>2010-01-01T02:51:49Z</time>
      </trkpt>
      <trkpt lat="42.31484" lon="2.22866">
        <ele>1340</ele>
        <time>2010-01-01T02:51:50Z</time>
      </trkpt>
      <trkpt lat="42.31486" lon="2.22869">
        <ele>1341</ele>
        <time>2010-01-01T02:51:51Z</time>
      </trkpt>
      <trkpt lat="42.31487" lon="2.22872">
        <ele>1341</ele>
        <time>2010-01-01T02:51:52Z</time>
      </trkpt>
      <trkpt lat="42.31489" lon="2.22874">
        <ele>1342</ele>
        <time>2010-01-01T02:51:53Z</time>
      </trkpt>
      <trkpt lat="42.3149" lon="2.22876">
        <ele>1342</ele>
        <time>2010-01-01T02:51:53Z</time>
      </trkpt>
      <trkpt lat="42.31492" lon="2.22879">
        <ele>1343</ele>
        <time>2010-01-01T02:51:54Z</time>
      </trkpt>
      <trkpt lat="42.31493" lon="2.22881">
        <ele>1343</ele>
        <time>2010-01-01T02:51:55Z</time>
      </trkpt>
      <trkpt lat="42.31494" lon="2.22883">
        <ele>1344</ele>
        <time>2010-01-01T02:51:56Z</time>
      </trkpt>
      <trkpt lat="42.31496" lon="2.22885">
        <ele>1345</ele>
        <time>2010-01-01T02:51:57Z</time>
      </trkpt>
      <trkpt lat="42.31497" lon="2.22887">
        <ele>1345</ele>
        <time>2010-01-01T02:51:58Z</time>
      </trkpt>
      <trkpt lat="42.31499" lon="2.22889">
        <ele>1346</ele>
        <time>2010-01-01T02:51:59Z</time>
      </trkpt>
      <trkpt lat="42.31501" lon="2.2289">
        <ele>1347</ele>
        <time>2010-01-01T02:51:59Z</time>
      </trkpt>
      <trkpt lat="42.31502" lon="2.22894">
        <ele>1348</ele>
        <time>2010-01-01T02:52:00Z</time>
      </trkpt>
      <trkpt lat="42.31503" lon="2.22897">
        <ele>1348</ele>
        <time>2010-01-01T02:52:01Z</time>
      </trkpt>
      <trkpt lat="42.31503" lon="2.229">
        <ele>1349</ele>
        <time>2010-01-01T02:52:02Z</time>
      </trkpt>
      <trkpt lat="42.31505" lon="2.22903">
        <ele>1349</ele>
        <time>2010-01-01T02:52:03Z</time>
      </trkpt>
      <trkpt lat="42.31506" lon="2.22905">
        <ele>1350</ele>
        <time>2010-01-01T02:52:04Z</time>
      </trkpt>
      <trkpt lat="42.31508" lon="2.22908">
        <ele>1351</ele>
        <time>2010-01-01T02:52:05Z</time>
      </trkpt>
      <trkpt lat="42.31509" lon="2.2291">
        <ele>1352</ele>
        <time>2010-01-01T02:52:06Z</time>
      </trkpt>
      <trkpt lat="42.3151" lon="2.22913">
        <ele>1352</ele>
        <time>2010-01-01T02:52:07Z</time>
      </trkpt>
      <trkpt lat="42.31511" lon="2.22915">
        <ele>1353</ele>
        <time>2010-01-01T02:52:08Z</time>
      </trkpt>
      <trkpt lat="42.31512" lon="2.22918">
        <ele>1354</ele>
        <time>2010-01-01T02:52:09Z</time>
      </trkpt>
      <trkpt lat="42.31514" lon="2.22921">
        <ele>1355</ele>
        <time>2010-01-01T02:52:10Z</time>
      </trkpt>
      <trkpt lat="42.31515" lon="2.22923">
        <ele>1356</ele>
        <time>2010-01-01T02:52:11Z</time>
      </trkpt>
      <trkpt lat="42.31516" lon="2.22926">
        <ele>1357</ele>
        <time>2010-01-01T02:52:12Z</time>
      </trkpt>
      <trkpt lat="42.31518" lon="2.22928">
        <ele>1358</ele>
        <time>2010-01-01T02:52:13Z</time>
      </trkpt>
      <trkpt lat="42.3152" lon="2.22929">
        <ele>1359</ele>
        <time>2010-01-01T02:52:13Z</time>
      </trkpt>
      <trkpt lat="42.31522" lon="2.2293">
        <ele>1360</ele>
        <time>2010-01-01T02:52:14Z</time>
      </trkpt>
      <trkpt lat="42.31524" lon="2.22932">
        <ele>1361</ele>
        <time>2010-01-01T02:52:15Z</time>
      </trkpt>
      <trkpt lat="42.31525" lon="2.22934">
        <ele>1362</ele>
        <time>2010-01-01T02:52:16Z</time>
      </trkpt>
      <trkpt lat="42.31526" lon="2.22937">
        <ele>1363</ele>
        <time>2010-01-01T02:52:17Z</time>
      </trkpt>
      <trkpt lat="42.31527" lon="2.22938">
        <ele>1364</ele>
        <time>2010-01-01T02:52:18Z</time>
      </trkpt>
      <trkpt lat="42.31529" lon="2.2294">
        <ele>1365</ele>
        <time>2010-01-01T02:52:18Z</time>
      </trkpt>
      <trkpt lat="42.3153" lon="2.22943">
        <ele>1366</ele>
        <time>2010-01-01T02:52:19Z</time>
      </trkpt>
      <trkpt lat="42.31528" lon="2.22948">
        <ele>1365</ele>
        <time>2010-01-01T02:52:21Z</time>
      </trkpt>
      <trkpt lat="42.31526" lon="2.22949">
        <ele>1364</ele>
        <time>2010-01-01T02:52:22Z</time>
      </trkpt>
      <trkpt lat="42.31524" lon="2.2295">
        <ele>1364</ele>
        <time>2010-01-01T02:52:22Z</time>
      </trkpt>
      <trkpt lat="42.31523" lon="2.22952">
        <ele>1363</ele>
        <time>2010-01-01T02:52:23Z</time>
      </trkpt>
      <trkpt lat="42.31521" lon="2.22953">
        <ele>1362</ele>
        <time>2010-01-01T02:52:24Z</time>
      </trkpt>
      <trkpt lat="42.31519" lon="2.22957">
        <ele>1362</ele>
        <time>2010-01-01T02:52:25Z</time>
      </trkpt>
      <trkpt lat="42.31518" lon="2.22959">
        <ele>1362</ele>
        <time>2010-01-01T02:52:26Z</time>
      </trkpt>
      <trkpt lat="42.31517" lon="2.22962">
        <ele>1362</ele>
        <time>2010-01-01T02:52:27Z</time>
      </trkpt>
      <trkpt lat="42.31515" lon="2.22964">
        <ele>1362</ele>
        <time>2010-01-01T02:52:28Z</time>
      </trkpt>
      <trkpt lat="42.31513" lon="2.22967">
        <ele>1361</ele>
        <time>2010-01-01T02:52:29Z</time>
      </trkpt>
      <trkpt lat="42.31512" lon="2.22969">
        <ele>1361</ele>
        <time>2010-01-01T02:52:30Z</time>
      </trkpt>
      <trkpt lat="42.3151" lon="2.22972">
        <ele>1361</ele>
        <time>2010-01-01T02:52:31Z</time>
      </trkpt>
      <trkpt lat="42.31507" lon="2.22977">
        <ele>1361</ele>
        <time>2010-01-01T02:52:33Z</time>
      </trkpt>
      <trkpt lat="42.31506" lon="2.22979">
        <ele>1361</ele>
        <time>2010-01-01T02:52:34Z</time>
      </trkpt>
      <trkpt lat="42.31503" lon="2.22984">
        <ele>1362</ele>
        <time>2010-01-01T02:52:36Z</time>
      </trkpt>
      <trkpt lat="42.31501" lon="2.22987">
        <ele>1361</ele>
        <time>2010-01-01T02:52:37Z</time>
      </trkpt>
      <trkpt lat="42.31499" lon="2.22988">
        <ele>1362</ele>
        <time>2010-01-01T02:52:38Z</time>
      </trkpt>
      <trkpt lat="42.31499" lon="2.22991">
        <ele>1362</ele>
        <time>2010-01-01T02:52:39Z</time>
      </trkpt>
      <trkpt lat="42.31498" lon="2.22994">
        <ele>1363</ele>
        <time>2010-01-01T02:52:39Z</time>
      </trkpt>
      <trkpt lat="42.31497" lon="2.23">
        <ele>1365</ele>
        <time>2010-01-01T02:52:41Z</time>
      </trkpt>
      <trkpt lat="42.31498" lon="2.23006">
        <ele>1367</ele>
        <time>2010-01-01T02:52:43Z</time>
      </trkpt>
      <trkpt lat="42.31495" lon="2.23012">
        <ele>1369</ele>
        <time>2010-01-01T02:52:45Z</time>
      </trkpt>
      <trkpt lat="42.31495" lon="2.23015">
        <ele>1370</ele>
        <time>2010-01-01T02:52:46Z</time>
      </trkpt>
      <trkpt lat="42.31493" lon="2.23018">
        <ele>1370</ele>
        <time>2010-01-01T02:52:47Z</time>
      </trkpt>
      <trkpt lat="42.31493" lon="2.23021">
        <ele>1371</ele>
        <time>2010-01-01T02:52:48Z</time>
      </trkpt>
      <trkpt lat="42.31492" lon="2.23025">
        <ele>1373</ele>
        <time>2010-01-01T02:52:49Z</time>
      </trkpt>
      <trkpt lat="42.31492" lon="2.23032">
        <ele>1376</ele>
        <time>2010-01-01T02:52:51Z</time>
      </trkpt>
      <trkpt lat="42.31494" lon="2.23037">
        <ele>1378</ele>
        <time>2010-01-01T02:52:53Z</time>
      </trkpt>
      <trkpt lat="42.31493" lon="2.23039">
        <ele>1379</ele>
        <time>2010-01-01T02:52:54Z</time>
      </trkpt>
      <trkpt lat="42.31493" lon="2.23043">
        <ele>1380</ele>
        <time>2010-01-01T02:52:55Z</time>
      </trkpt>
      <trkpt lat="42.31492" lon="2.23046">
        <ele>1381</ele>
        <time>2010-01-01T02:52:56Z</time>
      </trkpt>
      <trkpt lat="42.31492" lon="2.23048">
        <ele>1382</ele>
        <time>2010-01-01T02:52:56Z</time>
      </trkpt>
      <trkpt lat="42.31492" lon="2.23052">
        <ele>1384</ele>
        <time>2010-01-01T02:52:58Z</time>
      </trkpt>
      <trkpt lat="42.31493" lon="2.23054">
        <ele>1385</ele>
        <time>2010-01-01T02:52:58Z</time>
      </trkpt>
      <trkpt lat="42.31493" lon="2.23061">
        <ele>1388</ele>
        <time>2010-01-01T02:53:00Z</time>
      </trkpt>
      <trkpt lat="42.31495" lon="2.23064">
        <ele>1390</ele>
        <time>2010-01-01T02:53:01Z</time>
      </trkpt>
      <trkpt lat="42.31496" lon="2.23066">
        <ele>1391</ele>
        <time>2010-01-01T02:53:02Z</time>
      </trkpt>
      <trkpt lat="42.31494" lon="2.23078">
        <ele>1396</ele>
        <time>2010-01-01T02:53:06Z</time>
      </trkpt>
      <trkpt lat="42.31492" lon="2.23082">
        <ele>1398</ele>
        <time>2010-01-01T02:53:07Z</time>
      </trkpt>
      <trkpt lat="42.31493" lon="2.23088">
        <ele>1400</ele>
        <time>2010-01-01T02:53:09Z</time>
      </trkpt>
      <trkpt lat="42.31492" lon="2.2309">
        <ele>1401</ele>
        <time>2010-01-01T02:53:10Z</time>
      </trkpt>
      <trkpt lat="42.3149" lon="2.23092">
        <ele>1400</ele>
        <time>2010-01-01T02:53:11Z</time>
      </trkpt>
      <trkpt lat="42.31488" lon="2.23094">
        <ele>1401</ele>
        <time>2010-01-01T02:53:12Z</time>
      </trkpt>
      <trkpt lat="42.31486" lon="2.23106">
        <ele>1404</ele>
        <time>2010-01-01T02:53:15Z</time>
      </trkpt>
      <trkpt lat="42.31478" lon="2.23114">
        <ele>1404</ele>
        <time>2010-01-01T02:53:19Z</time>
      </trkpt>
      <trkpt lat="42.31475" lon="2.23117">
        <ele>1404</ele>
        <time>2010-01-01T02:53:21Z</time>
      </trkpt>
      <trkpt lat="42.3147" lon="2.23121">
        <ele>1405</ele>
        <time>2010-01-01T02:53:23Z</time>
      </trkpt>
      <trkpt lat="42.31469" lon="2.23122">
        <ele>1406</ele>
        <time>2010-01-01T02:53:24Z</time>
      </trkpt>
      <trkpt lat="42.31466" lon="2.23123">
        <ele>1406</ele>
        <time>2010-01-01T02:53:25Z</time>
      </trkpt>
      <trkpt lat="42.31463" lon="2.23124">
        <ele>1407</ele>
        <time>2010-01-01T02:53:26Z</time>
      </trkpt>
      <trkpt lat="42.31462" lon="2.23125">
        <ele>1408</ele>
        <time>2010-01-01T02:53:27Z</time>
      </trkpt>
      <trkpt lat="42.31456" lon="2.23128">
        <ele>1409</ele>
        <time>2010-01-01T02:53:29Z</time>
      </trkpt>
      <trkpt lat="42.31454" lon="2.23129">
        <ele>1410</ele>
        <time>2010-01-01T02:53:30Z</time>
      </trkpt>
      <trkpt lat="42.31448" lon="2.23127">
        <ele>1409</ele>
        <time>2010-01-01T02:53:32Z</time>
      </trkpt>
      <trkpt lat="42.31446" lon="2.23127">
        <ele>1409</ele>
        <time>2010-01-01T02:53:33Z</time>
      </trkpt>
      <trkpt lat="42.31444" lon="2.23128">
        <ele>1410</ele>
        <time>2010-01-01T02:53:34Z</time>
      </trkpt>
      <trkpt lat="42.31442" lon="2.23128">
        <ele>1411</ele>
        <time>2010-01-01T02:53:35Z</time>
      </trkpt>
      <trkpt lat="42.3144" lon="2.23129">
        <ele>1412</ele>
        <time>2010-01-01T02:53:36Z</time>
      </trkpt>
      <trkpt lat="42.31437" lon="2.23129">
        <ele>1413</ele>
        <time>2010-01-01T02:53:37Z</time>
      </trkpt>
      <trkpt lat="42.31435" lon="2.2313">
        <ele>1414</ele>
        <time>2010-01-01T02:53:38Z</time>
      </trkpt>
      <trkpt lat="42.31433" lon="2.23131">
        <ele>1415</ele>
        <time>2010-01-01T02:53:38Z</time>
      </trkpt>
      <trkpt lat="42.31431" lon="2.23131">
        <ele>1415</ele>
        <time>2010-01-01T02:53:39Z</time>
      </trkpt>
      <trkpt lat="42.3143" lon="2.2313">
        <ele>1415</ele>
        <time>2010-01-01T02:53:40Z</time>
      </trkpt>
      <trkpt lat="42.31428" lon="2.2313">
        <ele>1416</ele>
        <time>2010-01-01T02:53:41Z</time>
      </trkpt>
      <trkpt lat="42.31426" lon="2.23129">
        <ele>1416</ele>
        <time>2010-01-01T02:53:42Z</time>
      </trkpt>
      <trkpt lat="42.31424" lon="2.23128">
        <ele>1415</ele>
        <time>2010-01-01T02:53:43Z</time>
      </trkpt>
      <trkpt lat="42.31422" lon="2.23127">
        <ele>1416</ele>
        <time>2010-01-01T02:53:43Z</time>
      </trkpt>
      <trkpt lat="42.3142" lon="2.23127">
        <ele>1416</ele>
        <time>2010-01-01T02:53:44Z</time>
      </trkpt>
      <trkpt lat="42.31417" lon="2.23127">
        <ele>1416</ele>
        <time>2010-01-01T02:53:45Z</time>
      </trkpt>
      <trkpt lat="42.31415" lon="2.23126">
        <ele>1417</ele>
        <time>2010-01-01T02:53:46Z</time>
      </trkpt>
      <trkpt lat="42.31413" lon="2.23126">
        <ele>1417</ele>
        <time>2010-01-01T02:53:47Z</time>
      </trkpt>
      <trkpt lat="42.31411" lon="2.23124">
        <ele>1417</ele>
        <time>2010-01-01T02:53:48Z</time>
      </trkpt>
      <trkpt lat="42.31409" lon="2.23124">
        <ele>1418</ele>
        <time>2010-01-01T02:53:49Z</time>
      </trkpt>
      <trkpt lat="42.31407" lon="2.23125">
        <ele>1419</ele>
        <time>2010-01-01T02:53:49Z</time>
      </trkpt>
      <trkpt lat="42.31405" lon="2.23125">
        <ele>1420</ele>
        <time>2010-01-01T02:53:50Z</time>
      </trkpt>
      <trkpt lat="42.31403" lon="2.23126">
        <ele>1422</ele>
        <time>2010-01-01T02:53:51Z</time>
      </trkpt>
      <trkpt lat="42.31401" lon="2.23125">
        <ele>1422</ele>
        <time>2010-01-01T02:53:52Z</time>
      </trkpt>
      <trkpt lat="42.31397" lon="2.23127">
        <ele>1425</ele>
        <time>2010-01-01T02:53:54Z</time>
      </trkpt>
      <trkpt lat="42.31394" lon="2.23126">
        <ele>1426</ele>
        <time>2010-01-01T02:53:55Z</time>
      </trkpt>
      <trkpt lat="42.31392" lon="2.23126">
        <ele>1427</ele>
        <time>2010-01-01T02:53:56Z</time>
      </trkpt>
      <trkpt lat="42.3139" lon="2.23126">
        <ele>1428</ele>
        <time>2010-01-01T02:53:57Z</time>
      </trkpt>
      <trkpt lat="42.31388" lon="2.23127">
        <ele>1428</ele>
        <time>2010-01-01T02:53:57Z</time>
      </trkpt>
      <trkpt lat="42.31385" lon="2.23126">
        <ele>1428</ele>
        <time>2010-01-01T02:53:58Z</time>
      </trkpt>
      <trkpt lat="42.31383" lon="2.23126">
        <ele>1428</ele>
        <time>2010-01-01T02:53:59Z</time>
      </trkpt>
      <trkpt lat="42.31381" lon="2.23125">
        <ele>1427</ele>
        <time>2010-01-01T02:54:00Z</time>
      </trkpt>
      <trkpt lat="42.3138" lon="2.23123">
        <ele>1427</ele>
        <time>2010-01-01T02:54:01Z</time>
      </trkpt>
      <trkpt lat="42.31377" lon="2.23124">
        <ele>1427</ele>
        <time>2010-01-01T02:54:02Z</time>
      </trkpt>
      <trkpt lat="42.31375" lon="2.23123">
        <ele>1427</ele>
        <time>2010-01-01T02:54:03Z</time>
      </trkpt>
      <trkpt lat="42.31373" lon="2.23122">
        <ele>1426</ele>
        <time>2010-01-01T02:54:03Z</time>
      </trkpt>
      <trkpt lat="42.31371" lon="2.2312">
        <ele>1425</ele>
        <time>2010-01-01T02:54:05Z</time>
      </trkpt>
      <trkpt lat="42.31369" lon="2.2312">
        <ele>1425</ele>
        <time>2010-01-01T02:54:06Z</time>
      </trkpt>
      <trkpt lat="42.31366" lon="2.23119">
        <ele>1425</ele>
        <time>2010-01-01T02:54:06Z</time>
      </trkpt>
      <trkpt lat="42.31364" lon="2.23119">
        <ele>1425</ele>
        <time>2010-01-01T02:54:07Z</time>
      </trkpt>
      <trkpt lat="42.31361" lon="2.23118">
        <ele>1424</ele>
        <time>2010-01-01T02:54:09Z</time>
      </trkpt>
      <trkpt lat="42.31359" lon="2.23117">
        <ele>1424</ele>
        <time>2010-01-01T02:54:10Z</time>
      </trkpt>
      <trkpt lat="42.31357" lon="2.23117">
        <ele>1424</ele>
        <time>2010-01-01T02:54:10Z</time>
      </trkpt>
      <trkpt lat="42.31355" lon="2.23117">
        <ele>1423</ele>
        <time>2010-01-01T02:54:11Z</time>
      </trkpt>
      <trkpt lat="42.31353" lon="2.23116">
        <ele>1423</ele>
        <time>2010-01-01T02:54:12Z</time>
      </trkpt>
      <trkpt lat="42.3135" lon="2.23115">
        <ele>1422</ele>
        <time>2010-01-01T02:54:13Z</time>
      </trkpt>
      <trkpt lat="42.31348" lon="2.23115">
        <ele>1421</ele>
        <time>2010-01-01T02:54:14Z</time>
      </trkpt>
      <trkpt lat="42.31346" lon="2.23115">
        <ele>1421</ele>
        <time>2010-01-01T02:54:15Z</time>
      </trkpt>
      <trkpt lat="42.31344" lon="2.23117">
        <ele>1422</ele>
        <time>2010-01-01T02:54:16Z</time>
      </trkpt>
      <trkpt lat="42.31343" lon="2.2312">
        <ele>1423</ele>
        <time>2010-01-01T02:54:17Z</time>
      </trkpt>
      <trkpt lat="42.31342" lon="2.23123">
        <ele>1425</ele>
        <time>2010-01-01T02:54:18Z</time>
      </trkpt>
      <trkpt lat="42.31342" lon="2.23127">
        <ele>1427</ele>
        <time>2010-01-01T02:54:19Z</time>
      </trkpt>
      <trkpt lat="42.31343" lon="2.2313">
        <ele>1428</ele>
        <time>2010-01-01T02:54:20Z</time>
      </trkpt>
      <trkpt lat="42.31343" lon="2.23132">
        <ele>1430</ele>
        <time>2010-01-01T02:54:21Z</time>
      </trkpt>
      <trkpt lat="42.31343" lon="2.23135">
        <ele>1431</ele>
        <time>2010-01-01T02:54:21Z</time>
      </trkpt>
      <trkpt lat="42.31343" lon="2.23138">
        <ele>1433</ele>
        <time>2010-01-01T02:54:22Z</time>
      </trkpt>
      <trkpt lat="42.31342" lon="2.2314">
        <ele>1434</ele>
        <time>2010-01-01T02:54:23Z</time>
      </trkpt>
      <trkpt lat="42.31341" lon="2.23142">
        <ele>1434</ele>
        <time>2010-01-01T02:54:24Z</time>
      </trkpt>
      <trkpt lat="42.31339" lon="2.23145">
        <ele>1436</ele>
        <time>2010-01-01T02:54:25Z</time>
      </trkpt>
      <trkpt lat="42.31338" lon="2.23147">
        <ele>1437</ele>
        <time>2010-01-01T02:54:26Z</time>
      </trkpt>
      <trkpt lat="42.31337" lon="2.2315">
        <ele>1438</ele>
        <time>2010-01-01T02:54:27Z</time>
      </trkpt>
      <trkpt lat="42.31336" lon="2.23153">
        <ele>1439</ele>
        <time>2010-01-01T02:54:28Z</time>
      </trkpt>
      <trkpt lat="42.31334" lon="2.23155">
        <ele>1440</ele>
        <time>2010-01-01T02:54:28Z</time>
      </trkpt>
      <trkpt lat="42.31332" lon="2.23156">
        <ele>1440</ele>
        <time>2010-01-01T02:54:29Z</time>
      </trkpt>
      <trkpt lat="42.3133" lon="2.23158">
        <ele>1441</ele>
        <time>2010-01-01T02:54:30Z</time>
      </trkpt>
      <trkpt lat="42.31328" lon="2.2316">
        <ele>1441</ele>
        <time>2010-01-01T02:54:31Z</time>
      </trkpt>
      <trkpt lat="42.31327" lon="2.23162">
        <ele>1442</ele>
        <time>2010-01-01T02:54:32Z</time>
      </trkpt>
      <trkpt lat="42.31325" lon="2.23164">
        <ele>1442</ele>
        <time>2010-01-01T02:54:33Z</time>
      </trkpt>
      <trkpt lat="42.31323" lon="2.23165">
        <ele>1442</ele>
        <time>2010-01-01T02:54:34Z</time>
      </trkpt>
      <trkpt lat="42.31322" lon="2.23166">
        <ele>1442</ele>
        <time>2010-01-01T02:54:35Z</time>
      </trkpt>
      <trkpt lat="42.3132" lon="2.23167">
        <ele>1442</ele>
        <time>2010-01-01T02:54:35Z</time>
      </trkpt>
      <trkpt lat="42.31318" lon="2.23168">
        <ele>1442</ele>
        <time>2010-01-01T02:54:36Z</time>
      </trkpt>
      <trkpt lat="42.31315" lon="2.23169">
        <ele>1442</ele>
        <time>2010-01-01T02:54:37Z</time>
      </trkpt>
      <trkpt lat="42.31313" lon="2.23169">
        <ele>1442</ele>
        <time>2010-01-01T02:54:38Z</time>
      </trkpt>
      <trkpt lat="42.31311" lon="2.23169">
        <ele>1441</ele>
        <time>2010-01-01T02:54:39Z</time>
      </trkpt>
      <trkpt lat="42.31309" lon="2.2317">
        <ele>1441</ele>
        <time>2010-01-01T02:54:40Z</time>
      </trkpt>
      <trkpt lat="42.31307" lon="2.2317">
        <ele>1440</ele>
        <time>2010-01-01T02:54:41Z</time>
      </trkpt>
      <trkpt lat="42.31305" lon="2.23171">
        <ele>1440</ele>
        <time>2010-01-01T02:54:42Z</time>
      </trkpt>
      <trkpt lat="42.31303" lon="2.23171">
        <ele>1440</ele>
        <time>2010-01-01T02:54:42Z</time>
      </trkpt>
      <trkpt lat="42.313" lon="2.23172">
        <ele>1440</ele>
        <time>2010-01-01T02:54:43Z</time>
      </trkpt>
      <trkpt lat="42.31298" lon="2.23173">
        <ele>1440</ele>
        <time>2010-01-01T02:54:44Z</time>
      </trkpt>
      <trkpt lat="42.31296" lon="2.23174">
        <ele>1440</ele>
        <time>2010-01-01T02:54:45Z</time>
      </trkpt>
      <trkpt lat="42.31295" lon="2.23177">
        <ele>1440</ele>
        <time>2010-01-01T02:54:46Z</time>
      </trkpt>
      <trkpt lat="42.31294" lon="2.23181">
        <ele>1442</ele>
        <time>2010-01-01T02:54:47Z</time>
      </trkpt>
      <trkpt lat="42.31293" lon="2.23183">
        <ele>1442</ele>
        <time>2010-01-01T02:54:48Z</time>
      </trkpt>
      <trkpt lat="42.31292" lon="2.23186">
        <ele>1443</ele>
        <time>2010-01-01T02:54:49Z</time>
      </trkpt>
      <trkpt lat="42.31291" lon="2.23188">
        <ele>1443</ele>
        <time>2010-01-01T02:54:50Z</time>
      </trkpt>
      <trkpt lat="42.3129" lon="2.23191">
        <ele>1444</ele>
        <time>2010-01-01T02:54:51Z</time>
      </trkpt>
      <trkpt lat="42.31289" lon="2.23194">
        <ele>1445</ele>
        <time>2010-01-01T02:54:52Z</time>
      </trkpt>
      <trkpt lat="42.31287" lon="2.23197">
        <ele>1445</ele>
        <time>2010-01-01T02:54:53Z</time>
      </trkpt>
      <trkpt lat="42.31285" lon="2.23199">
        <ele>1445</ele>
        <time>2010-01-01T02:54:54Z</time>
      </trkpt>
      <trkpt lat="42.31283" lon="2.232">
        <ele>1445</ele>
        <time>2010-01-01T02:54:55Z</time>
      </trkpt>
      <trkpt lat="42.31281" lon="2.23202">
        <ele>1445</ele>
        <time>2010-01-01T02:54:56Z</time>
      </trkpt>
      <trkpt lat="42.3128" lon="2.23204">
        <ele>1446</ele>
        <time>2010-01-01T02:54:56Z</time>
      </trkpt>
      <trkpt lat="42.31278" lon="2.23205">
        <ele>1445</ele>
        <time>2010-01-01T02:54:57Z</time>
      </trkpt>
      <trkpt lat="42.31276" lon="2.23207">
        <ele>1446</ele>
        <time>2010-01-01T02:54:58Z</time>
      </trkpt>
      <trkpt lat="42.31274" lon="2.23208">
        <ele>1446</ele>
        <time>2010-01-01T02:54:59Z</time>
      </trkpt>
      <trkpt lat="42.31272" lon="2.23208">
        <ele>1445</ele>
        <time>2010-01-01T02:55:00Z</time>
      </trkpt>
      <trkpt lat="42.3127" lon="2.23209">
        <ele>1445</ele>
        <time>2010-01-01T02:55:00Z</time>
      </trkpt>
      <trkpt lat="42.31268" lon="2.2321">
        <ele>1445</ele>
        <time>2010-01-01T02:55:01Z</time>
      </trkpt>
      <trkpt lat="42.31265" lon="2.23211">
        <ele>1444</ele>
        <time>2010-01-01T02:55:03Z</time>
      </trkpt>
      <trkpt lat="42.31263" lon="2.23212">
        <ele>1444</ele>
        <time>2010-01-01T02:55:04Z</time>
      </trkpt>
      <trkpt lat="42.31261" lon="2.23215">
        <ele>1445</ele>
        <time>2010-01-01T02:55:05Z</time>
      </trkpt>
      <trkpt lat="42.3126" lon="2.23218">
        <ele>1445</ele>
        <time>2010-01-01T02:55:06Z</time>
      </trkpt>
      <trkpt lat="42.31258" lon="2.23221">
        <ele>1446</ele>
        <time>2010-01-01T02:55:07Z</time>
      </trkpt>
      <trkpt lat="42.31257" lon="2.23224">
        <ele>1446</ele>
        <time>2010-01-01T02:55:08Z</time>
      </trkpt>
      <trkpt lat="42.31255" lon="2.23226">
        <ele>1447</ele>
        <time>2010-01-01T02:55:09Z</time>
      </trkpt>
      <trkpt lat="42.31253" lon="2.23229">
        <ele>1448</ele>
        <time>2010-01-01T02:55:10Z</time>
      </trkpt>
      <trkpt lat="42.31252" lon="2.23231">
        <ele>1448</ele>
        <time>2010-01-01T02:55:11Z</time>
      </trkpt>
      <trkpt lat="42.3125" lon="2.23234">
        <ele>1449</ele>
        <time>2010-01-01T02:55:12Z</time>
      </trkpt>
      <trkpt lat="42.31249" lon="2.23236">
        <ele>1449</ele>
        <time>2010-01-01T02:55:12Z</time>
      </trkpt>
      <trkpt lat="42.31248" lon="2.23238">
        <ele>1450</ele>
        <time>2010-01-01T02:55:13Z</time>
      </trkpt>
      <trkpt lat="42.31246" lon="2.2324">
        <ele>1451</ele>
        <time>2010-01-01T02:55:14Z</time>
      </trkpt>
      <trkpt lat="42.31245" lon="2.23242">
        <ele>1451</ele>
        <time>2010-01-01T02:55:15Z</time>
      </trkpt>
      <trkpt lat="42.31243" lon="2.23244">
        <ele>1452</ele>
        <time>2010-01-01T02:55:16Z</time>
      </trkpt>
      <trkpt lat="42.31241" lon="2.23246">
        <ele>1452</ele>
        <time>2010-01-01T02:55:17Z</time>
      </trkpt>
      <trkpt lat="42.31239" lon="2.23248">
        <ele>1453</ele>
        <time>2010-01-01T02:55:18Z</time>
      </trkpt>
      <trkpt lat="42.31237" lon="2.2325">
        <ele>1453</ele>
        <time>2010-01-01T02:55:19Z</time>
      </trkpt>
      <trkpt lat="42.31235" lon="2.23251">
        <ele>1454</ele>
        <time>2010-01-01T02:55:20Z</time>
      </trkpt>
      <trkpt lat="42.31234" lon="2.23253">
        <ele>1454</ele>
        <time>2010-01-01T02:55:21Z</time>
      </trkpt>
      <trkpt lat="42.31232" lon="2.23254">
        <ele>1454</ele>
        <time>2010-01-01T02:55:21Z</time>
      </trkpt>
      <trkpt lat="42.3123" lon="2.23254">
        <ele>1454</ele>
        <time>2010-01-01T02:55:22Z</time>
      </trkpt>
      <trkpt lat="42.31228" lon="2.23256">
        <ele>1454</ele>
        <time>2010-01-01T02:55:23Z</time>
      </trkpt>
      <trkpt lat="42.31226" lon="2.23258">
        <ele>1454</ele>
        <time>2010-01-01T02:55:24Z</time>
      </trkpt>
      <trkpt lat="42.31224" lon="2.23259">
        <ele>1454</ele>
        <time>2010-01-01T02:55:25Z</time>
      </trkpt>
      <trkpt lat="42.31221" lon="2.23259">
        <ele>1453</ele>
        <time>2010-01-01T02:55:26Z</time>
      </trkpt>
      <trkpt lat="42.31219" lon="2.2326">
        <ele>1452</ele>
        <time>2010-01-01T02:55:27Z</time>
      </trkpt>
      <trkpt lat="42.31216" lon="2.23259">
        <ele>1450</ele>
        <time>2010-01-01T02:55:28Z</time>
      </trkpt>
      <trkpt lat="42.31213" lon="2.23259">
        <ele>1449</ele>
        <time>2010-01-01T02:55:29Z</time>
      </trkpt>
      <trkpt lat="42.31211" lon="2.23259">
        <ele>1447</ele>
        <time>2010-01-01T02:55:30Z</time>
      </trkpt>
      <trkpt lat="42.31209" lon="2.2326">
        <ele>1447</ele>
        <time>2010-01-01T02:55:31Z</time>
      </trkpt>
      <trkpt lat="42.31207" lon="2.23262">
        <ele>1446</ele>
        <time>2010-01-01T02:55:32Z</time>
      </trkpt>
      <trkpt lat="42.31205" lon="2.23263">
        <ele>1445</ele>
        <time>2010-01-01T02:55:33Z</time>
      </trkpt>
      <trkpt lat="42.31203" lon="2.23265">
        <ele>1445</ele>
        <time>2010-01-01T02:55:34Z</time>
      </trkpt>
      <trkpt lat="42.31202" lon="2.23268">
        <ele>1445</ele>
        <time>2010-01-01T02:55:35Z</time>
      </trkpt>
      <trkpt lat="42.312" lon="2.23271">
        <ele>1445</ele>
        <time>2010-01-01T02:55:36Z</time>
      </trkpt>
      <trkpt lat="42.31199" lon="2.23274">
        <ele>1446</ele>
        <time>2010-01-01T02:55:37Z</time>
      </trkpt>
      <trkpt lat="42.31197" lon="2.23277">
        <ele>1446</ele>
        <time>2010-01-01T02:55:38Z</time>
      </trkpt>
      <trkpt lat="42.31195" lon="2.2328">
        <ele>1446</ele>
        <time>2010-01-01T02:55:39Z</time>
      </trkpt>
      <trkpt lat="42.31193" lon="2.23283">
        <ele>1446</ele>
        <time>2010-01-01T02:55:40Z</time>
      </trkpt>
      <trkpt lat="42.31192" lon="2.23286">
        <ele>1446</ele>
        <time>2010-01-01T02:55:41Z</time>
      </trkpt>
      <trkpt lat="42.3119" lon="2.2329">
        <ele>1446</ele>
        <time>2010-01-01T02:55:43Z</time>
      </trkpt>
      <trkpt lat="42.31188" lon="2.23293">
        <ele>1446</ele>
        <time>2010-01-01T02:55:44Z</time>
      </trkpt>
      <trkpt lat="42.31186" lon="2.23296">
        <ele>1446</ele>
        <time>2010-01-01T02:55:45Z</time>
      </trkpt>
      <trkpt lat="42.31185" lon="2.23299">
        <ele>1447</ele>
        <time>2010-01-01T02:55:46Z</time>
      </trkpt>
      <trkpt lat="42.31183" lon="2.23302">
        <ele>1446</ele>
        <time>2010-01-01T02:55:47Z</time>
      </trkpt>
      <trkpt lat="42.31182" lon="2.23305">
        <ele>1446</ele>
        <time>2010-01-01T02:55:48Z</time>
      </trkpt>
      <trkpt lat="42.31181" lon="2.23309">
        <ele>1447</ele>
        <time>2010-01-01T02:55:49Z</time>
      </trkpt>
      <trkpt lat="42.31179" lon="2.23312">
        <ele>1447</ele>
        <time>2010-01-01T02:55:51Z</time>
      </trkpt>
      <trkpt lat="42.31178" lon="2.23315">
        <ele>1447</ele>
        <time>2010-01-01T02:55:52Z</time>
      </trkpt>
      <trkpt lat="42.31177" lon="2.23318">
        <ele>1447</ele>
        <time>2010-01-01T02:55:53Z</time>
      </trkpt>
      <trkpt lat="42.31176" lon="2.23322">
        <ele>1447</ele>
        <time>2010-01-01T02:55:54Z</time>
      </trkpt>
      <trkpt lat="42.31174" lon="2.23326">
        <ele>1447</ele>
        <time>2010-01-01T02:55:55Z</time>
      </trkpt>
      <trkpt lat="42.31173" lon="2.23329">
        <ele>1448</ele>
        <time>2010-01-01T02:55:56Z</time>
      </trkpt>
      <trkpt lat="42.31172" lon="2.23333">
        <ele>1448</ele>
        <time>2010-01-01T02:55:58Z</time>
      </trkpt>
      <trkpt lat="42.31171" lon="2.23337">
        <ele>1449</ele>
        <time>2010-01-01T02:55:59Z</time>
      </trkpt>
      <trkpt lat="42.3117" lon="2.23341">
        <ele>1449</ele>
        <time>2010-01-01T02:56:00Z</time>
      </trkpt>
      <trkpt lat="42.31168" lon="2.23345">
        <ele>1449</ele>
        <time>2010-01-01T02:56:01Z</time>
      </trkpt>
      <trkpt lat="42.31167" lon="2.23348">
        <ele>1449</ele>
        <time>2010-01-01T02:56:02Z</time>
      </trkpt>
      <trkpt lat="42.31166" lon="2.23352">
        <ele>1450</ele>
        <time>2010-01-01T02:56:03Z</time>
      </trkpt>
      <trkpt lat="42.31166" lon="2.23355">
        <ele>1450</ele>
        <time>2010-01-01T02:56:04Z</time>
      </trkpt>
      <trkpt lat="42.31166" lon="2.23358">
        <ele>1451</ele>
        <time>2010-01-01T02:56:05Z</time>
      </trkpt>
      <trkpt lat="42.31166" lon="2.23364">
        <ele>1452</ele>
        <time>2010-01-01T02:56:07Z</time>
      </trkpt>
      <trkpt lat="42.31165" lon="2.23367">
        <ele>1453</ele>
        <time>2010-01-01T02:56:08Z</time>
      </trkpt>
      <trkpt lat="42.31165" lon="2.2337">
        <ele>1454</ele>
        <time>2010-01-01T02:56:09Z</time>
      </trkpt>
      <trkpt lat="42.31164" lon="2.23373">
        <ele>1454</ele>
        <time>2010-01-01T02:56:10Z</time>
      </trkpt>
      <trkpt lat="42.31163" lon="2.23377">
        <ele>1455</ele>
        <time>2010-01-01T02:56:11Z</time>
      </trkpt>
      <trkpt lat="42.31162" lon="2.23381">
        <ele>1455</ele>
        <time>2010-01-01T02:56:12Z</time>
      </trkpt>
      <trkpt lat="42.31162" lon="2.23385">
        <ele>1456</ele>
        <time>2010-01-01T02:56:14Z</time>
      </trkpt>
      <trkpt lat="42.31161" lon="2.23388">
        <ele>1456</ele>
        <time>2010-01-01T02:56:14Z</time>
      </trkpt>
      <trkpt lat="42.3116" lon="2.23392">
        <ele>1457</ele>
        <time>2010-01-01T02:56:16Z</time>
      </trkpt>
      <trkpt lat="42.31159" lon="2.23396">
        <ele>1457</ele>
        <time>2010-01-01T02:56:17Z</time>
      </trkpt>
      <trkpt lat="42.31158" lon="2.23399">
        <ele>1457</ele>
        <time>2010-01-01T02:56:18Z</time>
      </trkpt>
      <trkpt lat="42.31156" lon="2.23402">
        <ele>1456</ele>
        <time>2010-01-01T02:56:19Z</time>
      </trkpt>
      <trkpt lat="42.31154" lon="2.23405">
        <ele>1456</ele>
        <time>2010-01-01T02:56:20Z</time>
      </trkpt>
      <trkpt lat="42.31152" lon="2.23408">
        <ele>1455</ele>
        <time>2010-01-01T02:56:22Z</time>
      </trkpt>
      <trkpt lat="42.3115" lon="2.23411">
        <ele>1454</ele>
        <time>2010-01-01T02:56:23Z</time>
      </trkpt>
      <trkpt lat="42.31148" lon="2.23414">
        <ele>1454</ele>
        <time>2010-01-01T02:56:24Z</time>
      </trkpt>
      <trkpt lat="42.31147" lon="2.23418">
        <ele>1454</ele>
        <time>2010-01-01T02:56:25Z</time>
      </trkpt>
      <trkpt lat="42.31147" lon="2.23421">
        <ele>1454</ele>
        <time>2010-01-01T02:56:26Z</time>
      </trkpt>
      <trkpt lat="42.31147" lon="2.23424">
        <ele>1455</ele>
        <time>2010-01-01T02:56:27Z</time>
      </trkpt>
      <trkpt lat="42.31147" lon="2.23432">
        <ele>1457</ele>
        <time>2010-01-01T02:56:29Z</time>
      </trkpt>
      <trkpt lat="42.31147" lon="2.23435">
        <ele>1458</ele>
        <time>2010-01-01T02:56:30Z</time>
      </trkpt>
      <trkpt lat="42.31148" lon="2.23439">
        <ele>1459</ele>
        <time>2010-01-01T02:56:31Z</time>
      </trkpt>
      <trkpt lat="42.31148" lon="2.23443">
        <ele>1460</ele>
        <time>2010-01-01T02:56:32Z</time>
      </trkpt>
      <trkpt lat="42.31148" lon="2.23447">
        <ele>1461</ele>
        <time>2010-01-01T02:56:34Z</time>
      </trkpt>
      <trkpt lat="42.31149" lon="2.2345">
        <ele>1462</ele>
        <time>2010-01-01T02:56:35Z</time>
      </trkpt>
      <trkpt lat="42.31149" lon="2.23454">
        <ele>1463</ele>
        <time>2010-01-01T02:56:36Z</time>
      </trkpt>
      <trkpt lat="42.31148" lon="2.23461">
        <ele>1464</ele>
        <time>2010-01-01T02:56:38Z</time>
      </trkpt>
      <trkpt lat="42.31148" lon="2.23465">
        <ele>1464</ele>
        <time>2010-01-01T02:56:39Z</time>
      </trkpt>
      <trkpt lat="42.31147" lon="2.23469">
        <ele>1465</ele>
        <time>2010-01-01T02:56:40Z</time>
      </trkpt>
      <trkpt lat="42.31147" lon="2.23473">
        <ele>1465</ele>
        <time>2010-01-01T02:56:41Z</time>
      </trkpt>
      <trkpt lat="42.31147" lon="2.23476">
        <ele>1465</ele>
        <time>2010-01-01T02:56:42Z</time>
      </trkpt>
      <trkpt lat="42.31147" lon="2.2348">
        <ele>1465</ele>
        <time>2010-01-01T02:56:44Z</time>
      </trkpt>
      <trkpt lat="42.31147" lon="2.23484">
        <ele>1466</ele>
        <time>2010-01-01T02:56:45Z</time>
      </trkpt>
      <trkpt lat="42.31147" lon="2.23487">
        <ele>1466</ele>
        <time>2010-01-01T02:56:46Z</time>
      </trkpt>
      <trkpt lat="42.31147" lon="2.23491">
        <ele>1466</ele>
        <time>2010-01-01T02:56:47Z</time>
      </trkpt>
      <trkpt lat="42.31147" lon="2.23494">
        <ele>1466</ele>
        <time>2010-01-01T02:56:48Z</time>
      </trkpt>
      <trkpt lat="42.31147" lon="2.23498">
        <ele>1466</ele>
        <time>2010-01-01T02:56:49Z</time>
      </trkpt>
      <trkpt lat="42.31147" lon="2.23501">
        <ele>1466</ele>
        <time>2010-01-01T02:56:50Z</time>
      </trkpt>
      <trkpt lat="42.31146" lon="2.23505">
        <ele>1466</ele>
        <time>2010-01-01T02:56:51Z</time>
      </trkpt>
      <trkpt lat="42.31146" lon="2.23508">
        <ele>1466</ele>
        <time>2010-01-01T02:56:52Z</time>
      </trkpt>
      <trkpt lat="42.31146" lon="2.23511">
        <ele>1466</ele>
        <time>2010-01-01T02:56:53Z</time>
      </trkpt>
      <trkpt lat="42.31146" lon="2.23515">
        <ele>1467</ele>
        <time>2010-01-01T02:56:54Z</time>
      </trkpt>
      <trkpt lat="42.31146" lon="2.23518">
        <ele>1467</ele>
        <time>2010-01-01T02:56:55Z</time>
      </trkpt>
      <trkpt lat="42.31146" lon="2.23522">
        <ele>1467</ele>
        <time>2010-01-01T02:56:56Z</time>
      </trkpt>
      <trkpt lat="42.31146" lon="2.23529">
        <ele>1467</ele>
        <time>2010-01-01T02:56:58Z</time>
      </trkpt>
      <trkpt lat="42.31146" lon="2.23532">
        <ele>1468</ele>
        <time>2010-01-01T02:56:59Z</time>
      </trkpt>
      <trkpt lat="42.31146" lon="2.23535">
        <ele>1467</ele>
        <time>2010-01-01T02:57:00Z</time>
      </trkpt>
      <trkpt lat="42.31146" lon="2.23539">
        <ele>1467</ele>
        <time>2010-01-01T02:57:01Z</time>
      </trkpt>
      <trkpt lat="42.31147" lon="2.23543">
        <ele>1468</ele>
        <time>2010-01-01T02:57:02Z</time>
      </trkpt>
      <trkpt lat="42.31147" lon="2.23547">
        <ele>1468</ele>
        <time>2010-01-01T02:57:03Z</time>
      </trkpt>
      <trkpt lat="42.31147" lon="2.23551">
        <ele>1468</ele>
        <time>2010-01-01T02:57:05Z</time>
      </trkpt>
      <trkpt lat="42.31147" lon="2.23554">
        <ele>1469</ele>
        <time>2010-01-01T02:57:06Z</time>
      </trkpt>
      <trkpt lat="42.31147" lon="2.23558">
        <ele>1469</ele>
        <time>2010-01-01T02:57:07Z</time>
      </trkpt>
      <trkpt lat="42.31147" lon="2.23562">
        <ele>1469</ele>
        <time>2010-01-01T02:57:08Z</time>
      </trkpt>
      <trkpt lat="42.31147" lon="2.23565">
        <ele>1470</ele>
        <time>2010-01-01T02:57:09Z</time>
      </trkpt>
      <trkpt lat="42.31148" lon="2.23569">
        <ele>1471</ele>
        <time>2010-01-01T02:57:10Z</time>
      </trkpt>
      <trkpt lat="42.31148" lon="2.23573">
        <ele>1472</ele>
        <time>2010-01-01T02:57:11Z</time>
      </trkpt>
      <trkpt lat="42.31148" lon="2.23577">
        <ele>1472</ele>
        <time>2010-01-01T02:57:12Z</time>
      </trkpt>
      <trkpt lat="42.31149" lon="2.2358">
        <ele>1473</ele>
        <time>2010-01-01T02:57:13Z</time>
      </trkpt>
      <trkpt lat="42.3115" lon="2.23583">
        <ele>1475</ele>
        <time>2010-01-01T02:57:14Z</time>
      </trkpt>
      <trkpt lat="42.3115" lon="2.23587">
        <ele>1475</ele>
        <time>2010-01-01T02:57:15Z</time>
      </trkpt>
      <trkpt lat="42.31149" lon="2.23589">
        <ele>1476</ele>
        <time>2010-01-01T02:57:16Z</time>
      </trkpt>
      <trkpt lat="42.31149" lon="2.23592">
        <ele>1476</ele>
        <time>2010-01-01T02:57:17Z</time>
      </trkpt>
      <trkpt lat="42.31148" lon="2.23594">
        <ele>1476</ele>
        <time>2010-01-01T02:57:18Z</time>
      </trkpt>
      <trkpt lat="42.31148" lon="2.23597">
        <ele>1477</ele>
        <time>2010-01-01T02:57:19Z</time>
      </trkpt>
      <trkpt lat="42.31149" lon="2.236">
        <ele>1478</ele>
        <time>2010-01-01T02:57:19Z</time>
      </trkpt>
      <trkpt lat="42.31149" lon="2.23603">
        <ele>1479</ele>
        <time>2010-01-01T02:57:20Z</time>
      </trkpt>
      <trkpt lat="42.31149" lon="2.23606">
        <ele>1480</ele>
        <time>2010-01-01T02:57:21Z</time>
      </trkpt>
      <trkpt lat="42.31151" lon="2.23609">
        <ele>1482</ele>
        <time>2010-01-01T02:57:22Z</time>
      </trkpt>
      <trkpt lat="42.31151" lon="2.23612">
        <ele>1483</ele>
        <time>2010-01-01T02:57:23Z</time>
      </trkpt>
      <trkpt lat="42.31152" lon="2.23615">
        <ele>1484</ele>
        <time>2010-01-01T02:57:24Z</time>
      </trkpt>
      <trkpt lat="42.31153" lon="2.23618">
        <ele>1486</ele>
        <time>2010-01-01T02:57:25Z</time>
      </trkpt>
      <trkpt lat="42.31153" lon="2.23621">
        <ele>1487</ele>
        <time>2010-01-01T02:57:26Z</time>
      </trkpt>
      <trkpt lat="42.31154" lon="2.23624">
        <ele>1488</ele>
        <time>2010-01-01T02:57:27Z</time>
      </trkpt>
      <trkpt lat="42.31155" lon="2.23626">
        <ele>1489</ele>
        <time>2010-01-01T02:57:28Z</time>
      </trkpt>
      <trkpt lat="42.31155" lon="2.23632">
        <ele>1490</ele>
        <time>2010-01-01T02:57:29Z</time>
      </trkpt>
      <trkpt lat="42.31155" lon="2.23635">
        <ele>1491</ele>
        <time>2010-01-01T02:57:30Z</time>
      </trkpt>
      <trkpt lat="42.31154" lon="2.23638">
        <ele>1491</ele>
        <time>2010-01-01T02:57:31Z</time>
      </trkpt>
      <trkpt lat="42.31152" lon="2.23641">
        <ele>1491</ele>
        <time>2010-01-01T02:57:32Z</time>
      </trkpt>
      <trkpt lat="42.31151" lon="2.23644">
        <ele>1491</ele>
        <time>2010-01-01T02:57:33Z</time>
      </trkpt>
      <trkpt lat="42.3115" lon="2.23647">
        <ele>1491</ele>
        <time>2010-01-01T02:57:34Z</time>
      </trkpt>
      <trkpt lat="42.3115" lon="2.23649">
        <ele>1491</ele>
        <time>2010-01-01T02:57:35Z</time>
      </trkpt>
      <trkpt lat="42.3115" lon="2.23652">
        <ele>1492</ele>
        <time>2010-01-01T02:57:36Z</time>
      </trkpt>
      <trkpt lat="42.31151" lon="2.23655">
        <ele>1493</ele>
        <time>2010-01-01T02:57:37Z</time>
      </trkpt>
      <trkpt lat="42.31152" lon="2.23658">
        <ele>1493</ele>
        <time>2010-01-01T02:57:38Z</time>
      </trkpt>
      <trkpt lat="42.31153" lon="2.2366">
        <ele>1494</ele>
        <time>2010-01-01T02:57:38Z</time>
      </trkpt>
      <trkpt lat="42.31153" lon="2.23663">
        <ele>1495</ele>
        <time>2010-01-01T02:57:39Z</time>
      </trkpt>
      <trkpt lat="42.31154" lon="2.23666">
        <ele>1496</ele>
        <time>2010-01-01T02:57:40Z</time>
      </trkpt>
      <trkpt lat="42.31155" lon="2.23668">
        <ele>1497</ele>
        <time>2010-01-01T02:57:41Z</time>
      </trkpt>
      <trkpt lat="42.31157" lon="2.2367">
        <ele>1498</ele>
        <time>2010-01-01T02:57:42Z</time>
      </trkpt>
      <trkpt lat="42.31156" lon="2.23677">
        <ele>1499</ele>
        <time>2010-01-01T02:57:44Z</time>
      </trkpt>
      <trkpt lat="42.31154" lon="2.23679">
        <ele>1499</ele>
        <time>2010-01-01T02:57:45Z</time>
      </trkpt>
      <trkpt lat="42.31152" lon="2.23681">
        <ele>1498</ele>
        <time>2010-01-01T02:57:46Z</time>
      </trkpt>
      <trkpt lat="42.3115" lon="2.23683">
        <ele>1498</ele>
        <time>2010-01-01T02:57:47Z</time>
      </trkpt>
      <trkpt lat="42.31148" lon="2.23686">
        <ele>1497</ele>
        <time>2010-01-01T02:57:48Z</time>
      </trkpt>
      <trkpt lat="42.31145" lon="2.23688">
        <ele>1497</ele>
        <time>2010-01-01T02:57:49Z</time>
      </trkpt>
      <trkpt lat="42.31144" lon="2.2369">
        <ele>1497</ele>
        <time>2010-01-01T02:57:50Z</time>
      </trkpt>
      <trkpt lat="42.31142" lon="2.23691">
        <ele>1496</ele>
        <time>2010-01-01T02:57:51Z</time>
      </trkpt>
      <trkpt lat="42.3114" lon="2.23694">
        <ele>1496</ele>
        <time>2010-01-01T02:57:52Z</time>
      </trkpt>
      <trkpt lat="42.31134" lon="2.23699">
        <ele>1496</ele>
        <time>2010-01-01T02:57:55Z</time>
      </trkpt>
      <trkpt lat="42.31133" lon="2.23701">
        <ele>1496</ele>
        <time>2010-01-01T02:57:56Z</time>
      </trkpt>
      <trkpt lat="42.31131" lon="2.23702">
        <ele>1496</ele>
        <time>2010-01-01T02:57:57Z</time>
      </trkpt>
      <trkpt lat="42.31129" lon="2.23704">
        <ele>1496</ele>
        <time>2010-01-01T02:57:57Z</time>
      </trkpt>
      <trkpt lat="42.31127" lon="2.23705">
        <ele>1496</ele>
        <time>2010-01-01T02:57:58Z</time>
      </trkpt>
      <trkpt lat="42.31125" lon="2.23707">
        <ele>1496</ele>
        <time>2010-01-01T02:57:59Z</time>
      </trkpt>
      <trkpt lat="42.31122" lon="2.23709">
        <ele>1496</ele>
        <time>2010-01-01T02:58:00Z</time>
      </trkpt>
      <trkpt lat="42.3112" lon="2.23709">
        <ele>1495</ele>
        <time>2010-01-01T02:58:01Z</time>
      </trkpt>
      <trkpt lat="42.31119" lon="2.2371">
        <ele>1495</ele>
        <time>2010-01-01T02:58:02Z</time>
      </trkpt>
      <trkpt lat="42.31116" lon="2.23711">
        <ele>1495</ele>
        <time>2010-01-01T02:58:03Z</time>
      </trkpt>
      <trkpt lat="42.31114" lon="2.23712">
        <ele>1494</ele>
        <time>2010-01-01T02:58:04Z</time>
      </trkpt>
      <trkpt lat="42.31112" lon="2.23713">
        <ele>1494</ele>
        <time>2010-01-01T02:58:05Z</time>
      </trkpt>
      <trkpt lat="42.3111" lon="2.23715">
        <ele>1494</ele>
        <time>2010-01-01T02:58:06Z</time>
      </trkpt>
      <trkpt lat="42.31108" lon="2.23716">
        <ele>1494</ele>
        <time>2010-01-01T02:58:07Z</time>
      </trkpt>
      <trkpt lat="42.31106" lon="2.23717">
        <ele>1494</ele>
        <time>2010-01-01T02:58:08Z</time>
      </trkpt>
      <trkpt lat="42.31104" lon="2.23719">
        <ele>1494</ele>
        <time>2010-01-01T02:58:08Z</time>
      </trkpt>
      <trkpt lat="42.31103" lon="2.23721">
        <ele>1494</ele>
        <time>2010-01-01T02:58:09Z</time>
      </trkpt>
      <trkpt lat="42.31101" lon="2.23724">
        <ele>1495</ele>
        <time>2010-01-01T02:58:10Z</time>
      </trkpt>
      <trkpt lat="42.311" lon="2.23726">
        <ele>1496</ele>
        <time>2010-01-01T02:58:11Z</time>
      </trkpt>
      <trkpt lat="42.31098" lon="2.23729">
        <ele>1496</ele>
        <time>2010-01-01T02:58:12Z</time>
      </trkpt>
      <trkpt lat="42.31096" lon="2.23731">
        <ele>1496</ele>
        <time>2010-01-01T02:58:13Z</time>
      </trkpt>
      <trkpt lat="42.31095" lon="2.23734">
        <ele>1497</ele>
        <time>2010-01-01T02:58:14Z</time>
      </trkpt>
      <trkpt lat="42.31094" lon="2.23736">
        <ele>1498</ele>
        <time>2010-01-01T02:58:15Z</time>
      </trkpt>
      <trkpt lat="42.31092" lon="2.23739">
        <ele>1498</ele>
        <time>2010-01-01T02:58:16Z</time>
      </trkpt>
      <trkpt lat="42.3109" lon="2.23741">
        <ele>1498</ele>
        <time>2010-01-01T02:58:17Z</time>
      </trkpt>
      <trkpt lat="42.31089" lon="2.23743">
        <ele>1498</ele>
        <time>2010-01-01T02:58:18Z</time>
      </trkpt>
      <trkpt lat="42.31087" lon="2.23745">
        <ele>1499</ele>
        <time>2010-01-01T02:58:19Z</time>
      </trkpt>
      <trkpt lat="42.31086" lon="2.23748">
        <ele>1499</ele>
        <time>2010-01-01T02:58:20Z</time>
      </trkpt>
      <trkpt lat="42.31085" lon="2.23751">
        <ele>1500</ele>
        <time>2010-01-01T02:58:21Z</time>
      </trkpt>
      <trkpt lat="42.31085" lon="2.23754">
        <ele>1500</ele>
        <time>2010-01-01T02:58:22Z</time>
      </trkpt>
      <trkpt lat="42.31085" lon="2.23757">
        <ele>1501</ele>
        <time>2010-01-01T02:58:22Z</time>
      </trkpt>
      <trkpt lat="42.31084" lon="2.23759">
        <ele>1502</ele>
        <time>2010-01-01T02:58:23Z</time>
      </trkpt>
      <trkpt lat="42.31083" lon="2.23762">
        <ele>1502</ele>
        <time>2010-01-01T02:58:24Z</time>
      </trkpt>
      <trkpt lat="42.31082" lon="2.23765">
        <ele>1503</ele>
        <time>2010-01-01T02:58:25Z</time>
      </trkpt>
      <trkpt lat="42.31082" lon="2.23767">
        <ele>1503</ele>
        <time>2010-01-01T02:58:26Z</time>
      </trkpt>
      <trkpt lat="42.31081" lon="2.2377">
        <ele>1504</ele>
        <time>2010-01-01T02:58:26Z</time>
      </trkpt>
      <trkpt lat="42.3108" lon="2.23773">
        <ele>1504</ele>
        <time>2010-01-01T02:58:28Z</time>
      </trkpt>
      <trkpt lat="42.31078" lon="2.23776">
        <ele>1505</ele>
        <time>2010-01-01T02:58:29Z</time>
      </trkpt>
      <trkpt lat="42.31077" lon="2.23779">
        <ele>1505</ele>
        <time>2010-01-01T02:58:30Z</time>
      </trkpt>
      <trkpt lat="42.31076" lon="2.23782">
        <ele>1505</ele>
        <time>2010-01-01T02:58:31Z</time>
      </trkpt>
      <trkpt lat="42.31075" lon="2.23785">
        <ele>1505</ele>
        <time>2010-01-01T02:58:32Z</time>
      </trkpt>
      <trkpt lat="42.31073" lon="2.23787">
        <ele>1505</ele>
        <time>2010-01-01T02:58:33Z</time>
      </trkpt>
      <trkpt lat="42.31071" lon="2.2379">
        <ele>1504</ele>
        <time>2010-01-01T02:58:34Z</time>
      </trkpt>
      <trkpt lat="42.31068" lon="2.23793">
        <ele>1504</ele>
        <time>2010-01-01T02:58:35Z</time>
      </trkpt>
      <trkpt lat="42.31067" lon="2.23797">
        <ele>1504</ele>
        <time>2010-01-01T02:58:36Z</time>
      </trkpt>
      <trkpt lat="42.31066" lon="2.238">
        <ele>1504</ele>
        <time>2010-01-01T02:58:37Z</time>
      </trkpt>
      <trkpt lat="42.31066" lon="2.23803">
        <ele>1505</ele>
        <time>2010-01-01T02:58:38Z</time>
      </trkpt>
      <trkpt lat="42.31066" lon="2.2381">
        <ele>1506</ele>
        <time>2010-01-01T02:58:40Z</time>
      </trkpt>
      <trkpt lat="42.31066" lon="2.23812">
        <ele>1506</ele>
        <time>2010-01-01T02:58:41Z</time>
      </trkpt>
      <trkpt lat="42.31066" lon="2.23815">
        <ele>1506</ele>
        <time>2010-01-01T02:58:42Z</time>
      </trkpt>
      <trkpt lat="42.31067" lon="2.23818">
        <ele>1507</ele>
        <time>2010-01-01T02:58:43Z</time>
      </trkpt>
      <trkpt lat="42.31068" lon="2.23821">
        <ele>1508</ele>
        <time>2010-01-01T02:58:44Z</time>
      </trkpt>
      <trkpt lat="42.31069" lon="2.23824">
        <ele>1509</ele>
        <time>2010-01-01T02:58:45Z</time>
      </trkpt>
      <trkpt lat="42.3107" lon="2.23826">
        <ele>1509</ele>
        <time>2010-01-01T02:58:46Z</time>
      </trkpt>
      <trkpt lat="42.31071" lon="2.23829">
        <ele>1510</ele>
        <time>2010-01-01T02:58:47Z</time>
      </trkpt>
      <trkpt lat="42.31073" lon="2.23831">
        <ele>1510</ele>
        <time>2010-01-01T02:58:47Z</time>
      </trkpt>
      <trkpt lat="42.31075" lon="2.23834">
        <ele>1511</ele>
        <time>2010-01-01T02:58:49Z</time>
      </trkpt>
      <trkpt lat="42.31077" lon="2.23837">
        <ele>1512</ele>
        <time>2010-01-01T02:58:50Z</time>
      </trkpt>
      <trkpt lat="42.31079" lon="2.23839">
        <ele>1512</ele>
        <time>2010-01-01T02:58:51Z</time>
      </trkpt>
      <trkpt lat="42.31081" lon="2.23841">
        <ele>1513</ele>
        <time>2010-01-01T02:58:52Z</time>
      </trkpt>
      <trkpt lat="42.31083" lon="2.23843">
        <ele>1513</ele>
        <time>2010-01-01T02:58:53Z</time>
      </trkpt>
      <trkpt lat="42.31085" lon="2.23846">
        <ele>1513</ele>
        <time>2010-01-01T02:58:54Z</time>
      </trkpt>
      <trkpt lat="42.31087" lon="2.23849">
        <ele>1514</ele>
        <time>2010-01-01T02:58:55Z</time>
      </trkpt>
      <trkpt lat="42.31088" lon="2.23851">
        <ele>1514</ele>
        <time>2010-01-01T02:58:56Z</time>
      </trkpt>
      <trkpt lat="42.3109" lon="2.23853">
        <ele>1514</ele>
        <time>2010-01-01T02:58:57Z</time>
      </trkpt>
      <trkpt lat="42.31091" lon="2.23855">
        <ele>1514</ele>
        <time>2010-01-01T02:58:58Z</time>
      </trkpt>
      <trkpt lat="42.31092" lon="2.23857">
        <ele>1514</ele>
        <time>2010-01-01T02:58:58Z</time>
      </trkpt>
      <trkpt lat="42.31094" lon="2.2386">
        <ele>1513</ele>
        <time>2010-01-01T02:59:00Z</time>
      </trkpt>
      <trkpt lat="42.31096" lon="2.23863">
        <ele>1513</ele>
        <time>2010-01-01T02:59:01Z</time>
      </trkpt>
      <trkpt lat="42.31097" lon="2.23865">
        <ele>1513</ele>
        <time>2010-01-01T02:59:01Z</time>
      </trkpt>
      <trkpt lat="42.31099" lon="2.23867">
        <ele>1513</ele>
        <time>2010-01-01T02:59:02Z</time>
      </trkpt>
      <trkpt lat="42.31101" lon="2.23869">
        <ele>1512</ele>
        <time>2010-01-01T02:59:03Z</time>
      </trkpt>
      <trkpt lat="42.31102" lon="2.23871">
        <ele>1512</ele>
        <time>2010-01-01T02:59:04Z</time>
      </trkpt>
      <trkpt lat="42.31104" lon="2.23874">
        <ele>1512</ele>
        <time>2010-01-01T02:59:05Z</time>
      </trkpt>
      <trkpt lat="42.31106" lon="2.23876">
        <ele>1511</ele>
        <time>2010-01-01T02:59:06Z</time>
      </trkpt>
      <trkpt lat="42.31109" lon="2.23877">
        <ele>1512</ele>
        <time>2010-01-01T02:59:07Z</time>
      </trkpt>
      <trkpt lat="42.31111" lon="2.23877">
        <ele>1512</ele>
        <time>2010-01-01T02:59:08Z</time>
      </trkpt>
      <trkpt lat="42.31114" lon="2.23879">
        <ele>1512</ele>
        <time>2010-01-01T02:59:10Z</time>
      </trkpt>
      <trkpt lat="42.31117" lon="2.2388">
        <ele>1512</ele>
        <time>2010-01-01T02:59:11Z</time>
      </trkpt>
      <trkpt lat="42.31119" lon="2.23882">
        <ele>1512</ele>
        <time>2010-01-01T02:59:12Z</time>
      </trkpt>
      <trkpt lat="42.31121" lon="2.23884">
        <ele>1512</ele>
        <time>2010-01-01T02:59:13Z</time>
      </trkpt>
      <trkpt lat="42.31123" lon="2.23885">
        <ele>1512</ele>
        <time>2010-01-01T02:59:14Z</time>
      </trkpt>
      <trkpt lat="42.31126" lon="2.23886">
        <ele>1512</ele>
        <time>2010-01-01T02:59:15Z</time>
      </trkpt>
      <trkpt lat="42.31128" lon="2.23886">
        <ele>1512</ele>
        <time>2010-01-01T02:59:16Z</time>
      </trkpt>
      <trkpt lat="42.31131" lon="2.23886">
        <ele>1512</ele>
        <time>2010-01-01T02:59:17Z</time>
      </trkpt>
      <trkpt lat="42.31133" lon="2.23886">
        <ele>1513</ele>
        <time>2010-01-01T02:59:18Z</time>
      </trkpt>
      <trkpt lat="42.31136" lon="2.23888">
        <ele>1513</ele>
        <time>2010-01-01T02:59:19Z</time>
      </trkpt>
      <trkpt lat="42.31138" lon="2.23889">
        <ele>1512</ele>
        <time>2010-01-01T02:59:20Z</time>
      </trkpt>
      <trkpt lat="42.3114" lon="2.23889">
        <ele>1513</ele>
        <time>2010-01-01T02:59:21Z</time>
      </trkpt>
      <trkpt lat="42.31142" lon="2.2389">
        <ele>1513</ele>
        <time>2010-01-01T02:59:22Z</time>
      </trkpt>
      <trkpt lat="42.31145" lon="2.2389">
        <ele>1514</ele>
        <time>2010-01-01T02:59:23Z</time>
      </trkpt>
      <trkpt lat="42.31148" lon="2.23891">
        <ele>1515</ele>
        <time>2010-01-01T02:59:24Z</time>
      </trkpt>
      <trkpt lat="42.3115" lon="2.23891">
        <ele>1515</ele>
        <time>2010-01-01T02:59:25Z</time>
      </trkpt>
      <trkpt lat="42.31153" lon="2.23892">
        <ele>1516</ele>
        <time>2010-01-01T02:59:26Z</time>
      </trkpt>
      <trkpt lat="42.31157" lon="2.23895">
        <ele>1516</ele>
        <time>2010-01-01T02:59:28Z</time>
      </trkpt>
      <trkpt lat="42.31159" lon="2.23896">
        <ele>1517</ele>
        <time>2010-01-01T02:59:29Z</time>
      </trkpt>
      <trkpt lat="42.31162" lon="2.23896">
        <ele>1517</ele>
        <time>2010-01-01T02:59:30Z</time>
      </trkpt>
      <trkpt lat="42.31165" lon="2.23897">
        <ele>1518</ele>
        <time>2010-01-01T02:59:31Z</time>
      </trkpt>
      <trkpt lat="42.31167" lon="2.23898">
        <ele>1519</ele>
        <time>2010-01-01T02:59:32Z</time>
      </trkpt>
      <trkpt lat="42.31169" lon="2.23899">
        <ele>1519</ele>
        <time>2010-01-01T02:59:33Z</time>
      </trkpt>
      <trkpt lat="42.31171" lon="2.23901">
        <ele>1519</ele>
        <time>2010-01-01T02:59:34Z</time>
      </trkpt>
      <trkpt lat="42.31173" lon="2.23904">
        <ele>1520</ele>
        <time>2010-01-01T02:59:35Z</time>
      </trkpt>
      <trkpt lat="42.31175" lon="2.23907">
        <ele>1520</ele>
        <time>2010-01-01T02:59:36Z</time>
      </trkpt>
      <trkpt lat="42.31177" lon="2.23908">
        <ele>1520</ele>
        <time>2010-01-01T02:59:37Z</time>
      </trkpt>
      <trkpt lat="42.31182" lon="2.23911">
        <ele>1521</ele>
        <time>2010-01-01T02:59:39Z</time>
      </trkpt>
      <trkpt lat="42.31184" lon="2.23912">
        <ele>1522</ele>
        <time>2010-01-01T02:59:40Z</time>
      </trkpt>
      <trkpt lat="42.31186" lon="2.23914">
        <ele>1522</ele>
        <time>2010-01-01T02:59:41Z</time>
      </trkpt>
      <trkpt lat="42.3119" lon="2.23917">
        <ele>1522</ele>
        <time>2010-01-01T02:59:43Z</time>
      </trkpt>
      <trkpt lat="42.31192" lon="2.23918">
        <ele>1523</ele>
        <time>2010-01-01T02:59:44Z</time>
      </trkpt>
      <trkpt lat="42.31194" lon="2.23918">
        <ele>1523</ele>
        <time>2010-01-01T02:59:44Z</time>
      </trkpt>
      <trkpt lat="42.31196" lon="2.23919">
        <ele>1523</ele>
        <time>2010-01-01T02:59:45Z</time>
      </trkpt>
      <trkpt lat="42.31199" lon="2.2392">
        <ele>1524</ele>
        <time>2010-01-01T02:59:46Z</time>
      </trkpt>
      <trkpt lat="42.31202" lon="2.23921">
        <ele>1525</ele>
        <time>2010-01-01T02:59:48Z</time>
      </trkpt>
      <trkpt lat="42.31204" lon="2.23925">
        <ele>1524</ele>
        <time>2010-01-01T02:59:49Z</time>
      </trkpt>
      <trkpt lat="42.31205" lon="2.23927">
        <ele>1524</ele>
        <time>2010-01-01T02:59:50Z</time>
      </trkpt>
      <trkpt lat="42.31208" lon="2.2393">
        <ele>1524</ele>
        <time>2010-01-01T02:59:51Z</time>
      </trkpt>
      <trkpt lat="42.31209" lon="2.23933">
        <ele>1524</ele>
        <time>2010-01-01T02:59:52Z</time>
      </trkpt>
      <trkpt lat="42.31211" lon="2.23935">
        <ele>1524</ele>
        <time>2010-01-01T02:59:53Z</time>
      </trkpt>
      <trkpt lat="42.31212" lon="2.23937">
        <ele>1524</ele>
        <time>2010-01-01T02:59:54Z</time>
      </trkpt>
      <trkpt lat="42.31214" lon="2.2394">
        <ele>1523</ele>
        <time>2010-01-01T02:59:55Z</time>
      </trkpt>
      <trkpt lat="42.31216" lon="2.23944">
        <ele>1523</ele>
        <time>2010-01-01T02:59:57Z</time>
      </trkpt>
      <trkpt lat="42.31218" lon="2.23946">
        <ele>1523</ele>
        <time>2010-01-01T02:59:58Z</time>
      </trkpt>
      <trkpt lat="42.31221" lon="2.23948">
        <ele>1523</ele>
        <time>2010-01-01T02:59:59Z</time>
      </trkpt>
      <trkpt lat="42.31222" lon="2.23951">
        <ele>1523</ele>
        <time>2010-01-01T03:00:00Z</time>
      </trkpt>
      <trkpt lat="42.31224" lon="2.23954">
        <ele>1522</ele>
        <time>2010-01-01T03:00:01Z</time>
      </trkpt>
      <trkpt lat="42.31225" lon="2.23956">
        <ele>1522</ele>
        <time>2010-01-01T03:00:02Z</time>
      </trkpt>
      <trkpt lat="42.31226" lon="2.2396">
        <ele>1521</ele>
        <time>2010-01-01T03:00:03Z</time>
      </trkpt>
      <trkpt lat="42.31228" lon="2.23962">
        <ele>1521</ele>
        <time>2010-01-01T03:00:04Z</time>
      </trkpt>
      <trkpt lat="42.3123" lon="2.23966">
        <ele>1521</ele>
        <time>2010-01-01T03:00:05Z</time>
      </trkpt>
      <trkpt lat="42.31231" lon="2.23969">
        <ele>1521</ele>
        <time>2010-01-01T03:00:06Z</time>
      </trkpt>
      <trkpt lat="42.31232" lon="2.23972">
        <ele>1521</ele>
        <time>2010-01-01T03:00:07Z</time>
      </trkpt>
      <trkpt lat="42.31233" lon="2.23975">
        <ele>1521</ele>
        <time>2010-01-01T03:00:09Z</time>
      </trkpt>
      <trkpt lat="42.31235" lon="2.23978">
        <ele>1521</ele>
        <time>2010-01-01T03:00:10Z</time>
      </trkpt>
      <trkpt lat="42.31236" lon="2.23982">
        <ele>1521</ele>
        <time>2010-01-01T03:00:11Z</time>
      </trkpt>
      <trkpt lat="42.31237" lon="2.23985">
        <ele>1521</ele>
        <time>2010-01-01T03:00:12Z</time>
      </trkpt>
      <trkpt lat="42.31238" lon="2.23992">
        <ele>1521</ele>
        <time>2010-01-01T03:00:14Z</time>
      </trkpt>
      <trkpt lat="42.31239" lon="2.23995">
        <ele>1522</ele>
        <time>2010-01-01T03:00:15Z</time>
      </trkpt>
      <trkpt lat="42.31241" lon="2.23997">
        <ele>1522</ele>
        <time>2010-01-01T03:00:16Z</time>
      </trkpt>
      <trkpt lat="42.31242" lon="2.24">
        <ele>1523</ele>
        <time>2010-01-01T03:00:17Z</time>
      </trkpt>
      <trkpt lat="42.31242" lon="2.24003">
        <ele>1522</ele>
        <time>2010-01-01T03:00:18Z</time>
      </trkpt>
      <trkpt lat="42.31244" lon="2.24006">
        <ele>1523</ele>
        <time>2010-01-01T03:00:19Z</time>
      </trkpt>
      <trkpt lat="42.31246" lon="2.24009">
        <ele>1523</ele>
        <time>2010-01-01T03:00:20Z</time>
      </trkpt>
      <trkpt lat="42.31248" lon="2.24011">
        <ele>1524</ele>
        <time>2010-01-01T03:00:21Z</time>
      </trkpt>
      <trkpt lat="42.31249" lon="2.24013">
        <ele>1524</ele>
        <time>2010-01-01T03:00:22Z</time>
      </trkpt>
      <trkpt lat="42.31251" lon="2.24014">
        <ele>1524</ele>
        <time>2010-01-01T03:00:23Z</time>
      </trkpt>
      <trkpt lat="42.31254" lon="2.24016">
        <ele>1526</ele>
        <time>2010-01-01T03:00:24Z</time>
      </trkpt>
      <trkpt lat="42.31256" lon="2.24017">
        <ele>1527</ele>
        <time>2010-01-01T03:00:25Z</time>
      </trkpt>
      <trkpt lat="42.31258" lon="2.2402">
        <ele>1527</ele>
        <time>2010-01-01T03:00:26Z</time>
      </trkpt>
      <trkpt lat="42.31259" lon="2.24023">
        <ele>1528</ele>
        <time>2010-01-01T03:00:27Z</time>
      </trkpt>
      <trkpt lat="42.31261" lon="2.24025">
        <ele>1528</ele>
        <time>2010-01-01T03:00:28Z</time>
      </trkpt>
      <trkpt lat="42.31264" lon="2.24027">
        <ele>1529</ele>
        <time>2010-01-01T03:00:29Z</time>
      </trkpt>
      <trkpt lat="42.31265" lon="2.24029">
        <ele>1529</ele>
        <time>2010-01-01T03:00:30Z</time>
      </trkpt>
      <trkpt lat="42.31267" lon="2.24031">
        <ele>1530</ele>
        <time>2010-01-01T03:00:31Z</time>
      </trkpt>
      <trkpt lat="42.31269" lon="2.24034">
        <ele>1530</ele>
        <time>2010-01-01T03:00:32Z</time>
      </trkpt>
      <trkpt lat="42.31271" lon="2.24037">
        <ele>1530</ele>
        <time>2010-01-01T03:00:33Z</time>
      </trkpt>
      <trkpt lat="42.31272" lon="2.2404">
        <ele>1530</ele>
        <time>2010-01-01T03:00:34Z</time>
      </trkpt>
      <trkpt lat="42.31273" lon="2.24044">
        <ele>1530</ele>
        <time>2010-01-01T03:00:35Z</time>
      </trkpt>
      <trkpt lat="42.31274" lon="2.24047">
        <ele>1529</ele>
        <time>2010-01-01T03:00:36Z</time>
      </trkpt>
      <trkpt lat="42.31275" lon="2.24051">
        <ele>1529</ele>
        <time>2010-01-01T03:00:38Z</time>
      </trkpt>
      <trkpt lat="42.31277" lon="2.24055">
        <ele>1529</ele>
        <time>2010-01-01T03:00:39Z</time>
      </trkpt>
      <trkpt lat="42.31278" lon="2.24057">
        <ele>1529</ele>
        <time>2010-01-01T03:00:40Z</time>
      </trkpt>
      <trkpt lat="42.3128" lon="2.24059">
        <ele>1530</ele>
        <time>2010-01-01T03:00:41Z</time>
      </trkpt>
      <trkpt lat="42.31282" lon="2.2406">
        <ele>1530</ele>
        <time>2010-01-01T03:00:42Z</time>
      </trkpt>
      <trkpt lat="42.31283" lon="2.24063">
        <ele>1530</ele>
        <time>2010-01-01T03:00:42Z</time>
      </trkpt>
      <trkpt lat="42.31285" lon="2.24065">
        <ele>1531</ele>
        <time>2010-01-01T03:00:43Z</time>
      </trkpt>
      <trkpt lat="42.31286" lon="2.24067">
        <ele>1531</ele>
        <time>2010-01-01T03:00:44Z</time>
      </trkpt>
      <trkpt lat="42.31288" lon="2.24069">
        <ele>1531</ele>
        <time>2010-01-01T03:00:45Z</time>
      </trkpt>
      <trkpt lat="42.3129" lon="2.24071">
        <ele>1532</ele>
        <time>2010-01-01T03:00:46Z</time>
      </trkpt>
      <trkpt lat="42.31293" lon="2.24073">
        <ele>1532</ele>
        <time>2010-01-01T03:00:47Z</time>
      </trkpt>
      <trkpt lat="42.31295" lon="2.24076">
        <ele>1532</ele>
        <time>2010-01-01T03:00:49Z</time>
      </trkpt>
      <trkpt lat="42.31296" lon="2.24079">
        <ele>1532</ele>
        <time>2010-01-01T03:00:50Z</time>
      </trkpt>
      <trkpt lat="42.31298" lon="2.24081">
        <ele>1533</ele>
        <time>2010-01-01T03:00:51Z</time>
      </trkpt>
      <trkpt lat="42.31301" lon="2.24083">
        <ele>1534</ele>
        <time>2010-01-01T03:00:52Z</time>
      </trkpt>
      <trkpt lat="42.31303" lon="2.24085">
        <ele>1534</ele>
        <time>2010-01-01T03:00:53Z</time>
      </trkpt>
      <trkpt lat="42.31305" lon="2.24087">
        <ele>1535</ele>
        <time>2010-01-01T03:00:54Z</time>
      </trkpt>
      <trkpt lat="42.31308" lon="2.24088">
        <ele>1536</ele>
        <time>2010-01-01T03:00:55Z</time>
      </trkpt>
      <trkpt lat="42.31311" lon="2.24089">
        <ele>1536</ele>
        <time>2010-01-01T03:00:56Z</time>
      </trkpt>
      <trkpt lat="42.31313" lon="2.24091">
        <ele>1537</ele>
        <time>2010-01-01T03:00:57Z</time>
      </trkpt>
      <trkpt lat="42.31315" lon="2.24092">
        <ele>1537</ele>
        <time>2010-01-01T03:00:58Z</time>
      </trkpt>
      <trkpt lat="42.31317" lon="2.24093">
        <ele>1538</ele>
        <time>2010-01-01T03:00:59Z</time>
      </trkpt>
      <trkpt lat="42.31318" lon="2.24096">
        <ele>1538</ele>
        <time>2010-01-01T03:01:00Z</time>
      </trkpt>
      <trkpt lat="42.31321" lon="2.24098">
        <ele>1538</ele>
        <time>2010-01-01T03:01:01Z</time>
      </trkpt>
      <trkpt lat="42.31323" lon="2.24101">
        <ele>1538</ele>
        <time>2010-01-01T03:01:02Z</time>
      </trkpt>
      <trkpt lat="42.31325" lon="2.24103">
        <ele>1538</ele>
        <time>2010-01-01T03:01:03Z</time>
      </trkpt>
      <trkpt lat="42.31327" lon="2.24105">
        <ele>1538</ele>
        <time>2010-01-01T03:01:05Z</time>
      </trkpt>
      <trkpt lat="42.31329" lon="2.24108">
        <ele>1538</ele>
        <time>2010-01-01T03:01:06Z</time>
      </trkpt>
      <trkpt lat="42.31331" lon="2.2411">
        <ele>1538</ele>
        <time>2010-01-01T03:01:07Z</time>
      </trkpt>
      <trkpt lat="42.31334" lon="2.24113">
        <ele>1538</ele>
        <time>2010-01-01T03:01:08Z</time>
      </trkpt>
      <trkpt lat="42.31335" lon="2.24116">
        <ele>1537</ele>
        <time>2010-01-01T03:01:09Z</time>
      </trkpt>
      <trkpt lat="42.31337" lon="2.24119">
        <ele>1537</ele>
        <time>2010-01-01T03:01:10Z</time>
      </trkpt>
      <trkpt lat="42.31338" lon="2.24122">
        <ele>1536</ele>
        <time>2010-01-01T03:01:11Z</time>
      </trkpt>
      <trkpt lat="42.3134" lon="2.24124">
        <ele>1536</ele>
        <time>2010-01-01T03:01:12Z</time>
      </trkpt>
      <trkpt lat="42.31343" lon="2.24125">
        <ele>1536</ele>
        <time>2010-01-01T03:01:14Z</time>
      </trkpt>
      <trkpt lat="42.31346" lon="2.24125">
        <ele>1536</ele>
        <time>2010-01-01T03:01:15Z</time>
      </trkpt>
      <trkpt lat="42.31348" lon="2.24125">
        <ele>1536</ele>
        <time>2010-01-01T03:01:16Z</time>
      </trkpt>
      <trkpt lat="42.3135" lon="2.24126">
        <ele>1536</ele>
        <time>2010-01-01T03:01:17Z</time>
      </trkpt>
      <trkpt lat="42.31352" lon="2.24127">
        <ele>1536</ele>
        <time>2010-01-01T03:01:17Z</time>
      </trkpt>
      <trkpt lat="42.31354" lon="2.24128">
        <ele>1536</ele>
        <time>2010-01-01T03:01:18Z</time>
      </trkpt>
      <trkpt lat="42.31356" lon="2.24129">
        <ele>1536</ele>
        <time>2010-01-01T03:01:19Z</time>
      </trkpt>
      <trkpt lat="42.31359" lon="2.2413">
        <ele>1536</ele>
        <time>2010-01-01T03:01:20Z</time>
      </trkpt>
      <trkpt lat="42.31361" lon="2.2413">
        <ele>1537</ele>
        <time>2010-01-01T03:01:21Z</time>
      </trkpt>
      <trkpt lat="42.31364" lon="2.2413">
        <ele>1537</ele>
        <time>2010-01-01T03:01:22Z</time>
      </trkpt>
      <trkpt lat="42.31366" lon="2.2413">
        <ele>1538</ele>
        <time>2010-01-01T03:01:23Z</time>
      </trkpt>
      <trkpt lat="42.31368" lon="2.2413">
        <ele>1538</ele>
        <time>2010-01-01T03:01:24Z</time>
      </trkpt>
      <trkpt lat="42.3137" lon="2.24129">
        <ele>1539</ele>
        <time>2010-01-01T03:01:25Z</time>
      </trkpt>
      <trkpt lat="42.31372" lon="2.24129">
        <ele>1539</ele>
        <time>2010-01-01T03:01:25Z</time>
      </trkpt>
      <trkpt lat="42.31375" lon="2.24129">
        <ele>1540</ele>
        <time>2010-01-01T03:01:26Z</time>
      </trkpt>
      <trkpt lat="42.31377" lon="2.24128">
        <ele>1541</ele>
        <time>2010-01-01T03:01:28Z</time>
      </trkpt>
      <trkpt lat="42.31379" lon="2.24127">
        <ele>1541</ele>
        <time>2010-01-01T03:01:28Z</time>
      </trkpt>
      <trkpt lat="42.31382" lon="2.24126">
        <ele>1542</ele>
        <time>2010-01-01T03:01:29Z</time>
      </trkpt>
      <trkpt lat="42.31384" lon="2.24125">
        <ele>1542</ele>
        <time>2010-01-01T03:01:30Z</time>
      </trkpt>
      <trkpt lat="42.31386" lon="2.24125">
        <ele>1543</ele>
        <time>2010-01-01T03:01:31Z</time>
      </trkpt>
      <trkpt lat="42.31388" lon="2.24125">
        <ele>1543</ele>
        <time>2010-01-01T03:01:32Z</time>
      </trkpt>
      <trkpt lat="42.3139" lon="2.24124">
        <ele>1544</ele>
        <time>2010-01-01T03:01:33Z</time>
      </trkpt>
      <trkpt lat="42.31392" lon="2.24123">
        <ele>1545</ele>
        <time>2010-01-01T03:01:34Z</time>
      </trkpt>
      <trkpt lat="42.31394" lon="2.24121">
        <ele>1546</ele>
        <time>2010-01-01T03:01:35Z</time>
      </trkpt>
      <trkpt lat="42.31396" lon="2.24119">
        <ele>1547</ele>
        <time>2010-01-01T03:01:36Z</time>
      </trkpt>
      <trkpt lat="42.31397" lon="2.24116">
        <ele>1547</ele>
        <time>2010-01-01T03:01:37Z</time>
      </trkpt>
      <trkpt lat="42.31399" lon="2.24114">
        <ele>1548</ele>
        <time>2010-01-01T03:01:38Z</time>
      </trkpt>
      <trkpt lat="42.314" lon="2.24111">
        <ele>1549</ele>
        <time>2010-01-01T03:01:38Z</time>
      </trkpt>
      <trkpt lat="42.314" lon="2.24108">
        <ele>1550</ele>
        <time>2010-01-01T03:01:39Z</time>
      </trkpt>
      <trkpt lat="42.314" lon="2.24106">
        <ele>1551</ele>
        <time>2010-01-01T03:01:40Z</time>
      </trkpt>
      <trkpt lat="42.31399" lon="2.24103">
        <ele>1551</ele>
        <time>2010-01-01T03:01:41Z</time>
      </trkpt>
      <trkpt lat="42.31399" lon="2.241">
        <ele>1552</ele>
        <time>2010-01-01T03:01:42Z</time>
      </trkpt>
      <trkpt lat="42.31398" lon="2.24097">
        <ele>1552</ele>
        <time>2010-01-01T03:01:43Z</time>
      </trkpt>
      <trkpt lat="42.31397" lon="2.24095">
        <ele>1553</ele>
        <time>2010-01-01T03:01:43Z</time>
      </trkpt>
      <trkpt lat="42.31396" lon="2.24092">
        <ele>1553</ele>
        <time>2010-01-01T03:01:44Z</time>
      </trkpt>
      <trkpt lat="42.31395" lon="2.24089">
        <ele>1554</ele>
        <time>2010-01-01T03:01:45Z</time>
      </trkpt>
      <trkpt lat="42.31394" lon="2.24086">
        <ele>1554</ele>
        <time>2010-01-01T03:01:46Z</time>
      </trkpt>
      <trkpt lat="42.31393" lon="2.24083">
        <ele>1555</ele>
        <time>2010-01-01T03:01:47Z</time>
      </trkpt>
      <trkpt lat="42.31392" lon="2.2408">
        <ele>1555</ele>
        <time>2010-01-01T03:01:48Z</time>
      </trkpt>
      <trkpt lat="42.31391" lon="2.24077">
        <ele>1556</ele>
        <time>2010-01-01T03:01:49Z</time>
      </trkpt>
      <trkpt lat="42.31389" lon="2.24076">
        <ele>1556</ele>
        <time>2010-01-01T03:01:50Z</time>
      </trkpt>
      <trkpt lat="42.31388" lon="2.24073">
        <ele>1556</ele>
        <time>2010-01-01T03:01:51Z</time>
      </trkpt>
      <trkpt lat="42.31387" lon="2.24072">
        <ele>1556</ele>
        <time>2010-01-01T03:01:51Z</time>
      </trkpt>
      <trkpt lat="42.31386" lon="2.2407">
        <ele>1556</ele>
        <time>2010-01-01T03:01:52Z</time>
      </trkpt>
      <trkpt lat="42.31384" lon="2.24068">
        <ele>1556</ele>
        <time>2010-01-01T03:01:53Z</time>
      </trkpt>
      <trkpt lat="42.31383" lon="2.24066">
        <ele>1556</ele>
        <time>2010-01-01T03:01:54Z</time>
      </trkpt>
      <trkpt lat="42.31381" lon="2.24063">
        <ele>1556</ele>
        <time>2010-01-01T03:01:55Z</time>
      </trkpt>
      <trkpt lat="42.3138" lon="2.24061">
        <ele>1557</ele>
        <time>2010-01-01T03:01:56Z</time>
      </trkpt>
      <trkpt lat="42.31379" lon="2.24059">
        <ele>1557</ele>
        <time>2010-01-01T03:01:57Z</time>
      </trkpt>
      <trkpt lat="42.31377" lon="2.24057">
        <ele>1557</ele>
        <time>2010-01-01T03:01:57Z</time>
      </trkpt>
      <trkpt lat="42.31375" lon="2.24055">
        <ele>1557</ele>
        <time>2010-01-01T03:01:58Z</time>
      </trkpt>
      <trkpt lat="42.31374" lon="2.24053">
        <ele>1557</ele>
        <time>2010-01-01T03:01:59Z</time>
      </trkpt>
      <trkpt lat="42.31373" lon="2.2405">
        <ele>1558</ele>
        <time>2010-01-01T03:02:00Z</time>
      </trkpt>
      <trkpt lat="42.31372" lon="2.24048">
        <ele>1558</ele>
        <time>2010-01-01T03:02:01Z</time>
      </trkpt>
      <trkpt lat="42.3137" lon="2.24047">
        <ele>1558</ele>
        <time>2010-01-01T03:02:02Z</time>
      </trkpt>
      <trkpt lat="42.31369" lon="2.24045">
        <ele>1558</ele>
        <time>2010-01-01T03:02:02Z</time>
      </trkpt>
      <trkpt lat="42.31367" lon="2.24042">
        <ele>1558</ele>
        <time>2010-01-01T03:02:03Z</time>
      </trkpt>
      <trkpt lat="42.31366" lon="2.2404">
        <ele>1559</ele>
        <time>2010-01-01T03:02:04Z</time>
      </trkpt>
      <trkpt lat="42.31365" lon="2.24039">
        <ele>1559</ele>
        <time>2010-01-01T03:02:05Z</time>
      </trkpt>
      <trkpt lat="42.31364" lon="2.24036">
        <ele>1559</ele>
        <time>2010-01-01T03:02:06Z</time>
      </trkpt>
      <trkpt lat="42.31363" lon="2.24034">
        <ele>1560</ele>
        <time>2010-01-01T03:02:06Z</time>
      </trkpt>
      <trkpt lat="42.31363" lon="2.2403">
        <ele>1560</ele>
        <time>2010-01-01T03:02:07Z</time>
      </trkpt>
      <trkpt lat="42.31364" lon="2.24028">
        <ele>1561</ele>
        <time>2010-01-01T03:02:08Z</time>
      </trkpt>
      <trkpt lat="42.31365" lon="2.24025">
        <ele>1561</ele>
        <time>2010-01-01T03:02:09Z</time>
      </trkpt>
      <trkpt lat="42.31365" lon="2.24023">
        <ele>1562</ele>
        <time>2010-01-01T03:02:10Z</time>
      </trkpt>
      <trkpt lat="42.31366" lon="2.2402">
        <ele>1563</ele>
        <time>2010-01-01T03:02:11Z</time>
      </trkpt>
      <trkpt lat="42.31366" lon="2.24017">
        <ele>1564</ele>
        <time>2010-01-01T03:02:12Z</time>
      </trkpt>
      <trkpt lat="42.31367" lon="2.24015">
        <ele>1564</ele>
        <time>2010-01-01T03:02:12Z</time>
      </trkpt>
      <trkpt lat="42.31367" lon="2.24012">
        <ele>1565</ele>
        <time>2010-01-01T03:02:13Z</time>
      </trkpt>
      <trkpt lat="42.31366" lon="2.24008">
        <ele>1566</ele>
        <time>2010-01-01T03:02:14Z</time>
      </trkpt>
      <trkpt lat="42.31367" lon="2.24005">
        <ele>1567</ele>
        <time>2010-01-01T03:02:15Z</time>
      </trkpt>
      <trkpt lat="42.31367" lon="2.23999">
        <ele>1568</ele>
        <time>2010-01-01T03:02:17Z</time>
      </trkpt>
      <trkpt lat="42.31368" lon="2.23997">
        <ele>1569</ele>
        <time>2010-01-01T03:02:18Z</time>
      </trkpt>
      <trkpt lat="42.31369" lon="2.23995">
        <ele>1569</ele>
        <time>2010-01-01T03:02:18Z</time>
      </trkpt>
      <trkpt lat="42.3137" lon="2.23992">
        <ele>1570</ele>
        <time>2010-01-01T03:02:19Z</time>
      </trkpt>
      <trkpt lat="42.31371" lon="2.2399">
        <ele>1571</ele>
        <time>2010-01-01T03:02:20Z</time>
      </trkpt>
      <trkpt lat="42.31373" lon="2.23987">
        <ele>1571</ele>
        <time>2010-01-01T03:02:21Z</time>
      </trkpt>
      <trkpt lat="42.31375" lon="2.23985">
        <ele>1572</ele>
        <time>2010-01-01T03:02:22Z</time>
      </trkpt>
      <trkpt lat="42.31377" lon="2.23983">
        <ele>1573</ele>
        <time>2010-01-01T03:02:23Z</time>
      </trkpt>
      <trkpt lat="42.31378" lon="2.23981">
        <ele>1574</ele>
        <time>2010-01-01T03:02:24Z</time>
      </trkpt>
      <trkpt lat="42.31379" lon="2.23978">
        <ele>1574</ele>
        <time>2010-01-01T03:02:25Z</time>
      </trkpt>
      <trkpt lat="42.3138" lon="2.23976">
        <ele>1575</ele>
        <time>2010-01-01T03:02:26Z</time>
      </trkpt>
      <trkpt lat="42.31381" lon="2.23974">
        <ele>1576</ele>
        <time>2010-01-01T03:02:26Z</time>
      </trkpt>
      <trkpt lat="42.31381" lon="2.23971">
        <ele>1576</ele>
        <time>2010-01-01T03:02:27Z</time>
      </trkpt>
      <trkpt lat="42.31381" lon="2.23969">
        <ele>1577</ele>
        <time>2010-01-01T03:02:28Z</time>
      </trkpt>
      <trkpt lat="42.31382" lon="2.23965">
        <ele>1578</ele>
        <time>2010-01-01T03:02:29Z</time>
      </trkpt>
      <trkpt lat="42.31383" lon="2.23962">
        <ele>1579</ele>
        <time>2010-01-01T03:02:30Z</time>
      </trkpt>
      <trkpt lat="42.31385" lon="2.2396">
        <ele>1580</ele>
        <time>2010-01-01T03:02:31Z</time>
      </trkpt>
      <trkpt lat="42.31386" lon="2.23957">
        <ele>1580</ele>
        <time>2010-01-01T03:02:32Z</time>
      </trkpt>
      <trkpt lat="42.31387" lon="2.23955">
        <ele>1581</ele>
        <time>2010-01-01T03:02:33Z</time>
      </trkpt>
      <trkpt lat="42.31388" lon="2.23952">
        <ele>1582</ele>
        <time>2010-01-01T03:02:33Z</time>
      </trkpt>
      <trkpt lat="42.31387" lon="2.2395">
        <ele>1582</ele>
        <time>2010-01-01T03:02:34Z</time>
      </trkpt>
      <trkpt lat="42.31388" lon="2.23946">
        <ele>1583</ele>
        <time>2010-01-01T03:02:35Z</time>
      </trkpt>
      <trkpt lat="42.31389" lon="2.23943">
        <ele>1584</ele>
        <time>2010-01-01T03:02:36Z</time>
      </trkpt>
      <trkpt lat="42.3139" lon="2.23941">
        <ele>1584</ele>
        <time>2010-01-01T03:02:37Z</time>
      </trkpt>
      <trkpt lat="42.31391" lon="2.23938">
        <ele>1585</ele>
        <time>2010-01-01T03:02:38Z</time>
      </trkpt>
      <trkpt lat="42.31392" lon="2.23935">
        <ele>1586</ele>
        <time>2010-01-01T03:02:39Z</time>
      </trkpt>
      <trkpt lat="42.31392" lon="2.23932">
        <ele>1587</ele>
        <time>2010-01-01T03:02:40Z</time>
      </trkpt>
      <trkpt lat="42.31393" lon="2.23929">
        <ele>1587</ele>
        <time>2010-01-01T03:02:41Z</time>
      </trkpt>
      <trkpt lat="42.31393" lon="2.23925">
        <ele>1588</ele>
        <time>2010-01-01T03:02:42Z</time>
      </trkpt>
      <trkpt lat="42.31394" lon="2.23923">
        <ele>1589</ele>
        <time>2010-01-01T03:02:43Z</time>
      </trkpt>
      <trkpt lat="42.31394" lon="2.2392">
        <ele>1589</ele>
        <time>2010-01-01T03:02:44Z</time>
      </trkpt>
      <trkpt lat="42.31395" lon="2.23916">
        <ele>1590</ele>
        <time>2010-01-01T03:02:45Z</time>
      </trkpt>
      <trkpt lat="42.31395" lon="2.23913">
        <ele>1590</ele>
        <time>2010-01-01T03:02:46Z</time>
      </trkpt>
      <trkpt lat="42.31396" lon="2.2391">
        <ele>1591</ele>
        <time>2010-01-01T03:02:46Z</time>
      </trkpt>
      <trkpt lat="42.31396" lon="2.23908">
        <ele>1591</ele>
        <time>2010-01-01T03:02:47Z</time>
      </trkpt>
      <trkpt lat="42.31397" lon="2.23905">
        <ele>1591</ele>
        <time>2010-01-01T03:02:48Z</time>
      </trkpt>
      <trkpt lat="42.31398" lon="2.23902">
        <ele>1592</ele>
        <time>2010-01-01T03:02:49Z</time>
      </trkpt>
      <trkpt lat="42.31398" lon="2.23899">
        <ele>1592</ele>
        <time>2010-01-01T03:02:50Z</time>
      </trkpt>
      <trkpt lat="42.31397" lon="2.23895">
        <ele>1592</ele>
        <time>2010-01-01T03:02:51Z</time>
      </trkpt>
      <trkpt lat="42.31396" lon="2.23893">
        <ele>1592</ele>
        <time>2010-01-01T03:02:52Z</time>
      </trkpt>
      <trkpt lat="42.31395" lon="2.2389">
        <ele>1593</ele>
        <time>2010-01-01T03:02:53Z</time>
      </trkpt>
      <trkpt lat="42.31394" lon="2.23887">
        <ele>1593</ele>
        <time>2010-01-01T03:02:54Z</time>
      </trkpt>
      <trkpt lat="42.31394" lon="2.23885">
        <ele>1593</ele>
        <time>2010-01-01T03:02:54Z</time>
      </trkpt>
      <trkpt lat="42.31393" lon="2.23883">
        <ele>1594</ele>
        <time>2010-01-01T03:02:55Z</time>
      </trkpt>
      <trkpt lat="42.31391" lon="2.23881">
        <ele>1594</ele>
        <time>2010-01-01T03:02:56Z</time>
      </trkpt>
      <trkpt lat="42.31389" lon="2.23881">
        <ele>1593</ele>
        <time>2010-01-01T03:02:57Z</time>
      </trkpt>
      <trkpt lat="42.31388" lon="2.23879">
        <ele>1594</ele>
        <time>2010-01-01T03:02:58Z</time>
      </trkpt>
      <trkpt lat="42.31386" lon="2.23877">
        <ele>1594</ele>
        <time>2010-01-01T03:02:58Z</time>
      </trkpt>
      <trkpt lat="42.31385" lon="2.23874">
        <ele>1594</ele>
        <time>2010-01-01T03:02:59Z</time>
      </trkpt>
      <trkpt lat="42.31384" lon="2.23872">
        <ele>1595</ele>
        <time>2010-01-01T03:03:00Z</time>
      </trkpt>
      <trkpt lat="42.31382" lon="2.23869">
        <ele>1595</ele>
        <time>2010-01-01T03:03:01Z</time>
      </trkpt>
      <trkpt lat="42.3138" lon="2.23867">
        <ele>1595</ele>
        <time>2010-01-01T03:03:02Z</time>
      </trkpt>
      <trkpt lat="42.31379" lon="2.23865">
        <ele>1596</ele>
        <time>2010-01-01T03:03:03Z</time>
      </trkpt>
      <trkpt lat="42.31378" lon="2.23863">
        <ele>1596</ele>
        <time>2010-01-01T03:03:04Z</time>
      </trkpt>
      <trkpt lat="42.31376" lon="2.23861">
        <ele>1597</ele>
        <time>2010-01-01T03:03:05Z</time>
      </trkpt>
      <trkpt lat="42.31375" lon="2.23859">
        <ele>1597</ele>
        <time>2010-01-01T03:03:05Z</time>
      </trkpt>
      <trkpt lat="42.31373" lon="2.23858">
        <ele>1597</ele>
        <time>2010-01-01T03:03:06Z</time>
      </trkpt>
      <trkpt lat="42.31372" lon="2.23856">
        <ele>1598</ele>
        <time>2010-01-01T03:03:07Z</time>
      </trkpt>
      <trkpt lat="42.31371" lon="2.23854">
        <ele>1598</ele>
        <time>2010-01-01T03:03:08Z</time>
      </trkpt>
      <trkpt lat="42.31369" lon="2.23851">
        <ele>1599</ele>
        <time>2010-01-01T03:03:09Z</time>
      </trkpt>
      <trkpt lat="42.31368" lon="2.23848">
        <ele>1600</ele>
        <time>2010-01-01T03:03:10Z</time>
      </trkpt>
      <trkpt lat="42.31369" lon="2.23845">
        <ele>1601</ele>
        <time>2010-01-01T03:03:11Z</time>
      </trkpt>
      <trkpt lat="42.31369" lon="2.23842">
        <ele>1602</ele>
        <time>2010-01-01T03:03:12Z</time>
      </trkpt>
      <trkpt lat="42.3137" lon="2.23839">
        <ele>1603</ele>
        <time>2010-01-01T03:03:12Z</time>
      </trkpt>
      <trkpt lat="42.31371" lon="2.23837">
        <ele>1604</ele>
        <time>2010-01-01T03:03:13Z</time>
      </trkpt>
      <trkpt lat="42.31372" lon="2.23835">
        <ele>1604</ele>
        <time>2010-01-01T03:03:14Z</time>
      </trkpt>
      <trkpt lat="42.31374" lon="2.23833">
        <ele>1605</ele>
        <time>2010-01-01T03:03:15Z</time>
      </trkpt>
      <trkpt lat="42.31376" lon="2.23831">
        <ele>1605</ele>
        <time>2010-01-01T03:03:16Z</time>
      </trkpt>
      <trkpt lat="42.31378" lon="2.2383">
        <ele>1605</ele>
        <time>2010-01-01T03:03:17Z</time>
      </trkpt>
      <trkpt lat="42.31379" lon="2.23829">
        <ele>1605</ele>
        <time>2010-01-01T03:03:17Z</time>
      </trkpt>
      <trkpt lat="42.31381" lon="2.23827">
        <ele>1605</ele>
        <time>2010-01-01T03:03:18Z</time>
      </trkpt>
      <trkpt lat="42.31382" lon="2.23825">
        <ele>1605</ele>
        <time>2010-01-01T03:03:19Z</time>
      </trkpt>
      <trkpt lat="42.31383" lon="2.23822">
        <ele>1606</ele>
        <time>2010-01-01T03:03:20Z</time>
      </trkpt>
      <trkpt lat="42.31385" lon="2.23821">
        <ele>1606</ele>
        <time>2010-01-01T03:03:21Z</time>
      </trkpt>
      <trkpt lat="42.31387" lon="2.2382">
        <ele>1606</ele>
        <time>2010-01-01T03:03:22Z</time>
      </trkpt>
      <trkpt lat="42.31389" lon="2.23818">
        <ele>1606</ele>
        <time>2010-01-01T03:03:22Z</time>
      </trkpt>
      <trkpt lat="42.31391" lon="2.23816">
        <ele>1607</ele>
        <time>2010-01-01T03:03:23Z</time>
      </trkpt>
      <trkpt lat="42.31393" lon="2.23814">
        <ele>1607</ele>
        <time>2010-01-01T03:03:24Z</time>
      </trkpt>
      <trkpt lat="42.31394" lon="2.23812">
        <ele>1608</ele>
        <time>2010-01-01T03:03:25Z</time>
      </trkpt>
      <trkpt lat="42.31395" lon="2.23809">
        <ele>1608</ele>
        <time>2010-01-01T03:03:26Z</time>
      </trkpt>
      <trkpt lat="42.31396" lon="2.23807">
        <ele>1609</ele>
        <time>2010-01-01T03:03:27Z</time>
      </trkpt>
      <trkpt lat="42.31397" lon="2.23805">
        <ele>1609</ele>
        <time>2010-01-01T03:03:28Z</time>
      </trkpt>
      <trkpt lat="42.31398" lon="2.23802">
        <ele>1609</ele>
        <time>2010-01-01T03:03:29Z</time>
      </trkpt>
      <trkpt lat="42.314" lon="2.238">
        <ele>1610</ele>
        <time>2010-01-01T03:03:30Z</time>
      </trkpt>
      <trkpt lat="42.31401" lon="2.23797">
        <ele>1610</ele>
        <time>2010-01-01T03:03:31Z</time>
      </trkpt>
      <trkpt lat="42.31403" lon="2.23795">
        <ele>1611</ele>
        <time>2010-01-01T03:03:32Z</time>
      </trkpt>
      <trkpt lat="42.31405" lon="2.23792">
        <ele>1611</ele>
        <time>2010-01-01T03:03:33Z</time>
      </trkpt>
      <trkpt lat="42.31406" lon="2.2379">
        <ele>1612</ele>
        <time>2010-01-01T03:03:33Z</time>
      </trkpt>
      <trkpt lat="42.31408" lon="2.23788">
        <ele>1613</ele>
        <time>2010-01-01T03:03:34Z</time>
      </trkpt>
      <trkpt lat="42.3141" lon="2.23786">
        <ele>1613</ele>
        <time>2010-01-01T03:03:35Z</time>
      </trkpt>
      <trkpt lat="42.31411" lon="2.23784">
        <ele>1614</ele>
        <time>2010-01-01T03:03:36Z</time>
      </trkpt>
      <trkpt lat="42.31412" lon="2.23782">
        <ele>1614</ele>
        <time>2010-01-01T03:03:37Z</time>
      </trkpt>
      <trkpt lat="42.31413" lon="2.2378">
        <ele>1614</ele>
        <time>2010-01-01T03:03:38Z</time>
      </trkpt>
      <trkpt lat="42.31415" lon="2.23778">
        <ele>1615</ele>
        <time>2010-01-01T03:03:38Z</time>
      </trkpt>
      <trkpt lat="42.31417" lon="2.23777">
        <ele>1616</ele>
        <time>2010-01-01T03:03:39Z</time>
      </trkpt>
      <trkpt lat="42.31418" lon="2.23776">
        <ele>1616</ele>
        <time>2010-01-01T03:03:40Z</time>
      </trkpt>
      <trkpt lat="42.31421" lon="2.23774">
        <ele>1617</ele>
        <time>2010-01-01T03:03:41Z</time>
      </trkpt>
      <trkpt lat="42.31422" lon="2.23773">
        <ele>1618</ele>
        <time>2010-01-01T03:03:42Z</time>
      </trkpt>
      <trkpt lat="42.31425" lon="2.23771">
        <ele>1619</ele>
        <time>2010-01-01T03:03:43Z</time>
      </trkpt>
      <trkpt lat="42.31427" lon="2.2377">
        <ele>1620</ele>
        <time>2010-01-01T03:03:44Z</time>
      </trkpt>
      <trkpt lat="42.31428" lon="2.23768">
        <ele>1621</ele>
        <time>2010-01-01T03:03:45Z</time>
      </trkpt>
      <trkpt lat="42.3143" lon="2.23765">
        <ele>1621</ele>
        <time>2010-01-01T03:03:46Z</time>
      </trkpt>
      <trkpt lat="42.31432" lon="2.23761">
        <ele>1622</ele>
        <time>2010-01-01T03:03:47Z</time>
      </trkpt>
      <trkpt lat="42.31433" lon="2.23759">
        <ele>1623</ele>
        <time>2010-01-01T03:03:48Z</time>
      </trkpt>
      <trkpt lat="42.31435" lon="2.23757">
        <ele>1624</ele>
        <time>2010-01-01T03:03:49Z</time>
      </trkpt>
      <trkpt lat="42.31437" lon="2.23755">
        <ele>1625</ele>
        <time>2010-01-01T03:03:50Z</time>
      </trkpt>
      <trkpt lat="42.31439" lon="2.23753">
        <ele>1625</ele>
        <time>2010-01-01T03:03:51Z</time>
      </trkpt>
      <trkpt lat="42.3144" lon="2.23751">
        <ele>1626</ele>
        <time>2010-01-01T03:03:52Z</time>
      </trkpt>
      <trkpt lat="42.31442" lon="2.2375">
        <ele>1627</ele>
        <time>2010-01-01T03:03:52Z</time>
      </trkpt>
      <trkpt lat="42.31443" lon="2.23748">
        <ele>1627</ele>
        <time>2010-01-01T03:03:53Z</time>
      </trkpt>
      <trkpt lat="42.31444" lon="2.23745">
        <ele>1628</ele>
        <time>2010-01-01T03:03:54Z</time>
      </trkpt>
      <trkpt lat="42.31446" lon="2.23743">
        <ele>1629</ele>
        <time>2010-01-01T03:03:55Z</time>
      </trkpt>
      <trkpt lat="42.31447" lon="2.23741">
        <ele>1629</ele>
        <time>2010-01-01T03:03:56Z</time>
      </trkpt>
      <trkpt lat="42.31449" lon="2.23738">
        <ele>1630</ele>
        <time>2010-01-01T03:03:57Z</time>
      </trkpt>
      <trkpt lat="42.31451" lon="2.23736">
        <ele>1631</ele>
        <time>2010-01-01T03:03:58Z</time>
      </trkpt>
      <trkpt lat="42.31452" lon="2.23734">
        <ele>1631</ele>
        <time>2010-01-01T03:03:59Z</time>
      </trkpt>
      <trkpt lat="42.31453" lon="2.23732">
        <ele>1632</ele>
        <time>2010-01-01T03:03:59Z</time>
      </trkpt>
      <trkpt lat="42.31455" lon="2.23729">
        <ele>1632</ele>
        <time>2010-01-01T03:04:00Z</time>
      </trkpt>
      <trkpt lat="42.31456" lon="2.23727">
        <ele>1633</ele>
        <time>2010-01-01T03:04:01Z</time>
      </trkpt>
      <trkpt lat="42.31458" lon="2.23725">
        <ele>1633</ele>
        <time>2010-01-01T03:04:02Z</time>
      </trkpt>
      <trkpt lat="42.3146" lon="2.23723">
        <ele>1634</ele>
        <time>2010-01-01T03:04:03Z</time>
      </trkpt>
      <trkpt lat="42.31461" lon="2.23722">
        <ele>1634</ele>
        <time>2010-01-01T03:04:04Z</time>
      </trkpt>
      <trkpt lat="42.31463" lon="2.2372">
        <ele>1635</ele>
        <time>2010-01-01T03:04:05Z</time>
      </trkpt>
      <trkpt lat="42.31464" lon="2.23718">
        <ele>1635</ele>
        <time>2010-01-01T03:04:05Z</time>
      </trkpt>
      <trkpt lat="42.31466" lon="2.23717">
        <ele>1636</ele>
        <time>2010-01-01T03:04:06Z</time>
      </trkpt>
      <trkpt lat="42.31468" lon="2.23715">
        <ele>1636</ele>
        <time>2010-01-01T03:04:07Z</time>
      </trkpt>
      <trkpt lat="42.31469" lon="2.23713">
        <ele>1637</ele>
        <time>2010-01-01T03:04:08Z</time>
      </trkpt>
      <trkpt lat="42.31471" lon="2.23711">
        <ele>1637</ele>
        <time>2010-01-01T03:04:09Z</time>
      </trkpt>
      <trkpt lat="42.31472" lon="2.2371">
        <ele>1637</ele>
        <time>2010-01-01T03:04:09Z</time>
      </trkpt>
      <trkpt lat="42.31474" lon="2.23709">
        <ele>1638</ele>
        <time>2010-01-01T03:04:10Z</time>
      </trkpt>
      <trkpt lat="42.31476" lon="2.23707">
        <ele>1639</ele>
        <time>2010-01-01T03:04:11Z</time>
      </trkpt>
      <trkpt lat="42.31478" lon="2.23705">
        <ele>1639</ele>
        <time>2010-01-01T03:04:12Z</time>
      </trkpt>
      <trkpt lat="42.3148" lon="2.23704">
        <ele>1640</ele>
        <time>2010-01-01T03:04:13Z</time>
      </trkpt>
      <trkpt lat="42.31483" lon="2.23702">
        <ele>1641</ele>
        <time>2010-01-01T03:04:14Z</time>
      </trkpt>
      <trkpt lat="42.31484" lon="2.237">
        <ele>1642</ele>
        <time>2010-01-01T03:04:15Z</time>
      </trkpt>
      <trkpt lat="42.31486" lon="2.23698">
        <ele>1642</ele>
        <time>2010-01-01T03:04:16Z</time>
      </trkpt>
      <trkpt lat="42.31487" lon="2.23697">
        <ele>1643</ele>
        <time>2010-01-01T03:04:17Z</time>
      </trkpt>
      <trkpt lat="42.31489" lon="2.23695">
        <ele>1643</ele>
        <time>2010-01-01T03:04:18Z</time>
      </trkpt>
      <trkpt lat="42.31491" lon="2.23694">
        <ele>1644</ele>
        <time>2010-01-01T03:04:18Z</time>
      </trkpt>
      <trkpt lat="42.31493" lon="2.23692">
        <ele>1645</ele>
        <time>2010-01-01T03:04:19Z</time>
      </trkpt>
      <trkpt lat="42.31494" lon="2.23691">
        <ele>1645</ele>
        <time>2010-01-01T03:04:20Z</time>
      </trkpt>
      <trkpt lat="42.31496" lon="2.2369">
        <ele>1646</ele>
        <time>2010-01-01T03:04:21Z</time>
      </trkpt>
      <trkpt lat="42.31498" lon="2.23688">
        <ele>1647</ele>
        <time>2010-01-01T03:04:22Z</time>
      </trkpt>
      <trkpt lat="42.315" lon="2.23687">
        <ele>1647</ele>
        <time>2010-01-01T03:04:22Z</time>
      </trkpt>
      <trkpt lat="42.31502" lon="2.23687">
        <ele>1648</ele>
        <time>2010-01-01T03:04:23Z</time>
      </trkpt>
      <trkpt lat="42.31504" lon="2.23687">
        <ele>1648</ele>
        <time>2010-01-01T03:04:24Z</time>
      </trkpt>
      <trkpt lat="42.31506" lon="2.23687">
        <ele>1649</ele>
        <time>2010-01-01T03:04:25Z</time>
      </trkpt>
      <trkpt lat="42.31508" lon="2.23686">
        <ele>1650</ele>
        <time>2010-01-01T03:04:26Z</time>
      </trkpt>
      <trkpt lat="42.3151" lon="2.23685">
        <ele>1651</ele>
        <time>2010-01-01T03:04:27Z</time>
      </trkpt>
      <trkpt lat="42.31513" lon="2.23683">
        <ele>1652</ele>
        <time>2010-01-01T03:04:28Z</time>
      </trkpt>
      <trkpt lat="42.31515" lon="2.23682">
        <ele>1653</ele>
        <time>2010-01-01T03:04:29Z</time>
      </trkpt>
      <trkpt lat="42.31517" lon="2.23681">
        <ele>1653</ele>
        <time>2010-01-01T03:04:30Z</time>
      </trkpt>
      <trkpt lat="42.3152" lon="2.2368">
        <ele>1654</ele>
        <time>2010-01-01T03:04:31Z</time>
      </trkpt>
      <trkpt lat="42.31522" lon="2.2368">
        <ele>1655</ele>
        <time>2010-01-01T03:04:32Z</time>
      </trkpt>
      <trkpt lat="42.31525" lon="2.23681">
        <ele>1656</ele>
        <time>2010-01-01T03:04:33Z</time>
      </trkpt>
      <trkpt lat="42.31527" lon="2.2368">
        <ele>1657</ele>
        <time>2010-01-01T03:04:34Z</time>
      </trkpt>
      <trkpt lat="42.31529" lon="2.23679">
        <ele>1658</ele>
        <time>2010-01-01T03:04:35Z</time>
      </trkpt>
      <trkpt lat="42.31531" lon="2.23679">
        <ele>1658</ele>
        <time>2010-01-01T03:04:36Z</time>
      </trkpt>
      <trkpt lat="42.31534" lon="2.23678">
        <ele>1659</ele>
        <time>2010-01-01T03:04:37Z</time>
      </trkpt>
      <trkpt lat="42.31536" lon="2.23678">
        <ele>1660</ele>
        <time>2010-01-01T03:04:37Z</time>
      </trkpt>
      <trkpt lat="42.31538" lon="2.23678">
        <ele>1660</ele>
        <time>2010-01-01T03:04:38Z</time>
      </trkpt>
      <trkpt lat="42.3154" lon="2.23678">
        <ele>1661</ele>
        <time>2010-01-01T03:04:39Z</time>
      </trkpt>
      <trkpt lat="42.31542" lon="2.23678">
        <ele>1661</ele>
        <time>2010-01-01T03:04:40Z</time>
      </trkpt>
      <trkpt lat="42.31544" lon="2.23678">
        <ele>1662</ele>
        <time>2010-01-01T03:04:41Z</time>
      </trkpt>
      <trkpt lat="42.31547" lon="2.23678">
        <ele>1663</ele>
        <time>2010-01-01T03:04:42Z</time>
      </trkpt>
      <trkpt lat="42.31551" lon="2.23675">
        <ele>1664</ele>
        <time>2010-01-01T03:04:44Z</time>
      </trkpt>
      <trkpt lat="42.31553" lon="2.23673">
        <ele>1665</ele>
        <time>2010-01-01T03:04:45Z</time>
      </trkpt>
      <trkpt lat="42.31555" lon="2.23672">
        <ele>1665</ele>
        <time>2010-01-01T03:04:46Z</time>
      </trkpt>
      <trkpt lat="42.31557" lon="2.2367">
        <ele>1666</ele>
        <time>2010-01-01T03:04:46Z</time>
      </trkpt>
      <trkpt lat="42.31559" lon="2.23669">
        <ele>1666</ele>
        <time>2010-01-01T03:04:47Z</time>
      </trkpt>
      <trkpt lat="42.3156" lon="2.23667">
        <ele>1666</ele>
        <time>2010-01-01T03:04:48Z</time>
      </trkpt>
      <trkpt lat="42.31562" lon="2.23665">
        <ele>1667</ele>
        <time>2010-01-01T03:04:49Z</time>
      </trkpt>
      <trkpt lat="42.31564" lon="2.23663">
        <ele>1667</ele>
        <time>2010-01-01T03:04:50Z</time>
      </trkpt>
      <trkpt lat="42.31565" lon="2.23661">
        <ele>1667</ele>
        <time>2010-01-01T03:04:51Z</time>
      </trkpt>
      <trkpt lat="42.31567" lon="2.23659">
        <ele>1667</ele>
        <time>2010-01-01T03:04:52Z</time>
      </trkpt>
      <trkpt lat="42.31569" lon="2.23656">
        <ele>1667</ele>
        <time>2010-01-01T03:04:53Z</time>
      </trkpt>
      <trkpt lat="42.3157" lon="2.23655">
        <ele>1667</ele>
        <time>2010-01-01T03:04:54Z</time>
      </trkpt>
      <trkpt lat="42.31572" lon="2.23653">
        <ele>1667</ele>
        <time>2010-01-01T03:04:54Z</time>
      </trkpt>
      <trkpt lat="42.31573" lon="2.23651">
        <ele>1667</ele>
        <time>2010-01-01T03:04:55Z</time>
      </trkpt>
      <trkpt lat="42.31575" lon="2.23649">
        <ele>1667</ele>
        <time>2010-01-01T03:04:56Z</time>
      </trkpt>
      <trkpt lat="42.31577" lon="2.23647">
        <ele>1667</ele>
        <time>2010-01-01T03:04:57Z</time>
      </trkpt>
      <trkpt lat="42.31578" lon="2.23645">
        <ele>1667</ele>
        <time>2010-01-01T03:04:58Z</time>
      </trkpt>
      <trkpt lat="42.3158" lon="2.23644">
        <ele>1667</ele>
        <time>2010-01-01T03:04:59Z</time>
      </trkpt>
      <trkpt lat="42.31581" lon="2.23642">
        <ele>1667</ele>
        <time>2010-01-01T03:04:59Z</time>
      </trkpt>
      <trkpt lat="42.31583" lon="2.23639">
        <ele>1666</ele>
        <time>2010-01-01T03:05:00Z</time>
      </trkpt>
      <trkpt lat="42.31584" lon="2.23638">
        <ele>1667</ele>
        <time>2010-01-01T03:05:01Z</time>
      </trkpt>
      <trkpt lat="42.31587" lon="2.23637">
        <ele>1667</ele>
        <time>2010-01-01T03:05:02Z</time>
      </trkpt>
      <trkpt lat="42.31589" lon="2.23636">
        <ele>1668</ele>
        <time>2010-01-01T03:05:03Z</time>
      </trkpt>
      <trkpt lat="42.31591" lon="2.23636">
        <ele>1668</ele>
        <time>2010-01-01T03:05:04Z</time>
      </trkpt>
      <trkpt lat="42.31593" lon="2.23636">
        <ele>1669</ele>
        <time>2010-01-01T03:05:05Z</time>
      </trkpt>
      <trkpt lat="42.31595" lon="2.23637">
        <ele>1670</ele>
        <time>2010-01-01T03:05:06Z</time>
      </trkpt>
      <trkpt lat="42.31598" lon="2.23637">
        <ele>1670</ele>
        <time>2010-01-01T03:05:07Z</time>
      </trkpt>
      <trkpt lat="42.316" lon="2.23638">
        <ele>1671</ele>
        <time>2010-01-01T03:05:08Z</time>
      </trkpt>
      <trkpt lat="42.31602" lon="2.23638">
        <ele>1672</ele>
        <time>2010-01-01T03:05:08Z</time>
      </trkpt>
      <trkpt lat="42.31605" lon="2.23638">
        <ele>1673</ele>
        <time>2010-01-01T03:05:09Z</time>
      </trkpt>
      <trkpt lat="42.31607" lon="2.23639">
        <ele>1673</ele>
        <time>2010-01-01T03:05:10Z</time>
      </trkpt>
      <trkpt lat="42.3161" lon="2.23638">
        <ele>1674</ele>
        <time>2010-01-01T03:05:11Z</time>
      </trkpt>
      <trkpt lat="42.31612" lon="2.23638">
        <ele>1675</ele>
        <time>2010-01-01T03:05:12Z</time>
      </trkpt>
      <trkpt lat="42.31614" lon="2.23639">
        <ele>1675</ele>
        <time>2010-01-01T03:05:13Z</time>
      </trkpt>
      <trkpt lat="42.31615" lon="2.23639">
        <ele>1676</ele>
        <time>2010-01-01T03:05:14Z</time>
      </trkpt>
      <trkpt lat="42.31618" lon="2.2364">
        <ele>1677</ele>
        <time>2010-01-01T03:05:15Z</time>
      </trkpt>
      <trkpt lat="42.3162" lon="2.23641">
        <ele>1678</ele>
        <time>2010-01-01T03:05:16Z</time>
      </trkpt>
      <trkpt lat="42.31622" lon="2.23643">
        <ele>1679</ele>
        <time>2010-01-01T03:05:17Z</time>
      </trkpt>
      <trkpt lat="42.31624" lon="2.23645">
        <ele>1680</ele>
        <time>2010-01-01T03:05:18Z</time>
      </trkpt>
      <trkpt lat="42.31626" lon="2.23647">
        <ele>1680</ele>
        <time>2010-01-01T03:05:18Z</time>
      </trkpt>
      <trkpt lat="42.31628" lon="2.23648">
        <ele>1681</ele>
        <time>2010-01-01T03:05:19Z</time>
      </trkpt>
      <trkpt lat="42.3163" lon="2.2365">
        <ele>1682</ele>
        <time>2010-01-01T03:05:20Z</time>
      </trkpt>
      <trkpt lat="42.31632" lon="2.23652">
        <ele>1683</ele>
        <time>2010-01-01T03:05:21Z</time>
      </trkpt>
      <trkpt lat="42.31634" lon="2.23653">
        <ele>1684</ele>
        <time>2010-01-01T03:05:22Z</time>
      </trkpt>
      <trkpt lat="42.31636" lon="2.23654">
        <ele>1685</ele>
        <time>2010-01-01T03:05:23Z</time>
      </trkpt>
      <trkpt lat="42.31638" lon="2.23657">
        <ele>1686</ele>
        <time>2010-01-01T03:05:24Z</time>
      </trkpt>
      <trkpt lat="42.3164" lon="2.23658">
        <ele>1687</ele>
        <time>2010-01-01T03:05:25Z</time>
      </trkpt>
      <trkpt lat="42.31642" lon="2.23659">
        <ele>1687</ele>
        <time>2010-01-01T03:05:26Z</time>
      </trkpt>
      <trkpt lat="42.31645" lon="2.2366">
        <ele>1688</ele>
        <time>2010-01-01T03:05:27Z</time>
      </trkpt>
      <trkpt lat="42.31647" lon="2.23661">
        <ele>1689</ele>
        <time>2010-01-01T03:05:28Z</time>
      </trkpt>
      <trkpt lat="42.31649" lon="2.23662">
        <ele>1689</ele>
        <time>2010-01-01T03:05:29Z</time>
      </trkpt>
      <trkpt lat="42.31651" lon="2.23664">
        <ele>1690</ele>
        <time>2010-01-01T03:05:30Z</time>
      </trkpt>
      <trkpt lat="42.31652" lon="2.23666">
        <ele>1691</ele>
        <time>2010-01-01T03:05:31Z</time>
      </trkpt>
      <trkpt lat="42.31654" lon="2.23667">
        <ele>1691</ele>
        <time>2010-01-01T03:05:32Z</time>
      </trkpt>
      <trkpt lat="42.31656" lon="2.23667">
        <ele>1692</ele>
        <time>2010-01-01T03:05:32Z</time>
      </trkpt>
      <trkpt lat="42.31658" lon="2.23669">
        <ele>1693</ele>
        <time>2010-01-01T03:05:33Z</time>
      </trkpt>
      <trkpt lat="42.3166" lon="2.2367">
        <ele>1693</ele>
        <time>2010-01-01T03:05:34Z</time>
      </trkpt>
      <trkpt lat="42.31662" lon="2.23669">
        <ele>1694</ele>
        <time>2010-01-01T03:05:35Z</time>
      </trkpt>
      <trkpt lat="42.31665" lon="2.2367">
        <ele>1694</ele>
        <time>2010-01-01T03:05:36Z</time>
      </trkpt>
      <trkpt lat="42.31667" lon="2.23671">
        <ele>1695</ele>
        <time>2010-01-01T03:05:37Z</time>
      </trkpt>
      <trkpt lat="42.3167" lon="2.23672">
        <ele>1695</ele>
        <time>2010-01-01T03:05:38Z</time>
      </trkpt>
      <trkpt lat="42.31672" lon="2.23672">
        <ele>1695</ele>
        <time>2010-01-01T03:05:39Z</time>
      </trkpt>
      <trkpt lat="42.31674" lon="2.23674">
        <ele>1696</ele>
        <time>2010-01-01T03:05:40Z</time>
      </trkpt>
      <trkpt lat="42.31675" lon="2.23675">
        <ele>1696</ele>
        <time>2010-01-01T03:05:41Z</time>
      </trkpt>
      <trkpt lat="42.31677" lon="2.23676">
        <ele>1696</ele>
        <time>2010-01-01T03:05:41Z</time>
      </trkpt>
      <trkpt lat="42.31679" lon="2.23677">
        <ele>1697</ele>
        <time>2010-01-01T03:05:42Z</time>
      </trkpt>
      <trkpt lat="42.31681" lon="2.23677">
        <ele>1697</ele>
        <time>2010-01-01T03:05:43Z</time>
      </trkpt>
      <trkpt lat="42.31683" lon="2.23677">
        <ele>1697</ele>
        <time>2010-01-01T03:05:44Z</time>
      </trkpt>
      <trkpt lat="42.31686" lon="2.23678">
        <ele>1698</ele>
        <time>2010-01-01T03:05:45Z</time>
      </trkpt>
      <trkpt lat="42.31688" lon="2.23679">
        <ele>1698</ele>
        <time>2010-01-01T03:05:46Z</time>
      </trkpt>
      <trkpt lat="42.3169" lon="2.2368">
        <ele>1698</ele>
        <time>2010-01-01T03:05:47Z</time>
      </trkpt>
      <trkpt lat="42.31693" lon="2.2368">
        <ele>1699</ele>
        <time>2010-01-01T03:05:48Z</time>
      </trkpt>
      <trkpt lat="42.31695" lon="2.23681">
        <ele>1699</ele>
        <time>2010-01-01T03:05:49Z</time>
      </trkpt>
      <trkpt lat="42.31697" lon="2.23681">
        <ele>1699</ele>
        <time>2010-01-01T03:05:49Z</time>
      </trkpt>
      <trkpt lat="42.31699" lon="2.23681">
        <ele>1700</ele>
        <time>2010-01-01T03:05:50Z</time>
      </trkpt>
      <trkpt lat="42.31703" lon="2.23681">
        <ele>1700</ele>
        <time>2010-01-01T03:05:52Z</time>
      </trkpt>
      <trkpt lat="42.31705" lon="2.23681">
        <ele>1700</ele>
        <time>2010-01-01T03:05:53Z</time>
      </trkpt>
      <trkpt lat="42.31707" lon="2.2368">
        <ele>1701</ele>
        <time>2010-01-01T03:05:53Z</time>
      </trkpt>
      <trkpt lat="42.31708" lon="2.2368">
        <ele>1701</ele>
        <time>2010-01-01T03:05:54Z</time>
      </trkpt>
      <trkpt lat="42.31713" lon="2.2368">
        <ele>1702</ele>
        <time>2010-01-01T03:05:56Z</time>
      </trkpt>
      <trkpt lat="42.31715" lon="2.23679">
        <ele>1702</ele>
        <time>2010-01-01T03:05:57Z</time>
      </trkpt>
      <trkpt lat="42.31718" lon="2.23679">
        <ele>1702</ele>
        <time>2010-01-01T03:05:58Z</time>
      </trkpt>
      <trkpt lat="42.3172" lon="2.23679">
        <ele>1702</ele>
        <time>2010-01-01T03:05:59Z</time>
      </trkpt>
      <trkpt lat="42.31722" lon="2.23681">
        <ele>1703</ele>
        <time>2010-01-01T03:06:00Z</time>
      </trkpt>
      <trkpt lat="42.31724" lon="2.23682">
        <ele>1703</ele>
        <time>2010-01-01T03:06:01Z</time>
      </trkpt>
      <trkpt lat="42.31726" lon="2.23683">
        <ele>1704</ele>
        <time>2010-01-01T03:06:01Z</time>
      </trkpt>
      <trkpt lat="42.31728" lon="2.23683">
        <ele>1704</ele>
        <time>2010-01-01T03:06:02Z</time>
      </trkpt>
      <trkpt lat="42.3173" lon="2.23683">
        <ele>1705</ele>
        <time>2010-01-01T03:06:03Z</time>
      </trkpt>
      <trkpt lat="42.31732" lon="2.23683">
        <ele>1705</ele>
        <time>2010-01-01T03:06:04Z</time>
      </trkpt>
      <trkpt lat="42.31736" lon="2.23683">
        <ele>1706</ele>
        <time>2010-01-01T03:06:05Z</time>
      </trkpt>
      <trkpt lat="42.31738" lon="2.23683">
        <ele>1706</ele>
        <time>2010-01-01T03:06:06Z</time>
      </trkpt>
      <trkpt lat="42.3174" lon="2.23683">
        <ele>1706</ele>
        <time>2010-01-01T03:06:07Z</time>
      </trkpt>
      <trkpt lat="42.31742" lon="2.23683">
        <ele>1707</ele>
        <time>2010-01-01T03:06:08Z</time>
      </trkpt>
      <trkpt lat="42.31744" lon="2.23683">
        <ele>1707</ele>
        <time>2010-01-01T03:06:09Z</time>
      </trkpt>
      <trkpt lat="42.31746" lon="2.23683">
        <ele>1707</ele>
        <time>2010-01-01T03:06:09Z</time>
      </trkpt>
      <trkpt lat="42.31748" lon="2.23683">
        <ele>1708</ele>
        <time>2010-01-01T03:06:10Z</time>
      </trkpt>
      <trkpt lat="42.31749" lon="2.23683">
        <ele>1708</ele>
        <time>2010-01-01T03:06:11Z</time>
      </trkpt>
      <trkpt lat="42.31751" lon="2.23683">
        <ele>1708</ele>
        <time>2010-01-01T03:06:12Z</time>
      </trkpt>
      <trkpt lat="42.31753" lon="2.23683">
        <ele>1709</ele>
        <time>2010-01-01T03:06:13Z</time>
      </trkpt>
      <trkpt lat="42.31755" lon="2.23683">
        <ele>1709</ele>
        <time>2010-01-01T03:06:13Z</time>
      </trkpt>
      <trkpt lat="42.31757" lon="2.23684">
        <ele>1710</ele>
        <time>2010-01-01T03:06:14Z</time>
      </trkpt>
      <trkpt lat="42.31759" lon="2.23684">
        <ele>1710</ele>
        <time>2010-01-01T03:06:15Z</time>
      </trkpt>
      <trkpt lat="42.31765" lon="2.23683">
        <ele>1712</ele>
        <time>2010-01-01T03:06:17Z</time>
      </trkpt>
      <trkpt lat="42.31767" lon="2.23682">
        <ele>1712</ele>
        <time>2010-01-01T03:06:18Z</time>
      </trkpt>
      <trkpt lat="42.31769" lon="2.23681">
        <ele>1712</ele>
        <time>2010-01-01T03:06:19Z</time>
      </trkpt>
      <trkpt lat="42.3177" lon="2.23679">
        <ele>1713</ele>
        <time>2010-01-01T03:06:20Z</time>
      </trkpt>
      <trkpt lat="42.31772" lon="2.23678">
        <ele>1713</ele>
        <time>2010-01-01T03:06:20Z</time>
      </trkpt>
      <trkpt lat="42.31773" lon="2.23677">
        <ele>1713</ele>
        <time>2010-01-01T03:06:21Z</time>
      </trkpt>
      <trkpt lat="42.31775" lon="2.23676">
        <ele>1714</ele>
        <time>2010-01-01T03:06:22Z</time>
      </trkpt>
      <trkpt lat="42.31778" lon="2.23675">
        <ele>1714</ele>
        <time>2010-01-01T03:06:23Z</time>
      </trkpt>
      <trkpt lat="42.3178" lon="2.23674">
        <ele>1715</ele>
        <time>2010-01-01T03:06:24Z</time>
      </trkpt>
      <trkpt lat="42.31782" lon="2.23673">
        <ele>1715</ele>
        <time>2010-01-01T03:06:25Z</time>
      </trkpt>
      <trkpt lat="42.31784" lon="2.23672">
        <ele>1716</ele>
        <time>2010-01-01T03:06:26Z</time>
      </trkpt>
      <trkpt lat="42.31787" lon="2.2367">
        <ele>1716</ele>
        <time>2010-01-01T03:06:27Z</time>
      </trkpt>
      <trkpt lat="42.31789" lon="2.23669">
        <ele>1717</ele>
        <time>2010-01-01T03:06:28Z</time>
      </trkpt>
      <trkpt lat="42.31791" lon="2.23668">
        <ele>1717</ele>
        <time>2010-01-01T03:06:29Z</time>
      </trkpt>
      <trkpt lat="42.31793" lon="2.23668">
        <ele>1718</ele>
        <time>2010-01-01T03:06:29Z</time>
      </trkpt>
      <trkpt lat="42.31794" lon="2.23668">
        <ele>1718</ele>
        <time>2010-01-01T03:06:30Z</time>
      </trkpt>
      <trkpt lat="42.31797" lon="2.23669">
        <ele>1719</ele>
        <time>2010-01-01T03:06:31Z</time>
      </trkpt>
      <trkpt lat="42.31799" lon="2.2367">
        <ele>1719</ele>
        <time>2010-01-01T03:06:32Z</time>
      </trkpt>
      <trkpt lat="42.31801" lon="2.23671">
        <ele>1719</ele>
        <time>2010-01-01T03:06:33Z</time>
      </trkpt>
      <trkpt lat="42.31803" lon="2.23671">
        <ele>1720</ele>
        <time>2010-01-01T03:06:34Z</time>
      </trkpt>
      <trkpt lat="42.31805" lon="2.23671">
        <ele>1720</ele>
        <time>2010-01-01T03:06:34Z</time>
      </trkpt>
      <trkpt lat="42.31807" lon="2.23672">
        <ele>1721</ele>
        <time>2010-01-01T03:06:35Z</time>
      </trkpt>
      <trkpt lat="42.31808" lon="2.23672">
        <ele>1721</ele>
        <time>2010-01-01T03:06:36Z</time>
      </trkpt>
      <trkpt lat="42.3181" lon="2.23672">
        <ele>1721</ele>
        <time>2010-01-01T03:06:37Z</time>
      </trkpt>
      <trkpt lat="42.31813" lon="2.23672">
        <ele>1722</ele>
        <time>2010-01-01T03:06:38Z</time>
      </trkpt>
      <trkpt lat="42.31815" lon="2.23671">
        <ele>1722</ele>
        <time>2010-01-01T03:06:38Z</time>
      </trkpt>
      <trkpt lat="42.31819" lon="2.23671">
        <ele>1723</ele>
        <time>2010-01-01T03:06:40Z</time>
      </trkpt>
      <trkpt lat="42.31821" lon="2.23671">
        <ele>1723</ele>
        <time>2010-01-01T03:06:41Z</time>
      </trkpt>
      <trkpt lat="42.31823" lon="2.2367">
        <ele>1724</ele>
        <time>2010-01-01T03:06:42Z</time>
      </trkpt>
      <trkpt lat="42.31825" lon="2.2367">
        <ele>1724</ele>
        <time>2010-01-01T03:06:42Z</time>
      </trkpt>
      <trkpt lat="42.31827" lon="2.23669">
        <ele>1725</ele>
        <time>2010-01-01T03:06:43Z</time>
      </trkpt>
      <trkpt lat="42.3183" lon="2.23668">
        <ele>1726</ele>
        <time>2010-01-01T03:06:44Z</time>
      </trkpt>
      <trkpt lat="42.31832" lon="2.23667">
        <ele>1726</ele>
        <time>2010-01-01T03:06:45Z</time>
      </trkpt>
      <trkpt lat="42.31834" lon="2.23666">
        <ele>1727</ele>
        <time>2010-01-01T03:06:46Z</time>
      </trkpt>
      <trkpt lat="42.31836" lon="2.23665">
        <ele>1727</ele>
        <time>2010-01-01T03:06:47Z</time>
      </trkpt>
      <trkpt lat="42.31838" lon="2.23664">
        <ele>1727</ele>
        <time>2010-01-01T03:06:48Z</time>
      </trkpt>
      <trkpt lat="42.3184" lon="2.23663">
        <ele>1727</ele>
        <time>2010-01-01T03:06:49Z</time>
      </trkpt>
      <trkpt lat="42.31842" lon="2.23663">
        <ele>1727</ele>
        <time>2010-01-01T03:06:50Z</time>
      </trkpt>
      <trkpt lat="42.31843" lon="2.23662">
        <ele>1727</ele>
        <time>2010-01-01T03:06:50Z</time>
      </trkpt>
      <trkpt lat="42.31845" lon="2.23661">
        <ele>1728</ele>
        <time>2010-01-01T03:06:51Z</time>
      </trkpt>
      <trkpt lat="42.31847" lon="2.2366">
        <ele>1728</ele>
        <time>2010-01-01T03:06:52Z</time>
      </trkpt>
      <trkpt lat="42.31849" lon="2.23659">
        <ele>1728</ele>
        <time>2010-01-01T03:06:53Z</time>
      </trkpt>
      <trkpt lat="42.31851" lon="2.23659">
        <ele>1729</ele>
        <time>2010-01-01T03:06:53Z</time>
      </trkpt>
      <trkpt lat="42.31853" lon="2.23658">
        <ele>1729</ele>
        <time>2010-01-01T03:06:54Z</time>
      </trkpt>
      <trkpt lat="42.31855" lon="2.23658">
        <ele>1729</ele>
        <time>2010-01-01T03:06:55Z</time>
      </trkpt>
      <trkpt lat="42.31857" lon="2.23657">
        <ele>1730</ele>
        <time>2010-01-01T03:06:56Z</time>
      </trkpt>
      <trkpt lat="42.31859" lon="2.23654">
        <ele>1730</ele>
        <time>2010-01-01T03:06:57Z</time>
      </trkpt>
      <trkpt lat="42.3186" lon="2.23652">
        <ele>1731</ele>
        <time>2010-01-01T03:06:58Z</time>
      </trkpt>
      <trkpt lat="42.31863" lon="2.2365">
        <ele>1732</ele>
        <time>2010-01-01T03:06:59Z</time>
      </trkpt>
      <trkpt lat="42.31865" lon="2.23649">
        <ele>1732</ele>
        <time>2010-01-01T03:07:00Z</time>
      </trkpt>
      <trkpt lat="42.31867" lon="2.23648">
        <ele>1733</ele>
        <time>2010-01-01T03:07:01Z</time>
      </trkpt>
      <trkpt lat="42.31869" lon="2.23647">
        <ele>1733</ele>
        <time>2010-01-01T03:07:02Z</time>
      </trkpt>
      <trkpt lat="42.31871" lon="2.23647">
        <ele>1734</ele>
        <time>2010-01-01T03:07:02Z</time>
      </trkpt>
      <trkpt lat="42.31874" lon="2.23646">
        <ele>1734</ele>
        <time>2010-01-01T03:07:03Z</time>
      </trkpt>
      <trkpt lat="42.31875" lon="2.23645">
        <ele>1735</ele>
        <time>2010-01-01T03:07:04Z</time>
      </trkpt>
      <trkpt lat="42.31877" lon="2.23643">
        <ele>1735</ele>
        <time>2010-01-01T03:07:05Z</time>
      </trkpt>
      <trkpt lat="42.31879" lon="2.23642">
        <ele>1736</ele>
        <time>2010-01-01T03:07:06Z</time>
      </trkpt>
      <trkpt lat="42.31881" lon="2.23641">
        <ele>1737</ele>
        <time>2010-01-01T03:07:07Z</time>
      </trkpt>
      <trkpt lat="42.31883" lon="2.2364">
        <ele>1737</ele>
        <time>2010-01-01T03:07:07Z</time>
      </trkpt>
      <trkpt lat="42.31885" lon="2.2364">
        <ele>1738</ele>
        <time>2010-01-01T03:07:08Z</time>
      </trkpt>
      <trkpt lat="42.31889" lon="2.2364">
        <ele>1738</ele>
        <time>2010-01-01T03:07:10Z</time>
      </trkpt>
      <trkpt lat="42.31891" lon="2.23639">
        <ele>1739</ele>
        <time>2010-01-01T03:07:11Z</time>
      </trkpt>
      <trkpt lat="42.31893" lon="2.23639">
        <ele>1739</ele>
        <time>2010-01-01T03:07:12Z</time>
      </trkpt>
      <trkpt lat="42.31895" lon="2.23638">
        <ele>1740</ele>
        <time>2010-01-01T03:07:12Z</time>
      </trkpt>
      <trkpt lat="42.31897" lon="2.23637">
        <ele>1740</ele>
        <time>2010-01-01T03:07:13Z</time>
      </trkpt>
      <trkpt lat="42.31899" lon="2.23636">
        <ele>1741</ele>
        <time>2010-01-01T03:07:14Z</time>
      </trkpt>
      <trkpt lat="42.31901" lon="2.23635">
        <ele>1741</ele>
        <time>2010-01-01T03:07:15Z</time>
      </trkpt>
      <trkpt lat="42.31903" lon="2.23635">
        <ele>1742</ele>
        <time>2010-01-01T03:07:16Z</time>
      </trkpt>
      <trkpt lat="42.31906" lon="2.23634">
        <ele>1742</ele>
        <time>2010-01-01T03:07:17Z</time>
      </trkpt>
      <trkpt lat="42.31908" lon="2.23633">
        <ele>1743</ele>
        <time>2010-01-01T03:07:18Z</time>
      </trkpt>
      <trkpt lat="42.31911" lon="2.23632">
        <ele>1744</ele>
        <time>2010-01-01T03:07:19Z</time>
      </trkpt>
      <trkpt lat="42.31913" lon="2.23631">
        <ele>1745</ele>
        <time>2010-01-01T03:07:20Z</time>
      </trkpt>
      <trkpt lat="42.31915" lon="2.23631">
        <ele>1745</ele>
        <time>2010-01-01T03:07:21Z</time>
      </trkpt>
      <trkpt lat="42.31918" lon="2.2363">
        <ele>1746</ele>
        <time>2010-01-01T03:07:22Z</time>
      </trkpt>
      <trkpt lat="42.3192" lon="2.23629">
        <ele>1747</ele>
        <time>2010-01-01T03:07:23Z</time>
      </trkpt>
      <trkpt lat="42.31922" lon="2.23627">
        <ele>1748</ele>
        <time>2010-01-01T03:07:24Z</time>
      </trkpt>
      <trkpt lat="42.31924" lon="2.23626">
        <ele>1748</ele>
        <time>2010-01-01T03:07:25Z</time>
      </trkpt>
      <trkpt lat="42.31926" lon="2.23625">
        <ele>1749</ele>
        <time>2010-01-01T03:07:26Z</time>
      </trkpt>
      <trkpt lat="42.31929" lon="2.23624">
        <ele>1750</ele>
        <time>2010-01-01T03:07:27Z</time>
      </trkpt>
      <trkpt lat="42.31931" lon="2.23624">
        <ele>1750</ele>
        <time>2010-01-01T03:07:28Z</time>
      </trkpt>
      <trkpt lat="42.31933" lon="2.23623">
        <ele>1751</ele>
        <time>2010-01-01T03:07:29Z</time>
      </trkpt>
      <trkpt lat="42.31936" lon="2.23622">
        <ele>1751</ele>
        <time>2010-01-01T03:07:29Z</time>
      </trkpt>
      <trkpt lat="42.31938" lon="2.23622">
        <ele>1752</ele>
        <time>2010-01-01T03:07:30Z</time>
      </trkpt>
      <trkpt lat="42.3194" lon="2.23621">
        <ele>1752</ele>
        <time>2010-01-01T03:07:31Z</time>
      </trkpt>
      <trkpt lat="42.31942" lon="2.2362">
        <ele>1753</ele>
        <time>2010-01-01T03:07:32Z</time>
      </trkpt>
      <trkpt lat="42.31944" lon="2.23619">
        <ele>1754</ele>
        <time>2010-01-01T03:07:33Z</time>
      </trkpt>
      <trkpt lat="42.31946" lon="2.23619">
        <ele>1754</ele>
        <time>2010-01-01T03:07:34Z</time>
      </trkpt>
      <trkpt lat="42.31949" lon="2.23618">
        <ele>1754</ele>
        <time>2010-01-01T03:07:35Z</time>
      </trkpt>
      <trkpt lat="42.31951" lon="2.23617">
        <ele>1754</ele>
        <time>2010-01-01T03:07:36Z</time>
      </trkpt>
      <trkpt lat="42.31953" lon="2.23617">
        <ele>1755</ele>
        <time>2010-01-01T03:07:37Z</time>
      </trkpt>
      <trkpt lat="42.31956" lon="2.23617">
        <ele>1755</ele>
        <time>2010-01-01T03:07:38Z</time>
      </trkpt>
      <trkpt lat="42.31958" lon="2.23617">
        <ele>1755</ele>
        <time>2010-01-01T03:07:39Z</time>
      </trkpt>
      <trkpt lat="42.3196" lon="2.23618">
        <ele>1755</ele>
        <time>2010-01-01T03:07:39Z</time>
      </trkpt>
      <trkpt lat="42.31962" lon="2.23619">
        <ele>1755</ele>
        <time>2010-01-01T03:07:40Z</time>
      </trkpt>
      <trkpt lat="42.31964" lon="2.23618">
        <ele>1755</ele>
        <time>2010-01-01T03:07:41Z</time>
      </trkpt>
      <trkpt lat="42.31966" lon="2.23618">
        <ele>1755</ele>
        <time>2010-01-01T03:07:42Z</time>
      </trkpt>
      <trkpt lat="42.31968" lon="2.23619">
        <ele>1755</ele>
        <time>2010-01-01T03:07:43Z</time>
      </trkpt>
      <trkpt lat="42.3197" lon="2.23619">
        <ele>1755</ele>
        <time>2010-01-01T03:07:44Z</time>
      </trkpt>
      <trkpt lat="42.31973" lon="2.23618">
        <ele>1756</ele>
        <time>2010-01-01T03:07:45Z</time>
      </trkpt>
      <trkpt lat="42.31977" lon="2.23618">
        <ele>1756</ele>
        <time>2010-01-01T03:07:46Z</time>
      </trkpt>
      <trkpt lat="42.31979" lon="2.23619">
        <ele>1757</ele>
        <time>2010-01-01T03:07:47Z</time>
      </trkpt>
      <trkpt lat="42.31981" lon="2.23619">
        <ele>1757</ele>
        <time>2010-01-01T03:07:48Z</time>
      </trkpt>
      <trkpt lat="42.31983" lon="2.23618">
        <ele>1758</ele>
        <time>2010-01-01T03:07:49Z</time>
      </trkpt>
      <trkpt lat="42.31985" lon="2.23618">
        <ele>1758</ele>
        <time>2010-01-01T03:07:50Z</time>
      </trkpt>
      <trkpt lat="42.31987" lon="2.23618">
        <ele>1758</ele>
        <time>2010-01-01T03:07:50Z</time>
      </trkpt>
      <trkpt lat="42.3199" lon="2.23618">
        <ele>1759</ele>
        <time>2010-01-01T03:07:51Z</time>
      </trkpt>
      <trkpt lat="42.31992" lon="2.23618">
        <ele>1759</ele>
        <time>2010-01-01T03:07:52Z</time>
      </trkpt>
      <trkpt lat="42.31994" lon="2.23618">
        <ele>1760</ele>
        <time>2010-01-01T03:07:53Z</time>
      </trkpt>
      <trkpt lat="42.31996" lon="2.23619">
        <ele>1760</ele>
        <time>2010-01-01T03:07:54Z</time>
      </trkpt>
      <trkpt lat="42.31998" lon="2.23619">
        <ele>1760</ele>
        <time>2010-01-01T03:07:55Z</time>
      </trkpt>
      <trkpt lat="42.32" lon="2.23619">
        <ele>1761</ele>
        <time>2010-01-01T03:07:55Z</time>
      </trkpt>
      <trkpt lat="42.32002" lon="2.23618">
        <ele>1761</ele>
        <time>2010-01-01T03:07:56Z</time>
      </trkpt>
      <trkpt lat="42.32004" lon="2.23618">
        <ele>1761</ele>
        <time>2010-01-01T03:07:57Z</time>
      </trkpt>
      <trkpt lat="42.32006" lon="2.23619">
        <ele>1761</ele>
        <time>2010-01-01T03:07:58Z</time>
      </trkpt>
      <trkpt lat="42.32008" lon="2.23619">
        <ele>1762</ele>
        <time>2010-01-01T03:07:59Z</time>
      </trkpt>
      <trkpt lat="42.3201" lon="2.23618">
        <ele>1762</ele>
        <time>2010-01-01T03:07:59Z</time>
      </trkpt>
      <trkpt lat="42.32012" lon="2.23617">
        <ele>1762</ele>
        <time>2010-01-01T03:08:00Z</time>
      </trkpt>
      <trkpt lat="42.32016" lon="2.23616">
        <ele>1763</ele>
        <time>2010-01-01T03:08:02Z</time>
      </trkpt>
      <trkpt lat="42.32018" lon="2.23615">
        <ele>1763</ele>
        <time>2010-01-01T03:08:03Z</time>
      </trkpt>
      <trkpt lat="42.3202" lon="2.23615">
        <ele>1764</ele>
        <time>2010-01-01T03:08:04Z</time>
      </trkpt>
      <trkpt lat="42.32023" lon="2.23615">
        <ele>1764</ele>
        <time>2010-01-01T03:08:05Z</time>
      </trkpt>
      <trkpt lat="42.32025" lon="2.23614">
        <ele>1764</ele>
        <time>2010-01-01T03:08:06Z</time>
      </trkpt>
      <trkpt lat="42.32031" lon="2.23614">
        <ele>1765</ele>
        <time>2010-01-01T03:08:08Z</time>
      </trkpt>
      <trkpt lat="42.32034" lon="2.23613">
        <ele>1765</ele>
        <time>2010-01-01T03:08:09Z</time>
      </trkpt>
      <trkpt lat="42.32036" lon="2.23612">
        <ele>1765</ele>
        <time>2010-01-01T03:08:10Z</time>
      </trkpt>
      <trkpt lat="42.32038" lon="2.23612">
        <ele>1765</ele>
        <time>2010-01-01T03:08:11Z</time>
      </trkpt>
      <trkpt lat="42.32041" lon="2.23612">
        <ele>1765</ele>
        <time>2010-01-01T03:08:12Z</time>
      </trkpt>
      <trkpt lat="42.32043" lon="2.23612">
        <ele>1765</ele>
        <time>2010-01-01T03:08:13Z</time>
      </trkpt>
      <trkpt lat="42.32045" lon="2.23611">
        <ele>1765</ele>
        <time>2010-01-01T03:08:14Z</time>
      </trkpt>
      <trkpt lat="42.32047" lon="2.23611">
        <ele>1765</ele>
        <time>2010-01-01T03:08:15Z</time>
      </trkpt>
      <trkpt lat="42.32049" lon="2.2361">
        <ele>1765</ele>
        <time>2010-01-01T03:08:16Z</time>
      </trkpt>
      <trkpt lat="42.32051" lon="2.2361">
        <ele>1765</ele>
        <time>2010-01-01T03:08:16Z</time>
      </trkpt>
      <trkpt lat="42.32053" lon="2.2361">
        <ele>1765</ele>
        <time>2010-01-01T03:08:17Z</time>
      </trkpt>
      <trkpt lat="42.32057" lon="2.2361">
        <ele>1765</ele>
        <time>2010-01-01T03:08:19Z</time>
      </trkpt>
      <trkpt lat="42.32059" lon="2.23611">
        <ele>1766</ele>
        <time>2010-01-01T03:08:20Z</time>
      </trkpt>
      <trkpt lat="42.32061" lon="2.23611">
        <ele>1766</ele>
        <time>2010-01-01T03:08:20Z</time>
      </trkpt>
      <trkpt lat="42.32063" lon="2.23611">
        <ele>1766</ele>
        <time>2010-01-01T03:08:21Z</time>
      </trkpt>
      <trkpt lat="42.32065" lon="2.2361">
        <ele>1766</ele>
        <time>2010-01-01T03:08:22Z</time>
      </trkpt>
      <trkpt lat="42.32067" lon="2.23611">
        <ele>1766</ele>
        <time>2010-01-01T03:08:23Z</time>
      </trkpt>
      <trkpt lat="42.32069" lon="2.2361">
        <ele>1766</ele>
        <time>2010-01-01T03:08:24Z</time>
      </trkpt>
      <trkpt lat="42.32073" lon="2.23611">
        <ele>1767</ele>
        <time>2010-01-01T03:08:25Z</time>
      </trkpt>
      <trkpt lat="42.32078" lon="2.23611">
        <ele>1767</ele>
        <time>2010-01-01T03:08:27Z</time>
      </trkpt>
      <trkpt lat="42.3208" lon="2.23611">
        <ele>1767</ele>
        <time>2010-01-01T03:08:28Z</time>
      </trkpt>
      <trkpt lat="42.32082" lon="2.23611">
        <ele>1767</ele>
        <time>2010-01-01T03:08:29Z</time>
      </trkpt>
      <trkpt lat="42.32085" lon="2.23611">
        <ele>1768</ele>
        <time>2010-01-01T03:08:30Z</time>
      </trkpt>
      <trkpt lat="42.32087" lon="2.23611">
        <ele>1768</ele>
        <time>2010-01-01T03:08:31Z</time>
      </trkpt>
      <trkpt lat="42.3209" lon="2.2361">
        <ele>1769</ele>
        <time>2010-01-01T03:08:32Z</time>
      </trkpt>
      <trkpt lat="42.32092" lon="2.2361">
        <ele>1769</ele>
        <time>2010-01-01T03:08:33Z</time>
      </trkpt>
      <trkpt lat="42.32094" lon="2.23609">
        <ele>1769</ele>
        <time>2010-01-01T03:08:34Z</time>
      </trkpt>
      <trkpt lat="42.32097" lon="2.23609">
        <ele>1770</ele>
        <time>2010-01-01T03:08:35Z</time>
      </trkpt>
      <trkpt lat="42.32099" lon="2.23609">
        <ele>1770</ele>
        <time>2010-01-01T03:08:36Z</time>
      </trkpt>
      <trkpt lat="42.32102" lon="2.23608">
        <ele>1771</ele>
        <time>2010-01-01T03:08:37Z</time>
      </trkpt>
      <trkpt lat="42.32104" lon="2.23608">
        <ele>1771</ele>
        <time>2010-01-01T03:08:38Z</time>
      </trkpt>
      <trkpt lat="42.32106" lon="2.23607">
        <ele>1771</ele>
        <time>2010-01-01T03:08:39Z</time>
      </trkpt>
      <trkpt lat="42.3211" lon="2.23607">
        <ele>1772</ele>
        <time>2010-01-01T03:08:40Z</time>
      </trkpt>
      <trkpt lat="42.32113" lon="2.23606">
        <ele>1773</ele>
        <time>2010-01-01T03:08:41Z</time>
      </trkpt>
      <trkpt lat="42.32115" lon="2.23606">
        <ele>1773</ele>
        <time>2010-01-01T03:08:42Z</time>
      </trkpt>
      <trkpt lat="42.32117" lon="2.23605">
        <ele>1773</ele>
        <time>2010-01-01T03:08:43Z</time>
      </trkpt>
      <trkpt lat="42.32119" lon="2.23606">
        <ele>1773</ele>
        <time>2010-01-01T03:08:44Z</time>
      </trkpt>
      <trkpt lat="42.32124" lon="2.23605">
        <ele>1774</ele>
        <time>2010-01-01T03:08:46Z</time>
      </trkpt>
      <trkpt lat="42.3213" lon="2.23605">
        <ele>1775</ele>
        <time>2010-01-01T03:08:48Z</time>
      </trkpt>
      <trkpt lat="42.32132" lon="2.23605">
        <ele>1775</ele>
        <time>2010-01-01T03:08:49Z</time>
      </trkpt>
      <trkpt lat="42.32134" lon="2.23604">
        <ele>1775</ele>
        <time>2010-01-01T03:08:50Z</time>
      </trkpt>
      <trkpt lat="42.32136" lon="2.23604">
        <ele>1775</ele>
        <time>2010-01-01T03:08:51Z</time>
      </trkpt>
      <trkpt lat="42.32138" lon="2.23603">
        <ele>1776</ele>
        <time>2010-01-01T03:08:52Z</time>
      </trkpt>
      <trkpt lat="42.3214" lon="2.23602">
        <ele>1776</ele>
        <time>2010-01-01T03:08:52Z</time>
      </trkpt>
      <trkpt lat="42.32142" lon="2.23601">
        <ele>1777</ele>
        <time>2010-01-01T03:08:53Z</time>
      </trkpt>
      <trkpt lat="42.32144" lon="2.236">
        <ele>1777</ele>
        <time>2010-01-01T03:08:54Z</time>
      </trkpt>
      <trkpt lat="42.32146" lon="2.236">
        <ele>1778</ele>
        <time>2010-01-01T03:08:55Z</time>
      </trkpt>
      <trkpt lat="42.32148" lon="2.236">
        <ele>1779</ele>
        <time>2010-01-01T03:08:56Z</time>
      </trkpt>
      <trkpt lat="42.3215" lon="2.236">
        <ele>1779</ele>
        <time>2010-01-01T03:08:57Z</time>
      </trkpt>
      <trkpt lat="42.32152" lon="2.23599">
        <ele>1780</ele>
        <time>2010-01-01T03:08:57Z</time>
      </trkpt>
      <trkpt lat="42.32155" lon="2.236">
        <ele>1780</ele>
        <time>2010-01-01T03:08:58Z</time>
      </trkpt>
      <trkpt lat="42.32156" lon="2.236">
        <ele>1781</ele>
        <time>2010-01-01T03:08:59Z</time>
      </trkpt>
      <trkpt lat="42.32158" lon="2.23599">
        <ele>1781</ele>
        <time>2010-01-01T03:09:00Z</time>
      </trkpt>
      <trkpt lat="42.32161" lon="2.23599">
        <ele>1782</ele>
        <time>2010-01-01T03:09:01Z</time>
      </trkpt>
      <trkpt lat="42.32163" lon="2.23598">
        <ele>1782</ele>
        <time>2010-01-01T03:09:02Z</time>
      </trkpt>
      <trkpt lat="42.32164" lon="2.23599">
        <ele>1783</ele>
        <time>2010-01-01T03:09:02Z</time>
      </trkpt>
      <trkpt lat="42.32166" lon="2.23599">
        <ele>1783</ele>
        <time>2010-01-01T03:09:03Z</time>
      </trkpt>
      <trkpt lat="42.32169" lon="2.23598">
        <ele>1784</ele>
        <time>2010-01-01T03:09:04Z</time>
      </trkpt>
      <trkpt lat="42.32171" lon="2.23597">
        <ele>1784</ele>
        <time>2010-01-01T03:09:05Z</time>
      </trkpt>
      <trkpt lat="42.32173" lon="2.23597">
        <ele>1785</ele>
        <time>2010-01-01T03:09:06Z</time>
      </trkpt>
      <trkpt lat="42.32174" lon="2.23597">
        <ele>1785</ele>
        <time>2010-01-01T03:09:06Z</time>
      </trkpt>
      <trkpt lat="42.32177" lon="2.23597">
        <ele>1786</ele>
        <time>2010-01-01T03:09:07Z</time>
      </trkpt>
      <trkpt lat="42.32179" lon="2.23597">
        <ele>1786</ele>
        <time>2010-01-01T03:09:08Z</time>
      </trkpt>
      <trkpt lat="42.32181" lon="2.23597">
        <ele>1787</ele>
        <time>2010-01-01T03:09:09Z</time>
      </trkpt>
      <trkpt lat="42.32183" lon="2.23597">
        <ele>1787</ele>
        <time>2010-01-01T03:09:10Z</time>
      </trkpt>
      <trkpt lat="42.32185" lon="2.23595">
        <ele>1788</ele>
        <time>2010-01-01T03:09:11Z</time>
      </trkpt>
      <trkpt lat="42.32186" lon="2.23594">
        <ele>1788</ele>
        <time>2010-01-01T03:09:11Z</time>
      </trkpt>
      <trkpt lat="42.32188" lon="2.23593">
        <ele>1788</ele>
        <time>2010-01-01T03:09:12Z</time>
      </trkpt>
      <trkpt lat="42.3219" lon="2.23592">
        <ele>1789</ele>
        <time>2010-01-01T03:09:13Z</time>
      </trkpt>
      <trkpt lat="42.32193" lon="2.23592">
        <ele>1789</ele>
        <time>2010-01-01T03:09:14Z</time>
      </trkpt>
      <trkpt lat="42.32195" lon="2.23591">
        <ele>1790</ele>
        <time>2010-01-01T03:09:15Z</time>
      </trkpt>
      <trkpt lat="42.32197" lon="2.23593">
        <ele>1790</ele>
        <time>2010-01-01T03:09:16Z</time>
      </trkpt>
      <trkpt lat="42.322" lon="2.23594">
        <ele>1791</ele>
        <time>2010-01-01T03:09:17Z</time>
      </trkpt>
      <trkpt lat="42.32202" lon="2.23593">
        <ele>1791</ele>
        <time>2010-01-01T03:09:18Z</time>
      </trkpt>
      <trkpt lat="42.32204" lon="2.23592">
        <ele>1791</ele>
        <time>2010-01-01T03:09:19Z</time>
      </trkpt>
      <trkpt lat="42.32206" lon="2.23592">
        <ele>1792</ele>
        <time>2010-01-01T03:09:20Z</time>
      </trkpt>
      <trkpt lat="42.32208" lon="2.23591">
        <ele>1792</ele>
        <time>2010-01-01T03:09:21Z</time>
      </trkpt>
      <trkpt lat="42.32211" lon="2.23591">
        <ele>1792</ele>
        <time>2010-01-01T03:09:21Z</time>
      </trkpt>
      <trkpt lat="42.32213" lon="2.23591">
        <ele>1792</ele>
        <time>2010-01-01T03:09:22Z</time>
      </trkpt>
      <trkpt lat="42.32215" lon="2.23592">
        <ele>1793</ele>
        <time>2010-01-01T03:09:23Z</time>
      </trkpt>
      <trkpt lat="42.32217" lon="2.23593">
        <ele>1793</ele>
        <time>2010-01-01T03:09:24Z</time>
      </trkpt>
      <trkpt lat="42.32219" lon="2.23593">
        <ele>1793</ele>
        <time>2010-01-01T03:09:25Z</time>
      </trkpt>
      <trkpt lat="42.32221" lon="2.23593">
        <ele>1794</ele>
        <time>2010-01-01T03:09:26Z</time>
      </trkpt>
      <trkpt lat="42.32223" lon="2.23593">
        <ele>1794</ele>
        <time>2010-01-01T03:09:27Z</time>
      </trkpt>
      <trkpt lat="42.32225" lon="2.23593">
        <ele>1794</ele>
        <time>2010-01-01T03:09:27Z</time>
      </trkpt>
      <trkpt lat="42.3223" lon="2.23593">
        <ele>1795</ele>
        <time>2010-01-01T03:09:29Z</time>
      </trkpt>
      <trkpt lat="42.32232" lon="2.23593">
        <ele>1795</ele>
        <time>2010-01-01T03:09:30Z</time>
      </trkpt>
      <trkpt lat="42.32234" lon="2.23593">
        <ele>1796</ele>
        <time>2010-01-01T03:09:31Z</time>
      </trkpt>
      <trkpt lat="42.32236" lon="2.23593">
        <ele>1796</ele>
        <time>2010-01-01T03:09:32Z</time>
      </trkpt>
      <trkpt lat="42.32238" lon="2.23594">
        <ele>1796</ele>
        <time>2010-01-01T03:09:33Z</time>
      </trkpt>
      <trkpt lat="42.32241" lon="2.23593">
        <ele>1797</ele>
        <time>2010-01-01T03:09:34Z</time>
      </trkpt>
      <trkpt lat="42.32243" lon="2.23593">
        <ele>1797</ele>
        <time>2010-01-01T03:09:35Z</time>
      </trkpt>
      <trkpt lat="42.32246" lon="2.23591">
        <ele>1797</ele>
        <time>2010-01-01T03:09:36Z</time>
      </trkpt>
      <trkpt lat="42.32248" lon="2.23589">
        <ele>1797</ele>
        <time>2010-01-01T03:09:37Z</time>
      </trkpt>
      <trkpt lat="42.3225" lon="2.23589">
        <ele>1798</ele>
        <time>2010-01-01T03:09:38Z</time>
      </trkpt>
      <trkpt lat="42.32252" lon="2.23589">
        <ele>1798</ele>
        <time>2010-01-01T03:09:39Z</time>
      </trkpt>
      <trkpt lat="42.32254" lon="2.23588">
        <ele>1798</ele>
        <time>2010-01-01T03:09:39Z</time>
      </trkpt>
      <trkpt lat="42.32257" lon="2.23588">
        <ele>1798</ele>
        <time>2010-01-01T03:09:40Z</time>
      </trkpt>
      <trkpt lat="42.32259" lon="2.23587">
        <ele>1798</ele>
        <time>2010-01-01T03:09:41Z</time>
      </trkpt>
      <trkpt lat="42.32262" lon="2.23586">
        <ele>1798</ele>
        <time>2010-01-01T03:09:42Z</time>
      </trkpt>
      <trkpt lat="42.32264" lon="2.23585">
        <ele>1799</ele>
        <time>2010-01-01T03:09:43Z</time>
      </trkpt>
      <trkpt lat="42.32267" lon="2.23585">
        <ele>1799</ele>
        <time>2010-01-01T03:09:44Z</time>
      </trkpt>
      <trkpt lat="42.32269" lon="2.23585">
        <ele>1799</ele>
        <time>2010-01-01T03:09:45Z</time>
      </trkpt>
      <trkpt lat="42.32274" lon="2.23584">
        <ele>1799</ele>
        <time>2010-01-01T03:09:48Z</time>
      </trkpt>
      <trkpt lat="42.32277" lon="2.23584">
        <ele>1799</ele>
        <time>2010-01-01T03:09:49Z</time>
      </trkpt>
      <trkpt lat="42.32279" lon="2.23583">
        <ele>1800</ele>
        <time>2010-01-01T03:09:50Z</time>
      </trkpt>
      <trkpt lat="42.32282" lon="2.23581">
        <ele>1800</ele>
        <time>2010-01-01T03:09:51Z</time>
      </trkpt>
      <trkpt lat="42.32284" lon="2.2358">
        <ele>1800</ele>
        <time>2010-01-01T03:09:52Z</time>
      </trkpt>
      <trkpt lat="42.32287" lon="2.23579">
        <ele>1800</ele>
        <time>2010-01-01T03:09:53Z</time>
      </trkpt>
      <trkpt lat="42.3229" lon="2.23578">
        <ele>1800</ele>
        <time>2010-01-01T03:09:54Z</time>
      </trkpt>
      <trkpt lat="42.32292" lon="2.23577">
        <ele>1800</ele>
        <time>2010-01-01T03:09:55Z</time>
      </trkpt>
      <trkpt lat="42.32294" lon="2.23575">
        <ele>1800</ele>
        <time>2010-01-01T03:09:56Z</time>
      </trkpt>
      <trkpt lat="42.32297" lon="2.23573">
        <ele>1800</ele>
        <time>2010-01-01T03:09:57Z</time>
      </trkpt>
      <trkpt lat="42.32299" lon="2.23572">
        <ele>1800</ele>
        <time>2010-01-01T03:09:58Z</time>
      </trkpt>
      <trkpt lat="42.32302" lon="2.23571">
        <ele>1801</ele>
        <time>2010-01-01T03:09:59Z</time>
      </trkpt>
      <trkpt lat="42.32304" lon="2.2357">
        <ele>1801</ele>
        <time>2010-01-01T03:10:00Z</time>
      </trkpt>
      <trkpt lat="42.32307" lon="2.23568">
        <ele>1801</ele>
        <time>2010-01-01T03:10:01Z</time>
      </trkpt>
      <trkpt lat="42.3231" lon="2.23567">
        <ele>1801</ele>
        <time>2010-01-01T03:10:03Z</time>
      </trkpt>
      <trkpt lat="42.32312" lon="2.23566">
        <ele>1801</ele>
        <time>2010-01-01T03:10:04Z</time>
      </trkpt>
      <trkpt lat="42.32315" lon="2.23565">
        <ele>1801</ele>
        <time>2010-01-01T03:10:05Z</time>
      </trkpt>
      <trkpt lat="42.32318" lon="2.23564">
        <ele>1801</ele>
        <time>2010-01-01T03:10:06Z</time>
      </trkpt>
      <trkpt lat="42.3232" lon="2.23563">
        <ele>1801</ele>
        <time>2010-01-01T03:10:07Z</time>
      </trkpt>
      <trkpt lat="42.32322" lon="2.23562">
        <ele>1801</ele>
        <time>2010-01-01T03:10:08Z</time>
      </trkpt>
      <trkpt lat="42.32325" lon="2.2356">
        <ele>1801</ele>
        <time>2010-01-01T03:10:09Z</time>
      </trkpt>
      <trkpt lat="42.32327" lon="2.23558">
        <ele>1801</ele>
        <time>2010-01-01T03:10:10Z</time>
      </trkpt>
      <trkpt lat="42.3233" lon="2.23556">
        <ele>1801</ele>
        <time>2010-01-01T03:10:11Z</time>
      </trkpt>
      <trkpt lat="42.32332" lon="2.23554">
        <ele>1802</ele>
        <time>2010-01-01T03:10:13Z</time>
      </trkpt>
      <trkpt lat="42.32335" lon="2.23552">
        <ele>1802</ele>
        <time>2010-01-01T03:10:14Z</time>
      </trkpt>
      <trkpt lat="42.32338" lon="2.23551">
        <ele>1801</ele>
        <time>2010-01-01T03:10:15Z</time>
      </trkpt>
      <trkpt lat="42.3234" lon="2.23549">
        <ele>1801</ele>
        <time>2010-01-01T03:10:16Z</time>
      </trkpt>
      <trkpt lat="42.32341" lon="2.23549">
        <ele>1801</ele>
        <time>2010-01-01T03:10:16Z</time>
      </trkpt>
      <trkpt lat="42.32343" lon="2.23548">
        <ele>1801</ele>
        <time>2010-01-01T03:10:17Z</time>
      </trkpt>
      <trkpt lat="42.32346" lon="2.23546">
        <ele>1801</ele>
        <time>2010-01-01T03:10:18Z</time>
      </trkpt>
      <trkpt lat="42.32348" lon="2.23545">
        <ele>1801</ele>
        <time>2010-01-01T03:10:20Z</time>
      </trkpt>
      <trkpt lat="42.32351" lon="2.23543">
        <ele>1801</ele>
        <time>2010-01-01T03:10:21Z</time>
      </trkpt>
      <trkpt lat="42.32354" lon="2.23542">
        <ele>1801</ele>
        <time>2010-01-01T03:10:22Z</time>
      </trkpt>
      <trkpt lat="42.32357" lon="2.2354">
        <ele>1801</ele>
        <time>2010-01-01T03:10:23Z</time>
      </trkpt>
      <trkpt lat="42.32359" lon="2.23538">
        <ele>1801</ele>
        <time>2010-01-01T03:10:24Z</time>
      </trkpt>
      <trkpt lat="42.32362" lon="2.23536">
        <ele>1801</ele>
        <time>2010-01-01T03:10:26Z</time>
      </trkpt>
      <trkpt lat="42.32365" lon="2.23534">
        <ele>1801</ele>
        <time>2010-01-01T03:10:27Z</time>
      </trkpt>
      <trkpt lat="42.32367" lon="2.23532">
        <ele>1802</ele>
        <time>2010-01-01T03:10:28Z</time>
      </trkpt>
      <trkpt lat="42.3237" lon="2.2353">
        <ele>1802</ele>
        <time>2010-01-01T03:10:29Z</time>
      </trkpt>
      <trkpt lat="42.32372" lon="2.23528">
        <ele>1802</ele>
        <time>2010-01-01T03:10:30Z</time>
      </trkpt>
      <trkpt lat="42.32375" lon="2.23526">
        <ele>1802</ele>
        <time>2010-01-01T03:10:32Z</time>
      </trkpt>
      <trkpt lat="42.32377" lon="2.23524">
        <ele>1802</ele>
        <time>2010-01-01T03:10:33Z</time>
      </trkpt>
      <trkpt lat="42.3238" lon="2.23523">
        <ele>1802</ele>
        <time>2010-01-01T03:10:34Z</time>
      </trkpt>
      <trkpt lat="42.32381" lon="2.2352">
        <ele>1802</ele>
        <time>2010-01-01T03:10:35Z</time>
      </trkpt>
      <trkpt lat="42.32382" lon="2.23518">
        <ele>1802</ele>
        <time>2010-01-01T03:10:35Z</time>
      </trkpt>
      <trkpt lat="42.32385" lon="2.23516">
        <ele>1802</ele>
        <time>2010-01-01T03:10:37Z</time>
      </trkpt>
      <trkpt lat="42.32387" lon="2.23516">
        <ele>1802</ele>
        <time>2010-01-01T03:10:37Z</time>
      </trkpt>
      <trkpt lat="42.32389" lon="2.23516">
        <ele>1802</ele>
        <time>2010-01-01T03:10:38Z</time>
      </trkpt>
      <trkpt lat="42.32391" lon="2.23517">
        <ele>1802</ele>
        <time>2010-01-01T03:10:39Z</time>
      </trkpt>
      <trkpt lat="42.32389" lon="2.23518">
        <ele>1802</ele>
        <time>2010-01-01T03:10:40Z</time>
      </trkpt>
      <trkpt lat="42.32391" lon="2.23519">
        <ele>1802</ele>
        <time>2010-01-01T03:10:41Z</time>
      </trkpt>
      <trkpt lat="42.32392" lon="2.23521">
        <ele>1802</ele>
        <time>2010-01-01T03:10:42Z</time>
      </trkpt>
      <trkpt lat="42.32397" lon="2.2352">
        <ele>1802</ele>
        <time>2010-01-01T03:10:44Z</time>
      </trkpt>
      <trkpt lat="42.32398" lon="2.2352">
        <ele>1803</ele>
        <time>2010-01-01T03:10:44Z</time>
      </trkpt>
      <trkpt lat="42.32401" lon="2.23518">
        <ele>1803</ele>
        <time>2010-01-01T03:10:45Z</time>
      </trkpt>
      <trkpt lat="42.32403" lon="2.23517">
        <ele>1803</ele>
        <time>2010-01-01T03:10:46Z</time>
      </trkpt>
      <trkpt lat="42.32404" lon="2.23516">
        <ele>1804</ele>
        <time>2010-01-01T03:10:47Z</time>
      </trkpt>
      <trkpt lat="42.32408" lon="2.23517">
        <ele>1804</ele>
        <time>2010-01-01T03:10:49Z</time>
      </trkpt>
      <trkpt lat="42.3241" lon="2.23519">
        <ele>1804</ele>
        <time>2010-01-01T03:10:50Z</time>
      </trkpt>
      <trkpt lat="42.32413" lon="2.23519">
        <ele>1804</ele>
        <time>2010-01-01T03:10:51Z</time>
      </trkpt>
      <trkpt lat="42.32415" lon="2.2352">
        <ele>1804</ele>
        <time>2010-01-01T03:10:52Z</time>
      </trkpt>
      <trkpt lat="42.32417" lon="2.23521">
        <ele>1804</ele>
        <time>2010-01-01T03:10:52Z</time>
      </trkpt>
      <trkpt lat="42.32421" lon="2.23517">
        <ele>1806</ele>
        <time>2010-01-01T03:10:54Z</time>
      </trkpt>
      <trkpt lat="42.32423" lon="2.23514">
        <ele>1806</ele>
        <time>2010-01-01T03:10:55Z</time>
      </trkpt>
      <trkpt lat="42.32424" lon="2.23513">
        <ele>1807</ele>
        <time>2010-01-01T03:10:56Z</time>
      </trkpt>
      <trkpt lat="42.32426" lon="2.23514">
        <ele>1807</ele>
        <time>2010-01-01T03:10:57Z</time>
      </trkpt>
      <trkpt lat="42.32429" lon="2.23515">
        <ele>1808</ele>
        <time>2010-01-01T03:10:58Z</time>
      </trkpt>
      <trkpt lat="42.32431" lon="2.23516">
        <ele>1808</ele>
        <time>2010-01-01T03:10:59Z</time>
      </trkpt>
      <trkpt lat="42.32432" lon="2.23517">
        <ele>1808</ele>
        <time>2010-01-01T03:11:00Z</time>
      </trkpt>
      <trkpt lat="42.32434" lon="2.23518">
        <ele>1809</ele>
        <time>2010-01-01T03:11:01Z</time>
      </trkpt>
      <trkpt lat="42.32436" lon="2.2352">
        <ele>1809</ele>
        <time>2010-01-01T03:11:01Z</time>
      </trkpt>
      <trkpt lat="42.32439" lon="2.23521">
        <ele>1810</ele>
        <time>2010-01-01T03:11:02Z</time>
      </trkpt>
      <trkpt lat="42.32441" lon="2.23521">
        <ele>1810</ele>
        <time>2010-01-01T03:11:03Z</time>
      </trkpt>
      <trkpt lat="42.32445" lon="2.23522">
        <ele>1811</ele>
        <time>2010-01-01T03:11:05Z</time>
      </trkpt>
      <trkpt lat="42.32447" lon="2.23522">
        <ele>1811</ele>
        <time>2010-01-01T03:11:06Z</time>
      </trkpt>
      <trkpt lat="42.32449" lon="2.23521">
        <ele>1812</ele>
        <time>2010-01-01T03:11:07Z</time>
      </trkpt>
      <trkpt lat="42.32451" lon="2.23522">
        <ele>1812</ele>
        <time>2010-01-01T03:11:07Z</time>
      </trkpt>
      <trkpt lat="42.32453" lon="2.23521">
        <ele>1813</ele>
        <time>2010-01-01T03:11:08Z</time>
      </trkpt>
      <trkpt lat="42.32456" lon="2.23521">
        <ele>1813</ele>
        <time>2010-01-01T03:11:09Z</time>
      </trkpt>
      <trkpt lat="42.32457" lon="2.23522">
        <ele>1813</ele>
        <time>2010-01-01T03:11:10Z</time>
      </trkpt>
      <trkpt lat="42.32459" lon="2.23523">
        <ele>1814</ele>
        <time>2010-01-01T03:11:11Z</time>
      </trkpt>
      <trkpt lat="42.32461" lon="2.23523">
        <ele>1814</ele>
        <time>2010-01-01T03:11:12Z</time>
      </trkpt>
      <trkpt lat="42.32463" lon="2.23523">
        <ele>1814</ele>
        <time>2010-01-01T03:11:12Z</time>
      </trkpt>
      <trkpt lat="42.32468" lon="2.23523">
        <ele>1815</ele>
        <time>2010-01-01T03:11:14Z</time>
      </trkpt>
      <trkpt lat="42.3247" lon="2.23522">
        <ele>1816</ele>
        <time>2010-01-01T03:11:15Z</time>
      </trkpt>
      <trkpt lat="42.32472" lon="2.23521">
        <ele>1817</ele>
        <time>2010-01-01T03:11:16Z</time>
      </trkpt>
      <trkpt lat="42.32474" lon="2.23519">
        <ele>1817</ele>
        <time>2010-01-01T03:11:17Z</time>
      </trkpt>
      <trkpt lat="42.32478" lon="2.23517">
        <ele>1818</ele>
        <time>2010-01-01T03:11:19Z</time>
      </trkpt>
      <trkpt lat="42.3248" lon="2.23517">
        <ele>1819</ele>
        <time>2010-01-01T03:11:20Z</time>
      </trkpt>
      <trkpt lat="42.32483" lon="2.23516">
        <ele>1820</ele>
        <time>2010-01-01T03:11:21Z</time>
      </trkpt>
      <trkpt lat="42.32485" lon="2.23515">
        <ele>1820</ele>
        <time>2010-01-01T03:11:22Z</time>
      </trkpt>
      <trkpt lat="42.32487" lon="2.23515">
        <ele>1821</ele>
        <time>2010-01-01T03:11:22Z</time>
      </trkpt>
      <trkpt lat="42.32492" lon="2.23515">
        <ele>1822</ele>
        <time>2010-01-01T03:11:24Z</time>
      </trkpt>
      <trkpt lat="42.32495" lon="2.23514">
        <ele>1823</ele>
        <time>2010-01-01T03:11:26Z</time>
      </trkpt>
      <trkpt lat="42.32497" lon="2.23514">
        <ele>1823</ele>
        <time>2010-01-01T03:11:26Z</time>
      </trkpt>
      <trkpt lat="42.32498" lon="2.23511">
        <ele>1824</ele>
        <time>2010-01-01T03:11:27Z</time>
      </trkpt>
      <trkpt lat="42.325" lon="2.23509">
        <ele>1825</ele>
        <time>2010-01-01T03:11:28Z</time>
      </trkpt>
      <trkpt lat="42.32502" lon="2.23504">
        <ele>1828</ele>
        <time>2010-01-01T03:11:30Z</time>
      </trkpt>
      <trkpt lat="42.32504" lon="2.23502">
        <ele>1829</ele>
        <time>2010-01-01T03:11:31Z</time>
      </trkpt>
      <trkpt lat="42.32505" lon="2.235">
        <ele>1830</ele>
        <time>2010-01-01T03:11:32Z</time>
      </trkpt>
      <trkpt lat="42.32507" lon="2.23498">
        <ele>1831</ele>
        <time>2010-01-01T03:11:32Z</time>
      </trkpt>
      <trkpt lat="42.32511" lon="2.23493">
        <ele>1833</ele>
        <time>2010-01-01T03:11:35Z</time>
      </trkpt>
      <trkpt lat="42.32513" lon="2.23489">
        <ele>1835</ele>
        <time>2010-01-01T03:11:36Z</time>
      </trkpt>
      <trkpt lat="42.32516" lon="2.23483">
        <ele>1837</ele>
        <time>2010-01-01T03:11:38Z</time>
      </trkpt>
      <trkpt lat="42.32517" lon="2.2348">
        <ele>1838</ele>
        <time>2010-01-01T03:11:39Z</time>
      </trkpt>
      <trkpt lat="42.32518" lon="2.23479">
        <ele>1839</ele>
        <time>2010-01-01T03:11:40Z</time>
      </trkpt>
      <trkpt lat="42.32521" lon="2.23473">
        <ele>1841</ele>
        <time>2010-01-01T03:11:42Z</time>
      </trkpt>
      <trkpt lat="42.32524" lon="2.2347">
        <ele>1843</ele>
        <time>2010-01-01T03:11:43Z</time>
      </trkpt>
      <trkpt lat="42.32526" lon="2.23469">
        <ele>1844</ele>
        <time>2010-01-01T03:11:44Z</time>
      </trkpt>
      <trkpt lat="42.32524" lon="2.23471">
        <ele>1842</ele>
        <time>2010-01-01T03:11:45Z</time>
      </trkpt>
      <trkpt lat="42.32525" lon="2.23468">
        <ele>1844</ele>
        <time>2010-01-01T03:11:47Z</time>
      </trkpt>
      <trkpt lat="42.32527" lon="2.23466">
        <ele>1844</ele>
        <time>2010-01-01T03:11:47Z</time>
      </trkpt>
      <trkpt lat="42.32528" lon="2.23464">
        <ele>1845</ele>
        <time>2010-01-01T03:11:48Z</time>
      </trkpt>
      <trkpt lat="42.32529" lon="2.23461">
        <ele>1846</ele>
        <time>2010-01-01T03:11:49Z</time>
      </trkpt>
      <trkpt lat="42.32531" lon="2.23455">
        <ele>1847</ele>
        <time>2010-01-01T03:11:51Z</time>
      </trkpt>
      <trkpt lat="42.32532" lon="2.23452">
        <ele>1848</ele>
        <time>2010-01-01T03:11:52Z</time>
      </trkpt>
      <trkpt lat="42.32531" lon="2.23449">
        <ele>1848</ele>
        <time>2010-01-01T03:11:53Z</time>
      </trkpt>
      <trkpt lat="42.32532" lon="2.23446">
        <ele>1849</ele>
        <time>2010-01-01T03:11:54Z</time>
      </trkpt>
      <trkpt lat="42.32533" lon="2.23444">
        <ele>1850</ele>
        <time>2010-01-01T03:11:55Z</time>
      </trkpt>
      <trkpt lat="42.32535" lon="2.23442">
        <ele>1850</ele>
        <time>2010-01-01T03:11:56Z</time>
      </trkpt>
      <trkpt lat="42.32538" lon="2.23437">
        <ele>1851</ele>
        <time>2010-01-01T03:11:57Z</time>
      </trkpt>
      <trkpt lat="42.3254" lon="2.23436">
        <ele>1852</ele>
        <time>2010-01-01T03:11:58Z</time>
      </trkpt>
      <trkpt lat="42.32543" lon="2.23432">
        <ele>1853</ele>
        <time>2010-01-01T03:12:00Z</time>
      </trkpt>
      <trkpt lat="42.32546" lon="2.23431">
        <ele>1854</ele>
        <time>2010-01-01T03:12:01Z</time>
      </trkpt>
      <trkpt lat="42.32548" lon="2.2343">
        <ele>1854</ele>
        <time>2010-01-01T03:12:02Z</time>
      </trkpt>
      <trkpt lat="42.3255" lon="2.23429">
        <ele>1855</ele>
        <time>2010-01-01T03:12:03Z</time>
      </trkpt>
      <trkpt lat="42.32551" lon="2.23426">
        <ele>1856</ele>
        <time>2010-01-01T03:12:04Z</time>
      </trkpt>
      <trkpt lat="42.32552" lon="2.23424">
        <ele>1857</ele>
        <time>2010-01-01T03:12:04Z</time>
      </trkpt>
      <trkpt lat="42.32554" lon="2.23422">
        <ele>1858</ele>
        <time>2010-01-01T03:12:06Z</time>
      </trkpt>
      <trkpt lat="42.32556" lon="2.23422">
        <ele>1859</ele>
        <time>2010-01-01T03:12:06Z</time>
      </trkpt>
      <trkpt lat="42.32558" lon="2.2342">
        <ele>1859</ele>
        <time>2010-01-01T03:12:07Z</time>
      </trkpt>
      <trkpt lat="42.32563" lon="2.23417">
        <ele>1861</ele>
        <time>2010-01-01T03:12:10Z</time>
      </trkpt>
      <trkpt lat="42.32564" lon="2.23415">
        <ele>1862</ele>
        <time>2010-01-01T03:12:10Z</time>
      </trkpt>
      <trkpt lat="42.32565" lon="2.23412">
        <ele>1863</ele>
        <time>2010-01-01T03:12:11Z</time>
      </trkpt>
      <trkpt lat="42.32566" lon="2.23409">
        <ele>1863</ele>
        <time>2010-01-01T03:12:12Z</time>
      </trkpt>
      <trkpt lat="42.32568" lon="2.23408">
        <ele>1864</ele>
        <time>2010-01-01T03:12:13Z</time>
      </trkpt>
      <trkpt lat="42.32572" lon="2.23405">
        <ele>1866</ele>
        <time>2010-01-01T03:12:15Z</time>
      </trkpt>
      <trkpt lat="42.32573" lon="2.23402">
        <ele>1867</ele>
        <time>2010-01-01T03:12:16Z</time>
      </trkpt>
      <trkpt lat="42.32575" lon="2.23401">
        <ele>1867</ele>
        <time>2010-01-01T03:12:17Z</time>
      </trkpt>
      <trkpt lat="42.3258" lon="2.23395">
        <ele>1870</ele>
        <time>2010-01-01T03:12:19Z</time>
      </trkpt>
      <trkpt lat="42.3258" lon="2.23393">
        <ele>1871</ele>
        <time>2010-01-01T03:12:20Z</time>
      </trkpt>
      <trkpt lat="42.32582" lon="2.23392">
        <ele>1872</ele>
        <time>2010-01-01T03:12:21Z</time>
      </trkpt>
      <trkpt lat="42.32583" lon="2.2339">
        <ele>1873</ele>
        <time>2010-01-01T03:12:22Z</time>
      </trkpt>
      <trkpt lat="42.32584" lon="2.23388">
        <ele>1874</ele>
        <time>2010-01-01T03:12:22Z</time>
      </trkpt>
      <trkpt lat="42.32583" lon="2.23385">
        <ele>1874</ele>
        <time>2010-01-01T03:12:23Z</time>
      </trkpt>
      <trkpt lat="42.32582" lon="2.23382">
        <ele>1873</ele>
        <time>2010-01-01T03:12:24Z</time>
      </trkpt>
      <trkpt lat="42.32583" lon="2.23379">
        <ele>1874</ele>
        <time>2010-01-01T03:12:25Z</time>
      </trkpt>
      <trkpt lat="42.32583" lon="2.23377">
        <ele>1874</ele>
        <time>2010-01-01T03:12:26Z</time>
      </trkpt>
      <trkpt lat="42.32585" lon="2.23374">
        <ele>1875</ele>
        <time>2010-01-01T03:12:27Z</time>
      </trkpt>
      <trkpt lat="42.32586" lon="2.23372">
        <ele>1875</ele>
        <time>2010-01-01T03:12:28Z</time>
      </trkpt>
      <trkpt lat="42.32587" lon="2.23369">
        <ele>1876</ele>
        <time>2010-01-01T03:12:28Z</time>
      </trkpt>
      <trkpt lat="42.32588" lon="2.23367">
        <ele>1876</ele>
        <time>2010-01-01T03:12:29Z</time>
      </trkpt>
      <trkpt lat="42.3259" lon="2.23366">
        <ele>1877</ele>
        <time>2010-01-01T03:12:30Z</time>
      </trkpt>
      <trkpt lat="42.32594" lon="2.23362">
        <ele>1879</ele>
        <time>2010-01-01T03:12:32Z</time>
      </trkpt>
      <trkpt lat="42.32596" lon="2.2336">
        <ele>1879</ele>
        <time>2010-01-01T03:12:33Z</time>
      </trkpt>
      <trkpt lat="42.32599" lon="2.2336">
        <ele>1880</ele>
        <time>2010-01-01T03:12:34Z</time>
      </trkpt>
      <trkpt lat="42.326" lon="2.2336">
        <ele>1880</ele>
        <time>2010-01-01T03:12:35Z</time>
      </trkpt>
      <trkpt lat="42.32602" lon="2.23359">
        <ele>1881</ele>
        <time>2010-01-01T03:12:36Z</time>
      </trkpt>
      <trkpt lat="42.32604" lon="2.23358">
        <ele>1882</ele>
        <time>2010-01-01T03:12:36Z</time>
      </trkpt>
      <trkpt lat="42.32606" lon="2.23357">
        <ele>1882</ele>
        <time>2010-01-01T03:12:37Z</time>
      </trkpt>
      <trkpt lat="42.32608" lon="2.23356">
        <ele>1883</ele>
        <time>2010-01-01T03:12:38Z</time>
      </trkpt>
      <trkpt lat="42.3261" lon="2.23355">
        <ele>1883</ele>
        <time>2010-01-01T03:12:39Z</time>
      </trkpt>
      <trkpt lat="42.32612" lon="2.23354">
        <ele>1884</ele>
        <time>2010-01-01T03:12:40Z</time>
      </trkpt>
      <trkpt lat="42.32614" lon="2.23352">
        <ele>1885</ele>
        <time>2010-01-01T03:12:41Z</time>
      </trkpt>
      <trkpt lat="42.32616" lon="2.2335">
        <ele>1885</ele>
        <time>2010-01-01T03:12:42Z</time>
      </trkpt>
      <trkpt lat="42.32618" lon="2.23349">
        <ele>1886</ele>
        <time>2010-01-01T03:12:42Z</time>
      </trkpt>
      <trkpt lat="42.3262" lon="2.23349">
        <ele>1886</ele>
        <time>2010-01-01T03:12:43Z</time>
      </trkpt>
      <trkpt lat="42.32621" lon="2.23346">
        <ele>1887</ele>
        <time>2010-01-01T03:12:44Z</time>
      </trkpt>
      <trkpt lat="42.32622" lon="2.23342">
        <ele>1887</ele>
        <time>2010-01-01T03:12:46Z</time>
      </trkpt>
      <trkpt lat="42.32624" lon="2.2334">
        <ele>1888</ele>
        <time>2010-01-01T03:12:46Z</time>
      </trkpt>
      <trkpt lat="42.32626" lon="2.23338">
        <ele>1888</ele>
        <time>2010-01-01T03:12:47Z</time>
      </trkpt>
      <trkpt lat="42.32628" lon="2.23337">
        <ele>1889</ele>
        <time>2010-01-01T03:12:48Z</time>
      </trkpt>
      <trkpt lat="42.32629" lon="2.23334">
        <ele>1889</ele>
        <time>2010-01-01T03:12:49Z</time>
      </trkpt>
      <trkpt lat="42.32631" lon="2.23332">
        <ele>1890</ele>
        <time>2010-01-01T03:12:50Z</time>
      </trkpt>
      <trkpt lat="42.32631" lon="2.23329">
        <ele>1890</ele>
        <time>2010-01-01T03:12:51Z</time>
      </trkpt>
      <trkpt lat="42.32632" lon="2.23326">
        <ele>1890</ele>
        <time>2010-01-01T03:12:52Z</time>
      </trkpt>
      <trkpt lat="42.32633" lon="2.23323">
        <ele>1891</ele>
        <time>2010-01-01T03:12:53Z</time>
      </trkpt>
      <trkpt lat="42.32633" lon="2.2332">
        <ele>1891</ele>
        <time>2010-01-01T03:12:54Z</time>
      </trkpt>
      <trkpt lat="42.32635" lon="2.23318">
        <ele>1892</ele>
        <time>2010-01-01T03:12:55Z</time>
      </trkpt>
      <trkpt lat="42.32636" lon="2.23315">
        <ele>1892</ele>
        <time>2010-01-01T03:12:55Z</time>
      </trkpt>
      <trkpt lat="42.32637" lon="2.23312">
        <ele>1892</ele>
        <time>2010-01-01T03:12:56Z</time>
      </trkpt>
      <trkpt lat="42.32639" lon="2.23311">
        <ele>1893</ele>
        <time>2010-01-01T03:12:57Z</time>
      </trkpt>
      <trkpt lat="42.32641" lon="2.2331">
        <ele>1894</ele>
        <time>2010-01-01T03:12:58Z</time>
      </trkpt>
      <trkpt lat="42.32643" lon="2.23309">
        <ele>1894</ele>
        <time>2010-01-01T03:12:59Z</time>
      </trkpt>
      <trkpt lat="42.32645" lon="2.23308">
        <ele>1895</ele>
        <time>2010-01-01T03:13:00Z</time>
      </trkpt>
      <trkpt lat="42.32648" lon="2.23308">
        <ele>1896</ele>
        <time>2010-01-01T03:13:01Z</time>
      </trkpt>
      <trkpt lat="42.3265" lon="2.23306">
        <ele>1897</ele>
        <time>2010-01-01T03:13:02Z</time>
      </trkpt>
      <trkpt lat="42.32652" lon="2.23306">
        <ele>1897</ele>
        <time>2010-01-01T03:13:03Z</time>
      </trkpt>
      <trkpt lat="42.32654" lon="2.23305">
        <ele>1898</ele>
        <time>2010-01-01T03:13:04Z</time>
      </trkpt>
      <trkpt lat="42.32657" lon="2.23303">
        <ele>1899</ele>
        <time>2010-01-01T03:13:05Z</time>
      </trkpt>
      <trkpt lat="42.32658" lon="2.23302">
        <ele>1899</ele>
        <time>2010-01-01T03:13:06Z</time>
      </trkpt>
      <trkpt lat="42.3266" lon="2.23301">
        <ele>1900</ele>
        <time>2010-01-01T03:13:06Z</time>
      </trkpt>
      <trkpt lat="42.32662" lon="2.233">
        <ele>1901</ele>
        <time>2010-01-01T03:13:07Z</time>
      </trkpt>
      <trkpt lat="42.32664" lon="2.233">
        <ele>1901</ele>
        <time>2010-01-01T03:13:08Z</time>
      </trkpt>
      <trkpt lat="42.32666" lon="2.233">
        <ele>1902</ele>
        <time>2010-01-01T03:13:09Z</time>
      </trkpt>
      <trkpt lat="42.32669" lon="2.23299">
        <ele>1902</ele>
        <time>2010-01-01T03:13:10Z</time>
      </trkpt>
      <trkpt lat="42.32671" lon="2.23298">
        <ele>1903</ele>
        <time>2010-01-01T03:13:11Z</time>
      </trkpt>
      <trkpt lat="42.32673" lon="2.23296">
        <ele>1903</ele>
        <time>2010-01-01T03:13:12Z</time>
      </trkpt>
      <trkpt lat="42.32674" lon="2.23295">
        <ele>1903</ele>
        <time>2010-01-01T03:13:13Z</time>
      </trkpt>
      <trkpt lat="42.32675" lon="2.23293">
        <ele>1904</ele>
        <time>2010-01-01T03:13:13Z</time>
      </trkpt>
      <trkpt lat="42.32677" lon="2.2329">
        <ele>1904</ele>
        <time>2010-01-01T03:13:14Z</time>
      </trkpt>
      <trkpt lat="42.32679" lon="2.23289">
        <ele>1905</ele>
        <time>2010-01-01T03:13:15Z</time>
      </trkpt>
      <trkpt lat="42.32681" lon="2.23288">
        <ele>1905</ele>
        <time>2010-01-01T03:13:16Z</time>
      </trkpt>
      <trkpt lat="42.32684" lon="2.23289">
        <ele>1906</ele>
        <time>2010-01-01T03:13:17Z</time>
      </trkpt>
      <trkpt lat="42.32686" lon="2.23289">
        <ele>1906</ele>
        <time>2010-01-01T03:13:18Z</time>
      </trkpt>
      <trkpt lat="42.3269" lon="2.23288">
        <ele>1907</ele>
        <time>2010-01-01T03:13:20Z</time>
      </trkpt>
      <trkpt lat="42.32692" lon="2.23286">
        <ele>1907</ele>
        <time>2010-01-01T03:13:21Z</time>
      </trkpt>
      <trkpt lat="42.32693" lon="2.23283">
        <ele>1908</ele>
        <time>2010-01-01T03:13:22Z</time>
      </trkpt>
      <trkpt lat="42.32695" lon="2.23281">
        <ele>1908</ele>
        <time>2010-01-01T03:13:23Z</time>
      </trkpt>
      <trkpt lat="42.32697" lon="2.23279">
        <ele>1909</ele>
        <time>2010-01-01T03:13:24Z</time>
      </trkpt>
      <trkpt lat="42.32699" lon="2.23278">
        <ele>1909</ele>
        <time>2010-01-01T03:13:24Z</time>
      </trkpt>
      <trkpt lat="42.32701" lon="2.23278">
        <ele>1909</ele>
        <time>2010-01-01T03:13:25Z</time>
      </trkpt>
      <trkpt lat="42.32703" lon="2.23277">
        <ele>1910</ele>
        <time>2010-01-01T03:13:26Z</time>
      </trkpt>
      <trkpt lat="42.32704" lon="2.23275">
        <ele>1910</ele>
        <time>2010-01-01T03:13:27Z</time>
      </trkpt>
      <trkpt lat="42.32706" lon="2.23273">
        <ele>1911</ele>
        <time>2010-01-01T03:13:28Z</time>
      </trkpt>
      <trkpt lat="42.32708" lon="2.23272">
        <ele>1911</ele>
        <time>2010-01-01T03:13:29Z</time>
      </trkpt>
      <trkpt lat="42.3271" lon="2.23271">
        <ele>1911</ele>
        <time>2010-01-01T03:13:29Z</time>
      </trkpt>
      <trkpt lat="42.32713" lon="2.23269">
        <ele>1912</ele>
        <time>2010-01-01T03:13:31Z</time>
      </trkpt>
      <trkpt lat="42.32715" lon="2.23268">
        <ele>1912</ele>
        <time>2010-01-01T03:13:32Z</time>
      </trkpt>
      <trkpt lat="42.32717" lon="2.23269">
        <ele>1912</ele>
        <time>2010-01-01T03:13:32Z</time>
      </trkpt>
      <trkpt lat="42.32719" lon="2.2327">
        <ele>1913</ele>
        <time>2010-01-01T03:13:33Z</time>
      </trkpt>
      <trkpt lat="42.32721" lon="2.2327">
        <ele>1913</ele>
        <time>2010-01-01T03:13:34Z</time>
      </trkpt>
      <trkpt lat="42.32723" lon="2.23268">
        <ele>1913</ele>
        <time>2010-01-01T03:13:35Z</time>
      </trkpt>
      <trkpt lat="42.32724" lon="2.23264">
        <ele>1914</ele>
        <time>2010-01-01T03:13:36Z</time>
      </trkpt>
      <trkpt lat="42.32724" lon="2.23262">
        <ele>1914</ele>
        <time>2010-01-01T03:13:37Z</time>
      </trkpt>
      <trkpt lat="42.32724" lon="2.23259">
        <ele>1914</ele>
        <time>2010-01-01T03:13:38Z</time>
      </trkpt>
      <trkpt lat="42.32726" lon="2.23258">
        <ele>1914</ele>
        <time>2010-01-01T03:13:38Z</time>
      </trkpt>
      <trkpt lat="42.32728" lon="2.23255">
        <ele>1915</ele>
        <time>2010-01-01T03:13:39Z</time>
      </trkpt>
      <trkpt lat="42.32728" lon="2.23253">
        <ele>1915</ele>
        <time>2010-01-01T03:13:40Z</time>
      </trkpt>
      <trkpt lat="42.32729" lon="2.2325">
        <ele>1916</ele>
        <time>2010-01-01T03:13:41Z</time>
      </trkpt>
      <trkpt lat="42.3273" lon="2.23248">
        <ele>1916</ele>
        <time>2010-01-01T03:13:42Z</time>
      </trkpt>
      <trkpt lat="42.32732" lon="2.23245">
        <ele>1917</ele>
        <time>2010-01-01T03:13:43Z</time>
      </trkpt>
      <trkpt lat="42.32732" lon="2.23243">
        <ele>1917</ele>
        <time>2010-01-01T03:13:44Z</time>
      </trkpt>
      <trkpt lat="42.32732" lon="2.2324">
        <ele>1917</ele>
        <time>2010-01-01T03:13:44Z</time>
      </trkpt>
      <trkpt lat="42.32732" lon="2.23237">
        <ele>1918</ele>
        <time>2010-01-01T03:13:45Z</time>
      </trkpt>
      <trkpt lat="42.32733" lon="2.23235">
        <ele>1918</ele>
        <time>2010-01-01T03:13:46Z</time>
      </trkpt>
      <trkpt lat="42.32734" lon="2.23232">
        <ele>1919</ele>
        <time>2010-01-01T03:13:47Z</time>
      </trkpt>
      <trkpt lat="42.32736" lon="2.2323">
        <ele>1919</ele>
        <time>2010-01-01T03:13:48Z</time>
      </trkpt>
      <trkpt lat="42.32737" lon="2.23227">
        <ele>1920</ele>
        <time>2010-01-01T03:13:49Z</time>
      </trkpt>
      <trkpt lat="42.32737" lon="2.23223">
        <ele>1920</ele>
        <time>2010-01-01T03:13:50Z</time>
      </trkpt>
      <trkpt lat="42.32738" lon="2.23221">
        <ele>1920</ele>
        <time>2010-01-01T03:13:51Z</time>
      </trkpt>
      <trkpt lat="42.32739" lon="2.23219">
        <ele>1921</ele>
        <time>2010-01-01T03:13:52Z</time>
      </trkpt>
      <trkpt lat="42.3274" lon="2.23216">
        <ele>1921</ele>
        <time>2010-01-01T03:13:52Z</time>
      </trkpt>
      <trkpt lat="42.32741" lon="2.23214">
        <ele>1921</ele>
        <time>2010-01-01T03:13:53Z</time>
      </trkpt>
      <trkpt lat="42.32742" lon="2.23212">
        <ele>1922</ele>
        <time>2010-01-01T03:13:54Z</time>
      </trkpt>
      <trkpt lat="42.32744" lon="2.23209">
        <ele>1922</ele>
        <time>2010-01-01T03:13:55Z</time>
      </trkpt>
      <trkpt lat="42.32746" lon="2.23208">
        <ele>1923</ele>
        <time>2010-01-01T03:13:56Z</time>
      </trkpt>
      <trkpt lat="42.32747" lon="2.23206">
        <ele>1923</ele>
        <time>2010-01-01T03:13:57Z</time>
      </trkpt>
      <trkpt lat="42.32749" lon="2.23204">
        <ele>1924</ele>
        <time>2010-01-01T03:13:58Z</time>
      </trkpt>
      <trkpt lat="42.32751" lon="2.23203">
        <ele>1924</ele>
        <time>2010-01-01T03:13:58Z</time>
      </trkpt>
      <trkpt lat="42.32752" lon="2.23202">
        <ele>1924</ele>
        <time>2010-01-01T03:13:59Z</time>
      </trkpt>
      <trkpt lat="42.32754" lon="2.23201">
        <ele>1925</ele>
        <time>2010-01-01T03:14:00Z</time>
      </trkpt>
      <trkpt lat="42.32756" lon="2.23199">
        <ele>1925</ele>
        <time>2010-01-01T03:14:01Z</time>
      </trkpt>
      <trkpt lat="42.32758" lon="2.23197">
        <ele>1926</ele>
        <time>2010-01-01T03:14:02Z</time>
      </trkpt>
      <trkpt lat="42.3276" lon="2.23196">
        <ele>1926</ele>
        <time>2010-01-01T03:14:02Z</time>
      </trkpt>
      <trkpt lat="42.32762" lon="2.23197">
        <ele>1927</ele>
        <time>2010-01-01T03:14:04Z</time>
      </trkpt>
      <trkpt lat="42.32764" lon="2.23197">
        <ele>1927</ele>
        <time>2010-01-01T03:14:04Z</time>
      </trkpt>
      <trkpt lat="42.32766" lon="2.23195">
        <ele>1927</ele>
        <time>2010-01-01T03:14:05Z</time>
      </trkpt>
      <trkpt lat="42.32768" lon="2.23194">
        <ele>1928</ele>
        <time>2010-01-01T03:14:06Z</time>
      </trkpt>
      <trkpt lat="42.3277" lon="2.23192">
        <ele>1928</ele>
        <time>2010-01-01T03:14:07Z</time>
      </trkpt>
      <trkpt lat="42.32771" lon="2.23191">
        <ele>1929</ele>
        <time>2010-01-01T03:14:08Z</time>
      </trkpt>
      <trkpt lat="42.32773" lon="2.2319">
        <ele>1929</ele>
        <time>2010-01-01T03:14:08Z</time>
      </trkpt>
      <trkpt lat="42.32775" lon="2.2319">
        <ele>1930</ele>
        <time>2010-01-01T03:14:09Z</time>
      </trkpt>
      <trkpt lat="42.32778" lon="2.23189">
        <ele>1930</ele>
        <time>2010-01-01T03:14:10Z</time>
      </trkpt>
      <trkpt lat="42.32779" lon="2.23189">
        <ele>1931</ele>
        <time>2010-01-01T03:14:11Z</time>
      </trkpt>
      <trkpt lat="42.32781" lon="2.23188">
        <ele>1931</ele>
        <time>2010-01-01T03:14:12Z</time>
      </trkpt>
      <trkpt lat="42.32783" lon="2.23186">
        <ele>1932</ele>
        <time>2010-01-01T03:14:13Z</time>
      </trkpt>
      <trkpt lat="42.32785" lon="2.23185">
        <ele>1933</ele>
        <time>2010-01-01T03:14:13Z</time>
      </trkpt>
      <trkpt lat="42.32787" lon="2.23183">
        <ele>1934</ele>
        <time>2010-01-01T03:14:14Z</time>
      </trkpt>
      <trkpt lat="42.32789" lon="2.23182">
        <ele>1934</ele>
        <time>2010-01-01T03:14:15Z</time>
      </trkpt>
      <trkpt lat="42.32791" lon="2.23179">
        <ele>1935</ele>
        <time>2010-01-01T03:14:16Z</time>
      </trkpt>
      <trkpt lat="42.32793" lon="2.23177">
        <ele>1936</ele>
        <time>2010-01-01T03:14:17Z</time>
      </trkpt>
      <trkpt lat="42.32795" lon="2.23176">
        <ele>1937</ele>
        <time>2010-01-01T03:14:18Z</time>
      </trkpt>
      <trkpt lat="42.32796" lon="2.23174">
        <ele>1937</ele>
        <time>2010-01-01T03:14:19Z</time>
      </trkpt>
      <trkpt lat="42.32798" lon="2.23172">
        <ele>1938</ele>
        <time>2010-01-01T03:14:20Z</time>
      </trkpt>
      <trkpt lat="42.328" lon="2.2317">
        <ele>1939</ele>
        <time>2010-01-01T03:14:21Z</time>
      </trkpt>
      <trkpt lat="42.32802" lon="2.23169">
        <ele>1939</ele>
        <time>2010-01-01T03:14:22Z</time>
      </trkpt>
      <trkpt lat="42.32803" lon="2.23167">
        <ele>1940</ele>
        <time>2010-01-01T03:14:23Z</time>
      </trkpt>
      <trkpt lat="42.32805" lon="2.23165">
        <ele>1940</ele>
        <time>2010-01-01T03:14:24Z</time>
      </trkpt>
      <trkpt lat="42.32806" lon="2.23162">
        <ele>1941</ele>
        <time>2010-01-01T03:14:24Z</time>
      </trkpt>
      <trkpt lat="42.32808" lon="2.2316">
        <ele>1941</ele>
        <time>2010-01-01T03:14:25Z</time>
      </trkpt>
      <trkpt lat="42.32809" lon="2.23158">
        <ele>1942</ele>
        <time>2010-01-01T03:14:26Z</time>
      </trkpt>
      <trkpt lat="42.32811" lon="2.23156">
        <ele>1942</ele>
        <time>2010-01-01T03:14:27Z</time>
      </trkpt>
      <trkpt lat="42.32812" lon="2.23154">
        <ele>1942</ele>
        <time>2010-01-01T03:14:28Z</time>
      </trkpt>
      <trkpt lat="42.32813" lon="2.23151">
        <ele>1943</ele>
        <time>2010-01-01T03:14:29Z</time>
      </trkpt>
      <trkpt lat="42.32814" lon="2.23149">
        <ele>1943</ele>
        <time>2010-01-01T03:14:30Z</time>
      </trkpt>
      <trkpt lat="42.32815" lon="2.23146">
        <ele>1944</ele>
        <time>2010-01-01T03:14:31Z</time>
      </trkpt>
      <trkpt lat="42.32816" lon="2.23143">
        <ele>1944</ele>
        <time>2010-01-01T03:14:32Z</time>
      </trkpt>
      <trkpt lat="42.32817" lon="2.2314">
        <ele>1944</ele>
        <time>2010-01-01T03:14:32Z</time>
      </trkpt>
      <trkpt lat="42.32818" lon="2.23139">
        <ele>1945</ele>
        <time>2010-01-01T03:14:33Z</time>
      </trkpt>
      <trkpt lat="42.3282" lon="2.23137">
        <ele>1945</ele>
        <time>2010-01-01T03:14:34Z</time>
      </trkpt>
      <trkpt lat="42.3282" lon="2.23135">
        <ele>1945</ele>
        <time>2010-01-01T03:14:35Z</time>
      </trkpt>
      <trkpt lat="42.32821" lon="2.23132">
        <ele>1946</ele>
        <time>2010-01-01T03:14:35Z</time>
      </trkpt>
      <trkpt lat="42.32821" lon="2.2313">
        <ele>1946</ele>
        <time>2010-01-01T03:14:36Z</time>
      </trkpt>
      <trkpt lat="42.32822" lon="2.23127">
        <ele>1946</ele>
        <time>2010-01-01T03:14:37Z</time>
      </trkpt>
      <trkpt lat="42.32823" lon="2.23124">
        <ele>1947</ele>
        <time>2010-01-01T03:14:38Z</time>
      </trkpt>
      <trkpt lat="42.32825" lon="2.23121">
        <ele>1947</ele>
        <time>2010-01-01T03:14:39Z</time>
      </trkpt>
      <trkpt lat="42.32826" lon="2.23118">
        <ele>1947</ele>
        <time>2010-01-01T03:14:40Z</time>
      </trkpt>
      <trkpt lat="42.32827" lon="2.23117">
        <ele>1948</ele>
        <time>2010-01-01T03:14:41Z</time>
      </trkpt>
      <trkpt lat="42.32829" lon="2.23115">
        <ele>1948</ele>
        <time>2010-01-01T03:14:42Z</time>
      </trkpt>
      <trkpt lat="42.32831" lon="2.23113">
        <ele>1949</ele>
        <time>2010-01-01T03:14:43Z</time>
      </trkpt>
      <trkpt lat="42.32834" lon="2.23112">
        <ele>1950</ele>
        <time>2010-01-01T03:14:44Z</time>
      </trkpt>
      <trkpt lat="42.32836" lon="2.23111">
        <ele>1950</ele>
        <time>2010-01-01T03:14:45Z</time>
      </trkpt>
      <trkpt lat="42.32838" lon="2.2311">
        <ele>1951</ele>
        <time>2010-01-01T03:14:46Z</time>
      </trkpt>
      <trkpt lat="42.3284" lon="2.2311">
        <ele>1951</ele>
        <time>2010-01-01T03:14:46Z</time>
      </trkpt>
      <trkpt lat="42.32842" lon="2.23109">
        <ele>1952</ele>
        <time>2010-01-01T03:14:47Z</time>
      </trkpt>
      <trkpt lat="42.32844" lon="2.23108">
        <ele>1952</ele>
        <time>2010-01-01T03:14:48Z</time>
      </trkpt>
      <trkpt lat="42.32846" lon="2.23106">
        <ele>1953</ele>
        <time>2010-01-01T03:14:49Z</time>
      </trkpt>
      <trkpt lat="42.32848" lon="2.23105">
        <ele>1953</ele>
        <time>2010-01-01T03:14:50Z</time>
      </trkpt>
      <trkpt lat="42.3285" lon="2.23104">
        <ele>1954</ele>
        <time>2010-01-01T03:14:51Z</time>
      </trkpt>
      <trkpt lat="42.32852" lon="2.23103">
        <ele>1954</ele>
        <time>2010-01-01T03:14:52Z</time>
      </trkpt>
      <trkpt lat="42.32854" lon="2.23102">
        <ele>1955</ele>
        <time>2010-01-01T03:14:52Z</time>
      </trkpt>
      <trkpt lat="42.32856" lon="2.231">
        <ele>1955</ele>
        <time>2010-01-01T03:14:53Z</time>
      </trkpt>
      <trkpt lat="42.32858" lon="2.23099">
        <ele>1956</ele>
        <time>2010-01-01T03:14:54Z</time>
      </trkpt>
      <trkpt lat="42.3286" lon="2.23097">
        <ele>1957</ele>
        <time>2010-01-01T03:14:55Z</time>
      </trkpt>
      <trkpt lat="42.32862" lon="2.23096">
        <ele>1957</ele>
        <time>2010-01-01T03:14:56Z</time>
      </trkpt>
      <trkpt lat="42.32864" lon="2.23095">
        <ele>1958</ele>
        <time>2010-01-01T03:14:57Z</time>
      </trkpt>
      <trkpt lat="42.32867" lon="2.23094">
        <ele>1959</ele>
        <time>2010-01-01T03:14:58Z</time>
      </trkpt>
      <trkpt lat="42.32869" lon="2.23093">
        <ele>1960</ele>
        <time>2010-01-01T03:14:59Z</time>
      </trkpt>
      <trkpt lat="42.32871" lon="2.23092">
        <ele>1960</ele>
        <time>2010-01-01T03:15:00Z</time>
      </trkpt>
      <trkpt lat="42.32873" lon="2.23091">
        <ele>1961</ele>
        <time>2010-01-01T03:15:01Z</time>
      </trkpt>
      <trkpt lat="42.32876" lon="2.2309">
        <ele>1962</ele>
        <time>2010-01-01T03:15:02Z</time>
      </trkpt>
      <trkpt lat="42.32878" lon="2.23089">
        <ele>1963</ele>
        <time>2010-01-01T03:15:03Z</time>
      </trkpt>
      <trkpt lat="42.3288" lon="2.23088">
        <ele>1963</ele>
        <time>2010-01-01T03:15:04Z</time>
      </trkpt>
      <trkpt lat="42.32882" lon="2.23088">
        <ele>1964</ele>
        <time>2010-01-01T03:15:04Z</time>
      </trkpt>
      <trkpt lat="42.32884" lon="2.23088">
        <ele>1964</ele>
        <time>2010-01-01T03:15:05Z</time>
      </trkpt>
      <trkpt lat="42.32885" lon="2.23086">
        <ele>1965</ele>
        <time>2010-01-01T03:15:06Z</time>
      </trkpt>
      <trkpt lat="42.32888" lon="2.23085">
        <ele>1966</ele>
        <time>2010-01-01T03:15:07Z</time>
      </trkpt>
      <trkpt lat="42.3289" lon="2.23084">
        <ele>1967</ele>
        <time>2010-01-01T03:15:08Z</time>
      </trkpt>
      <trkpt lat="42.32892" lon="2.23083">
        <ele>1967</ele>
        <time>2010-01-01T03:15:09Z</time>
      </trkpt>
      <trkpt lat="42.32895" lon="2.23082">
        <ele>1968</ele>
        <time>2010-01-01T03:15:10Z</time>
      </trkpt>
      <trkpt lat="42.32897" lon="2.23082">
        <ele>1969</ele>
        <time>2010-01-01T03:15:11Z</time>
      </trkpt>
      <trkpt lat="42.32899" lon="2.2308">
        <ele>1969</ele>
        <time>2010-01-01T03:15:12Z</time>
      </trkpt>
      <trkpt lat="42.32901" lon="2.23079">
        <ele>1970</ele>
        <time>2010-01-01T03:15:13Z</time>
      </trkpt>
      <trkpt lat="42.32903" lon="2.23077">
        <ele>1971</ele>
        <time>2010-01-01T03:15:14Z</time>
      </trkpt>
      <trkpt lat="42.32905" lon="2.23076">
        <ele>1971</ele>
        <time>2010-01-01T03:15:15Z</time>
      </trkpt>
      <trkpt lat="42.32907" lon="2.23075">
        <ele>1972</ele>
        <time>2010-01-01T03:15:16Z</time>
      </trkpt>
      <trkpt lat="42.32909" lon="2.23075">
        <ele>1972</ele>
        <time>2010-01-01T03:15:16Z</time>
      </trkpt>
      <trkpt lat="42.32911" lon="2.23074">
        <ele>1973</ele>
        <time>2010-01-01T03:15:17Z</time>
      </trkpt>
      <trkpt lat="42.32913" lon="2.23073">
        <ele>1974</ele>
        <time>2010-01-01T03:15:18Z</time>
      </trkpt>
      <trkpt lat="42.32915" lon="2.23072">
        <ele>1974</ele>
        <time>2010-01-01T03:15:19Z</time>
      </trkpt>
      <trkpt lat="42.32917" lon="2.23071">
        <ele>1975</ele>
        <time>2010-01-01T03:15:20Z</time>
      </trkpt>
      <trkpt lat="42.32919" lon="2.2307">
        <ele>1975</ele>
        <time>2010-01-01T03:15:21Z</time>
      </trkpt>
      <trkpt lat="42.32922" lon="2.23069">
        <ele>1976</ele>
        <time>2010-01-01T03:15:22Z</time>
      </trkpt>
      <trkpt lat="42.32924" lon="2.23068">
        <ele>1977</ele>
        <time>2010-01-01T03:15:22Z</time>
      </trkpt>
      <trkpt lat="42.32926" lon="2.23066">
        <ele>1977</ele>
        <time>2010-01-01T03:15:24Z</time>
      </trkpt>
      <trkpt lat="42.32928" lon="2.23064">
        <ele>1978</ele>
        <time>2010-01-01T03:15:24Z</time>
      </trkpt>
      <trkpt lat="42.3293" lon="2.23062">
        <ele>1979</ele>
        <time>2010-01-01T03:15:25Z</time>
      </trkpt>
      <trkpt lat="42.32932" lon="2.23061">
        <ele>1979</ele>
        <time>2010-01-01T03:15:26Z</time>
      </trkpt>
      <trkpt lat="42.32934" lon="2.23059">
        <ele>1980</ele>
        <time>2010-01-01T03:15:27Z</time>
      </trkpt>
      <trkpt lat="42.32935" lon="2.23057">
        <ele>1980</ele>
        <time>2010-01-01T03:15:28Z</time>
      </trkpt>
      <trkpt lat="42.32938" lon="2.23055">
        <ele>1981</ele>
        <time>2010-01-01T03:15:29Z</time>
      </trkpt>
      <trkpt lat="42.3294" lon="2.23054">
        <ele>1982</ele>
        <time>2010-01-01T03:15:30Z</time>
      </trkpt>
      <trkpt lat="42.32942" lon="2.23052">
        <ele>1982</ele>
        <time>2010-01-01T03:15:31Z</time>
      </trkpt>
      <trkpt lat="42.32944" lon="2.23052">
        <ele>1983</ele>
        <time>2010-01-01T03:15:32Z</time>
      </trkpt>
      <trkpt lat="42.32946" lon="2.2305">
        <ele>1984</ele>
        <time>2010-01-01T03:15:33Z</time>
      </trkpt>
      <trkpt lat="42.32948" lon="2.23049">
        <ele>1984</ele>
        <time>2010-01-01T03:15:34Z</time>
      </trkpt>
      <trkpt lat="42.32949" lon="2.23047">
        <ele>1985</ele>
        <time>2010-01-01T03:15:35Z</time>
      </trkpt>
      <trkpt lat="42.32952" lon="2.23046">
        <ele>1986</ele>
        <time>2010-01-01T03:15:36Z</time>
      </trkpt>
      <trkpt lat="42.32954" lon="2.23045">
        <ele>1987</ele>
        <time>2010-01-01T03:15:36Z</time>
      </trkpt>
      <trkpt lat="42.32956" lon="2.23044">
        <ele>1987</ele>
        <time>2010-01-01T03:15:37Z</time>
      </trkpt>
      <trkpt lat="42.32958" lon="2.23042">
        <ele>1988</ele>
        <time>2010-01-01T03:15:38Z</time>
      </trkpt>
      <trkpt lat="42.32959" lon="2.23041">
        <ele>1989</ele>
        <time>2010-01-01T03:15:39Z</time>
      </trkpt>
      <trkpt lat="42.32961" lon="2.23039">
        <ele>1990</ele>
        <time>2010-01-01T03:15:40Z</time>
      </trkpt>
      <trkpt lat="42.32963" lon="2.23037">
        <ele>1991</ele>
        <time>2010-01-01T03:15:41Z</time>
      </trkpt>
      <trkpt lat="42.32965" lon="2.23035">
        <ele>1991</ele>
        <time>2010-01-01T03:15:42Z</time>
      </trkpt>
      <trkpt lat="42.32967" lon="2.23034">
        <ele>1992</ele>
        <time>2010-01-01T03:15:43Z</time>
      </trkpt>
      <trkpt lat="42.32969" lon="2.23033">
        <ele>1993</ele>
        <time>2010-01-01T03:15:44Z</time>
      </trkpt>
      <trkpt lat="42.32971" lon="2.23031">
        <ele>1994</ele>
        <time>2010-01-01T03:15:44Z</time>
      </trkpt>
      <trkpt lat="42.32973" lon="2.23031">
        <ele>1994</ele>
        <time>2010-01-01T03:15:45Z</time>
      </trkpt>
      <trkpt lat="42.32975" lon="2.23031">
        <ele>1995</ele>
        <time>2010-01-01T03:15:46Z</time>
      </trkpt>
      <trkpt lat="42.32977" lon="2.2303">
        <ele>1995</ele>
        <time>2010-01-01T03:15:47Z</time>
      </trkpt>
      <trkpt lat="42.3298" lon="2.2303">
        <ele>1996</ele>
        <time>2010-01-01T03:15:48Z</time>
      </trkpt>
      <trkpt lat="42.32982" lon="2.23028">
        <ele>1996</ele>
        <time>2010-01-01T03:15:49Z</time>
      </trkpt>
      <trkpt lat="42.32983" lon="2.23026">
        <ele>1997</ele>
        <time>2010-01-01T03:15:50Z</time>
      </trkpt>
      <trkpt lat="42.32986" lon="2.23024">
        <ele>1998</ele>
        <time>2010-01-01T03:15:51Z</time>
      </trkpt>
      <trkpt lat="42.32987" lon="2.23023">
        <ele>1998</ele>
        <time>2010-01-01T03:15:52Z</time>
      </trkpt>
      <trkpt lat="42.32989" lon="2.23022">
        <ele>1999</ele>
        <time>2010-01-01T03:15:53Z</time>
      </trkpt>
      <trkpt lat="42.32991" lon="2.23021">
        <ele>1999</ele>
        <time>2010-01-01T03:15:53Z</time>
      </trkpt>
      <trkpt lat="42.32993" lon="2.23019">
        <ele>1999</ele>
        <time>2010-01-01T03:15:54Z</time>
      </trkpt>
      <trkpt lat="42.32995" lon="2.23018">
        <ele>2000</ele>
        <time>2010-01-01T03:15:55Z</time>
      </trkpt>
      <trkpt lat="42.32997" lon="2.23017">
        <ele>2001</ele>
        <time>2010-01-01T03:15:56Z</time>
      </trkpt>
      <trkpt lat="42.32999" lon="2.23016">
        <ele>2001</ele>
        <time>2010-01-01T03:15:57Z</time>
      </trkpt>
      <trkpt lat="42.33002" lon="2.23016">
        <ele>2002</ele>
        <time>2010-01-01T03:15:58Z</time>
      </trkpt>
      <trkpt lat="42.33003" lon="2.23015">
        <ele>2002</ele>
        <time>2010-01-01T03:15:59Z</time>
      </trkpt>
      <trkpt lat="42.33008" lon="2.23016">
        <ele>2003</ele>
        <time>2010-01-01T03:16:00Z</time>
      </trkpt>
      <trkpt lat="42.3301" lon="2.23016">
        <ele>2004</ele>
        <time>2010-01-01T03:16:01Z</time>
      </trkpt>
      <trkpt lat="42.33012" lon="2.23015">
        <ele>2004</ele>
        <time>2010-01-01T03:16:02Z</time>
      </trkpt>
      <trkpt lat="42.33014" lon="2.23013">
        <ele>2005</ele>
        <time>2010-01-01T03:16:03Z</time>
      </trkpt>
      <trkpt lat="42.33016" lon="2.23012">
        <ele>2005</ele>
        <time>2010-01-01T03:16:04Z</time>
      </trkpt>
      <trkpt lat="42.33017" lon="2.23011">
        <ele>2005</ele>
        <time>2010-01-01T03:16:05Z</time>
      </trkpt>
      <trkpt lat="42.33019" lon="2.23009">
        <ele>2006</ele>
        <time>2010-01-01T03:16:06Z</time>
      </trkpt>
      <trkpt lat="42.33021" lon="2.23008">
        <ele>2006</ele>
        <time>2010-01-01T03:16:06Z</time>
      </trkpt>
      <trkpt lat="42.33023" lon="2.23006">
        <ele>2007</ele>
        <time>2010-01-01T03:16:07Z</time>
      </trkpt>
      <trkpt lat="42.33025" lon="2.23006">
        <ele>2007</ele>
        <time>2010-01-01T03:16:08Z</time>
      </trkpt>
      <trkpt lat="42.33028" lon="2.23005">
        <ele>2008</ele>
        <time>2010-01-01T03:16:09Z</time>
      </trkpt>
      <trkpt lat="42.33029" lon="2.23004">
        <ele>2008</ele>
        <time>2010-01-01T03:16:10Z</time>
      </trkpt>
      <trkpt lat="42.33031" lon="2.23004">
        <ele>2009</ele>
        <time>2010-01-01T03:16:11Z</time>
      </trkpt>
      <trkpt lat="42.33033" lon="2.23003">
        <ele>2009</ele>
        <time>2010-01-01T03:16:11Z</time>
      </trkpt>
      <trkpt lat="42.33035" lon="2.23003">
        <ele>2010</ele>
        <time>2010-01-01T03:16:12Z</time>
      </trkpt>
      <trkpt lat="42.33037" lon="2.23001">
        <ele>2010</ele>
        <time>2010-01-01T03:16:13Z</time>
      </trkpt>
      <trkpt lat="42.33039" lon="2.22999">
        <ele>2011</ele>
        <time>2010-01-01T03:16:14Z</time>
      </trkpt>
      <trkpt lat="42.33041" lon="2.22997">
        <ele>2012</ele>
        <time>2010-01-01T03:16:15Z</time>
      </trkpt>
      <trkpt lat="42.33043" lon="2.22995">
        <ele>2012</ele>
        <time>2010-01-01T03:16:16Z</time>
      </trkpt>
      <trkpt lat="42.33044" lon="2.22994">
        <ele>2013</ele>
        <time>2010-01-01T03:16:17Z</time>
      </trkpt>
      <trkpt lat="42.33046" lon="2.22993">
        <ele>2013</ele>
        <time>2010-01-01T03:16:18Z</time>
      </trkpt>
      <trkpt lat="42.33048" lon="2.22992">
        <ele>2014</ele>
        <time>2010-01-01T03:16:19Z</time>
      </trkpt>
      <trkpt lat="42.3305" lon="2.22991">
        <ele>2014</ele>
        <time>2010-01-01T03:16:19Z</time>
      </trkpt>
      <trkpt lat="42.33052" lon="2.2299">
        <ele>2015</ele>
        <time>2010-01-01T03:16:20Z</time>
      </trkpt>
      <trkpt lat="42.33053" lon="2.22988">
        <ele>2015</ele>
        <time>2010-01-01T03:16:21Z</time>
      </trkpt>
      <trkpt lat="42.33055" lon="2.22987">
        <ele>2016</ele>
        <time>2010-01-01T03:16:22Z</time>
      </trkpt>
      <trkpt lat="42.33057" lon="2.22985">
        <ele>2016</ele>
        <time>2010-01-01T03:16:22Z</time>
      </trkpt>
      <trkpt lat="42.33058" lon="2.22984">
        <ele>2017</ele>
        <time>2010-01-01T03:16:23Z</time>
      </trkpt>
      <trkpt lat="42.3306" lon="2.22983">
        <ele>2017</ele>
        <time>2010-01-01T03:16:24Z</time>
      </trkpt>
      <trkpt lat="42.33062" lon="2.22982">
        <ele>2017</ele>
        <time>2010-01-01T03:16:25Z</time>
      </trkpt>
      <trkpt lat="42.33064" lon="2.22981">
        <ele>2018</ele>
        <time>2010-01-01T03:16:25Z</time>
      </trkpt>
      <trkpt lat="42.33065" lon="2.2298">
        <ele>2018</ele>
        <time>2010-01-01T03:16:26Z</time>
      </trkpt>
      <trkpt lat="42.33067" lon="2.22979">
        <ele>2018</ele>
        <time>2010-01-01T03:16:27Z</time>
      </trkpt>
      <trkpt lat="42.33069" lon="2.22977">
        <ele>2019</ele>
        <time>2010-01-01T03:16:28Z</time>
      </trkpt>
      <trkpt lat="42.33071" lon="2.22975">
        <ele>2019</ele>
        <time>2010-01-01T03:16:29Z</time>
      </trkpt>
      <trkpt lat="42.33072" lon="2.22973">
        <ele>2020</ele>
        <time>2010-01-01T03:16:30Z</time>
      </trkpt>
      <trkpt lat="42.33074" lon="2.22971">
        <ele>2020</ele>
        <time>2010-01-01T03:16:31Z</time>
      </trkpt>
      <trkpt lat="42.33076" lon="2.22969">
        <ele>2021</ele>
        <time>2010-01-01T03:16:32Z</time>
      </trkpt>
      <trkpt lat="42.33078" lon="2.22967">
        <ele>2021</ele>
        <time>2010-01-01T03:16:32Z</time>
      </trkpt>
      <trkpt lat="42.33079" lon="2.22966">
        <ele>2022</ele>
        <time>2010-01-01T03:16:33Z</time>
      </trkpt>
      <trkpt lat="42.33081" lon="2.22964">
        <ele>2022</ele>
        <time>2010-01-01T03:16:34Z</time>
      </trkpt>
      <trkpt lat="42.33083" lon="2.22962">
        <ele>2023</ele>
        <time>2010-01-01T03:16:35Z</time>
      </trkpt>
      <trkpt lat="42.33084" lon="2.2296">
        <ele>2023</ele>
        <time>2010-01-01T03:16:36Z</time>
      </trkpt>
      <trkpt lat="42.33086" lon="2.22958">
        <ele>2024</ele>
        <time>2010-01-01T03:16:37Z</time>
      </trkpt>
      <trkpt lat="42.33088" lon="2.22957">
        <ele>2024</ele>
        <time>2010-01-01T03:16:38Z</time>
      </trkpt>
      <trkpt lat="42.33089" lon="2.22955">
        <ele>2025</ele>
        <time>2010-01-01T03:16:38Z</time>
      </trkpt>
      <trkpt lat="42.33091" lon="2.22953">
        <ele>2025</ele>
        <time>2010-01-01T03:16:39Z</time>
      </trkpt>
      <trkpt lat="42.33093" lon="2.22952">
        <ele>2026</ele>
        <time>2010-01-01T03:16:40Z</time>
      </trkpt>
      <trkpt lat="42.33094" lon="2.22951">
        <ele>2026</ele>
        <time>2010-01-01T03:16:41Z</time>
      </trkpt>
      <trkpt lat="42.33096" lon="2.22949">
        <ele>2027</ele>
        <time>2010-01-01T03:16:42Z</time>
      </trkpt>
      <trkpt lat="42.33098" lon="2.22948">
        <ele>2027</ele>
        <time>2010-01-01T03:16:42Z</time>
      </trkpt>
      <trkpt lat="42.33099" lon="2.22947">
        <ele>2028</ele>
        <time>2010-01-01T03:16:43Z</time>
      </trkpt>
      <trkpt lat="42.33101" lon="2.22946">
        <ele>2028</ele>
        <time>2010-01-01T03:16:44Z</time>
      </trkpt>
      <trkpt lat="42.33103" lon="2.22945">
        <ele>2028</ele>
        <time>2010-01-01T03:16:45Z</time>
      </trkpt>
      <trkpt lat="42.33104" lon="2.22943">
        <ele>2029</ele>
        <time>2010-01-01T03:16:45Z</time>
      </trkpt>
      <trkpt lat="42.33106" lon="2.22942">
        <ele>2029</ele>
        <time>2010-01-01T03:16:46Z</time>
      </trkpt>
      <trkpt lat="42.33108" lon="2.2294">
        <ele>2029</ele>
        <time>2010-01-01T03:16:47Z</time>
      </trkpt>
      <trkpt lat="42.3311" lon="2.22939">
        <ele>2030</ele>
        <time>2010-01-01T03:16:48Z</time>
      </trkpt>
      <trkpt lat="42.33111" lon="2.22938">
        <ele>2030</ele>
        <time>2010-01-01T03:16:49Z</time>
      </trkpt>
      <trkpt lat="42.33113" lon="2.22936">
        <ele>2031</ele>
        <time>2010-01-01T03:16:49Z</time>
      </trkpt>
      <trkpt lat="42.33115" lon="2.22935">
        <ele>2031</ele>
        <time>2010-01-01T03:16:50Z</time>
      </trkpt>
      <trkpt lat="42.33117" lon="2.22933">
        <ele>2032</ele>
        <time>2010-01-01T03:16:51Z</time>
      </trkpt>
      <trkpt lat="42.33119" lon="2.22931">
        <ele>2032</ele>
        <time>2010-01-01T03:16:52Z</time>
      </trkpt>
      <trkpt lat="42.33121" lon="2.2293">
        <ele>2032</ele>
        <time>2010-01-01T03:16:53Z</time>
      </trkpt>
      <trkpt lat="42.33123" lon="2.22928">
        <ele>2033</ele>
        <time>2010-01-01T03:16:54Z</time>
      </trkpt>
      <trkpt lat="42.33125" lon="2.22928">
        <ele>2033</ele>
        <time>2010-01-01T03:16:55Z</time>
      </trkpt>
      <trkpt lat="42.33126" lon="2.22926">
        <ele>2034</ele>
        <time>2010-01-01T03:16:56Z</time>
      </trkpt>
      <trkpt lat="42.33128" lon="2.22925">
        <ele>2034</ele>
        <time>2010-01-01T03:16:56Z</time>
      </trkpt>
      <trkpt lat="42.3313" lon="2.22924">
        <ele>2034</ele>
        <time>2010-01-01T03:16:57Z</time>
      </trkpt>
      <trkpt lat="42.33132" lon="2.22922">
        <ele>2035</ele>
        <time>2010-01-01T03:16:58Z</time>
      </trkpt>
      <trkpt lat="42.33133" lon="2.22921">
        <ele>2035</ele>
        <time>2010-01-01T03:16:59Z</time>
      </trkpt>
      <trkpt lat="42.33135" lon="2.22918">
        <ele>2036</ele>
        <time>2010-01-01T03:17:00Z</time>
      </trkpt>
      <trkpt lat="42.33137" lon="2.22916">
        <ele>2036</ele>
        <time>2010-01-01T03:17:01Z</time>
      </trkpt>
      <trkpt lat="42.33138" lon="2.22915">
        <ele>2036</ele>
        <time>2010-01-01T03:17:02Z</time>
      </trkpt>
      <trkpt lat="42.3314" lon="2.22913">
        <ele>2037</ele>
        <time>2010-01-01T03:17:02Z</time>
      </trkpt>
      <trkpt lat="42.33141" lon="2.22911">
        <ele>2037</ele>
        <time>2010-01-01T03:17:03Z</time>
      </trkpt>
      <trkpt lat="42.33143" lon="2.2291">
        <ele>2037</ele>
        <time>2010-01-01T03:17:04Z</time>
      </trkpt>
      <trkpt lat="42.33145" lon="2.22908">
        <ele>2038</ele>
        <time>2010-01-01T03:17:05Z</time>
      </trkpt>
      <trkpt lat="42.33147" lon="2.22907">
        <ele>2038</ele>
        <time>2010-01-01T03:17:06Z</time>
      </trkpt>
      <trkpt lat="42.33149" lon="2.22906">
        <ele>2038</ele>
        <time>2010-01-01T03:17:06Z</time>
      </trkpt>
      <trkpt lat="42.3315" lon="2.22905">
        <ele>2039</ele>
        <time>2010-01-01T03:17:07Z</time>
      </trkpt>
      <trkpt lat="42.33152" lon="2.22904">
        <ele>2039</ele>
        <time>2010-01-01T03:17:08Z</time>
      </trkpt>
      <trkpt lat="42.33154" lon="2.22903">
        <ele>2039</ele>
        <time>2010-01-01T03:17:09Z</time>
      </trkpt>
      <trkpt lat="42.33156" lon="2.22902">
        <ele>2040</ele>
        <time>2010-01-01T03:17:10Z</time>
      </trkpt>
      <trkpt lat="42.33158" lon="2.22901">
        <ele>2040</ele>
        <time>2010-01-01T03:17:11Z</time>
      </trkpt>
      <trkpt lat="42.3316" lon="2.229">
        <ele>2041</ele>
        <time>2010-01-01T03:17:11Z</time>
      </trkpt>
      <trkpt lat="42.33162" lon="2.22899">
        <ele>2041</ele>
        <time>2010-01-01T03:17:12Z</time>
      </trkpt>
      <trkpt lat="42.33164" lon="2.22897">
        <ele>2041</ele>
        <time>2010-01-01T03:17:13Z</time>
      </trkpt>
      <trkpt lat="42.33166" lon="2.22896">
        <ele>2042</ele>
        <time>2010-01-01T03:17:14Z</time>
      </trkpt>
      <trkpt lat="42.33168" lon="2.22894">
        <ele>2042</ele>
        <time>2010-01-01T03:17:15Z</time>
      </trkpt>
      <trkpt lat="42.3317" lon="2.22893">
        <ele>2043</ele>
        <time>2010-01-01T03:17:16Z</time>
      </trkpt>
      <trkpt lat="42.33171" lon="2.22891">
        <ele>2043</ele>
        <time>2010-01-01T03:17:17Z</time>
      </trkpt>
      <trkpt lat="42.33173" lon="2.2289">
        <ele>2044</ele>
        <time>2010-01-01T03:17:17Z</time>
      </trkpt>
      <trkpt lat="42.33175" lon="2.22889">
        <ele>2044</ele>
        <time>2010-01-01T03:17:18Z</time>
      </trkpt>
      <trkpt lat="42.33176" lon="2.22887">
        <ele>2044</ele>
        <time>2010-01-01T03:17:19Z</time>
      </trkpt>
      <trkpt lat="42.33178" lon="2.22886">
        <ele>2045</ele>
        <time>2010-01-01T03:17:20Z</time>
      </trkpt>
      <trkpt lat="42.33179" lon="2.22884">
        <ele>2045</ele>
        <time>2010-01-01T03:17:20Z</time>
      </trkpt>
      <trkpt lat="42.33181" lon="2.22882">
        <ele>2045</ele>
        <time>2010-01-01T03:17:21Z</time>
      </trkpt>
      <trkpt lat="42.33182" lon="2.22881">
        <ele>2046</ele>
        <time>2010-01-01T03:17:22Z</time>
      </trkpt>
      <trkpt lat="42.33184" lon="2.22879">
        <ele>2046</ele>
        <time>2010-01-01T03:17:23Z</time>
      </trkpt>
      <trkpt lat="42.33185" lon="2.22878">
        <ele>2047</ele>
        <time>2010-01-01T03:17:24Z</time>
      </trkpt>
      <trkpt lat="42.33187" lon="2.22876">
        <ele>2047</ele>
        <time>2010-01-01T03:17:24Z</time>
      </trkpt>
      <trkpt lat="42.33188" lon="2.22875">
        <ele>2047</ele>
        <time>2010-01-01T03:17:25Z</time>
      </trkpt>
      <trkpt lat="42.3319" lon="2.22873">
        <ele>2048</ele>
        <time>2010-01-01T03:17:26Z</time>
      </trkpt>
      <trkpt lat="42.33191" lon="2.22871">
        <ele>2048</ele>
        <time>2010-01-01T03:17:27Z</time>
      </trkpt>
      <trkpt lat="42.33193" lon="2.2287">
        <ele>2049</ele>
        <time>2010-01-01T03:17:27Z</time>
      </trkpt>
      <trkpt lat="42.33195" lon="2.22868">
        <ele>2049</ele>
        <time>2010-01-01T03:17:28Z</time>
      </trkpt>
      <trkpt lat="42.33196" lon="2.22867">
        <ele>2049</ele>
        <time>2010-01-01T03:17:29Z</time>
      </trkpt>
      <trkpt lat="42.33197" lon="2.22865">
        <ele>2050</ele>
        <time>2010-01-01T03:17:30Z</time>
      </trkpt>
      <trkpt lat="42.33199" lon="2.22863">
        <ele>2050</ele>
        <time>2010-01-01T03:17:30Z</time>
      </trkpt>
      <trkpt lat="42.332" lon="2.22861">
        <ele>2051</ele>
        <time>2010-01-01T03:17:31Z</time>
      </trkpt>
      <trkpt lat="42.33201" lon="2.22859">
        <ele>2051</ele>
        <time>2010-01-01T03:17:32Z</time>
      </trkpt>
      <trkpt lat="42.33202" lon="2.22857">
        <ele>2051</ele>
        <time>2010-01-01T03:17:33Z</time>
      </trkpt>
      <trkpt lat="42.33203" lon="2.22854">
        <ele>2052</ele>
        <time>2010-01-01T03:17:34Z</time>
      </trkpt>
      <trkpt lat="42.33205" lon="2.22852">
        <ele>2052</ele>
        <time>2010-01-01T03:17:34Z</time>
      </trkpt>
      <trkpt lat="42.33206" lon="2.2285">
        <ele>2053</ele>
        <time>2010-01-01T03:17:35Z</time>
      </trkpt>
      <trkpt lat="42.33208" lon="2.22847">
        <ele>2053</ele>
        <time>2010-01-01T03:17:36Z</time>
      </trkpt>
      <trkpt lat="42.33209" lon="2.22846">
        <ele>2053</ele>
        <time>2010-01-01T03:17:37Z</time>
      </trkpt>
      <trkpt lat="42.3321" lon="2.22844">
        <ele>2054</ele>
        <time>2010-01-01T03:17:38Z</time>
      </trkpt>
      <trkpt lat="42.33212" lon="2.22842">
        <ele>2054</ele>
        <time>2010-01-01T03:17:39Z</time>
      </trkpt>
      <trkpt lat="42.33213" lon="2.2284">
        <ele>2055</ele>
        <time>2010-01-01T03:17:39Z</time>
      </trkpt>
      <trkpt lat="42.33215" lon="2.22838">
        <ele>2055</ele>
        <time>2010-01-01T03:17:40Z</time>
      </trkpt>
      <trkpt lat="42.33216" lon="2.22836">
        <ele>2056</ele>
        <time>2010-01-01T03:17:41Z</time>
      </trkpt>
      <trkpt lat="42.33218" lon="2.22834">
        <ele>2056</ele>
        <time>2010-01-01T03:17:42Z</time>
      </trkpt>
      <trkpt lat="42.33219" lon="2.22832">
        <ele>2057</ele>
        <time>2010-01-01T03:17:43Z</time>
      </trkpt>
      <trkpt lat="42.3322" lon="2.2283">
        <ele>2057</ele>
        <time>2010-01-01T03:17:44Z</time>
      </trkpt>
      <trkpt lat="42.33222" lon="2.22828">
        <ele>2057</ele>
        <time>2010-01-01T03:17:44Z</time>
      </trkpt>
      <trkpt lat="42.33223" lon="2.22825">
        <ele>2058</ele>
        <time>2010-01-01T03:17:45Z</time>
      </trkpt>
      <trkpt lat="42.33225" lon="2.22823">
        <ele>2059</ele>
        <time>2010-01-01T03:17:46Z</time>
      </trkpt>
      <trkpt lat="42.33226" lon="2.2282">
        <ele>2059</ele>
        <time>2010-01-01T03:17:47Z</time>
      </trkpt>
      <trkpt lat="42.33228" lon="2.22818">
        <ele>2060</ele>
        <time>2010-01-01T03:17:48Z</time>
      </trkpt>
      <trkpt lat="42.3323" lon="2.22815">
        <ele>2060</ele>
        <time>2010-01-01T03:17:49Z</time>
      </trkpt>
      <trkpt lat="42.33231" lon="2.22812">
        <ele>2061</ele>
        <time>2010-01-01T03:17:50Z</time>
      </trkpt>
      <trkpt lat="42.33232" lon="2.2281">
        <ele>2061</ele>
        <time>2010-01-01T03:17:51Z</time>
      </trkpt>
      <trkpt lat="42.33234" lon="2.22807">
        <ele>2061</ele>
        <time>2010-01-01T03:17:52Z</time>
      </trkpt>
      <trkpt lat="42.33236" lon="2.22805">
        <ele>2062</ele>
        <time>2010-01-01T03:17:53Z</time>
      </trkpt>
      <trkpt lat="42.33237" lon="2.22802">
        <ele>2062</ele>
        <time>2010-01-01T03:17:54Z</time>
      </trkpt>
      <trkpt lat="42.33239" lon="2.228">
        <ele>2063</ele>
        <time>2010-01-01T03:17:55Z</time>
      </trkpt>
      <trkpt lat="42.33241" lon="2.22799">
        <ele>2063</ele>
        <time>2010-01-01T03:17:56Z</time>
      </trkpt>
      <trkpt lat="42.33243" lon="2.22797">
        <ele>2064</ele>
        <time>2010-01-01T03:17:57Z</time>
      </trkpt>
      <trkpt lat="42.33245" lon="2.22795">
        <ele>2064</ele>
        <time>2010-01-01T03:17:58Z</time>
      </trkpt>
      <trkpt lat="42.33247" lon="2.22794">
        <ele>2065</ele>
        <time>2010-01-01T03:17:59Z</time>
      </trkpt>
      <trkpt lat="42.33249" lon="2.22793">
        <ele>2065</ele>
        <time>2010-01-01T03:18:00Z</time>
      </trkpt>
      <trkpt lat="42.33251" lon="2.22791">
        <ele>2066</ele>
        <time>2010-01-01T03:18:01Z</time>
      </trkpt>
      <trkpt lat="42.33253" lon="2.22788">
        <ele>2066</ele>
        <time>2010-01-01T03:18:02Z</time>
      </trkpt>
      <trkpt lat="42.33255" lon="2.22786">
        <ele>2067</ele>
        <time>2010-01-01T03:18:03Z</time>
      </trkpt>
      <trkpt lat="42.33256" lon="2.22783">
        <ele>2067</ele>
        <time>2010-01-01T03:18:04Z</time>
      </trkpt>
      <trkpt lat="42.33258" lon="2.22781">
        <ele>2068</ele>
        <time>2010-01-01T03:18:05Z</time>
      </trkpt>
      <trkpt lat="42.3326" lon="2.22779">
        <ele>2068</ele>
        <time>2010-01-01T03:18:06Z</time>
      </trkpt>
      <trkpt lat="42.33262" lon="2.22776">
        <ele>2069</ele>
        <time>2010-01-01T03:18:07Z</time>
      </trkpt>
      <trkpt lat="42.33263" lon="2.22774">
        <ele>2069</ele>
        <time>2010-01-01T03:18:08Z</time>
      </trkpt>
      <trkpt lat="42.33264" lon="2.22772">
        <ele>2070</ele>
        <time>2010-01-01T03:18:09Z</time>
      </trkpt>
      <trkpt lat="42.33266" lon="2.22769">
        <ele>2071</ele>
        <time>2010-01-01T03:18:10Z</time>
      </trkpt>
      <trkpt lat="42.33267" lon="2.22766">
        <ele>2071</ele>
        <time>2010-01-01T03:18:11Z</time>
      </trkpt>
      <trkpt lat="42.33268" lon="2.22763">
        <ele>2071</ele>
        <time>2010-01-01T03:18:11Z</time>
      </trkpt>
      <trkpt lat="42.33269" lon="2.22761">
        <ele>2072</ele>
        <time>2010-01-01T03:18:12Z</time>
      </trkpt>
      <trkpt lat="42.3327" lon="2.22759">
        <ele>2073</ele>
        <time>2010-01-01T03:18:13Z</time>
      </trkpt>
      <trkpt lat="42.33272" lon="2.22756">
        <ele>2073</ele>
        <time>2010-01-01T03:18:14Z</time>
      </trkpt>
      <trkpt lat="42.33273" lon="2.22753">
        <ele>2074</ele>
        <time>2010-01-01T03:18:15Z</time>
      </trkpt>
      <trkpt lat="42.33274" lon="2.22751">
        <ele>2074</ele>
        <time>2010-01-01T03:18:16Z</time>
      </trkpt>
      <trkpt lat="42.33275" lon="2.22749">
        <ele>2075</ele>
        <time>2010-01-01T03:18:17Z</time>
      </trkpt>
      <trkpt lat="42.33276" lon="2.22747">
        <ele>2076</ele>
        <time>2010-01-01T03:18:17Z</time>
      </trkpt>
      <trkpt lat="42.33278" lon="2.22745">
        <ele>2076</ele>
        <time>2010-01-01T03:18:18Z</time>
      </trkpt>
      <trkpt lat="42.33279" lon="2.22743">
        <ele>2077</ele>
        <time>2010-01-01T03:18:19Z</time>
      </trkpt>
      <trkpt lat="42.3328" lon="2.22741">
        <ele>2078</ele>
        <time>2010-01-01T03:18:20Z</time>
      </trkpt>
      <trkpt lat="42.33281" lon="2.22739">
        <ele>2079</ele>
        <time>2010-01-01T03:18:20Z</time>
      </trkpt>
      <trkpt lat="42.33283" lon="2.22737">
        <ele>2080</ele>
        <time>2010-01-01T03:18:21Z</time>
      </trkpt>
      <trkpt lat="42.33284" lon="2.22734">
        <ele>2081</ele>
        <time>2010-01-01T03:18:22Z</time>
      </trkpt>
      <trkpt lat="42.33286" lon="2.22732">
        <ele>2082</ele>
        <time>2010-01-01T03:18:23Z</time>
      </trkpt>
      <trkpt lat="42.33288" lon="2.2273">
        <ele>2083</ele>
        <time>2010-01-01T03:18:24Z</time>
      </trkpt>
      <trkpt lat="42.3329" lon="2.22728">
        <ele>2084</ele>
        <time>2010-01-01T03:18:25Z</time>
      </trkpt>
      <trkpt lat="42.33292" lon="2.22727">
        <ele>2085</ele>
        <time>2010-01-01T03:18:26Z</time>
      </trkpt>
      <trkpt lat="42.33293" lon="2.22724">
        <ele>2086</ele>
        <time>2010-01-01T03:18:27Z</time>
      </trkpt>
      <trkpt lat="42.33295" lon="2.22723">
        <ele>2087</ele>
        <time>2010-01-01T03:18:28Z</time>
      </trkpt>
      <trkpt lat="42.33297" lon="2.22721">
        <ele>2088</ele>
        <time>2010-01-01T03:18:29Z</time>
      </trkpt>
      <trkpt lat="42.33299" lon="2.22719">
        <ele>2089</ele>
        <time>2010-01-01T03:18:30Z</time>
      </trkpt>
      <trkpt lat="42.33301" lon="2.22716">
        <ele>2090</ele>
        <time>2010-01-01T03:18:31Z</time>
      </trkpt>
      <trkpt lat="42.33302" lon="2.22714">
        <ele>2091</ele>
        <time>2010-01-01T03:18:32Z</time>
      </trkpt>
      <trkpt lat="42.33304" lon="2.22712">
        <ele>2092</ele>
        <time>2010-01-01T03:18:33Z</time>
      </trkpt>
      <trkpt lat="42.33305" lon="2.2271">
        <ele>2092</ele>
        <time>2010-01-01T03:18:33Z</time>
      </trkpt>
      <trkpt lat="42.33306" lon="2.22708">
        <ele>2093</ele>
        <time>2010-01-01T03:18:34Z</time>
      </trkpt>
      <trkpt lat="42.33308" lon="2.22706">
        <ele>2093</ele>
        <time>2010-01-01T03:18:35Z</time>
      </trkpt>
      <trkpt lat="42.3331" lon="2.22704">
        <ele>2094</ele>
        <time>2010-01-01T03:18:36Z</time>
      </trkpt>
      <trkpt lat="42.33311" lon="2.22701">
        <ele>2094</ele>
        <time>2010-01-01T03:18:37Z</time>
      </trkpt>
      <trkpt lat="42.33313" lon="2.227">
        <ele>2095</ele>
        <time>2010-01-01T03:18:38Z</time>
      </trkpt>
      <trkpt lat="42.33314" lon="2.22698">
        <ele>2095</ele>
        <time>2010-01-01T03:18:39Z</time>
      </trkpt>
      <trkpt lat="42.33316" lon="2.22696">
        <ele>2096</ele>
        <time>2010-01-01T03:18:39Z</time>
      </trkpt>
      <trkpt lat="42.33317" lon="2.22693">
        <ele>2097</ele>
        <time>2010-01-01T03:18:40Z</time>
      </trkpt>
      <trkpt lat="42.33319" lon="2.22691">
        <ele>2097</ele>
        <time>2010-01-01T03:18:41Z</time>
      </trkpt>
      <trkpt lat="42.33321" lon="2.22689">
        <ele>2098</ele>
        <time>2010-01-01T03:18:42Z</time>
      </trkpt>
      <trkpt lat="42.33323" lon="2.22687">
        <ele>2099</ele>
        <time>2010-01-01T03:18:43Z</time>
      </trkpt>
      <trkpt lat="42.33325" lon="2.22685">
        <ele>2099</ele>
        <time>2010-01-01T03:18:44Z</time>
      </trkpt>
      <trkpt lat="42.33326" lon="2.22683">
        <ele>2100</ele>
        <time>2010-01-01T03:18:45Z</time>
      </trkpt>
      <trkpt lat="42.33328" lon="2.22681">
        <ele>2101</ele>
        <time>2010-01-01T03:18:46Z</time>
      </trkpt>
      <trkpt lat="42.3333" lon="2.22678">
        <ele>2101</ele>
        <time>2010-01-01T03:18:47Z</time>
      </trkpt>
      <trkpt lat="42.33331" lon="2.22676">
        <ele>2102</ele>
        <time>2010-01-01T03:18:48Z</time>
      </trkpt>
      <trkpt lat="42.33333" lon="2.22674">
        <ele>2103</ele>
        <time>2010-01-01T03:18:49Z</time>
      </trkpt>
      <trkpt lat="42.33335" lon="2.22671">
        <ele>2103</ele>
        <time>2010-01-01T03:18:50Z</time>
      </trkpt>
      <trkpt lat="42.33336" lon="2.22669">
        <ele>2104</ele>
        <time>2010-01-01T03:18:51Z</time>
      </trkpt>
      <trkpt lat="42.33337" lon="2.22667">
        <ele>2104</ele>
        <time>2010-01-01T03:18:52Z</time>
      </trkpt>
      <trkpt lat="42.33339" lon="2.22665">
        <ele>2105</ele>
        <time>2010-01-01T03:18:53Z</time>
      </trkpt>
      <trkpt lat="42.3334" lon="2.22663">
        <ele>2106</ele>
        <time>2010-01-01T03:18:53Z</time>
      </trkpt>
      <trkpt lat="42.33341" lon="2.2266">
        <ele>2106</ele>
        <time>2010-01-01T03:18:54Z</time>
      </trkpt>
      <trkpt lat="42.33342" lon="2.22658">
        <ele>2107</ele>
        <time>2010-01-01T03:18:55Z</time>
      </trkpt>
      <trkpt lat="42.33343" lon="2.22656">
        <ele>2108</ele>
        <time>2010-01-01T03:18:56Z</time>
      </trkpt>
      <trkpt lat="42.33345" lon="2.22654">
        <ele>2108</ele>
        <time>2010-01-01T03:18:57Z</time>
      </trkpt>
      <trkpt lat="42.33347" lon="2.22652">
        <ele>2109</ele>
        <time>2010-01-01T03:18:57Z</time>
      </trkpt>
      <trkpt lat="42.33348" lon="2.22651">
        <ele>2110</ele>
        <time>2010-01-01T03:18:58Z</time>
      </trkpt>
      <trkpt lat="42.3335" lon="2.22649">
        <ele>2111</ele>
        <time>2010-01-01T03:18:59Z</time>
      </trkpt>
      <trkpt lat="42.33352" lon="2.22647">
        <ele>2112</ele>
        <time>2010-01-01T03:19:00Z</time>
      </trkpt>
      <trkpt lat="42.33353" lon="2.22645">
        <ele>2113</ele>
        <time>2010-01-01T03:19:01Z</time>
      </trkpt>
      <trkpt lat="42.33354" lon="2.22643">
        <ele>2114</ele>
        <time>2010-01-01T03:19:02Z</time>
      </trkpt>
      <trkpt lat="42.33356" lon="2.22641">
        <ele>2115</ele>
        <time>2010-01-01T03:19:03Z</time>
      </trkpt>
      <trkpt lat="42.33357" lon="2.22638">
        <ele>2116</ele>
        <time>2010-01-01T03:19:04Z</time>
      </trkpt>
      <trkpt lat="42.33359" lon="2.22636">
        <ele>2117</ele>
        <time>2010-01-01T03:19:05Z</time>
      </trkpt>
      <trkpt lat="42.33361" lon="2.22633">
        <ele>2118</ele>
        <time>2010-01-01T03:19:05Z</time>
      </trkpt>
      <trkpt lat="42.33362" lon="2.2263">
        <ele>2119</ele>
        <time>2010-01-01T03:19:06Z</time>
      </trkpt>
      <trkpt lat="42.33363" lon="2.22628">
        <ele>2119</ele>
        <time>2010-01-01T03:19:07Z</time>
      </trkpt>
      <trkpt lat="42.33365" lon="2.22626">
        <ele>2120</ele>
        <time>2010-01-01T03:19:08Z</time>
      </trkpt>
      <trkpt lat="42.33367" lon="2.22625">
        <ele>2120</ele>
        <time>2010-01-01T03:19:09Z</time>
      </trkpt>
      <trkpt lat="42.33368" lon="2.22623">
        <ele>2121</ele>
        <time>2010-01-01T03:19:10Z</time>
      </trkpt>
      <trkpt lat="42.3337" lon="2.22622">
        <ele>2121</ele>
        <time>2010-01-01T03:19:11Z</time>
      </trkpt>
      <trkpt lat="42.33372" lon="2.22621">
        <ele>2122</ele>
        <time>2010-01-01T03:19:11Z</time>
      </trkpt>
      <trkpt lat="42.33374" lon="2.2262">
        <ele>2122</ele>
        <time>2010-01-01T03:19:12Z</time>
      </trkpt>
      <trkpt lat="42.33375" lon="2.22618">
        <ele>2123</ele>
        <time>2010-01-01T03:19:13Z</time>
      </trkpt>
      <trkpt lat="42.33377" lon="2.22615">
        <ele>2124</ele>
        <time>2010-01-01T03:19:14Z</time>
      </trkpt>
      <trkpt lat="42.33378" lon="2.22613">
        <ele>2124</ele>
        <time>2010-01-01T03:19:15Z</time>
      </trkpt>
      <trkpt lat="42.3338" lon="2.2261">
        <ele>2125</ele>
        <time>2010-01-01T03:19:16Z</time>
      </trkpt>
      <trkpt lat="42.33382" lon="2.22608">
        <ele>2126</ele>
        <time>2010-01-01T03:19:17Z</time>
      </trkpt>
      <trkpt lat="42.33383" lon="2.22606">
        <ele>2126</ele>
        <time>2010-01-01T03:19:18Z</time>
      </trkpt>
      <trkpt lat="42.33385" lon="2.22605">
        <ele>2127</ele>
        <time>2010-01-01T03:19:19Z</time>
      </trkpt>
      <trkpt lat="42.33386" lon="2.22603">
        <ele>2127</ele>
        <time>2010-01-01T03:19:19Z</time>
      </trkpt>
      <trkpt lat="42.33388" lon="2.22601">
        <ele>2128</ele>
        <time>2010-01-01T03:19:20Z</time>
      </trkpt>
      <trkpt lat="42.3339" lon="2.226">
        <ele>2128</ele>
        <time>2010-01-01T03:19:21Z</time>
      </trkpt>
      <trkpt lat="42.33391" lon="2.22597">
        <ele>2129</ele>
        <time>2010-01-01T03:19:22Z</time>
      </trkpt>
      <trkpt lat="42.33391" lon="2.22594">
        <ele>2129</ele>
        <time>2010-01-01T03:19:23Z</time>
      </trkpt>
      <trkpt lat="42.33393" lon="2.22589">
        <ele>2130</ele>
        <time>2010-01-01T03:19:24Z</time>
      </trkpt>
      <trkpt lat="42.33394" lon="2.22586">
        <ele>2131</ele>
        <time>2010-01-01T03:19:25Z</time>
      </trkpt>
      <trkpt lat="42.33395" lon="2.22584">
        <ele>2131</ele>
        <time>2010-01-01T03:19:26Z</time>
      </trkpt>
      <trkpt lat="42.33396" lon="2.22581">
        <ele>2131</ele>
        <time>2010-01-01T03:19:27Z</time>
      </trkpt>
      <trkpt lat="42.33396" lon="2.22578">
        <ele>2132</ele>
        <time>2010-01-01T03:19:28Z</time>
      </trkpt>
      <trkpt lat="42.33396" lon="2.22572">
        <ele>2132</ele>
        <time>2010-01-01T03:19:30Z</time>
      </trkpt>
      <trkpt lat="42.33396" lon="2.22569">
        <ele>2133</ele>
        <time>2010-01-01T03:19:31Z</time>
      </trkpt>
      <trkpt lat="42.33396" lon="2.22566">
        <ele>2133</ele>
        <time>2010-01-01T03:19:32Z</time>
      </trkpt>
      <trkpt lat="42.33398" lon="2.22563">
        <ele>2133</ele>
        <time>2010-01-01T03:19:32Z</time>
      </trkpt>
      <trkpt lat="42.33398" lon="2.2256">
        <ele>2134</ele>
        <time>2010-01-01T03:19:33Z</time>
      </trkpt>
      <trkpt lat="42.334" lon="2.22558">
        <ele>2134</ele>
        <time>2010-01-01T03:19:34Z</time>
      </trkpt>
      <trkpt lat="42.33401" lon="2.22555">
        <ele>2135</ele>
        <time>2010-01-01T03:19:35Z</time>
      </trkpt>
      <trkpt lat="42.33403" lon="2.22553">
        <ele>2135</ele>
        <time>2010-01-01T03:19:36Z</time>
      </trkpt>
      <trkpt lat="42.33406" lon="2.22551">
        <ele>2136</ele>
        <time>2010-01-01T03:19:37Z</time>
      </trkpt>
      <trkpt lat="42.33407" lon="2.2255">
        <ele>2136</ele>
        <time>2010-01-01T03:19:38Z</time>
      </trkpt>
      <trkpt lat="42.33409" lon="2.22548">
        <ele>2137</ele>
        <time>2010-01-01T03:19:39Z</time>
      </trkpt>
      <trkpt lat="42.33411" lon="2.22545">
        <ele>2137</ele>
        <time>2010-01-01T03:19:40Z</time>
      </trkpt>
      <trkpt lat="42.33413" lon="2.22543">
        <ele>2138</ele>
        <time>2010-01-01T03:19:41Z</time>
      </trkpt>
      <trkpt lat="42.33415" lon="2.22541">
        <ele>2139</ele>
        <time>2010-01-01T03:19:42Z</time>
      </trkpt>
      <trkpt lat="42.33416" lon="2.22539">
        <ele>2139</ele>
        <time>2010-01-01T03:19:43Z</time>
      </trkpt>
      <trkpt lat="42.33417" lon="2.22537">
        <ele>2140</ele>
        <time>2010-01-01T03:19:44Z</time>
      </trkpt>
      <trkpt lat="42.33419" lon="2.22534">
        <ele>2140</ele>
        <time>2010-01-01T03:19:45Z</time>
      </trkpt>
      <trkpt lat="42.33421" lon="2.22532">
        <ele>2141</ele>
        <time>2010-01-01T03:19:46Z</time>
      </trkpt>
      <trkpt lat="42.33422" lon="2.2253">
        <ele>2141</ele>
        <time>2010-01-01T03:19:47Z</time>
      </trkpt>
      <trkpt lat="42.33425" lon="2.22528">
        <ele>2142</ele>
        <time>2010-01-01T03:19:48Z</time>
      </trkpt>
      <trkpt lat="42.33426" lon="2.22527">
        <ele>2142</ele>
        <time>2010-01-01T03:19:49Z</time>
      </trkpt>
      <trkpt lat="42.33428" lon="2.22525">
        <ele>2143</ele>
        <time>2010-01-01T03:19:50Z</time>
      </trkpt>
      <trkpt lat="42.3343" lon="2.22523">
        <ele>2143</ele>
        <time>2010-01-01T03:19:50Z</time>
      </trkpt>
      <trkpt lat="42.33432" lon="2.22521">
        <ele>2144</ele>
        <time>2010-01-01T03:19:51Z</time>
      </trkpt>
      <trkpt lat="42.33434" lon="2.22519">
        <ele>2145</ele>
        <time>2010-01-01T03:19:52Z</time>
      </trkpt>
      <trkpt lat="42.33435" lon="2.22517">
        <ele>2145</ele>
        <time>2010-01-01T03:19:53Z</time>
      </trkpt>
      <trkpt lat="42.33437" lon="2.22514">
        <ele>2146</ele>
        <time>2010-01-01T03:19:54Z</time>
      </trkpt>
      <trkpt lat="42.33438" lon="2.22512">
        <ele>2147</ele>
        <time>2010-01-01T03:19:55Z</time>
      </trkpt>
      <trkpt lat="42.3344" lon="2.2251">
        <ele>2147</ele>
        <time>2010-01-01T03:19:56Z</time>
      </trkpt>
      <trkpt lat="42.33442" lon="2.22508">
        <ele>2148</ele>
        <time>2010-01-01T03:19:57Z</time>
      </trkpt>
      <trkpt lat="42.33443" lon="2.22507">
        <ele>2149</ele>
        <time>2010-01-01T03:19:58Z</time>
      </trkpt>
      <trkpt lat="42.33445" lon="2.22505">
        <ele>2150</ele>
        <time>2010-01-01T03:19:58Z</time>
      </trkpt>
      <trkpt lat="42.33447" lon="2.22504">
        <ele>2150</ele>
        <time>2010-01-01T03:19:59Z</time>
      </trkpt>
      <trkpt lat="42.33449" lon="2.22502">
        <ele>2151</ele>
        <time>2010-01-01T03:20:00Z</time>
      </trkpt>
      <trkpt lat="42.33451" lon="2.225">
        <ele>2152</ele>
        <time>2010-01-01T03:20:01Z</time>
      </trkpt>
      <trkpt lat="42.33453" lon="2.22498">
        <ele>2153</ele>
        <time>2010-01-01T03:20:02Z</time>
      </trkpt>
      <trkpt lat="42.33454" lon="2.22496">
        <ele>2153</ele>
        <time>2010-01-01T03:20:03Z</time>
      </trkpt>
      <trkpt lat="42.33456" lon="2.22494">
        <ele>2154</ele>
        <time>2010-01-01T03:20:04Z</time>
      </trkpt>
      <trkpt lat="42.33458" lon="2.22492">
        <ele>2155</ele>
        <time>2010-01-01T03:20:05Z</time>
      </trkpt>
      <trkpt lat="42.3346" lon="2.2249">
        <ele>2155</ele>
        <time>2010-01-01T03:20:06Z</time>
      </trkpt>
      <trkpt lat="42.33462" lon="2.22488">
        <ele>2156</ele>
        <time>2010-01-01T03:20:07Z</time>
      </trkpt>
      <trkpt lat="42.33464" lon="2.22486">
        <ele>2157</ele>
        <time>2010-01-01T03:20:08Z</time>
      </trkpt>
      <trkpt lat="42.33466" lon="2.22485">
        <ele>2158</ele>
        <time>2010-01-01T03:20:09Z</time>
      </trkpt>
      <trkpt lat="42.33467" lon="2.22483">
        <ele>2158</ele>
        <time>2010-01-01T03:20:10Z</time>
      </trkpt>
      <trkpt lat="42.33469" lon="2.22481">
        <ele>2159</ele>
        <time>2010-01-01T03:20:10Z</time>
      </trkpt>
      <trkpt lat="42.33471" lon="2.22479">
        <ele>2160</ele>
        <time>2010-01-01T03:20:11Z</time>
      </trkpt>
      <trkpt lat="42.33473" lon="2.22476">
        <ele>2161</ele>
        <time>2010-01-01T03:20:12Z</time>
      </trkpt>
      <trkpt lat="42.33474" lon="2.22475">
        <ele>2162</ele>
        <time>2010-01-01T03:20:13Z</time>
      </trkpt>
      <trkpt lat="42.33475" lon="2.22472">
        <ele>2162</ele>
        <time>2010-01-01T03:20:14Z</time>
      </trkpt>
      <trkpt lat="42.33477" lon="2.2247">
        <ele>2163</ele>
        <time>2010-01-01T03:20:15Z</time>
      </trkpt>
      <trkpt lat="42.33479" lon="2.22468">
        <ele>2163</ele>
        <time>2010-01-01T03:20:16Z</time>
      </trkpt>
      <trkpt lat="42.3348" lon="2.22466">
        <ele>2163</ele>
        <time>2010-01-01T03:20:17Z</time>
      </trkpt>
      <trkpt lat="42.33482" lon="2.22464">
        <ele>2164</ele>
        <time>2010-01-01T03:20:18Z</time>
      </trkpt>
      <trkpt lat="42.33484" lon="2.22462">
        <ele>2164</ele>
        <time>2010-01-01T03:20:19Z</time>
      </trkpt>
      <trkpt lat="42.33485" lon="2.22461">
        <ele>2165</ele>
        <time>2010-01-01T03:20:19Z</time>
      </trkpt>
      <trkpt lat="42.33487" lon="2.22459">
        <ele>2165</ele>
        <time>2010-01-01T03:20:20Z</time>
      </trkpt>
      <trkpt lat="42.33489" lon="2.22458">
        <ele>2166</ele>
        <time>2010-01-01T03:20:21Z</time>
      </trkpt>
      <trkpt lat="42.33491" lon="2.22457">
        <ele>2167</ele>
        <time>2010-01-01T03:20:22Z</time>
      </trkpt>
      <trkpt lat="42.33493" lon="2.22455">
        <ele>2167</ele>
        <time>2010-01-01T03:20:23Z</time>
      </trkpt>
      <trkpt lat="42.33494" lon="2.22453">
        <ele>2168</ele>
        <time>2010-01-01T03:20:24Z</time>
      </trkpt>
      <trkpt lat="42.33494" lon="2.2245">
        <ele>2168</ele>
        <time>2010-01-01T03:20:25Z</time>
      </trkpt>
      <trkpt lat="42.33496" lon="2.22447">
        <ele>2169</ele>
        <time>2010-01-01T03:20:25Z</time>
      </trkpt>
      <trkpt lat="42.33496" lon="2.22445">
        <ele>2169</ele>
        <time>2010-01-01T03:20:26Z</time>
      </trkpt>
      <trkpt lat="42.33498" lon="2.22443">
        <ele>2170</ele>
        <time>2010-01-01T03:20:27Z</time>
      </trkpt>
      <trkpt lat="42.33499" lon="2.22441">
        <ele>2170</ele>
        <time>2010-01-01T03:20:28Z</time>
      </trkpt>
      <trkpt lat="42.33501" lon="2.2244">
        <ele>2171</ele>
        <time>2010-01-01T03:20:29Z</time>
      </trkpt>
      <trkpt lat="42.33503" lon="2.22439">
        <ele>2171</ele>
        <time>2010-01-01T03:20:29Z</time>
      </trkpt>
      <trkpt lat="42.33505" lon="2.22438">
        <ele>2172</ele>
        <time>2010-01-01T03:20:30Z</time>
      </trkpt>
      <trkpt lat="42.33507" lon="2.22436">
        <ele>2172</ele>
        <time>2010-01-01T03:20:31Z</time>
      </trkpt>
      <trkpt lat="42.33509" lon="2.22435">
        <ele>2172</ele>
        <time>2010-01-01T03:20:32Z</time>
      </trkpt>
      <trkpt lat="42.33511" lon="2.22432">
        <ele>2173</ele>
        <time>2010-01-01T03:20:33Z</time>
      </trkpt>
      <trkpt lat="42.33513" lon="2.22431">
        <ele>2173</ele>
        <time>2010-01-01T03:20:34Z</time>
      </trkpt>
      <trkpt lat="42.33515" lon="2.22429">
        <ele>2173</ele>
        <time>2010-01-01T03:20:35Z</time>
      </trkpt>
      <trkpt lat="42.33517" lon="2.22428">
        <ele>2174</ele>
        <time>2010-01-01T03:20:36Z</time>
      </trkpt>
      <trkpt lat="42.33519" lon="2.22427">
        <ele>2174</ele>
        <time>2010-01-01T03:20:37Z</time>
      </trkpt>
      <trkpt lat="42.33522" lon="2.22426">
        <ele>2174</ele>
        <time>2010-01-01T03:20:38Z</time>
      </trkpt>
      <trkpt lat="42.33524" lon="2.22425">
        <ele>2175</ele>
        <time>2010-01-01T03:20:39Z</time>
      </trkpt>
      <trkpt lat="42.33527" lon="2.22423">
        <ele>2175</ele>
        <time>2010-01-01T03:20:40Z</time>
      </trkpt>
      <trkpt lat="42.33529" lon="2.22422">
        <ele>2175</ele>
        <time>2010-01-01T03:20:41Z</time>
      </trkpt>
      <trkpt lat="42.33532" lon="2.2242">
        <ele>2175</ele>
        <time>2010-01-01T03:20:42Z</time>
      </trkpt>
      <trkpt lat="42.33534" lon="2.22418">
        <ele>2175</ele>
        <time>2010-01-01T03:20:43Z</time>
      </trkpt>
      <trkpt lat="42.33536" lon="2.22416">
        <ele>2175</ele>
        <time>2010-01-01T03:20:45Z</time>
      </trkpt>
      <trkpt lat="42.33538" lon="2.22413">
        <ele>2175</ele>
        <time>2010-01-01T03:20:46Z</time>
      </trkpt>
      <trkpt lat="42.3354" lon="2.22411">
        <ele>2174</ele>
        <time>2010-01-01T03:20:47Z</time>
      </trkpt>
      <trkpt lat="42.33543" lon="2.22409">
        <ele>2174</ele>
        <time>2010-01-01T03:20:48Z</time>
      </trkpt>
      <trkpt lat="42.33545" lon="2.22407">
        <ele>2174</ele>
        <time>2010-01-01T03:20:49Z</time>
      </trkpt>
      <trkpt lat="42.33547" lon="2.22405">
        <ele>2174</ele>
        <time>2010-01-01T03:20:50Z</time>
      </trkpt>
      <trkpt lat="42.33549" lon="2.22402">
        <ele>2174</ele>
        <time>2010-01-01T03:20:51Z</time>
      </trkpt>
      <trkpt lat="42.33552" lon="2.22401">
        <ele>2174</ele>
        <time>2010-01-01T03:20:52Z</time>
      </trkpt>
      <trkpt lat="42.33554" lon="2.22399">
        <ele>2174</ele>
        <time>2010-01-01T03:20:53Z</time>
      </trkpt>
      <trkpt lat="42.33557" lon="2.22398">
        <ele>2174</ele>
        <time>2010-01-01T03:20:55Z</time>
      </trkpt>
      <trkpt lat="42.3356" lon="2.22396">
        <ele>2174</ele>
        <time>2010-01-01T03:20:56Z</time>
      </trkpt>
      <trkpt lat="42.33562" lon="2.22395">
        <ele>2174</ele>
        <time>2010-01-01T03:20:57Z</time>
      </trkpt>
      <trkpt lat="42.33565" lon="2.22393">
        <ele>2174</ele>
        <time>2010-01-01T03:20:58Z</time>
      </trkpt>
      <trkpt lat="42.33568" lon="2.22392">
        <ele>2174</ele>
        <time>2010-01-01T03:20:59Z</time>
      </trkpt>
      <trkpt lat="42.33571" lon="2.22391">
        <ele>2175</ele>
        <time>2010-01-01T03:21:01Z</time>
      </trkpt>
      <trkpt lat="42.33574" lon="2.2239">
        <ele>2175</ele>
        <time>2010-01-01T03:21:02Z</time>
      </trkpt>
      <trkpt lat="42.33576" lon="2.22389">
        <ele>2175</ele>
        <time>2010-01-01T03:21:03Z</time>
      </trkpt>
      <trkpt lat="42.33579" lon="2.22388">
        <ele>2175</ele>
        <time>2010-01-01T03:21:04Z</time>
      </trkpt>
      <trkpt lat="42.33581" lon="2.22387">
        <ele>2175</ele>
        <time>2010-01-01T03:21:05Z</time>
      </trkpt>
      <trkpt lat="42.33584" lon="2.22386">
        <ele>2175</ele>
        <time>2010-01-01T03:21:06Z</time>
      </trkpt>
      <trkpt lat="42.33586" lon="2.22386">
        <ele>2176</ele>
        <time>2010-01-01T03:21:07Z</time>
      </trkpt>
      <trkpt lat="42.33588" lon="2.22385">
        <ele>2176</ele>
        <time>2010-01-01T03:21:08Z</time>
      </trkpt>
      <trkpt lat="42.33591" lon="2.22384">
        <ele>2176</ele>
        <time>2010-01-01T03:21:09Z</time>
      </trkpt>
      <trkpt lat="42.33593" lon="2.22384">
        <ele>2177</ele>
        <time>2010-01-01T03:21:09Z</time>
      </trkpt>
      <trkpt lat="42.33595" lon="2.22383">
        <ele>2177</ele>
        <time>2010-01-01T03:21:10Z</time>
      </trkpt>
      <trkpt lat="42.33596" lon="2.22379">
        <ele>2177</ele>
        <time>2010-01-01T03:21:12Z</time>
      </trkpt>
      <trkpt lat="42.33598" lon="2.22379">
        <ele>2178</ele>
        <time>2010-01-01T03:21:12Z</time>
      </trkpt>
      <trkpt lat="42.336" lon="2.22379">
        <ele>2178</ele>
        <time>2010-01-01T03:21:13Z</time>
      </trkpt>
      <trkpt lat="42.33603" lon="2.22378">
        <ele>2179</ele>
        <time>2010-01-01T03:21:14Z</time>
      </trkpt>
      <trkpt lat="42.33604" lon="2.22378">
        <ele>2179</ele>
        <time>2010-01-01T03:21:15Z</time>
      </trkpt>
      <trkpt lat="42.33606" lon="2.22378">
        <ele>2179</ele>
        <time>2010-01-01T03:21:16Z</time>
      </trkpt>
      <trkpt lat="42.3361" lon="2.22378">
        <ele>2180</ele>
        <time>2010-01-01T03:21:17Z</time>
      </trkpt>
      <trkpt lat="42.33613" lon="2.22377">
        <ele>2181</ele>
        <time>2010-01-01T03:21:18Z</time>
      </trkpt>
      <trkpt lat="42.33614" lon="2.22376">
        <ele>2181</ele>
        <time>2010-01-01T03:21:19Z</time>
      </trkpt>
      <trkpt lat="42.33616" lon="2.22375">
        <ele>2181</ele>
        <time>2010-01-01T03:21:20Z</time>
      </trkpt>
      <trkpt lat="42.33618" lon="2.22375">
        <ele>2181</ele>
        <time>2010-01-01T03:21:21Z</time>
      </trkpt>
      <trkpt lat="42.3362" lon="2.22374">
        <ele>2182</ele>
        <time>2010-01-01T03:21:21Z</time>
      </trkpt>
      <trkpt lat="42.33622" lon="2.22373">
        <ele>2182</ele>
        <time>2010-01-01T03:21:22Z</time>
      </trkpt>
      <trkpt lat="42.33624" lon="2.22372">
        <ele>2182</ele>
        <time>2010-01-01T03:21:23Z</time>
      </trkpt>
      <trkpt lat="42.33626" lon="2.22371">
        <ele>2183</ele>
        <time>2010-01-01T03:21:24Z</time>
      </trkpt>
      <trkpt lat="42.33629" lon="2.2237">
        <ele>2183</ele>
        <time>2010-01-01T03:21:25Z</time>
      </trkpt>
      <trkpt lat="42.33631" lon="2.22369">
        <ele>2183</ele>
        <time>2010-01-01T03:21:26Z</time>
      </trkpt>
      <trkpt lat="42.33633" lon="2.22368">
        <ele>2184</ele>
        <time>2010-01-01T03:21:27Z</time>
      </trkpt>
      <trkpt lat="42.33635" lon="2.22368">
        <ele>2184</ele>
        <time>2010-01-01T03:21:28Z</time>
      </trkpt>
      <trkpt lat="42.33638" lon="2.22367">
        <ele>2184</ele>
        <time>2010-01-01T03:21:29Z</time>
      </trkpt>
      <trkpt lat="42.3364" lon="2.22366">
        <ele>2184</ele>
        <time>2010-01-01T03:21:30Z</time>
      </trkpt>
      <trkpt lat="42.33643" lon="2.22365">
        <ele>2185</ele>
        <time>2010-01-01T03:21:31Z</time>
      </trkpt>
      <trkpt lat="42.33645" lon="2.22364">
        <ele>2185</ele>
        <time>2010-01-01T03:21:32Z</time>
      </trkpt>
      <trkpt lat="42.33647" lon="2.22363">
        <ele>2185</ele>
        <time>2010-01-01T03:21:33Z</time>
      </trkpt>
      <trkpt lat="42.33649" lon="2.22363">
        <ele>2185</ele>
        <time>2010-01-01T03:21:34Z</time>
      </trkpt>
      <trkpt lat="42.33652" lon="2.22362">
        <ele>2185</ele>
        <time>2010-01-01T03:21:35Z</time>
      </trkpt>
      <trkpt lat="42.33654" lon="2.2236">
        <ele>2185</ele>
        <time>2010-01-01T03:21:35Z</time>
      </trkpt>
      <trkpt lat="42.33656" lon="2.22359">
        <ele>2185</ele>
        <time>2010-01-01T03:21:36Z</time>
      </trkpt>
      <trkpt lat="42.33659" lon="2.22358">
        <ele>2185</ele>
        <time>2010-01-01T03:21:38Z</time>
      </trkpt>
      <trkpt lat="42.33661" lon="2.22357">
        <ele>2185</ele>
        <time>2010-01-01T03:21:39Z</time>
      </trkpt>
      <trkpt lat="42.33664" lon="2.22355">
        <ele>2186</ele>
        <time>2010-01-01T03:21:40Z</time>
      </trkpt>
      <trkpt lat="42.33667" lon="2.22354">
        <ele>2186</ele>
        <time>2010-01-01T03:21:41Z</time>
      </trkpt>
      <trkpt lat="42.33669" lon="2.22353">
        <ele>2186</ele>
        <time>2010-01-01T03:21:42Z</time>
      </trkpt>
      <trkpt lat="42.33672" lon="2.22351">
        <ele>2187</ele>
        <time>2010-01-01T03:21:43Z</time>
      </trkpt>
      <trkpt lat="42.33675" lon="2.2235">
        <ele>2187</ele>
        <time>2010-01-01T03:21:44Z</time>
      </trkpt>
      <trkpt lat="42.33677" lon="2.22349">
        <ele>2188</ele>
        <time>2010-01-01T03:21:45Z</time>
      </trkpt>
      <trkpt lat="42.3368" lon="2.22348">
        <ele>2188</ele>
        <time>2010-01-01T03:21:47Z</time>
      </trkpt>
      <trkpt lat="42.33682" lon="2.22347">
        <ele>2189</ele>
        <time>2010-01-01T03:21:48Z</time>
      </trkpt>
      <trkpt lat="42.33684" lon="2.22345">
        <ele>2189</ele>
        <time>2010-01-01T03:21:49Z</time>
      </trkpt>
      <trkpt lat="42.33687" lon="2.22344">
        <ele>2190</ele>
        <time>2010-01-01T03:21:50Z</time>
      </trkpt>
      <trkpt lat="42.33689" lon="2.22343">
        <ele>2190</ele>
        <time>2010-01-01T03:21:51Z</time>
      </trkpt>
      <trkpt lat="42.33692" lon="2.22341">
        <ele>2191</ele>
        <time>2010-01-01T03:21:52Z</time>
      </trkpt>
      <trkpt lat="42.33695" lon="2.2234">
        <ele>2191</ele>
        <time>2010-01-01T03:21:53Z</time>
      </trkpt>
      <trkpt lat="42.33697" lon="2.22339">
        <ele>2192</ele>
        <time>2010-01-01T03:21:54Z</time>
      </trkpt>
      <trkpt lat="42.33699" lon="2.22338">
        <ele>2192</ele>
        <time>2010-01-01T03:21:55Z</time>
      </trkpt>
      <trkpt lat="42.33702" lon="2.22336">
        <ele>2193</ele>
        <time>2010-01-01T03:21:56Z</time>
      </trkpt>
      <trkpt lat="42.33704" lon="2.22335">
        <ele>2194</ele>
        <time>2010-01-01T03:21:57Z</time>
      </trkpt>
      <trkpt lat="42.33707" lon="2.22334">
        <ele>2194</ele>
        <time>2010-01-01T03:21:58Z</time>
      </trkpt>
      <trkpt lat="42.33709" lon="2.22333">
        <ele>2195</ele>
        <time>2010-01-01T03:21:59Z</time>
      </trkpt>
      <trkpt lat="42.33711" lon="2.22332">
        <ele>2195</ele>
        <time>2010-01-01T03:22:00Z</time>
      </trkpt>
      <trkpt lat="42.33713" lon="2.22331">
        <ele>2195</ele>
        <time>2010-01-01T03:22:01Z</time>
      </trkpt>
      <trkpt lat="42.33716" lon="2.22329">
        <ele>2196</ele>
        <time>2010-01-01T03:22:02Z</time>
      </trkpt>
      <trkpt lat="42.33718" lon="2.22328">
        <ele>2196</ele>
        <time>2010-01-01T03:22:03Z</time>
      </trkpt>
      <trkpt lat="42.33721" lon="2.22326">
        <ele>2197</ele>
        <time>2010-01-01T03:22:04Z</time>
      </trkpt>
      <trkpt lat="42.33723" lon="2.22325">
        <ele>2197</ele>
        <time>2010-01-01T03:22:05Z</time>
      </trkpt>
      <trkpt lat="42.33726" lon="2.22323">
        <ele>2197</ele>
        <time>2010-01-01T03:22:06Z</time>
      </trkpt>
      <trkpt lat="42.33728" lon="2.22321">
        <ele>2197</ele>
        <time>2010-01-01T03:22:08Z</time>
      </trkpt>
      <trkpt lat="42.33731" lon="2.22318">
        <ele>2197</ele>
        <time>2010-01-01T03:22:09Z</time>
      </trkpt>
      <trkpt lat="42.33733" lon="2.22316">
        <ele>2197</ele>
        <time>2010-01-01T03:22:10Z</time>
      </trkpt>
      <trkpt lat="42.33736" lon="2.22314">
        <ele>2197</ele>
        <time>2010-01-01T03:22:11Z</time>
      </trkpt>
      <trkpt lat="42.33738" lon="2.22312">
        <ele>2198</ele>
        <time>2010-01-01T03:22:12Z</time>
      </trkpt>
      <trkpt lat="42.3374" lon="2.2231">
        <ele>2198</ele>
        <time>2010-01-01T03:22:13Z</time>
      </trkpt>
      <trkpt lat="42.33742" lon="2.22308">
        <ele>2198</ele>
        <time>2010-01-01T03:22:14Z</time>
      </trkpt>
      <trkpt lat="42.33744" lon="2.22306">
        <ele>2198</ele>
        <time>2010-01-01T03:22:15Z</time>
      </trkpt>
      <trkpt lat="42.33745" lon="2.22304">
        <ele>2198</ele>
        <time>2010-01-01T03:22:16Z</time>
      </trkpt>
      <trkpt lat="42.33747" lon="2.22303">
        <ele>2198</ele>
        <time>2010-01-01T03:22:17Z</time>
      </trkpt>
      <trkpt lat="42.33749" lon="2.22302">
        <ele>2198</ele>
        <time>2010-01-01T03:22:18Z</time>
      </trkpt>
      <trkpt lat="42.33751" lon="2.223">
        <ele>2198</ele>
        <time>2010-01-01T03:22:19Z</time>
      </trkpt>
      <trkpt lat="42.33753" lon="2.22299">
        <ele>2198</ele>
        <time>2010-01-01T03:22:19Z</time>
      </trkpt>
      <trkpt lat="42.33754" lon="2.22297">
        <ele>2197</ele>
        <time>2010-01-01T03:22:20Z</time>
      </trkpt>
      <trkpt lat="42.33756" lon="2.22296">
        <ele>2197</ele>
        <time>2010-01-01T03:22:21Z</time>
      </trkpt>
      <trkpt lat="42.33758" lon="2.22294">
        <ele>2197</ele>
        <time>2010-01-01T03:22:22Z</time>
      </trkpt>
      <trkpt lat="42.3376" lon="2.22293">
        <ele>2196</ele>
        <time>2010-01-01T03:22:23Z</time>
      </trkpt>
      <trkpt lat="42.33761" lon="2.22291">
        <ele>2196</ele>
        <time>2010-01-01T03:22:24Z</time>
      </trkpt>
      <trkpt lat="42.33763" lon="2.22289">
        <ele>2196</ele>
        <time>2010-01-01T03:22:24Z</time>
      </trkpt>
      <trkpt lat="42.33764" lon="2.22287">
        <ele>2196</ele>
        <time>2010-01-01T03:22:25Z</time>
      </trkpt>
      <trkpt lat="42.33765" lon="2.22284">
        <ele>2196</ele>
        <time>2010-01-01T03:22:26Z</time>
      </trkpt>
      <trkpt lat="42.33767" lon="2.22283">
        <ele>2196</ele>
        <time>2010-01-01T03:22:27Z</time>
      </trkpt>
      <trkpt lat="42.33769" lon="2.22283">
        <ele>2195</ele>
        <time>2010-01-01T03:22:28Z</time>
      </trkpt>
      <trkpt lat="42.3377" lon="2.22285">
        <ele>2195</ele>
        <time>2010-01-01T03:22:29Z</time>
      </trkpt>
      <trkpt lat="42.33771" lon="2.22287">
        <ele>2195</ele>
        <time>2010-01-01T03:22:29Z</time>
      </trkpt>
      <trkpt lat="42.33772" lon="2.2229">
        <ele>2195</ele>
        <time>2010-01-01T03:22:30Z</time>
      </trkpt>
      <trkpt lat="42.33772" lon="2.22293">
        <ele>2194</ele>
        <time>2010-01-01T03:22:31Z</time>
      </trkpt>
      <trkpt lat="42.33772" lon="2.22296">
        <ele>2194</ele>
        <time>2010-01-01T03:22:32Z</time>
      </trkpt>
      <trkpt lat="42.33773" lon="2.22297">
        <ele>2194</ele>
        <time>2010-01-01T03:22:33Z</time>
      </trkpt>
      <trkpt lat="42.33775" lon="2.22298">
        <ele>2194</ele>
        <time>2010-01-01T03:22:33Z</time>
      </trkpt>
      <trkpt lat="42.33775" lon="2.22301">
        <ele>2193</ele>
        <time>2010-01-01T03:22:34Z</time>
      </trkpt>
      <trkpt lat="42.33772" lon="2.22296">
        <ele>2194</ele>
        <time>2010-01-01T03:22:36Z</time>
      </trkpt>
      <trkpt lat="42.33771" lon="2.22294">
        <ele>2195</ele>
        <time>2010-01-01T03:22:37Z</time>
      </trkpt>
      <trkpt lat="42.33769" lon="2.22292">
        <ele>2195</ele>
        <time>2010-01-01T03:22:38Z</time>
      </trkpt>
      <trkpt lat="42.33767" lon="2.22292">
        <ele>2195</ele>
        <time>2010-01-01T03:22:39Z</time>
      </trkpt>
      <trkpt lat="42.33765" lon="2.22291">
        <ele>2196</ele>
        <time>2010-01-01T03:22:40Z</time>
      </trkpt>
      <trkpt lat="42.33767" lon="2.22291">
        <ele>2195</ele>
        <time>2010-01-01T03:22:40Z</time>
      </trkpt>
      <trkpt lat="42.33769" lon="2.22292">
        <ele>2195</ele>
        <time>2010-01-01T03:22:41Z</time>
      </trkpt>
      <trkpt lat="42.33771" lon="2.22292">
        <ele>2195</ele>
        <time>2010-01-01T03:22:42Z</time>
      </trkpt>
      <trkpt lat="42.33772" lon="2.22295">
        <ele>2194</ele>
        <time>2010-01-01T03:22:43Z</time>
      </trkpt>
      <trkpt lat="42.33774" lon="2.22302">
        <ele>2194</ele>
        <time>2010-01-01T03:22:45Z</time>
      </trkpt>
      <trkpt lat="42.33771" lon="2.22298">
        <ele>2194</ele>
        <time>2010-01-01T03:22:47Z</time>
      </trkpt>
      <trkpt lat="42.33771" lon="2.22295">
        <ele>2194</ele>
        <time>2010-01-01T03:22:48Z</time>
      </trkpt>
      <trkpt lat="42.33772" lon="2.22294">
        <ele>2194</ele>
        <time>2010-01-01T03:22:49Z</time>
      </trkpt>
      <trkpt lat="42.33767" lon="2.22293">
        <ele>2195</ele>
        <time>2010-01-01T03:22:51Z</time>
      </trkpt>
      <trkpt lat="42.33765" lon="2.22292">
        <ele>2196</ele>
        <time>2010-01-01T03:22:52Z</time>
      </trkpt>
      <trkpt lat="42.33767" lon="2.22291">
        <ele>2195</ele>
        <time>2010-01-01T03:22:53Z</time>
      </trkpt>
      <trkpt lat="42.33769" lon="2.2229">
        <ele>2195</ele>
        <time>2010-01-01T03:22:54Z</time>
      </trkpt>
      <trkpt lat="42.33773" lon="2.22286">
        <ele>2195</ele>
        <time>2010-01-01T03:22:55Z</time>
      </trkpt>
      <trkpt lat="42.33774" lon="2.22284">
        <ele>2195</ele>
        <time>2010-01-01T03:22:56Z</time>
      </trkpt>
      <trkpt lat="42.33776" lon="2.22283">
        <ele>2194</ele>
        <time>2010-01-01T03:22:57Z</time>
      </trkpt>
      <trkpt lat="42.33777" lon="2.22281">
        <ele>2194</ele>
        <time>2010-01-01T03:22:58Z</time>
      </trkpt>
      <trkpt lat="42.33779" lon="2.2228">
        <ele>2194</ele>
        <time>2010-01-01T03:22:58Z</time>
      </trkpt>
      <trkpt lat="42.33781" lon="2.22281">
        <ele>2193</ele>
        <time>2010-01-01T03:22:59Z</time>
      </trkpt>
      <trkpt lat="42.33783" lon="2.22282">
        <ele>2192</ele>
        <time>2010-01-01T03:23:00Z</time>
      </trkpt>
      <trkpt lat="42.33784" lon="2.22281">
        <ele>2192</ele>
        <time>2010-01-01T03:23:01Z</time>
      </trkpt>
      <trkpt lat="42.33787" lon="2.22279">
        <ele>2191</ele>
        <time>2010-01-01T03:23:02Z</time>
      </trkpt>
      <trkpt lat="42.33788" lon="2.22277">
        <ele>2190</ele>
        <time>2010-01-01T03:23:03Z</time>
      </trkpt>
      <trkpt lat="42.3379" lon="2.22275">
        <ele>2190</ele>
        <time>2010-01-01T03:23:04Z</time>
      </trkpt>
      <trkpt lat="42.33791" lon="2.22273">
        <ele>2189</ele>
        <time>2010-01-01T03:23:04Z</time>
      </trkpt>
      <trkpt lat="42.33793" lon="2.22272">
        <ele>2188</ele>
        <time>2010-01-01T03:23:05Z</time>
      </trkpt>
      <trkpt lat="42.33794" lon="2.22271">
        <ele>2188</ele>
        <time>2010-01-01T03:23:06Z</time>
      </trkpt>
      <trkpt lat="42.33797" lon="2.2227">
        <ele>2187</ele>
        <time>2010-01-01T03:23:07Z</time>
      </trkpt>
      <trkpt lat="42.33799" lon="2.22269">
        <ele>2186</ele>
        <time>2010-01-01T03:23:08Z</time>
      </trkpt>
      <trkpt lat="42.338" lon="2.22268">
        <ele>2186</ele>
        <time>2010-01-01T03:23:08Z</time>
      </trkpt>
      <trkpt lat="42.33802" lon="2.22266">
        <ele>2185</ele>
        <time>2010-01-01T03:23:09Z</time>
      </trkpt>
      <trkpt lat="42.33803" lon="2.22265">
        <ele>2185</ele>
        <time>2010-01-01T03:23:10Z</time>
      </trkpt>
      <trkpt lat="42.33805" lon="2.22263">
        <ele>2185</ele>
        <time>2010-01-01T03:23:11Z</time>
      </trkpt>
      <trkpt lat="42.33807" lon="2.22261">
        <ele>2184</ele>
        <time>2010-01-01T03:23:12Z</time>
      </trkpt>
      <trkpt lat="42.33808" lon="2.2226">
        <ele>2184</ele>
        <time>2010-01-01T03:23:13Z</time>
      </trkpt>
      <trkpt lat="42.3381" lon="2.22258">
        <ele>2183</ele>
        <time>2010-01-01T03:23:13Z</time>
      </trkpt>
      <trkpt lat="42.33812" lon="2.22257">
        <ele>2183</ele>
        <time>2010-01-01T03:23:14Z</time>
      </trkpt>
      <trkpt lat="42.33813" lon="2.22256">
        <ele>2182</ele>
        <time>2010-01-01T03:23:15Z</time>
      </trkpt>
      <trkpt lat="42.33814" lon="2.22254">
        <ele>2182</ele>
        <time>2010-01-01T03:23:16Z</time>
      </trkpt>
      <trkpt lat="42.33815" lon="2.22251">
        <ele>2182</ele>
        <time>2010-01-01T03:23:16Z</time>
      </trkpt>
      <trkpt lat="42.33817" lon="2.22249">
        <ele>2181</ele>
        <time>2010-01-01T03:23:17Z</time>
      </trkpt>
      <trkpt lat="42.33819" lon="2.22248">
        <ele>2180</ele>
        <time>2010-01-01T03:23:18Z</time>
      </trkpt>
      <trkpt lat="42.33821" lon="2.22247">
        <ele>2179</ele>
        <time>2010-01-01T03:23:19Z</time>
      </trkpt>
      <trkpt lat="42.33823" lon="2.22246">
        <ele>2179</ele>
        <time>2010-01-01T03:23:20Z</time>
      </trkpt>
      <trkpt lat="42.33824" lon="2.22244">
        <ele>2178</ele>
        <time>2010-01-01T03:23:21Z</time>
      </trkpt>
      <trkpt lat="42.33825" lon="2.22242">
        <ele>2177</ele>
        <time>2010-01-01T03:23:21Z</time>
      </trkpt>
      <trkpt lat="42.33827" lon="2.2224">
        <ele>2176</ele>
        <time>2010-01-01T03:23:22Z</time>
      </trkpt>
      <trkpt lat="42.33829" lon="2.22239">
        <ele>2175</ele>
        <time>2010-01-01T03:23:23Z</time>
      </trkpt>
      <trkpt lat="42.3383" lon="2.22236">
        <ele>2175</ele>
        <time>2010-01-01T03:23:24Z</time>
      </trkpt>
      <trkpt lat="42.33831" lon="2.22234">
        <ele>2174</ele>
        <time>2010-01-01T03:23:25Z</time>
      </trkpt>
      <trkpt lat="42.33832" lon="2.22231">
        <ele>2173</ele>
        <time>2010-01-01T03:23:26Z</time>
      </trkpt>
      <trkpt lat="42.33832" lon="2.22228">
        <ele>2173</ele>
        <time>2010-01-01T03:23:27Z</time>
      </trkpt>
      <trkpt lat="42.33833" lon="2.22226">
        <ele>2172</ele>
        <time>2010-01-01T03:23:27Z</time>
      </trkpt>
      <trkpt lat="42.33835" lon="2.22224">
        <ele>2172</ele>
        <time>2010-01-01T03:23:28Z</time>
      </trkpt>
      <trkpt lat="42.33836" lon="2.22222">
        <ele>2171</ele>
        <time>2010-01-01T03:23:29Z</time>
      </trkpt>
      <trkpt lat="42.33837" lon="2.22219">
        <ele>2171</ele>
        <time>2010-01-01T03:23:30Z</time>
      </trkpt>
      <trkpt lat="42.33838" lon="2.22216">
        <ele>2171</ele>
        <time>2010-01-01T03:23:31Z</time>
      </trkpt>
      <trkpt lat="42.33839" lon="2.22213">
        <ele>2170</ele>
        <time>2010-01-01T03:23:32Z</time>
      </trkpt>
      <trkpt lat="42.3384" lon="2.22211">
        <ele>2170</ele>
        <time>2010-01-01T03:23:33Z</time>
      </trkpt>
      <trkpt lat="42.33843" lon="2.2221">
        <ele>2170</ele>
        <time>2010-01-01T03:23:34Z</time>
      </trkpt>
      <trkpt lat="42.33844" lon="2.22209">
        <ele>2170</ele>
        <time>2010-01-01T03:23:35Z</time>
      </trkpt>
      <trkpt lat="42.33847" lon="2.22208">
        <ele>2170</ele>
        <time>2010-01-01T03:23:36Z</time>
      </trkpt>
      <trkpt lat="42.33849" lon="2.22206">
        <ele>2169</ele>
        <time>2010-01-01T03:23:37Z</time>
      </trkpt>
      <trkpt lat="42.3385" lon="2.22204">
        <ele>2169</ele>
        <time>2010-01-01T03:23:37Z</time>
      </trkpt>
      <trkpt lat="42.33852" lon="2.22201">
        <ele>2169</ele>
        <time>2010-01-01T03:23:38Z</time>
      </trkpt>
      <trkpt lat="42.33852" lon="2.22199">
        <ele>2168</ele>
        <time>2010-01-01T03:23:39Z</time>
      </trkpt>
      <trkpt lat="42.33853" lon="2.22195">
        <ele>2168</ele>
        <time>2010-01-01T03:23:40Z</time>
      </trkpt>
      <trkpt lat="42.33853" lon="2.22192">
        <ele>2167</ele>
        <time>2010-01-01T03:23:41Z</time>
      </trkpt>
      <trkpt lat="42.33854" lon="2.22189">
        <ele>2167</ele>
        <time>2010-01-01T03:23:42Z</time>
      </trkpt>
      <trkpt lat="42.33854" lon="2.22186">
        <ele>2166</ele>
        <time>2010-01-01T03:23:43Z</time>
      </trkpt>
      <trkpt lat="42.33854" lon="2.22183">
        <ele>2166</ele>
        <time>2010-01-01T03:23:44Z</time>
      </trkpt>
      <trkpt lat="42.33855" lon="2.2218">
        <ele>2165</ele>
        <time>2010-01-01T03:23:45Z</time>
      </trkpt>
      <trkpt lat="42.33856" lon="2.22177">
        <ele>2165</ele>
        <time>2010-01-01T03:23:46Z</time>
      </trkpt>
      <trkpt lat="42.33858" lon="2.22173">
        <ele>2164</ele>
        <time>2010-01-01T03:23:47Z</time>
      </trkpt>
      <trkpt lat="42.33859" lon="2.22171">
        <ele>2163</ele>
        <time>2010-01-01T03:23:48Z</time>
      </trkpt>
      <trkpt lat="42.33861" lon="2.22169">
        <ele>2163</ele>
        <time>2010-01-01T03:23:49Z</time>
      </trkpt>
      <trkpt lat="42.33864" lon="2.22167">
        <ele>2162</ele>
        <time>2010-01-01T03:23:50Z</time>
      </trkpt>
      <trkpt lat="42.33867" lon="2.22165">
        <ele>2162</ele>
        <time>2010-01-01T03:23:52Z</time>
      </trkpt>
      <trkpt lat="42.33869" lon="2.22164">
        <ele>2161</ele>
        <time>2010-01-01T03:23:53Z</time>
      </trkpt>
      <trkpt lat="42.33872" lon="2.22162">
        <ele>2161</ele>
        <time>2010-01-01T03:23:54Z</time>
      </trkpt>
      <trkpt lat="42.33874" lon="2.22161">
        <ele>2161</ele>
        <time>2010-01-01T03:23:55Z</time>
      </trkpt>
      <trkpt lat="42.33877" lon="2.2216">
        <ele>2160</ele>
        <time>2010-01-01T03:23:56Z</time>
      </trkpt>
      <trkpt lat="42.3388" lon="2.22159">
        <ele>2160</ele>
        <time>2010-01-01T03:23:57Z</time>
      </trkpt>
      <trkpt lat="42.33882" lon="2.22157">
        <ele>2160</ele>
        <time>2010-01-01T03:23:58Z</time>
      </trkpt>
      <trkpt lat="42.33884" lon="2.22154">
        <ele>2159</ele>
        <time>2010-01-01T03:23:59Z</time>
      </trkpt>
      <trkpt lat="42.33887" lon="2.22152">
        <ele>2159</ele>
        <time>2010-01-01T03:24:01Z</time>
      </trkpt>
      <trkpt lat="42.33889" lon="2.22149">
        <ele>2159</ele>
        <time>2010-01-01T03:24:02Z</time>
      </trkpt>
      <trkpt lat="42.33892" lon="2.22148">
        <ele>2159</ele>
        <time>2010-01-01T03:24:03Z</time>
      </trkpt>
      <trkpt lat="42.33895" lon="2.22146">
        <ele>2159</ele>
        <time>2010-01-01T03:24:04Z</time>
      </trkpt>
      <trkpt lat="42.33897" lon="2.22144">
        <ele>2159</ele>
        <time>2010-01-01T03:24:05Z</time>
      </trkpt>
      <trkpt lat="42.339" lon="2.22143">
        <ele>2159</ele>
        <time>2010-01-01T03:24:07Z</time>
      </trkpt>
      <trkpt lat="42.33903" lon="2.22141">
        <ele>2159</ele>
        <time>2010-01-01T03:24:08Z</time>
      </trkpt>
      <trkpt lat="42.33905" lon="2.22139">
        <ele>2159</ele>
        <time>2010-01-01T03:24:09Z</time>
      </trkpt>
      <trkpt lat="42.33908" lon="2.22138">
        <ele>2159</ele>
        <time>2010-01-01T03:24:10Z</time>
      </trkpt>
      <trkpt lat="42.33911" lon="2.22136">
        <ele>2159</ele>
        <time>2010-01-01T03:24:11Z</time>
      </trkpt>
      <trkpt lat="42.33913" lon="2.22134">
        <ele>2160</ele>
        <time>2010-01-01T03:24:12Z</time>
      </trkpt>
      <trkpt lat="42.33916" lon="2.22132">
        <ele>2160</ele>
        <time>2010-01-01T03:24:14Z</time>
      </trkpt>
      <trkpt lat="42.33918" lon="2.22131">
        <ele>2160</ele>
        <time>2010-01-01T03:24:15Z</time>
      </trkpt>
      <trkpt lat="42.33921" lon="2.22129">
        <ele>2160</ele>
        <time>2010-01-01T03:24:16Z</time>
      </trkpt>
      <trkpt lat="42.33923" lon="2.22128">
        <ele>2160</ele>
        <time>2010-01-01T03:24:17Z</time>
      </trkpt>
      <trkpt lat="42.33926" lon="2.22126">
        <ele>2160</ele>
        <time>2010-01-01T03:24:18Z</time>
      </trkpt>
      <trkpt lat="42.33929" lon="2.22124">
        <ele>2161</ele>
        <time>2010-01-01T03:24:19Z</time>
      </trkpt>
      <trkpt lat="42.33931" lon="2.22123">
        <ele>2161</ele>
        <time>2010-01-01T03:24:20Z</time>
      </trkpt>
      <trkpt lat="42.33934" lon="2.22121">
        <ele>2161</ele>
        <time>2010-01-01T03:24:22Z</time>
      </trkpt>
      <trkpt lat="42.33936" lon="2.22119">
        <ele>2161</ele>
        <time>2010-01-01T03:24:23Z</time>
      </trkpt>
      <trkpt lat="42.33939" lon="2.22118">
        <ele>2162</ele>
        <time>2010-01-01T03:24:24Z</time>
      </trkpt>
      <trkpt lat="42.33941" lon="2.22116">
        <ele>2162</ele>
        <time>2010-01-01T03:24:25Z</time>
      </trkpt>
      <trkpt lat="42.33944" lon="2.22114">
        <ele>2162</ele>
        <time>2010-01-01T03:24:26Z</time>
      </trkpt>
      <trkpt lat="42.33946" lon="2.22113">
        <ele>2162</ele>
        <time>2010-01-01T03:24:27Z</time>
      </trkpt>
      <trkpt lat="42.33949" lon="2.22111">
        <ele>2163</ele>
        <time>2010-01-01T03:24:28Z</time>
      </trkpt>
      <trkpt lat="42.33951" lon="2.22109">
        <ele>2163</ele>
        <time>2010-01-01T03:24:30Z</time>
      </trkpt>
      <trkpt lat="42.33954" lon="2.22107">
        <ele>2163</ele>
        <time>2010-01-01T03:24:31Z</time>
      </trkpt>
      <trkpt lat="42.33956" lon="2.22105">
        <ele>2163</ele>
        <time>2010-01-01T03:24:32Z</time>
      </trkpt>
      <trkpt lat="42.33959" lon="2.22103">
        <ele>2163</ele>
        <time>2010-01-01T03:24:33Z</time>
      </trkpt>
      <trkpt lat="42.33962" lon="2.22102">
        <ele>2163</ele>
        <time>2010-01-01T03:24:34Z</time>
      </trkpt>
      <trkpt lat="42.33965" lon="2.22101">
        <ele>2163</ele>
        <time>2010-01-01T03:24:35Z</time>
      </trkpt>
      <trkpt lat="42.33967" lon="2.22099">
        <ele>2163</ele>
        <time>2010-01-01T03:24:37Z</time>
      </trkpt>
      <trkpt lat="42.3397" lon="2.22098">
        <ele>2163</ele>
        <time>2010-01-01T03:24:38Z</time>
      </trkpt>
      <trkpt lat="42.33972" lon="2.22097">
        <ele>2162</ele>
        <time>2010-01-01T03:24:39Z</time>
      </trkpt>
      <trkpt lat="42.33975" lon="2.22095">
        <ele>2162</ele>
        <time>2010-01-01T03:24:40Z</time>
      </trkpt>
      <trkpt lat="42.33978" lon="2.22094">
        <ele>2162</ele>
        <time>2010-01-01T03:24:41Z</time>
      </trkpt>
      <trkpt lat="42.3398" lon="2.22093">
        <ele>2162</ele>
        <time>2010-01-01T03:24:42Z</time>
      </trkpt>
      <trkpt lat="42.33983" lon="2.22091">
        <ele>2162</ele>
        <time>2010-01-01T03:24:43Z</time>
      </trkpt>
      <trkpt lat="42.33985" lon="2.2209">
        <ele>2162</ele>
        <time>2010-01-01T03:24:44Z</time>
      </trkpt>
      <trkpt lat="42.33988" lon="2.22089">
        <ele>2162</ele>
        <time>2010-01-01T03:24:45Z</time>
      </trkpt>
      <trkpt lat="42.33991" lon="2.22087">
        <ele>2162</ele>
        <time>2010-01-01T03:24:47Z</time>
      </trkpt>
      <trkpt lat="42.33993" lon="2.22086">
        <ele>2162</ele>
        <time>2010-01-01T03:24:48Z</time>
      </trkpt>
      <trkpt lat="42.33996" lon="2.22085">
        <ele>2162</ele>
        <time>2010-01-01T03:24:49Z</time>
      </trkpt>
      <trkpt lat="42.33998" lon="2.22084">
        <ele>2162</ele>
        <time>2010-01-01T03:24:50Z</time>
      </trkpt>
      <trkpt lat="42.34001" lon="2.22082">
        <ele>2162</ele>
        <time>2010-01-01T03:24:51Z</time>
      </trkpt>
      <trkpt lat="42.34003" lon="2.22081">
        <ele>2162</ele>
        <time>2010-01-01T03:24:52Z</time>
      </trkpt>
      <trkpt lat="42.34006" lon="2.22079">
        <ele>2162</ele>
        <time>2010-01-01T03:24:53Z</time>
      </trkpt>
      <trkpt lat="42.34008" lon="2.22078">
        <ele>2162</ele>
        <time>2010-01-01T03:24:54Z</time>
      </trkpt>
      <trkpt lat="42.34011" lon="2.22077">
        <ele>2162</ele>
        <time>2010-01-01T03:24:55Z</time>
      </trkpt>
      <trkpt lat="42.34013" lon="2.22075">
        <ele>2162</ele>
        <time>2010-01-01T03:24:56Z</time>
      </trkpt>
      <trkpt lat="42.34016" lon="2.22074">
        <ele>2162</ele>
        <time>2010-01-01T03:24:57Z</time>
      </trkpt>
      <trkpt lat="42.34019" lon="2.22073">
        <ele>2162</ele>
        <time>2010-01-01T03:24:58Z</time>
      </trkpt>
      <trkpt lat="42.34021" lon="2.22072">
        <ele>2162</ele>
        <time>2010-01-01T03:24:59Z</time>
      </trkpt>
      <trkpt lat="42.34022" lon="2.2207">
        <ele>2162</ele>
        <time>2010-01-01T03:25:00Z</time>
      </trkpt>
      <trkpt lat="42.34024" lon="2.22068">
        <ele>2162</ele>
        <time>2010-01-01T03:25:01Z</time>
      </trkpt>
      <trkpt lat="42.34026" lon="2.22066">
        <ele>2162</ele>
        <time>2010-01-01T03:25:02Z</time>
      </trkpt>
      <trkpt lat="42.34028" lon="2.22066">
        <ele>2162</ele>
        <time>2010-01-01T03:25:03Z</time>
      </trkpt>
      <trkpt lat="42.34032" lon="2.22065">
        <ele>2162</ele>
        <time>2010-01-01T03:25:05Z</time>
      </trkpt>
      <trkpt lat="42.34034" lon="2.22063">
        <ele>2161</ele>
        <time>2010-01-01T03:25:05Z</time>
      </trkpt>
      <trkpt lat="42.34036" lon="2.22062">
        <ele>2161</ele>
        <time>2010-01-01T03:25:06Z</time>
      </trkpt>
      <trkpt lat="42.34037" lon="2.2206">
        <ele>2161</ele>
        <time>2010-01-01T03:25:07Z</time>
      </trkpt>
      <trkpt lat="42.34039" lon="2.22058">
        <ele>2161</ele>
        <time>2010-01-01T03:25:08Z</time>
      </trkpt>
      <trkpt lat="42.34041" lon="2.22057">
        <ele>2161</ele>
        <time>2010-01-01T03:25:09Z</time>
      </trkpt>
      <trkpt lat="42.34043" lon="2.22057">
        <ele>2160</ele>
        <time>2010-01-01T03:25:10Z</time>
      </trkpt>
      <trkpt lat="42.34042" lon="2.22056">
        <ele>2161</ele>
        <time>2010-01-01T03:25:11Z</time>
      </trkpt>
      <trkpt lat="42.34041" lon="2.22052">
        <ele>2160</ele>
        <time>2010-01-01T03:25:12Z</time>
      </trkpt>
      <trkpt lat="42.34041" lon="2.22049">
        <ele>2160</ele>
        <time>2010-01-01T03:25:13Z</time>
      </trkpt>
      <trkpt lat="42.34036" lon="2.22049">
        <ele>2161</ele>
        <time>2010-01-01T03:25:15Z</time>
      </trkpt>
      <trkpt lat="42.34035" lon="2.22046">
        <ele>2161</ele>
        <time>2010-01-01T03:25:16Z</time>
      </trkpt>
      <trkpt lat="42.34031" lon="2.22046">
        <ele>2162</ele>
        <time>2010-01-01T03:25:17Z</time>
      </trkpt>
      <trkpt lat="42.34029" lon="2.22045">
        <ele>2162</ele>
        <time>2010-01-01T03:25:18Z</time>
      </trkpt>
      <trkpt lat="42.34027" lon="2.22044">
        <ele>2162</ele>
        <time>2010-01-01T03:25:19Z</time>
      </trkpt>
      <trkpt lat="42.34025" lon="2.22042">
        <ele>2162</ele>
        <time>2010-01-01T03:25:20Z</time>
      </trkpt>
      <trkpt lat="42.34022" lon="2.2204">
        <ele>2162</ele>
        <time>2010-01-01T03:25:21Z</time>
      </trkpt>
      <trkpt lat="42.3402" lon="2.22038">
        <ele>2162</ele>
        <time>2010-01-01T03:25:23Z</time>
      </trkpt>
      <trkpt lat="42.34017" lon="2.22036">
        <ele>2162</ele>
        <time>2010-01-01T03:25:24Z</time>
      </trkpt>
      <trkpt lat="42.34014" lon="2.22034">
        <ele>2162</ele>
        <time>2010-01-01T03:25:25Z</time>
      </trkpt>
      <trkpt lat="42.34012" lon="2.22032">
        <ele>2162</ele>
        <time>2010-01-01T03:25:26Z</time>
      </trkpt>
      <trkpt lat="42.34009" lon="2.22029">
        <ele>2162</ele>
        <time>2010-01-01T03:25:28Z</time>
      </trkpt>
      <trkpt lat="42.34006" lon="2.22027">
        <ele>2161</ele>
        <time>2010-01-01T03:25:29Z</time>
      </trkpt>
      <trkpt lat="42.34005" lon="2.22023">
        <ele>2161</ele>
        <time>2010-01-01T03:25:30Z</time>
      </trkpt>
      <trkpt lat="42.34002" lon="2.2202">
        <ele>2161</ele>
        <time>2010-01-01T03:25:31Z</time>
      </trkpt>
      <trkpt lat="42.34" lon="2.22018">
        <ele>2161</ele>
        <time>2010-01-01T03:25:33Z</time>
      </trkpt>
      <trkpt lat="42.33997" lon="2.22017">
        <ele>2161</ele>
        <time>2010-01-01T03:25:34Z</time>
      </trkpt>
      <trkpt lat="42.33995" lon="2.22016">
        <ele>2161</ele>
        <time>2010-01-01T03:25:35Z</time>
      </trkpt>
      <trkpt lat="42.33992" lon="2.22014">
        <ele>2161</ele>
        <time>2010-01-01T03:25:36Z</time>
      </trkpt>
      <trkpt lat="42.33989" lon="2.22012">
        <ele>2161</ele>
        <time>2010-01-01T03:25:37Z</time>
      </trkpt>
      <trkpt lat="42.33987" lon="2.22011">
        <ele>2161</ele>
        <time>2010-01-01T03:25:38Z</time>
      </trkpt>
      <trkpt lat="42.33985" lon="2.2201">
        <ele>2161</ele>
        <time>2010-01-01T03:25:39Z</time>
      </trkpt>
      <trkpt lat="42.33983" lon="2.22008">
        <ele>2161</ele>
        <time>2010-01-01T03:25:40Z</time>
      </trkpt>
      <trkpt lat="42.33981" lon="2.22007">
        <ele>2161</ele>
        <time>2010-01-01T03:25:41Z</time>
      </trkpt>
      <trkpt lat="42.33979" lon="2.22005">
        <ele>2161</ele>
        <time>2010-01-01T03:25:42Z</time>
      </trkpt>
      <trkpt lat="42.33978" lon="2.22002">
        <ele>2161</ele>
        <time>2010-01-01T03:25:43Z</time>
      </trkpt>
      <trkpt lat="42.33976" lon="2.22001">
        <ele>2161</ele>
        <time>2010-01-01T03:25:44Z</time>
      </trkpt>
      <trkpt lat="42.33974" lon="2.22">
        <ele>2161</ele>
        <time>2010-01-01T03:25:44Z</time>
      </trkpt>
      <trkpt lat="42.33972" lon="2.22">
        <ele>2161</ele>
        <time>2010-01-01T03:25:45Z</time>
      </trkpt>
      <trkpt lat="42.3397" lon="2.21998">
        <ele>2161</ele>
        <time>2010-01-01T03:25:46Z</time>
      </trkpt>
      <trkpt lat="42.33968" lon="2.21996">
        <ele>2161</ele>
        <time>2010-01-01T03:25:47Z</time>
      </trkpt>
      <trkpt lat="42.33968" lon="2.21992">
        <ele>2160</ele>
        <time>2010-01-01T03:25:48Z</time>
      </trkpt>
      <trkpt lat="42.33965" lon="2.2199">
        <ele>2160</ele>
        <time>2010-01-01T03:25:49Z</time>
      </trkpt>
      <trkpt lat="42.33963" lon="2.21989">
        <ele>2160</ele>
        <time>2010-01-01T03:25:50Z</time>
      </trkpt>
      <trkpt lat="42.33961" lon="2.21987">
        <ele>2160</ele>
        <time>2010-01-01T03:25:51Z</time>
      </trkpt>
      <trkpt lat="42.33959" lon="2.21984">
        <ele>2160</ele>
        <time>2010-01-01T03:25:53Z</time>
      </trkpt>
      <trkpt lat="42.33958" lon="2.21981">
        <ele>2160</ele>
        <time>2010-01-01T03:25:54Z</time>
      </trkpt>
      <trkpt lat="42.33956" lon="2.21979">
        <ele>2159</ele>
        <time>2010-01-01T03:25:55Z</time>
      </trkpt>
      <trkpt lat="42.33957" lon="2.21977">
        <ele>2159</ele>
        <time>2010-01-01T03:25:55Z</time>
      </trkpt>
      <trkpt lat="42.3396" lon="2.21979">
        <ele>2159</ele>
        <time>2010-01-01T03:25:57Z</time>
      </trkpt>
      <trkpt lat="42.33962" lon="2.2198">
        <ele>2159</ele>
        <time>2010-01-01T03:25:57Z</time>
      </trkpt>
      <trkpt lat="42.33964" lon="2.21979">
        <ele>2159</ele>
        <time>2010-01-01T03:25:58Z</time>
      </trkpt>
      <trkpt lat="42.33966" lon="2.21985">
        <ele>2160</ele>
        <time>2010-01-01T03:26:00Z</time>
      </trkpt>
      <trkpt lat="42.3397" lon="2.21988">
        <ele>2160</ele>
        <time>2010-01-01T03:26:02Z</time>
      </trkpt>
      <trkpt lat="42.33973" lon="2.21991">
        <ele>2160</ele>
        <time>2010-01-01T03:26:04Z</time>
      </trkpt>
      <trkpt lat="42.33975" lon="2.21993">
        <ele>2160</ele>
        <time>2010-01-01T03:26:04Z</time>
      </trkpt>
      <trkpt lat="42.33976" lon="2.21994">
        <ele>2160</ele>
        <time>2010-01-01T03:26:05Z</time>
      </trkpt>
      <trkpt lat="42.33975" lon="2.21992">
        <ele>2160</ele>
        <time>2010-01-01T03:26:06Z</time>
      </trkpt>
      <trkpt lat="42.33973" lon="2.2199">
        <ele>2160</ele>
        <time>2010-01-01T03:26:07Z</time>
      </trkpt>
      <trkpt lat="42.33971" lon="2.21988">
        <ele>2160</ele>
        <time>2010-01-01T03:26:08Z</time>
      </trkpt>
      <trkpt lat="42.33968" lon="2.21986">
        <ele>2160</ele>
        <time>2010-01-01T03:26:09Z</time>
      </trkpt>
      <trkpt lat="42.33966" lon="2.21984">
        <ele>2159</ele>
        <time>2010-01-01T03:26:10Z</time>
      </trkpt>
      <trkpt lat="42.33964" lon="2.21982">
        <ele>2159</ele>
        <time>2010-01-01T03:26:12Z</time>
      </trkpt>
      <trkpt lat="42.33961" lon="2.21981">
        <ele>2159</ele>
        <time>2010-01-01T03:26:13Z</time>
      </trkpt>
      <trkpt lat="42.33958" lon="2.2198">
        <ele>2159</ele>
        <time>2010-01-01T03:26:14Z</time>
      </trkpt>
      <trkpt lat="42.33956" lon="2.21979">
        <ele>2159</ele>
        <time>2010-01-01T03:26:15Z</time>
      </trkpt>
      <trkpt lat="42.33954" lon="2.21978">
        <ele>2159</ele>
        <time>2010-01-01T03:26:16Z</time>
      </trkpt>
      <trkpt lat="42.33952" lon="2.21977">
        <ele>2159</ele>
        <time>2010-01-01T03:26:16Z</time>
      </trkpt>
      <trkpt lat="42.33949" lon="2.21974">
        <ele>2159</ele>
        <time>2010-01-01T03:26:18Z</time>
      </trkpt>
      <trkpt lat="42.33947" lon="2.21973">
        <ele>2159</ele>
        <time>2010-01-01T03:26:19Z</time>
      </trkpt>
      <trkpt lat="42.33945" lon="2.21971">
        <ele>2159</ele>
        <time>2010-01-01T03:26:20Z</time>
      </trkpt>
      <trkpt lat="42.33944" lon="2.2197">
        <ele>2159</ele>
        <time>2010-01-01T03:26:20Z</time>
      </trkpt>
      <trkpt lat="42.33942" lon="2.21968">
        <ele>2159</ele>
        <time>2010-01-01T03:26:21Z</time>
      </trkpt>
      <trkpt lat="42.3394" lon="2.21966">
        <ele>2158</ele>
        <time>2010-01-01T03:26:22Z</time>
      </trkpt>
      <trkpt lat="42.33937" lon="2.21963">
        <ele>2158</ele>
        <time>2010-01-01T03:26:24Z</time>
      </trkpt>
      <trkpt lat="42.33935" lon="2.21961">
        <ele>2157</ele>
        <time>2010-01-01T03:26:25Z</time>
      </trkpt>
      <trkpt lat="42.33933" lon="2.21959">
        <ele>2157</ele>
        <time>2010-01-01T03:26:26Z</time>
      </trkpt>
      <trkpt lat="42.33931" lon="2.21957">
        <ele>2157</ele>
        <time>2010-01-01T03:26:27Z</time>
      </trkpt>
      <trkpt lat="42.33929" lon="2.21955">
        <ele>2156</ele>
        <time>2010-01-01T03:26:28Z</time>
      </trkpt>
      <trkpt lat="42.33927" lon="2.21953">
        <ele>2156</ele>
        <time>2010-01-01T03:26:29Z</time>
      </trkpt>
      <trkpt lat="42.33926" lon="2.21951">
        <ele>2156</ele>
        <time>2010-01-01T03:26:30Z</time>
      </trkpt>
      <trkpt lat="42.33924" lon="2.21949">
        <ele>2155</ele>
        <time>2010-01-01T03:26:30Z</time>
      </trkpt>
      <trkpt lat="42.33923" lon="2.21947">
        <ele>2155</ele>
        <time>2010-01-01T03:26:31Z</time>
      </trkpt>
      <trkpt lat="42.33921" lon="2.21945">
        <ele>2155</ele>
        <time>2010-01-01T03:26:32Z</time>
      </trkpt>
      <trkpt lat="42.33919" lon="2.21943">
        <ele>2154</ele>
        <time>2010-01-01T03:26:33Z</time>
      </trkpt>
      <trkpt lat="42.33917" lon="2.2194">
        <ele>2154</ele>
        <time>2010-01-01T03:26:34Z</time>
      </trkpt>
      <trkpt lat="42.33916" lon="2.21938">
        <ele>2153</ele>
        <time>2010-01-01T03:26:35Z</time>
      </trkpt>
      <trkpt lat="42.33914" lon="2.21936">
        <ele>2153</ele>
        <time>2010-01-01T03:26:36Z</time>
      </trkpt>
      <trkpt lat="42.33912" lon="2.21934">
        <ele>2152</ele>
        <time>2010-01-01T03:26:37Z</time>
      </trkpt>
      <trkpt lat="42.3391" lon="2.21932">
        <ele>2151</ele>
        <time>2010-01-01T03:26:38Z</time>
      </trkpt>
      <trkpt lat="42.33908" lon="2.2193">
        <ele>2151</ele>
        <time>2010-01-01T03:26:39Z</time>
      </trkpt>
      <trkpt lat="42.33906" lon="2.21927">
        <ele>2150</ele>
        <time>2010-01-01T03:26:40Z</time>
      </trkpt>
      <trkpt lat="42.33905" lon="2.21925">
        <ele>2150</ele>
        <time>2010-01-01T03:26:41Z</time>
      </trkpt>
      <trkpt lat="42.33903" lon="2.21923">
        <ele>2149</ele>
        <time>2010-01-01T03:26:42Z</time>
      </trkpt>
      <trkpt lat="42.339" lon="2.21921">
        <ele>2149</ele>
        <time>2010-01-01T03:26:43Z</time>
      </trkpt>
      <trkpt lat="42.33899" lon="2.21919">
        <ele>2148</ele>
        <time>2010-01-01T03:26:44Z</time>
      </trkpt>
      <trkpt lat="42.33897" lon="2.21916">
        <ele>2148</ele>
        <time>2010-01-01T03:26:45Z</time>
      </trkpt>
      <trkpt lat="42.33895" lon="2.21914">
        <ele>2147</ele>
        <time>2010-01-01T03:26:46Z</time>
      </trkpt>
      <trkpt lat="42.33893" lon="2.21911">
        <ele>2147</ele>
        <time>2010-01-01T03:26:47Z</time>
      </trkpt>
      <trkpt lat="42.33891" lon="2.21909">
        <ele>2147</ele>
        <time>2010-01-01T03:26:48Z</time>
      </trkpt>
      <trkpt lat="42.33889" lon="2.21907">
        <ele>2146</ele>
        <time>2010-01-01T03:26:49Z</time>
      </trkpt>
      <trkpt lat="42.33887" lon="2.21904">
        <ele>2145</ele>
        <time>2010-01-01T03:26:50Z</time>
      </trkpt>
      <trkpt lat="42.33885" lon="2.21902">
        <ele>2145</ele>
        <time>2010-01-01T03:26:51Z</time>
      </trkpt>
      <trkpt lat="42.33883" lon="2.219">
        <ele>2144</ele>
        <time>2010-01-01T03:26:52Z</time>
      </trkpt>
      <trkpt lat="42.33881" lon="2.21898">
        <ele>2143</ele>
        <time>2010-01-01T03:26:53Z</time>
      </trkpt>
      <trkpt lat="42.3388" lon="2.21895">
        <ele>2143</ele>
        <time>2010-01-01T03:26:54Z</time>
      </trkpt>
      <trkpt lat="42.33878" lon="2.21893">
        <ele>2142</ele>
        <time>2010-01-01T03:26:55Z</time>
      </trkpt>
      <trkpt lat="42.33876" lon="2.21891">
        <ele>2142</ele>
        <time>2010-01-01T03:26:56Z</time>
      </trkpt>
      <trkpt lat="42.33874" lon="2.2189">
        <ele>2141</ele>
        <time>2010-01-01T03:26:57Z</time>
      </trkpt>
      <trkpt lat="42.33871" lon="2.21888">
        <ele>2141</ele>
        <time>2010-01-01T03:26:58Z</time>
      </trkpt>
      <trkpt lat="42.33869" lon="2.21887">
        <ele>2140</ele>
        <time>2010-01-01T03:26:59Z</time>
      </trkpt>
      <trkpt lat="42.33868" lon="2.21885">
        <ele>2140</ele>
        <time>2010-01-01T03:27:00Z</time>
      </trkpt>
      <trkpt lat="42.33866" lon="2.21883">
        <ele>2139</ele>
        <time>2010-01-01T03:27:01Z</time>
      </trkpt>
      <trkpt lat="42.33865" lon="2.21881">
        <ele>2139</ele>
        <time>2010-01-01T03:27:01Z</time>
      </trkpt>
      <trkpt lat="42.33863" lon="2.2188">
        <ele>2138</ele>
        <time>2010-01-01T03:27:02Z</time>
      </trkpt>
      <trkpt lat="42.33861" lon="2.21878">
        <ele>2138</ele>
        <time>2010-01-01T03:27:03Z</time>
      </trkpt>
      <trkpt lat="42.3386" lon="2.21876">
        <ele>2137</ele>
        <time>2010-01-01T03:27:04Z</time>
      </trkpt>
      <trkpt lat="42.33858" lon="2.21874">
        <ele>2136</ele>
        <time>2010-01-01T03:27:05Z</time>
      </trkpt>
      <trkpt lat="42.33857" lon="2.21873">
        <ele>2136</ele>
        <time>2010-01-01T03:27:06Z</time>
      </trkpt>
      <trkpt lat="42.33855" lon="2.21871">
        <ele>2135</ele>
        <time>2010-01-01T03:27:07Z</time>
      </trkpt>
      <trkpt lat="42.33853" lon="2.21869">
        <ele>2135</ele>
        <time>2010-01-01T03:27:07Z</time>
      </trkpt>
      <trkpt lat="42.33852" lon="2.21867">
        <ele>2134</ele>
        <time>2010-01-01T03:27:08Z</time>
      </trkpt>
      <trkpt lat="42.3385" lon="2.21864">
        <ele>2133</ele>
        <time>2010-01-01T03:27:09Z</time>
      </trkpt>
      <trkpt lat="42.33849" lon="2.21863">
        <ele>2133</ele>
        <time>2010-01-01T03:27:10Z</time>
      </trkpt>
      <trkpt lat="42.33847" lon="2.21861">
        <ele>2132</ele>
        <time>2010-01-01T03:27:11Z</time>
      </trkpt>
      <trkpt lat="42.33846" lon="2.21859">
        <ele>2132</ele>
        <time>2010-01-01T03:27:12Z</time>
      </trkpt>
      <trkpt lat="42.33844" lon="2.21857">
        <ele>2131</ele>
        <time>2010-01-01T03:27:13Z</time>
      </trkpt>
      <trkpt lat="42.33842" lon="2.21855">
        <ele>2131</ele>
        <time>2010-01-01T03:27:14Z</time>
      </trkpt>
      <trkpt lat="42.3384" lon="2.21853">
        <ele>2130</ele>
        <time>2010-01-01T03:27:15Z</time>
      </trkpt>
      <trkpt lat="42.33839" lon="2.21851">
        <ele>2130</ele>
        <time>2010-01-01T03:27:15Z</time>
      </trkpt>
      <trkpt lat="42.33837" lon="2.21848">
        <ele>2129</ele>
        <time>2010-01-01T03:27:16Z</time>
      </trkpt>
      <trkpt lat="42.33835" lon="2.21846">
        <ele>2129</ele>
        <time>2010-01-01T03:27:17Z</time>
      </trkpt>
      <trkpt lat="42.33834" lon="2.21843">
        <ele>2128</ele>
        <time>2010-01-01T03:27:18Z</time>
      </trkpt>
      <trkpt lat="42.33833" lon="2.2184">
        <ele>2127</ele>
        <time>2010-01-01T03:27:19Z</time>
      </trkpt>
      <trkpt lat="42.33833" lon="2.21838">
        <ele>2127</ele>
        <time>2010-01-01T03:27:20Z</time>
      </trkpt>
      <trkpt lat="42.33831" lon="2.21835">
        <ele>2127</ele>
        <time>2010-01-01T03:27:21Z</time>
      </trkpt>
      <trkpt lat="42.3383" lon="2.21834">
        <ele>2126</ele>
        <time>2010-01-01T03:27:22Z</time>
      </trkpt>
      <trkpt lat="42.33828" lon="2.21832">
        <ele>2126</ele>
        <time>2010-01-01T03:27:23Z</time>
      </trkpt>
      <trkpt lat="42.33827" lon="2.2183">
        <ele>2125</ele>
        <time>2010-01-01T03:27:23Z</time>
      </trkpt>
      <trkpt lat="42.33826" lon="2.21828">
        <ele>2125</ele>
        <time>2010-01-01T03:27:24Z</time>
      </trkpt>
      <trkpt lat="42.33824" lon="2.21826">
        <ele>2124</ele>
        <time>2010-01-01T03:27:25Z</time>
      </trkpt>
      <trkpt lat="42.33823" lon="2.21824">
        <ele>2124</ele>
        <time>2010-01-01T03:27:26Z</time>
      </trkpt>
      <trkpt lat="42.3382" lon="2.21821">
        <ele>2123</ele>
        <time>2010-01-01T03:27:27Z</time>
      </trkpt>
      <trkpt lat="42.33818" lon="2.21819">
        <ele>2122</ele>
        <time>2010-01-01T03:27:28Z</time>
      </trkpt>
      <trkpt lat="42.33817" lon="2.21818">
        <ele>2122</ele>
        <time>2010-01-01T03:27:29Z</time>
      </trkpt>
      <trkpt lat="42.33814" lon="2.21815">
        <ele>2121</ele>
        <time>2010-01-01T03:27:30Z</time>
      </trkpt>
      <trkpt lat="42.33811" lon="2.21812">
        <ele>2121</ele>
        <time>2010-01-01T03:27:31Z</time>
      </trkpt>
      <trkpt lat="42.33809" lon="2.21809">
        <ele>2120</ele>
        <time>2010-01-01T03:27:33Z</time>
      </trkpt>
      <trkpt lat="42.33808" lon="2.21808">
        <ele>2120</ele>
        <time>2010-01-01T03:27:33Z</time>
      </trkpt>
      <trkpt lat="42.33806" lon="2.21804">
        <ele>2119</ele>
        <time>2010-01-01T03:27:35Z</time>
      </trkpt>
      <trkpt lat="42.33804" lon="2.21801">
        <ele>2118</ele>
        <time>2010-01-01T03:27:36Z</time>
      </trkpt>
      <trkpt lat="42.33802" lon="2.21799">
        <ele>2117</ele>
        <time>2010-01-01T03:27:37Z</time>
      </trkpt>
      <trkpt lat="42.338" lon="2.21797">
        <ele>2117</ele>
        <time>2010-01-01T03:27:38Z</time>
      </trkpt>
      <trkpt lat="42.33799" lon="2.21794">
        <ele>2116</ele>
        <time>2010-01-01T03:27:39Z</time>
      </trkpt>
      <trkpt lat="42.33797" lon="2.21792">
        <ele>2115</ele>
        <time>2010-01-01T03:27:40Z</time>
      </trkpt>
      <trkpt lat="42.33795" lon="2.21788">
        <ele>2114</ele>
        <time>2010-01-01T03:27:41Z</time>
      </trkpt>
      <trkpt lat="42.33794" lon="2.21785">
        <ele>2113</ele>
        <time>2010-01-01T03:27:42Z</time>
      </trkpt>
      <trkpt lat="42.33793" lon="2.21782">
        <ele>2112</ele>
        <time>2010-01-01T03:27:43Z</time>
      </trkpt>
      <trkpt lat="42.33792" lon="2.2178">
        <ele>2112</ele>
        <time>2010-01-01T03:27:44Z</time>
      </trkpt>
      <trkpt lat="42.33791" lon="2.21778">
        <ele>2111</ele>
        <time>2010-01-01T03:27:45Z</time>
      </trkpt>
      <trkpt lat="42.33789" lon="2.21776">
        <ele>2110</ele>
        <time>2010-01-01T03:27:46Z</time>
      </trkpt>
      <trkpt lat="42.33788" lon="2.21774">
        <ele>2110</ele>
        <time>2010-01-01T03:27:46Z</time>
      </trkpt>
      <trkpt lat="42.33786" lon="2.21772">
        <ele>2109</ele>
        <time>2010-01-01T03:27:47Z</time>
      </trkpt>
      <trkpt lat="42.33785" lon="2.21769">
        <ele>2108</ele>
        <time>2010-01-01T03:27:48Z</time>
      </trkpt>
      <trkpt lat="42.33783" lon="2.21767">
        <ele>2108</ele>
        <time>2010-01-01T03:27:49Z</time>
      </trkpt>
      <trkpt lat="42.33781" lon="2.21766">
        <ele>2107</ele>
        <time>2010-01-01T03:27:50Z</time>
      </trkpt>
      <trkpt lat="42.33779" lon="2.21764">
        <ele>2107</ele>
        <time>2010-01-01T03:27:51Z</time>
      </trkpt>
      <trkpt lat="42.33778" lon="2.21762">
        <ele>2106</ele>
        <time>2010-01-01T03:27:52Z</time>
      </trkpt>
      <trkpt lat="42.33776" lon="2.21761">
        <ele>2105</ele>
        <time>2010-01-01T03:27:53Z</time>
      </trkpt>
      <trkpt lat="42.33774" lon="2.21759">
        <ele>2105</ele>
        <time>2010-01-01T03:27:54Z</time>
      </trkpt>
      <trkpt lat="42.33772" lon="2.21757">
        <ele>2104</ele>
        <time>2010-01-01T03:27:54Z</time>
      </trkpt>
      <trkpt lat="42.3377" lon="2.21755">
        <ele>2104</ele>
        <time>2010-01-01T03:27:55Z</time>
      </trkpt>
      <trkpt lat="42.33769" lon="2.21753">
        <ele>2103</ele>
        <time>2010-01-01T03:27:56Z</time>
      </trkpt>
      <trkpt lat="42.33767" lon="2.21752">
        <ele>2102</ele>
        <time>2010-01-01T03:27:57Z</time>
      </trkpt>
      <trkpt lat="42.33766" lon="2.2175">
        <ele>2102</ele>
        <time>2010-01-01T03:27:58Z</time>
      </trkpt>
      <trkpt lat="42.33765" lon="2.21748">
        <ele>2101</ele>
        <time>2010-01-01T03:27:58Z</time>
      </trkpt>
      <trkpt lat="42.33763" lon="2.21745">
        <ele>2100</ele>
        <time>2010-01-01T03:27:59Z</time>
      </trkpt>
      <trkpt lat="42.33762" lon="2.21743">
        <ele>2099</ele>
        <time>2010-01-01T03:28:00Z</time>
      </trkpt>
      <trkpt lat="42.3376" lon="2.21741">
        <ele>2099</ele>
        <time>2010-01-01T03:28:01Z</time>
      </trkpt>
      <trkpt lat="42.33758" lon="2.21739">
        <ele>2098</ele>
        <time>2010-01-01T03:28:02Z</time>
      </trkpt>
      <trkpt lat="42.33757" lon="2.21736">
        <ele>2097</ele>
        <time>2010-01-01T03:28:03Z</time>
      </trkpt>
      <trkpt lat="42.33755" lon="2.21734">
        <ele>2097</ele>
        <time>2010-01-01T03:28:04Z</time>
      </trkpt>
      <trkpt lat="42.33754" lon="2.21732">
        <ele>2096</ele>
        <time>2010-01-01T03:28:05Z</time>
      </trkpt>
      <trkpt lat="42.33753" lon="2.21729">
        <ele>2095</ele>
        <time>2010-01-01T03:28:06Z</time>
      </trkpt>
      <trkpt lat="42.33751" lon="2.21727">
        <ele>2095</ele>
        <time>2010-01-01T03:28:07Z</time>
      </trkpt>
      <trkpt lat="42.3375" lon="2.21725">
        <ele>2094</ele>
        <time>2010-01-01T03:28:08Z</time>
      </trkpt>
      <trkpt lat="42.33748" lon="2.21723">
        <ele>2093</ele>
        <time>2010-01-01T03:28:08Z</time>
      </trkpt>
      <trkpt lat="42.33746" lon="2.21721">
        <ele>2093</ele>
        <time>2010-01-01T03:28:09Z</time>
      </trkpt>
      <trkpt lat="42.33744" lon="2.21719">
        <ele>2092</ele>
        <time>2010-01-01T03:28:10Z</time>
      </trkpt>
      <trkpt lat="42.33742" lon="2.21716">
        <ele>2091</ele>
        <time>2010-01-01T03:28:12Z</time>
      </trkpt>
      <trkpt lat="42.33741" lon="2.21714">
        <ele>2091</ele>
        <time>2010-01-01T03:28:12Z</time>
      </trkpt>
      <trkpt lat="42.3374" lon="2.21712">
        <ele>2090</ele>
        <time>2010-01-01T03:28:13Z</time>
      </trkpt>
      <trkpt lat="42.33738" lon="2.21711">
        <ele>2090</ele>
        <time>2010-01-01T03:28:14Z</time>
      </trkpt>
      <trkpt lat="42.33737" lon="2.21709">
        <ele>2089</ele>
        <time>2010-01-01T03:28:15Z</time>
      </trkpt>
      <trkpt lat="42.33734" lon="2.21705">
        <ele>2088</ele>
        <time>2010-01-01T03:28:16Z</time>
      </trkpt>
      <trkpt lat="42.33733" lon="2.21702">
        <ele>2088</ele>
        <time>2010-01-01T03:28:17Z</time>
      </trkpt>
      <trkpt lat="42.33731" lon="2.217">
        <ele>2087</ele>
        <time>2010-01-01T03:28:18Z</time>
      </trkpt>
      <trkpt lat="42.3373" lon="2.21697">
        <ele>2087</ele>
        <time>2010-01-01T03:28:19Z</time>
      </trkpt>
      <trkpt lat="42.33728" lon="2.21695">
        <ele>2086</ele>
        <time>2010-01-01T03:28:20Z</time>
      </trkpt>
      <trkpt lat="42.33727" lon="2.21693">
        <ele>2086</ele>
        <time>2010-01-01T03:28:21Z</time>
      </trkpt>
      <trkpt lat="42.33726" lon="2.21691">
        <ele>2085</ele>
        <time>2010-01-01T03:28:22Z</time>
      </trkpt>
      <trkpt lat="42.33725" lon="2.21689">
        <ele>2085</ele>
        <time>2010-01-01T03:28:22Z</time>
      </trkpt>
      <trkpt lat="42.33722" lon="2.21685">
        <ele>2084</ele>
        <time>2010-01-01T03:28:24Z</time>
      </trkpt>
      <trkpt lat="42.33721" lon="2.21684">
        <ele>2083</ele>
        <time>2010-01-01T03:28:24Z</time>
      </trkpt>
      <trkpt lat="42.33719" lon="2.21682">
        <ele>2083</ele>
        <time>2010-01-01T03:28:25Z</time>
      </trkpt>
      <trkpt lat="42.33718" lon="2.2168">
        <ele>2082</ele>
        <time>2010-01-01T03:28:26Z</time>
      </trkpt>
      <trkpt lat="42.33716" lon="2.21678">
        <ele>2082</ele>
        <time>2010-01-01T03:28:27Z</time>
      </trkpt>
      <trkpt lat="42.33716" lon="2.21676">
        <ele>2081</ele>
        <time>2010-01-01T03:28:28Z</time>
      </trkpt>
      <trkpt lat="42.33714" lon="2.21672">
        <ele>2080</ele>
        <time>2010-01-01T03:28:29Z</time>
      </trkpt>
      <trkpt lat="42.33712" lon="2.2167">
        <ele>2079</ele>
        <time>2010-01-01T03:28:30Z</time>
      </trkpt>
      <trkpt lat="42.3371" lon="2.21667">
        <ele>2078</ele>
        <time>2010-01-01T03:28:31Z</time>
      </trkpt>
      <trkpt lat="42.33708" lon="2.21664">
        <ele>2077</ele>
        <time>2010-01-01T03:28:32Z</time>
      </trkpt>
      <trkpt lat="42.33706" lon="2.21662">
        <ele>2077</ele>
        <time>2010-01-01T03:28:33Z</time>
      </trkpt>
      <trkpt lat="42.33704" lon="2.21658">
        <ele>2076</ele>
        <time>2010-01-01T03:28:34Z</time>
      </trkpt>
      <trkpt lat="42.33703" lon="2.21656">
        <ele>2075</ele>
        <time>2010-01-01T03:28:35Z</time>
      </trkpt>
      <trkpt lat="42.33701" lon="2.21653">
        <ele>2074</ele>
        <time>2010-01-01T03:28:37Z</time>
      </trkpt>
      <trkpt lat="42.337" lon="2.21651">
        <ele>2073</ele>
        <time>2010-01-01T03:28:37Z</time>
      </trkpt>
      <trkpt lat="42.33698" lon="2.21649">
        <ele>2072</ele>
        <time>2010-01-01T03:28:38Z</time>
      </trkpt>
      <trkpt lat="42.33697" lon="2.21647">
        <ele>2072</ele>
        <time>2010-01-01T03:28:39Z</time>
      </trkpt>
      <trkpt lat="42.33696" lon="2.21645">
        <ele>2071</ele>
        <time>2010-01-01T03:28:40Z</time>
      </trkpt>
      <trkpt lat="42.33695" lon="2.21643">
        <ele>2070</ele>
        <time>2010-01-01T03:28:41Z</time>
      </trkpt>
      <trkpt lat="42.33693" lon="2.21639">
        <ele>2069</ele>
        <time>2010-01-01T03:28:42Z</time>
      </trkpt>
      <trkpt lat="42.33692" lon="2.21637">
        <ele>2069</ele>
        <time>2010-01-01T03:28:43Z</time>
      </trkpt>
      <trkpt lat="42.33688" lon="2.21635">
        <ele>2067</ele>
        <time>2010-01-01T03:28:44Z</time>
      </trkpt>
      <trkpt lat="42.33686" lon="2.21633">
        <ele>2066</ele>
        <time>2010-01-01T03:28:45Z</time>
      </trkpt>
      <trkpt lat="42.33684" lon="2.21629">
        <ele>2065</ele>
        <time>2010-01-01T03:28:47Z</time>
      </trkpt>
      <trkpt lat="42.33682" lon="2.21627">
        <ele>2064</ele>
        <time>2010-01-01T03:28:47Z</time>
      </trkpt>
      <trkpt lat="42.33681" lon="2.21626">
        <ele>2063</ele>
        <time>2010-01-01T03:28:48Z</time>
      </trkpt>
      <trkpt lat="42.33679" lon="2.21622">
        <ele>2062</ele>
        <time>2010-01-01T03:28:49Z</time>
      </trkpt>
      <trkpt lat="42.33676" lon="2.21619">
        <ele>2060</ele>
        <time>2010-01-01T03:28:51Z</time>
      </trkpt>
      <trkpt lat="42.33675" lon="2.21618">
        <ele>2059</ele>
        <time>2010-01-01T03:28:51Z</time>
      </trkpt>
      <trkpt lat="42.33672" lon="2.21615">
        <ele>2058</ele>
        <time>2010-01-01T03:28:53Z</time>
      </trkpt>
      <trkpt lat="42.3367" lon="2.21612">
        <ele>2056</ele>
        <time>2010-01-01T03:28:54Z</time>
      </trkpt>
      <trkpt lat="42.33668" lon="2.2161">
        <ele>2056</ele>
        <time>2010-01-01T03:28:55Z</time>
      </trkpt>
      <trkpt lat="42.33667" lon="2.21608">
        <ele>2055</ele>
        <time>2010-01-01T03:28:56Z</time>
      </trkpt>
      <trkpt lat="42.33666" lon="2.21606">
        <ele>2054</ele>
        <time>2010-01-01T03:28:56Z</time>
      </trkpt>
      <trkpt lat="42.33665" lon="2.21604">
        <ele>2053</ele>
        <time>2010-01-01T03:28:57Z</time>
      </trkpt>
      <trkpt lat="42.33663" lon="2.21602">
        <ele>2053</ele>
        <time>2010-01-01T03:28:58Z</time>
      </trkpt>
      <trkpt lat="42.33661" lon="2.216">
        <ele>2051</ele>
        <time>2010-01-01T03:28:59Z</time>
      </trkpt>
      <trkpt lat="42.33659" lon="2.21597">
        <ele>2050</ele>
        <time>2010-01-01T03:29:01Z</time>
      </trkpt>
      <trkpt lat="42.33658" lon="2.21595">
        <ele>2049</ele>
        <time>2010-01-01T03:29:01Z</time>
      </trkpt>
      <trkpt lat="42.33656" lon="2.21593">
        <ele>2049</ele>
        <time>2010-01-01T03:29:02Z</time>
      </trkpt>
      <trkpt lat="42.33654" lon="2.2159">
        <ele>2047</ele>
        <time>2010-01-01T03:29:03Z</time>
      </trkpt>
      <trkpt lat="42.33652" lon="2.21587">
        <ele>2046</ele>
        <time>2010-01-01T03:29:05Z</time>
      </trkpt>
      <trkpt lat="42.33651" lon="2.21585">
        <ele>2045</ele>
        <time>2010-01-01T03:29:05Z</time>
      </trkpt>
      <trkpt lat="42.33649" lon="2.21581">
        <ele>2044</ele>
        <time>2010-01-01T03:29:07Z</time>
      </trkpt>
      <trkpt lat="42.33648" lon="2.21579">
        <ele>2043</ele>
        <time>2010-01-01T03:29:07Z</time>
      </trkpt>
      <trkpt lat="42.33647" lon="2.21577">
        <ele>2043</ele>
        <time>2010-01-01T03:29:08Z</time>
      </trkpt>
      <trkpt lat="42.33645" lon="2.21575">
        <ele>2042</ele>
        <time>2010-01-01T03:29:09Z</time>
      </trkpt>
      <trkpt lat="42.33643" lon="2.21573">
        <ele>2041</ele>
        <time>2010-01-01T03:29:10Z</time>
      </trkpt>
      <trkpt lat="42.33642" lon="2.21572">
        <ele>2040</ele>
        <time>2010-01-01T03:29:11Z</time>
      </trkpt>
      <trkpt lat="42.3364" lon="2.21571">
        <ele>2040</ele>
        <time>2010-01-01T03:29:11Z</time>
      </trkpt>
      <trkpt lat="42.33639" lon="2.21566">
        <ele>2038</ele>
        <time>2010-01-01T03:29:13Z</time>
      </trkpt>
      <trkpt lat="42.33638" lon="2.21564">
        <ele>2038</ele>
        <time>2010-01-01T03:29:14Z</time>
      </trkpt>
      <trkpt lat="42.33635" lon="2.21562">
        <ele>2037</ele>
        <time>2010-01-01T03:29:15Z</time>
      </trkpt>
      <trkpt lat="42.33633" lon="2.21559">
        <ele>2035</ele>
        <time>2010-01-01T03:29:16Z</time>
      </trkpt>
      <trkpt lat="42.33631" lon="2.21557">
        <ele>2035</ele>
        <time>2010-01-01T03:29:17Z</time>
      </trkpt>
      <trkpt lat="42.33629" lon="2.21553">
        <ele>2033</ele>
        <time>2010-01-01T03:29:18Z</time>
      </trkpt>
      <trkpt lat="42.33626" lon="2.2155">
        <ele>2032</ele>
        <time>2010-01-01T03:29:20Z</time>
      </trkpt>
      <trkpt lat="42.33624" lon="2.21548">
        <ele>2031</ele>
        <time>2010-01-01T03:29:21Z</time>
      </trkpt>
      <trkpt lat="42.33621" lon="2.21545">
        <ele>2029</ele>
        <time>2010-01-01T03:29:22Z</time>
      </trkpt>
      <trkpt lat="42.33619" lon="2.21542">
        <ele>2028</ele>
        <time>2010-01-01T03:29:24Z</time>
      </trkpt>
      <trkpt lat="42.33618" lon="2.21539">
        <ele>2027</ele>
        <time>2010-01-01T03:29:25Z</time>
      </trkpt>
      <trkpt lat="42.33616" lon="2.21535">
        <ele>2025</ele>
        <time>2010-01-01T03:29:26Z</time>
      </trkpt>
      <trkpt lat="42.33614" lon="2.21531">
        <ele>2024</ele>
        <time>2010-01-01T03:29:27Z</time>
      </trkpt>
      <trkpt lat="42.33614" lon="2.21529">
        <ele>2023</ele>
        <time>2010-01-01T03:29:28Z</time>
      </trkpt>
      <trkpt lat="42.33615" lon="2.21523">
        <ele>2022</ele>
        <time>2010-01-01T03:29:30Z</time>
      </trkpt>
      <trkpt lat="42.33614" lon="2.21519">
        <ele>2021</ele>
        <time>2010-01-01T03:29:31Z</time>
      </trkpt>
      <trkpt lat="42.33611" lon="2.21517">
        <ele>2019</ele>
        <time>2010-01-01T03:29:32Z</time>
      </trkpt>
      <trkpt lat="42.33608" lon="2.21517">
        <ele>2018</ele>
        <time>2010-01-01T03:29:33Z</time>
      </trkpt>
      <trkpt lat="42.33606" lon="2.21516">
        <ele>2017</ele>
        <time>2010-01-01T03:29:34Z</time>
      </trkpt>
      <trkpt lat="42.33605" lon="2.21515">
        <ele>2017</ele>
        <time>2010-01-01T03:29:35Z</time>
      </trkpt>
      <trkpt lat="42.33603" lon="2.21514">
        <ele>2016</ele>
        <time>2010-01-01T03:29:36Z</time>
      </trkpt>
      <trkpt lat="42.33601" lon="2.21513">
        <ele>2015</ele>
        <time>2010-01-01T03:29:37Z</time>
      </trkpt>
      <trkpt lat="42.336" lon="2.21511">
        <ele>2014</ele>
        <time>2010-01-01T03:29:37Z</time>
      </trkpt>
      <trkpt lat="42.33598" lon="2.21509">
        <ele>2013</ele>
        <time>2010-01-01T03:29:38Z</time>
      </trkpt>
      <trkpt lat="42.33597" lon="2.21507">
        <ele>2013</ele>
        <time>2010-01-01T03:29:39Z</time>
      </trkpt>
      <trkpt lat="42.33595" lon="2.21505">
        <ele>2012</ele>
        <time>2010-01-01T03:29:40Z</time>
      </trkpt>
      <trkpt lat="42.33594" lon="2.21503">
        <ele>2011</ele>
        <time>2010-01-01T03:29:41Z</time>
      </trkpt>
      <trkpt lat="42.33592" lon="2.21501">
        <ele>2010</ele>
        <time>2010-01-01T03:29:42Z</time>
      </trkpt>
      <trkpt lat="42.33591" lon="2.215">
        <ele>2010</ele>
        <time>2010-01-01T03:29:42Z</time>
      </trkpt>
      <trkpt lat="42.33589" lon="2.21496">
        <ele>2009</ele>
        <time>2010-01-01T03:29:44Z</time>
      </trkpt>
      <trkpt lat="42.33587" lon="2.21495">
        <ele>2008</ele>
        <time>2010-01-01T03:29:44Z</time>
      </trkpt>
      <trkpt lat="42.33586" lon="2.21492">
        <ele>2008</ele>
        <time>2010-01-01T03:29:45Z</time>
      </trkpt>
      <trkpt lat="42.33586" lon="2.2149">
        <ele>2007</ele>
        <time>2010-01-01T03:29:46Z</time>
      </trkpt>
      <trkpt lat="42.33584" lon="2.21486">
        <ele>2007</ele>
        <time>2010-01-01T03:29:47Z</time>
      </trkpt>
      <trkpt lat="42.33581" lon="2.21483">
        <ele>2006</ele>
        <time>2010-01-01T03:29:49Z</time>
      </trkpt>
      <trkpt lat="42.3358" lon="2.21481">
        <ele>2006</ele>
        <time>2010-01-01T03:29:49Z</time>
      </trkpt>
      <trkpt lat="42.33579" lon="2.21479">
        <ele>2005</ele>
        <time>2010-01-01T03:29:50Z</time>
      </trkpt>
      <trkpt lat="42.33577" lon="2.21477">
        <ele>2005</ele>
        <time>2010-01-01T03:29:51Z</time>
      </trkpt>
      <trkpt lat="42.33577" lon="2.21475">
        <ele>2005</ele>
        <time>2010-01-01T03:29:52Z</time>
      </trkpt>
      <trkpt lat="42.33575" lon="2.21471">
        <ele>2004</ele>
        <time>2010-01-01T03:29:53Z</time>
      </trkpt>
      <trkpt lat="42.33573" lon="2.2147">
        <ele>2004</ele>
        <time>2010-01-01T03:29:54Z</time>
      </trkpt>
      <trkpt lat="42.33572" lon="2.21469">
        <ele>2004</ele>
        <time>2010-01-01T03:29:54Z</time>
      </trkpt>
      <trkpt lat="42.3357" lon="2.21467">
        <ele>2003</ele>
        <time>2010-01-01T03:29:55Z</time>
      </trkpt>
      <trkpt lat="42.33569" lon="2.21465">
        <ele>2003</ele>
        <time>2010-01-01T03:29:56Z</time>
      </trkpt>
      <trkpt lat="42.33568" lon="2.21463">
        <ele>2003</ele>
        <time>2010-01-01T03:29:57Z</time>
      </trkpt>
      <trkpt lat="42.33567" lon="2.21461">
        <ele>2002</ele>
        <time>2010-01-01T03:29:58Z</time>
      </trkpt>
      <trkpt lat="42.33565" lon="2.21459">
        <ele>2002</ele>
        <time>2010-01-01T03:29:58Z</time>
      </trkpt>
      <trkpt lat="42.33564" lon="2.21456">
        <ele>2001</ele>
        <time>2010-01-01T03:29:59Z</time>
      </trkpt>
      <trkpt lat="42.33562" lon="2.21454">
        <ele>2001</ele>
        <time>2010-01-01T03:30:00Z</time>
      </trkpt>
      <trkpt lat="42.33561" lon="2.21451">
        <ele>2000</ele>
        <time>2010-01-01T03:30:01Z</time>
      </trkpt>
      <trkpt lat="42.3356" lon="2.21449">
        <ele>2000</ele>
        <time>2010-01-01T03:30:02Z</time>
      </trkpt>
      <trkpt lat="42.3356" lon="2.21446">
        <ele>2000</ele>
        <time>2010-01-01T03:30:03Z</time>
      </trkpt>
      <trkpt lat="42.3356" lon="2.2144">
        <ele>1999</ele>
        <time>2010-01-01T03:30:05Z</time>
      </trkpt>
      <trkpt lat="42.33559" lon="2.21436">
        <ele>1998</ele>
        <time>2010-01-01T03:30:06Z</time>
      </trkpt>
      <trkpt lat="42.33558" lon="2.21431">
        <ele>1997</ele>
        <time>2010-01-01T03:30:07Z</time>
      </trkpt>
      <trkpt lat="42.33557" lon="2.21428">
        <ele>1996</ele>
        <time>2010-01-01T03:30:08Z</time>
      </trkpt>
      <trkpt lat="42.33555" lon="2.21424">
        <ele>1995</ele>
        <time>2010-01-01T03:30:10Z</time>
      </trkpt>
      <trkpt lat="42.33554" lon="2.2142">
        <ele>1994</ele>
        <time>2010-01-01T03:30:11Z</time>
      </trkpt>
      <trkpt lat="42.33553" lon="2.21417">
        <ele>1993</ele>
        <time>2010-01-01T03:30:12Z</time>
      </trkpt>
      <trkpt lat="42.33552" lon="2.21414">
        <ele>1993</ele>
        <time>2010-01-01T03:30:13Z</time>
      </trkpt>
      <trkpt lat="42.33551" lon="2.2141">
        <ele>1992</ele>
        <time>2010-01-01T03:30:14Z</time>
      </trkpt>
      <trkpt lat="42.33549" lon="2.21406">
        <ele>1992</ele>
        <time>2010-01-01T03:30:15Z</time>
      </trkpt>
      <trkpt lat="42.33548" lon="2.21403">
        <ele>1992</ele>
        <time>2010-01-01T03:30:17Z</time>
      </trkpt>
      <trkpt lat="42.33547" lon="2.214">
        <ele>1991</ele>
        <time>2010-01-01T03:30:18Z</time>
      </trkpt>
      <trkpt lat="42.33545" lon="2.21397">
        <ele>1991</ele>
        <time>2010-01-01T03:30:19Z</time>
      </trkpt>
      <trkpt lat="42.33544" lon="2.21394">
        <ele>1991</ele>
        <time>2010-01-01T03:30:20Z</time>
      </trkpt>
      <trkpt lat="42.33543" lon="2.21391">
        <ele>1990</ele>
        <time>2010-01-01T03:30:21Z</time>
      </trkpt>
      <trkpt lat="42.33541" lon="2.21387">
        <ele>1990</ele>
        <time>2010-01-01T03:30:22Z</time>
      </trkpt>
      <trkpt lat="42.3354" lon="2.21384">
        <ele>1990</ele>
        <time>2010-01-01T03:30:23Z</time>
      </trkpt>
      <trkpt lat="42.33539" lon="2.2138">
        <ele>1989</ele>
        <time>2010-01-01T03:30:24Z</time>
      </trkpt>
      <trkpt lat="42.33538" lon="2.21376">
        <ele>1989</ele>
        <time>2010-01-01T03:30:26Z</time>
      </trkpt>
      <trkpt lat="42.33538" lon="2.21374">
        <ele>1989</ele>
        <time>2010-01-01T03:30:26Z</time>
      </trkpt>
      <trkpt lat="42.33538" lon="2.2137">
        <ele>1989</ele>
        <time>2010-01-01T03:30:27Z</time>
      </trkpt>
      <trkpt lat="42.33537" lon="2.21367">
        <ele>1989</ele>
        <time>2010-01-01T03:30:28Z</time>
      </trkpt>
      <trkpt lat="42.33536" lon="2.21364">
        <ele>1989</ele>
        <time>2010-01-01T03:30:29Z</time>
      </trkpt>
      <trkpt lat="42.33535" lon="2.21361">
        <ele>1989</ele>
        <time>2010-01-01T03:30:30Z</time>
      </trkpt>
      <trkpt lat="42.33535" lon="2.21359">
        <ele>1988</ele>
        <time>2010-01-01T03:30:31Z</time>
      </trkpt>
      <trkpt lat="42.33533" lon="2.21357">
        <ele>1988</ele>
        <time>2010-01-01T03:30:32Z</time>
      </trkpt>
      <trkpt lat="42.33534" lon="2.21355">
        <ele>1988</ele>
        <time>2010-01-01T03:30:33Z</time>
      </trkpt>
      <trkpt lat="42.33535" lon="2.21352">
        <ele>1988</ele>
        <time>2010-01-01T03:30:34Z</time>
      </trkpt>
      <trkpt lat="42.33535" lon="2.21349">
        <ele>1988</ele>
        <time>2010-01-01T03:30:35Z</time>
      </trkpt>
      <trkpt lat="42.33534" lon="2.21345">
        <ele>1988</ele>
        <time>2010-01-01T03:30:36Z</time>
      </trkpt>
      <trkpt lat="42.33533" lon="2.21342">
        <ele>1988</ele>
        <time>2010-01-01T03:30:37Z</time>
      </trkpt>
      <trkpt lat="42.33533" lon="2.21339">
        <ele>1988</ele>
        <time>2010-01-01T03:30:38Z</time>
      </trkpt>
      <trkpt lat="42.33534" lon="2.21336">
        <ele>1988</ele>
        <time>2010-01-01T03:30:39Z</time>
      </trkpt>
      <trkpt lat="42.33533" lon="2.21331">
        <ele>1987</ele>
        <time>2010-01-01T03:30:40Z</time>
      </trkpt>
      <trkpt lat="42.33534" lon="2.21329">
        <ele>1987</ele>
        <time>2010-01-01T03:30:41Z</time>
      </trkpt>
      <trkpt lat="42.33531" lon="2.21322">
        <ele>1987</ele>
        <time>2010-01-01T03:30:44Z</time>
      </trkpt>
      <trkpt lat="42.33532" lon="2.21317">
        <ele>1987</ele>
        <time>2010-01-01T03:30:45Z</time>
      </trkpt>
      <trkpt lat="42.33533" lon="2.21314">
        <ele>1987</ele>
        <time>2010-01-01T03:30:46Z</time>
      </trkpt>
      <trkpt lat="42.33532" lon="2.21311">
        <ele>1987</ele>
        <time>2010-01-01T03:30:47Z</time>
      </trkpt>
      <trkpt lat="42.33535" lon="2.21314">
        <ele>1987</ele>
        <time>2010-01-01T03:30:49Z</time>
      </trkpt>
      <trkpt lat="42.33532" lon="2.21313">
        <ele>1987</ele>
        <time>2010-01-01T03:30:50Z</time>
      </trkpt>
      <trkpt lat="42.33531" lon="2.21311">
        <ele>1987</ele>
        <time>2010-01-01T03:30:51Z</time>
      </trkpt>
      <trkpt lat="42.33529" lon="2.21309">
        <ele>1987</ele>
        <time>2010-01-01T03:30:51Z</time>
      </trkpt>
      <trkpt lat="42.33527" lon="2.21308">
        <ele>1987</ele>
        <time>2010-01-01T03:30:52Z</time>
      </trkpt>
      <trkpt lat="42.33526" lon="2.21306">
        <ele>1986</ele>
        <time>2010-01-01T03:30:53Z</time>
      </trkpt>
      <trkpt lat="42.33524" lon="2.21304">
        <ele>1986</ele>
        <time>2010-01-01T03:30:54Z</time>
      </trkpt>
      <trkpt lat="42.33523" lon="2.21302">
        <ele>1986</ele>
        <time>2010-01-01T03:30:55Z</time>
      </trkpt>
      <trkpt lat="42.33521" lon="2.21299">
        <ele>1986</ele>
        <time>2010-01-01T03:30:56Z</time>
      </trkpt>
      <trkpt lat="42.33519" lon="2.21297">
        <ele>1986</ele>
        <time>2010-01-01T03:30:57Z</time>
      </trkpt>
      <trkpt lat="42.33517" lon="2.21299">
        <ele>1985</ele>
        <time>2010-01-01T03:30:58Z</time>
      </trkpt>
      <trkpt lat="42.33515" lon="2.21301">
        <ele>1985</ele>
        <time>2010-01-01T03:30:59Z</time>
      </trkpt>
      <trkpt lat="42.33513" lon="2.21303">
        <ele>1985</ele>
        <time>2010-01-01T03:31:00Z</time>
      </trkpt>
      <trkpt lat="42.33512" lon="2.21305">
        <ele>1985</ele>
        <time>2010-01-01T03:31:01Z</time>
      </trkpt>
      <trkpt lat="42.3351" lon="2.21308">
        <ele>1985</ele>
        <time>2010-01-01T03:31:02Z</time>
      </trkpt>
      <trkpt lat="42.33508" lon="2.21308">
        <ele>1985</ele>
        <time>2010-01-01T03:31:02Z</time>
      </trkpt>
      <trkpt lat="42.33506" lon="2.21309">
        <ele>1985</ele>
        <time>2010-01-01T03:31:03Z</time>
      </trkpt>
      <trkpt lat="42.33504" lon="2.21306">
        <ele>1985</ele>
        <time>2010-01-01T03:31:04Z</time>
      </trkpt>
      <trkpt lat="42.33502" lon="2.21305">
        <ele>1985</ele>
        <time>2010-01-01T03:31:05Z</time>
      </trkpt>
      <trkpt lat="42.33502" lon="2.21303">
        <ele>1984</ele>
        <time>2010-01-01T03:31:06Z</time>
      </trkpt>
      <trkpt lat="42.33501" lon="2.213">
        <ele>1984</ele>
        <time>2010-01-01T03:31:07Z</time>
      </trkpt>
      <trkpt lat="42.335" lon="2.21298">
        <ele>1984</ele>
        <time>2010-01-01T03:31:07Z</time>
      </trkpt>
      <trkpt lat="42.33498" lon="2.21297">
        <ele>1984</ele>
        <time>2010-01-01T03:31:08Z</time>
      </trkpt>
      <trkpt lat="42.33495" lon="2.21298">
        <ele>1983</ele>
        <time>2010-01-01T03:31:09Z</time>
      </trkpt>
      <trkpt lat="42.33493" lon="2.21298">
        <ele>1983</ele>
        <time>2010-01-01T03:31:10Z</time>
      </trkpt>
      <trkpt lat="42.33491" lon="2.21297">
        <ele>1982</ele>
        <time>2010-01-01T03:31:11Z</time>
      </trkpt>
      <trkpt lat="42.33489" lon="2.21296">
        <ele>1982</ele>
        <time>2010-01-01T03:31:12Z</time>
      </trkpt>
      <trkpt lat="42.33486" lon="2.21295">
        <ele>1982</ele>
        <time>2010-01-01T03:31:13Z</time>
      </trkpt>
      <trkpt lat="42.33484" lon="2.21295">
        <ele>1981</ele>
        <time>2010-01-01T03:31:14Z</time>
      </trkpt>
      <trkpt lat="42.33482" lon="2.21294">
        <ele>1981</ele>
        <time>2010-01-01T03:31:15Z</time>
      </trkpt>
      <trkpt lat="42.3348" lon="2.21292">
        <ele>1980</ele>
        <time>2010-01-01T03:31:16Z</time>
      </trkpt>
      <trkpt lat="42.33478" lon="2.21291">
        <ele>1980</ele>
        <time>2010-01-01T03:31:17Z</time>
      </trkpt>
      <trkpt lat="42.33476" lon="2.21289">
        <ele>1979</ele>
        <time>2010-01-01T03:31:18Z</time>
      </trkpt>
      <trkpt lat="42.33473" lon="2.21288">
        <ele>1979</ele>
        <time>2010-01-01T03:31:19Z</time>
      </trkpt>
      <trkpt lat="42.33471" lon="2.21286">
        <ele>1978</ele>
        <time>2010-01-01T03:31:20Z</time>
      </trkpt>
      <trkpt lat="42.33469" lon="2.21285">
        <ele>1978</ele>
        <time>2010-01-01T03:31:21Z</time>
      </trkpt>
      <trkpt lat="42.33467" lon="2.21284">
        <ele>1978</ele>
        <time>2010-01-01T03:31:21Z</time>
      </trkpt>
      <trkpt lat="42.33466" lon="2.21281">
        <ele>1977</ele>
        <time>2010-01-01T03:31:22Z</time>
      </trkpt>
      <trkpt lat="42.33465" lon="2.21278">
        <ele>1977</ele>
        <time>2010-01-01T03:31:23Z</time>
      </trkpt>
      <trkpt lat="42.33463" lon="2.21276">
        <ele>1976</ele>
        <time>2010-01-01T03:31:24Z</time>
      </trkpt>
      <trkpt lat="42.33461" lon="2.21275">
        <ele>1976</ele>
        <time>2010-01-01T03:31:25Z</time>
      </trkpt>
      <trkpt lat="42.33459" lon="2.21273">
        <ele>1976</ele>
        <time>2010-01-01T03:31:26Z</time>
      </trkpt>
      <trkpt lat="42.33458" lon="2.21272">
        <ele>1975</ele>
        <time>2010-01-01T03:31:27Z</time>
      </trkpt>
      <trkpt lat="42.33457" lon="2.21269">
        <ele>1975</ele>
        <time>2010-01-01T03:31:27Z</time>
      </trkpt>
      <trkpt lat="42.33456" lon="2.21272">
        <ele>1975</ele>
        <time>2010-01-01T03:31:28Z</time>
      </trkpt>
      <trkpt lat="42.33454" lon="2.21272">
        <ele>1975</ele>
        <time>2010-01-01T03:31:29Z</time>
      </trkpt>
      <trkpt lat="42.33452" lon="2.21274">
        <ele>1975</ele>
        <time>2010-01-01T03:31:30Z</time>
      </trkpt>
      <trkpt lat="42.33451" lon="2.21276">
        <ele>1975</ele>
        <time>2010-01-01T03:31:31Z</time>
      </trkpt>
      <trkpt lat="42.33449" lon="2.21278">
        <ele>1975</ele>
        <time>2010-01-01T03:31:32Z</time>
      </trkpt>
      <trkpt lat="42.33447" lon="2.21279">
        <ele>1975</ele>
        <time>2010-01-01T03:31:33Z</time>
      </trkpt>
      <trkpt lat="42.33445" lon="2.21279">
        <ele>1975</ele>
        <time>2010-01-01T03:31:34Z</time>
      </trkpt>
      <trkpt lat="42.33443" lon="2.21281">
        <ele>1974</ele>
        <time>2010-01-01T03:31:34Z</time>
      </trkpt>
      <trkpt lat="42.33443" lon="2.21283">
        <ele>1974</ele>
        <time>2010-01-01T03:31:35Z</time>
      </trkpt>
      <trkpt lat="42.33443" lon="2.21287">
        <ele>1975</ele>
        <time>2010-01-01T03:31:36Z</time>
      </trkpt>
      <trkpt lat="42.33443" lon="2.2129">
        <ele>1975</ele>
        <time>2010-01-01T03:31:37Z</time>
      </trkpt>
      <trkpt lat="42.33442" lon="2.21295">
        <ele>1975</ele>
        <time>2010-01-01T03:31:39Z</time>
      </trkpt>
      <trkpt lat="42.33438" lon="2.21297">
        <ele>1974</ele>
        <time>2010-01-01T03:31:40Z</time>
      </trkpt>
      <trkpt lat="42.33436" lon="2.21298">
        <ele>1974</ele>
        <time>2010-01-01T03:31:41Z</time>
      </trkpt>
      <trkpt lat="42.33426" lon="2.21297">
        <ele>1972</ele>
        <time>2010-01-01T03:31:45Z</time>
      </trkpt>
      <trkpt lat="42.33424" lon="2.21296">
        <ele>1972</ele>
        <time>2010-01-01T03:31:46Z</time>
      </trkpt>
      <trkpt lat="42.33422" lon="2.21294">
        <ele>1971</ele>
        <time>2010-01-01T03:31:47Z</time>
      </trkpt>
      <trkpt lat="42.33421" lon="2.21293">
        <ele>1971</ele>
        <time>2010-01-01T03:31:48Z</time>
      </trkpt>
      <trkpt lat="42.33418" lon="2.21291">
        <ele>1970</ele>
        <time>2010-01-01T03:31:49Z</time>
      </trkpt>
      <trkpt lat="42.33416" lon="2.21289">
        <ele>1969</ele>
        <time>2010-01-01T03:31:50Z</time>
      </trkpt>
      <trkpt lat="42.33414" lon="2.21288">
        <ele>1969</ele>
        <time>2010-01-01T03:31:51Z</time>
      </trkpt>
      <trkpt lat="42.33412" lon="2.21285">
        <ele>1968</ele>
        <time>2010-01-01T03:31:52Z</time>
      </trkpt>
      <trkpt lat="42.33411" lon="2.21283">
        <ele>1967</ele>
        <time>2010-01-01T03:31:53Z</time>
      </trkpt>
      <trkpt lat="42.33409" lon="2.21281">
        <ele>1967</ele>
        <time>2010-01-01T03:31:54Z</time>
      </trkpt>
      <trkpt lat="42.33407" lon="2.2128">
        <ele>1966</ele>
        <time>2010-01-01T03:31:55Z</time>
      </trkpt>
      <trkpt lat="42.33405" lon="2.21278">
        <ele>1966</ele>
        <time>2010-01-01T03:31:56Z</time>
      </trkpt>
      <trkpt lat="42.33403" lon="2.21276">
        <ele>1965</ele>
        <time>2010-01-01T03:31:57Z</time>
      </trkpt>
      <trkpt lat="42.33402" lon="2.21272">
        <ele>1964</ele>
        <time>2010-01-01T03:31:58Z</time>
      </trkpt>
      <trkpt lat="42.334" lon="2.2127">
        <ele>1964</ele>
        <time>2010-01-01T03:31:59Z</time>
      </trkpt>
      <trkpt lat="42.33397" lon="2.21268">
        <ele>1963</ele>
        <time>2010-01-01T03:32:00Z</time>
      </trkpt>
      <trkpt lat="42.33396" lon="2.21267">
        <ele>1962</ele>
        <time>2010-01-01T03:32:01Z</time>
      </trkpt>
      <trkpt lat="42.33394" lon="2.21265">
        <ele>1962</ele>
        <time>2010-01-01T03:32:02Z</time>
      </trkpt>
      <trkpt lat="42.33392" lon="2.21262">
        <ele>1961</ele>
        <time>2010-01-01T03:32:03Z</time>
      </trkpt>
      <trkpt lat="42.33391" lon="2.2126">
        <ele>1961</ele>
        <time>2010-01-01T03:32:04Z</time>
      </trkpt>
      <trkpt lat="42.3339" lon="2.21258">
        <ele>1960</ele>
        <time>2010-01-01T03:32:05Z</time>
      </trkpt>
      <trkpt lat="42.33388" lon="2.21253">
        <ele>1959</ele>
        <time>2010-01-01T03:32:06Z</time>
      </trkpt>
      <trkpt lat="42.33386" lon="2.21251">
        <ele>1959</ele>
        <time>2010-01-01T03:32:07Z</time>
      </trkpt>
      <trkpt lat="42.33384" lon="2.21248">
        <ele>1958</ele>
        <time>2010-01-01T03:32:08Z</time>
      </trkpt>
      <trkpt lat="42.33382" lon="2.21246">
        <ele>1957</ele>
        <time>2010-01-01T03:32:09Z</time>
      </trkpt>
      <trkpt lat="42.3338" lon="2.21244">
        <ele>1956</ele>
        <time>2010-01-01T03:32:10Z</time>
      </trkpt>
      <trkpt lat="42.33377" lon="2.21243">
        <ele>1956</ele>
        <time>2010-01-01T03:32:11Z</time>
      </trkpt>
      <trkpt lat="42.33376" lon="2.2124">
        <ele>1955</ele>
        <time>2010-01-01T03:32:12Z</time>
      </trkpt>
      <trkpt lat="42.33374" lon="2.21238">
        <ele>1954</ele>
        <time>2010-01-01T03:32:14Z</time>
      </trkpt>
      <trkpt lat="42.33372" lon="2.21235">
        <ele>1954</ele>
        <time>2010-01-01T03:32:14Z</time>
      </trkpt>
      <trkpt lat="42.33371" lon="2.21232">
        <ele>1953</ele>
        <time>2010-01-01T03:32:15Z</time>
      </trkpt>
      <trkpt lat="42.33369" lon="2.2123">
        <ele>1952</ele>
        <time>2010-01-01T03:32:16Z</time>
      </trkpt>
      <trkpt lat="42.33367" lon="2.21228">
        <ele>1952</ele>
        <time>2010-01-01T03:32:17Z</time>
      </trkpt>
      <trkpt lat="42.33366" lon="2.21224">
        <ele>1951</ele>
        <time>2010-01-01T03:32:19Z</time>
      </trkpt>
      <trkpt lat="42.33364" lon="2.21221">
        <ele>1950</ele>
        <time>2010-01-01T03:32:20Z</time>
      </trkpt>
      <trkpt lat="42.33362" lon="2.21219">
        <ele>1950</ele>
        <time>2010-01-01T03:32:21Z</time>
      </trkpt>
      <trkpt lat="42.33361" lon="2.21216">
        <ele>1949</ele>
        <time>2010-01-01T03:32:22Z</time>
      </trkpt>
      <trkpt lat="42.33361" lon="2.21213">
        <ele>1949</ele>
        <time>2010-01-01T03:32:23Z</time>
      </trkpt>
      <trkpt lat="42.33359" lon="2.2121">
        <ele>1949</ele>
        <time>2010-01-01T03:32:24Z</time>
      </trkpt>
      <trkpt lat="42.33359" lon="2.21206">
        <ele>1948</ele>
        <time>2010-01-01T03:32:25Z</time>
      </trkpt>
      <trkpt lat="42.33358" lon="2.21201">
        <ele>1948</ele>
        <time>2010-01-01T03:32:26Z</time>
      </trkpt>
      <trkpt lat="42.33358" lon="2.21198">
        <ele>1948</ele>
        <time>2010-01-01T03:32:27Z</time>
      </trkpt>
      <trkpt lat="42.33358" lon="2.21195">
        <ele>1948</ele>
        <time>2010-01-01T03:32:28Z</time>
      </trkpt>
      <trkpt lat="42.33356" lon="2.21193">
        <ele>1947</ele>
        <time>2010-01-01T03:32:29Z</time>
      </trkpt>
      <trkpt lat="42.33353" lon="2.21191">
        <ele>1946</ele>
        <time>2010-01-01T03:32:30Z</time>
      </trkpt>
      <trkpt lat="42.33351" lon="2.21188">
        <ele>1946</ele>
        <time>2010-01-01T03:32:31Z</time>
      </trkpt>
      <trkpt lat="42.33349" lon="2.21185">
        <ele>1945</ele>
        <time>2010-01-01T03:32:33Z</time>
      </trkpt>
      <trkpt lat="42.33348" lon="2.21182">
        <ele>1945</ele>
        <time>2010-01-01T03:32:34Z</time>
      </trkpt>
      <trkpt lat="42.33346" lon="2.21181">
        <ele>1944</ele>
        <time>2010-01-01T03:32:35Z</time>
      </trkpt>
      <trkpt lat="42.33345" lon="2.21178">
        <ele>1943</ele>
        <time>2010-01-01T03:32:36Z</time>
      </trkpt>
      <trkpt lat="42.33344" lon="2.21175">
        <ele>1943</ele>
        <time>2010-01-01T03:32:36Z</time>
      </trkpt>
      <trkpt lat="42.33344" lon="2.21172">
        <ele>1943</ele>
        <time>2010-01-01T03:32:37Z</time>
      </trkpt>
      <trkpt lat="42.33342" lon="2.2117">
        <ele>1943</ele>
        <time>2010-01-01T03:32:38Z</time>
      </trkpt>
      <trkpt lat="42.33341" lon="2.21168">
        <ele>1942</ele>
        <time>2010-01-01T03:32:39Z</time>
      </trkpt>
      <trkpt lat="42.33339" lon="2.21166">
        <ele>1941</ele>
        <time>2010-01-01T03:32:40Z</time>
      </trkpt>
      <trkpt lat="42.33337" lon="2.21165">
        <ele>1941</ele>
        <time>2010-01-01T03:32:41Z</time>
      </trkpt>
      <trkpt lat="42.33335" lon="2.21163">
        <ele>1940</ele>
        <time>2010-01-01T03:32:42Z</time>
      </trkpt>
      <trkpt lat="42.33333" lon="2.21162">
        <ele>1939</ele>
        <time>2010-01-01T03:32:43Z</time>
      </trkpt>
      <trkpt lat="42.33331" lon="2.21161">
        <ele>1939</ele>
        <time>2010-01-01T03:32:43Z</time>
      </trkpt>
      <trkpt lat="42.33329" lon="2.21159">
        <ele>1939</ele>
        <time>2010-01-01T03:32:44Z</time>
      </trkpt>
      <trkpt lat="42.33328" lon="2.21156">
        <ele>1938</ele>
        <time>2010-01-01T03:32:46Z</time>
      </trkpt>
      <trkpt lat="42.33326" lon="2.21154">
        <ele>1938</ele>
        <time>2010-01-01T03:32:47Z</time>
      </trkpt>
      <trkpt lat="42.33324" lon="2.21152">
        <ele>1937</ele>
        <time>2010-01-01T03:32:48Z</time>
      </trkpt>
      <trkpt lat="42.33322" lon="2.2115">
        <ele>1937</ele>
        <time>2010-01-01T03:32:48Z</time>
      </trkpt>
      <trkpt lat="42.33319" lon="2.21149">
        <ele>1936</ele>
        <time>2010-01-01T03:32:50Z</time>
      </trkpt>
      <trkpt lat="42.33316" lon="2.21148">
        <ele>1935</ele>
        <time>2010-01-01T03:32:51Z</time>
      </trkpt>
      <trkpt lat="42.33314" lon="2.21147">
        <ele>1935</ele>
        <time>2010-01-01T03:32:52Z</time>
      </trkpt>
      <trkpt lat="42.33311" lon="2.21145">
        <ele>1934</ele>
        <time>2010-01-01T03:32:53Z</time>
      </trkpt>
      <trkpt lat="42.3331" lon="2.21143">
        <ele>1934</ele>
        <time>2010-01-01T03:32:54Z</time>
      </trkpt>
      <trkpt lat="42.33308" lon="2.21141">
        <ele>1933</ele>
        <time>2010-01-01T03:32:55Z</time>
      </trkpt>
      <trkpt lat="42.33307" lon="2.21139">
        <ele>1933</ele>
        <time>2010-01-01T03:32:55Z</time>
      </trkpt>
      <trkpt lat="42.33306" lon="2.21137">
        <ele>1933</ele>
        <time>2010-01-01T03:32:56Z</time>
      </trkpt>
      <trkpt lat="42.33303" lon="2.21135">
        <ele>1932</ele>
        <time>2010-01-01T03:32:58Z</time>
      </trkpt>
      <trkpt lat="42.33301" lon="2.21133">
        <ele>1932</ele>
        <time>2010-01-01T03:32:59Z</time>
      </trkpt>
      <trkpt lat="42.33299" lon="2.21132">
        <ele>1931</ele>
        <time>2010-01-01T03:33:00Z</time>
      </trkpt>
      <trkpt lat="42.33296" lon="2.2113">
        <ele>1931</ele>
        <time>2010-01-01T03:33:01Z</time>
      </trkpt>
      <trkpt lat="42.33294" lon="2.21127">
        <ele>1931</ele>
        <time>2010-01-01T03:33:02Z</time>
      </trkpt>
      <trkpt lat="42.33292" lon="2.21125">
        <ele>1930</ele>
        <time>2010-01-01T03:33:03Z</time>
      </trkpt>
      <trkpt lat="42.3329" lon="2.21123">
        <ele>1930</ele>
        <time>2010-01-01T03:33:04Z</time>
      </trkpt>
      <trkpt lat="42.33288" lon="2.21121">
        <ele>1930</ele>
        <time>2010-01-01T03:33:05Z</time>
      </trkpt>
      <trkpt lat="42.33286" lon="2.21119">
        <ele>1929</ele>
        <time>2010-01-01T03:33:06Z</time>
      </trkpt>
      <trkpt lat="42.33283" lon="2.21117">
        <ele>1929</ele>
        <time>2010-01-01T03:33:07Z</time>
      </trkpt>
      <trkpt lat="42.33281" lon="2.21117">
        <ele>1928</ele>
        <time>2010-01-01T03:33:08Z</time>
      </trkpt>
      <trkpt lat="42.33279" lon="2.21116">
        <ele>1928</ele>
        <time>2010-01-01T03:33:09Z</time>
      </trkpt>
      <trkpt lat="42.33276" lon="2.21115">
        <ele>1928</ele>
        <time>2010-01-01T03:33:10Z</time>
      </trkpt>
      <trkpt lat="42.33274" lon="2.21115">
        <ele>1927</ele>
        <time>2010-01-01T03:33:11Z</time>
      </trkpt>
      <trkpt lat="42.33272" lon="2.21114">
        <ele>1927</ele>
        <time>2010-01-01T03:33:12Z</time>
      </trkpt>
      <trkpt lat="42.33269" lon="2.21114">
        <ele>1927</ele>
        <time>2010-01-01T03:33:13Z</time>
      </trkpt>
      <trkpt lat="42.33266" lon="2.21114">
        <ele>1927</ele>
        <time>2010-01-01T03:33:14Z</time>
      </trkpt>
      <trkpt lat="42.33263" lon="2.21114">
        <ele>1926</ele>
        <time>2010-01-01T03:33:15Z</time>
      </trkpt>
      <trkpt lat="42.33258" lon="2.21113">
        <ele>1926</ele>
        <time>2010-01-01T03:33:17Z</time>
      </trkpt>
      <trkpt lat="42.33255" lon="2.21113">
        <ele>1926</ele>
        <time>2010-01-01T03:33:18Z</time>
      </trkpt>
      <trkpt lat="42.33253" lon="2.21112">
        <ele>1926</ele>
        <time>2010-01-01T03:33:19Z</time>
      </trkpt>
      <trkpt lat="42.33255" lon="2.21116">
        <ele>1926</ele>
        <time>2010-01-01T03:33:20Z</time>
      </trkpt>
      <trkpt lat="42.33255" lon="2.21119">
        <ele>1926</ele>
        <time>2010-01-01T03:33:21Z</time>
      </trkpt>
      <trkpt lat="42.33256" lon="2.21122">
        <ele>1926</ele>
        <time>2010-01-01T03:33:22Z</time>
      </trkpt>
      <trkpt lat="42.33256" lon="2.21126">
        <ele>1926</ele>
        <time>2010-01-01T03:33:23Z</time>
      </trkpt>
      <trkpt lat="42.33255" lon="2.21128">
        <ele>1926</ele>
        <time>2010-01-01T03:33:24Z</time>
      </trkpt>
      <trkpt lat="42.33255" lon="2.21132">
        <ele>1926</ele>
        <time>2010-01-01T03:33:25Z</time>
      </trkpt>
      <trkpt lat="42.33254" lon="2.21136">
        <ele>1926</ele>
        <time>2010-01-01T03:33:27Z</time>
      </trkpt>
      <trkpt lat="42.33253" lon="2.21139">
        <ele>1926</ele>
        <time>2010-01-01T03:33:28Z</time>
      </trkpt>
      <trkpt lat="42.33251" lon="2.21142">
        <ele>1926</ele>
        <time>2010-01-01T03:33:29Z</time>
      </trkpt>
      <trkpt lat="42.3325" lon="2.21146">
        <ele>1925</ele>
        <time>2010-01-01T03:33:30Z</time>
      </trkpt>
      <trkpt lat="42.33251" lon="2.2115">
        <ele>1925</ele>
        <time>2010-01-01T03:33:31Z</time>
      </trkpt>
      <trkpt lat="42.33252" lon="2.21153">
        <ele>1925</ele>
        <time>2010-01-01T03:33:32Z</time>
      </trkpt>
      <trkpt lat="42.33253" lon="2.21156">
        <ele>1925</ele>
        <time>2010-01-01T03:33:33Z</time>
      </trkpt>
      <trkpt lat="42.33253" lon="2.2116">
        <ele>1925</ele>
        <time>2010-01-01T03:33:34Z</time>
      </trkpt>
      <trkpt lat="42.33253" lon="2.21165">
        <ele>1925</ele>
        <time>2010-01-01T03:33:36Z</time>
      </trkpt>
      <trkpt lat="42.33252" lon="2.21169">
        <ele>1925</ele>
        <time>2010-01-01T03:33:37Z</time>
      </trkpt>
      <trkpt lat="42.33251" lon="2.21173">
        <ele>1924</ele>
        <time>2010-01-01T03:33:38Z</time>
      </trkpt>
      <trkpt lat="42.3325" lon="2.21176">
        <ele>1924</ele>
        <time>2010-01-01T03:33:39Z</time>
      </trkpt>
      <trkpt lat="42.33249" lon="2.2118">
        <ele>1923</ele>
        <time>2010-01-01T03:33:40Z</time>
      </trkpt>
      <trkpt lat="42.33247" lon="2.21184">
        <ele>1923</ele>
        <time>2010-01-01T03:33:42Z</time>
      </trkpt>
      <trkpt lat="42.33246" lon="2.21187">
        <ele>1922</ele>
        <time>2010-01-01T03:33:43Z</time>
      </trkpt>
      <trkpt lat="42.33246" lon="2.21191">
        <ele>1922</ele>
        <time>2010-01-01T03:33:44Z</time>
      </trkpt>
      <trkpt lat="42.33245" lon="2.21195">
        <ele>1922</ele>
        <time>2010-01-01T03:33:45Z</time>
      </trkpt>
      <trkpt lat="42.33244" lon="2.21198">
        <ele>1921</ele>
        <time>2010-01-01T03:33:46Z</time>
      </trkpt>
      <trkpt lat="42.33243" lon="2.21201">
        <ele>1921</ele>
        <time>2010-01-01T03:33:47Z</time>
      </trkpt>
      <trkpt lat="42.33243" lon="2.21205">
        <ele>1921</ele>
        <time>2010-01-01T03:33:48Z</time>
      </trkpt>
      <trkpt lat="42.33243" lon="2.21208">
        <ele>1921</ele>
        <time>2010-01-01T03:33:49Z</time>
      </trkpt>
      <trkpt lat="42.33242" lon="2.21211">
        <ele>1921</ele>
        <time>2010-01-01T03:33:50Z</time>
      </trkpt>
      <trkpt lat="42.3324" lon="2.21214">
        <ele>1920</ele>
        <time>2010-01-01T03:33:51Z</time>
      </trkpt>
      <trkpt lat="42.33238" lon="2.21217">
        <ele>1920</ele>
        <time>2010-01-01T03:33:52Z</time>
      </trkpt>
      <trkpt lat="42.33236" lon="2.21219">
        <ele>1920</ele>
        <time>2010-01-01T03:33:53Z</time>
      </trkpt>
      <trkpt lat="42.33235" lon="2.21221">
        <ele>1919</ele>
        <time>2010-01-01T03:33:54Z</time>
      </trkpt>
      <trkpt lat="42.33232" lon="2.21223">
        <ele>1919</ele>
        <time>2010-01-01T03:33:55Z</time>
      </trkpt>
      <trkpt lat="42.3323" lon="2.21225">
        <ele>1918</ele>
        <time>2010-01-01T03:33:57Z</time>
      </trkpt>
      <trkpt lat="42.33227" lon="2.21226">
        <ele>1917</ele>
        <time>2010-01-01T03:33:58Z</time>
      </trkpt>
      <trkpt lat="42.33225" lon="2.21229">
        <ele>1917</ele>
        <time>2010-01-01T03:33:59Z</time>
      </trkpt>
      <trkpt lat="42.33224" lon="2.21231">
        <ele>1917</ele>
        <time>2010-01-01T03:34:00Z</time>
      </trkpt>
      <trkpt lat="42.33222" lon="2.21234">
        <ele>1916</ele>
        <time>2010-01-01T03:34:01Z</time>
      </trkpt>
      <trkpt lat="42.33219" lon="2.21237">
        <ele>1916</ele>
        <time>2010-01-01T03:34:02Z</time>
      </trkpt>
      <trkpt lat="42.33217" lon="2.21239">
        <ele>1915</ele>
        <time>2010-01-01T03:34:03Z</time>
      </trkpt>
      <trkpt lat="42.33215" lon="2.21241">
        <ele>1915</ele>
        <time>2010-01-01T03:34:04Z</time>
      </trkpt>
      <trkpt lat="42.33212" lon="2.21243">
        <ele>1915</ele>
        <time>2010-01-01T03:34:06Z</time>
      </trkpt>
      <trkpt lat="42.3321" lon="2.21245">
        <ele>1914</ele>
        <time>2010-01-01T03:34:07Z</time>
      </trkpt>
      <trkpt lat="42.33208" lon="2.21247">
        <ele>1914</ele>
        <time>2010-01-01T03:34:07Z</time>
      </trkpt>
      <trkpt lat="42.33206" lon="2.21248">
        <ele>1914</ele>
        <time>2010-01-01T03:34:08Z</time>
      </trkpt>
      <trkpt lat="42.33203" lon="2.2125">
        <ele>1913</ele>
        <time>2010-01-01T03:34:10Z</time>
      </trkpt>
      <trkpt lat="42.33201" lon="2.21252">
        <ele>1913</ele>
        <time>2010-01-01T03:34:11Z</time>
      </trkpt>
      <trkpt lat="42.33199" lon="2.21254">
        <ele>1912</ele>
        <time>2010-01-01T03:34:12Z</time>
      </trkpt>
      <trkpt lat="42.33196" lon="2.21256">
        <ele>1912</ele>
        <time>2010-01-01T03:34:13Z</time>
      </trkpt>
      <trkpt lat="42.33194" lon="2.21257">
        <ele>1911</ele>
        <time>2010-01-01T03:34:14Z</time>
      </trkpt>
      <trkpt lat="42.33191" lon="2.21259">
        <ele>1911</ele>
        <time>2010-01-01T03:34:15Z</time>
      </trkpt>
      <trkpt lat="42.33188" lon="2.21262">
        <ele>1910</ele>
        <time>2010-01-01T03:34:17Z</time>
      </trkpt>
      <trkpt lat="42.33186" lon="2.21264">
        <ele>1909</ele>
        <time>2010-01-01T03:34:18Z</time>
      </trkpt>
      <trkpt lat="42.33184" lon="2.21265">
        <ele>1909</ele>
        <time>2010-01-01T03:34:19Z</time>
      </trkpt>
      <trkpt lat="42.33182" lon="2.21269">
        <ele>1908</ele>
        <time>2010-01-01T03:34:20Z</time>
      </trkpt>
      <trkpt lat="42.3318" lon="2.21272">
        <ele>1907</ele>
        <time>2010-01-01T03:34:21Z</time>
      </trkpt>
      <trkpt lat="42.33178" lon="2.21276">
        <ele>1906</ele>
        <time>2010-01-01T03:34:23Z</time>
      </trkpt>
      <trkpt lat="42.33176" lon="2.21279">
        <ele>1906</ele>
        <time>2010-01-01T03:34:24Z</time>
      </trkpt>
      <trkpt lat="42.33174" lon="2.21282">
        <ele>1905</ele>
        <time>2010-01-01T03:34:25Z</time>
      </trkpt>
      <trkpt lat="42.33172" lon="2.21285">
        <ele>1904</ele>
        <time>2010-01-01T03:34:26Z</time>
      </trkpt>
      <trkpt lat="42.33169" lon="2.21287">
        <ele>1903</ele>
        <time>2010-01-01T03:34:28Z</time>
      </trkpt>
      <trkpt lat="42.33167" lon="2.2129">
        <ele>1902</ele>
        <time>2010-01-01T03:34:29Z</time>
      </trkpt>
      <trkpt lat="42.33164" lon="2.21292">
        <ele>1901</ele>
        <time>2010-01-01T03:34:30Z</time>
      </trkpt>
      <trkpt lat="42.33162" lon="2.21295">
        <ele>1900</ele>
        <time>2010-01-01T03:34:31Z</time>
      </trkpt>
      <trkpt lat="42.33159" lon="2.21297">
        <ele>1899</ele>
        <time>2010-01-01T03:34:32Z</time>
      </trkpt>
      <trkpt lat="42.33158" lon="2.21298">
        <ele>1899</ele>
        <time>2010-01-01T03:34:33Z</time>
      </trkpt>
      <trkpt lat="42.33156" lon="2.21301">
        <ele>1898</ele>
        <time>2010-01-01T03:34:34Z</time>
      </trkpt>
      <trkpt lat="42.33153" lon="2.21303">
        <ele>1897</ele>
        <time>2010-01-01T03:34:35Z</time>
      </trkpt>
      <trkpt lat="42.33151" lon="2.21305">
        <ele>1896</ele>
        <time>2010-01-01T03:34:37Z</time>
      </trkpt>
      <trkpt lat="42.33149" lon="2.21307">
        <ele>1895</ele>
        <time>2010-01-01T03:34:38Z</time>
      </trkpt>
      <trkpt lat="42.33147" lon="2.2131">
        <ele>1894</ele>
        <time>2010-01-01T03:34:39Z</time>
      </trkpt>
      <trkpt lat="42.33144" lon="2.21311">
        <ele>1894</ele>
        <time>2010-01-01T03:34:40Z</time>
      </trkpt>
      <trkpt lat="42.3314" lon="2.21312">
        <ele>1893</ele>
        <time>2010-01-01T03:34:41Z</time>
      </trkpt>
      <trkpt lat="42.33138" lon="2.21314">
        <ele>1892</ele>
        <time>2010-01-01T03:34:42Z</time>
      </trkpt>
      <trkpt lat="42.33136" lon="2.21315">
        <ele>1891</ele>
        <time>2010-01-01T03:34:43Z</time>
      </trkpt>
      <trkpt lat="42.33134" lon="2.21316">
        <ele>1890</ele>
        <time>2010-01-01T03:34:44Z</time>
      </trkpt>
      <trkpt lat="42.33131" lon="2.21319">
        <ele>1889</ele>
        <time>2010-01-01T03:34:46Z</time>
      </trkpt>
      <trkpt lat="42.33129" lon="2.21321">
        <ele>1888</ele>
        <time>2010-01-01T03:34:47Z</time>
      </trkpt>
      <trkpt lat="42.33127" lon="2.21323">
        <ele>1888</ele>
        <time>2010-01-01T03:34:48Z</time>
      </trkpt>
      <trkpt lat="42.33125" lon="2.21324">
        <ele>1887</ele>
        <time>2010-01-01T03:34:49Z</time>
      </trkpt>
      <trkpt lat="42.33122" lon="2.21327">
        <ele>1886</ele>
        <time>2010-01-01T03:34:50Z</time>
      </trkpt>
      <trkpt lat="42.3312" lon="2.21328">
        <ele>1885</ele>
        <time>2010-01-01T03:34:51Z</time>
      </trkpt>
      <trkpt lat="42.33117" lon="2.2133">
        <ele>1884</ele>
        <time>2010-01-01T03:34:52Z</time>
      </trkpt>
      <trkpt lat="42.33114" lon="2.21331">
        <ele>1883</ele>
        <time>2010-01-01T03:34:53Z</time>
      </trkpt>
      <trkpt lat="42.33111" lon="2.21332">
        <ele>1882</ele>
        <time>2010-01-01T03:34:55Z</time>
      </trkpt>
      <trkpt lat="42.33108" lon="2.21333">
        <ele>1881</ele>
        <time>2010-01-01T03:34:56Z</time>
      </trkpt>
      <trkpt lat="42.33105" lon="2.21334">
        <ele>1880</ele>
        <time>2010-01-01T03:34:57Z</time>
      </trkpt>
      <trkpt lat="42.33104" lon="2.21334">
        <ele>1879</ele>
        <time>2010-01-01T03:34:58Z</time>
      </trkpt>
      <trkpt lat="42.33102" lon="2.21334">
        <ele>1879</ele>
        <time>2010-01-01T03:34:59Z</time>
      </trkpt>
      <trkpt lat="42.33098" lon="2.21336">
        <ele>1878</ele>
        <time>2010-01-01T03:35:00Z</time>
      </trkpt>
      <trkpt lat="42.33096" lon="2.21337">
        <ele>1877</ele>
        <time>2010-01-01T03:35:01Z</time>
      </trkpt>
      <trkpt lat="42.33093" lon="2.21339">
        <ele>1875</ele>
        <time>2010-01-01T03:35:02Z</time>
      </trkpt>
      <trkpt lat="42.3309" lon="2.2134">
        <ele>1874</ele>
        <time>2010-01-01T03:35:03Z</time>
      </trkpt>
      <trkpt lat="42.33087" lon="2.2134">
        <ele>1873</ele>
        <time>2010-01-01T03:35:05Z</time>
      </trkpt>
      <trkpt lat="42.33084" lon="2.21341">
        <ele>1873</ele>
        <time>2010-01-01T03:35:06Z</time>
      </trkpt>
      <trkpt lat="42.33082" lon="2.21342">
        <ele>1872</ele>
        <time>2010-01-01T03:35:07Z</time>
      </trkpt>
      <trkpt lat="42.3308" lon="2.21344">
        <ele>1871</ele>
        <time>2010-01-01T03:35:08Z</time>
      </trkpt>
      <trkpt lat="42.33077" lon="2.21346">
        <ele>1870</ele>
        <time>2010-01-01T03:35:09Z</time>
      </trkpt>
      <trkpt lat="42.33075" lon="2.21347">
        <ele>1869</ele>
        <time>2010-01-01T03:35:10Z</time>
      </trkpt>
      <trkpt lat="42.33072" lon="2.21348">
        <ele>1868</ele>
        <time>2010-01-01T03:35:11Z</time>
      </trkpt>
      <trkpt lat="42.3307" lon="2.21347">
        <ele>1868</ele>
        <time>2010-01-01T03:35:12Z</time>
      </trkpt>
      <trkpt lat="42.33067" lon="2.21346">
        <ele>1867</ele>
        <time>2010-01-01T03:35:13Z</time>
      </trkpt>
      <trkpt lat="42.33065" lon="2.21345">
        <ele>1867</ele>
        <time>2010-01-01T03:35:14Z</time>
      </trkpt>
      <trkpt lat="42.33062" lon="2.21344">
        <ele>1867</ele>
        <time>2010-01-01T03:35:15Z</time>
      </trkpt>
      <trkpt lat="42.33059" lon="2.21343">
        <ele>1867</ele>
        <time>2010-01-01T03:35:17Z</time>
      </trkpt>
      <trkpt lat="42.33055" lon="2.21344">
        <ele>1865</ele>
        <time>2010-01-01T03:35:18Z</time>
      </trkpt>
      <trkpt lat="42.33052" lon="2.21344">
        <ele>1865</ele>
        <time>2010-01-01T03:35:19Z</time>
      </trkpt>
      <trkpt lat="42.33049" lon="2.21344">
        <ele>1864</ele>
        <time>2010-01-01T03:35:21Z</time>
      </trkpt>
      <trkpt lat="42.33046" lon="2.21343">
        <ele>1863</ele>
        <time>2010-01-01T03:35:22Z</time>
      </trkpt>
      <trkpt lat="42.33043" lon="2.21343">
        <ele>1863</ele>
        <time>2010-01-01T03:35:23Z</time>
      </trkpt>
      <trkpt lat="42.33041" lon="2.21342">
        <ele>1862</ele>
        <time>2010-01-01T03:35:24Z</time>
      </trkpt>
      <trkpt lat="42.33039" lon="2.21342">
        <ele>1862</ele>
        <time>2010-01-01T03:35:25Z</time>
      </trkpt>
      <trkpt lat="42.33037" lon="2.21341">
        <ele>1862</ele>
        <time>2010-01-01T03:35:25Z</time>
      </trkpt>
      <trkpt lat="42.33035" lon="2.21342">
        <ele>1861</ele>
        <time>2010-01-01T03:35:26Z</time>
      </trkpt>
      <trkpt lat="42.33032" lon="2.21341">
        <ele>1861</ele>
        <time>2010-01-01T03:35:28Z</time>
      </trkpt>
      <trkpt lat="42.3303" lon="2.21341">
        <ele>1860</ele>
        <time>2010-01-01T03:35:28Z</time>
      </trkpt>
      <trkpt lat="42.33028" lon="2.2134">
        <ele>1860</ele>
        <time>2010-01-01T03:35:29Z</time>
      </trkpt>
      <trkpt lat="42.33026" lon="2.2134">
        <ele>1859</ele>
        <time>2010-01-01T03:35:30Z</time>
      </trkpt>
      <trkpt lat="42.33023" lon="2.2134">
        <ele>1859</ele>
        <time>2010-01-01T03:35:31Z</time>
      </trkpt>
      <trkpt lat="42.3302" lon="2.2134">
        <ele>1858</ele>
        <time>2010-01-01T03:35:32Z</time>
      </trkpt>
      <trkpt lat="42.33018" lon="2.2134">
        <ele>1857</ele>
        <time>2010-01-01T03:35:33Z</time>
      </trkpt>
      <trkpt lat="42.33016" lon="2.21338">
        <ele>1857</ele>
        <time>2010-01-01T03:35:34Z</time>
      </trkpt>
      <trkpt lat="42.33013" lon="2.21337">
        <ele>1857</ele>
        <time>2010-01-01T03:35:35Z</time>
      </trkpt>
      <trkpt lat="42.33011" lon="2.21336">
        <ele>1857</ele>
        <time>2010-01-01T03:35:36Z</time>
      </trkpt>
      <trkpt lat="42.33008" lon="2.21335">
        <ele>1856</ele>
        <time>2010-01-01T03:35:37Z</time>
      </trkpt>
      <trkpt lat="42.33005" lon="2.21334">
        <ele>1856</ele>
        <time>2010-01-01T03:35:39Z</time>
      </trkpt>
      <trkpt lat="42.33003" lon="2.21333">
        <ele>1855</ele>
        <time>2010-01-01T03:35:39Z</time>
      </trkpt>
      <trkpt lat="42.33001" lon="2.21332">
        <ele>1855</ele>
        <time>2010-01-01T03:35:40Z</time>
      </trkpt>
      <trkpt lat="42.32999" lon="2.21331">
        <ele>1855</ele>
        <time>2010-01-01T03:35:41Z</time>
      </trkpt>
      <trkpt lat="42.32996" lon="2.2133">
        <ele>1854</ele>
        <time>2010-01-01T03:35:42Z</time>
      </trkpt>
      <trkpt lat="42.32994" lon="2.21329">
        <ele>1853</ele>
        <time>2010-01-01T03:35:43Z</time>
      </trkpt>
      <trkpt lat="42.3299" lon="2.21329">
        <ele>1852</ele>
        <time>2010-01-01T03:35:45Z</time>
      </trkpt>
      <trkpt lat="42.32987" lon="2.21331">
        <ele>1851</ele>
        <time>2010-01-01T03:35:46Z</time>
      </trkpt>
      <trkpt lat="42.32984" lon="2.21332">
        <ele>1850</ele>
        <time>2010-01-01T03:35:47Z</time>
      </trkpt>
      <trkpt lat="42.32979" lon="2.21331">
        <ele>1848</ele>
        <time>2010-01-01T03:35:49Z</time>
      </trkpt>
      <trkpt lat="42.32973" lon="2.21331">
        <ele>1846</ele>
        <time>2010-01-01T03:35:52Z</time>
      </trkpt>
      <trkpt lat="42.32971" lon="2.21332">
        <ele>1845</ele>
        <time>2010-01-01T03:35:53Z</time>
      </trkpt>
      <trkpt lat="42.32968" lon="2.21332">
        <ele>1845</ele>
        <time>2010-01-01T03:35:54Z</time>
      </trkpt>
      <trkpt lat="42.32965" lon="2.21332">
        <ele>1844</ele>
        <time>2010-01-01T03:35:55Z</time>
      </trkpt>
      <trkpt lat="42.32962" lon="2.2133">
        <ele>1844</ele>
        <time>2010-01-01T03:35:56Z</time>
      </trkpt>
      <trkpt lat="42.32959" lon="2.2133">
        <ele>1843</ele>
        <time>2010-01-01T03:35:58Z</time>
      </trkpt>
      <trkpt lat="42.32955" lon="2.2133">
        <ele>1842</ele>
        <time>2010-01-01T03:35:59Z</time>
      </trkpt>
      <trkpt lat="42.32953" lon="2.2133">
        <ele>1842</ele>
        <time>2010-01-01T03:36:00Z</time>
      </trkpt>
      <trkpt lat="42.3295" lon="2.21329">
        <ele>1841</ele>
        <time>2010-01-01T03:36:01Z</time>
      </trkpt>
      <trkpt lat="42.32947" lon="2.21327">
        <ele>1841</ele>
        <time>2010-01-01T03:36:03Z</time>
      </trkpt>
      <trkpt lat="42.32944" lon="2.21325">
        <ele>1840</ele>
        <time>2010-01-01T03:36:04Z</time>
      </trkpt>
      <trkpt lat="42.32941" lon="2.21325">
        <ele>1840</ele>
        <time>2010-01-01T03:36:05Z</time>
      </trkpt>
      <trkpt lat="42.32939" lon="2.21324">
        <ele>1839</ele>
        <time>2010-01-01T03:36:06Z</time>
      </trkpt>
      <trkpt lat="42.32938" lon="2.21322">
        <ele>1839</ele>
        <time>2010-01-01T03:36:07Z</time>
      </trkpt>
      <trkpt lat="42.32935" lon="2.2132">
        <ele>1838</ele>
        <time>2010-01-01T03:36:08Z</time>
      </trkpt>
      <trkpt lat="42.32932" lon="2.21319">
        <ele>1838</ele>
        <time>2010-01-01T03:36:09Z</time>
      </trkpt>
      <trkpt lat="42.3293" lon="2.21318">
        <ele>1838</ele>
        <time>2010-01-01T03:36:10Z</time>
      </trkpt>
      <trkpt lat="42.32928" lon="2.21317">
        <ele>1837</ele>
        <time>2010-01-01T03:36:11Z</time>
      </trkpt>
      <trkpt lat="42.32925" lon="2.21317">
        <ele>1836</ele>
        <time>2010-01-01T03:36:12Z</time>
      </trkpt>
      <trkpt lat="42.32923" lon="2.21316">
        <ele>1836</ele>
        <time>2010-01-01T03:36:13Z</time>
      </trkpt>
      <trkpt lat="42.32921" lon="2.21318">
        <ele>1835</ele>
        <time>2010-01-01T03:36:14Z</time>
      </trkpt>
      <trkpt lat="42.32918" lon="2.21317">
        <ele>1835</ele>
        <time>2010-01-01T03:36:15Z</time>
      </trkpt>
      <trkpt lat="42.32916" lon="2.21316">
        <ele>1834</ele>
        <time>2010-01-01T03:36:16Z</time>
      </trkpt>
      <trkpt lat="42.32914" lon="2.21316">
        <ele>1834</ele>
        <time>2010-01-01T03:36:17Z</time>
      </trkpt>
      <trkpt lat="42.3291" lon="2.21315">
        <ele>1833</ele>
        <time>2010-01-01T03:36:18Z</time>
      </trkpt>
      <trkpt lat="42.32908" lon="2.21315">
        <ele>1832</ele>
        <time>2010-01-01T03:36:19Z</time>
      </trkpt>
      <trkpt lat="42.32907" lon="2.21314">
        <ele>1832</ele>
        <time>2010-01-01T03:36:20Z</time>
      </trkpt>
      <trkpt lat="42.32905" lon="2.21313">
        <ele>1832</ele>
        <time>2010-01-01T03:36:21Z</time>
      </trkpt>
      <trkpt lat="42.32903" lon="2.21312">
        <ele>1831</ele>
        <time>2010-01-01T03:36:21Z</time>
      </trkpt>
      <trkpt lat="42.32901" lon="2.21312">
        <ele>1831</ele>
        <time>2010-01-01T03:36:22Z</time>
      </trkpt>
      <trkpt lat="42.32899" lon="2.21312">
        <ele>1830</ele>
        <time>2010-01-01T03:36:23Z</time>
      </trkpt>
      <trkpt lat="42.32896" lon="2.21313">
        <ele>1829</ele>
        <time>2010-01-01T03:36:24Z</time>
      </trkpt>
      <trkpt lat="42.32893" lon="2.21313">
        <ele>1829</ele>
        <time>2010-01-01T03:36:25Z</time>
      </trkpt>
      <trkpt lat="42.3289" lon="2.21313">
        <ele>1828</ele>
        <time>2010-01-01T03:36:27Z</time>
      </trkpt>
      <trkpt lat="42.32887" lon="2.21314">
        <ele>1827</ele>
        <time>2010-01-01T03:36:28Z</time>
      </trkpt>
      <trkpt lat="42.32885" lon="2.21316">
        <ele>1826</ele>
        <time>2010-01-01T03:36:29Z</time>
      </trkpt>
      <trkpt lat="42.32883" lon="2.21318">
        <ele>1825</ele>
        <time>2010-01-01T03:36:30Z</time>
      </trkpt>
      <trkpt lat="42.32882" lon="2.21321">
        <ele>1825</ele>
        <time>2010-01-01T03:36:31Z</time>
      </trkpt>
      <trkpt lat="42.32881" lon="2.21323">
        <ele>1824</ele>
        <time>2010-01-01T03:36:31Z</time>
      </trkpt>
      <trkpt lat="42.32881" lon="2.21325">
        <ele>1824</ele>
        <time>2010-01-01T03:36:32Z</time>
      </trkpt>
      <trkpt lat="42.32879" lon="2.21327">
        <ele>1823</ele>
        <time>2010-01-01T03:36:33Z</time>
      </trkpt>
      <trkpt lat="42.32878" lon="2.2133">
        <ele>1823</ele>
        <time>2010-01-01T03:36:34Z</time>
      </trkpt>
      <trkpt lat="42.32876" lon="2.21331">
        <ele>1822</ele>
        <time>2010-01-01T03:36:35Z</time>
      </trkpt>
      <trkpt lat="42.32874" lon="2.21332">
        <ele>1822</ele>
        <time>2010-01-01T03:36:36Z</time>
      </trkpt>
      <trkpt lat="42.32872" lon="2.21334">
        <ele>1821</ele>
        <time>2010-01-01T03:36:37Z</time>
      </trkpt>
      <trkpt lat="42.32871" lon="2.21336">
        <ele>1821</ele>
        <time>2010-01-01T03:36:37Z</time>
      </trkpt>
      <trkpt lat="42.32869" lon="2.21339">
        <ele>1820</ele>
        <time>2010-01-01T03:36:39Z</time>
      </trkpt>
      <trkpt lat="42.32867" lon="2.21342">
        <ele>1820</ele>
        <time>2010-01-01T03:36:40Z</time>
      </trkpt>
      <trkpt lat="42.32866" lon="2.21344">
        <ele>1819</ele>
        <time>2010-01-01T03:36:40Z</time>
      </trkpt>
      <trkpt lat="42.32864" lon="2.21346">
        <ele>1819</ele>
        <time>2010-01-01T03:36:41Z</time>
      </trkpt>
      <trkpt lat="42.32863" lon="2.21348">
        <ele>1818</ele>
        <time>2010-01-01T03:36:42Z</time>
      </trkpt>
      <trkpt lat="42.3286" lon="2.21351">
        <ele>1817</ele>
        <time>2010-01-01T03:36:44Z</time>
      </trkpt>
      <trkpt lat="42.32858" lon="2.21353">
        <ele>1817</ele>
        <time>2010-01-01T03:36:45Z</time>
      </trkpt>
      <trkpt lat="42.32856" lon="2.21355">
        <ele>1816</ele>
        <time>2010-01-01T03:36:46Z</time>
      </trkpt>
      <trkpt lat="42.32855" lon="2.21357">
        <ele>1815</ele>
        <time>2010-01-01T03:36:47Z</time>
      </trkpt>
      <trkpt lat="42.32853" lon="2.2136">
        <ele>1815</ele>
        <time>2010-01-01T03:36:48Z</time>
      </trkpt>
      <trkpt lat="42.32851" lon="2.21362">
        <ele>1814</ele>
        <time>2010-01-01T03:36:49Z</time>
      </trkpt>
      <trkpt lat="42.32849" lon="2.21364">
        <ele>1813</ele>
        <time>2010-01-01T03:36:50Z</time>
      </trkpt>
      <trkpt lat="42.32847" lon="2.21366">
        <ele>1812</ele>
        <time>2010-01-01T03:36:51Z</time>
      </trkpt>
      <trkpt lat="42.32844" lon="2.21366">
        <ele>1812</ele>
        <time>2010-01-01T03:36:52Z</time>
      </trkpt>
      <trkpt lat="42.32842" lon="2.21367">
        <ele>1811</ele>
        <time>2010-01-01T03:36:53Z</time>
      </trkpt>
      <trkpt lat="42.32839" lon="2.21369">
        <ele>1810</ele>
        <time>2010-01-01T03:36:54Z</time>
      </trkpt>
      <trkpt lat="42.32837" lon="2.21371">
        <ele>1809</ele>
        <time>2010-01-01T03:36:55Z</time>
      </trkpt>
      <trkpt lat="42.32835" lon="2.21373">
        <ele>1809</ele>
        <time>2010-01-01T03:36:56Z</time>
      </trkpt>
      <trkpt lat="42.32833" lon="2.21374">
        <ele>1808</ele>
        <time>2010-01-01T03:36:57Z</time>
      </trkpt>
      <trkpt lat="42.32831" lon="2.21376">
        <ele>1807</ele>
        <time>2010-01-01T03:36:58Z</time>
      </trkpt>
      <trkpt lat="42.32829" lon="2.21378">
        <ele>1807</ele>
        <time>2010-01-01T03:36:59Z</time>
      </trkpt>
      <trkpt lat="42.32827" lon="2.21378">
        <ele>1806</ele>
        <time>2010-01-01T03:37:00Z</time>
      </trkpt>
      <trkpt lat="42.32824" lon="2.21378">
        <ele>1805</ele>
        <time>2010-01-01T03:37:01Z</time>
      </trkpt>
      <trkpt lat="42.32821" lon="2.21378">
        <ele>1804</ele>
        <time>2010-01-01T03:37:02Z</time>
      </trkpt>
      <trkpt lat="42.32818" lon="2.21377">
        <ele>1804</ele>
        <time>2010-01-01T03:37:03Z</time>
      </trkpt>
      <trkpt lat="42.32815" lon="2.21376">
        <ele>1803</ele>
        <time>2010-01-01T03:37:04Z</time>
      </trkpt>
      <trkpt lat="42.32812" lon="2.21377">
        <ele>1802</ele>
        <time>2010-01-01T03:37:06Z</time>
      </trkpt>
      <trkpt lat="42.32809" lon="2.21379">
        <ele>1801</ele>
        <time>2010-01-01T03:37:07Z</time>
      </trkpt>
      <trkpt lat="42.32807" lon="2.21381">
        <ele>1801</ele>
        <time>2010-01-01T03:37:08Z</time>
      </trkpt>
      <trkpt lat="42.32805" lon="2.21382">
        <ele>1800</ele>
        <time>2010-01-01T03:37:09Z</time>
      </trkpt>
      <trkpt lat="42.32803" lon="2.21385">
        <ele>1800</ele>
        <time>2010-01-01T03:37:10Z</time>
      </trkpt>
      <trkpt lat="42.32802" lon="2.21389">
        <ele>1800</ele>
        <time>2010-01-01T03:37:11Z</time>
      </trkpt>
      <trkpt lat="42.328" lon="2.21392">
        <ele>1799</ele>
        <time>2010-01-01T03:37:12Z</time>
      </trkpt>
      <trkpt lat="42.32798" lon="2.21395">
        <ele>1798</ele>
        <time>2010-01-01T03:37:13Z</time>
      </trkpt>
      <trkpt lat="42.32796" lon="2.21398">
        <ele>1798</ele>
        <time>2010-01-01T03:37:15Z</time>
      </trkpt>
      <trkpt lat="42.32795" lon="2.214">
        <ele>1797</ele>
        <time>2010-01-01T03:37:15Z</time>
      </trkpt>
      <trkpt lat="42.32793" lon="2.21403">
        <ele>1797</ele>
        <time>2010-01-01T03:37:17Z</time>
      </trkpt>
      <trkpt lat="42.32791" lon="2.21406">
        <ele>1796</ele>
        <time>2010-01-01T03:37:18Z</time>
      </trkpt>
      <trkpt lat="42.32789" lon="2.21408">
        <ele>1795</ele>
        <time>2010-01-01T03:37:19Z</time>
      </trkpt>
      <trkpt lat="42.32788" lon="2.2141">
        <ele>1795</ele>
        <time>2010-01-01T03:37:20Z</time>
      </trkpt>
      <trkpt lat="42.32786" lon="2.21412">
        <ele>1794</ele>
        <time>2010-01-01T03:37:21Z</time>
      </trkpt>
      <trkpt lat="42.32783" lon="2.21414">
        <ele>1794</ele>
        <time>2010-01-01T03:37:22Z</time>
      </trkpt>
      <trkpt lat="42.32781" lon="2.21416">
        <ele>1793</ele>
        <time>2010-01-01T03:37:23Z</time>
      </trkpt>
      <trkpt lat="42.32778" lon="2.21418">
        <ele>1792</ele>
        <time>2010-01-01T03:37:24Z</time>
      </trkpt>
      <trkpt lat="42.32775" lon="2.21419">
        <ele>1791</ele>
        <time>2010-01-01T03:37:25Z</time>
      </trkpt>
      <trkpt lat="42.32769" lon="2.21421">
        <ele>1789</ele>
        <time>2010-01-01T03:37:28Z</time>
      </trkpt>
      <trkpt lat="42.32768" lon="2.21424">
        <ele>1788</ele>
        <time>2010-01-01T03:37:29Z</time>
      </trkpt>
      <trkpt lat="42.32767" lon="2.21427">
        <ele>1788</ele>
        <time>2010-01-01T03:37:30Z</time>
      </trkpt>
      <trkpt lat="42.32764" lon="2.21431">
        <ele>1787</ele>
        <time>2010-01-01T03:37:31Z</time>
      </trkpt>
      <trkpt lat="42.32762" lon="2.21433">
        <ele>1786</ele>
        <time>2010-01-01T03:37:32Z</time>
      </trkpt>
      <trkpt lat="42.32761" lon="2.21435">
        <ele>1785</ele>
        <time>2010-01-01T03:37:33Z</time>
      </trkpt>
      <trkpt lat="42.3276" lon="2.21437">
        <ele>1785</ele>
        <time>2010-01-01T03:37:34Z</time>
      </trkpt>
      <trkpt lat="42.3276" lon="2.21441">
        <ele>1784</ele>
        <time>2010-01-01T03:37:35Z</time>
      </trkpt>
      <trkpt lat="42.32758" lon="2.21444">
        <ele>1783</ele>
        <time>2010-01-01T03:37:36Z</time>
      </trkpt>
      <trkpt lat="42.32757" lon="2.21448">
        <ele>1782</ele>
        <time>2010-01-01T03:37:37Z</time>
      </trkpt>
      <trkpt lat="42.32754" lon="2.2145">
        <ele>1781</ele>
        <time>2010-01-01T03:37:39Z</time>
      </trkpt>
      <trkpt lat="42.32752" lon="2.21452">
        <ele>1780</ele>
        <time>2010-01-01T03:37:40Z</time>
      </trkpt>
      <trkpt lat="42.32749" lon="2.21455">
        <ele>1780</ele>
        <time>2010-01-01T03:37:41Z</time>
      </trkpt>
      <trkpt lat="42.32747" lon="2.21458">
        <ele>1779</ele>
        <time>2010-01-01T03:37:42Z</time>
      </trkpt>
      <trkpt lat="42.32747" lon="2.21462">
        <ele>1778</ele>
        <time>2010-01-01T03:37:43Z</time>
      </trkpt>
      <trkpt lat="42.32746" lon="2.21465">
        <ele>1778</ele>
        <time>2010-01-01T03:37:44Z</time>
      </trkpt>
      <trkpt lat="42.32745" lon="2.21467">
        <ele>1777</ele>
        <time>2010-01-01T03:37:45Z</time>
      </trkpt>
      <trkpt lat="42.32743" lon="2.2147">
        <ele>1777</ele>
        <time>2010-01-01T03:37:46Z</time>
      </trkpt>
      <trkpt lat="42.32742" lon="2.21473">
        <ele>1776</ele>
        <time>2010-01-01T03:37:47Z</time>
      </trkpt>
      <trkpt lat="42.3274" lon="2.21475">
        <ele>1776</ele>
        <time>2010-01-01T03:37:48Z</time>
      </trkpt>
      <trkpt lat="42.32738" lon="2.21477">
        <ele>1775</ele>
        <time>2010-01-01T03:37:49Z</time>
      </trkpt>
      <trkpt lat="42.32735" lon="2.21479">
        <ele>1774</ele>
        <time>2010-01-01T03:37:50Z</time>
      </trkpt>
      <trkpt lat="42.32733" lon="2.21481">
        <ele>1773</ele>
        <time>2010-01-01T03:37:52Z</time>
      </trkpt>
      <trkpt lat="42.32732" lon="2.21484">
        <ele>1773</ele>
        <time>2010-01-01T03:37:52Z</time>
      </trkpt>
      <trkpt lat="42.32731" lon="2.21487">
        <ele>1772</ele>
        <time>2010-01-01T03:37:53Z</time>
      </trkpt>
      <trkpt lat="42.32729" lon="2.21489">
        <ele>1772</ele>
        <time>2010-01-01T03:37:55Z</time>
      </trkpt>
      <trkpt lat="42.32727" lon="2.21492">
        <ele>1771</ele>
        <time>2010-01-01T03:37:56Z</time>
      </trkpt>
      <trkpt lat="42.32725" lon="2.21495">
        <ele>1771</ele>
        <time>2010-01-01T03:37:57Z</time>
      </trkpt>
      <trkpt lat="42.32723" lon="2.21497">
        <ele>1770</ele>
        <time>2010-01-01T03:37:58Z</time>
      </trkpt>
      <trkpt lat="42.32722" lon="2.215">
        <ele>1769</ele>
        <time>2010-01-01T03:37:59Z</time>
      </trkpt>
      <trkpt lat="42.32721" lon="2.21503">
        <ele>1769</ele>
        <time>2010-01-01T03:38:00Z</time>
      </trkpt>
      <trkpt lat="42.32719" lon="2.21506">
        <ele>1768</ele>
        <time>2010-01-01T03:38:01Z</time>
      </trkpt>
      <trkpt lat="42.32717" lon="2.21509">
        <ele>1767</ele>
        <time>2010-01-01T03:38:02Z</time>
      </trkpt>
      <trkpt lat="42.32715" lon="2.21512">
        <ele>1766</ele>
        <time>2010-01-01T03:38:03Z</time>
      </trkpt>
      <trkpt lat="42.32712" lon="2.21514">
        <ele>1765</ele>
        <time>2010-01-01T03:38:04Z</time>
      </trkpt>
      <trkpt lat="42.3271" lon="2.21516">
        <ele>1764</ele>
        <time>2010-01-01T03:38:06Z</time>
      </trkpt>
      <trkpt lat="42.32708" lon="2.21518">
        <ele>1763</ele>
        <time>2010-01-01T03:38:07Z</time>
      </trkpt>
      <trkpt lat="42.32706" lon="2.21521">
        <ele>1762</ele>
        <time>2010-01-01T03:38:08Z</time>
      </trkpt>
      <trkpt lat="42.32704" lon="2.21524">
        <ele>1761</ele>
        <time>2010-01-01T03:38:09Z</time>
      </trkpt>
      <trkpt lat="42.32702" lon="2.21527">
        <ele>1760</ele>
        <time>2010-01-01T03:38:10Z</time>
      </trkpt>
      <trkpt lat="42.327" lon="2.21529">
        <ele>1760</ele>
        <time>2010-01-01T03:38:11Z</time>
      </trkpt>
      <trkpt lat="42.32699" lon="2.21532">
        <ele>1759</ele>
        <time>2010-01-01T03:38:12Z</time>
      </trkpt>
      <trkpt lat="42.32697" lon="2.21535">
        <ele>1759</ele>
        <time>2010-01-01T03:38:13Z</time>
      </trkpt>
      <trkpt lat="42.32696" lon="2.21539">
        <ele>1758</ele>
        <time>2010-01-01T03:38:14Z</time>
      </trkpt>
      <trkpt lat="42.32694" lon="2.21542">
        <ele>1757</ele>
        <time>2010-01-01T03:38:16Z</time>
      </trkpt>
      <trkpt lat="42.32693" lon="2.21545">
        <ele>1757</ele>
        <time>2010-01-01T03:38:17Z</time>
      </trkpt>
      <trkpt lat="42.32692" lon="2.21548">
        <ele>1756</ele>
        <time>2010-01-01T03:38:18Z</time>
      </trkpt>
      <trkpt lat="42.3269" lon="2.21551">
        <ele>1756</ele>
        <time>2010-01-01T03:38:19Z</time>
      </trkpt>
      <trkpt lat="42.32688" lon="2.21554">
        <ele>1755</ele>
        <time>2010-01-01T03:38:20Z</time>
      </trkpt>
      <trkpt lat="42.32687" lon="2.21557">
        <ele>1755</ele>
        <time>2010-01-01T03:38:21Z</time>
      </trkpt>
      <trkpt lat="42.32685" lon="2.2156">
        <ele>1754</ele>
        <time>2010-01-01T03:38:22Z</time>
      </trkpt>
      <trkpt lat="42.32684" lon="2.21564">
        <ele>1753</ele>
        <time>2010-01-01T03:38:23Z</time>
      </trkpt>
      <trkpt lat="42.32683" lon="2.21568">
        <ele>1753</ele>
        <time>2010-01-01T03:38:25Z</time>
      </trkpt>
      <trkpt lat="42.32682" lon="2.21571">
        <ele>1752</ele>
        <time>2010-01-01T03:38:26Z</time>
      </trkpt>
      <trkpt lat="42.32683" lon="2.21574">
        <ele>1752</ele>
        <time>2010-01-01T03:38:27Z</time>
      </trkpt>
      <trkpt lat="42.32683" lon="2.21578">
        <ele>1752</ele>
        <time>2010-01-01T03:38:28Z</time>
      </trkpt>
      <trkpt lat="42.32682" lon="2.21581">
        <ele>1752</ele>
        <time>2010-01-01T03:38:29Z</time>
      </trkpt>
      <trkpt lat="42.3268" lon="2.21587">
        <ele>1751</ele>
        <time>2010-01-01T03:38:31Z</time>
      </trkpt>
      <trkpt lat="42.32678" lon="2.2159">
        <ele>1750</ele>
        <time>2010-01-01T03:38:32Z</time>
      </trkpt>
      <trkpt lat="42.32676" lon="2.21593">
        <ele>1749</ele>
        <time>2010-01-01T03:38:33Z</time>
      </trkpt>
      <trkpt lat="42.32675" lon="2.21596">
        <ele>1748</ele>
        <time>2010-01-01T03:38:34Z</time>
      </trkpt>
      <trkpt lat="42.32675" lon="2.21599">
        <ele>1748</ele>
        <time>2010-01-01T03:38:35Z</time>
      </trkpt>
      <trkpt lat="42.32675" lon="2.21602">
        <ele>1748</ele>
        <time>2010-01-01T03:38:36Z</time>
      </trkpt>
      <trkpt lat="42.32675" lon="2.21605">
        <ele>1748</ele>
        <time>2010-01-01T03:38:37Z</time>
      </trkpt>
      <trkpt lat="42.32676" lon="2.21607">
        <ele>1748</ele>
        <time>2010-01-01T03:38:38Z</time>
      </trkpt>
      <trkpt lat="42.32676" lon="2.2161">
        <ele>1748</ele>
        <time>2010-01-01T03:38:39Z</time>
      </trkpt>
      <trkpt lat="42.32675" lon="2.21613">
        <ele>1747</ele>
        <time>2010-01-01T03:38:39Z</time>
      </trkpt>
      <trkpt lat="42.32672" lon="2.21615">
        <ele>1746</ele>
        <time>2010-01-01T03:38:41Z</time>
      </trkpt>
      <trkpt lat="42.3267" lon="2.21618">
        <ele>1746</ele>
        <time>2010-01-01T03:38:42Z</time>
      </trkpt>
      <trkpt lat="42.3267" lon="2.21622">
        <ele>1745</ele>
        <time>2010-01-01T03:38:43Z</time>
      </trkpt>
      <trkpt lat="42.3267" lon="2.21626">
        <ele>1745</ele>
        <time>2010-01-01T03:38:44Z</time>
      </trkpt>
      <trkpt lat="42.32671" lon="2.21629">
        <ele>1744</ele>
        <time>2010-01-01T03:38:45Z</time>
      </trkpt>
      <trkpt lat="42.32671" lon="2.21633">
        <ele>1744</ele>
        <time>2010-01-01T03:38:46Z</time>
      </trkpt>
      <trkpt lat="42.32671" lon="2.21636">
        <ele>1744</ele>
        <time>2010-01-01T03:38:47Z</time>
      </trkpt>
      <trkpt lat="42.32672" lon="2.21643">
        <ele>1743</ele>
        <time>2010-01-01T03:38:49Z</time>
      </trkpt>
      <trkpt lat="42.32672" lon="2.21648">
        <ele>1742</ele>
        <time>2010-01-01T03:38:51Z</time>
      </trkpt>
      <trkpt lat="42.32673" lon="2.2166">
        <ele>1741</ele>
        <time>2010-01-01T03:38:55Z</time>
      </trkpt>
      <trkpt lat="42.32675" lon="2.21673">
        <ele>1739</ele>
        <time>2010-01-01T03:38:58Z</time>
      </trkpt>
      <trkpt lat="42.32673" lon="2.21686">
        <ele>1736</ele>
        <time>2010-01-01T03:39:03Z</time>
      </trkpt>
      <trkpt lat="42.32675" lon="2.21691">
        <ele>1735</ele>
        <time>2010-01-01T03:39:04Z</time>
      </trkpt>
      <trkpt lat="42.32677" lon="2.21692">
        <ele>1735</ele>
        <time>2010-01-01T03:39:05Z</time>
      </trkpt>
      <trkpt lat="42.32679" lon="2.21693">
        <ele>1735</ele>
        <time>2010-01-01T03:39:06Z</time>
      </trkpt>
      <trkpt lat="42.32681" lon="2.21695">
        <ele>1734</ele>
        <time>2010-01-01T03:39:07Z</time>
      </trkpt>
      <trkpt lat="42.32683" lon="2.21698">
        <ele>1734</ele>
        <time>2010-01-01T03:39:08Z</time>
      </trkpt>
      <trkpt lat="42.32685" lon="2.21699">
        <ele>1734</ele>
        <time>2010-01-01T03:39:09Z</time>
      </trkpt>
      <trkpt lat="42.32688" lon="2.21701">
        <ele>1734</ele>
        <time>2010-01-01T03:39:10Z</time>
      </trkpt>
      <trkpt lat="42.3269" lon="2.21702">
        <ele>1734</ele>
        <time>2010-01-01T03:39:11Z</time>
      </trkpt>
      <trkpt lat="42.32693" lon="2.21704">
        <ele>1734</ele>
        <time>2010-01-01T03:39:12Z</time>
      </trkpt>
      <trkpt lat="42.32695" lon="2.21704">
        <ele>1734</ele>
        <time>2010-01-01T03:39:13Z</time>
      </trkpt>
      <trkpt lat="42.32698" lon="2.21705">
        <ele>1734</ele>
        <time>2010-01-01T03:39:15Z</time>
      </trkpt>
      <trkpt lat="42.32701" lon="2.21706">
        <ele>1734</ele>
        <time>2010-01-01T03:39:16Z</time>
      </trkpt>
      <trkpt lat="42.32704" lon="2.21709">
        <ele>1734</ele>
        <time>2010-01-01T03:39:17Z</time>
      </trkpt>
      <trkpt lat="42.32705" lon="2.21711">
        <ele>1734</ele>
        <time>2010-01-01T03:39:18Z</time>
      </trkpt>
      <trkpt lat="42.32705" lon="2.21715">
        <ele>1733</ele>
        <time>2010-01-01T03:39:19Z</time>
      </trkpt>
      <trkpt lat="42.32704" lon="2.21718">
        <ele>1732</ele>
        <time>2010-01-01T03:39:20Z</time>
      </trkpt>
      <trkpt lat="42.32703" lon="2.21721">
        <ele>1731</ele>
        <time>2010-01-01T03:39:21Z</time>
      </trkpt>
      <trkpt lat="42.32702" lon="2.21723">
        <ele>1731</ele>
        <time>2010-01-01T03:39:22Z</time>
      </trkpt>
      <trkpt lat="42.327" lon="2.21725">
        <ele>1731</ele>
        <time>2010-01-01T03:39:23Z</time>
      </trkpt>
      <trkpt lat="42.32698" lon="2.21726">
        <ele>1730</ele>
        <time>2010-01-01T03:39:24Z</time>
      </trkpt>
      <trkpt lat="42.32696" lon="2.21727">
        <ele>1730</ele>
        <time>2010-01-01T03:39:25Z</time>
      </trkpt>
      <trkpt lat="42.32693" lon="2.21729">
        <ele>1729</ele>
        <time>2010-01-01T03:39:26Z</time>
      </trkpt>
      <trkpt lat="42.32691" lon="2.2173">
        <ele>1729</ele>
        <time>2010-01-01T03:39:26Z</time>
      </trkpt>
      <trkpt lat="42.32689" lon="2.21732">
        <ele>1729</ele>
        <time>2010-01-01T03:39:28Z</time>
      </trkpt>
      <trkpt lat="42.32687" lon="2.21733">
        <ele>1728</ele>
        <time>2010-01-01T03:39:28Z</time>
      </trkpt>
      <trkpt lat="42.32685" lon="2.21732">
        <ele>1728</ele>
        <time>2010-01-01T03:39:29Z</time>
      </trkpt>
      <trkpt lat="42.32682" lon="2.21733">
        <ele>1728</ele>
        <time>2010-01-01T03:39:30Z</time>
      </trkpt>
      <trkpt lat="42.32681" lon="2.21734">
        <ele>1727</ele>
        <time>2010-01-01T03:39:31Z</time>
      </trkpt>
      <trkpt lat="42.32679" lon="2.21736">
        <ele>1727</ele>
        <time>2010-01-01T03:39:32Z</time>
      </trkpt>
      <trkpt lat="42.32677" lon="2.21737">
        <ele>1727</ele>
        <time>2010-01-01T03:39:33Z</time>
      </trkpt>
      <trkpt lat="42.32679" lon="2.21735">
        <ele>1727</ele>
        <time>2010-01-01T03:39:34Z</time>
      </trkpt>
      <trkpt lat="42.32681" lon="2.21734">
        <ele>1727</ele>
        <time>2010-01-01T03:39:35Z</time>
      </trkpt>
      <trkpt lat="42.32684" lon="2.21733">
        <ele>1728</ele>
        <time>2010-01-01T03:39:36Z</time>
      </trkpt>
      <trkpt lat="42.32681" lon="2.21734">
        <ele>1727</ele>
        <time>2010-01-01T03:39:37Z</time>
      </trkpt>
      <trkpt lat="42.32679" lon="2.21735">
        <ele>1727</ele>
        <time>2010-01-01T03:39:38Z</time>
      </trkpt>
      <trkpt lat="42.32677" lon="2.21735">
        <ele>1727</ele>
        <time>2010-01-01T03:39:39Z</time>
      </trkpt>
      <trkpt lat="42.32672" lon="2.21737">
        <ele>1726</ele>
        <time>2010-01-01T03:39:41Z</time>
      </trkpt>
      <trkpt lat="42.32675" lon="2.21738">
        <ele>1726</ele>
        <time>2010-01-01T03:39:42Z</time>
      </trkpt>
      <trkpt lat="42.32677" lon="2.21737">
        <ele>1727</ele>
        <time>2010-01-01T03:39:43Z</time>
      </trkpt>
      <trkpt lat="42.32676" lon="2.21733">
        <ele>1727</ele>
        <time>2010-01-01T03:39:44Z</time>
      </trkpt>
      <trkpt lat="42.3267" lon="2.21735">
        <ele>1726</ele>
        <time>2010-01-01T03:39:46Z</time>
      </trkpt>
      <trkpt lat="42.32668" lon="2.21736">
        <ele>1726</ele>
        <time>2010-01-01T03:39:47Z</time>
      </trkpt>
      <trkpt lat="42.32665" lon="2.21738">
        <ele>1725</ele>
        <time>2010-01-01T03:39:49Z</time>
      </trkpt>
      <trkpt lat="42.32663" lon="2.2174">
        <ele>1725</ele>
        <time>2010-01-01T03:39:50Z</time>
      </trkpt>
      <trkpt lat="42.32661" lon="2.21742">
        <ele>1724</ele>
        <time>2010-01-01T03:39:51Z</time>
      </trkpt>
      <trkpt lat="42.32658" lon="2.21743">
        <ele>1724</ele>
        <time>2010-01-01T03:39:52Z</time>
      </trkpt>
      <trkpt lat="42.32655" lon="2.21744">
        <ele>1723</ele>
        <time>2010-01-01T03:39:53Z</time>
      </trkpt>
      <trkpt lat="42.32653" lon="2.21745">
        <ele>1723</ele>
        <time>2010-01-01T03:39:54Z</time>
      </trkpt>
      <trkpt lat="42.3265" lon="2.21746">
        <ele>1722</ele>
        <time>2010-01-01T03:39:55Z</time>
      </trkpt>
      <trkpt lat="42.32647" lon="2.21748">
        <ele>1722</ele>
        <time>2010-01-01T03:39:56Z</time>
      </trkpt>
      <trkpt lat="42.32644" lon="2.21749">
        <ele>1721</ele>
        <time>2010-01-01T03:39:58Z</time>
      </trkpt>
      <trkpt lat="42.32641" lon="2.2175">
        <ele>1721</ele>
        <time>2010-01-01T03:39:59Z</time>
      </trkpt>
      <trkpt lat="42.32638" lon="2.2175">
        <ele>1720</ele>
        <time>2010-01-01T03:40:00Z</time>
      </trkpt>
      <trkpt lat="42.32635" lon="2.21749">
        <ele>1720</ele>
        <time>2010-01-01T03:40:02Z</time>
      </trkpt>
      <trkpt lat="42.32632" lon="2.21748">
        <ele>1720</ele>
        <time>2010-01-01T03:40:03Z</time>
      </trkpt>
      <trkpt lat="42.32629" lon="2.21746">
        <ele>1719</ele>
        <time>2010-01-01T03:40:04Z</time>
      </trkpt>
      <trkpt lat="42.32626" lon="2.21744">
        <ele>1719</ele>
        <time>2010-01-01T03:40:05Z</time>
      </trkpt>
      <trkpt lat="42.32624" lon="2.21741">
        <ele>1719</ele>
        <time>2010-01-01T03:40:07Z</time>
      </trkpt>
      <trkpt lat="42.32621" lon="2.21739">
        <ele>1719</ele>
        <time>2010-01-01T03:40:08Z</time>
      </trkpt>
      <trkpt lat="42.32619" lon="2.21736">
        <ele>1718</ele>
        <time>2010-01-01T03:40:09Z</time>
      </trkpt>
      <trkpt lat="42.32618" lon="2.21733">
        <ele>1718</ele>
        <time>2010-01-01T03:40:10Z</time>
      </trkpt>
      <trkpt lat="42.32616" lon="2.2173">
        <ele>1718</ele>
        <time>2010-01-01T03:40:11Z</time>
      </trkpt>
      <trkpt lat="42.32615" lon="2.21727">
        <ele>1718</ele>
        <time>2010-01-01T03:40:12Z</time>
      </trkpt>
      <trkpt lat="42.32614" lon="2.21725">
        <ele>1718</ele>
        <time>2010-01-01T03:40:13Z</time>
      </trkpt>
      <trkpt lat="42.32613" lon="2.21721">
        <ele>1718</ele>
        <time>2010-01-01T03:40:14Z</time>
      </trkpt>
      <trkpt lat="42.32612" lon="2.21717">
        <ele>1718</ele>
        <time>2010-01-01T03:40:15Z</time>
      </trkpt>
      <trkpt lat="42.32611" lon="2.21713">
        <ele>1718</ele>
        <time>2010-01-01T03:40:17Z</time>
      </trkpt>
      <trkpt lat="42.32611" lon="2.21708">
        <ele>1718</ele>
        <time>2010-01-01T03:40:18Z</time>
      </trkpt>
      <trkpt lat="42.3261" lon="2.21704">
        <ele>1718</ele>
        <time>2010-01-01T03:40:19Z</time>
      </trkpt>
      <trkpt lat="42.32609" lon="2.21699">
        <ele>1719</ele>
        <time>2010-01-01T03:40:21Z</time>
      </trkpt>
      <trkpt lat="42.32609" lon="2.21696">
        <ele>1719</ele>
        <time>2010-01-01T03:40:22Z</time>
      </trkpt>
      <trkpt lat="42.32608" lon="2.21693">
        <ele>1719</ele>
        <time>2010-01-01T03:40:23Z</time>
      </trkpt>
      <trkpt lat="42.32608" lon="2.21691">
        <ele>1718</ele>
        <time>2010-01-01T03:40:23Z</time>
      </trkpt>
      <trkpt lat="42.32607" lon="2.21688">
        <ele>1718</ele>
        <time>2010-01-01T03:40:24Z</time>
      </trkpt>
      <trkpt lat="42.32606" lon="2.21685">
        <ele>1718</ele>
        <time>2010-01-01T03:40:25Z</time>
      </trkpt>
      <trkpt lat="42.32605" lon="2.21683">
        <ele>1718</ele>
        <time>2010-01-01T03:40:26Z</time>
      </trkpt>
      <trkpt lat="42.32604" lon="2.2168">
        <ele>1717</ele>
        <time>2010-01-01T03:40:27Z</time>
      </trkpt>
      <trkpt lat="42.32603" lon="2.21678">
        <ele>1717</ele>
        <time>2010-01-01T03:40:28Z</time>
      </trkpt>
      <trkpt lat="42.32602" lon="2.21675">
        <ele>1717</ele>
        <time>2010-01-01T03:40:28Z</time>
      </trkpt>
      <trkpt lat="42.32602" lon="2.21672">
        <ele>1717</ele>
        <time>2010-01-01T03:40:29Z</time>
      </trkpt>
      <trkpt lat="42.32601" lon="2.2167">
        <ele>1716</ele>
        <time>2010-01-01T03:40:30Z</time>
      </trkpt>
      <trkpt lat="42.326" lon="2.21667">
        <ele>1716</ele>
        <time>2010-01-01T03:40:31Z</time>
      </trkpt>
      <trkpt lat="42.326" lon="2.21664">
        <ele>1716</ele>
        <time>2010-01-01T03:40:32Z</time>
      </trkpt>
      <trkpt lat="42.32599" lon="2.21661">
        <ele>1716</ele>
        <time>2010-01-01T03:40:33Z</time>
      </trkpt>
      <trkpt lat="42.32599" lon="2.21658">
        <ele>1716</ele>
        <time>2010-01-01T03:40:34Z</time>
      </trkpt>
      <trkpt lat="42.32598" lon="2.21654">
        <ele>1716</ele>
        <time>2010-01-01T03:40:35Z</time>
      </trkpt>
      <trkpt lat="42.32598" lon="2.21651">
        <ele>1716</ele>
        <time>2010-01-01T03:40:36Z</time>
      </trkpt>
      <trkpt lat="42.32597" lon="2.21648">
        <ele>1716</ele>
        <time>2010-01-01T03:40:37Z</time>
      </trkpt>
      <trkpt lat="42.32597" lon="2.21645">
        <ele>1716</ele>
        <time>2010-01-01T03:40:38Z</time>
      </trkpt>
      <trkpt lat="42.32596" lon="2.21642">
        <ele>1715</ele>
        <time>2010-01-01T03:40:38Z</time>
      </trkpt>
      <trkpt lat="42.32596" lon="2.21639">
        <ele>1715</ele>
        <time>2010-01-01T03:40:39Z</time>
      </trkpt>
      <trkpt lat="42.32595" lon="2.21636">
        <ele>1715</ele>
        <time>2010-01-01T03:40:40Z</time>
      </trkpt>
      <trkpt lat="42.32594" lon="2.21633">
        <ele>1715</ele>
        <time>2010-01-01T03:40:41Z</time>
      </trkpt>
      <trkpt lat="42.32594" lon="2.2163">
        <ele>1715</ele>
        <time>2010-01-01T03:40:42Z</time>
      </trkpt>
      <trkpt lat="42.32593" lon="2.21627">
        <ele>1714</ele>
        <time>2010-01-01T03:40:43Z</time>
      </trkpt>
      <trkpt lat="42.32593" lon="2.21623">
        <ele>1714</ele>
        <time>2010-01-01T03:40:44Z</time>
      </trkpt>
      <trkpt lat="42.32592" lon="2.2162">
        <ele>1714</ele>
        <time>2010-01-01T03:40:45Z</time>
      </trkpt>
      <trkpt lat="42.32592" lon="2.21616">
        <ele>1714</ele>
        <time>2010-01-01T03:40:46Z</time>
      </trkpt>
      <trkpt lat="42.32592" lon="2.21613">
        <ele>1714</ele>
        <time>2010-01-01T03:40:47Z</time>
      </trkpt>
      <trkpt lat="42.32591" lon="2.2161">
        <ele>1714</ele>
        <time>2010-01-01T03:40:48Z</time>
      </trkpt>
      <trkpt lat="42.32591" lon="2.21607">
        <ele>1714</ele>
        <time>2010-01-01T03:40:49Z</time>
      </trkpt>
      <trkpt lat="42.3259" lon="2.21604">
        <ele>1713</ele>
        <time>2010-01-01T03:40:50Z</time>
      </trkpt>
      <trkpt lat="42.3259" lon="2.216">
        <ele>1713</ele>
        <time>2010-01-01T03:40:51Z</time>
      </trkpt>
      <trkpt lat="42.3259" lon="2.21597">
        <ele>1713</ele>
        <time>2010-01-01T03:40:52Z</time>
      </trkpt>
      <trkpt lat="42.32589" lon="2.21594">
        <ele>1713</ele>
        <time>2010-01-01T03:40:53Z</time>
      </trkpt>
      <trkpt lat="42.32589" lon="2.2159">
        <ele>1713</ele>
        <time>2010-01-01T03:40:54Z</time>
      </trkpt>
      <trkpt lat="42.32588" lon="2.21587">
        <ele>1713</ele>
        <time>2010-01-01T03:40:55Z</time>
      </trkpt>
      <trkpt lat="42.32588" lon="2.21584">
        <ele>1712</ele>
        <time>2010-01-01T03:40:56Z</time>
      </trkpt>
      <trkpt lat="42.32587" lon="2.21581">
        <ele>1712</ele>
        <time>2010-01-01T03:40:57Z</time>
      </trkpt>
      <trkpt lat="42.32586" lon="2.21577">
        <ele>1712</ele>
        <time>2010-01-01T03:40:58Z</time>
      </trkpt>
      <trkpt lat="42.32586" lon="2.21574">
        <ele>1711</ele>
        <time>2010-01-01T03:40:59Z</time>
      </trkpt>
      <trkpt lat="42.32585" lon="2.21571">
        <ele>1711</ele>
        <time>2010-01-01T03:41:00Z</time>
      </trkpt>
      <trkpt lat="42.32585" lon="2.21568">
        <ele>1711</ele>
        <time>2010-01-01T03:41:01Z</time>
      </trkpt>
      <trkpt lat="42.32584" lon="2.21564">
        <ele>1710</ele>
        <time>2010-01-01T03:41:02Z</time>
      </trkpt>
      <trkpt lat="42.32584" lon="2.21561">
        <ele>1710</ele>
        <time>2010-01-01T03:41:03Z</time>
      </trkpt>
      <trkpt lat="42.32583" lon="2.21558">
        <ele>1710</ele>
        <time>2010-01-01T03:41:04Z</time>
      </trkpt>
      <trkpt lat="42.32583" lon="2.21555">
        <ele>1709</ele>
        <time>2010-01-01T03:41:05Z</time>
      </trkpt>
      <trkpt lat="42.32582" lon="2.21551">
        <ele>1709</ele>
        <time>2010-01-01T03:41:06Z</time>
      </trkpt>
      <trkpt lat="42.32582" lon="2.21548">
        <ele>1708</ele>
        <time>2010-01-01T03:41:07Z</time>
      </trkpt>
      <trkpt lat="42.32582" lon="2.21545">
        <ele>1708</ele>
        <time>2010-01-01T03:41:08Z</time>
      </trkpt>
      <trkpt lat="42.32581" lon="2.21542">
        <ele>1708</ele>
        <time>2010-01-01T03:41:09Z</time>
      </trkpt>
      <trkpt lat="42.32581" lon="2.21539">
        <ele>1707</ele>
        <time>2010-01-01T03:41:10Z</time>
      </trkpt>
      <trkpt lat="42.3258" lon="2.21535">
        <ele>1707</ele>
        <time>2010-01-01T03:41:11Z</time>
      </trkpt>
      <trkpt lat="42.3258" lon="2.21532">
        <ele>1707</ele>
        <time>2010-01-01T03:41:12Z</time>
      </trkpt>
      <trkpt lat="42.32579" lon="2.21529">
        <ele>1706</ele>
        <time>2010-01-01T03:41:13Z</time>
      </trkpt>
      <trkpt lat="42.32579" lon="2.21526">
        <ele>1706</ele>
        <time>2010-01-01T03:41:14Z</time>
      </trkpt>
      <trkpt lat="42.32578" lon="2.21522">
        <ele>1706</ele>
        <time>2010-01-01T03:41:15Z</time>
      </trkpt>
      <trkpt lat="42.32578" lon="2.21519">
        <ele>1705</ele>
        <time>2010-01-01T03:41:16Z</time>
      </trkpt>
      <trkpt lat="42.32577" lon="2.21516">
        <ele>1705</ele>
        <time>2010-01-01T03:41:17Z</time>
      </trkpt>
      <trkpt lat="42.32576" lon="2.21513">
        <ele>1705</ele>
        <time>2010-01-01T03:41:18Z</time>
      </trkpt>
      <trkpt lat="42.32576" lon="2.2151">
        <ele>1705</ele>
        <time>2010-01-01T03:41:19Z</time>
      </trkpt>
      <trkpt lat="42.32576" lon="2.21506">
        <ele>1705</ele>
        <time>2010-01-01T03:41:20Z</time>
      </trkpt>
      <trkpt lat="42.32575" lon="2.21503">
        <ele>1705</ele>
        <time>2010-01-01T03:41:21Z</time>
      </trkpt>
      <trkpt lat="42.32575" lon="2.215">
        <ele>1705</ele>
        <time>2010-01-01T03:41:21Z</time>
      </trkpt>
      <trkpt lat="42.32574" lon="2.21497">
        <ele>1705</ele>
        <time>2010-01-01T03:41:22Z</time>
      </trkpt>
      <trkpt lat="42.32574" lon="2.21494">
        <ele>1704</ele>
        <time>2010-01-01T03:41:23Z</time>
      </trkpt>
      <trkpt lat="42.32573" lon="2.21491">
        <ele>1704</ele>
        <time>2010-01-01T03:41:24Z</time>
      </trkpt>
      <trkpt lat="42.32573" lon="2.21488">
        <ele>1704</ele>
        <time>2010-01-01T03:41:25Z</time>
      </trkpt>
      <trkpt lat="42.32573" lon="2.21484">
        <ele>1704</ele>
        <time>2010-01-01T03:41:26Z</time>
      </trkpt>
      <trkpt lat="42.32572" lon="2.21482">
        <ele>1703</ele>
        <time>2010-01-01T03:41:27Z</time>
      </trkpt>
      <trkpt lat="42.32571" lon="2.21479">
        <ele>1703</ele>
        <time>2010-01-01T03:41:28Z</time>
      </trkpt>
      <trkpt lat="42.32571" lon="2.21476">
        <ele>1703</ele>
        <time>2010-01-01T03:41:29Z</time>
      </trkpt>
      <trkpt lat="42.32571" lon="2.21472">
        <ele>1703</ele>
        <time>2010-01-01T03:41:30Z</time>
      </trkpt>
      <trkpt lat="42.3257" lon="2.21469">
        <ele>1703</ele>
        <time>2010-01-01T03:41:31Z</time>
      </trkpt>
      <trkpt lat="42.3257" lon="2.21466">
        <ele>1703</ele>
        <time>2010-01-01T03:41:32Z</time>
      </trkpt>
      <trkpt lat="42.32569" lon="2.21462">
        <ele>1703</ele>
        <time>2010-01-01T03:41:33Z</time>
      </trkpt>
      <trkpt lat="42.32569" lon="2.21459">
        <ele>1702</ele>
        <time>2010-01-01T03:41:34Z</time>
      </trkpt>
      <trkpt lat="42.32568" lon="2.21456">
        <ele>1702</ele>
        <time>2010-01-01T03:41:35Z</time>
      </trkpt>
      <trkpt lat="42.32568" lon="2.21452">
        <ele>1702</ele>
        <time>2010-01-01T03:41:36Z</time>
      </trkpt>
      <trkpt lat="42.32567" lon="2.21449">
        <ele>1702</ele>
        <time>2010-01-01T03:41:37Z</time>
      </trkpt>
      <trkpt lat="42.32567" lon="2.21446">
        <ele>1702</ele>
        <time>2010-01-01T03:41:38Z</time>
      </trkpt>
      <trkpt lat="42.32567" lon="2.21442">
        <ele>1702</ele>
        <time>2010-01-01T03:41:39Z</time>
      </trkpt>
      <trkpt lat="42.32567" lon="2.21439">
        <ele>1702</ele>
        <time>2010-01-01T03:41:40Z</time>
      </trkpt>
      <trkpt lat="42.32567" lon="2.21436">
        <ele>1702</ele>
        <time>2010-01-01T03:41:41Z</time>
      </trkpt>
      <trkpt lat="42.32567" lon="2.21433">
        <ele>1702</ele>
        <time>2010-01-01T03:41:42Z</time>
      </trkpt>
      <trkpt lat="42.32567" lon="2.21429">
        <ele>1701</ele>
        <time>2010-01-01T03:41:43Z</time>
      </trkpt>
      <trkpt lat="42.32567" lon="2.21423">
        <ele>1701</ele>
        <time>2010-01-01T03:41:45Z</time>
      </trkpt>
      <trkpt lat="42.32567" lon="2.2142">
        <ele>1701</ele>
        <time>2010-01-01T03:41:46Z</time>
      </trkpt>
      <trkpt lat="42.32566" lon="2.21417">
        <ele>1701</ele>
        <time>2010-01-01T03:41:47Z</time>
      </trkpt>
      <trkpt lat="42.32566" lon="2.21413">
        <ele>1700</ele>
        <time>2010-01-01T03:41:48Z</time>
      </trkpt>
      <trkpt lat="42.32567" lon="2.2141">
        <ele>1700</ele>
        <time>2010-01-01T03:41:49Z</time>
      </trkpt>
      <trkpt lat="42.32567" lon="2.21407">
        <ele>1700</ele>
        <time>2010-01-01T03:41:50Z</time>
      </trkpt>
      <trkpt lat="42.32567" lon="2.21404">
        <ele>1699</ele>
        <time>2010-01-01T03:41:50Z</time>
      </trkpt>
      <trkpt lat="42.32567" lon="2.214">
        <ele>1699</ele>
        <time>2010-01-01T03:41:51Z</time>
      </trkpt>
      <trkpt lat="42.32567" lon="2.21397">
        <ele>1699</ele>
        <time>2010-01-01T03:41:52Z</time>
      </trkpt>
      <trkpt lat="42.32567" lon="2.21394">
        <ele>1698</ele>
        <time>2010-01-01T03:41:53Z</time>
      </trkpt>
      <trkpt lat="42.32567" lon="2.2139">
        <ele>1698</ele>
        <time>2010-01-01T03:41:54Z</time>
      </trkpt>
      <trkpt lat="42.32567" lon="2.21387">
        <ele>1697</ele>
        <time>2010-01-01T03:41:55Z</time>
      </trkpt>
      <trkpt lat="42.32567" lon="2.2138">
        <ele>1697</ele>
        <time>2010-01-01T03:41:57Z</time>
      </trkpt>
      <trkpt lat="42.32567" lon="2.21377">
        <ele>1696</ele>
        <time>2010-01-01T03:41:58Z</time>
      </trkpt>
      <trkpt lat="42.32567" lon="2.21373">
        <ele>1696</ele>
        <time>2010-01-01T03:41:59Z</time>
      </trkpt>
      <trkpt lat="42.32567" lon="2.21367">
        <ele>1695</ele>
        <time>2010-01-01T03:42:01Z</time>
      </trkpt>
      <trkpt lat="42.32567" lon="2.21363">
        <ele>1695</ele>
        <time>2010-01-01T03:42:02Z</time>
      </trkpt>
      <trkpt lat="42.32568" lon="2.21356">
        <ele>1695</ele>
        <time>2010-01-01T03:42:04Z</time>
      </trkpt>
      <trkpt lat="42.32568" lon="2.21353">
        <ele>1695</ele>
        <time>2010-01-01T03:42:05Z</time>
      </trkpt>
      <trkpt lat="42.32568" lon="2.21346">
        <ele>1695</ele>
        <time>2010-01-01T03:42:07Z</time>
      </trkpt>
      <trkpt lat="42.32568" lon="2.21343">
        <ele>1695</ele>
        <time>2010-01-01T03:42:08Z</time>
      </trkpt>
      <trkpt lat="42.32569" lon="2.2134">
        <ele>1695</ele>
        <time>2010-01-01T03:42:09Z</time>
      </trkpt>
      <trkpt lat="42.32569" lon="2.21336">
        <ele>1695</ele>
        <time>2010-01-01T03:42:10Z</time>
      </trkpt>
      <trkpt lat="42.32569" lon="2.21333">
        <ele>1695</ele>
        <time>2010-01-01T03:42:11Z</time>
      </trkpt>
      <trkpt lat="42.32569" lon="2.2133">
        <ele>1695</ele>
        <time>2010-01-01T03:42:12Z</time>
      </trkpt>
      <trkpt lat="42.32569" lon="2.21326">
        <ele>1695</ele>
        <time>2010-01-01T03:42:13Z</time>
      </trkpt>
      <trkpt lat="42.32569" lon="2.21323">
        <ele>1695</ele>
        <time>2010-01-01T03:42:14Z</time>
      </trkpt>
      <trkpt lat="42.32569" lon="2.21319">
        <ele>1695</ele>
        <time>2010-01-01T03:42:15Z</time>
      </trkpt>
      <trkpt lat="42.32569" lon="2.21316">
        <ele>1695</ele>
        <time>2010-01-01T03:42:16Z</time>
      </trkpt>
      <trkpt lat="42.32569" lon="2.21313">
        <ele>1695</ele>
        <time>2010-01-01T03:42:17Z</time>
      </trkpt>
      <trkpt lat="42.32569" lon="2.2131">
        <ele>1695</ele>
        <time>2010-01-01T03:42:18Z</time>
      </trkpt>
      <trkpt lat="42.32569" lon="2.21303">
        <ele>1695</ele>
        <time>2010-01-01T03:42:20Z</time>
      </trkpt>
      <trkpt lat="42.32569" lon="2.213">
        <ele>1695</ele>
        <time>2010-01-01T03:42:21Z</time>
      </trkpt>
      <trkpt lat="42.32569" lon="2.21297">
        <ele>1695</ele>
        <time>2010-01-01T03:42:22Z</time>
      </trkpt>
      <trkpt lat="42.32569" lon="2.21293">
        <ele>1695</ele>
        <time>2010-01-01T03:42:23Z</time>
      </trkpt>
      <trkpt lat="42.32569" lon="2.2129">
        <ele>1695</ele>
        <time>2010-01-01T03:42:24Z</time>
      </trkpt>
      <trkpt lat="42.32568" lon="2.21287">
        <ele>1694</ele>
        <time>2010-01-01T03:42:25Z</time>
      </trkpt>
      <trkpt lat="42.32567" lon="2.21284">
        <ele>1694</ele>
        <time>2010-01-01T03:42:26Z</time>
      </trkpt>
      <trkpt lat="42.32567" lon="2.21281">
        <ele>1694</ele>
        <time>2010-01-01T03:42:27Z</time>
      </trkpt>
      <trkpt lat="42.32566" lon="2.21278">
        <ele>1693</ele>
        <time>2010-01-01T03:42:28Z</time>
      </trkpt>
      <trkpt lat="42.32565" lon="2.21275">
        <ele>1693</ele>
        <time>2010-01-01T03:42:29Z</time>
      </trkpt>
      <trkpt lat="42.32564" lon="2.21272">
        <ele>1692</ele>
        <time>2010-01-01T03:42:30Z</time>
      </trkpt>
      <trkpt lat="42.32563" lon="2.21269">
        <ele>1692</ele>
        <time>2010-01-01T03:42:31Z</time>
      </trkpt>
      <trkpt lat="42.32562" lon="2.21266">
        <ele>1692</ele>
        <time>2010-01-01T03:42:32Z</time>
      </trkpt>
      <trkpt lat="42.32561" lon="2.21262">
        <ele>1692</ele>
        <time>2010-01-01T03:42:33Z</time>
      </trkpt>
      <trkpt lat="42.3256" lon="2.21259">
        <ele>1692</ele>
        <time>2010-01-01T03:42:34Z</time>
      </trkpt>
      <trkpt lat="42.32558" lon="2.21257">
        <ele>1691</ele>
        <time>2010-01-01T03:42:35Z</time>
      </trkpt>
      <trkpt lat="42.32557" lon="2.21254">
        <ele>1691</ele>
        <time>2010-01-01T03:42:36Z</time>
      </trkpt>
      <trkpt lat="42.32556" lon="2.21251">
        <ele>1691</ele>
        <time>2010-01-01T03:42:37Z</time>
      </trkpt>
      <trkpt lat="42.32555" lon="2.21248">
        <ele>1690</ele>
        <time>2010-01-01T03:42:38Z</time>
      </trkpt>
      <trkpt lat="42.32554" lon="2.21245">
        <ele>1690</ele>
        <time>2010-01-01T03:42:39Z</time>
      </trkpt>
      <trkpt lat="42.32552" lon="2.21242">
        <ele>1690</ele>
        <time>2010-01-01T03:42:40Z</time>
      </trkpt>
      <trkpt lat="42.32551" lon="2.21239">
        <ele>1690</ele>
        <time>2010-01-01T03:42:41Z</time>
      </trkpt>
      <trkpt lat="42.32551" lon="2.21236">
        <ele>1690</ele>
        <time>2010-01-01T03:42:42Z</time>
      </trkpt>
      <trkpt lat="42.3255" lon="2.21233">
        <ele>1689</ele>
        <time>2010-01-01T03:42:43Z</time>
      </trkpt>
      <trkpt lat="42.32548" lon="2.2123">
        <ele>1689</ele>
        <time>2010-01-01T03:42:44Z</time>
      </trkpt>
      <trkpt lat="42.32547" lon="2.21227">
        <ele>1689</ele>
        <time>2010-01-01T03:42:45Z</time>
      </trkpt>
      <trkpt lat="42.32546" lon="2.21224">
        <ele>1688</ele>
        <time>2010-01-01T03:42:46Z</time>
      </trkpt>
      <trkpt lat="42.32545" lon="2.2122">
        <ele>1688</ele>
        <time>2010-01-01T03:42:47Z</time>
      </trkpt>
      <trkpt lat="42.32544" lon="2.21217">
        <ele>1687</ele>
        <time>2010-01-01T03:42:48Z</time>
      </trkpt>
      <trkpt lat="42.32543" lon="2.21214">
        <ele>1687</ele>
        <time>2010-01-01T03:42:49Z</time>
      </trkpt>
      <trkpt lat="42.32542" lon="2.21211">
        <ele>1686</ele>
        <time>2010-01-01T03:42:50Z</time>
      </trkpt>
      <trkpt lat="42.32541" lon="2.21208">
        <ele>1686</ele>
        <time>2010-01-01T03:42:51Z</time>
      </trkpt>
      <trkpt lat="42.32541" lon="2.21205">
        <ele>1686</ele>
        <time>2010-01-01T03:42:52Z</time>
      </trkpt>
      <trkpt lat="42.3254" lon="2.21202">
        <ele>1685</ele>
        <time>2010-01-01T03:42:53Z</time>
      </trkpt>
      <trkpt lat="42.3254" lon="2.21198">
        <ele>1685</ele>
        <time>2010-01-01T03:42:54Z</time>
      </trkpt>
      <trkpt lat="42.3254" lon="2.21195">
        <ele>1685</ele>
        <time>2010-01-01T03:42:55Z</time>
      </trkpt>
      <trkpt lat="42.32539" lon="2.21191">
        <ele>1685</ele>
        <time>2010-01-01T03:42:56Z</time>
      </trkpt>
      <trkpt lat="42.32539" lon="2.21188">
        <ele>1685</ele>
        <time>2010-01-01T03:42:57Z</time>
      </trkpt>
      <trkpt lat="42.32539" lon="2.21181">
        <ele>1684</ele>
        <time>2010-01-01T03:42:59Z</time>
      </trkpt>
      <trkpt lat="42.3254" lon="2.21177">
        <ele>1684</ele>
        <time>2010-01-01T03:43:00Z</time>
      </trkpt>
      <trkpt lat="42.3254" lon="2.21174">
        <ele>1684</ele>
        <time>2010-01-01T03:43:01Z</time>
      </trkpt>
      <trkpt lat="42.3254" lon="2.2117">
        <ele>1684</ele>
        <time>2010-01-01T03:43:02Z</time>
      </trkpt>
      <trkpt lat="42.3254" lon="2.21167">
        <ele>1684</ele>
        <time>2010-01-01T03:43:03Z</time>
      </trkpt>
      <trkpt lat="42.32541" lon="2.21163">
        <ele>1684</ele>
        <time>2010-01-01T03:43:04Z</time>
      </trkpt>
      <trkpt lat="42.32541" lon="2.2116">
        <ele>1684</ele>
        <time>2010-01-01T03:43:05Z</time>
      </trkpt>
      <trkpt lat="42.32542" lon="2.21156">
        <ele>1683</ele>
        <time>2010-01-01T03:43:07Z</time>
      </trkpt>
      <trkpt lat="42.32542" lon="2.21152">
        <ele>1683</ele>
        <time>2010-01-01T03:43:08Z</time>
      </trkpt>
      <trkpt lat="42.32543" lon="2.21149">
        <ele>1683</ele>
        <time>2010-01-01T03:43:09Z</time>
      </trkpt>
      <trkpt lat="42.32544" lon="2.21146">
        <ele>1683</ele>
        <time>2010-01-01T03:43:10Z</time>
      </trkpt>
      <trkpt lat="42.32545" lon="2.21143">
        <ele>1683</ele>
        <time>2010-01-01T03:43:11Z</time>
      </trkpt>
      <trkpt lat="42.32546" lon="2.2114">
        <ele>1683</ele>
        <time>2010-01-01T03:43:12Z</time>
      </trkpt>
      <trkpt lat="42.32547" lon="2.21136">
        <ele>1683</ele>
        <time>2010-01-01T03:43:13Z</time>
      </trkpt>
      <trkpt lat="42.32548" lon="2.21133">
        <ele>1683</ele>
        <time>2010-01-01T03:43:14Z</time>
      </trkpt>
      <trkpt lat="42.32549" lon="2.21129">
        <ele>1683</ele>
        <time>2010-01-01T03:43:15Z</time>
      </trkpt>
      <trkpt lat="42.3255" lon="2.21126">
        <ele>1683</ele>
        <time>2010-01-01T03:43:16Z</time>
      </trkpt>
      <trkpt lat="42.32551" lon="2.21123">
        <ele>1682</ele>
        <time>2010-01-01T03:43:17Z</time>
      </trkpt>
      <trkpt lat="42.32552" lon="2.2112">
        <ele>1683</ele>
        <time>2010-01-01T03:43:18Z</time>
      </trkpt>
      <trkpt lat="42.32553" lon="2.21117">
        <ele>1683</ele>
        <time>2010-01-01T03:43:19Z</time>
      </trkpt>
      <trkpt lat="42.32554" lon="2.21114">
        <ele>1682</ele>
        <time>2010-01-01T03:43:20Z</time>
      </trkpt>
      <trkpt lat="42.32555" lon="2.2111">
        <ele>1682</ele>
        <time>2010-01-01T03:43:21Z</time>
      </trkpt>
      <trkpt lat="42.32556" lon="2.21107">
        <ele>1682</ele>
        <time>2010-01-01T03:43:22Z</time>
      </trkpt>
      <trkpt lat="42.32558" lon="2.21104">
        <ele>1681</ele>
        <time>2010-01-01T03:43:23Z</time>
      </trkpt>
      <trkpt lat="42.32559" lon="2.21101">
        <ele>1680</ele>
        <time>2010-01-01T03:43:24Z</time>
      </trkpt>
      <trkpt lat="42.3256" lon="2.21098">
        <ele>1680</ele>
        <time>2010-01-01T03:43:25Z</time>
      </trkpt>
      <trkpt lat="42.32561" lon="2.21094">
        <ele>1679</ele>
        <time>2010-01-01T03:43:26Z</time>
      </trkpt>
      <trkpt lat="42.32562" lon="2.21091">
        <ele>1678</ele>
        <time>2010-01-01T03:43:27Z</time>
      </trkpt>
      <trkpt lat="42.32563" lon="2.21088">
        <ele>1678</ele>
        <time>2010-01-01T03:43:28Z</time>
      </trkpt>
      <trkpt lat="42.32563" lon="2.21085">
        <ele>1677</ele>
        <time>2010-01-01T03:43:29Z</time>
      </trkpt>
      <trkpt lat="42.32565" lon="2.21082">
        <ele>1676</ele>
        <time>2010-01-01T03:43:30Z</time>
      </trkpt>
      <trkpt lat="42.32566" lon="2.21079">
        <ele>1676</ele>
        <time>2010-01-01T03:43:31Z</time>
      </trkpt>
      <trkpt lat="42.32567" lon="2.21076">
        <ele>1676</ele>
        <time>2010-01-01T03:43:32Z</time>
      </trkpt>
      <trkpt lat="42.32569" lon="2.21074">
        <ele>1675</ele>
        <time>2010-01-01T03:43:33Z</time>
      </trkpt>
      <trkpt lat="42.3257" lon="2.21071">
        <ele>1675</ele>
        <time>2010-01-01T03:43:34Z</time>
      </trkpt>
      <trkpt lat="42.32572" lon="2.21068">
        <ele>1674</ele>
        <time>2010-01-01T03:43:35Z</time>
      </trkpt>
      <trkpt lat="42.32573" lon="2.21065">
        <ele>1674</ele>
        <time>2010-01-01T03:43:36Z</time>
      </trkpt>
      <trkpt lat="42.32575" lon="2.21063">
        <ele>1674</ele>
        <time>2010-01-01T03:43:37Z</time>
      </trkpt>
      <trkpt lat="42.32576" lon="2.2106">
        <ele>1674</ele>
        <time>2010-01-01T03:43:38Z</time>
      </trkpt>
      <trkpt lat="42.32578" lon="2.21057">
        <ele>1674</ele>
        <time>2010-01-01T03:43:39Z</time>
      </trkpt>
      <trkpt lat="42.32579" lon="2.21055">
        <ele>1674</ele>
        <time>2010-01-01T03:43:40Z</time>
      </trkpt>
      <trkpt lat="42.32581" lon="2.21052">
        <ele>1673</ele>
        <time>2010-01-01T03:43:41Z</time>
      </trkpt>
      <trkpt lat="42.32583" lon="2.2105">
        <ele>1673</ele>
        <time>2010-01-01T03:43:42Z</time>
      </trkpt>
      <trkpt lat="42.32585" lon="2.21048">
        <ele>1673</ele>
        <time>2010-01-01T03:43:43Z</time>
      </trkpt>
      <trkpt lat="42.32587" lon="2.21045">
        <ele>1673</ele>
        <time>2010-01-01T03:43:44Z</time>
      </trkpt>
      <trkpt lat="42.32589" lon="2.21042">
        <ele>1672</ele>
        <time>2010-01-01T03:43:46Z</time>
      </trkpt>
      <trkpt lat="42.32591" lon="2.2104">
        <ele>1672</ele>
        <time>2010-01-01T03:43:47Z</time>
      </trkpt>
      <trkpt lat="42.32592" lon="2.21038">
        <ele>1672</ele>
        <time>2010-01-01T03:43:48Z</time>
      </trkpt>
      <trkpt lat="42.32594" lon="2.21035">
        <ele>1672</ele>
        <time>2010-01-01T03:43:49Z</time>
      </trkpt>
      <trkpt lat="42.32596" lon="2.21033">
        <ele>1672</ele>
        <time>2010-01-01T03:43:50Z</time>
      </trkpt>
      <trkpt lat="42.32598" lon="2.21031">
        <ele>1672</ele>
        <time>2010-01-01T03:43:51Z</time>
      </trkpt>
      <trkpt lat="42.326" lon="2.21028">
        <ele>1672</ele>
        <time>2010-01-01T03:43:52Z</time>
      </trkpt>
      <trkpt lat="42.32602" lon="2.21026">
        <ele>1673</ele>
        <time>2010-01-01T03:43:53Z</time>
      </trkpt>
      <trkpt lat="42.32604" lon="2.21024">
        <ele>1673</ele>
        <time>2010-01-01T03:43:54Z</time>
      </trkpt>
      <trkpt lat="42.32606" lon="2.21021">
        <ele>1673</ele>
        <time>2010-01-01T03:43:55Z</time>
      </trkpt>
      <trkpt lat="42.32608" lon="2.21019">
        <ele>1673</ele>
        <time>2010-01-01T03:43:56Z</time>
      </trkpt>
      <trkpt lat="42.3261" lon="2.21016">
        <ele>1673</ele>
        <time>2010-01-01T03:43:57Z</time>
      </trkpt>
      <trkpt lat="42.32611" lon="2.21014">
        <ele>1673</ele>
        <time>2010-01-01T03:43:58Z</time>
      </trkpt>
      <trkpt lat="42.32613" lon="2.21012">
        <ele>1673</ele>
        <time>2010-01-01T03:43:59Z</time>
      </trkpt>
      <trkpt lat="42.32615" lon="2.21009">
        <ele>1673</ele>
        <time>2010-01-01T03:44:00Z</time>
      </trkpt>
      <trkpt lat="42.32617" lon="2.21006">
        <ele>1672</ele>
        <time>2010-01-01T03:44:01Z</time>
      </trkpt>
      <trkpt lat="42.32619" lon="2.21004">
        <ele>1672</ele>
        <time>2010-01-01T03:44:02Z</time>
      </trkpt>
      <trkpt lat="42.3262" lon="2.21001">
        <ele>1672</ele>
        <time>2010-01-01T03:44:03Z</time>
      </trkpt>
      <trkpt lat="42.32622" lon="2.20999">
        <ele>1672</ele>
        <time>2010-01-01T03:44:04Z</time>
      </trkpt>
      <trkpt lat="42.32624" lon="2.20996">
        <ele>1672</ele>
        <time>2010-01-01T03:44:05Z</time>
      </trkpt>
      <trkpt lat="42.32625" lon="2.20994">
        <ele>1672</ele>
        <time>2010-01-01T03:44:06Z</time>
      </trkpt>
      <trkpt lat="42.32627" lon="2.20991">
        <ele>1671</ele>
        <time>2010-01-01T03:44:07Z</time>
      </trkpt>
      <trkpt lat="42.32629" lon="2.20988">
        <ele>1671</ele>
        <time>2010-01-01T03:44:08Z</time>
      </trkpt>
      <trkpt lat="42.3263" lon="2.20985">
        <ele>1671</ele>
        <time>2010-01-01T03:44:09Z</time>
      </trkpt>
      <trkpt lat="42.32632" lon="2.20983">
        <ele>1671</ele>
        <time>2010-01-01T03:44:10Z</time>
      </trkpt>
      <trkpt lat="42.32633" lon="2.2098">
        <ele>1671</ele>
        <time>2010-01-01T03:44:11Z</time>
      </trkpt>
      <trkpt lat="42.32635" lon="2.20977">
        <ele>1670</ele>
        <time>2010-01-01T03:44:12Z</time>
      </trkpt>
      <trkpt lat="42.32636" lon="2.20975">
        <ele>1670</ele>
        <time>2010-01-01T03:44:13Z</time>
      </trkpt>
      <trkpt lat="42.32638" lon="2.20973">
        <ele>1670</ele>
        <time>2010-01-01T03:44:14Z</time>
      </trkpt>
      <trkpt lat="42.3264" lon="2.2097">
        <ele>1670</ele>
        <time>2010-01-01T03:44:15Z</time>
      </trkpt>
      <trkpt lat="42.32641" lon="2.20968">
        <ele>1670</ele>
        <time>2010-01-01T03:44:16Z</time>
      </trkpt>
      <trkpt lat="42.32643" lon="2.20965">
        <ele>1670</ele>
        <time>2010-01-01T03:44:17Z</time>
      </trkpt>
      <trkpt lat="42.32644" lon="2.20962">
        <ele>1670</ele>
        <time>2010-01-01T03:44:18Z</time>
      </trkpt>
      <trkpt lat="42.32645" lon="2.2096">
        <ele>1670</ele>
        <time>2010-01-01T03:44:19Z</time>
      </trkpt>
      <trkpt lat="42.32647" lon="2.20957">
        <ele>1670</ele>
        <time>2010-01-01T03:44:20Z</time>
      </trkpt>
      <trkpt lat="42.32648" lon="2.20954">
        <ele>1670</ele>
        <time>2010-01-01T03:44:21Z</time>
      </trkpt>
      <trkpt lat="42.3265" lon="2.20951">
        <ele>1670</ele>
        <time>2010-01-01T03:44:22Z</time>
      </trkpt>
      <trkpt lat="42.32651" lon="2.20949">
        <ele>1670</ele>
        <time>2010-01-01T03:44:23Z</time>
      </trkpt>
      <trkpt lat="42.32652" lon="2.20946">
        <ele>1669</ele>
        <time>2010-01-01T03:44:24Z</time>
      </trkpt>
      <trkpt lat="42.32654" lon="2.20943">
        <ele>1669</ele>
        <time>2010-01-01T03:44:25Z</time>
      </trkpt>
      <trkpt lat="42.32655" lon="2.2094">
        <ele>1669</ele>
        <time>2010-01-01T03:44:26Z</time>
      </trkpt>
      <trkpt lat="42.32656" lon="2.20937">
        <ele>1669</ele>
        <time>2010-01-01T03:44:27Z</time>
      </trkpt>
      <trkpt lat="42.32657" lon="2.20934">
        <ele>1669</ele>
        <time>2010-01-01T03:44:28Z</time>
      </trkpt>
      <trkpt lat="42.32658" lon="2.20931">
        <ele>1669</ele>
        <time>2010-01-01T03:44:29Z</time>
      </trkpt>
      <trkpt lat="42.32659" lon="2.20928">
        <ele>1669</ele>
        <time>2010-01-01T03:44:30Z</time>
      </trkpt>
      <trkpt lat="42.3266" lon="2.20925">
        <ele>1669</ele>
        <time>2010-01-01T03:44:31Z</time>
      </trkpt>
      <trkpt lat="42.32661" lon="2.20921">
        <ele>1668</ele>
        <time>2010-01-01T03:44:32Z</time>
      </trkpt>
      <trkpt lat="42.32662" lon="2.20918">
        <ele>1668</ele>
        <time>2010-01-01T03:44:33Z</time>
      </trkpt>
      <trkpt lat="42.32663" lon="2.20915">
        <ele>1668</ele>
        <time>2010-01-01T03:44:34Z</time>
      </trkpt>
      <trkpt lat="42.32664" lon="2.20912">
        <ele>1668</ele>
        <time>2010-01-01T03:44:35Z</time>
      </trkpt>
      <trkpt lat="42.32665" lon="2.20908">
        <ele>1668</ele>
        <time>2010-01-01T03:44:36Z</time>
      </trkpt>
      <trkpt lat="42.32665" lon="2.20905">
        <ele>1668</ele>
        <time>2010-01-01T03:44:37Z</time>
      </trkpt>
      <trkpt lat="42.32666" lon="2.20902">
        <ele>1668</ele>
        <time>2010-01-01T03:44:38Z</time>
      </trkpt>
      <trkpt lat="42.32666" lon="2.20899">
        <ele>1668</ele>
        <time>2010-01-01T03:44:39Z</time>
      </trkpt>
      <trkpt lat="42.32666" lon="2.20892">
        <ele>1668</ele>
        <time>2010-01-01T03:44:41Z</time>
      </trkpt>
      <trkpt lat="42.32666" lon="2.20888">
        <ele>1667</ele>
        <time>2010-01-01T03:44:42Z</time>
      </trkpt>
      <trkpt lat="42.32666" lon="2.20884">
        <ele>1668</ele>
        <time>2010-01-01T03:44:43Z</time>
      </trkpt>
      <trkpt lat="42.32665" lon="2.20881">
        <ele>1668</ele>
        <time>2010-01-01T03:44:44Z</time>
      </trkpt>
      <trkpt lat="42.32664" lon="2.20878">
        <ele>1668</ele>
        <time>2010-01-01T03:44:45Z</time>
      </trkpt>
      <trkpt lat="42.32664" lon="2.20875">
        <ele>1668</ele>
        <time>2010-01-01T03:44:46Z</time>
      </trkpt>
      <trkpt lat="42.32663" lon="2.20872">
        <ele>1667</ele>
        <time>2010-01-01T03:44:47Z</time>
      </trkpt>
      <trkpt lat="42.32661" lon="2.20869">
        <ele>1667</ele>
        <time>2010-01-01T03:44:48Z</time>
      </trkpt>
      <trkpt lat="42.3266" lon="2.20866">
        <ele>1667</ele>
        <time>2010-01-01T03:44:49Z</time>
      </trkpt>
      <trkpt lat="42.32658" lon="2.20864">
        <ele>1666</ele>
        <time>2010-01-01T03:44:50Z</time>
      </trkpt>
      <trkpt lat="42.32656" lon="2.20861">
        <ele>1666</ele>
        <time>2010-01-01T03:44:51Z</time>
      </trkpt>
      <trkpt lat="42.32654" lon="2.20859">
        <ele>1665</ele>
        <time>2010-01-01T03:44:52Z</time>
      </trkpt>
      <trkpt lat="42.32652" lon="2.20857">
        <ele>1665</ele>
        <time>2010-01-01T03:44:54Z</time>
      </trkpt>
      <trkpt lat="42.3265" lon="2.20855">
        <ele>1665</ele>
        <time>2010-01-01T03:44:55Z</time>
      </trkpt>
      <trkpt lat="42.32648" lon="2.20853">
        <ele>1664</ele>
        <time>2010-01-01T03:44:56Z</time>
      </trkpt>
      <trkpt lat="42.32646" lon="2.2085">
        <ele>1664</ele>
        <time>2010-01-01T03:44:57Z</time>
      </trkpt>
      <trkpt lat="42.32644" lon="2.20848">
        <ele>1663</ele>
        <time>2010-01-01T03:44:58Z</time>
      </trkpt>
      <trkpt lat="42.32643" lon="2.20846">
        <ele>1663</ele>
        <time>2010-01-01T03:44:58Z</time>
      </trkpt>
      <trkpt lat="42.32641" lon="2.20845">
        <ele>1662</ele>
        <time>2010-01-01T03:44:59Z</time>
      </trkpt>
      <trkpt lat="42.32639" lon="2.20843">
        <ele>1662</ele>
        <time>2010-01-01T03:45:00Z</time>
      </trkpt>
      <trkpt lat="42.32637" lon="2.20841">
        <ele>1662</ele>
        <time>2010-01-01T03:45:01Z</time>
      </trkpt>
      <trkpt lat="42.32635" lon="2.20839">
        <ele>1661</ele>
        <time>2010-01-01T03:45:02Z</time>
      </trkpt>
      <trkpt lat="42.32632" lon="2.20837">
        <ele>1661</ele>
        <time>2010-01-01T03:45:03Z</time>
      </trkpt>
      <trkpt lat="42.3263" lon="2.20836">
        <ele>1660</ele>
        <time>2010-01-01T03:45:04Z</time>
      </trkpt>
      <trkpt lat="42.32628" lon="2.20834">
        <ele>1659</ele>
        <time>2010-01-01T03:45:05Z</time>
      </trkpt>
      <trkpt lat="42.32626" lon="2.20832">
        <ele>1659</ele>
        <time>2010-01-01T03:45:06Z</time>
      </trkpt>
      <trkpt lat="42.32624" lon="2.2083">
        <ele>1658</ele>
        <time>2010-01-01T03:45:07Z</time>
      </trkpt>
      <trkpt lat="42.32622" lon="2.20828">
        <ele>1658</ele>
        <time>2010-01-01T03:45:08Z</time>
      </trkpt>
      <trkpt lat="42.32619" lon="2.20826">
        <ele>1658</ele>
        <time>2010-01-01T03:45:10Z</time>
      </trkpt>
      <trkpt lat="42.32617" lon="2.20824">
        <ele>1657</ele>
        <time>2010-01-01T03:45:11Z</time>
      </trkpt>
      <trkpt lat="42.32615" lon="2.20822">
        <ele>1657</ele>
        <time>2010-01-01T03:45:12Z</time>
      </trkpt>
      <trkpt lat="42.32612" lon="2.2082">
        <ele>1657</ele>
        <time>2010-01-01T03:45:13Z</time>
      </trkpt>
      <trkpt lat="42.32611" lon="2.20818">
        <ele>1657</ele>
        <time>2010-01-01T03:45:14Z</time>
      </trkpt>
      <trkpt lat="42.32608" lon="2.20816">
        <ele>1657</ele>
        <time>2010-01-01T03:45:15Z</time>
      </trkpt>
      <trkpt lat="42.32606" lon="2.20814">
        <ele>1656</ele>
        <time>2010-01-01T03:45:16Z</time>
      </trkpt>
      <trkpt lat="42.32605" lon="2.20812">
        <ele>1656</ele>
        <time>2010-01-01T03:45:17Z</time>
      </trkpt>
      <trkpt lat="42.32603" lon="2.2081">
        <ele>1656</ele>
        <time>2010-01-01T03:45:18Z</time>
      </trkpt>
      <trkpt lat="42.32601" lon="2.20808">
        <ele>1656</ele>
        <time>2010-01-01T03:45:19Z</time>
      </trkpt>
      <trkpt lat="42.32598" lon="2.20807">
        <ele>1656</ele>
        <time>2010-01-01T03:45:20Z</time>
      </trkpt>
      <trkpt lat="42.32596" lon="2.20804">
        <ele>1655</ele>
        <time>2010-01-01T03:45:21Z</time>
      </trkpt>
      <trkpt lat="42.32594" lon="2.20802">
        <ele>1655</ele>
        <time>2010-01-01T03:45:22Z</time>
      </trkpt>
      <trkpt lat="42.32592" lon="2.20801">
        <ele>1655</ele>
        <time>2010-01-01T03:45:23Z</time>
      </trkpt>
      <trkpt lat="42.3259" lon="2.20799">
        <ele>1655</ele>
        <time>2010-01-01T03:45:24Z</time>
      </trkpt>
      <trkpt lat="42.32588" lon="2.20797">
        <ele>1654</ele>
        <time>2010-01-01T03:45:25Z</time>
      </trkpt>
      <trkpt lat="42.32585" lon="2.20795">
        <ele>1654</ele>
        <time>2010-01-01T03:45:26Z</time>
      </trkpt>
      <trkpt lat="42.32583" lon="2.20793">
        <ele>1654</ele>
        <time>2010-01-01T03:45:27Z</time>
      </trkpt>
      <trkpt lat="42.32581" lon="2.20791">
        <ele>1653</ele>
        <time>2010-01-01T03:45:28Z</time>
      </trkpt>
      <trkpt lat="42.32579" lon="2.2079">
        <ele>1653</ele>
        <time>2010-01-01T03:45:29Z</time>
      </trkpt>
      <trkpt lat="42.32577" lon="2.20789">
        <ele>1652</ele>
        <time>2010-01-01T03:45:30Z</time>
      </trkpt>
      <trkpt lat="42.32575" lon="2.20787">
        <ele>1652</ele>
        <time>2010-01-01T03:45:31Z</time>
      </trkpt>
      <trkpt lat="42.32573" lon="2.20785">
        <ele>1651</ele>
        <time>2010-01-01T03:45:32Z</time>
      </trkpt>
      <trkpt lat="42.3257" lon="2.20783">
        <ele>1651</ele>
        <time>2010-01-01T03:45:33Z</time>
      </trkpt>
      <trkpt lat="42.32568" lon="2.20781">
        <ele>1650</ele>
        <time>2010-01-01T03:45:34Z</time>
      </trkpt>
      <trkpt lat="42.32566" lon="2.20779">
        <ele>1649</ele>
        <time>2010-01-01T03:45:35Z</time>
      </trkpt>
      <trkpt lat="42.32564" lon="2.20777">
        <ele>1649</ele>
        <time>2010-01-01T03:45:36Z</time>
      </trkpt>
      <trkpt lat="42.32562" lon="2.20774">
        <ele>1648</ele>
        <time>2010-01-01T03:45:37Z</time>
      </trkpt>
      <trkpt lat="42.3256" lon="2.20772">
        <ele>1647</ele>
        <time>2010-01-01T03:45:38Z</time>
      </trkpt>
      <trkpt lat="42.32558" lon="2.2077">
        <ele>1647</ele>
        <time>2010-01-01T03:45:39Z</time>
      </trkpt>
      <trkpt lat="42.32556" lon="2.20767">
        <ele>1646</ele>
        <time>2010-01-01T03:45:40Z</time>
      </trkpt>
      <trkpt lat="42.32554" lon="2.20765">
        <ele>1645</ele>
        <time>2010-01-01T03:45:42Z</time>
      </trkpt>
      <trkpt lat="42.32552" lon="2.20762">
        <ele>1645</ele>
        <time>2010-01-01T03:45:43Z</time>
      </trkpt>
      <trkpt lat="42.32551" lon="2.20759">
        <ele>1644</ele>
        <time>2010-01-01T03:45:44Z</time>
      </trkpt>
      <trkpt lat="42.32549" lon="2.20756">
        <ele>1644</ele>
        <time>2010-01-01T03:45:45Z</time>
      </trkpt>
      <trkpt lat="42.32547" lon="2.20753">
        <ele>1643</ele>
        <time>2010-01-01T03:45:46Z</time>
      </trkpt>
      <trkpt lat="42.32545" lon="2.20751">
        <ele>1643</ele>
        <time>2010-01-01T03:45:47Z</time>
      </trkpt>
      <trkpt lat="42.32544" lon="2.20748">
        <ele>1643</ele>
        <time>2010-01-01T03:45:48Z</time>
      </trkpt>
      <trkpt lat="42.32543" lon="2.20745">
        <ele>1643</ele>
        <time>2010-01-01T03:45:49Z</time>
      </trkpt>
      <trkpt lat="42.32541" lon="2.20742">
        <ele>1643</ele>
        <time>2010-01-01T03:45:50Z</time>
      </trkpt>
      <trkpt lat="42.3254" lon="2.20739">
        <ele>1643</ele>
        <time>2010-01-01T03:45:51Z</time>
      </trkpt>
      <trkpt lat="42.32539" lon="2.20736">
        <ele>1643</ele>
        <time>2010-01-01T03:45:52Z</time>
      </trkpt>
      <trkpt lat="42.32538" lon="2.20733">
        <ele>1643</ele>
        <time>2010-01-01T03:45:53Z</time>
      </trkpt>
      <trkpt lat="42.32536" lon="2.2073">
        <ele>1643</ele>
        <time>2010-01-01T03:45:54Z</time>
      </trkpt>
      <trkpt lat="42.32535" lon="2.20727">
        <ele>1643</ele>
        <time>2010-01-01T03:45:55Z</time>
      </trkpt>
      <trkpt lat="42.32534" lon="2.20724">
        <ele>1642</ele>
        <time>2010-01-01T03:45:56Z</time>
      </trkpt>
      <trkpt lat="42.32532" lon="2.20721">
        <ele>1642</ele>
        <time>2010-01-01T03:45:57Z</time>
      </trkpt>
      <trkpt lat="42.32531" lon="2.20717">
        <ele>1642</ele>
        <time>2010-01-01T03:45:58Z</time>
      </trkpt>
      <trkpt lat="42.32529" lon="2.20714">
        <ele>1641</ele>
        <time>2010-01-01T03:45:59Z</time>
      </trkpt>
      <trkpt lat="42.32528" lon="2.20712">
        <ele>1641</ele>
        <time>2010-01-01T03:46:00Z</time>
      </trkpt>
      <trkpt lat="42.32527" lon="2.20709">
        <ele>1641</ele>
        <time>2010-01-01T03:46:01Z</time>
      </trkpt>
      <trkpt lat="42.32525" lon="2.20706">
        <ele>1641</ele>
        <time>2010-01-01T03:46:03Z</time>
      </trkpt>
      <trkpt lat="42.32524" lon="2.20703">
        <ele>1640</ele>
        <time>2010-01-01T03:46:03Z</time>
      </trkpt>
      <trkpt lat="42.32522" lon="2.20701">
        <ele>1640</ele>
        <time>2010-01-01T03:46:04Z</time>
      </trkpt>
      <trkpt lat="42.32521" lon="2.20698">
        <ele>1640</ele>
        <time>2010-01-01T03:46:05Z</time>
      </trkpt>
      <trkpt lat="42.32519" lon="2.20696">
        <ele>1639</ele>
        <time>2010-01-01T03:46:06Z</time>
      </trkpt>
      <trkpt lat="42.32518" lon="2.20693">
        <ele>1639</ele>
        <time>2010-01-01T03:46:07Z</time>
      </trkpt>
      <trkpt lat="42.32516" lon="2.2069">
        <ele>1638</ele>
        <time>2010-01-01T03:46:08Z</time>
      </trkpt>
      <trkpt lat="42.32515" lon="2.20687">
        <ele>1638</ele>
        <time>2010-01-01T03:46:09Z</time>
      </trkpt>
      <trkpt lat="42.32513" lon="2.20684">
        <ele>1638</ele>
        <time>2010-01-01T03:46:11Z</time>
      </trkpt>
      <trkpt lat="42.32512" lon="2.20681">
        <ele>1637</ele>
        <time>2010-01-01T03:46:12Z</time>
      </trkpt>
      <trkpt lat="42.32511" lon="2.20677">
        <ele>1637</ele>
        <time>2010-01-01T03:46:13Z</time>
      </trkpt>
      <trkpt lat="42.3251" lon="2.20674">
        <ele>1637</ele>
        <time>2010-01-01T03:46:14Z</time>
      </trkpt>
      <trkpt lat="42.3251" lon="2.2067">
        <ele>1637</ele>
        <time>2010-01-01T03:46:15Z</time>
      </trkpt>
      <trkpt lat="42.32509" lon="2.20666">
        <ele>1637</ele>
        <time>2010-01-01T03:46:16Z</time>
      </trkpt>
      <trkpt lat="42.3251" lon="2.20662">
        <ele>1637</ele>
        <time>2010-01-01T03:46:17Z</time>
      </trkpt>
      <trkpt lat="42.3251" lon="2.20659">
        <ele>1637</ele>
        <time>2010-01-01T03:46:18Z</time>
      </trkpt>
      <trkpt lat="42.3251" lon="2.20655">
        <ele>1636</ele>
        <time>2010-01-01T03:46:19Z</time>
      </trkpt>
      <trkpt lat="42.32511" lon="2.20651">
        <ele>1636</ele>
        <time>2010-01-01T03:46:21Z</time>
      </trkpt>
      <trkpt lat="42.32512" lon="2.20647">
        <ele>1636</ele>
        <time>2010-01-01T03:46:22Z</time>
      </trkpt>
      <trkpt lat="42.32513" lon="2.20643">
        <ele>1636</ele>
        <time>2010-01-01T03:46:23Z</time>
      </trkpt>
      <trkpt lat="42.32514" lon="2.20639">
        <ele>1636</ele>
        <time>2010-01-01T03:46:24Z</time>
      </trkpt>
      <trkpt lat="42.32515" lon="2.20636">
        <ele>1637</ele>
        <time>2010-01-01T03:46:25Z</time>
      </trkpt>
      <trkpt lat="42.32516" lon="2.20632">
        <ele>1637</ele>
        <time>2010-01-01T03:46:27Z</time>
      </trkpt>
      <trkpt lat="42.32517" lon="2.20629">
        <ele>1637</ele>
        <time>2010-01-01T03:46:28Z</time>
      </trkpt>
      <trkpt lat="42.32518" lon="2.20625">
        <ele>1637</ele>
        <time>2010-01-01T03:46:29Z</time>
      </trkpt>
      <trkpt lat="42.32519" lon="2.20622">
        <ele>1637</ele>
        <time>2010-01-01T03:46:30Z</time>
      </trkpt>
      <trkpt lat="42.3252" lon="2.20618">
        <ele>1638</ele>
        <time>2010-01-01T03:46:31Z</time>
      </trkpt>
      <trkpt lat="42.3252" lon="2.20614">
        <ele>1638</ele>
        <time>2010-01-01T03:46:32Z</time>
      </trkpt>
      <trkpt lat="42.32521" lon="2.20611">
        <ele>1638</ele>
        <time>2010-01-01T03:46:33Z</time>
      </trkpt>
      <trkpt lat="42.32522" lon="2.20608">
        <ele>1638</ele>
        <time>2010-01-01T03:46:34Z</time>
      </trkpt>
      <trkpt lat="42.32523" lon="2.20604">
        <ele>1638</ele>
        <time>2010-01-01T03:46:35Z</time>
      </trkpt>
      <trkpt lat="42.32524" lon="2.206">
        <ele>1638</ele>
        <time>2010-01-01T03:46:37Z</time>
      </trkpt>
      <trkpt lat="42.32525" lon="2.20597">
        <ele>1637</ele>
        <time>2010-01-01T03:46:38Z</time>
      </trkpt>
      <trkpt lat="42.32526" lon="2.20593">
        <ele>1637</ele>
        <time>2010-01-01T03:46:39Z</time>
      </trkpt>
      <trkpt lat="42.32527" lon="2.20589">
        <ele>1637</ele>
        <time>2010-01-01T03:46:40Z</time>
      </trkpt>
      <trkpt lat="42.32528" lon="2.20586">
        <ele>1637</ele>
        <time>2010-01-01T03:46:41Z</time>
      </trkpt>
      <trkpt lat="42.32529" lon="2.20582">
        <ele>1637</ele>
        <time>2010-01-01T03:46:42Z</time>
      </trkpt>
      <trkpt lat="42.3253" lon="2.20579">
        <ele>1637</ele>
        <time>2010-01-01T03:46:43Z</time>
      </trkpt>
      <trkpt lat="42.32532" lon="2.20576">
        <ele>1637</ele>
        <time>2010-01-01T03:46:44Z</time>
      </trkpt>
      <trkpt lat="42.32533" lon="2.20572">
        <ele>1637</ele>
        <time>2010-01-01T03:46:45Z</time>
      </trkpt>
      <trkpt lat="42.32534" lon="2.20569">
        <ele>1637</ele>
        <time>2010-01-01T03:46:46Z</time>
      </trkpt>
      <trkpt lat="42.32535" lon="2.20566">
        <ele>1637</ele>
        <time>2010-01-01T03:46:48Z</time>
      </trkpt>
      <trkpt lat="42.32536" lon="2.20563">
        <ele>1637</ele>
        <time>2010-01-01T03:46:49Z</time>
      </trkpt>
      <trkpt lat="42.32537" lon="2.20559">
        <ele>1637</ele>
        <time>2010-01-01T03:46:50Z</time>
      </trkpt>
      <trkpt lat="42.32538" lon="2.20556">
        <ele>1637</ele>
        <time>2010-01-01T03:46:51Z</time>
      </trkpt>
      <trkpt lat="42.32539" lon="2.20552">
        <ele>1637</ele>
        <time>2010-01-01T03:46:52Z</time>
      </trkpt>
      <trkpt lat="42.3254" lon="2.20549">
        <ele>1637</ele>
        <time>2010-01-01T03:46:53Z</time>
      </trkpt>
      <trkpt lat="42.32541" lon="2.20546">
        <ele>1637</ele>
        <time>2010-01-01T03:46:54Z</time>
      </trkpt>
      <trkpt lat="42.32542" lon="2.20542">
        <ele>1637</ele>
        <time>2010-01-01T03:46:55Z</time>
      </trkpt>
      <trkpt lat="42.32543" lon="2.20539">
        <ele>1637</ele>
        <time>2010-01-01T03:46:56Z</time>
      </trkpt>
      <trkpt lat="42.32544" lon="2.20536">
        <ele>1637</ele>
        <time>2010-01-01T03:46:57Z</time>
      </trkpt>
      <trkpt lat="42.32545" lon="2.20532">
        <ele>1637</ele>
        <time>2010-01-01T03:46:58Z</time>
      </trkpt>
      <trkpt lat="42.32547" lon="2.20529">
        <ele>1637</ele>
        <time>2010-01-01T03:47:00Z</time>
      </trkpt>
      <trkpt lat="42.32548" lon="2.20525">
        <ele>1637</ele>
        <time>2010-01-01T03:47:01Z</time>
      </trkpt>
      <trkpt lat="42.32549" lon="2.20522">
        <ele>1637</ele>
        <time>2010-01-01T03:47:02Z</time>
      </trkpt>
      <trkpt lat="42.3255" lon="2.20518">
        <ele>1637</ele>
        <time>2010-01-01T03:47:03Z</time>
      </trkpt>
      <trkpt lat="42.32551" lon="2.20515">
        <ele>1637</ele>
        <time>2010-01-01T03:47:04Z</time>
      </trkpt>
      <trkpt lat="42.32552" lon="2.20512">
        <ele>1636</ele>
        <time>2010-01-01T03:47:05Z</time>
      </trkpt>
      <trkpt lat="42.32553" lon="2.20509">
        <ele>1636</ele>
        <time>2010-01-01T03:47:06Z</time>
      </trkpt>
      <trkpt lat="42.32554" lon="2.20506">
        <ele>1636</ele>
        <time>2010-01-01T03:47:07Z</time>
      </trkpt>
      <trkpt lat="42.32555" lon="2.20502">
        <ele>1636</ele>
        <time>2010-01-01T03:47:08Z</time>
      </trkpt>
      <trkpt lat="42.32556" lon="2.20499">
        <ele>1635</ele>
        <time>2010-01-01T03:47:09Z</time>
      </trkpt>
      <trkpt lat="42.32556" lon="2.20496">
        <ele>1635</ele>
        <time>2010-01-01T03:47:10Z</time>
      </trkpt>
      <trkpt lat="42.32558" lon="2.20493">
        <ele>1635</ele>
        <time>2010-01-01T03:47:11Z</time>
      </trkpt>
      <trkpt lat="42.32559" lon="2.2049">
        <ele>1635</ele>
        <time>2010-01-01T03:47:12Z</time>
      </trkpt>
      <trkpt lat="42.32559" lon="2.20486">
        <ele>1634</ele>
        <time>2010-01-01T03:47:13Z</time>
      </trkpt>
      <trkpt lat="42.3256" lon="2.20483">
        <ele>1634</ele>
        <time>2010-01-01T03:47:14Z</time>
      </trkpt>
      <trkpt lat="42.32561" lon="2.2048">
        <ele>1634</ele>
        <time>2010-01-01T03:47:15Z</time>
      </trkpt>
      <trkpt lat="42.32562" lon="2.20476">
        <ele>1634</ele>
        <time>2010-01-01T03:47:16Z</time>
      </trkpt>
      <trkpt lat="42.32563" lon="2.20472">
        <ele>1633</ele>
        <time>2010-01-01T03:47:18Z</time>
      </trkpt>
      <trkpt lat="42.32564" lon="2.20468">
        <ele>1633</ele>
        <time>2010-01-01T03:47:19Z</time>
      </trkpt>
      <trkpt lat="42.32564" lon="2.20465">
        <ele>1633</ele>
        <time>2010-01-01T03:47:20Z</time>
      </trkpt>
      <trkpt lat="42.32564" lon="2.20461">
        <ele>1633</ele>
        <time>2010-01-01T03:47:21Z</time>
      </trkpt>
      <trkpt lat="42.32564" lon="2.20457">
        <ele>1633</ele>
        <time>2010-01-01T03:47:22Z</time>
      </trkpt>
      <trkpt lat="42.32564" lon="2.20454">
        <ele>1632</ele>
        <time>2010-01-01T03:47:23Z</time>
      </trkpt>
      <trkpt lat="42.32563" lon="2.2045">
        <ele>1632</ele>
        <time>2010-01-01T03:47:24Z</time>
      </trkpt>
      <trkpt lat="42.32561" lon="2.20447">
        <ele>1631</ele>
        <time>2010-01-01T03:47:25Z</time>
      </trkpt>
      <trkpt lat="42.3256" lon="2.20444">
        <ele>1630</ele>
        <time>2010-01-01T03:47:27Z</time>
      </trkpt>
      <trkpt lat="42.32557" lon="2.20442">
        <ele>1630</ele>
        <time>2010-01-01T03:47:28Z</time>
      </trkpt>
      <trkpt lat="42.32555" lon="2.2044">
        <ele>1629</ele>
        <time>2010-01-01T03:47:29Z</time>
      </trkpt>
      <trkpt lat="42.32553" lon="2.20438">
        <ele>1628</ele>
        <time>2010-01-01T03:47:30Z</time>
      </trkpt>
      <trkpt lat="42.32551" lon="2.20437">
        <ele>1628</ele>
        <time>2010-01-01T03:47:31Z</time>
      </trkpt>
      <trkpt lat="42.32549" lon="2.20435">
        <ele>1627</ele>
        <time>2010-01-01T03:47:32Z</time>
      </trkpt>
      <trkpt lat="42.32546" lon="2.20434">
        <ele>1627</ele>
        <time>2010-01-01T03:47:33Z</time>
      </trkpt>
      <trkpt lat="42.32544" lon="2.20433">
        <ele>1626</ele>
        <time>2010-01-01T03:47:34Z</time>
      </trkpt>
      <trkpt lat="42.32542" lon="2.20432">
        <ele>1625</ele>
        <time>2010-01-01T03:47:35Z</time>
      </trkpt>
      <trkpt lat="42.32539" lon="2.20431">
        <ele>1625</ele>
        <time>2010-01-01T03:47:35Z</time>
      </trkpt>
      <trkpt lat="42.32537" lon="2.2043">
        <ele>1624</ele>
        <time>2010-01-01T03:47:37Z</time>
      </trkpt>
      <trkpt lat="42.32535" lon="2.20428">
        <ele>1624</ele>
        <time>2010-01-01T03:47:38Z</time>
      </trkpt>
      <trkpt lat="42.32532" lon="2.20426">
        <ele>1623</ele>
        <time>2010-01-01T03:47:39Z</time>
      </trkpt>
      <trkpt lat="42.3253" lon="2.20425">
        <ele>1623</ele>
        <time>2010-01-01T03:47:40Z</time>
      </trkpt>
      <trkpt lat="42.32527" lon="2.20423">
        <ele>1623</ele>
        <time>2010-01-01T03:47:41Z</time>
      </trkpt>
      <trkpt lat="42.32525" lon="2.2042">
        <ele>1623</ele>
        <time>2010-01-01T03:47:42Z</time>
      </trkpt>
      <trkpt lat="42.32523" lon="2.20418">
        <ele>1623</ele>
        <time>2010-01-01T03:47:43Z</time>
      </trkpt>
      <trkpt lat="42.32521" lon="2.20415">
        <ele>1623</ele>
        <time>2010-01-01T03:47:44Z</time>
      </trkpt>
      <trkpt lat="42.3252" lon="2.20413">
        <ele>1623</ele>
        <time>2010-01-01T03:47:45Z</time>
      </trkpt>
      <trkpt lat="42.32518" lon="2.20409">
        <ele>1622</ele>
        <time>2010-01-01T03:47:46Z</time>
      </trkpt>
      <trkpt lat="42.32517" lon="2.20406">
        <ele>1622</ele>
        <time>2010-01-01T03:47:47Z</time>
      </trkpt>
      <trkpt lat="42.32516" lon="2.20403">
        <ele>1623</ele>
        <time>2010-01-01T03:47:48Z</time>
      </trkpt>
      <trkpt lat="42.32516" lon="2.20399">
        <ele>1623</ele>
        <time>2010-01-01T03:47:50Z</time>
      </trkpt>
      <trkpt lat="42.32515" lon="2.20395">
        <ele>1623</ele>
        <time>2010-01-01T03:47:51Z</time>
      </trkpt>
      <trkpt lat="42.32515" lon="2.20391">
        <ele>1623</ele>
        <time>2010-01-01T03:47:52Z</time>
      </trkpt>
      <trkpt lat="42.32515" lon="2.20384">
        <ele>1623</ele>
        <time>2010-01-01T03:47:54Z</time>
      </trkpt>
      <trkpt lat="42.32515" lon="2.2038">
        <ele>1623</ele>
        <time>2010-01-01T03:47:55Z</time>
      </trkpt>
      <trkpt lat="42.32514" lon="2.20377">
        <ele>1622</ele>
        <time>2010-01-01T03:47:56Z</time>
      </trkpt>
      <trkpt lat="42.32514" lon="2.20373">
        <ele>1622</ele>
        <time>2010-01-01T03:47:57Z</time>
      </trkpt>
      <trkpt lat="42.32514" lon="2.20369">
        <ele>1622</ele>
        <time>2010-01-01T03:47:59Z</time>
      </trkpt>
      <trkpt lat="42.32514" lon="2.20365">
        <ele>1621</ele>
        <time>2010-01-01T03:48:00Z</time>
      </trkpt>
      <trkpt lat="42.32514" lon="2.20361">
        <ele>1621</ele>
        <time>2010-01-01T03:48:01Z</time>
      </trkpt>
      <trkpt lat="42.32515" lon="2.20357">
        <ele>1621</ele>
        <time>2010-01-01T03:48:02Z</time>
      </trkpt>
      <trkpt lat="42.32515" lon="2.20353">
        <ele>1621</ele>
        <time>2010-01-01T03:48:03Z</time>
      </trkpt>
      <trkpt lat="42.32515" lon="2.2035">
        <ele>1620</ele>
        <time>2010-01-01T03:48:04Z</time>
      </trkpt>
      <trkpt lat="42.32514" lon="2.20346">
        <ele>1620</ele>
        <time>2010-01-01T03:48:05Z</time>
      </trkpt>
      <trkpt lat="42.32514" lon="2.20342">
        <ele>1620</ele>
        <time>2010-01-01T03:48:06Z</time>
      </trkpt>
      <trkpt lat="42.32514" lon="2.20339">
        <ele>1619</ele>
        <time>2010-01-01T03:48:07Z</time>
      </trkpt>
      <trkpt lat="42.32514" lon="2.20335">
        <ele>1619</ele>
        <time>2010-01-01T03:48:09Z</time>
      </trkpt>
      <trkpt lat="42.32513" lon="2.20332">
        <ele>1619</ele>
        <time>2010-01-01T03:48:10Z</time>
      </trkpt>
      <trkpt lat="42.32513" lon="2.20328">
        <ele>1618</ele>
        <time>2010-01-01T03:48:11Z</time>
      </trkpt>
      <trkpt lat="42.32512" lon="2.20325">
        <ele>1618</ele>
        <time>2010-01-01T03:48:12Z</time>
      </trkpt>
      <trkpt lat="42.32512" lon="2.20321">
        <ele>1618</ele>
        <time>2010-01-01T03:48:13Z</time>
      </trkpt>
      <trkpt lat="42.32512" lon="2.20318">
        <ele>1618</ele>
        <time>2010-01-01T03:48:14Z</time>
      </trkpt>
      <trkpt lat="42.32512" lon="2.20314">
        <ele>1617</ele>
        <time>2010-01-01T03:48:15Z</time>
      </trkpt>
      <trkpt lat="42.32511" lon="2.20311">
        <ele>1617</ele>
        <time>2010-01-01T03:48:16Z</time>
      </trkpt>
      <trkpt lat="42.32511" lon="2.20307">
        <ele>1617</ele>
        <time>2010-01-01T03:48:17Z</time>
      </trkpt>
      <trkpt lat="42.32511" lon="2.20303">
        <ele>1616</ele>
        <time>2010-01-01T03:48:18Z</time>
      </trkpt>
      <trkpt lat="42.32511" lon="2.203">
        <ele>1616</ele>
        <time>2010-01-01T03:48:19Z</time>
      </trkpt>
      <trkpt lat="42.3251" lon="2.20296">
        <ele>1615</ele>
        <time>2010-01-01T03:48:20Z</time>
      </trkpt>
      <trkpt lat="42.3251" lon="2.20292">
        <ele>1615</ele>
        <time>2010-01-01T03:48:21Z</time>
      </trkpt>
      <trkpt lat="42.32509" lon="2.20288">
        <ele>1614</ele>
        <time>2010-01-01T03:48:23Z</time>
      </trkpt>
      <trkpt lat="42.32509" lon="2.20285">
        <ele>1614</ele>
        <time>2010-01-01T03:48:24Z</time>
      </trkpt>
      <trkpt lat="42.32509" lon="2.20273">
        <ele>1613</ele>
        <time>2010-01-01T03:48:27Z</time>
      </trkpt>
      <trkpt lat="42.32509" lon="2.2027">
        <ele>1612</ele>
        <time>2010-01-01T03:48:28Z</time>
      </trkpt>
      <trkpt lat="42.3251" lon="2.20266">
        <ele>1612</ele>
        <time>2010-01-01T03:48:29Z</time>
      </trkpt>
      <trkpt lat="42.3251" lon="2.20262">
        <ele>1611</ele>
        <time>2010-01-01T03:48:30Z</time>
      </trkpt>
      <trkpt lat="42.32511" lon="2.20259">
        <ele>1611</ele>
        <time>2010-01-01T03:48:31Z</time>
      </trkpt>
      <trkpt lat="42.32511" lon="2.20255">
        <ele>1611</ele>
        <time>2010-01-01T03:48:33Z</time>
      </trkpt>
      <trkpt lat="42.32512" lon="2.20251">
        <ele>1610</ele>
        <time>2010-01-01T03:48:34Z</time>
      </trkpt>
      <trkpt lat="42.32512" lon="2.20247">
        <ele>1610</ele>
        <time>2010-01-01T03:48:35Z</time>
      </trkpt>
      <trkpt lat="42.32513" lon="2.20244">
        <ele>1610</ele>
        <time>2010-01-01T03:48:36Z</time>
      </trkpt>
      <trkpt lat="42.32514" lon="2.2024">
        <ele>1610</ele>
        <time>2010-01-01T03:48:37Z</time>
      </trkpt>
      <trkpt lat="42.32515" lon="2.20237">
        <ele>1609</ele>
        <time>2010-01-01T03:48:38Z</time>
      </trkpt>
      <trkpt lat="42.32516" lon="2.20233">
        <ele>1609</ele>
        <time>2010-01-01T03:48:39Z</time>
      </trkpt>
      <trkpt lat="42.32518" lon="2.2023">
        <ele>1609</ele>
        <time>2010-01-01T03:48:40Z</time>
      </trkpt>
      <trkpt lat="42.32519" lon="2.20226">
        <ele>1609</ele>
        <time>2010-01-01T03:48:42Z</time>
      </trkpt>
      <trkpt lat="42.3252" lon="2.20223">
        <ele>1609</ele>
        <time>2010-01-01T03:48:43Z</time>
      </trkpt>
      <trkpt lat="42.32522" lon="2.20219">
        <ele>1608</ele>
        <time>2010-01-01T03:48:44Z</time>
      </trkpt>
      <trkpt lat="42.32523" lon="2.20216">
        <ele>1608</ele>
        <time>2010-01-01T03:48:45Z</time>
      </trkpt>
      <trkpt lat="42.32524" lon="2.20213">
        <ele>1607</ele>
        <time>2010-01-01T03:48:46Z</time>
      </trkpt>
      <trkpt lat="42.32525" lon="2.20209">
        <ele>1607</ele>
        <time>2010-01-01T03:48:47Z</time>
      </trkpt>
      <trkpt lat="42.32527" lon="2.20206">
        <ele>1606</ele>
        <time>2010-01-01T03:48:48Z</time>
      </trkpt>
      <trkpt lat="42.32528" lon="2.20203">
        <ele>1606</ele>
        <time>2010-01-01T03:48:49Z</time>
      </trkpt>
      <trkpt lat="42.32529" lon="2.20199">
        <ele>1606</ele>
        <time>2010-01-01T03:48:51Z</time>
      </trkpt>
      <trkpt lat="42.32531" lon="2.20197">
        <ele>1606</ele>
        <time>2010-01-01T03:48:52Z</time>
      </trkpt>
      <trkpt lat="42.32533" lon="2.20194">
        <ele>1605</ele>
        <time>2010-01-01T03:48:53Z</time>
      </trkpt>
      <trkpt lat="42.32534" lon="2.20191">
        <ele>1605</ele>
        <time>2010-01-01T03:48:54Z</time>
      </trkpt>
      <trkpt lat="42.32536" lon="2.20188">
        <ele>1604</ele>
        <time>2010-01-01T03:48:55Z</time>
      </trkpt>
      <trkpt lat="42.32537" lon="2.20185">
        <ele>1604</ele>
        <time>2010-01-01T03:48:56Z</time>
      </trkpt>
      <trkpt lat="42.32539" lon="2.20182">
        <ele>1603</ele>
        <time>2010-01-01T03:48:57Z</time>
      </trkpt>
      <trkpt lat="42.32541" lon="2.20179">
        <ele>1603</ele>
        <time>2010-01-01T03:48:58Z</time>
      </trkpt>
      <trkpt lat="42.32543" lon="2.20176">
        <ele>1602</ele>
        <time>2010-01-01T03:48:59Z</time>
      </trkpt>
      <trkpt lat="42.32544" lon="2.20173">
        <ele>1602</ele>
        <time>2010-01-01T03:49:00Z</time>
      </trkpt>
      <trkpt lat="42.32546" lon="2.2017">
        <ele>1602</ele>
        <time>2010-01-01T03:49:01Z</time>
      </trkpt>
      <trkpt lat="42.32548" lon="2.20167">
        <ele>1602</ele>
        <time>2010-01-01T03:49:03Z</time>
      </trkpt>
      <trkpt lat="42.32549" lon="2.20165">
        <ele>1601</ele>
        <time>2010-01-01T03:49:04Z</time>
      </trkpt>
      <trkpt lat="42.32551" lon="2.20162">
        <ele>1601</ele>
        <time>2010-01-01T03:49:05Z</time>
      </trkpt>
      <trkpt lat="42.32553" lon="2.20159">
        <ele>1601</ele>
        <time>2010-01-01T03:49:06Z</time>
      </trkpt>
      <trkpt lat="42.32554" lon="2.20156">
        <ele>1600</ele>
        <time>2010-01-01T03:49:07Z</time>
      </trkpt>
      <trkpt lat="42.32556" lon="2.20153">
        <ele>1600</ele>
        <time>2010-01-01T03:49:08Z</time>
      </trkpt>
      <trkpt lat="42.32558" lon="2.2015">
        <ele>1599</ele>
        <time>2010-01-01T03:49:09Z</time>
      </trkpt>
      <trkpt lat="42.3256" lon="2.20147">
        <ele>1599</ele>
        <time>2010-01-01T03:49:10Z</time>
      </trkpt>
      <trkpt lat="42.32561" lon="2.20144">
        <ele>1599</ele>
        <time>2010-01-01T03:49:11Z</time>
      </trkpt>
      <trkpt lat="42.32563" lon="2.20142">
        <ele>1599</ele>
        <time>2010-01-01T03:49:12Z</time>
      </trkpt>
      <trkpt lat="42.32564" lon="2.20138">
        <ele>1598</ele>
        <time>2010-01-01T03:49:13Z</time>
      </trkpt>
      <trkpt lat="42.32566" lon="2.20136">
        <ele>1598</ele>
        <time>2010-01-01T03:49:15Z</time>
      </trkpt>
      <trkpt lat="42.32568" lon="2.20133">
        <ele>1598</ele>
        <time>2010-01-01T03:49:16Z</time>
      </trkpt>
      <trkpt lat="42.3257" lon="2.2013">
        <ele>1598</ele>
        <time>2010-01-01T03:49:17Z</time>
      </trkpt>
      <trkpt lat="42.32572" lon="2.20127">
        <ele>1598</ele>
        <time>2010-01-01T03:49:18Z</time>
      </trkpt>
      <trkpt lat="42.32573" lon="2.20124">
        <ele>1598</ele>
        <time>2010-01-01T03:49:19Z</time>
      </trkpt>
      <trkpt lat="42.32575" lon="2.20122">
        <ele>1598</ele>
        <time>2010-01-01T03:49:20Z</time>
      </trkpt>
      <trkpt lat="42.32577" lon="2.20119">
        <ele>1598</ele>
        <time>2010-01-01T03:49:21Z</time>
      </trkpt>
      <trkpt lat="42.32579" lon="2.20116">
        <ele>1597</ele>
        <time>2010-01-01T03:49:22Z</time>
      </trkpt>
      <trkpt lat="42.32581" lon="2.20114">
        <ele>1597</ele>
        <time>2010-01-01T03:49:23Z</time>
      </trkpt>
      <trkpt lat="42.32583" lon="2.20111">
        <ele>1597</ele>
        <time>2010-01-01T03:49:24Z</time>
      </trkpt>
      <trkpt lat="42.32585" lon="2.20109">
        <ele>1598</ele>
        <time>2010-01-01T03:49:25Z</time>
      </trkpt>
      <trkpt lat="42.32587" lon="2.20107">
        <ele>1598</ele>
        <time>2010-01-01T03:49:27Z</time>
      </trkpt>
      <trkpt lat="42.32589" lon="2.20104">
        <ele>1598</ele>
        <time>2010-01-01T03:49:28Z</time>
      </trkpt>
      <trkpt lat="42.32591" lon="2.20101">
        <ele>1597</ele>
        <time>2010-01-01T03:49:29Z</time>
      </trkpt>
      <trkpt lat="42.32593" lon="2.20099">
        <ele>1597</ele>
        <time>2010-01-01T03:49:30Z</time>
      </trkpt>
      <trkpt lat="42.32595" lon="2.20096">
        <ele>1597</ele>
        <time>2010-01-01T03:49:31Z</time>
      </trkpt>
      <trkpt lat="42.32597" lon="2.20094">
        <ele>1597</ele>
        <time>2010-01-01T03:49:32Z</time>
      </trkpt>
      <trkpt lat="42.32599" lon="2.20092">
        <ele>1597</ele>
        <time>2010-01-01T03:49:33Z</time>
      </trkpt>
      <trkpt lat="42.326" lon="2.2009">
        <ele>1597</ele>
        <time>2010-01-01T03:49:34Z</time>
      </trkpt>
      <trkpt lat="42.32602" lon="2.20088">
        <ele>1597</ele>
        <time>2010-01-01T03:49:35Z</time>
      </trkpt>
      <trkpt lat="42.32604" lon="2.20085">
        <ele>1597</ele>
        <time>2010-01-01T03:49:36Z</time>
      </trkpt>
      <trkpt lat="42.32606" lon="2.20082">
        <ele>1597</ele>
        <time>2010-01-01T03:49:37Z</time>
      </trkpt>
      <trkpt lat="42.32608" lon="2.2008">
        <ele>1597</ele>
        <time>2010-01-01T03:49:38Z</time>
      </trkpt>
      <trkpt lat="42.3261" lon="2.20077">
        <ele>1597</ele>
        <time>2010-01-01T03:49:39Z</time>
      </trkpt>
      <trkpt lat="42.32612" lon="2.20075">
        <ele>1598</ele>
        <time>2010-01-01T03:49:40Z</time>
      </trkpt>
      <trkpt lat="42.32614" lon="2.20073">
        <ele>1597</ele>
        <time>2010-01-01T03:49:41Z</time>
      </trkpt>
      <trkpt lat="42.32615" lon="2.20071">
        <ele>1598</ele>
        <time>2010-01-01T03:49:42Z</time>
      </trkpt>
      <trkpt lat="42.32617" lon="2.20068">
        <ele>1597</ele>
        <time>2010-01-01T03:49:43Z</time>
      </trkpt>
      <trkpt lat="42.32619" lon="2.20066">
        <ele>1597</ele>
        <time>2010-01-01T03:49:44Z</time>
      </trkpt>
      <trkpt lat="42.3262" lon="2.20063">
        <ele>1597</ele>
        <time>2010-01-01T03:49:45Z</time>
      </trkpt>
      <trkpt lat="42.32621" lon="2.2006">
        <ele>1597</ele>
        <time>2010-01-01T03:49:46Z</time>
      </trkpt>
      <trkpt lat="42.32623" lon="2.20057">
        <ele>1596</ele>
        <time>2010-01-01T03:49:47Z</time>
      </trkpt>
      <trkpt lat="42.32624" lon="2.20053">
        <ele>1596</ele>
        <time>2010-01-01T03:49:48Z</time>
      </trkpt>
      <trkpt lat="42.32626" lon="2.2005">
        <ele>1596</ele>
        <time>2010-01-01T03:49:50Z</time>
      </trkpt>
      <trkpt lat="42.32627" lon="2.20047">
        <ele>1596</ele>
        <time>2010-01-01T03:49:50Z</time>
      </trkpt>
      <trkpt lat="42.32627" lon="2.20044">
        <ele>1596</ele>
        <time>2010-01-01T03:49:52Z</time>
      </trkpt>
      <trkpt lat="42.32628" lon="2.20041">
        <ele>1595</ele>
        <time>2010-01-01T03:49:53Z</time>
      </trkpt>
      <trkpt lat="42.32629" lon="2.20037">
        <ele>1595</ele>
        <time>2010-01-01T03:49:54Z</time>
      </trkpt>
      <trkpt lat="42.3263" lon="2.20034">
        <ele>1595</ele>
        <time>2010-01-01T03:49:55Z</time>
      </trkpt>
      <trkpt lat="42.32631" lon="2.2003">
        <ele>1594</ele>
        <time>2010-01-01T03:49:56Z</time>
      </trkpt>
      <trkpt lat="42.32632" lon="2.20027">
        <ele>1594</ele>
        <time>2010-01-01T03:49:57Z</time>
      </trkpt>
      <trkpt lat="42.32634" lon="2.20024">
        <ele>1595</ele>
        <time>2010-01-01T03:49:58Z</time>
      </trkpt>
      <trkpt lat="42.32635" lon="2.20021">
        <ele>1595</ele>
        <time>2010-01-01T03:49:59Z</time>
      </trkpt>
      <trkpt lat="42.32637" lon="2.20018">
        <ele>1595</ele>
        <time>2010-01-01T03:50:00Z</time>
      </trkpt>
      <trkpt lat="42.32638" lon="2.20015">
        <ele>1595</ele>
        <time>2010-01-01T03:50:01Z</time>
      </trkpt>
      <trkpt lat="42.3264" lon="2.20012">
        <ele>1596</ele>
        <time>2010-01-01T03:50:02Z</time>
      </trkpt>
      <trkpt lat="42.32641" lon="2.2001">
        <ele>1596</ele>
        <time>2010-01-01T03:50:03Z</time>
      </trkpt>
      <trkpt lat="42.32642" lon="2.20007">
        <ele>1596</ele>
        <time>2010-01-01T03:50:04Z</time>
      </trkpt>
      <trkpt lat="42.32643" lon="2.20004">
        <ele>1596</ele>
        <time>2010-01-01T03:50:05Z</time>
      </trkpt>
      <trkpt lat="42.32643" lon="2.20001">
        <ele>1596</ele>
        <time>2010-01-01T03:50:06Z</time>
      </trkpt>
      <trkpt lat="42.32644" lon="2.19998">
        <ele>1597</ele>
        <time>2010-01-01T03:50:07Z</time>
      </trkpt>
      <trkpt lat="42.32645" lon="2.19994">
        <ele>1597</ele>
        <time>2010-01-01T03:50:08Z</time>
      </trkpt>
      <trkpt lat="42.32645" lon="2.19991">
        <ele>1597</ele>
        <time>2010-01-01T03:50:09Z</time>
      </trkpt>
      <trkpt lat="42.32645" lon="2.19988">
        <ele>1597</ele>
        <time>2010-01-01T03:50:10Z</time>
      </trkpt>
      <trkpt lat="42.32646" lon="2.19985">
        <ele>1596</ele>
        <time>2010-01-01T03:50:11Z</time>
      </trkpt>
      <trkpt lat="42.32645" lon="2.1998">
        <ele>1596</ele>
        <time>2010-01-01T03:50:12Z</time>
      </trkpt>
      <trkpt lat="42.32645" lon="2.19977">
        <ele>1596</ele>
        <time>2010-01-01T03:50:13Z</time>
      </trkpt>
      <trkpt lat="42.32645" lon="2.19974">
        <ele>1595</ele>
        <time>2010-01-01T03:50:14Z</time>
      </trkpt>
      <trkpt lat="42.32645" lon="2.19971">
        <ele>1595</ele>
        <time>2010-01-01T03:50:15Z</time>
      </trkpt>
      <trkpt lat="42.32644" lon="2.19967">
        <ele>1595</ele>
        <time>2010-01-01T03:50:16Z</time>
      </trkpt>
      <trkpt lat="42.32644" lon="2.19964">
        <ele>1595</ele>
        <time>2010-01-01T03:50:17Z</time>
      </trkpt>
      <trkpt lat="42.32643" lon="2.19961">
        <ele>1594</ele>
        <time>2010-01-01T03:50:18Z</time>
      </trkpt>
      <trkpt lat="42.32642" lon="2.19958">
        <ele>1594</ele>
        <time>2010-01-01T03:50:19Z</time>
      </trkpt>
      <trkpt lat="42.32641" lon="2.19955">
        <ele>1593</ele>
        <time>2010-01-01T03:50:20Z</time>
      </trkpt>
      <trkpt lat="42.3264" lon="2.19952">
        <ele>1593</ele>
        <time>2010-01-01T03:50:21Z</time>
      </trkpt>
      <trkpt lat="42.32639" lon="2.1995">
        <ele>1593</ele>
        <time>2010-01-01T03:50:22Z</time>
      </trkpt>
      <trkpt lat="42.32638" lon="2.19947">
        <ele>1592</ele>
        <time>2010-01-01T03:50:23Z</time>
      </trkpt>
      <trkpt lat="42.32637" lon="2.19944">
        <ele>1591</ele>
        <time>2010-01-01T03:50:24Z</time>
      </trkpt>
      <trkpt lat="42.32636" lon="2.1994">
        <ele>1591</ele>
        <time>2010-01-01T03:50:25Z</time>
      </trkpt>
      <trkpt lat="42.32635" lon="2.19937">
        <ele>1590</ele>
        <time>2010-01-01T03:50:26Z</time>
      </trkpt>
      <trkpt lat="42.32634" lon="2.19934">
        <ele>1589</ele>
        <time>2010-01-01T03:50:27Z</time>
      </trkpt>
      <trkpt lat="42.32633" lon="2.1993">
        <ele>1589</ele>
        <time>2010-01-01T03:50:28Z</time>
      </trkpt>
      <trkpt lat="42.32633" lon="2.19926">
        <ele>1589</ele>
        <time>2010-01-01T03:50:29Z</time>
      </trkpt>
      <trkpt lat="42.32632" lon="2.19922">
        <ele>1588</ele>
        <time>2010-01-01T03:50:30Z</time>
      </trkpt>
      <trkpt lat="42.32632" lon="2.19918">
        <ele>1588</ele>
        <time>2010-01-01T03:50:31Z</time>
      </trkpt>
      <trkpt lat="42.32631" lon="2.19915">
        <ele>1587</ele>
        <time>2010-01-01T03:50:33Z</time>
      </trkpt>
      <trkpt lat="42.32631" lon="2.19911">
        <ele>1587</ele>
        <time>2010-01-01T03:50:34Z</time>
      </trkpt>
      <trkpt lat="42.32631" lon="2.19907">
        <ele>1587</ele>
        <time>2010-01-01T03:50:35Z</time>
      </trkpt>
      <trkpt lat="42.32631" lon="2.19903">
        <ele>1587</ele>
        <time>2010-01-01T03:50:36Z</time>
      </trkpt>
      <trkpt lat="42.3263" lon="2.19899">
        <ele>1586</ele>
        <time>2010-01-01T03:50:37Z</time>
      </trkpt>
      <trkpt lat="42.3263" lon="2.19891">
        <ele>1586</ele>
        <time>2010-01-01T03:50:40Z</time>
      </trkpt>
      <trkpt lat="42.3263" lon="2.19884">
        <ele>1585</ele>
        <time>2010-01-01T03:50:42Z</time>
      </trkpt>
      <trkpt lat="42.3263" lon="2.1988">
        <ele>1584</ele>
        <time>2010-01-01T03:50:43Z</time>
      </trkpt>
      <trkpt lat="42.3263" lon="2.19876">
        <ele>1584</ele>
        <time>2010-01-01T03:50:44Z</time>
      </trkpt>
      <trkpt lat="42.32629" lon="2.19873">
        <ele>1583</ele>
        <time>2010-01-01T03:50:45Z</time>
      </trkpt>
      <trkpt lat="42.32629" lon="2.19869">
        <ele>1583</ele>
        <time>2010-01-01T03:50:46Z</time>
      </trkpt>
      <trkpt lat="42.32629" lon="2.19865">
        <ele>1583</ele>
        <time>2010-01-01T03:50:47Z</time>
      </trkpt>
      <trkpt lat="42.32629" lon="2.19862">
        <ele>1582</ele>
        <time>2010-01-01T03:50:48Z</time>
      </trkpt>
      <trkpt lat="42.32629" lon="2.19858">
        <ele>1582</ele>
        <time>2010-01-01T03:50:49Z</time>
      </trkpt>
      <trkpt lat="42.32629" lon="2.19854">
        <ele>1582</ele>
        <time>2010-01-01T03:50:51Z</time>
      </trkpt>
      <trkpt lat="42.32628" lon="2.1985">
        <ele>1581</ele>
        <time>2010-01-01T03:50:52Z</time>
      </trkpt>
      <trkpt lat="42.32627" lon="2.19846">
        <ele>1581</ele>
        <time>2010-01-01T03:50:53Z</time>
      </trkpt>
      <trkpt lat="42.32626" lon="2.19842">
        <ele>1581</ele>
        <time>2010-01-01T03:50:54Z</time>
      </trkpt>
      <trkpt lat="42.32626" lon="2.19839">
        <ele>1580</ele>
        <time>2010-01-01T03:50:55Z</time>
      </trkpt>
      <trkpt lat="42.32626" lon="2.19835">
        <ele>1580</ele>
        <time>2010-01-01T03:50:56Z</time>
      </trkpt>
      <trkpt lat="42.32625" lon="2.19832">
        <ele>1580</ele>
        <time>2010-01-01T03:50:57Z</time>
      </trkpt>
      <trkpt lat="42.32624" lon="2.19829">
        <ele>1579</ele>
        <time>2010-01-01T03:50:58Z</time>
      </trkpt>
      <trkpt lat="42.32624" lon="2.19825">
        <ele>1579</ele>
        <time>2010-01-01T03:50:59Z</time>
      </trkpt>
      <trkpt lat="42.32623" lon="2.19821">
        <ele>1578</ele>
        <time>2010-01-01T03:51:01Z</time>
      </trkpt>
      <trkpt lat="42.32622" lon="2.19818">
        <ele>1578</ele>
        <time>2010-01-01T03:51:02Z</time>
      </trkpt>
      <trkpt lat="42.3262" lon="2.19815">
        <ele>1577</ele>
        <time>2010-01-01T03:51:03Z</time>
      </trkpt>
      <trkpt lat="42.3262" lon="2.19811">
        <ele>1577</ele>
        <time>2010-01-01T03:51:04Z</time>
      </trkpt>
      <trkpt lat="42.32619" lon="2.19808">
        <ele>1576</ele>
        <time>2010-01-01T03:51:05Z</time>
      </trkpt>
      <trkpt lat="42.32619" lon="2.19805">
        <ele>1576</ele>
        <time>2010-01-01T03:51:06Z</time>
      </trkpt>
      <trkpt lat="42.32617" lon="2.19801">
        <ele>1575</ele>
        <time>2010-01-01T03:51:07Z</time>
      </trkpt>
      <trkpt lat="42.32616" lon="2.19798">
        <ele>1575</ele>
        <time>2010-01-01T03:51:08Z</time>
      </trkpt>
      <trkpt lat="42.32616" lon="2.19794">
        <ele>1575</ele>
        <time>2010-01-01T03:51:09Z</time>
      </trkpt>
      <trkpt lat="42.32616" lon="2.19791">
        <ele>1574</ele>
        <time>2010-01-01T03:51:10Z</time>
      </trkpt>
      <trkpt lat="42.32615" lon="2.19787">
        <ele>1574</ele>
        <time>2010-01-01T03:51:11Z</time>
      </trkpt>
      <trkpt lat="42.32614" lon="2.19784">
        <ele>1574</ele>
        <time>2010-01-01T03:51:12Z</time>
      </trkpt>
      <trkpt lat="42.32613" lon="2.1978">
        <ele>1573</ele>
        <time>2010-01-01T03:51:13Z</time>
      </trkpt>
      <trkpt lat="42.32613" lon="2.19776">
        <ele>1573</ele>
        <time>2010-01-01T03:51:15Z</time>
      </trkpt>
      <trkpt lat="42.32612" lon="2.19773">
        <ele>1573</ele>
        <time>2010-01-01T03:51:16Z</time>
      </trkpt>
      <trkpt lat="42.32611" lon="2.1977">
        <ele>1572</ele>
        <time>2010-01-01T03:51:17Z</time>
      </trkpt>
      <trkpt lat="42.32611" lon="2.19767">
        <ele>1572</ele>
        <time>2010-01-01T03:51:17Z</time>
      </trkpt>
      <trkpt lat="42.32611" lon="2.19763">
        <ele>1572</ele>
        <time>2010-01-01T03:51:19Z</time>
      </trkpt>
      <trkpt lat="42.32611" lon="2.19756">
        <ele>1572</ele>
        <time>2010-01-01T03:51:21Z</time>
      </trkpt>
      <trkpt lat="42.32612" lon="2.19745">
        <ele>1571</ele>
        <time>2010-01-01T03:51:24Z</time>
      </trkpt>
      <trkpt lat="42.32612" lon="2.19742">
        <ele>1571</ele>
        <time>2010-01-01T03:51:25Z</time>
      </trkpt>
      <trkpt lat="42.32612" lon="2.19738">
        <ele>1571</ele>
        <time>2010-01-01T03:51:26Z</time>
      </trkpt>
      <trkpt lat="42.32613" lon="2.19734">
        <ele>1571</ele>
        <time>2010-01-01T03:51:27Z</time>
      </trkpt>
      <trkpt lat="42.32613" lon="2.1973">
        <ele>1571</ele>
        <time>2010-01-01T03:51:28Z</time>
      </trkpt>
      <trkpt lat="42.32614" lon="2.19726">
        <ele>1571</ele>
        <time>2010-01-01T03:51:30Z</time>
      </trkpt>
      <trkpt lat="42.32615" lon="2.19723">
        <ele>1571</ele>
        <time>2010-01-01T03:51:31Z</time>
      </trkpt>
      <trkpt lat="42.32616" lon="2.19718">
        <ele>1571</ele>
        <time>2010-01-01T03:51:32Z</time>
      </trkpt>
      <trkpt lat="42.32617" lon="2.19715">
        <ele>1571</ele>
        <time>2010-01-01T03:51:33Z</time>
      </trkpt>
      <trkpt lat="42.32618" lon="2.19711">
        <ele>1571</ele>
        <time>2010-01-01T03:51:34Z</time>
      </trkpt>
      <trkpt lat="42.32619" lon="2.19707">
        <ele>1571</ele>
        <time>2010-01-01T03:51:36Z</time>
      </trkpt>
      <trkpt lat="42.3262" lon="2.19704">
        <ele>1571</ele>
        <time>2010-01-01T03:51:37Z</time>
      </trkpt>
      <trkpt lat="42.32621" lon="2.197">
        <ele>1571</ele>
        <time>2010-01-01T03:51:38Z</time>
      </trkpt>
      <trkpt lat="42.32621" lon="2.19697">
        <ele>1570</ele>
        <time>2010-01-01T03:51:39Z</time>
      </trkpt>
      <trkpt lat="42.32622" lon="2.19693">
        <ele>1570</ele>
        <time>2010-01-01T03:51:40Z</time>
      </trkpt>
      <trkpt lat="42.32623" lon="2.1969">
        <ele>1570</ele>
        <time>2010-01-01T03:51:41Z</time>
      </trkpt>
      <trkpt lat="42.32623" lon="2.19686">
        <ele>1570</ele>
        <time>2010-01-01T03:51:42Z</time>
      </trkpt>
      <trkpt lat="42.32624" lon="2.19682">
        <ele>1570</ele>
        <time>2010-01-01T03:51:43Z</time>
      </trkpt>
      <trkpt lat="42.32625" lon="2.19678">
        <ele>1570</ele>
        <time>2010-01-01T03:51:44Z</time>
      </trkpt>
      <trkpt lat="42.32625" lon="2.19675">
        <ele>1570</ele>
        <time>2010-01-01T03:51:45Z</time>
      </trkpt>
      <trkpt lat="42.32626" lon="2.19672">
        <ele>1570</ele>
        <time>2010-01-01T03:51:46Z</time>
      </trkpt>
      <trkpt lat="42.32627" lon="2.19668">
        <ele>1571</ele>
        <time>2010-01-01T03:51:48Z</time>
      </trkpt>
      <trkpt lat="42.32628" lon="2.19665">
        <ele>1571</ele>
        <time>2010-01-01T03:51:49Z</time>
      </trkpt>
      <trkpt lat="42.32629" lon="2.19662">
        <ele>1571</ele>
        <time>2010-01-01T03:51:50Z</time>
      </trkpt>
      <trkpt lat="42.32629" lon="2.19658">
        <ele>1571</ele>
        <time>2010-01-01T03:51:51Z</time>
      </trkpt>
      <trkpt lat="42.3263" lon="2.19654">
        <ele>1571</ele>
        <time>2010-01-01T03:51:52Z</time>
      </trkpt>
      <trkpt lat="42.3263" lon="2.19652">
        <ele>1571</ele>
        <time>2010-01-01T03:51:53Z</time>
      </trkpt>
      <trkpt lat="42.3263" lon="2.19649">
        <ele>1571</ele>
        <time>2010-01-01T03:51:54Z</time>
      </trkpt>
      <trkpt lat="42.32631" lon="2.19646">
        <ele>1571</ele>
        <time>2010-01-01T03:51:54Z</time>
      </trkpt>
      <trkpt lat="42.32631" lon="2.19642">
        <ele>1571</ele>
        <time>2010-01-01T03:51:56Z</time>
      </trkpt>
      <trkpt lat="42.32631" lon="2.19638">
        <ele>1571</ele>
        <time>2010-01-01T03:51:57Z</time>
      </trkpt>
      <trkpt lat="42.32631" lon="2.19635">
        <ele>1570</ele>
        <time>2010-01-01T03:51:58Z</time>
      </trkpt>
      <trkpt lat="42.32632" lon="2.19631">
        <ele>1570</ele>
        <time>2010-01-01T03:51:59Z</time>
      </trkpt>
      <trkpt lat="42.32632" lon="2.19628">
        <ele>1570</ele>
        <time>2010-01-01T03:52:00Z</time>
      </trkpt>
      <trkpt lat="42.32633" lon="2.19624">
        <ele>1570</ele>
        <time>2010-01-01T03:52:01Z</time>
      </trkpt>
      <trkpt lat="42.32633" lon="2.1962">
        <ele>1570</ele>
        <time>2010-01-01T03:52:02Z</time>
      </trkpt>
      <trkpt lat="42.32634" lon="2.19616">
        <ele>1569</ele>
        <time>2010-01-01T03:52:03Z</time>
      </trkpt>
      <trkpt lat="42.32634" lon="2.19613">
        <ele>1569</ele>
        <time>2010-01-01T03:52:04Z</time>
      </trkpt>
      <trkpt lat="42.32634" lon="2.19606">
        <ele>1568</ele>
        <time>2010-01-01T03:52:06Z</time>
      </trkpt>
      <trkpt lat="42.32634" lon="2.19602">
        <ele>1568</ele>
        <time>2010-01-01T03:52:07Z</time>
      </trkpt>
      <trkpt lat="42.32633" lon="2.19595">
        <ele>1567</ele>
        <time>2010-01-01T03:52:10Z</time>
      </trkpt>
      <trkpt lat="42.32633" lon="2.19591">
        <ele>1567</ele>
        <time>2010-01-01T03:52:11Z</time>
      </trkpt>
      <trkpt lat="42.32633" lon="2.19587">
        <ele>1567</ele>
        <time>2010-01-01T03:52:12Z</time>
      </trkpt>
      <trkpt lat="42.32634" lon="2.19583">
        <ele>1567</ele>
        <time>2010-01-01T03:52:13Z</time>
      </trkpt>
      <trkpt lat="42.32634" lon="2.1958">
        <ele>1567</ele>
        <time>2010-01-01T03:52:14Z</time>
      </trkpt>
      <trkpt lat="42.32634" lon="2.19576">
        <ele>1567</ele>
        <time>2010-01-01T03:52:15Z</time>
      </trkpt>
      <trkpt lat="42.32635" lon="2.19572">
        <ele>1567</ele>
        <time>2010-01-01T03:52:16Z</time>
      </trkpt>
      <trkpt lat="42.32635" lon="2.19568">
        <ele>1568</ele>
        <time>2010-01-01T03:52:18Z</time>
      </trkpt>
      <trkpt lat="42.32636" lon="2.19564">
        <ele>1568</ele>
        <time>2010-01-01T03:52:19Z</time>
      </trkpt>
      <trkpt lat="42.32636" lon="2.1956">
        <ele>1568</ele>
        <time>2010-01-01T03:52:20Z</time>
      </trkpt>
      <trkpt lat="42.32637" lon="2.19556">
        <ele>1569</ele>
        <time>2010-01-01T03:52:21Z</time>
      </trkpt>
      <trkpt lat="42.32637" lon="2.19552">
        <ele>1569</ele>
        <time>2010-01-01T03:52:22Z</time>
      </trkpt>
      <trkpt lat="42.32637" lon="2.19548">
        <ele>1569</ele>
        <time>2010-01-01T03:52:24Z</time>
      </trkpt>
      <trkpt lat="42.32637" lon="2.19545">
        <ele>1569</ele>
        <time>2010-01-01T03:52:25Z</time>
      </trkpt>
      <trkpt lat="42.32638" lon="2.19541">
        <ele>1569</ele>
        <time>2010-01-01T03:52:26Z</time>
      </trkpt>
      <trkpt lat="42.32638" lon="2.19522">
        <ele>1569</ele>
        <time>2010-01-01T03:52:31Z</time>
      </trkpt>
      <trkpt lat="42.32638" lon="2.19518">
        <ele>1570</ele>
        <time>2010-01-01T03:52:32Z</time>
      </trkpt>
      <trkpt lat="42.32638" lon="2.19515">
        <ele>1570</ele>
        <time>2010-01-01T03:52:34Z</time>
      </trkpt>
      <trkpt lat="42.32638" lon="2.19511">
        <ele>1570</ele>
        <time>2010-01-01T03:52:35Z</time>
      </trkpt>
      <trkpt lat="42.32637" lon="2.19507">
        <ele>1570</ele>
        <time>2010-01-01T03:52:36Z</time>
      </trkpt>
      <trkpt lat="42.32637" lon="2.19503">
        <ele>1570</ele>
        <time>2010-01-01T03:52:37Z</time>
      </trkpt>
      <trkpt lat="42.32637" lon="2.19499">
        <ele>1570</ele>
        <time>2010-01-01T03:52:38Z</time>
      </trkpt>
      <trkpt lat="42.32637" lon="2.19496">
        <ele>1569</ele>
        <time>2010-01-01T03:52:39Z</time>
      </trkpt>
      <trkpt lat="42.32636" lon="2.19492">
        <ele>1569</ele>
        <time>2010-01-01T03:52:40Z</time>
      </trkpt>
      <trkpt lat="42.32636" lon="2.19488">
        <ele>1568</ele>
        <time>2010-01-01T03:52:41Z</time>
      </trkpt>
      <trkpt lat="42.32635" lon="2.19484">
        <ele>1568</ele>
        <time>2010-01-01T03:52:43Z</time>
      </trkpt>
      <trkpt lat="42.32634" lon="2.19481">
        <ele>1567</ele>
        <time>2010-01-01T03:52:44Z</time>
      </trkpt>
      <trkpt lat="42.32633" lon="2.19477">
        <ele>1566</ele>
        <time>2010-01-01T03:52:45Z</time>
      </trkpt>
      <trkpt lat="42.32632" lon="2.19474">
        <ele>1565</ele>
        <time>2010-01-01T03:52:46Z</time>
      </trkpt>
      <trkpt lat="42.3263" lon="2.1947">
        <ele>1564</ele>
        <time>2010-01-01T03:52:47Z</time>
      </trkpt>
      <trkpt lat="42.32629" lon="2.19466">
        <ele>1564</ele>
        <time>2010-01-01T03:52:48Z</time>
      </trkpt>
      <trkpt lat="42.32628" lon="2.19463">
        <ele>1564</ele>
        <time>2010-01-01T03:52:50Z</time>
      </trkpt>
      <trkpt lat="42.32627" lon="2.1946">
        <ele>1563</ele>
        <time>2010-01-01T03:52:51Z</time>
      </trkpt>
      <trkpt lat="42.32625" lon="2.19457">
        <ele>1563</ele>
        <time>2010-01-01T03:52:52Z</time>
      </trkpt>
      <trkpt lat="42.32624" lon="2.19454">
        <ele>1562</ele>
        <time>2010-01-01T03:52:53Z</time>
      </trkpt>
      <trkpt lat="42.32623" lon="2.19451">
        <ele>1562</ele>
        <time>2010-01-01T03:52:54Z</time>
      </trkpt>
      <trkpt lat="42.32621" lon="2.19448">
        <ele>1561</ele>
        <time>2010-01-01T03:52:55Z</time>
      </trkpt>
      <trkpt lat="42.3262" lon="2.19445">
        <ele>1561</ele>
        <time>2010-01-01T03:52:56Z</time>
      </trkpt>
      <trkpt lat="42.32618" lon="2.19443">
        <ele>1560</ele>
        <time>2010-01-01T03:52:57Z</time>
      </trkpt>
      <trkpt lat="42.32617" lon="2.1944">
        <ele>1559</ele>
        <time>2010-01-01T03:52:58Z</time>
      </trkpt>
      <trkpt lat="42.32615" lon="2.19438">
        <ele>1559</ele>
        <time>2010-01-01T03:52:59Z</time>
      </trkpt>
      <trkpt lat="42.32613" lon="2.19435">
        <ele>1558</ele>
        <time>2010-01-01T03:53:00Z</time>
      </trkpt>
      <trkpt lat="42.32611" lon="2.19433">
        <ele>1558</ele>
        <time>2010-01-01T03:53:01Z</time>
      </trkpt>
      <trkpt lat="42.3261" lon="2.1943">
        <ele>1557</ele>
        <time>2010-01-01T03:53:02Z</time>
      </trkpt>
      <trkpt lat="42.32608" lon="2.19428">
        <ele>1557</ele>
        <time>2010-01-01T03:53:03Z</time>
      </trkpt>
      <trkpt lat="42.32606" lon="2.19425">
        <ele>1557</ele>
        <time>2010-01-01T03:53:04Z</time>
      </trkpt>
      <trkpt lat="42.32604" lon="2.19422">
        <ele>1556</ele>
        <time>2010-01-01T03:53:05Z</time>
      </trkpt>
      <trkpt lat="42.32603" lon="2.19419">
        <ele>1556</ele>
        <time>2010-01-01T03:53:06Z</time>
      </trkpt>
      <trkpt lat="42.32601" lon="2.19416">
        <ele>1556</ele>
        <time>2010-01-01T03:53:07Z</time>
      </trkpt>
      <trkpt lat="42.326" lon="2.19413">
        <ele>1556</ele>
        <time>2010-01-01T03:53:08Z</time>
      </trkpt>
      <trkpt lat="42.32599" lon="2.19409">
        <ele>1556</ele>
        <time>2010-01-01T03:53:09Z</time>
      </trkpt>
      <trkpt lat="42.32598" lon="2.19406">
        <ele>1556</ele>
        <time>2010-01-01T03:53:10Z</time>
      </trkpt>
      <trkpt lat="42.32597" lon="2.19403">
        <ele>1556</ele>
        <time>2010-01-01T03:53:12Z</time>
      </trkpt>
      <trkpt lat="42.32596" lon="2.19399">
        <ele>1556</ele>
        <time>2010-01-01T03:53:13Z</time>
      </trkpt>
      <trkpt lat="42.32594" lon="2.19396">
        <ele>1556</ele>
        <time>2010-01-01T03:53:14Z</time>
      </trkpt>
      <trkpt lat="42.32593" lon="2.19392">
        <ele>1556</ele>
        <time>2010-01-01T03:53:15Z</time>
      </trkpt>
      <trkpt lat="42.32592" lon="2.19388">
        <ele>1556</ele>
        <time>2010-01-01T03:53:16Z</time>
      </trkpt>
      <trkpt lat="42.32591" lon="2.19385">
        <ele>1556</ele>
        <time>2010-01-01T03:53:17Z</time>
      </trkpt>
      <trkpt lat="42.3259" lon="2.19381">
        <ele>1556</ele>
        <time>2010-01-01T03:53:18Z</time>
      </trkpt>
      <trkpt lat="42.32589" lon="2.19377">
        <ele>1556</ele>
        <time>2010-01-01T03:53:20Z</time>
      </trkpt>
      <trkpt lat="42.32589" lon="2.19374">
        <ele>1556</ele>
        <time>2010-01-01T03:53:21Z</time>
      </trkpt>
      <trkpt lat="42.32588" lon="2.1937">
        <ele>1556</ele>
        <time>2010-01-01T03:53:22Z</time>
      </trkpt>
      <trkpt lat="42.32587" lon="2.19367">
        <ele>1556</ele>
        <time>2010-01-01T03:53:23Z</time>
      </trkpt>
      <trkpt lat="42.32587" lon="2.19363">
        <ele>1557</ele>
        <time>2010-01-01T03:53:24Z</time>
      </trkpt>
      <trkpt lat="42.32586" lon="2.19359">
        <ele>1557</ele>
        <time>2010-01-01T03:53:25Z</time>
      </trkpt>
      <trkpt lat="42.32586" lon="2.19356">
        <ele>1556</ele>
        <time>2010-01-01T03:53:26Z</time>
      </trkpt>
      <trkpt lat="42.32585" lon="2.19352">
        <ele>1556</ele>
        <time>2010-01-01T03:53:27Z</time>
      </trkpt>
      <trkpt lat="42.32584" lon="2.19348">
        <ele>1555</ele>
        <time>2010-01-01T03:53:28Z</time>
      </trkpt>
      <trkpt lat="42.32583" lon="2.19344">
        <ele>1554</ele>
        <time>2010-01-01T03:53:30Z</time>
      </trkpt>
      <trkpt lat="42.32583" lon="2.19341">
        <ele>1554</ele>
        <time>2010-01-01T03:53:31Z</time>
      </trkpt>
      <trkpt lat="42.32583" lon="2.19337">
        <ele>1553</ele>
        <time>2010-01-01T03:53:32Z</time>
      </trkpt>
      <trkpt lat="42.32583" lon="2.19333">
        <ele>1553</ele>
        <time>2010-01-01T03:53:33Z</time>
      </trkpt>
      <trkpt lat="42.32583" lon="2.19329">
        <ele>1553</ele>
        <time>2010-01-01T03:53:34Z</time>
      </trkpt>
      <trkpt lat="42.32583" lon="2.19325">
        <ele>1553</ele>
        <time>2010-01-01T03:53:35Z</time>
      </trkpt>
      <trkpt lat="42.32583" lon="2.19315">
        <ele>1553</ele>
        <time>2010-01-01T03:53:38Z</time>
      </trkpt>
      <trkpt lat="42.32584" lon="2.19311">
        <ele>1554</ele>
        <time>2010-01-01T03:53:40Z</time>
      </trkpt>
      <trkpt lat="42.32584" lon="2.19304">
        <ele>1554</ele>
        <time>2010-01-01T03:53:42Z</time>
      </trkpt>
      <trkpt lat="42.32584" lon="2.19293">
        <ele>1554</ele>
        <time>2010-01-01T03:53:45Z</time>
      </trkpt>
      <trkpt lat="42.32584" lon="2.19289">
        <ele>1554</ele>
        <time>2010-01-01T03:53:46Z</time>
      </trkpt>
      <trkpt lat="42.32584" lon="2.19285">
        <ele>1554</ele>
        <time>2010-01-01T03:53:47Z</time>
      </trkpt>
      <trkpt lat="42.32584" lon="2.19281">
        <ele>1554</ele>
        <time>2010-01-01T03:53:48Z</time>
      </trkpt>
      <trkpt lat="42.32583" lon="2.19278">
        <ele>1553</ele>
        <time>2010-01-01T03:53:49Z</time>
      </trkpt>
      <trkpt lat="42.32582" lon="2.19274">
        <ele>1553</ele>
        <time>2010-01-01T03:53:51Z</time>
      </trkpt>
      <trkpt lat="42.32582" lon="2.1927">
        <ele>1553</ele>
        <time>2010-01-01T03:53:52Z</time>
      </trkpt>
      <trkpt lat="42.32581" lon="2.19267">
        <ele>1554</ele>
        <time>2010-01-01T03:53:53Z</time>
      </trkpt>
      <trkpt lat="42.32581" lon="2.19263">
        <ele>1554</ele>
        <time>2010-01-01T03:53:54Z</time>
      </trkpt>
      <trkpt lat="42.32581" lon="2.19259">
        <ele>1554</ele>
        <time>2010-01-01T03:53:55Z</time>
      </trkpt>
      <trkpt lat="42.32581" lon="2.19255">
        <ele>1554</ele>
        <time>2010-01-01T03:53:56Z</time>
      </trkpt>
      <trkpt lat="42.3258" lon="2.19252">
        <ele>1555</ele>
        <time>2010-01-01T03:53:57Z</time>
      </trkpt>
      <trkpt lat="42.3258" lon="2.19248">
        <ele>1554</ele>
        <time>2010-01-01T03:53:58Z</time>
      </trkpt>
      <trkpt lat="42.32579" lon="2.19244">
        <ele>1554</ele>
        <time>2010-01-01T03:54:00Z</time>
      </trkpt>
      <trkpt lat="42.32578" lon="2.1924">
        <ele>1553</ele>
        <time>2010-01-01T03:54:01Z</time>
      </trkpt>
      <trkpt lat="42.32577" lon="2.19237">
        <ele>1553</ele>
        <time>2010-01-01T03:54:02Z</time>
      </trkpt>
      <trkpt lat="42.32576" lon="2.19233">
        <ele>1553</ele>
        <time>2010-01-01T03:54:03Z</time>
      </trkpt>
      <trkpt lat="42.32576" lon="2.19229">
        <ele>1553</ele>
        <time>2010-01-01T03:54:04Z</time>
      </trkpt>
      <trkpt lat="42.32575" lon="2.19225">
        <ele>1553</ele>
        <time>2010-01-01T03:54:05Z</time>
      </trkpt>
      <trkpt lat="42.32574" lon="2.19221">
        <ele>1552</ele>
        <time>2010-01-01T03:54:06Z</time>
      </trkpt>
      <trkpt lat="42.32574" lon="2.19218">
        <ele>1552</ele>
        <time>2010-01-01T03:54:08Z</time>
      </trkpt>
      <trkpt lat="42.32573" lon="2.19214">
        <ele>1552</ele>
        <time>2010-01-01T03:54:09Z</time>
      </trkpt>
      <trkpt lat="42.32572" lon="2.19211">
        <ele>1551</ele>
        <time>2010-01-01T03:54:10Z</time>
      </trkpt>
      <trkpt lat="42.32572" lon="2.19207">
        <ele>1551</ele>
        <time>2010-01-01T03:54:11Z</time>
      </trkpt>
      <trkpt lat="42.32571" lon="2.19204">
        <ele>1550</ele>
        <time>2010-01-01T03:54:12Z</time>
      </trkpt>
      <trkpt lat="42.3257" lon="2.192">
        <ele>1550</ele>
        <time>2010-01-01T03:54:13Z</time>
      </trkpt>
      <trkpt lat="42.32569" lon="2.19196">
        <ele>1550</ele>
        <time>2010-01-01T03:54:14Z</time>
      </trkpt>
      <trkpt lat="42.32569" lon="2.19192">
        <ele>1549</ele>
        <time>2010-01-01T03:54:15Z</time>
      </trkpt>
      <trkpt lat="42.32568" lon="2.19189">
        <ele>1548</ele>
        <time>2010-01-01T03:54:17Z</time>
      </trkpt>
      <trkpt lat="42.32567" lon="2.19185">
        <ele>1547</ele>
        <time>2010-01-01T03:54:18Z</time>
      </trkpt>
      <trkpt lat="42.32566" lon="2.19181">
        <ele>1546</ele>
        <time>2010-01-01T03:54:19Z</time>
      </trkpt>
      <trkpt lat="42.32565" lon="2.19178">
        <ele>1546</ele>
        <time>2010-01-01T03:54:20Z</time>
      </trkpt>
      <trkpt lat="42.32565" lon="2.19174">
        <ele>1545</ele>
        <time>2010-01-01T03:54:21Z</time>
      </trkpt>
      <trkpt lat="42.32564" lon="2.19171">
        <ele>1544</ele>
        <time>2010-01-01T03:54:22Z</time>
      </trkpt>
      <trkpt lat="42.32563" lon="2.19167">
        <ele>1543</ele>
        <time>2010-01-01T03:54:23Z</time>
      </trkpt>
      <trkpt lat="42.32563" lon="2.19164">
        <ele>1543</ele>
        <time>2010-01-01T03:54:24Z</time>
      </trkpt>
      <trkpt lat="42.32562" lon="2.1916">
        <ele>1542</ele>
        <time>2010-01-01T03:54:25Z</time>
      </trkpt>
      <trkpt lat="42.32562" lon="2.19157">
        <ele>1542</ele>
        <time>2010-01-01T03:54:26Z</time>
      </trkpt>
      <trkpt lat="42.32561" lon="2.19153">
        <ele>1542</ele>
        <time>2010-01-01T03:54:27Z</time>
      </trkpt>
      <trkpt lat="42.3256" lon="2.1915">
        <ele>1541</ele>
        <time>2010-01-01T03:54:29Z</time>
      </trkpt>
      <trkpt lat="42.32559" lon="2.19146">
        <ele>1540</ele>
        <time>2010-01-01T03:54:30Z</time>
      </trkpt>
      <trkpt lat="42.32558" lon="2.19143">
        <ele>1540</ele>
        <time>2010-01-01T03:54:31Z</time>
      </trkpt>
      <trkpt lat="42.32558" lon="2.19139">
        <ele>1540</ele>
        <time>2010-01-01T03:54:32Z</time>
      </trkpt>
      <trkpt lat="42.32557" lon="2.19136">
        <ele>1540</ele>
        <time>2010-01-01T03:54:33Z</time>
      </trkpt>
      <trkpt lat="42.32556" lon="2.19132">
        <ele>1539</ele>
        <time>2010-01-01T03:54:34Z</time>
      </trkpt>
      <trkpt lat="42.32555" lon="2.19129">
        <ele>1539</ele>
        <time>2010-01-01T03:54:35Z</time>
      </trkpt>
      <trkpt lat="42.32555" lon="2.19126">
        <ele>1538</ele>
        <time>2010-01-01T03:54:36Z</time>
      </trkpt>
      <trkpt lat="42.32554" lon="2.19122">
        <ele>1538</ele>
        <time>2010-01-01T03:54:37Z</time>
      </trkpt>
      <trkpt lat="42.32553" lon="2.19119">
        <ele>1537</ele>
        <time>2010-01-01T03:54:38Z</time>
      </trkpt>
      <trkpt lat="42.32552" lon="2.19108">
        <ele>1537</ele>
        <time>2010-01-01T03:54:41Z</time>
      </trkpt>
      <trkpt lat="42.32552" lon="2.19104">
        <ele>1538</ele>
        <time>2010-01-01T03:54:43Z</time>
      </trkpt>
      <trkpt lat="42.32552" lon="2.19101">
        <ele>1537</ele>
        <time>2010-01-01T03:54:44Z</time>
      </trkpt>
      <trkpt lat="42.32552" lon="2.19097">
        <ele>1538</ele>
        <time>2010-01-01T03:54:45Z</time>
      </trkpt>
      <trkpt lat="42.32551" lon="2.19094">
        <ele>1537</ele>
        <time>2010-01-01T03:54:46Z</time>
      </trkpt>
      <trkpt lat="42.32551" lon="2.1909">
        <ele>1537</ele>
        <time>2010-01-01T03:54:47Z</time>
      </trkpt>
      <trkpt lat="42.32551" lon="2.19087">
        <ele>1537</ele>
        <time>2010-01-01T03:54:48Z</time>
      </trkpt>
      <trkpt lat="42.3255" lon="2.19083">
        <ele>1537</ele>
        <time>2010-01-01T03:54:49Z</time>
      </trkpt>
      <trkpt lat="42.3255" lon="2.19079">
        <ele>1537</ele>
        <time>2010-01-01T03:54:50Z</time>
      </trkpt>
      <trkpt lat="42.32549" lon="2.19075">
        <ele>1536</ele>
        <time>2010-01-01T03:54:51Z</time>
      </trkpt>
      <trkpt lat="42.32549" lon="2.19072">
        <ele>1536</ele>
        <time>2010-01-01T03:54:52Z</time>
      </trkpt>
      <trkpt lat="42.32549" lon="2.19068">
        <ele>1536</ele>
        <time>2010-01-01T03:54:53Z</time>
      </trkpt>
      <trkpt lat="42.32549" lon="2.19064">
        <ele>1536</ele>
        <time>2010-01-01T03:54:54Z</time>
      </trkpt>
      <trkpt lat="42.32548" lon="2.1906">
        <ele>1536</ele>
        <time>2010-01-01T03:54:56Z</time>
      </trkpt>
      <trkpt lat="42.32548" lon="2.19056">
        <ele>1535</ele>
        <time>2010-01-01T03:54:57Z</time>
      </trkpt>
      <trkpt lat="42.32549" lon="2.19052">
        <ele>1535</ele>
        <time>2010-01-01T03:54:58Z</time>
      </trkpt>
      <trkpt lat="42.32549" lon="2.19049">
        <ele>1535</ele>
        <time>2010-01-01T03:54:59Z</time>
      </trkpt>
      <trkpt lat="42.3255" lon="2.19045">
        <ele>1536</ele>
        <time>2010-01-01T03:55:00Z</time>
      </trkpt>
      <trkpt lat="42.3255" lon="2.19042">
        <ele>1536</ele>
        <time>2010-01-01T03:55:01Z</time>
      </trkpt>
      <trkpt lat="42.32551" lon="2.19038">
        <ele>1536</ele>
        <time>2010-01-01T03:55:02Z</time>
      </trkpt>
      <trkpt lat="42.32551" lon="2.19034">
        <ele>1536</ele>
        <time>2010-01-01T03:55:03Z</time>
      </trkpt>
      <trkpt lat="42.32551" lon="2.19031">
        <ele>1536</ele>
        <time>2010-01-01T03:55:04Z</time>
      </trkpt>
      <trkpt lat="42.32552" lon="2.19027">
        <ele>1536</ele>
        <time>2010-01-01T03:55:05Z</time>
      </trkpt>
      <trkpt lat="42.32552" lon="2.19021">
        <ele>1535</ele>
        <time>2010-01-01T03:55:07Z</time>
      </trkpt>
      <trkpt lat="42.32552" lon="2.19017">
        <ele>1535</ele>
        <time>2010-01-01T03:55:08Z</time>
      </trkpt>
      <trkpt lat="42.32552" lon="2.19013">
        <ele>1534</ele>
        <time>2010-01-01T03:55:10Z</time>
      </trkpt>
      <trkpt lat="42.32553" lon="2.1901">
        <ele>1534</ele>
        <time>2010-01-01T03:55:11Z</time>
      </trkpt>
      <trkpt lat="42.32554" lon="2.19006">
        <ele>1533</ele>
        <time>2010-01-01T03:55:12Z</time>
      </trkpt>
      <trkpt lat="42.32554" lon="2.19002">
        <ele>1533</ele>
        <time>2010-01-01T03:55:13Z</time>
      </trkpt>
      <trkpt lat="42.32555" lon="2.18999">
        <ele>1533</ele>
        <time>2010-01-01T03:55:14Z</time>
      </trkpt>
      <trkpt lat="42.32555" lon="2.18995">
        <ele>1533</ele>
        <time>2010-01-01T03:55:15Z</time>
      </trkpt>
      <trkpt lat="42.32556" lon="2.18992">
        <ele>1532</ele>
        <time>2010-01-01T03:55:16Z</time>
      </trkpt>
      <trkpt lat="42.32556" lon="2.18989">
        <ele>1532</ele>
        <time>2010-01-01T03:55:17Z</time>
      </trkpt>
      <trkpt lat="42.32557" lon="2.18985">
        <ele>1531</ele>
        <time>2010-01-01T03:55:18Z</time>
      </trkpt>
      <trkpt lat="42.32557" lon="2.18982">
        <ele>1531</ele>
        <time>2010-01-01T03:55:19Z</time>
      </trkpt>
      <trkpt lat="42.32557" lon="2.18978">
        <ele>1531</ele>
        <time>2010-01-01T03:55:20Z</time>
      </trkpt>
      <trkpt lat="42.32558" lon="2.18975">
        <ele>1530</ele>
        <time>2010-01-01T03:55:21Z</time>
      </trkpt>
      <trkpt lat="42.32559" lon="2.18971">
        <ele>1530</ele>
        <time>2010-01-01T03:55:22Z</time>
      </trkpt>
      <trkpt lat="42.32559" lon="2.18967">
        <ele>1530</ele>
        <time>2010-01-01T03:55:24Z</time>
      </trkpt>
      <trkpt lat="42.32559" lon="2.18963">
        <ele>1530</ele>
        <time>2010-01-01T03:55:25Z</time>
      </trkpt>
      <trkpt lat="42.3256" lon="2.18959">
        <ele>1530</ele>
        <time>2010-01-01T03:55:26Z</time>
      </trkpt>
      <trkpt lat="42.32561" lon="2.18955">
        <ele>1530</ele>
        <time>2010-01-01T03:55:27Z</time>
      </trkpt>
      <trkpt lat="42.32562" lon="2.18952">
        <ele>1530</ele>
        <time>2010-01-01T03:55:28Z</time>
      </trkpt>
      <trkpt lat="42.32562" lon="2.18945">
        <ele>1529</ele>
        <time>2010-01-01T03:55:30Z</time>
      </trkpt>
      <trkpt lat="42.32563" lon="2.18942">
        <ele>1529</ele>
        <time>2010-01-01T03:55:31Z</time>
      </trkpt>
      <trkpt lat="42.32563" lon="2.18938">
        <ele>1528</ele>
        <time>2010-01-01T03:55:32Z</time>
      </trkpt>
      <trkpt lat="42.32564" lon="2.18934">
        <ele>1528</ele>
        <time>2010-01-01T03:55:34Z</time>
      </trkpt>
      <trkpt lat="42.32565" lon="2.1893">
        <ele>1528</ele>
        <time>2010-01-01T03:55:35Z</time>
      </trkpt>
      <trkpt lat="42.32566" lon="2.18927">
        <ele>1527</ele>
        <time>2010-01-01T03:55:36Z</time>
      </trkpt>
      <trkpt lat="42.32566" lon="2.18923">
        <ele>1527</ele>
        <time>2010-01-01T03:55:37Z</time>
      </trkpt>
      <trkpt lat="42.32567" lon="2.18919">
        <ele>1527</ele>
        <time>2010-01-01T03:55:38Z</time>
      </trkpt>
      <trkpt lat="42.32567" lon="2.18915">
        <ele>1526</ele>
        <time>2010-01-01T03:55:39Z</time>
      </trkpt>
      <trkpt lat="42.32569" lon="2.18911">
        <ele>1526</ele>
        <time>2010-01-01T03:55:41Z</time>
      </trkpt>
      <trkpt lat="42.32569" lon="2.18908">
        <ele>1526</ele>
        <time>2010-01-01T03:55:42Z</time>
      </trkpt>
      <trkpt lat="42.32569" lon="2.18904">
        <ele>1525</ele>
        <time>2010-01-01T03:55:43Z</time>
      </trkpt>
      <trkpt lat="42.32569" lon="2.189">
        <ele>1525</ele>
        <time>2010-01-01T03:55:44Z</time>
      </trkpt>
      <trkpt lat="42.3257" lon="2.18896">
        <ele>1525</ele>
        <time>2010-01-01T03:55:45Z</time>
      </trkpt>
      <trkpt lat="42.3257" lon="2.18888">
        <ele>1524</ele>
        <time>2010-01-01T03:55:48Z</time>
      </trkpt>
      <trkpt lat="42.32569" lon="2.18883">
        <ele>1523</ele>
        <time>2010-01-01T03:55:49Z</time>
      </trkpt>
      <trkpt lat="42.3257" lon="2.18878">
        <ele>1523</ele>
        <time>2010-01-01T03:55:51Z</time>
      </trkpt>
      <trkpt lat="42.3257" lon="2.18875">
        <ele>1523</ele>
        <time>2010-01-01T03:55:52Z</time>
      </trkpt>
      <trkpt lat="42.32571" lon="2.18871">
        <ele>1523</ele>
        <time>2010-01-01T03:55:53Z</time>
      </trkpt>
      <trkpt lat="42.32571" lon="2.18867">
        <ele>1523</ele>
        <time>2010-01-01T03:55:54Z</time>
      </trkpt>
      <trkpt lat="42.32571" lon="2.1886">
        <ele>1522</ele>
        <time>2010-01-01T03:55:56Z</time>
      </trkpt>
      <trkpt lat="42.32572" lon="2.18857">
        <ele>1522</ele>
        <time>2010-01-01T03:55:57Z</time>
      </trkpt>
      <trkpt lat="42.32572" lon="2.18853">
        <ele>1521</ele>
        <time>2010-01-01T03:55:58Z</time>
      </trkpt>
      <trkpt lat="42.32573" lon="2.18849">
        <ele>1521</ele>
        <time>2010-01-01T03:55:59Z</time>
      </trkpt>
      <trkpt lat="42.32575" lon="2.18845">
        <ele>1521</ele>
        <time>2010-01-01T03:56:01Z</time>
      </trkpt>
      <trkpt lat="42.32576" lon="2.18842">
        <ele>1521</ele>
        <time>2010-01-01T03:56:02Z</time>
      </trkpt>
      <trkpt lat="42.32576" lon="2.18838">
        <ele>1521</ele>
        <time>2010-01-01T03:56:03Z</time>
      </trkpt>
      <trkpt lat="42.32576" lon="2.18834">
        <ele>1520</ele>
        <time>2010-01-01T03:56:04Z</time>
      </trkpt>
      <trkpt lat="42.32576" lon="2.1883">
        <ele>1519</ele>
        <time>2010-01-01T03:56:05Z</time>
      </trkpt>
      <trkpt lat="42.32577" lon="2.18826">
        <ele>1519</ele>
        <time>2010-01-01T03:56:06Z</time>
      </trkpt>
      <trkpt lat="42.32577" lon="2.18822">
        <ele>1519</ele>
        <time>2010-01-01T03:56:08Z</time>
      </trkpt>
      <trkpt lat="42.32578" lon="2.18818">
        <ele>1519</ele>
        <time>2010-01-01T03:56:09Z</time>
      </trkpt>
      <trkpt lat="42.32578" lon="2.18815">
        <ele>1519</ele>
        <time>2010-01-01T03:56:10Z</time>
      </trkpt>
      <trkpt lat="42.3258" lon="2.18811">
        <ele>1520</ele>
        <time>2010-01-01T03:56:11Z</time>
      </trkpt>
      <trkpt lat="42.3258" lon="2.18807">
        <ele>1520</ele>
        <time>2010-01-01T03:56:12Z</time>
      </trkpt>
      <trkpt lat="42.32581" lon="2.18803">
        <ele>1520</ele>
        <time>2010-01-01T03:56:13Z</time>
      </trkpt>
      <trkpt lat="42.32583" lon="2.188">
        <ele>1520</ele>
        <time>2010-01-01T03:56:15Z</time>
      </trkpt>
      <trkpt lat="42.32584" lon="2.18797">
        <ele>1520</ele>
        <time>2010-01-01T03:56:16Z</time>
      </trkpt>
      <trkpt lat="42.32585" lon="2.18793">
        <ele>1520</ele>
        <time>2010-01-01T03:56:17Z</time>
      </trkpt>
      <trkpt lat="42.32586" lon="2.1879">
        <ele>1520</ele>
        <time>2010-01-01T03:56:18Z</time>
      </trkpt>
      <trkpt lat="42.32587" lon="2.18786">
        <ele>1519</ele>
        <time>2010-01-01T03:56:19Z</time>
      </trkpt>
      <trkpt lat="42.32588" lon="2.18782">
        <ele>1519</ele>
        <time>2010-01-01T03:56:20Z</time>
      </trkpt>
      <trkpt lat="42.32589" lon="2.18778">
        <ele>1519</ele>
        <time>2010-01-01T03:56:21Z</time>
      </trkpt>
      <trkpt lat="42.32589" lon="2.18775">
        <ele>1518</ele>
        <time>2010-01-01T03:56:23Z</time>
      </trkpt>
      <trkpt lat="42.3259" lon="2.18771">
        <ele>1518</ele>
        <time>2010-01-01T03:56:24Z</time>
      </trkpt>
      <trkpt lat="42.32591" lon="2.18766">
        <ele>1517</ele>
        <time>2010-01-01T03:56:25Z</time>
      </trkpt>
      <trkpt lat="42.32591" lon="2.18763">
        <ele>1517</ele>
        <time>2010-01-01T03:56:26Z</time>
      </trkpt>
      <trkpt lat="42.32592" lon="2.18759">
        <ele>1516</ele>
        <time>2010-01-01T03:56:27Z</time>
      </trkpt>
      <trkpt lat="42.32592" lon="2.18755">
        <ele>1516</ele>
        <time>2010-01-01T03:56:28Z</time>
      </trkpt>
      <trkpt lat="42.32593" lon="2.18752">
        <ele>1515</ele>
        <time>2010-01-01T03:56:29Z</time>
      </trkpt>
      <trkpt lat="42.32593" lon="2.18749">
        <ele>1515</ele>
        <time>2010-01-01T03:56:30Z</time>
      </trkpt>
      <trkpt lat="42.32593" lon="2.18745">
        <ele>1514</ele>
        <time>2010-01-01T03:56:31Z</time>
      </trkpt>
      <trkpt lat="42.32594" lon="2.18742">
        <ele>1514</ele>
        <time>2010-01-01T03:56:32Z</time>
      </trkpt>
      <trkpt lat="42.32594" lon="2.18739">
        <ele>1514</ele>
        <time>2010-01-01T03:56:33Z</time>
      </trkpt>
      <trkpt lat="42.32595" lon="2.18735">
        <ele>1514</ele>
        <time>2010-01-01T03:56:34Z</time>
      </trkpt>
      <trkpt lat="42.32596" lon="2.18732">
        <ele>1514</ele>
        <time>2010-01-01T03:56:35Z</time>
      </trkpt>
      <trkpt lat="42.32596" lon="2.18728">
        <ele>1513</ele>
        <time>2010-01-01T03:56:36Z</time>
      </trkpt>
      <trkpt lat="42.32595" lon="2.18725">
        <ele>1513</ele>
        <time>2010-01-01T03:56:38Z</time>
      </trkpt>
      <trkpt lat="42.32595" lon="2.1872">
        <ele>1512</ele>
        <time>2010-01-01T03:56:39Z</time>
      </trkpt>
      <trkpt lat="42.32596" lon="2.18717">
        <ele>1513</ele>
        <time>2010-01-01T03:56:40Z</time>
      </trkpt>
      <trkpt lat="42.32596" lon="2.18713">
        <ele>1513</ele>
        <time>2010-01-01T03:56:41Z</time>
      </trkpt>
      <trkpt lat="42.32596" lon="2.1871">
        <ele>1513</ele>
        <time>2010-01-01T03:56:42Z</time>
      </trkpt>
      <trkpt lat="42.32595" lon="2.18706">
        <ele>1512</ele>
        <time>2010-01-01T03:56:43Z</time>
      </trkpt>
      <trkpt lat="42.32595" lon="2.18702">
        <ele>1512</ele>
        <time>2010-01-01T03:56:44Z</time>
      </trkpt>
      <trkpt lat="42.32595" lon="2.18698">
        <ele>1512</ele>
        <time>2010-01-01T03:56:45Z</time>
      </trkpt>
      <trkpt lat="42.32595" lon="2.18694">
        <ele>1512</ele>
        <time>2010-01-01T03:56:47Z</time>
      </trkpt>
      <trkpt lat="42.32594" lon="2.18691">
        <ele>1512</ele>
        <time>2010-01-01T03:56:48Z</time>
      </trkpt>
      <trkpt lat="42.32593" lon="2.18688">
        <ele>1511</ele>
        <time>2010-01-01T03:56:49Z</time>
      </trkpt>
      <trkpt lat="42.32592" lon="2.18684">
        <ele>1510</ele>
        <time>2010-01-01T03:56:50Z</time>
      </trkpt>
      <trkpt lat="42.32591" lon="2.18681">
        <ele>1509</ele>
        <time>2010-01-01T03:56:51Z</time>
      </trkpt>
      <trkpt lat="42.3259" lon="2.18678">
        <ele>1509</ele>
        <time>2010-01-01T03:56:52Z</time>
      </trkpt>
      <trkpt lat="42.32589" lon="2.18674">
        <ele>1508</ele>
        <time>2010-01-01T03:56:53Z</time>
      </trkpt>
      <trkpt lat="42.32588" lon="2.18671">
        <ele>1507</ele>
        <time>2010-01-01T03:56:54Z</time>
      </trkpt>
      <trkpt lat="42.32587" lon="2.18668">
        <ele>1506</ele>
        <time>2010-01-01T03:56:55Z</time>
      </trkpt>
      <trkpt lat="42.32587" lon="2.18664">
        <ele>1505</ele>
        <time>2010-01-01T03:56:56Z</time>
      </trkpt>
      <trkpt lat="42.32586" lon="2.1866">
        <ele>1505</ele>
        <time>2010-01-01T03:56:57Z</time>
      </trkpt>
      <trkpt lat="42.32586" lon="2.18656">
        <ele>1504</ele>
        <time>2010-01-01T03:56:58Z</time>
      </trkpt>
      <trkpt lat="42.32586" lon="2.18653">
        <ele>1504</ele>
        <time>2010-01-01T03:57:00Z</time>
      </trkpt>
      <trkpt lat="42.32585" lon="2.18649">
        <ele>1503</ele>
        <time>2010-01-01T03:57:01Z</time>
      </trkpt>
      <trkpt lat="42.32585" lon="2.18645">
        <ele>1503</ele>
        <time>2010-01-01T03:57:02Z</time>
      </trkpt>
      <trkpt lat="42.32584" lon="2.18642">
        <ele>1502</ele>
        <time>2010-01-01T03:57:03Z</time>
      </trkpt>
      <trkpt lat="42.32584" lon="2.18638">
        <ele>1502</ele>
        <time>2010-01-01T03:57:04Z</time>
      </trkpt>
      <trkpt lat="42.32584" lon="2.18635">
        <ele>1502</ele>
        <time>2010-01-01T03:57:05Z</time>
      </trkpt>
      <trkpt lat="42.32583" lon="2.18631">
        <ele>1501</ele>
        <time>2010-01-01T03:57:06Z</time>
      </trkpt>
      <trkpt lat="42.32583" lon="2.18627">
        <ele>1501</ele>
        <time>2010-01-01T03:57:07Z</time>
      </trkpt>
      <trkpt lat="42.32583" lon="2.18623">
        <ele>1501</ele>
        <time>2010-01-01T03:57:08Z</time>
      </trkpt>
      <trkpt lat="42.32583" lon="2.1862">
        <ele>1500</ele>
        <time>2010-01-01T03:57:09Z</time>
      </trkpt>
      <trkpt lat="42.32582" lon="2.18613">
        <ele>1500</ele>
        <time>2010-01-01T03:57:11Z</time>
      </trkpt>
      <trkpt lat="42.32582" lon="2.1861">
        <ele>1500</ele>
        <time>2010-01-01T03:57:12Z</time>
      </trkpt>
      <trkpt lat="42.32582" lon="2.18602">
        <ele>1500</ele>
        <time>2010-01-01T03:57:15Z</time>
      </trkpt>
      <trkpt lat="42.32582" lon="2.18598">
        <ele>1500</ele>
        <time>2010-01-01T03:57:16Z</time>
      </trkpt>
      <trkpt lat="42.32582" lon="2.18591">
        <ele>1500</ele>
        <time>2010-01-01T03:57:18Z</time>
      </trkpt>
      <trkpt lat="42.32582" lon="2.18587">
        <ele>1500</ele>
        <time>2010-01-01T03:57:19Z</time>
      </trkpt>
      <trkpt lat="42.32582" lon="2.18584">
        <ele>1501</ele>
        <time>2010-01-01T03:57:20Z</time>
      </trkpt>
      <trkpt lat="42.32582" lon="2.1858">
        <ele>1501</ele>
        <time>2010-01-01T03:57:21Z</time>
      </trkpt>
      <trkpt lat="42.32581" lon="2.18576">
        <ele>1501</ele>
        <time>2010-01-01T03:57:22Z</time>
      </trkpt>
      <trkpt lat="42.32581" lon="2.18572">
        <ele>1501</ele>
        <time>2010-01-01T03:57:24Z</time>
      </trkpt>
      <trkpt lat="42.3258" lon="2.18568">
        <ele>1500</ele>
        <time>2010-01-01T03:57:25Z</time>
      </trkpt>
      <trkpt lat="42.32579" lon="2.18565">
        <ele>1500</ele>
        <time>2010-01-01T03:57:26Z</time>
      </trkpt>
      <trkpt lat="42.32579" lon="2.18561">
        <ele>1500</ele>
        <time>2010-01-01T03:57:27Z</time>
      </trkpt>
      <trkpt lat="42.32578" lon="2.18558">
        <ele>1500</ele>
        <time>2010-01-01T03:57:28Z</time>
      </trkpt>
      <trkpt lat="42.32577" lon="2.18555">
        <ele>1499</ele>
        <time>2010-01-01T03:57:29Z</time>
      </trkpt>
      <trkpt lat="42.32577" lon="2.18551">
        <ele>1499</ele>
        <time>2010-01-01T03:57:30Z</time>
      </trkpt>
      <trkpt lat="42.32576" lon="2.18547">
        <ele>1499</ele>
        <time>2010-01-01T03:57:31Z</time>
      </trkpt>
      <trkpt lat="42.32576" lon="2.18543">
        <ele>1499</ele>
        <time>2010-01-01T03:57:32Z</time>
      </trkpt>
      <trkpt lat="42.32575" lon="2.1854">
        <ele>1498</ele>
        <time>2010-01-01T03:57:33Z</time>
      </trkpt>
      <trkpt lat="42.32574" lon="2.18536">
        <ele>1498</ele>
        <time>2010-01-01T03:57:35Z</time>
      </trkpt>
      <trkpt lat="42.32574" lon="2.18532">
        <ele>1498</ele>
        <time>2010-01-01T03:57:36Z</time>
      </trkpt>
      <trkpt lat="42.32574" lon="2.18528">
        <ele>1497</ele>
        <time>2010-01-01T03:57:37Z</time>
      </trkpt>
      <trkpt lat="42.32573" lon="2.18525">
        <ele>1497</ele>
        <time>2010-01-01T03:57:38Z</time>
      </trkpt>
      <trkpt lat="42.32572" lon="2.1852">
        <ele>1496</ele>
        <time>2010-01-01T03:57:39Z</time>
      </trkpt>
      <trkpt lat="42.32572" lon="2.18517">
        <ele>1496</ele>
        <time>2010-01-01T03:57:40Z</time>
      </trkpt>
      <trkpt lat="42.32571" lon="2.18513">
        <ele>1496</ele>
        <time>2010-01-01T03:57:42Z</time>
      </trkpt>
      <trkpt lat="42.32571" lon="2.18509">
        <ele>1495</ele>
        <time>2010-01-01T03:57:43Z</time>
      </trkpt>
      <trkpt lat="42.3257" lon="2.18505">
        <ele>1495</ele>
        <time>2010-01-01T03:57:44Z</time>
      </trkpt>
      <trkpt lat="42.3257" lon="2.18502">
        <ele>1495</ele>
        <time>2010-01-01T03:57:45Z</time>
      </trkpt>
      <trkpt lat="42.32569" lon="2.18498">
        <ele>1494</ele>
        <time>2010-01-01T03:57:46Z</time>
      </trkpt>
      <trkpt lat="42.32569" lon="2.18495">
        <ele>1494</ele>
        <time>2010-01-01T03:57:47Z</time>
      </trkpt>
      <trkpt lat="42.32568" lon="2.18491">
        <ele>1494</ele>
        <time>2010-01-01T03:57:48Z</time>
      </trkpt>
      <trkpt lat="42.32568" lon="2.18487">
        <ele>1494</ele>
        <time>2010-01-01T03:57:49Z</time>
      </trkpt>
      <trkpt lat="42.32567" lon="2.18483">
        <ele>1494</ele>
        <time>2010-01-01T03:57:50Z</time>
      </trkpt>
      <trkpt lat="42.32566" lon="2.18479">
        <ele>1493</ele>
        <time>2010-01-01T03:57:52Z</time>
      </trkpt>
      <trkpt lat="42.32565" lon="2.18476">
        <ele>1493</ele>
        <time>2010-01-01T03:57:53Z</time>
      </trkpt>
      <trkpt lat="42.32565" lon="2.18472">
        <ele>1493</ele>
        <time>2010-01-01T03:57:54Z</time>
      </trkpt>
      <trkpt lat="42.32564" lon="2.18468">
        <ele>1492</ele>
        <time>2010-01-01T03:57:55Z</time>
      </trkpt>
      <trkpt lat="42.32563" lon="2.18465">
        <ele>1492</ele>
        <time>2010-01-01T03:57:56Z</time>
      </trkpt>
      <trkpt lat="42.32562" lon="2.18461">
        <ele>1492</ele>
        <time>2010-01-01T03:57:57Z</time>
      </trkpt>
      <trkpt lat="42.32562" lon="2.18457">
        <ele>1491</ele>
        <time>2010-01-01T03:57:59Z</time>
      </trkpt>
      <trkpt lat="42.32561" lon="2.18453">
        <ele>1491</ele>
        <time>2010-01-01T03:58:00Z</time>
      </trkpt>
      <trkpt lat="42.3256" lon="2.18449">
        <ele>1491</ele>
        <time>2010-01-01T03:58:01Z</time>
      </trkpt>
      <trkpt lat="42.3256" lon="2.18445">
        <ele>1491</ele>
        <time>2010-01-01T03:58:02Z</time>
      </trkpt>
      <trkpt lat="42.32559" lon="2.18442">
        <ele>1490</ele>
        <time>2010-01-01T03:58:03Z</time>
      </trkpt>
      <trkpt lat="42.32558" lon="2.18438">
        <ele>1490</ele>
        <time>2010-01-01T03:58:04Z</time>
      </trkpt>
      <trkpt lat="42.32558" lon="2.18434">
        <ele>1490</ele>
        <time>2010-01-01T03:58:06Z</time>
      </trkpt>
      <trkpt lat="42.32557" lon="2.18431">
        <ele>1489</ele>
        <time>2010-01-01T03:58:07Z</time>
      </trkpt>
      <trkpt lat="42.32557" lon="2.18427">
        <ele>1489</ele>
        <time>2010-01-01T03:58:08Z</time>
      </trkpt>
      <trkpt lat="42.32555" lon="2.18423">
        <ele>1488</ele>
        <time>2010-01-01T03:58:09Z</time>
      </trkpt>
      <trkpt lat="42.32554" lon="2.1842">
        <ele>1488</ele>
        <time>2010-01-01T03:58:10Z</time>
      </trkpt>
      <trkpt lat="42.32554" lon="2.18416">
        <ele>1487</ele>
        <time>2010-01-01T03:58:11Z</time>
      </trkpt>
      <trkpt lat="42.32553" lon="2.18408">
        <ele>1488</ele>
        <time>2010-01-01T03:58:14Z</time>
      </trkpt>
      <trkpt lat="42.32552" lon="2.18404">
        <ele>1488</ele>
        <time>2010-01-01T03:58:15Z</time>
      </trkpt>
      <trkpt lat="42.32551" lon="2.18401">
        <ele>1488</ele>
        <time>2010-01-01T03:58:16Z</time>
      </trkpt>
      <trkpt lat="42.32551" lon="2.18397">
        <ele>1488</ele>
        <time>2010-01-01T03:58:17Z</time>
      </trkpt>
      <trkpt lat="42.3255" lon="2.18394">
        <ele>1488</ele>
        <time>2010-01-01T03:58:18Z</time>
      </trkpt>
      <trkpt lat="42.32549" lon="2.1839">
        <ele>1488</ele>
        <time>2010-01-01T03:58:19Z</time>
      </trkpt>
      <trkpt lat="42.32548" lon="2.18386">
        <ele>1487</ele>
        <time>2010-01-01T03:58:20Z</time>
      </trkpt>
      <trkpt lat="42.32547" lon="2.18383">
        <ele>1487</ele>
        <time>2010-01-01T03:58:21Z</time>
      </trkpt>
      <trkpt lat="42.32545" lon="2.1838">
        <ele>1487</ele>
        <time>2010-01-01T03:58:22Z</time>
      </trkpt>
      <trkpt lat="42.32544" lon="2.18378">
        <ele>1486</ele>
        <time>2010-01-01T03:58:23Z</time>
      </trkpt>
      <trkpt lat="42.32542" lon="2.18375">
        <ele>1486</ele>
        <time>2010-01-01T03:58:24Z</time>
      </trkpt>
      <trkpt lat="42.32541" lon="2.18372">
        <ele>1485</ele>
        <time>2010-01-01T03:58:25Z</time>
      </trkpt>
      <trkpt lat="42.3254" lon="2.18369">
        <ele>1485</ele>
        <time>2010-01-01T03:58:26Z</time>
      </trkpt>
      <trkpt lat="42.32538" lon="2.18365">
        <ele>1485</ele>
        <time>2010-01-01T03:58:28Z</time>
      </trkpt>
      <trkpt lat="42.32538" lon="2.18362">
        <ele>1485</ele>
        <time>2010-01-01T03:58:29Z</time>
      </trkpt>
      <trkpt lat="42.32536" lon="2.18359">
        <ele>1484</ele>
        <time>2010-01-01T03:58:30Z</time>
      </trkpt>
      <trkpt lat="42.32535" lon="2.18355">
        <ele>1484</ele>
        <time>2010-01-01T03:58:31Z</time>
      </trkpt>
      <trkpt lat="42.32533" lon="2.18352">
        <ele>1483</ele>
        <time>2010-01-01T03:58:32Z</time>
      </trkpt>
      <trkpt lat="42.32532" lon="2.18349">
        <ele>1483</ele>
        <time>2010-01-01T03:58:33Z</time>
      </trkpt>
      <trkpt lat="42.3253" lon="2.18346">
        <ele>1483</ele>
        <time>2010-01-01T03:58:34Z</time>
      </trkpt>
      <trkpt lat="42.32529" lon="2.18343">
        <ele>1483</ele>
        <time>2010-01-01T03:58:35Z</time>
      </trkpt>
      <trkpt lat="42.32527" lon="2.1834">
        <ele>1482</ele>
        <time>2010-01-01T03:58:36Z</time>
      </trkpt>
      <trkpt lat="42.32526" lon="2.18336">
        <ele>1482</ele>
        <time>2010-01-01T03:58:38Z</time>
      </trkpt>
      <trkpt lat="42.32525" lon="2.18332">
        <ele>1482</ele>
        <time>2010-01-01T03:58:39Z</time>
      </trkpt>
      <trkpt lat="42.32524" lon="2.18328">
        <ele>1482</ele>
        <time>2010-01-01T03:58:40Z</time>
      </trkpt>
      <trkpt lat="42.32524" lon="2.18325">
        <ele>1481</ele>
        <time>2010-01-01T03:58:41Z</time>
      </trkpt>
      <trkpt lat="42.32523" lon="2.18321">
        <ele>1481</ele>
        <time>2010-01-01T03:58:42Z</time>
      </trkpt>
      <trkpt lat="42.32522" lon="2.18317">
        <ele>1480</ele>
        <time>2010-01-01T03:58:43Z</time>
      </trkpt>
      <trkpt lat="42.32521" lon="2.18313">
        <ele>1480</ele>
        <time>2010-01-01T03:58:45Z</time>
      </trkpt>
      <trkpt lat="42.3252" lon="2.18309">
        <ele>1479</ele>
        <time>2010-01-01T03:58:46Z</time>
      </trkpt>
      <trkpt lat="42.32519" lon="2.18302">
        <ele>1479</ele>
        <time>2010-01-01T03:58:48Z</time>
      </trkpt>
      <trkpt lat="42.32518" lon="2.18298">
        <ele>1479</ele>
        <time>2010-01-01T03:58:49Z</time>
      </trkpt>
      <trkpt lat="42.32518" lon="2.18294">
        <ele>1478</ele>
        <time>2010-01-01T03:58:50Z</time>
      </trkpt>
      <trkpt lat="42.32517" lon="2.18291">
        <ele>1478</ele>
        <time>2010-01-01T03:58:51Z</time>
      </trkpt>
      <trkpt lat="42.32517" lon="2.18287">
        <ele>1478</ele>
        <time>2010-01-01T03:58:53Z</time>
      </trkpt>
      <trkpt lat="42.32516" lon="2.18283">
        <ele>1478</ele>
        <time>2010-01-01T03:58:54Z</time>
      </trkpt>
      <trkpt lat="42.32515" lon="2.1828">
        <ele>1478</ele>
        <time>2010-01-01T03:58:55Z</time>
      </trkpt>
      <trkpt lat="42.32515" lon="2.18276">
        <ele>1477</ele>
        <time>2010-01-01T03:58:56Z</time>
      </trkpt>
      <trkpt lat="42.32514" lon="2.18272">
        <ele>1477</ele>
        <time>2010-01-01T03:58:57Z</time>
      </trkpt>
      <trkpt lat="42.32514" lon="2.18269">
        <ele>1477</ele>
        <time>2010-01-01T03:58:58Z</time>
      </trkpt>
      <trkpt lat="42.32513" lon="2.18265">
        <ele>1477</ele>
        <time>2010-01-01T03:58:59Z</time>
      </trkpt>
      <trkpt lat="42.32512" lon="2.18261">
        <ele>1476</ele>
        <time>2010-01-01T03:59:01Z</time>
      </trkpt>
      <trkpt lat="42.32511" lon="2.18257">
        <ele>1476</ele>
        <time>2010-01-01T03:59:02Z</time>
      </trkpt>
      <trkpt lat="42.32511" lon="2.18254">
        <ele>1476</ele>
        <time>2010-01-01T03:59:03Z</time>
      </trkpt>
      <trkpt lat="42.3251" lon="2.1825">
        <ele>1476</ele>
        <time>2010-01-01T03:59:04Z</time>
      </trkpt>
      <trkpt lat="42.3251" lon="2.18246">
        <ele>1475</ele>
        <time>2010-01-01T03:59:05Z</time>
      </trkpt>
      <trkpt lat="42.3251" lon="2.18242">
        <ele>1475</ele>
        <time>2010-01-01T03:59:06Z</time>
      </trkpt>
      <trkpt lat="42.3251" lon="2.18239">
        <ele>1475</ele>
        <time>2010-01-01T03:59:07Z</time>
      </trkpt>
      <trkpt lat="42.32509" lon="2.18235">
        <ele>1474</ele>
        <time>2010-01-01T03:59:08Z</time>
      </trkpt>
      <trkpt lat="42.32509" lon="2.18232">
        <ele>1474</ele>
        <time>2010-01-01T03:59:09Z</time>
      </trkpt>
      <trkpt lat="42.32509" lon="2.18228">
        <ele>1474</ele>
        <time>2010-01-01T03:59:10Z</time>
      </trkpt>
      <trkpt lat="42.32509" lon="2.18221">
        <ele>1473</ele>
        <time>2010-01-01T03:59:12Z</time>
      </trkpt>
      <trkpt lat="42.3251" lon="2.18218">
        <ele>1473</ele>
        <time>2010-01-01T03:59:13Z</time>
      </trkpt>
      <trkpt lat="42.32511" lon="2.18216">
        <ele>1473</ele>
        <time>2010-01-01T03:59:14Z</time>
      </trkpt>
      <trkpt lat="42.32513" lon="2.18212">
        <ele>1474</ele>
        <time>2010-01-01T03:59:16Z</time>
      </trkpt>
      <trkpt lat="42.32515" lon="2.1821">
        <ele>1474</ele>
        <time>2010-01-01T03:59:16Z</time>
      </trkpt>
      <trkpt lat="42.32515" lon="2.18207">
        <ele>1473</ele>
        <time>2010-01-01T03:59:17Z</time>
      </trkpt>
      <trkpt lat="42.32516" lon="2.18203">
        <ele>1473</ele>
        <time>2010-01-01T03:59:19Z</time>
      </trkpt>
      <trkpt lat="42.32519" lon="2.18199">
        <ele>1473</ele>
        <time>2010-01-01T03:59:20Z</time>
      </trkpt>
      <trkpt lat="42.32521" lon="2.18197">
        <ele>1473</ele>
        <time>2010-01-01T03:59:21Z</time>
      </trkpt>
      <trkpt lat="42.32524" lon="2.18195">
        <ele>1473</ele>
        <time>2010-01-01T03:59:22Z</time>
      </trkpt>
      <trkpt lat="42.32526" lon="2.18194">
        <ele>1473</ele>
        <time>2010-01-01T03:59:23Z</time>
      </trkpt>
      <trkpt lat="42.32528" lon="2.18192">
        <ele>1473</ele>
        <time>2010-01-01T03:59:25Z</time>
      </trkpt>
      <trkpt lat="42.32527" lon="2.18193">
        <ele>1473</ele>
        <time>2010-01-01T03:59:25Z</time>
      </trkpt>
      <trkpt lat="42.32524" lon="2.18195">
        <ele>1473</ele>
        <time>2010-01-01T03:59:26Z</time>
      </trkpt>
      <trkpt lat="42.32522" lon="2.18196">
        <ele>1473</ele>
        <time>2010-01-01T03:59:27Z</time>
      </trkpt>
      <trkpt lat="42.3252" lon="2.18194">
        <ele>1472</ele>
        <time>2010-01-01T03:59:28Z</time>
      </trkpt>
      <trkpt lat="42.32519" lon="2.18192">
        <ele>1472</ele>
        <time>2010-01-01T03:59:29Z</time>
      </trkpt>
      <trkpt lat="42.32518" lon="2.18189">
        <ele>1471</ele>
        <time>2010-01-01T03:59:30Z</time>
      </trkpt>
      <trkpt lat="42.32516" lon="2.18186">
        <ele>1470</ele>
        <time>2010-01-01T03:59:31Z</time>
      </trkpt>
      <trkpt lat="42.32515" lon="2.18184">
        <ele>1469</ele>
        <time>2010-01-01T03:59:32Z</time>
      </trkpt>
      <trkpt lat="42.32515" lon="2.18182">
        <ele>1469</ele>
        <time>2010-01-01T03:59:32Z</time>
      </trkpt>
      <trkpt lat="42.32513" lon="2.1818">
        <ele>1468</ele>
        <time>2010-01-01T03:59:33Z</time>
      </trkpt>
      <trkpt lat="42.32511" lon="2.18178">
        <ele>1468</ele>
        <time>2010-01-01T03:59:34Z</time>
      </trkpt>
      <trkpt lat="42.32509" lon="2.18176">
        <ele>1467</ele>
        <time>2010-01-01T03:59:35Z</time>
      </trkpt>
      <trkpt lat="42.32508" lon="2.18173">
        <ele>1466</ele>
        <time>2010-01-01T03:59:36Z</time>
      </trkpt>
      <trkpt lat="42.32507" lon="2.18171">
        <ele>1466</ele>
        <time>2010-01-01T03:59:37Z</time>
      </trkpt>
      <trkpt lat="42.32506" lon="2.18168">
        <ele>1465</ele>
        <time>2010-01-01T03:59:38Z</time>
      </trkpt>
      <trkpt lat="42.32505" lon="2.18165">
        <ele>1464</ele>
        <time>2010-01-01T03:59:39Z</time>
      </trkpt>
      <trkpt lat="42.32503" lon="2.18163">
        <ele>1464</ele>
        <time>2010-01-01T03:59:40Z</time>
      </trkpt>
      <trkpt lat="42.32501" lon="2.18161">
        <ele>1463</ele>
        <time>2010-01-01T03:59:41Z</time>
      </trkpt>
      <trkpt lat="42.32499" lon="2.18159">
        <ele>1463</ele>
        <time>2010-01-01T03:59:42Z</time>
      </trkpt>
      <trkpt lat="42.32497" lon="2.18157">
        <ele>1462</ele>
        <time>2010-01-01T03:59:43Z</time>
      </trkpt>
      <trkpt lat="42.32495" lon="2.18156">
        <ele>1461</ele>
        <time>2010-01-01T03:59:44Z</time>
      </trkpt>
      <trkpt lat="42.32494" lon="2.18154">
        <ele>1461</ele>
        <time>2010-01-01T03:59:44Z</time>
      </trkpt>
      <trkpt lat="42.32493" lon="2.18152">
        <ele>1460</ele>
        <time>2010-01-01T03:59:45Z</time>
      </trkpt>
      <trkpt lat="42.32491" lon="2.18151">
        <ele>1459</ele>
        <time>2010-01-01T03:59:46Z</time>
      </trkpt>
      <trkpt lat="42.32489" lon="2.18149">
        <ele>1459</ele>
        <time>2010-01-01T03:59:47Z</time>
      </trkpt>
      <trkpt lat="42.32487" lon="2.18148">
        <ele>1458</ele>
        <time>2010-01-01T03:59:48Z</time>
      </trkpt>
      <trkpt lat="42.32485" lon="2.18146">
        <ele>1457</ele>
        <time>2010-01-01T03:59:49Z</time>
      </trkpt>
      <trkpt lat="42.32483" lon="2.18144">
        <ele>1456</ele>
        <time>2010-01-01T03:59:50Z</time>
      </trkpt>
      <trkpt lat="42.3248" lon="2.18142">
        <ele>1456</ele>
        <time>2010-01-01T03:59:51Z</time>
      </trkpt>
      <trkpt lat="42.32479" lon="2.18139">
        <ele>1455</ele>
        <time>2010-01-01T03:59:52Z</time>
      </trkpt>
      <trkpt lat="42.32477" lon="2.18138">
        <ele>1454</ele>
        <time>2010-01-01T03:59:53Z</time>
      </trkpt>
      <trkpt lat="42.32475" lon="2.18136">
        <ele>1453</ele>
        <time>2010-01-01T03:59:54Z</time>
      </trkpt>
      <trkpt lat="42.32473" lon="2.18134">
        <ele>1453</ele>
        <time>2010-01-01T03:59:55Z</time>
      </trkpt>
      <trkpt lat="42.32469" lon="2.18135">
        <ele>1452</ele>
        <time>2010-01-01T03:59:56Z</time>
      </trkpt>
      <trkpt lat="42.32468" lon="2.18136">
        <ele>1452</ele>
        <time>2010-01-01T03:59:57Z</time>
      </trkpt>
      <trkpt lat="42.32467" lon="2.18134">
        <ele>1451</ele>
        <time>2010-01-01T03:59:58Z</time>
      </trkpt>
      <trkpt lat="42.32464" lon="2.18134">
        <ele>1451</ele>
        <time>2010-01-01T03:59:59Z</time>
      </trkpt>
      <trkpt lat="42.3246" lon="2.18135">
        <ele>1450</ele>
        <time>2010-01-01T04:00:01Z</time>
      </trkpt>
      <trkpt lat="42.32454" lon="2.18133">
        <ele>1449</ele>
        <time>2010-01-01T04:00:03Z</time>
      </trkpt>
      <trkpt lat="42.32452" lon="2.18132">
        <ele>1448</ele>
        <time>2010-01-01T04:00:04Z</time>
      </trkpt>
      <trkpt lat="42.32451" lon="2.18131">
        <ele>1448</ele>
        <time>2010-01-01T04:00:05Z</time>
      </trkpt>
      <trkpt lat="42.32449" lon="2.18129">
        <ele>1447</ele>
        <time>2010-01-01T04:00:06Z</time>
      </trkpt>
      <trkpt lat="42.32446" lon="2.18128">
        <ele>1446</ele>
        <time>2010-01-01T04:00:07Z</time>
      </trkpt>
      <trkpt lat="42.32443" lon="2.18126">
        <ele>1445</ele>
        <time>2010-01-01T04:00:08Z</time>
      </trkpt>
      <trkpt lat="42.32441" lon="2.18125">
        <ele>1445</ele>
        <time>2010-01-01T04:00:09Z</time>
      </trkpt>
      <trkpt lat="42.3244" lon="2.18123">
        <ele>1444</ele>
        <time>2010-01-01T04:00:10Z</time>
      </trkpt>
      <trkpt lat="42.32437" lon="2.18121">
        <ele>1443</ele>
        <time>2010-01-01T04:00:11Z</time>
      </trkpt>
      <trkpt lat="42.32435" lon="2.18119">
        <ele>1442</ele>
        <time>2010-01-01T04:00:12Z</time>
      </trkpt>
      <trkpt lat="42.32433" lon="2.18117">
        <ele>1441</ele>
        <time>2010-01-01T04:00:13Z</time>
      </trkpt>
      <trkpt lat="42.3243" lon="2.18116">
        <ele>1440</ele>
        <time>2010-01-01T04:00:14Z</time>
      </trkpt>
      <trkpt lat="42.32428" lon="2.18114">
        <ele>1439</ele>
        <time>2010-01-01T04:00:15Z</time>
      </trkpt>
      <trkpt lat="42.32426" lon="2.18113">
        <ele>1438</ele>
        <time>2010-01-01T04:00:16Z</time>
      </trkpt>
      <trkpt lat="42.32423" lon="2.18113">
        <ele>1437</ele>
        <time>2010-01-01T04:00:17Z</time>
      </trkpt>
      <trkpt lat="42.32421" lon="2.18112">
        <ele>1437</ele>
        <time>2010-01-01T04:00:18Z</time>
      </trkpt>
      <trkpt lat="42.32417" lon="2.18111">
        <ele>1435</ele>
        <time>2010-01-01T04:00:20Z</time>
      </trkpt>
      <trkpt lat="42.32415" lon="2.1811">
        <ele>1434</ele>
        <time>2010-01-01T04:00:21Z</time>
      </trkpt>
      <trkpt lat="42.32412" lon="2.18109">
        <ele>1433</ele>
        <time>2010-01-01T04:00:22Z</time>
      </trkpt>
      <trkpt lat="42.32408" lon="2.18109">
        <ele>1432</ele>
        <time>2010-01-01T04:00:23Z</time>
      </trkpt>
      <trkpt lat="42.32406" lon="2.18109">
        <ele>1431</ele>
        <time>2010-01-01T04:00:24Z</time>
      </trkpt>
      <trkpt lat="42.32403" lon="2.18108">
        <ele>1429</ele>
        <time>2010-01-01T04:00:26Z</time>
      </trkpt>
      <trkpt lat="42.32401" lon="2.18106">
        <ele>1428</ele>
        <time>2010-01-01T04:00:26Z</time>
      </trkpt>
      <trkpt lat="42.32399" lon="2.18104">
        <ele>1427</ele>
        <time>2010-01-01T04:00:27Z</time>
      </trkpt>
      <trkpt lat="42.32398" lon="2.18102">
        <ele>1426</ele>
        <time>2010-01-01T04:00:28Z</time>
      </trkpt>
      <trkpt lat="42.32396" lon="2.181">
        <ele>1424</ele>
        <time>2010-01-01T04:00:29Z</time>
      </trkpt>
      <trkpt lat="42.32395" lon="2.18098">
        <ele>1423</ele>
        <time>2010-01-01T04:00:30Z</time>
      </trkpt>
      <trkpt lat="42.32393" lon="2.18096">
        <ele>1422</ele>
        <time>2010-01-01T04:00:31Z</time>
      </trkpt>
      <trkpt lat="42.32393" lon="2.18093">
        <ele>1421</ele>
        <time>2010-01-01T04:00:32Z</time>
      </trkpt>
      <trkpt lat="42.32391" lon="2.18092">
        <ele>1420</ele>
        <time>2010-01-01T04:00:33Z</time>
      </trkpt>
      <trkpt lat="42.32389" lon="2.18091">
        <ele>1419</ele>
        <time>2010-01-01T04:00:33Z</time>
      </trkpt>
      <trkpt lat="42.32386" lon="2.18092">
        <ele>1418</ele>
        <time>2010-01-01T04:00:34Z</time>
      </trkpt>
      <trkpt lat="42.32384" lon="2.18092">
        <ele>1418</ele>
        <time>2010-01-01T04:00:35Z</time>
      </trkpt>
      <trkpt lat="42.32382" lon="2.18093">
        <ele>1417</ele>
        <time>2010-01-01T04:00:36Z</time>
      </trkpt>
      <trkpt lat="42.32379" lon="2.18092">
        <ele>1415</ele>
        <time>2010-01-01T04:00:37Z</time>
      </trkpt>
      <trkpt lat="42.32377" lon="2.18092">
        <ele>1415</ele>
        <time>2010-01-01T04:00:38Z</time>
      </trkpt>
      <trkpt lat="42.32374" lon="2.18093">
        <ele>1414</ele>
        <time>2010-01-01T04:00:39Z</time>
      </trkpt>
      <trkpt lat="42.32371" lon="2.18093">
        <ele>1413</ele>
        <time>2010-01-01T04:00:40Z</time>
      </trkpt>
      <trkpt lat="42.32368" lon="2.18094">
        <ele>1412</ele>
        <time>2010-01-01T04:00:42Z</time>
      </trkpt>
      <trkpt lat="42.32367" lon="2.1809">
        <ele>1410</ele>
        <time>2010-01-01T04:00:43Z</time>
      </trkpt>
      <trkpt lat="42.32366" lon="2.18088">
        <ele>1409</ele>
        <time>2010-01-01T04:00:44Z</time>
      </trkpt>
      <trkpt lat="42.32365" lon="2.18086">
        <ele>1408</ele>
        <time>2010-01-01T04:00:44Z</time>
      </trkpt>
      <trkpt lat="42.32362" lon="2.18085">
        <ele>1407</ele>
        <time>2010-01-01T04:00:45Z</time>
      </trkpt>
      <trkpt lat="42.3236" lon="2.18084">
        <ele>1406</ele>
        <time>2010-01-01T04:00:46Z</time>
      </trkpt>
      <trkpt lat="42.32357" lon="2.18083">
        <ele>1405</ele>
        <time>2010-01-01T04:00:48Z</time>
      </trkpt>
      <trkpt lat="42.32355" lon="2.18081">
        <ele>1404</ele>
        <time>2010-01-01T04:00:49Z</time>
      </trkpt>
      <trkpt lat="42.32353" lon="2.1808">
        <ele>1403</ele>
        <time>2010-01-01T04:00:50Z</time>
      </trkpt>
      <trkpt lat="42.3235" lon="2.18079">
        <ele>1402</ele>
        <time>2010-01-01T04:00:51Z</time>
      </trkpt>
      <trkpt lat="42.32348" lon="2.18079">
        <ele>1402</ele>
        <time>2010-01-01T04:00:52Z</time>
      </trkpt>
      <trkpt lat="42.32346" lon="2.18079">
        <ele>1401</ele>
        <time>2010-01-01T04:00:53Z</time>
      </trkpt>
      <trkpt lat="42.32343" lon="2.18079">
        <ele>1401</ele>
        <time>2010-01-01T04:00:54Z</time>
      </trkpt>
      <trkpt lat="42.3234" lon="2.1808">
        <ele>1400</ele>
        <time>2010-01-01T04:00:55Z</time>
      </trkpt>
      <trkpt lat="42.32338" lon="2.1808">
        <ele>1400</ele>
        <time>2010-01-01T04:00:56Z</time>
      </trkpt>
      <trkpt lat="42.32335" lon="2.18082">
        <ele>1400</ele>
        <time>2010-01-01T04:00:57Z</time>
      </trkpt>
      <trkpt lat="42.32333" lon="2.18083">
        <ele>1399</ele>
        <time>2010-01-01T04:00:58Z</time>
      </trkpt>
      <trkpt lat="42.32331" lon="2.18082">
        <ele>1398</ele>
        <time>2010-01-01T04:00:59Z</time>
      </trkpt>
      <trkpt lat="42.32328" lon="2.18083">
        <ele>1398</ele>
        <time>2010-01-01T04:01:00Z</time>
      </trkpt>
      <trkpt lat="42.32325" lon="2.18082">
        <ele>1397</ele>
        <time>2010-01-01T04:01:01Z</time>
      </trkpt>
      <trkpt lat="42.32322" lon="2.18081">
        <ele>1395</ele>
        <time>2010-01-01T04:01:02Z</time>
      </trkpt>
      <trkpt lat="42.3232" lon="2.1808">
        <ele>1394</ele>
        <time>2010-01-01T04:01:03Z</time>
      </trkpt>
      <trkpt lat="42.32318" lon="2.18077">
        <ele>1394</ele>
        <time>2010-01-01T04:01:04Z</time>
      </trkpt>
      <trkpt lat="42.32317" lon="2.18075">
        <ele>1393</ele>
        <time>2010-01-01T04:01:05Z</time>
      </trkpt>
      <trkpt lat="42.32316" lon="2.18072">
        <ele>1392</ele>
        <time>2010-01-01T04:01:06Z</time>
      </trkpt>
      <trkpt lat="42.32315" lon="2.1807">
        <ele>1392</ele>
        <time>2010-01-01T04:01:07Z</time>
      </trkpt>
      <trkpt lat="42.32312" lon="2.18071">
        <ele>1391</ele>
        <time>2010-01-01T04:01:08Z</time>
      </trkpt>
      <trkpt lat="42.3231" lon="2.18071">
        <ele>1390</ele>
        <time>2010-01-01T04:01:09Z</time>
      </trkpt>
      <trkpt lat="42.32308" lon="2.18071">
        <ele>1390</ele>
        <time>2010-01-01T04:01:09Z</time>
      </trkpt>
      <trkpt lat="42.32307" lon="2.1807">
        <ele>1389</ele>
        <time>2010-01-01T04:01:10Z</time>
      </trkpt>
      <trkpt lat="42.32305" lon="2.18071">
        <ele>1389</ele>
        <time>2010-01-01T04:01:11Z</time>
      </trkpt>
      <trkpt lat="42.32303" lon="2.18069">
        <ele>1388</ele>
        <time>2010-01-01T04:01:12Z</time>
      </trkpt>
      <trkpt lat="42.32303" lon="2.18064">
        <ele>1387</ele>
        <time>2010-01-01T04:01:13Z</time>
      </trkpt>
      <trkpt lat="42.32304" lon="2.1806">
        <ele>1387</ele>
        <time>2010-01-01T04:01:15Z</time>
      </trkpt>
      <trkpt lat="42.32304" lon="2.18057">
        <ele>1387</ele>
        <time>2010-01-01T04:01:15Z</time>
      </trkpt>
      <trkpt lat="42.32303" lon="2.18053">
        <ele>1385</ele>
        <time>2010-01-01T04:01:17Z</time>
      </trkpt>
      <trkpt lat="42.32303" lon="2.18048">
        <ele>1384</ele>
        <time>2010-01-01T04:01:18Z</time>
      </trkpt>
      <trkpt lat="42.32304" lon="2.18044">
        <ele>1382</ele>
        <time>2010-01-01T04:01:19Z</time>
      </trkpt>
      <trkpt lat="42.32304" lon="2.1804">
        <ele>1381</ele>
        <time>2010-01-01T04:01:20Z</time>
      </trkpt>
      <trkpt lat="42.32305" lon="2.18036">
        <ele>1379</ele>
        <time>2010-01-01T04:01:22Z</time>
      </trkpt>
      <trkpt lat="42.32307" lon="2.18031">
        <ele>1378</ele>
        <time>2010-01-01T04:01:23Z</time>
      </trkpt>
      <trkpt lat="42.32308" lon="2.18028">
        <ele>1377</ele>
        <time>2010-01-01T04:01:24Z</time>
      </trkpt>
      <trkpt lat="42.3231" lon="2.18025">
        <ele>1377</ele>
        <time>2010-01-01T04:01:26Z</time>
      </trkpt>
      <trkpt lat="42.32312" lon="2.18024">
        <ele>1377</ele>
        <time>2010-01-01T04:01:26Z</time>
      </trkpt>
      <trkpt lat="42.32315" lon="2.18023">
        <ele>1378</ele>
        <time>2010-01-01T04:01:28Z</time>
      </trkpt>
      <trkpt lat="42.32318" lon="2.18022">
        <ele>1378</ele>
        <time>2010-01-01T04:01:29Z</time>
      </trkpt>
      <trkpt lat="42.32321" lon="2.18021">
        <ele>1379</ele>
        <time>2010-01-01T04:01:30Z</time>
      </trkpt>
      <trkpt lat="42.32324" lon="2.18019">
        <ele>1379</ele>
        <time>2010-01-01T04:01:31Z</time>
      </trkpt>
      <trkpt lat="42.32327" lon="2.18018">
        <ele>1380</ele>
        <time>2010-01-01T04:01:33Z</time>
      </trkpt>
      <trkpt lat="42.3233" lon="2.18017">
        <ele>1380</ele>
        <time>2010-01-01T04:01:34Z</time>
      </trkpt>
      <trkpt lat="42.32332" lon="2.18016">
        <ele>1381</ele>
        <time>2010-01-01T04:01:35Z</time>
      </trkpt>
      <trkpt lat="42.32334" lon="2.18016">
        <ele>1381</ele>
        <time>2010-01-01T04:01:35Z</time>
      </trkpt>
      <trkpt lat="42.32336" lon="2.18015">
        <ele>1381</ele>
        <time>2010-01-01T04:01:36Z</time>
      </trkpt>
      <trkpt lat="42.32337" lon="2.18015">
        <ele>1381</ele>
        <time>2010-01-01T04:01:37Z</time>
      </trkpt>
      <trkpt lat="42.3234" lon="2.18014">
        <ele>1381</ele>
        <time>2010-01-01T04:01:38Z</time>
      </trkpt>
      <trkpt lat="42.32343" lon="2.18013">
        <ele>1381</ele>
        <time>2010-01-01T04:01:39Z</time>
      </trkpt>
      <trkpt lat="42.32345" lon="2.18012">
        <ele>1381</ele>
        <time>2010-01-01T04:01:40Z</time>
      </trkpt>
      <trkpt lat="42.32347" lon="2.1801">
        <ele>1380</ele>
        <time>2010-01-01T04:01:41Z</time>
      </trkpt>
      <trkpt lat="42.3235" lon="2.18009">
        <ele>1380</ele>
        <time>2010-01-01T04:01:42Z</time>
      </trkpt>
      <trkpt lat="42.32352" lon="2.18008">
        <ele>1380</ele>
        <time>2010-01-01T04:01:43Z</time>
      </trkpt>
      <trkpt lat="42.32354" lon="2.18006">
        <ele>1379</ele>
        <time>2010-01-01T04:01:44Z</time>
      </trkpt>
      <trkpt lat="42.32356" lon="2.18005">
        <ele>1379</ele>
        <time>2010-01-01T04:01:45Z</time>
      </trkpt>
      <trkpt lat="42.32358" lon="2.18005">
        <ele>1379</ele>
        <time>2010-01-01T04:01:46Z</time>
      </trkpt>
      <trkpt lat="42.32361" lon="2.18003">
        <ele>1379</ele>
        <time>2010-01-01T04:01:47Z</time>
      </trkpt>
      <trkpt lat="42.32363" lon="2.18003">
        <ele>1379</ele>
        <time>2010-01-01T04:01:48Z</time>
      </trkpt>
      <trkpt lat="42.32366" lon="2.18002">
        <ele>1379</ele>
        <time>2010-01-01T04:01:49Z</time>
      </trkpt>
      <trkpt lat="42.32368" lon="2.18001">
        <ele>1379</ele>
        <time>2010-01-01T04:01:50Z</time>
      </trkpt>
      <trkpt lat="42.32371" lon="2.17999">
        <ele>1378</ele>
        <time>2010-01-01T04:01:51Z</time>
      </trkpt>
      <trkpt lat="42.32374" lon="2.17998">
        <ele>1378</ele>
        <time>2010-01-01T04:01:52Z</time>
      </trkpt>
      <trkpt lat="42.32376" lon="2.17996">
        <ele>1377</ele>
        <time>2010-01-01T04:01:53Z</time>
      </trkpt>
      <trkpt lat="42.32379" lon="2.17995">
        <ele>1377</ele>
        <time>2010-01-01T04:01:55Z</time>
      </trkpt>
      <trkpt lat="42.32382" lon="2.17993">
        <ele>1376</ele>
        <time>2010-01-01T04:01:56Z</time>
      </trkpt>
      <trkpt lat="42.32384" lon="2.17992">
        <ele>1376</ele>
        <time>2010-01-01T04:01:57Z</time>
      </trkpt>
      <trkpt lat="42.32387" lon="2.1799">
        <ele>1375</ele>
        <time>2010-01-01T04:01:58Z</time>
      </trkpt>
      <trkpt lat="42.3239" lon="2.17989">
        <ele>1375</ele>
        <time>2010-01-01T04:01:59Z</time>
      </trkpt>
      <trkpt lat="42.32392" lon="2.17987">
        <ele>1374</ele>
        <time>2010-01-01T04:02:00Z</time>
      </trkpt>
      <trkpt lat="42.32395" lon="2.17986">
        <ele>1373</ele>
        <time>2010-01-01T04:02:01Z</time>
      </trkpt>
      <trkpt lat="42.32397" lon="2.17985">
        <ele>1373</ele>
        <time>2010-01-01T04:02:03Z</time>
      </trkpt>
      <trkpt lat="42.324" lon="2.17984">
        <ele>1372</ele>
        <time>2010-01-01T04:02:04Z</time>
      </trkpt>
      <trkpt lat="42.32402" lon="2.17982">
        <ele>1372</ele>
        <time>2010-01-01T04:02:05Z</time>
      </trkpt>
      <trkpt lat="42.32405" lon="2.1798">
        <ele>1371</ele>
        <time>2010-01-01T04:02:06Z</time>
      </trkpt>
      <trkpt lat="42.32407" lon="2.17979">
        <ele>1371</ele>
        <time>2010-01-01T04:02:07Z</time>
      </trkpt>
      <trkpt lat="42.3241" lon="2.17978">
        <ele>1371</ele>
        <time>2010-01-01T04:02:08Z</time>
      </trkpt>
      <trkpt lat="42.32412" lon="2.17976">
        <ele>1370</ele>
        <time>2010-01-01T04:02:09Z</time>
      </trkpt>
      <trkpt lat="42.32414" lon="2.17975">
        <ele>1370</ele>
        <time>2010-01-01T04:02:10Z</time>
      </trkpt>
      <trkpt lat="42.32416" lon="2.17974">
        <ele>1370</ele>
        <time>2010-01-01T04:02:11Z</time>
      </trkpt>
      <trkpt lat="42.32418" lon="2.17973">
        <ele>1370</ele>
        <time>2010-01-01T04:02:12Z</time>
      </trkpt>
      <trkpt lat="42.3242" lon="2.17972">
        <ele>1370</ele>
        <time>2010-01-01T04:02:13Z</time>
      </trkpt>
      <trkpt lat="42.32423" lon="2.17971">
        <ele>1370</ele>
        <time>2010-01-01T04:02:14Z</time>
      </trkpt>
      <trkpt lat="42.32426" lon="2.17969">
        <ele>1370</ele>
        <time>2010-01-01T04:02:15Z</time>
      </trkpt>
      <trkpt lat="42.32428" lon="2.17968">
        <ele>1370</ele>
        <time>2010-01-01T04:02:16Z</time>
      </trkpt>
      <trkpt lat="42.32431" lon="2.17967">
        <ele>1371</ele>
        <time>2010-01-01T04:02:17Z</time>
      </trkpt>
      <trkpt lat="42.32434" lon="2.17967">
        <ele>1371</ele>
        <time>2010-01-01T04:02:18Z</time>
      </trkpt>
      <trkpt lat="42.32436" lon="2.17965">
        <ele>1371</ele>
        <time>2010-01-01T04:02:19Z</time>
      </trkpt>
      <trkpt lat="42.32439" lon="2.17964">
        <ele>1371</ele>
        <time>2010-01-01T04:02:20Z</time>
      </trkpt>
      <trkpt lat="42.32442" lon="2.17963">
        <ele>1371</ele>
        <time>2010-01-01T04:02:22Z</time>
      </trkpt>
      <trkpt lat="42.32445" lon="2.17961">
        <ele>1370</ele>
        <time>2010-01-01T04:02:23Z</time>
      </trkpt>
      <trkpt lat="42.32448" lon="2.1796">
        <ele>1370</ele>
        <time>2010-01-01T04:02:24Z</time>
      </trkpt>
      <trkpt lat="42.32451" lon="2.17959">
        <ele>1370</ele>
        <time>2010-01-01T04:02:25Z</time>
      </trkpt>
      <trkpt lat="42.32454" lon="2.17958">
        <ele>1369</ele>
        <time>2010-01-01T04:02:27Z</time>
      </trkpt>
      <trkpt lat="42.32456" lon="2.17956">
        <ele>1368</ele>
        <time>2010-01-01T04:02:28Z</time>
      </trkpt>
      <trkpt lat="42.32459" lon="2.17955">
        <ele>1368</ele>
        <time>2010-01-01T04:02:29Z</time>
      </trkpt>
      <trkpt lat="42.32461" lon="2.17954">
        <ele>1368</ele>
        <time>2010-01-01T04:02:30Z</time>
      </trkpt>
      <trkpt lat="42.32464" lon="2.17953">
        <ele>1367</ele>
        <time>2010-01-01T04:02:31Z</time>
      </trkpt>
      <trkpt lat="42.32466" lon="2.17952">
        <ele>1366</ele>
        <time>2010-01-01T04:02:32Z</time>
      </trkpt>
      <trkpt lat="42.32469" lon="2.1795">
        <ele>1365</ele>
        <time>2010-01-01T04:02:33Z</time>
      </trkpt>
      <trkpt lat="42.32472" lon="2.17949">
        <ele>1365</ele>
        <time>2010-01-01T04:02:34Z</time>
      </trkpt>
      <trkpt lat="42.32474" lon="2.17948">
        <ele>1364</ele>
        <time>2010-01-01T04:02:35Z</time>
      </trkpt>
      <trkpt lat="42.32476" lon="2.17948">
        <ele>1364</ele>
        <time>2010-01-01T04:02:36Z</time>
      </trkpt>
      <trkpt lat="42.32479" lon="2.17948">
        <ele>1364</ele>
        <time>2010-01-01T04:02:37Z</time>
      </trkpt>
      <trkpt lat="42.32482" lon="2.17947">
        <ele>1363</ele>
        <time>2010-01-01T04:02:38Z</time>
      </trkpt>
      <trkpt lat="42.32485" lon="2.17947">
        <ele>1362</ele>
        <time>2010-01-01T04:02:40Z</time>
      </trkpt>
      <trkpt lat="42.32488" lon="2.17947">
        <ele>1362</ele>
        <time>2010-01-01T04:02:41Z</time>
      </trkpt>
      <trkpt lat="42.32494" lon="2.17947">
        <ele>1362</ele>
        <time>2010-01-01T04:02:43Z</time>
      </trkpt>
      <trkpt lat="42.32497" lon="2.17948">
        <ele>1361</ele>
        <time>2010-01-01T04:02:44Z</time>
      </trkpt>
      <trkpt lat="42.325" lon="2.17948">
        <ele>1362</ele>
        <time>2010-01-01T04:02:46Z</time>
      </trkpt>
      <trkpt lat="42.32502" lon="2.17949">
        <ele>1362</ele>
        <time>2010-01-01T04:02:47Z</time>
      </trkpt>
      <trkpt lat="42.32505" lon="2.17949">
        <ele>1362</ele>
        <time>2010-01-01T04:02:48Z</time>
      </trkpt>
      <trkpt lat="42.32511" lon="2.1795">
        <ele>1362</ele>
        <time>2010-01-01T04:02:50Z</time>
      </trkpt>
      <trkpt lat="42.32513" lon="2.1795">
        <ele>1362</ele>
        <time>2010-01-01T04:02:51Z</time>
      </trkpt>
      <trkpt lat="42.32516" lon="2.1795">
        <ele>1362</ele>
        <time>2010-01-01T04:02:52Z</time>
      </trkpt>
      <trkpt lat="42.32519" lon="2.1795">
        <ele>1362</ele>
        <time>2010-01-01T04:02:53Z</time>
      </trkpt>
      <trkpt lat="42.32521" lon="2.1795">
        <ele>1362</ele>
        <time>2010-01-01T04:02:54Z</time>
      </trkpt>
      <trkpt lat="42.32524" lon="2.1795">
        <ele>1362</ele>
        <time>2010-01-01T04:02:55Z</time>
      </trkpt>
      <trkpt lat="42.32527" lon="2.1795">
        <ele>1362</ele>
        <time>2010-01-01T04:02:57Z</time>
      </trkpt>
      <trkpt lat="42.3253" lon="2.17949">
        <ele>1361</ele>
        <time>2010-01-01T04:02:58Z</time>
      </trkpt>
      <trkpt lat="42.32534" lon="2.17949">
        <ele>1361</ele>
        <time>2010-01-01T04:02:59Z</time>
      </trkpt>
      <trkpt lat="42.3254" lon="2.17949">
        <ele>1361</ele>
        <time>2010-01-01T04:03:02Z</time>
      </trkpt>
      <trkpt lat="42.32543" lon="2.17948">
        <ele>1360</ele>
        <time>2010-01-01T04:03:03Z</time>
      </trkpt>
      <trkpt lat="42.32554" lon="2.17947">
        <ele>1360</ele>
        <time>2010-01-01T04:03:08Z</time>
      </trkpt>
      <trkpt lat="42.32564" lon="2.17945">
        <ele>1360</ele>
        <time>2010-01-01T04:03:12Z</time>
      </trkpt>
      <trkpt lat="42.32567" lon="2.17945">
        <ele>1360</ele>
        <time>2010-01-01T04:03:13Z</time>
      </trkpt>
      <trkpt lat="42.3257" lon="2.17945">
        <ele>1360</ele>
        <time>2010-01-01T04:03:14Z</time>
      </trkpt>
      <trkpt lat="42.32573" lon="2.17944">
        <ele>1360</ele>
        <time>2010-01-01T04:03:15Z</time>
      </trkpt>
      <trkpt lat="42.32576" lon="2.17943">
        <ele>1360</ele>
        <time>2010-01-01T04:03:16Z</time>
      </trkpt>
      <trkpt lat="42.32579" lon="2.17943">
        <ele>1360</ele>
        <time>2010-01-01T04:03:17Z</time>
      </trkpt>
      <trkpt lat="42.32581" lon="2.17942">
        <ele>1360</ele>
        <time>2010-01-01T04:03:19Z</time>
      </trkpt>
      <trkpt lat="42.32584" lon="2.17941">
        <ele>1361</ele>
        <time>2010-01-01T04:03:20Z</time>
      </trkpt>
      <trkpt lat="42.32587" lon="2.1794">
        <ele>1361</ele>
        <time>2010-01-01T04:03:21Z</time>
      </trkpt>
      <trkpt lat="42.3259" lon="2.17939">
        <ele>1361</ele>
        <time>2010-01-01T04:03:22Z</time>
      </trkpt>
      <trkpt lat="42.32592" lon="2.17938">
        <ele>1361</ele>
        <time>2010-01-01T04:03:23Z</time>
      </trkpt>
      <trkpt lat="42.32595" lon="2.17936">
        <ele>1361</ele>
        <time>2010-01-01T04:03:24Z</time>
      </trkpt>
      <trkpt lat="42.32598" lon="2.17936">
        <ele>1361</ele>
        <time>2010-01-01T04:03:25Z</time>
      </trkpt>
      <trkpt lat="42.32601" lon="2.17934">
        <ele>1361</ele>
        <time>2010-01-01T04:03:27Z</time>
      </trkpt>
      <trkpt lat="42.32606" lon="2.17932">
        <ele>1361</ele>
        <time>2010-01-01T04:03:29Z</time>
      </trkpt>
      <trkpt lat="42.32609" lon="2.17931">
        <ele>1361</ele>
        <time>2010-01-01T04:03:30Z</time>
      </trkpt>
      <trkpt lat="42.32612" lon="2.1793">
        <ele>1361</ele>
        <time>2010-01-01T04:03:31Z</time>
      </trkpt>
      <trkpt lat="42.32617" lon="2.17926">
        <ele>1361</ele>
        <time>2010-01-01T04:03:34Z</time>
      </trkpt>
      <trkpt lat="42.3262" lon="2.17925">
        <ele>1361</ele>
        <time>2010-01-01T04:03:35Z</time>
      </trkpt>
      <trkpt lat="42.32624" lon="2.17924">
        <ele>1361</ele>
        <time>2010-01-01T04:03:36Z</time>
      </trkpt>
      <trkpt lat="42.32627" lon="2.17924">
        <ele>1361</ele>
        <time>2010-01-01T04:03:38Z</time>
      </trkpt>
      <trkpt lat="42.32629" lon="2.17923">
        <ele>1361</ele>
        <time>2010-01-01T04:03:39Z</time>
      </trkpt>
      <trkpt lat="42.32632" lon="2.17922">
        <ele>1361</ele>
        <time>2010-01-01T04:03:40Z</time>
      </trkpt>
      <trkpt lat="42.32635" lon="2.1792">
        <ele>1361</ele>
        <time>2010-01-01T04:03:41Z</time>
      </trkpt>
      <trkpt lat="42.32637" lon="2.17919">
        <ele>1361</ele>
        <time>2010-01-01T04:03:42Z</time>
      </trkpt>
      <trkpt lat="42.3264" lon="2.17918">
        <ele>1361</ele>
        <time>2010-01-01T04:03:43Z</time>
      </trkpt>
      <trkpt lat="42.32643" lon="2.17916">
        <ele>1360</ele>
        <time>2010-01-01T04:03:44Z</time>
      </trkpt>
      <trkpt lat="42.32646" lon="2.17915">
        <ele>1360</ele>
        <time>2010-01-01T04:03:45Z</time>
      </trkpt>
      <trkpt lat="42.32648" lon="2.17914">
        <ele>1359</ele>
        <time>2010-01-01T04:03:47Z</time>
      </trkpt>
      <trkpt lat="42.32651" lon="2.17912">
        <ele>1359</ele>
        <time>2010-01-01T04:03:48Z</time>
      </trkpt>
      <trkpt lat="42.32653" lon="2.17911">
        <ele>1358</ele>
        <time>2010-01-01T04:03:49Z</time>
      </trkpt>
      <trkpt lat="42.32656" lon="2.17909">
        <ele>1358</ele>
        <time>2010-01-01T04:03:50Z</time>
      </trkpt>
      <trkpt lat="42.32658" lon="2.17908">
        <ele>1357</ele>
        <time>2010-01-01T04:03:51Z</time>
      </trkpt>
      <trkpt lat="42.3266" lon="2.17907">
        <ele>1357</ele>
        <time>2010-01-01T04:03:52Z</time>
      </trkpt>
      <trkpt lat="42.32662" lon="2.17905">
        <ele>1356</ele>
        <time>2010-01-01T04:03:53Z</time>
      </trkpt>
      <trkpt lat="42.32665" lon="2.17904">
        <ele>1356</ele>
        <time>2010-01-01T04:03:54Z</time>
      </trkpt>
      <trkpt lat="42.32668" lon="2.17902">
        <ele>1355</ele>
        <time>2010-01-01T04:03:55Z</time>
      </trkpt>
      <trkpt lat="42.3267" lon="2.17901">
        <ele>1355</ele>
        <time>2010-01-01T04:03:56Z</time>
      </trkpt>
      <trkpt lat="42.32672" lon="2.17901">
        <ele>1355</ele>
        <time>2010-01-01T04:03:57Z</time>
      </trkpt>
      <trkpt lat="42.32674" lon="2.179">
        <ele>1354</ele>
        <time>2010-01-01T04:03:58Z</time>
      </trkpt>
      <trkpt lat="42.32677" lon="2.179">
        <ele>1354</ele>
        <time>2010-01-01T04:03:59Z</time>
      </trkpt>
      <trkpt lat="42.32679" lon="2.17899">
        <ele>1354</ele>
        <time>2010-01-01T04:04:00Z</time>
      </trkpt>
      <trkpt lat="42.32682" lon="2.17898">
        <ele>1353</ele>
        <time>2010-01-01T04:04:01Z</time>
      </trkpt>
      <trkpt lat="42.32685" lon="2.17897">
        <ele>1353</ele>
        <time>2010-01-01T04:04:02Z</time>
      </trkpt>
      <trkpt lat="42.32687" lon="2.17897">
        <ele>1353</ele>
        <time>2010-01-01T04:04:03Z</time>
      </trkpt>
      <trkpt lat="42.3269" lon="2.17897">
        <ele>1353</ele>
        <time>2010-01-01T04:04:04Z</time>
      </trkpt>
      <trkpt lat="42.32693" lon="2.17896">
        <ele>1353</ele>
        <time>2010-01-01T04:04:05Z</time>
      </trkpt>
      <trkpt lat="42.32695" lon="2.17896">
        <ele>1352</ele>
        <time>2010-01-01T04:04:06Z</time>
      </trkpt>
      <trkpt lat="42.32698" lon="2.17895">
        <ele>1352</ele>
        <time>2010-01-01T04:04:08Z</time>
      </trkpt>
      <trkpt lat="42.32702" lon="2.17894">
        <ele>1352</ele>
        <time>2010-01-01T04:04:09Z</time>
      </trkpt>
      <trkpt lat="42.32705" lon="2.17892">
        <ele>1351</ele>
        <time>2010-01-01T04:04:10Z</time>
      </trkpt>
      <trkpt lat="42.32708" lon="2.17891">
        <ele>1351</ele>
        <time>2010-01-01T04:04:12Z</time>
      </trkpt>
      <trkpt lat="42.32712" lon="2.17889">
        <ele>1350</ele>
        <time>2010-01-01T04:04:13Z</time>
      </trkpt>
      <trkpt lat="42.32715" lon="2.17887">
        <ele>1349</ele>
        <time>2010-01-01T04:04:15Z</time>
      </trkpt>
      <trkpt lat="42.32718" lon="2.17885">
        <ele>1348</ele>
        <time>2010-01-01T04:04:16Z</time>
      </trkpt>
      <trkpt lat="42.32721" lon="2.17882">
        <ele>1347</ele>
        <time>2010-01-01T04:04:18Z</time>
      </trkpt>
      <trkpt lat="42.32724" lon="2.1788">
        <ele>1347</ele>
        <time>2010-01-01T04:04:19Z</time>
      </trkpt>
      <trkpt lat="42.32726" lon="2.17878">
        <ele>1346</ele>
        <time>2010-01-01T04:04:20Z</time>
      </trkpt>
      <trkpt lat="42.32728" lon="2.17876">
        <ele>1346</ele>
        <time>2010-01-01T04:04:21Z</time>
      </trkpt>
      <trkpt lat="42.3273" lon="2.17874">
        <ele>1345</ele>
        <time>2010-01-01T04:04:22Z</time>
      </trkpt>
      <trkpt lat="42.32732" lon="2.17872">
        <ele>1345</ele>
        <time>2010-01-01T04:04:23Z</time>
      </trkpt>
      <trkpt lat="42.32734" lon="2.17869">
        <ele>1344</ele>
        <time>2010-01-01T04:04:24Z</time>
      </trkpt>
      <trkpt lat="42.32737" lon="2.17866">
        <ele>1343</ele>
        <time>2010-01-01T04:04:25Z</time>
      </trkpt>
      <trkpt lat="42.3274" lon="2.17864">
        <ele>1343</ele>
        <time>2010-01-01T04:04:27Z</time>
      </trkpt>
      <trkpt lat="42.32742" lon="2.17862">
        <ele>1342</ele>
        <time>2010-01-01T04:04:28Z</time>
      </trkpt>
      <trkpt lat="42.32745" lon="2.1786">
        <ele>1342</ele>
        <time>2010-01-01T04:04:29Z</time>
      </trkpt>
      <trkpt lat="42.32748" lon="2.17858">
        <ele>1341</ele>
        <time>2010-01-01T04:04:30Z</time>
      </trkpt>
      <trkpt lat="42.32751" lon="2.17856">
        <ele>1341</ele>
        <time>2010-01-01T04:04:32Z</time>
      </trkpt>
      <trkpt lat="42.32754" lon="2.17854">
        <ele>1341</ele>
        <time>2010-01-01T04:04:33Z</time>
      </trkpt>
      <trkpt lat="42.32756" lon="2.17852">
        <ele>1340</ele>
        <time>2010-01-01T04:04:34Z</time>
      </trkpt>
      <trkpt lat="42.32759" lon="2.1785">
        <ele>1340</ele>
        <time>2010-01-01T04:04:35Z</time>
      </trkpt>
      <trkpt lat="42.32762" lon="2.17848">
        <ele>1340</ele>
        <time>2010-01-01T04:04:37Z</time>
      </trkpt>
      <trkpt lat="42.32764" lon="2.17845">
        <ele>1340</ele>
        <time>2010-01-01T04:04:38Z</time>
      </trkpt>
      <trkpt lat="42.32767" lon="2.17844">
        <ele>1340</ele>
        <time>2010-01-01T04:04:39Z</time>
      </trkpt>
      <trkpt lat="42.3277" lon="2.17841">
        <ele>1339</ele>
        <time>2010-01-01T04:04:41Z</time>
      </trkpt>
      <trkpt lat="42.32773" lon="2.17839">
        <ele>1339</ele>
        <time>2010-01-01T04:04:42Z</time>
      </trkpt>
      <trkpt lat="42.32776" lon="2.17837">
        <ele>1339</ele>
        <time>2010-01-01T04:04:43Z</time>
      </trkpt>
      <trkpt lat="42.32778" lon="2.17835">
        <ele>1338</ele>
        <time>2010-01-01T04:04:44Z</time>
      </trkpt>
      <trkpt lat="42.3278" lon="2.17835">
        <ele>1339</ele>
        <time>2010-01-01T04:04:45Z</time>
      </trkpt>
      <trkpt lat="42.32783" lon="2.17833">
        <ele>1338</ele>
        <time>2010-01-01T04:04:46Z</time>
      </trkpt>
      <trkpt lat="42.32786" lon="2.1783">
        <ele>1338</ele>
        <time>2010-01-01T04:04:48Z</time>
      </trkpt>
      <trkpt lat="42.32788" lon="2.17828">
        <ele>1338</ele>
        <time>2010-01-01T04:04:49Z</time>
      </trkpt>
      <trkpt lat="42.32791" lon="2.17826">
        <ele>1338</ele>
        <time>2010-01-01T04:04:50Z</time>
      </trkpt>
      <trkpt lat="42.32794" lon="2.17825">
        <ele>1338</ele>
        <time>2010-01-01T04:04:52Z</time>
      </trkpt>
      <trkpt lat="42.328" lon="2.17822">
        <ele>1338</ele>
        <time>2010-01-01T04:04:54Z</time>
      </trkpt>
      <trkpt lat="42.32802" lon="2.1782">
        <ele>1338</ele>
        <time>2010-01-01T04:04:55Z</time>
      </trkpt>
      <trkpt lat="42.32809" lon="2.17811">
        <ele>1336</ele>
        <time>2010-01-01T04:04:59Z</time>
      </trkpt>
      <trkpt lat="42.32811" lon="2.17809">
        <ele>1336</ele>
        <time>2010-01-01T04:05:00Z</time>
      </trkpt>
      <trkpt lat="42.32817" lon="2.17801">
        <ele>1334</ele>
        <time>2010-01-01T04:05:03Z</time>
      </trkpt>
      <trkpt lat="42.32821" lon="2.17796">
        <ele>1334</ele>
        <time>2010-01-01T04:05:05Z</time>
      </trkpt>
      <trkpt lat="42.32822" lon="2.17794">
        <ele>1334</ele>
        <time>2010-01-01T04:05:06Z</time>
      </trkpt>
      <trkpt lat="42.32824" lon="2.17792">
        <ele>1333</ele>
        <time>2010-01-01T04:05:07Z</time>
      </trkpt>
      <trkpt lat="42.32826" lon="2.17789">
        <ele>1333</ele>
        <time>2010-01-01T04:05:08Z</time>
      </trkpt>
      <trkpt lat="42.32827" lon="2.17787">
        <ele>1333</ele>
        <time>2010-01-01T04:05:09Z</time>
      </trkpt>
      <trkpt lat="42.32829" lon="2.17784">
        <ele>1332</ele>
        <time>2010-01-01T04:05:10Z</time>
      </trkpt>
      <trkpt lat="42.32831" lon="2.17782">
        <ele>1332</ele>
        <time>2010-01-01T04:05:11Z</time>
      </trkpt>
      <trkpt lat="42.32833" lon="2.1778">
        <ele>1332</ele>
        <time>2010-01-01T04:05:12Z</time>
      </trkpt>
      <trkpt lat="42.32835" lon="2.17778">
        <ele>1332</ele>
        <time>2010-01-01T04:05:13Z</time>
      </trkpt>
      <trkpt lat="42.32838" lon="2.17776">
        <ele>1331</ele>
        <time>2010-01-01T04:05:14Z</time>
      </trkpt>
      <trkpt lat="42.3284" lon="2.17772">
        <ele>1330</ele>
        <time>2010-01-01T04:05:16Z</time>
      </trkpt>
      <trkpt lat="42.32842" lon="2.1777">
        <ele>1329</ele>
        <time>2010-01-01T04:05:17Z</time>
      </trkpt>
      <trkpt lat="42.32845" lon="2.17768">
        <ele>1329</ele>
        <time>2010-01-01T04:05:18Z</time>
      </trkpt>
      <trkpt lat="42.32847" lon="2.17766">
        <ele>1328</ele>
        <time>2010-01-01T04:05:19Z</time>
      </trkpt>
      <trkpt lat="42.32849" lon="2.17764">
        <ele>1328</ele>
        <time>2010-01-01T04:05:20Z</time>
      </trkpt>
      <trkpt lat="42.32851" lon="2.17763">
        <ele>1328</ele>
        <time>2010-01-01T04:05:21Z</time>
      </trkpt>
      <trkpt lat="42.32853" lon="2.17761">
        <ele>1327</ele>
        <time>2010-01-01T04:05:22Z</time>
      </trkpt>
      <trkpt lat="42.32856" lon="2.17759">
        <ele>1327</ele>
        <time>2010-01-01T04:05:23Z</time>
      </trkpt>
      <trkpt lat="42.32859" lon="2.17758">
        <ele>1327</ele>
        <time>2010-01-01T04:05:25Z</time>
      </trkpt>
      <trkpt lat="42.32861" lon="2.17756">
        <ele>1327</ele>
        <time>2010-01-01T04:05:26Z</time>
      </trkpt>
      <trkpt lat="42.32864" lon="2.17754">
        <ele>1327</ele>
        <time>2010-01-01T04:05:27Z</time>
      </trkpt>
      <trkpt lat="42.32867" lon="2.17753">
        <ele>1326</ele>
        <time>2010-01-01T04:05:28Z</time>
      </trkpt>
      <trkpt lat="42.3287" lon="2.17751">
        <ele>1326</ele>
        <time>2010-01-01T04:05:29Z</time>
      </trkpt>
      <trkpt lat="42.32873" lon="2.17749">
        <ele>1326</ele>
        <time>2010-01-01T04:05:31Z</time>
      </trkpt>
      <trkpt lat="42.32876" lon="2.17747">
        <ele>1325</ele>
        <time>2010-01-01T04:05:32Z</time>
      </trkpt>
      <trkpt lat="42.32879" lon="2.17746">
        <ele>1325</ele>
        <time>2010-01-01T04:05:33Z</time>
      </trkpt>
      <trkpt lat="42.32881" lon="2.17744">
        <ele>1325</ele>
        <time>2010-01-01T04:05:34Z</time>
      </trkpt>
      <trkpt lat="42.32884" lon="2.17743">
        <ele>1325</ele>
        <time>2010-01-01T04:05:36Z</time>
      </trkpt>
      <trkpt lat="42.32887" lon="2.17742">
        <ele>1325</ele>
        <time>2010-01-01T04:05:37Z</time>
      </trkpt>
      <trkpt lat="42.3289" lon="2.1774">
        <ele>1325</ele>
        <time>2010-01-01T04:05:38Z</time>
      </trkpt>
      <trkpt lat="42.32893" lon="2.17739">
        <ele>1325</ele>
        <time>2010-01-01T04:05:39Z</time>
      </trkpt>
      <trkpt lat="42.32896" lon="2.17737">
        <ele>1324</ele>
        <time>2010-01-01T04:05:41Z</time>
      </trkpt>
      <trkpt lat="42.32899" lon="2.17736">
        <ele>1324</ele>
        <time>2010-01-01T04:05:42Z</time>
      </trkpt>
      <trkpt lat="42.32902" lon="2.17736">
        <ele>1324</ele>
        <time>2010-01-01T04:05:43Z</time>
      </trkpt>
      <trkpt lat="42.32904" lon="2.17735">
        <ele>1324</ele>
        <time>2010-01-01T04:05:44Z</time>
      </trkpt>
      <trkpt lat="42.32907" lon="2.17733">
        <ele>1323</ele>
        <time>2010-01-01T04:05:45Z</time>
      </trkpt>
      <trkpt lat="42.3291" lon="2.17732">
        <ele>1323</ele>
        <time>2010-01-01T04:05:46Z</time>
      </trkpt>
      <trkpt lat="42.32912" lon="2.17731">
        <ele>1323</ele>
        <time>2010-01-01T04:05:47Z</time>
      </trkpt>
      <trkpt lat="42.32914" lon="2.1773">
        <ele>1322</ele>
        <time>2010-01-01T04:05:48Z</time>
      </trkpt>
      <trkpt lat="42.32916" lon="2.17729">
        <ele>1322</ele>
        <time>2010-01-01T04:05:49Z</time>
      </trkpt>
      <trkpt lat="42.32918" lon="2.17728">
        <ele>1322</ele>
        <time>2010-01-01T04:05:50Z</time>
      </trkpt>
      <trkpt lat="42.32921" lon="2.17727">
        <ele>1322</ele>
        <time>2010-01-01T04:05:51Z</time>
      </trkpt>
      <trkpt lat="42.32923" lon="2.17725">
        <ele>1322</ele>
        <time>2010-01-01T04:05:52Z</time>
      </trkpt>
      <trkpt lat="42.32926" lon="2.17724">
        <ele>1322</ele>
        <time>2010-01-01T04:05:53Z</time>
      </trkpt>
      <trkpt lat="42.32928" lon="2.17723">
        <ele>1322</ele>
        <time>2010-01-01T04:05:54Z</time>
      </trkpt>
      <trkpt lat="42.32931" lon="2.17722">
        <ele>1322</ele>
        <time>2010-01-01T04:05:55Z</time>
      </trkpt>
      <trkpt lat="42.32934" lon="2.17721">
        <ele>1323</ele>
        <time>2010-01-01T04:05:57Z</time>
      </trkpt>
      <trkpt lat="42.32937" lon="2.1772">
        <ele>1323</ele>
        <time>2010-01-01T04:05:58Z</time>
      </trkpt>
      <trkpt lat="42.3294" lon="2.17718">
        <ele>1323</ele>
        <time>2010-01-01T04:05:59Z</time>
      </trkpt>
      <trkpt lat="42.32943" lon="2.17717">
        <ele>1323</ele>
        <time>2010-01-01T04:06:00Z</time>
      </trkpt>
      <trkpt lat="42.32946" lon="2.17715">
        <ele>1322</ele>
        <time>2010-01-01T04:06:02Z</time>
      </trkpt>
      <trkpt lat="42.32949" lon="2.17714">
        <ele>1322</ele>
        <time>2010-01-01T04:06:03Z</time>
      </trkpt>
      <trkpt lat="42.32952" lon="2.17713">
        <ele>1321</ele>
        <time>2010-01-01T04:06:04Z</time>
      </trkpt>
      <trkpt lat="42.32955" lon="2.17712">
        <ele>1320</ele>
        <time>2010-01-01T04:06:05Z</time>
      </trkpt>
      <trkpt lat="42.32958" lon="2.17711">
        <ele>1320</ele>
        <time>2010-01-01T04:06:07Z</time>
      </trkpt>
      <trkpt lat="42.3296" lon="2.1771">
        <ele>1320</ele>
        <time>2010-01-01T04:06:08Z</time>
      </trkpt>
      <trkpt lat="42.32964" lon="2.1771">
        <ele>1319</ele>
        <time>2010-01-01T04:06:09Z</time>
      </trkpt>
      <trkpt lat="42.32967" lon="2.17709">
        <ele>1319</ele>
        <time>2010-01-01T04:06:10Z</time>
      </trkpt>
      <trkpt lat="42.3297" lon="2.17708">
        <ele>1318</ele>
        <time>2010-01-01T04:06:11Z</time>
      </trkpt>
      <trkpt lat="42.32972" lon="2.17708">
        <ele>1318</ele>
        <time>2010-01-01T04:06:13Z</time>
      </trkpt>
      <trkpt lat="42.32975" lon="2.17707">
        <ele>1318</ele>
        <time>2010-01-01T04:06:14Z</time>
      </trkpt>
      <trkpt lat="42.32977" lon="2.17706">
        <ele>1318</ele>
        <time>2010-01-01T04:06:15Z</time>
      </trkpt>
      <trkpt lat="42.3298" lon="2.17706">
        <ele>1318</ele>
        <time>2010-01-01T04:06:16Z</time>
      </trkpt>
      <trkpt lat="42.32983" lon="2.17706">
        <ele>1318</ele>
        <time>2010-01-01T04:06:17Z</time>
      </trkpt>
      <trkpt lat="42.32986" lon="2.17706">
        <ele>1318</ele>
        <time>2010-01-01T04:06:18Z</time>
      </trkpt>
      <trkpt lat="42.32989" lon="2.17705">
        <ele>1318</ele>
        <time>2010-01-01T04:06:19Z</time>
      </trkpt>
      <trkpt lat="42.32992" lon="2.17705">
        <ele>1319</ele>
        <time>2010-01-01T04:06:20Z</time>
      </trkpt>
      <trkpt lat="42.32995" lon="2.17705">
        <ele>1319</ele>
        <time>2010-01-01T04:06:22Z</time>
      </trkpt>
      <trkpt lat="42.32998" lon="2.17705">
        <ele>1319</ele>
        <time>2010-01-01T04:06:23Z</time>
      </trkpt>
      <trkpt lat="42.33001" lon="2.17704">
        <ele>1319</ele>
        <time>2010-01-01T04:06:24Z</time>
      </trkpt>
      <trkpt lat="42.33004" lon="2.17704">
        <ele>1319</ele>
        <time>2010-01-01T04:06:25Z</time>
      </trkpt>
      <trkpt lat="42.33007" lon="2.17703">
        <ele>1319</ele>
        <time>2010-01-01T04:06:27Z</time>
      </trkpt>
      <trkpt lat="42.3301" lon="2.17704">
        <ele>1319</ele>
        <time>2010-01-01T04:06:28Z</time>
      </trkpt>
      <trkpt lat="42.33013" lon="2.17703">
        <ele>1319</ele>
        <time>2010-01-01T04:06:29Z</time>
      </trkpt>
      <trkpt lat="42.33016" lon="2.17702">
        <ele>1319</ele>
        <time>2010-01-01T04:06:30Z</time>
      </trkpt>
      <trkpt lat="42.33019" lon="2.17701">
        <ele>1319</ele>
        <time>2010-01-01T04:06:31Z</time>
      </trkpt>
      <trkpt lat="42.33022" lon="2.17701">
        <ele>1319</ele>
        <time>2010-01-01T04:06:33Z</time>
      </trkpt>
      <trkpt lat="42.33025" lon="2.17701">
        <ele>1319</ele>
        <time>2010-01-01T04:06:34Z</time>
      </trkpt>
      <trkpt lat="42.33028" lon="2.17701">
        <ele>1319</ele>
        <time>2010-01-01T04:06:35Z</time>
      </trkpt>
      <trkpt lat="42.3303" lon="2.17701">
        <ele>1318</ele>
        <time>2010-01-01T04:06:36Z</time>
      </trkpt>
      <trkpt lat="42.33033" lon="2.17702">
        <ele>1318</ele>
        <time>2010-01-01T04:06:37Z</time>
      </trkpt>
      <trkpt lat="42.33036" lon="2.17701">
        <ele>1317</ele>
        <time>2010-01-01T04:06:38Z</time>
      </trkpt>
      <trkpt lat="42.33039" lon="2.17701">
        <ele>1316</ele>
        <time>2010-01-01T04:06:39Z</time>
      </trkpt>
      <trkpt lat="42.33042" lon="2.17701">
        <ele>1315</ele>
        <time>2010-01-01T04:06:41Z</time>
      </trkpt>
      <trkpt lat="42.33044" lon="2.17702">
        <ele>1314</ele>
        <time>2010-01-01T04:06:42Z</time>
      </trkpt>
      <trkpt lat="42.33047" lon="2.17703">
        <ele>1314</ele>
        <time>2010-01-01T04:06:43Z</time>
      </trkpt>
      <trkpt lat="42.3305" lon="2.17703">
        <ele>1313</ele>
        <time>2010-01-01T04:06:44Z</time>
      </trkpt>
      <trkpt lat="42.33056" lon="2.17703">
        <ele>1311</ele>
        <time>2010-01-01T04:06:46Z</time>
      </trkpt>
      <trkpt lat="42.33061" lon="2.17703">
        <ele>1310</ele>
        <time>2010-01-01T04:06:48Z</time>
      </trkpt>
      <trkpt lat="42.33064" lon="2.17703">
        <ele>1309</ele>
        <time>2010-01-01T04:06:49Z</time>
      </trkpt>
      <trkpt lat="42.33067" lon="2.17703">
        <ele>1309</ele>
        <time>2010-01-01T04:06:51Z</time>
      </trkpt>
      <trkpt lat="42.33069" lon="2.17704">
        <ele>1308</ele>
        <time>2010-01-01T04:06:52Z</time>
      </trkpt>
      <trkpt lat="42.33072" lon="2.17704">
        <ele>1307</ele>
        <time>2010-01-01T04:06:53Z</time>
      </trkpt>
      <trkpt lat="42.33074" lon="2.17705">
        <ele>1307</ele>
        <time>2010-01-01T04:06:54Z</time>
      </trkpt>
      <trkpt lat="42.33077" lon="2.17706">
        <ele>1306</ele>
        <time>2010-01-01T04:06:55Z</time>
      </trkpt>
      <trkpt lat="42.33079" lon="2.17706">
        <ele>1306</ele>
        <time>2010-01-01T04:06:56Z</time>
      </trkpt>
      <trkpt lat="42.33082" lon="2.17706">
        <ele>1305</ele>
        <time>2010-01-01T04:06:57Z</time>
      </trkpt>
      <trkpt lat="42.33084" lon="2.17707">
        <ele>1305</ele>
        <time>2010-01-01T04:06:58Z</time>
      </trkpt>
      <trkpt lat="42.33087" lon="2.17707">
        <ele>1305</ele>
        <time>2010-01-01T04:06:59Z</time>
      </trkpt>
      <trkpt lat="42.33087" lon="2.17717">
        <ele>1308</ele>
        <time>2010-01-01T04:07:01Z</time>
      </trkpt>
      <trkpt lat="42.33086" lon="2.17721">
        <ele>1309</ele>
        <time>2010-01-01T04:07:03Z</time>
      </trkpt>
      <trkpt lat="42.33084" lon="2.17721">
        <ele>1310</ele>
        <time>2010-01-01T04:07:04Z</time>
      </trkpt>
      <trkpt lat="42.33083" lon="2.17719">
        <ele>1309</ele>
        <time>2010-01-01T04:07:05Z</time>
      </trkpt>
      <trkpt lat="42.3308" lon="2.17716">
        <ele>1309</ele>
        <time>2010-01-01T04:07:06Z</time>
      </trkpt>
      <trkpt lat="42.33077" lon="2.17714">
        <ele>1309</ele>
        <time>2010-01-01T04:07:07Z</time>
      </trkpt>
      <trkpt lat="42.33075" lon="2.17711">
        <ele>1309</ele>
        <time>2010-01-01T04:07:08Z</time>
      </trkpt>
      <trkpt lat="42.33072" lon="2.17708">
        <ele>1309</ele>
        <time>2010-01-01T04:07:10Z</time>
      </trkpt>
      <trkpt lat="42.3307" lon="2.17706">
        <ele>1309</ele>
        <time>2010-01-01T04:07:11Z</time>
      </trkpt>
      <trkpt lat="42.33068" lon="2.17705">
        <ele>1309</ele>
        <time>2010-01-01T04:07:12Z</time>
      </trkpt>
      <trkpt lat="42.33067" lon="2.17703">
        <ele>1308</ele>
        <time>2010-01-01T04:07:13Z</time>
      </trkpt>
      <trkpt lat="42.33064" lon="2.17701">
        <ele>1308</ele>
        <time>2010-01-01T04:07:14Z</time>
      </trkpt>
      <trkpt lat="42.33062" lon="2.17699">
        <ele>1308</ele>
        <time>2010-01-01T04:07:14Z</time>
      </trkpt>
      <trkpt lat="42.33061" lon="2.17697">
        <ele>1308</ele>
        <time>2010-01-01T04:07:15Z</time>
      </trkpt>
      <trkpt lat="42.33059" lon="2.17696">
        <ele>1308</ele>
        <time>2010-01-01T04:07:16Z</time>
      </trkpt>
      <trkpt lat="42.33057" lon="2.17694">
        <ele>1308</ele>
        <time>2010-01-01T04:07:17Z</time>
      </trkpt>
      <trkpt lat="42.33055" lon="2.17692">
        <ele>1307</ele>
        <time>2010-01-01T04:07:18Z</time>
      </trkpt>
      <trkpt lat="42.33053" lon="2.17691">
        <ele>1307</ele>
        <time>2010-01-01T04:07:19Z</time>
      </trkpt>
      <trkpt lat="42.33047" lon="2.17686">
        <ele>1306</ele>
        <time>2010-01-01T04:07:22Z</time>
      </trkpt>
      <trkpt lat="42.33045" lon="2.17684">
        <ele>1306</ele>
        <time>2010-01-01T04:07:23Z</time>
      </trkpt>
      <trkpt lat="42.33043" lon="2.17683">
        <ele>1306</ele>
        <time>2010-01-01T04:07:24Z</time>
      </trkpt>
      <trkpt lat="42.3304" lon="2.17681">
        <ele>1305</ele>
        <time>2010-01-01T04:07:25Z</time>
      </trkpt>
      <trkpt lat="42.33038" lon="2.17679">
        <ele>1305</ele>
        <time>2010-01-01T04:07:26Z</time>
      </trkpt>
      <trkpt lat="42.33036" lon="2.17676">
        <ele>1304</ele>
        <time>2010-01-01T04:07:27Z</time>
      </trkpt>
      <trkpt lat="42.33034" lon="2.17675">
        <ele>1304</ele>
        <time>2010-01-01T04:07:28Z</time>
      </trkpt>
      <trkpt lat="42.33032" lon="2.17674">
        <ele>1304</ele>
        <time>2010-01-01T04:07:29Z</time>
      </trkpt>
      <trkpt lat="42.33029" lon="2.17672">
        <ele>1304</ele>
        <time>2010-01-01T04:07:30Z</time>
      </trkpt>
      <trkpt lat="42.33026" lon="2.17671">
        <ele>1304</ele>
        <time>2010-01-01T04:07:31Z</time>
      </trkpt>
      <trkpt lat="42.33024" lon="2.1767">
        <ele>1303</ele>
        <time>2010-01-01T04:07:32Z</time>
      </trkpt>
      <trkpt lat="42.33018" lon="2.17668">
        <ele>1301</ele>
        <time>2010-01-01T04:07:35Z</time>
      </trkpt>
      <trkpt lat="42.33015" lon="2.17666">
        <ele>1300</ele>
        <time>2010-01-01T04:07:36Z</time>
      </trkpt>
      <trkpt lat="42.33013" lon="2.17665">
        <ele>1299</ele>
        <time>2010-01-01T04:07:37Z</time>
      </trkpt>
      <trkpt lat="42.33011" lon="2.17662">
        <ele>1298</ele>
        <time>2010-01-01T04:07:38Z</time>
      </trkpt>
      <trkpt lat="42.33009" lon="2.17661">
        <ele>1297</ele>
        <time>2010-01-01T04:07:39Z</time>
      </trkpt>
      <trkpt lat="42.33007" lon="2.1766">
        <ele>1297</ele>
        <time>2010-01-01T04:07:40Z</time>
      </trkpt>
      <trkpt lat="42.33004" lon="2.17659">
        <ele>1296</ele>
        <time>2010-01-01T04:07:41Z</time>
      </trkpt>
      <trkpt lat="42.33001" lon="2.17657">
        <ele>1295</ele>
        <time>2010-01-01T04:07:42Z</time>
      </trkpt>
      <trkpt lat="42.32999" lon="2.17656">
        <ele>1295</ele>
        <time>2010-01-01T04:07:43Z</time>
      </trkpt>
      <trkpt lat="42.32997" lon="2.17655">
        <ele>1294</ele>
        <time>2010-01-01T04:07:44Z</time>
      </trkpt>
      <trkpt lat="42.32994" lon="2.17655">
        <ele>1294</ele>
        <time>2010-01-01T04:07:45Z</time>
      </trkpt>
      <trkpt lat="42.32991" lon="2.17654">
        <ele>1293</ele>
        <time>2010-01-01T04:07:46Z</time>
      </trkpt>
      <trkpt lat="42.32989" lon="2.17653">
        <ele>1292</ele>
        <time>2010-01-01T04:07:47Z</time>
      </trkpt>
      <trkpt lat="42.32987" lon="2.17652">
        <ele>1292</ele>
        <time>2010-01-01T04:07:48Z</time>
      </trkpt>
      <trkpt lat="42.32985" lon="2.17651">
        <ele>1291</ele>
        <time>2010-01-01T04:07:49Z</time>
      </trkpt>
      <trkpt lat="42.32983" lon="2.1765">
        <ele>1290</ele>
        <time>2010-01-01T04:07:50Z</time>
      </trkpt>
      <trkpt lat="42.3298" lon="2.17649">
        <ele>1290</ele>
        <time>2010-01-01T04:07:51Z</time>
      </trkpt>
      <trkpt lat="42.32971" lon="2.17647">
        <ele>1288</ele>
        <time>2010-01-01T04:07:55Z</time>
      </trkpt>
      <trkpt lat="42.32962" lon="2.17646">
        <ele>1287</ele>
        <time>2010-01-01T04:07:58Z</time>
      </trkpt>
      <trkpt lat="42.32953" lon="2.17645">
        <ele>1287</ele>
        <time>2010-01-01T04:08:02Z</time>
      </trkpt>
      <trkpt lat="42.32943" lon="2.17646">
        <ele>1287</ele>
        <time>2010-01-01T04:08:06Z</time>
      </trkpt>
      <trkpt lat="42.32932" lon="2.17641">
        <ele>1283</ele>
        <time>2010-01-01T04:08:10Z</time>
      </trkpt>
      <trkpt lat="42.32922" lon="2.17643">
        <ele>1282</ele>
        <time>2010-01-01T04:08:15Z</time>
      </trkpt>
      <trkpt lat="42.32912" lon="2.17645">
        <ele>1282</ele>
        <time>2010-01-01T04:08:19Z</time>
      </trkpt>
      <trkpt lat="42.32902" lon="2.17643">
        <ele>1281</ele>
        <time>2010-01-01T04:08:23Z</time>
      </trkpt>
      <trkpt lat="42.32891" lon="2.17641">
        <ele>1280</ele>
        <time>2010-01-01T04:08:27Z</time>
      </trkpt>
      <trkpt lat="42.32882" lon="2.17638">
        <ele>1279</ele>
        <time>2010-01-01T04:08:31Z</time>
      </trkpt>
      <trkpt lat="42.32873" lon="2.17633">
        <ele>1278</ele>
        <time>2010-01-01T04:08:35Z</time>
      </trkpt>
      <trkpt lat="42.32864" lon="2.1763">
        <ele>1276</ele>
        <time>2010-01-01T04:08:38Z</time>
      </trkpt>
      <trkpt lat="42.32855" lon="2.17625">
        <ele>1272</ele>
        <time>2010-01-01T04:08:42Z</time>
      </trkpt>
      <trkpt lat="42.32846" lon="2.1762">
        <ele>1267</ele>
        <time>2010-01-01T04:08:46Z</time>
      </trkpt>
      <trkpt lat="42.32837" lon="2.1762">
        <ele>1266</ele>
        <time>2010-01-01T04:08:50Z</time>
      </trkpt>
      <trkpt lat="42.32826" lon="2.17621">
        <ele>1264</ele>
        <time>2010-01-01T04:08:54Z</time>
      </trkpt>
      <trkpt lat="42.32817" lon="2.17625">
        <ele>1264</ele>
        <time>2010-01-01T04:08:58Z</time>
      </trkpt>
      <trkpt lat="42.32808" lon="2.17626">
        <ele>1262</ele>
        <time>2010-01-01T04:09:02Z</time>
      </trkpt>
      <trkpt lat="42.32805" lon="2.17626">
        <ele>1262</ele>
        <time>2010-01-01T04:09:03Z</time>
      </trkpt>
      <trkpt lat="42.32796" lon="2.17626">
        <ele>1260</ele>
        <time>2010-01-01T04:09:06Z</time>
      </trkpt>
      <trkpt lat="42.32794" lon="2.17626">
        <ele>1260</ele>
        <time>2010-01-01T04:09:07Z</time>
      </trkpt>
      <trkpt lat="42.32791" lon="2.17626">
        <ele>1260</ele>
        <time>2010-01-01T04:09:08Z</time>
      </trkpt>
      <trkpt lat="42.32789" lon="2.17626">
        <ele>1259</ele>
        <time>2010-01-01T04:09:09Z</time>
      </trkpt>
      <trkpt lat="42.32786" lon="2.17626">
        <ele>1259</ele>
        <time>2010-01-01T04:09:10Z</time>
      </trkpt>
      <trkpt lat="42.32784" lon="2.17626">
        <ele>1258</ele>
        <time>2010-01-01T04:09:11Z</time>
      </trkpt>
      <trkpt lat="42.32782" lon="2.17626">
        <ele>1258</ele>
        <time>2010-01-01T04:09:12Z</time>
      </trkpt>
      <trkpt lat="42.32779" lon="2.17625">
        <ele>1257</ele>
        <time>2010-01-01T04:09:13Z</time>
      </trkpt>
      <trkpt lat="42.32776" lon="2.17625">
        <ele>1257</ele>
        <time>2010-01-01T04:09:14Z</time>
      </trkpt>
      <trkpt lat="42.32774" lon="2.17625">
        <ele>1257</ele>
        <time>2010-01-01T04:09:15Z</time>
      </trkpt>
      <trkpt lat="42.32771" lon="2.17624">
        <ele>1257</ele>
        <time>2010-01-01T04:09:17Z</time>
      </trkpt>
      <trkpt lat="42.32769" lon="2.17624">
        <ele>1257</ele>
        <time>2010-01-01T04:09:17Z</time>
      </trkpt>
      <trkpt lat="42.3276" lon="2.17622">
        <ele>1257</ele>
        <time>2010-01-01T04:09:21Z</time>
      </trkpt>
      <trkpt lat="42.3275" lon="2.17621">
        <ele>1257</ele>
        <time>2010-01-01T04:09:25Z</time>
      </trkpt>
      <trkpt lat="42.32739" lon="2.17619">
        <ele>1256</ele>
        <time>2010-01-01T04:09:29Z</time>
      </trkpt>
      <trkpt lat="42.32716" lon="2.17617">
        <ele>1256</ele>
        <time>2010-01-01T04:09:38Z</time>
      </trkpt>
      <trkpt lat="42.32706" lon="2.17618">
        <ele>1255</ele>
        <time>2010-01-01T04:09:43Z</time>
      </trkpt>
      <trkpt lat="42.32697" lon="2.17619">
        <ele>1255</ele>
        <time>2010-01-01T04:09:46Z</time>
      </trkpt>
      <trkpt lat="42.32685" lon="2.17622">
        <ele>1254</ele>
        <time>2010-01-01T04:09:51Z</time>
      </trkpt>
      <trkpt lat="42.32675" lon="2.17626">
        <ele>1253</ele>
        <time>2010-01-01T04:09:55Z</time>
      </trkpt>
      <trkpt lat="42.32671" lon="2.17627">
        <ele>1253</ele>
        <time>2010-01-01T04:09:57Z</time>
      </trkpt>
      <trkpt lat="42.32669" lon="2.17627">
        <ele>1253</ele>
        <time>2010-01-01T04:09:58Z</time>
      </trkpt>
      <trkpt lat="42.32667" lon="2.17629">
        <ele>1253</ele>
        <time>2010-01-01T04:09:58Z</time>
      </trkpt>
      <trkpt lat="42.32665" lon="2.17629">
        <ele>1253</ele>
        <time>2010-01-01T04:09:59Z</time>
      </trkpt>
      <trkpt lat="42.32664" lon="2.1763">
        <ele>1253</ele>
        <time>2010-01-01T04:10:00Z</time>
      </trkpt>
      <trkpt lat="42.3266" lon="2.17633">
        <ele>1253</ele>
        <time>2010-01-01T04:10:02Z</time>
      </trkpt>
      <trkpt lat="42.32657" lon="2.17634">
        <ele>1254</ele>
        <time>2010-01-01T04:10:03Z</time>
      </trkpt>
      <trkpt lat="42.32655" lon="2.17635">
        <ele>1254</ele>
        <time>2010-01-01T04:10:04Z</time>
      </trkpt>
      <trkpt lat="42.32652" lon="2.17636">
        <ele>1253</ele>
        <time>2010-01-01T04:10:05Z</time>
      </trkpt>
      <trkpt lat="42.3265" lon="2.17635">
        <ele>1252</ele>
        <time>2010-01-01T04:10:06Z</time>
      </trkpt>
      <trkpt lat="42.32648" lon="2.17635">
        <ele>1252</ele>
        <time>2010-01-01T04:10:07Z</time>
      </trkpt>
      <trkpt lat="42.32645" lon="2.17636">
        <ele>1252</ele>
        <time>2010-01-01T04:10:08Z</time>
      </trkpt>
      <trkpt lat="42.32642" lon="2.17637">
        <ele>1252</ele>
        <time>2010-01-01T04:10:09Z</time>
      </trkpt>
      <trkpt lat="42.32639" lon="2.17638">
        <ele>1252</ele>
        <time>2010-01-01T04:10:10Z</time>
      </trkpt>
      <trkpt lat="42.32632" lon="2.17642">
        <ele>1253</ele>
        <time>2010-01-01T04:10:13Z</time>
      </trkpt>
      <trkpt lat="42.32629" lon="2.17642">
        <ele>1253</ele>
        <time>2010-01-01T04:10:14Z</time>
      </trkpt>
      <trkpt lat="42.32627" lon="2.17643">
        <ele>1253</ele>
        <time>2010-01-01T04:10:15Z</time>
      </trkpt>
      <trkpt lat="42.32624" lon="2.17644">
        <ele>1253</ele>
        <time>2010-01-01T04:10:17Z</time>
      </trkpt>
      <trkpt lat="42.3262" lon="2.17646">
        <ele>1254</ele>
        <time>2010-01-01T04:10:19Z</time>
      </trkpt>
      <trkpt lat="42.3261" lon="2.17648">
        <ele>1253</ele>
        <time>2010-01-01T04:10:22Z</time>
      </trkpt>
      <trkpt lat="42.326" lon="2.17646">
        <ele>1249</ele>
        <time>2010-01-01T04:10:26Z</time>
      </trkpt>
      <trkpt lat="42.32591" lon="2.17644">
        <ele>1245</ele>
        <time>2010-01-01T04:10:30Z</time>
      </trkpt>
      <trkpt lat="42.32589" lon="2.17643">
        <ele>1244</ele>
        <time>2010-01-01T04:10:31Z</time>
      </trkpt>
      <trkpt lat="42.32584" lon="2.17642">
        <ele>1242</ele>
        <time>2010-01-01T04:10:33Z</time>
      </trkpt>
      <trkpt lat="42.32582" lon="2.17642">
        <ele>1241</ele>
        <time>2010-01-01T04:10:34Z</time>
      </trkpt>
      <trkpt lat="42.32579" lon="2.17643">
        <ele>1241</ele>
        <time>2010-01-01T04:10:35Z</time>
      </trkpt>
      <trkpt lat="42.32575" lon="2.17642">
        <ele>1240</ele>
        <time>2010-01-01T04:10:36Z</time>
      </trkpt>
      <trkpt lat="42.32565" lon="2.17641">
        <ele>1238</ele>
        <time>2010-01-01T04:10:41Z</time>
      </trkpt>
      <trkpt lat="42.32556" lon="2.17646">
        <ele>1240</ele>
        <time>2010-01-01T04:10:45Z</time>
      </trkpt>
      <trkpt lat="42.32547" lon="2.17651">
        <ele>1242</ele>
        <time>2010-01-01T04:10:48Z</time>
      </trkpt>
      <trkpt lat="42.32536" lon="2.17648">
        <ele>1241</ele>
        <time>2010-01-01T04:10:53Z</time>
      </trkpt>
      <trkpt lat="42.32526" lon="2.17643">
        <ele>1238</ele>
        <time>2010-01-01T04:10:57Z</time>
      </trkpt>
      <trkpt lat="42.32518" lon="2.17637">
        <ele>1236</ele>
        <time>2010-01-01T04:11:01Z</time>
      </trkpt>
      <trkpt lat="42.32508" lon="2.17632">
        <ele>1234</ele>
        <time>2010-01-01T04:11:05Z</time>
      </trkpt>
      <trkpt lat="42.32507" lon="2.1763">
        <ele>1233</ele>
        <time>2010-01-01T04:11:06Z</time>
      </trkpt>
      <trkpt lat="42.32505" lon="2.17626">
        <ele>1231</ele>
        <time>2010-01-01T04:11:07Z</time>
      </trkpt>
      <trkpt lat="42.32504" lon="2.17623">
        <ele>1229</ele>
        <time>2010-01-01T04:11:08Z</time>
      </trkpt>
      <trkpt lat="42.32502" lon="2.17623">
        <ele>1229</ele>
        <time>2010-01-01T04:11:09Z</time>
      </trkpt>
      <trkpt lat="42.32501" lon="2.17622">
        <ele>1229</ele>
        <time>2010-01-01T04:11:10Z</time>
      </trkpt>
      <trkpt lat="42.32497" lon="2.1762">
        <ele>1228</ele>
        <time>2010-01-01T04:11:11Z</time>
      </trkpt>
      <trkpt lat="42.32495" lon="2.1762">
        <ele>1228</ele>
        <time>2010-01-01T04:11:12Z</time>
      </trkpt>
      <trkpt lat="42.32493" lon="2.17619">
        <ele>1228</ele>
        <time>2010-01-01T04:11:13Z</time>
      </trkpt>
      <trkpt lat="42.32486" lon="2.17619">
        <ele>1228</ele>
        <time>2010-01-01T04:11:15Z</time>
      </trkpt>
      <trkpt lat="42.32477" lon="2.17621">
        <ele>1230</ele>
        <time>2010-01-01T04:11:19Z</time>
      </trkpt>
      <trkpt lat="42.3247" lon="2.1762">
        <ele>1230</ele>
        <time>2010-01-01T04:11:22Z</time>
      </trkpt>
      <trkpt lat="42.32466" lon="2.17621">
        <ele>1230</ele>
        <time>2010-01-01T04:11:24Z</time>
      </trkpt>
      <trkpt lat="42.32463" lon="2.17622">
        <ele>1231</ele>
        <time>2010-01-01T04:11:25Z</time>
      </trkpt>
      <trkpt lat="42.3246" lon="2.17622">
        <ele>1231</ele>
        <time>2010-01-01T04:11:26Z</time>
      </trkpt>
      <trkpt lat="42.32455" lon="2.17621">
        <ele>1230</ele>
        <time>2010-01-01T04:11:28Z</time>
      </trkpt>
      <trkpt lat="42.32451" lon="2.1762">
        <ele>1230</ele>
        <time>2010-01-01T04:11:30Z</time>
      </trkpt>
      <trkpt lat="42.32441" lon="2.17617">
        <ele>1228</ele>
        <time>2010-01-01T04:11:34Z</time>
      </trkpt>
      <trkpt lat="42.32432" lon="2.17609">
        <ele>1225</ele>
        <time>2010-01-01T04:11:38Z</time>
      </trkpt>
      <trkpt lat="42.32423" lon="2.17604">
        <ele>1224</ele>
        <time>2010-01-01T04:11:42Z</time>
      </trkpt>
      <trkpt lat="42.32413" lon="2.176">
        <ele>1223</ele>
        <time>2010-01-01T04:11:46Z</time>
      </trkpt>
      <trkpt lat="42.32404" lon="2.17598">
        <ele>1223</ele>
        <time>2010-01-01T04:11:50Z</time>
      </trkpt>
      <trkpt lat="42.32395" lon="2.17594">
        <ele>1223</ele>
        <time>2010-01-01T04:11:54Z</time>
      </trkpt>
      <trkpt lat="42.32385" lon="2.17589">
        <ele>1221</ele>
        <time>2010-01-01T04:11:58Z</time>
      </trkpt>
      <trkpt lat="42.32377" lon="2.17584">
        <ele>1220</ele>
        <time>2010-01-01T04:12:02Z</time>
      </trkpt>
      <trkpt lat="42.32368" lon="2.17579">
        <ele>1219</ele>
        <time>2010-01-01T04:12:05Z</time>
      </trkpt>
      <trkpt lat="42.32359" lon="2.17575">
        <ele>1218</ele>
        <time>2010-01-01T04:12:09Z</time>
      </trkpt>
      <trkpt lat="42.32349" lon="2.17573">
        <ele>1218</ele>
        <time>2010-01-01T04:12:13Z</time>
      </trkpt>
      <trkpt lat="42.3234" lon="2.1757">
        <ele>1217</ele>
        <time>2010-01-01T04:12:17Z</time>
      </trkpt>
      <trkpt lat="42.3233" lon="2.1757">
        <ele>1217</ele>
        <time>2010-01-01T04:12:21Z</time>
      </trkpt>
      <trkpt lat="42.32319" lon="2.1757">
        <ele>1217</ele>
        <time>2010-01-01T04:12:25Z</time>
      </trkpt>
      <trkpt lat="42.32308" lon="2.17569">
        <ele>1217</ele>
        <time>2010-01-01T04:12:30Z</time>
      </trkpt>
      <trkpt lat="42.32304" lon="2.17569">
        <ele>1217</ele>
        <time>2010-01-01T04:12:31Z</time>
      </trkpt>
      <trkpt lat="42.32302" lon="2.17569">
        <ele>1217</ele>
        <time>2010-01-01T04:12:32Z</time>
      </trkpt>
      <trkpt lat="42.3229" lon="2.1757">
        <ele>1217</ele>
        <time>2010-01-01T04:12:37Z</time>
      </trkpt>
      <trkpt lat="42.32279" lon="2.17568">
        <ele>1217</ele>
        <time>2010-01-01T04:12:41Z</time>
      </trkpt>
      <trkpt lat="42.32268" lon="2.17567">
        <ele>1215</ele>
        <time>2010-01-01T04:12:46Z</time>
      </trkpt>
      <trkpt lat="42.3226" lon="2.17563">
        <ele>1213</ele>
        <time>2010-01-01T04:12:49Z</time>
      </trkpt>
      <trkpt lat="42.3225" lon="2.17561">
        <ele>1211</ele>
        <time>2010-01-01T04:12:53Z</time>
      </trkpt>
      <trkpt lat="42.32239" lon="2.17559">
        <ele>1208</ele>
        <time>2010-01-01T04:12:58Z</time>
      </trkpt>
      <trkpt lat="42.32237" lon="2.17558">
        <ele>1207</ele>
        <time>2010-01-01T04:12:59Z</time>
      </trkpt>
      <trkpt lat="42.32226" lon="2.1756">
        <ele>1206</ele>
        <time>2010-01-01T04:13:03Z</time>
      </trkpt>
      <trkpt lat="42.32222" lon="2.17561">
        <ele>1205</ele>
        <time>2010-01-01T04:13:05Z</time>
      </trkpt>
      <trkpt lat="42.32219" lon="2.17561">
        <ele>1205</ele>
        <time>2010-01-01T04:13:06Z</time>
      </trkpt>
      <trkpt lat="42.32217" lon="2.17561">
        <ele>1204</ele>
        <time>2010-01-01T04:13:06Z</time>
      </trkpt>
      <trkpt lat="42.32215" lon="2.17562">
        <ele>1204</ele>
        <time>2010-01-01T04:13:08Z</time>
      </trkpt>
      <trkpt lat="42.32212" lon="2.17562">
        <ele>1203</ele>
        <time>2010-01-01T04:13:09Z</time>
      </trkpt>
      <trkpt lat="42.3221" lon="2.17562">
        <ele>1203</ele>
        <time>2010-01-01T04:13:10Z</time>
      </trkpt>
      <trkpt lat="42.32208" lon="2.17561">
        <ele>1202</ele>
        <time>2010-01-01T04:13:10Z</time>
      </trkpt>
      <trkpt lat="42.32205" lon="2.17561">
        <ele>1201</ele>
        <time>2010-01-01T04:13:11Z</time>
      </trkpt>
      <trkpt lat="42.32203" lon="2.17561">
        <ele>1201</ele>
        <time>2010-01-01T04:13:12Z</time>
      </trkpt>
      <trkpt lat="42.32202" lon="2.17561">
        <ele>1200</ele>
        <time>2010-01-01T04:13:13Z</time>
      </trkpt>
      <trkpt lat="42.32192" lon="2.17564">
        <ele>1199</ele>
        <time>2010-01-01T04:13:17Z</time>
      </trkpt>
      <trkpt lat="42.32184" lon="2.17569">
        <ele>1199</ele>
        <time>2010-01-01T04:13:20Z</time>
      </trkpt>
      <trkpt lat="42.32181" lon="2.17571">
        <ele>1198</ele>
        <time>2010-01-01T04:13:22Z</time>
      </trkpt>
      <trkpt lat="42.32178" lon="2.17573">
        <ele>1198</ele>
        <time>2010-01-01T04:13:23Z</time>
      </trkpt>
      <trkpt lat="42.32176" lon="2.17574">
        <ele>1198</ele>
        <time>2010-01-01T04:13:24Z</time>
      </trkpt>
      <trkpt lat="42.32173" lon="2.17575">
        <ele>1198</ele>
        <time>2010-01-01T04:13:25Z</time>
      </trkpt>
      <trkpt lat="42.32169" lon="2.17578">
        <ele>1198</ele>
        <time>2010-01-01T04:13:27Z</time>
      </trkpt>
      <trkpt lat="42.32165" lon="2.17579">
        <ele>1197</ele>
        <time>2010-01-01T04:13:29Z</time>
      </trkpt>
      <trkpt lat="42.32163" lon="2.1758">
        <ele>1197</ele>
        <time>2010-01-01T04:13:29Z</time>
      </trkpt>
      <trkpt lat="42.32161" lon="2.1758">
        <ele>1197</ele>
        <time>2010-01-01T04:13:30Z</time>
      </trkpt>
      <trkpt lat="42.32159" lon="2.1758">
        <ele>1197</ele>
        <time>2010-01-01T04:13:31Z</time>
      </trkpt>
      <trkpt lat="42.32154" lon="2.1758">
        <ele>1196</ele>
        <time>2010-01-01T04:13:33Z</time>
      </trkpt>
      <trkpt lat="42.32146" lon="2.1758">
        <ele>1195</ele>
        <time>2010-01-01T04:13:36Z</time>
      </trkpt>
      <trkpt lat="42.32144" lon="2.17579">
        <ele>1195</ele>
        <time>2010-01-01T04:13:37Z</time>
      </trkpt>
      <trkpt lat="42.32133" lon="2.17578">
        <ele>1193</ele>
        <time>2010-01-01T04:13:42Z</time>
      </trkpt>
      <trkpt lat="42.3213" lon="2.17578">
        <ele>1193</ele>
        <time>2010-01-01T04:13:42Z</time>
      </trkpt>
      <trkpt lat="42.32128" lon="2.17577">
        <ele>1193</ele>
        <time>2010-01-01T04:13:43Z</time>
      </trkpt>
      <trkpt lat="42.32125" lon="2.17577">
        <ele>1193</ele>
        <time>2010-01-01T04:13:44Z</time>
      </trkpt>
      <trkpt lat="42.32123" lon="2.17577">
        <ele>1192</ele>
        <time>2010-01-01T04:13:46Z</time>
      </trkpt>
      <trkpt lat="42.32119" lon="2.17576">
        <ele>1192</ele>
        <time>2010-01-01T04:13:47Z</time>
      </trkpt>
      <trkpt lat="42.32116" lon="2.17576">
        <ele>1191</ele>
        <time>2010-01-01T04:13:48Z</time>
      </trkpt>
      <trkpt lat="42.32114" lon="2.17575">
        <ele>1191</ele>
        <time>2010-01-01T04:13:49Z</time>
      </trkpt>
      <trkpt lat="42.32111" lon="2.17574">
        <ele>1190</ele>
        <time>2010-01-01T04:13:50Z</time>
      </trkpt>
      <trkpt lat="42.32109" lon="2.17573">
        <ele>1189</ele>
        <time>2010-01-01T04:13:51Z</time>
      </trkpt>
      <trkpt lat="42.32106" lon="2.17573">
        <ele>1188</ele>
        <time>2010-01-01T04:13:52Z</time>
      </trkpt>
      <trkpt lat="42.32104" lon="2.17573">
        <ele>1188</ele>
        <time>2010-01-01T04:13:53Z</time>
      </trkpt>
      <trkpt lat="42.32101" lon="2.17572">
        <ele>1186</ele>
        <time>2010-01-01T04:13:54Z</time>
      </trkpt>
      <trkpt lat="42.32093" lon="2.17573">
        <ele>1185</ele>
        <time>2010-01-01T04:13:58Z</time>
      </trkpt>
      <trkpt lat="42.32087" lon="2.17576">
        <ele>1184</ele>
        <time>2010-01-01T04:14:00Z</time>
      </trkpt>
      <trkpt lat="42.32084" lon="2.17578">
        <ele>1184</ele>
        <time>2010-01-01T04:14:02Z</time>
      </trkpt>
      <trkpt lat="42.32082" lon="2.1758">
        <ele>1185</ele>
        <time>2010-01-01T04:14:03Z</time>
      </trkpt>
      <trkpt lat="42.32079" lon="2.1758">
        <ele>1185</ele>
        <time>2010-01-01T04:14:04Z</time>
      </trkpt>
      <trkpt lat="42.32077" lon="2.17581">
        <ele>1184</ele>
        <time>2010-01-01T04:14:04Z</time>
      </trkpt>
      <trkpt lat="42.32075" lon="2.17582">
        <ele>1184</ele>
        <time>2010-01-01T04:14:05Z</time>
      </trkpt>
      <trkpt lat="42.32073" lon="2.17582">
        <ele>1184</ele>
        <time>2010-01-01T04:14:06Z</time>
      </trkpt>
      <trkpt lat="42.32071" lon="2.17583">
        <ele>1184</ele>
        <time>2010-01-01T04:14:07Z</time>
      </trkpt>
      <trkpt lat="42.32068" lon="2.17584">
        <ele>1184</ele>
        <time>2010-01-01T04:14:08Z</time>
      </trkpt>
      <trkpt lat="42.32066" lon="2.17584">
        <ele>1184</ele>
        <time>2010-01-01T04:14:09Z</time>
      </trkpt>
      <trkpt lat="42.32064" lon="2.17585">
        <ele>1183</ele>
        <time>2010-01-01T04:14:10Z</time>
      </trkpt>
      <trkpt lat="42.32062" lon="2.17585">
        <ele>1183</ele>
        <time>2010-01-01T04:14:11Z</time>
      </trkpt>
      <trkpt lat="42.32051" lon="2.17588">
        <ele>1182</ele>
        <time>2010-01-01T04:14:15Z</time>
      </trkpt>
      <trkpt lat="42.32041" lon="2.17591">
        <ele>1181</ele>
        <time>2010-01-01T04:14:19Z</time>
      </trkpt>
      <trkpt lat="42.32039" lon="2.17589">
        <ele>1181</ele>
        <time>2010-01-01T04:14:20Z</time>
      </trkpt>
      <trkpt lat="42.32036" lon="2.17589">
        <ele>1180</ele>
        <time>2010-01-01T04:14:21Z</time>
      </trkpt>
      <trkpt lat="42.32034" lon="2.17589">
        <ele>1180</ele>
        <time>2010-01-01T04:14:22Z</time>
      </trkpt>
      <trkpt lat="42.32024" lon="2.17587">
        <ele>1176</ele>
        <time>2010-01-01T04:14:26Z</time>
      </trkpt>
      <trkpt lat="42.32015" lon="2.17586">
        <ele>1173</ele>
        <time>2010-01-01T04:14:30Z</time>
      </trkpt>
      <trkpt lat="42.32005" lon="2.17586">
        <ele>1170</ele>
        <time>2010-01-01T04:14:34Z</time>
      </trkpt>
      <trkpt lat="42.31996" lon="2.17583">
        <ele>1167</ele>
        <time>2010-01-01T04:14:37Z</time>
      </trkpt>
      <trkpt lat="42.31987" lon="2.17587">
        <ele>1167</ele>
        <time>2010-01-01T04:14:41Z</time>
      </trkpt>
      <trkpt lat="42.31976" lon="2.17588">
        <ele>1166</ele>
        <time>2010-01-01T04:14:46Z</time>
      </trkpt>
      <trkpt lat="42.31965" lon="2.17591">
        <ele>1165</ele>
        <time>2010-01-01T04:14:50Z</time>
      </trkpt>
      <trkpt lat="42.31954" lon="2.17594">
        <ele>1165</ele>
        <time>2010-01-01T04:14:55Z</time>
      </trkpt>
      <trkpt lat="42.31943" lon="2.17597">
        <ele>1164</ele>
        <time>2010-01-01T04:14:59Z</time>
      </trkpt>
      <trkpt lat="42.3194" lon="2.17598">
        <ele>1163</ele>
        <time>2010-01-01T04:15:00Z</time>
      </trkpt>
      <trkpt lat="42.31937" lon="2.17598">
        <ele>1163</ele>
        <time>2010-01-01T04:15:01Z</time>
      </trkpt>
      <trkpt lat="42.31935" lon="2.17598">
        <ele>1162</ele>
        <time>2010-01-01T04:15:02Z</time>
      </trkpt>
      <trkpt lat="42.31932" lon="2.17599">
        <ele>1162</ele>
        <time>2010-01-01T04:15:03Z</time>
      </trkpt>
      <trkpt lat="42.31929" lon="2.176">
        <ele>1161</ele>
        <time>2010-01-01T04:15:05Z</time>
      </trkpt>
      <trkpt lat="42.31927" lon="2.17601">
        <ele>1161</ele>
        <time>2010-01-01T04:15:06Z</time>
      </trkpt>
      <trkpt lat="42.31924" lon="2.17602">
        <ele>1160</ele>
        <time>2010-01-01T04:15:07Z</time>
      </trkpt>
      <trkpt lat="42.31922" lon="2.17602">
        <ele>1159</ele>
        <time>2010-01-01T04:15:08Z</time>
      </trkpt>
      <trkpt lat="42.31916" lon="2.17603">
        <ele>1158</ele>
        <time>2010-01-01T04:15:10Z</time>
      </trkpt>
      <trkpt lat="42.31913" lon="2.17603">
        <ele>1157</ele>
        <time>2010-01-01T04:15:11Z</time>
      </trkpt>
      <trkpt lat="42.3191" lon="2.17604">
        <ele>1157</ele>
        <time>2010-01-01T04:15:12Z</time>
      </trkpt>
      <trkpt lat="42.31908" lon="2.17605">
        <ele>1156</ele>
        <time>2010-01-01T04:15:14Z</time>
      </trkpt>
      <trkpt lat="42.31905" lon="2.17605">
        <ele>1156</ele>
        <time>2010-01-01T04:15:14Z</time>
      </trkpt>
      <trkpt lat="42.31903" lon="2.17605">
        <ele>1155</ele>
        <time>2010-01-01T04:15:15Z</time>
      </trkpt>
      <trkpt lat="42.31899" lon="2.17605">
        <ele>1155</ele>
        <time>2010-01-01T04:15:17Z</time>
      </trkpt>
      <trkpt lat="42.31897" lon="2.17605">
        <ele>1154</ele>
        <time>2010-01-01T04:15:18Z</time>
      </trkpt>
      <trkpt lat="42.31894" lon="2.17604">
        <ele>1153</ele>
        <time>2010-01-01T04:15:19Z</time>
      </trkpt>
      <trkpt lat="42.31892" lon="2.17605">
        <ele>1153</ele>
        <time>2010-01-01T04:15:20Z</time>
      </trkpt>
      <trkpt lat="42.31889" lon="2.17606">
        <ele>1153</ele>
        <time>2010-01-01T04:15:21Z</time>
      </trkpt>
      <trkpt lat="42.31887" lon="2.17608">
        <ele>1153</ele>
        <time>2010-01-01T04:15:22Z</time>
      </trkpt>
      <trkpt lat="42.31884" lon="2.1761">
        <ele>1153</ele>
        <time>2010-01-01T04:15:23Z</time>
      </trkpt>
      <trkpt lat="42.31882" lon="2.17611">
        <ele>1153</ele>
        <time>2010-01-01T04:15:24Z</time>
      </trkpt>
      <trkpt lat="42.31879" lon="2.17611">
        <ele>1153</ele>
        <time>2010-01-01T04:15:25Z</time>
      </trkpt>
      <trkpt lat="42.31878" lon="2.17612">
        <ele>1153</ele>
        <time>2010-01-01T04:15:26Z</time>
      </trkpt>
      <trkpt lat="42.31875" lon="2.17612">
        <ele>1153</ele>
        <time>2010-01-01T04:15:27Z</time>
      </trkpt>
      <trkpt lat="42.31869" lon="2.17611">
        <ele>1152</ele>
        <time>2010-01-01T04:15:29Z</time>
      </trkpt>
      <trkpt lat="42.31867" lon="2.1761">
        <ele>1152</ele>
        <time>2010-01-01T04:15:30Z</time>
      </trkpt>
      <trkpt lat="42.31865" lon="2.1761">
        <ele>1151</ele>
        <time>2010-01-01T04:15:31Z</time>
      </trkpt>
      <trkpt lat="42.31862" lon="2.17609">
        <ele>1151</ele>
        <time>2010-01-01T04:15:32Z</time>
      </trkpt>
      <trkpt lat="42.3186" lon="2.17609">
        <ele>1151</ele>
        <time>2010-01-01T04:15:33Z</time>
      </trkpt>
      <trkpt lat="42.31858" lon="2.17608">
        <ele>1150</ele>
        <time>2010-01-01T04:15:34Z</time>
      </trkpt>
      <trkpt lat="42.31856" lon="2.17607">
        <ele>1150</ele>
        <time>2010-01-01T04:15:35Z</time>
      </trkpt>
      <trkpt lat="42.31853" lon="2.17607">
        <ele>1149</ele>
        <time>2010-01-01T04:15:36Z</time>
      </trkpt>
      <trkpt lat="42.31851" lon="2.17607">
        <ele>1149</ele>
        <time>2010-01-01T04:15:37Z</time>
      </trkpt>
      <trkpt lat="42.31849" lon="2.17608">
        <ele>1149</ele>
        <time>2010-01-01T04:15:38Z</time>
      </trkpt>
      <trkpt lat="42.31846" lon="2.17608">
        <ele>1149</ele>
        <time>2010-01-01T04:15:39Z</time>
      </trkpt>
      <trkpt lat="42.31844" lon="2.17609">
        <ele>1149</ele>
        <time>2010-01-01T04:15:40Z</time>
      </trkpt>
      <trkpt lat="42.31842" lon="2.17608">
        <ele>1149</ele>
        <time>2010-01-01T04:15:40Z</time>
      </trkpt>
      <trkpt lat="42.31839" lon="2.17608">
        <ele>1148</ele>
        <time>2010-01-01T04:15:42Z</time>
      </trkpt>
      <trkpt lat="42.31837" lon="2.17607">
        <ele>1148</ele>
        <time>2010-01-01T04:15:43Z</time>
      </trkpt>
      <trkpt lat="42.31834" lon="2.17607">
        <ele>1148</ele>
        <time>2010-01-01T04:15:44Z</time>
      </trkpt>
      <trkpt lat="42.31831" lon="2.17607">
        <ele>1147</ele>
        <time>2010-01-01T04:15:45Z</time>
      </trkpt>
      <trkpt lat="42.31828" lon="2.17607">
        <ele>1147</ele>
        <time>2010-01-01T04:15:46Z</time>
      </trkpt>
      <trkpt lat="42.31825" lon="2.17606">
        <ele>1146</ele>
        <time>2010-01-01T04:15:47Z</time>
      </trkpt>
      <trkpt lat="42.31823" lon="2.17605">
        <ele>1146</ele>
        <time>2010-01-01T04:15:48Z</time>
      </trkpt>
      <trkpt lat="42.3182" lon="2.17605">
        <ele>1145</ele>
        <time>2010-01-01T04:15:49Z</time>
      </trkpt>
      <trkpt lat="42.31816" lon="2.17605">
        <ele>1145</ele>
        <time>2010-01-01T04:15:51Z</time>
      </trkpt>
      <trkpt lat="42.31813" lon="2.17604">
        <ele>1145</ele>
        <time>2010-01-01T04:15:52Z</time>
      </trkpt>
      <trkpt lat="42.3181" lon="2.17603">
        <ele>1144</ele>
        <time>2010-01-01T04:15:53Z</time>
      </trkpt>
      <trkpt lat="42.31801" lon="2.17602">
        <ele>1142</ele>
        <time>2010-01-01T04:15:57Z</time>
      </trkpt>
      <trkpt lat="42.31793" lon="2.17602">
        <ele>1141</ele>
        <time>2010-01-01T04:16:00Z</time>
      </trkpt>
      <trkpt lat="42.31791" lon="2.17601">
        <ele>1140</ele>
        <time>2010-01-01T04:16:01Z</time>
      </trkpt>
      <trkpt lat="42.3179" lon="2.17599">
        <ele>1139</ele>
        <time>2010-01-01T04:16:02Z</time>
      </trkpt>
      <trkpt lat="42.31787" lon="2.17597">
        <ele>1138</ele>
        <time>2010-01-01T04:16:03Z</time>
      </trkpt>
      <trkpt lat="42.31785" lon="2.17593">
        <ele>1137</ele>
        <time>2010-01-01T04:16:05Z</time>
      </trkpt>
      <trkpt lat="42.31786" lon="2.17588">
        <ele>1136</ele>
        <time>2010-01-01T04:16:06Z</time>
      </trkpt>
      <trkpt lat="42.31785" lon="2.17586">
        <ele>1135</ele>
        <time>2010-01-01T04:16:07Z</time>
      </trkpt>
      <trkpt lat="42.31781" lon="2.17585">
        <ele>1134</ele>
        <time>2010-01-01T04:16:08Z</time>
      </trkpt>
      <trkpt lat="42.3178" lon="2.17584">
        <ele>1133</ele>
        <time>2010-01-01T04:16:09Z</time>
      </trkpt>
      <trkpt lat="42.31778" lon="2.17582">
        <ele>1132</ele>
        <time>2010-01-01T04:16:10Z</time>
      </trkpt>
      <trkpt lat="42.31776" lon="2.17581">
        <ele>1131</ele>
        <time>2010-01-01T04:16:10Z</time>
      </trkpt>
      <trkpt lat="42.31774" lon="2.17579">
        <ele>1131</ele>
        <time>2010-01-01T04:16:11Z</time>
      </trkpt>
      <trkpt lat="42.31773" lon="2.17578">
        <ele>1130</ele>
        <time>2010-01-01T04:16:12Z</time>
      </trkpt>
      <trkpt lat="42.31771" lon="2.17576">
        <ele>1129</ele>
        <time>2010-01-01T04:16:13Z</time>
      </trkpt>
      <trkpt lat="42.31769" lon="2.17575">
        <ele>1128</ele>
        <time>2010-01-01T04:16:14Z</time>
      </trkpt>
      <trkpt lat="42.31767" lon="2.17573">
        <ele>1128</ele>
        <time>2010-01-01T04:16:15Z</time>
      </trkpt>
      <trkpt lat="42.31765" lon="2.17572">
        <ele>1127</ele>
        <time>2010-01-01T04:16:16Z</time>
      </trkpt>
      <trkpt lat="42.31762" lon="2.1757">
        <ele>1126</ele>
        <time>2010-01-01T04:16:17Z</time>
      </trkpt>
      <trkpt lat="42.3176" lon="2.17569">
        <ele>1125</ele>
        <time>2010-01-01T04:16:18Z</time>
      </trkpt>
      <trkpt lat="42.31758" lon="2.17567">
        <ele>1124</ele>
        <time>2010-01-01T04:16:19Z</time>
      </trkpt>
      <trkpt lat="42.31756" lon="2.17565">
        <ele>1123</ele>
        <time>2010-01-01T04:16:20Z</time>
      </trkpt>
      <trkpt lat="42.31755" lon="2.17563">
        <ele>1123</ele>
        <time>2010-01-01T04:16:20Z</time>
      </trkpt>
      <trkpt lat="42.31753" lon="2.17561">
        <ele>1122</ele>
        <time>2010-01-01T04:16:21Z</time>
      </trkpt>
      <trkpt lat="42.31751" lon="2.1756">
        <ele>1122</ele>
        <time>2010-01-01T04:16:22Z</time>
      </trkpt>
      <trkpt lat="42.31749" lon="2.17559">
        <ele>1121</ele>
        <time>2010-01-01T04:16:23Z</time>
      </trkpt>
      <trkpt lat="42.31748" lon="2.17557">
        <ele>1120</ele>
        <time>2010-01-01T04:16:24Z</time>
      </trkpt>
      <trkpt lat="42.31747" lon="2.17555">
        <ele>1120</ele>
        <time>2010-01-01T04:16:25Z</time>
      </trkpt>
      <trkpt lat="42.31747" lon="2.17552">
        <ele>1119</ele>
        <time>2010-01-01T04:16:25Z</time>
      </trkpt>
      <trkpt lat="42.31748" lon="2.1755">
        <ele>1119</ele>
        <time>2010-01-01T04:16:26Z</time>
      </trkpt>
      <trkpt lat="42.31747" lon="2.17546">
        <ele>1119</ele>
        <time>2010-01-01T04:16:27Z</time>
      </trkpt>
      <trkpt lat="42.31745" lon="2.17545">
        <ele>1118</ele>
        <time>2010-01-01T04:16:28Z</time>
      </trkpt>
      <trkpt lat="42.31741" lon="2.17545">
        <ele>1117</ele>
        <time>2010-01-01T04:16:30Z</time>
      </trkpt>
      <trkpt lat="42.31739" lon="2.17544">
        <ele>1117</ele>
        <time>2010-01-01T04:16:31Z</time>
      </trkpt>
      <trkpt lat="42.31736" lon="2.17544">
        <ele>1116</ele>
        <time>2010-01-01T04:16:32Z</time>
      </trkpt>
      <trkpt lat="42.31734" lon="2.17544">
        <ele>1116</ele>
        <time>2010-01-01T04:16:33Z</time>
      </trkpt>
      <trkpt lat="42.31731" lon="2.17545">
        <ele>1116</ele>
        <time>2010-01-01T04:16:34Z</time>
      </trkpt>
      <trkpt lat="42.3173" lon="2.17546">
        <ele>1115</ele>
        <time>2010-01-01T04:16:35Z</time>
      </trkpt>
      <trkpt lat="42.31728" lon="2.17548">
        <ele>1115</ele>
        <time>2010-01-01T04:16:35Z</time>
      </trkpt>
      <trkpt lat="42.31727" lon="2.17549">
        <ele>1115</ele>
        <time>2010-01-01T04:16:36Z</time>
      </trkpt>
      <trkpt lat="42.31725" lon="2.17551">
        <ele>1115</ele>
        <time>2010-01-01T04:16:37Z</time>
      </trkpt>
      <trkpt lat="42.31724" lon="2.17553">
        <ele>1115</ele>
        <time>2010-01-01T04:16:38Z</time>
      </trkpt>
      <trkpt lat="42.31721" lon="2.17556">
        <ele>1114</ele>
        <time>2010-01-01T04:16:39Z</time>
      </trkpt>
      <trkpt lat="42.31719" lon="2.17559">
        <ele>1114</ele>
        <time>2010-01-01T04:16:40Z</time>
      </trkpt>
      <trkpt lat="42.31717" lon="2.17561">
        <ele>1114</ele>
        <time>2010-01-01T04:16:41Z</time>
      </trkpt>
      <trkpt lat="42.31715" lon="2.17559">
        <ele>1113</ele>
        <time>2010-01-01T04:16:42Z</time>
      </trkpt>
      <trkpt lat="42.31716" lon="2.17553">
        <ele>1113</ele>
        <time>2010-01-01T04:16:44Z</time>
      </trkpt>
      <trkpt lat="42.31717" lon="2.1755">
        <ele>1113</ele>
        <time>2010-01-01T04:16:45Z</time>
      </trkpt>
      <trkpt lat="42.31718" lon="2.17547">
        <ele>1113</ele>
        <time>2010-01-01T04:16:46Z</time>
      </trkpt>
      <trkpt lat="42.31719" lon="2.17543">
        <ele>1113</ele>
        <time>2010-01-01T04:16:47Z</time>
      </trkpt>
      <trkpt lat="42.3172" lon="2.1754">
        <ele>1113</ele>
        <time>2010-01-01T04:16:48Z</time>
      </trkpt>
      <trkpt lat="42.31721" lon="2.17537">
        <ele>1114</ele>
        <time>2010-01-01T04:16:49Z</time>
      </trkpt>
      <trkpt lat="42.31722" lon="2.17533">
        <ele>1114</ele>
        <time>2010-01-01T04:16:50Z</time>
      </trkpt>
      <trkpt lat="42.31722" lon="2.17529">
        <ele>1114</ele>
        <time>2010-01-01T04:16:51Z</time>
      </trkpt>
      <trkpt lat="42.31722" lon="2.17526">
        <ele>1113</ele>
        <time>2010-01-01T04:16:52Z</time>
      </trkpt>
      <trkpt lat="42.31722" lon="2.17523">
        <ele>1113</ele>
        <time>2010-01-01T04:16:53Z</time>
      </trkpt>
      <trkpt lat="42.31721" lon="2.1752">
        <ele>1112</ele>
        <time>2010-01-01T04:16:54Z</time>
      </trkpt>
      <trkpt lat="42.31719" lon="2.17518">
        <ele>1112</ele>
        <time>2010-01-01T04:16:55Z</time>
      </trkpt>
      <trkpt lat="42.31716" lon="2.17517">
        <ele>1111</ele>
        <time>2010-01-01T04:16:56Z</time>
      </trkpt>
      <trkpt lat="42.31713" lon="2.17516">
        <ele>1110</ele>
        <time>2010-01-01T04:16:57Z</time>
      </trkpt>
      <trkpt lat="42.31711" lon="2.17515">
        <ele>1110</ele>
        <time>2010-01-01T04:16:59Z</time>
      </trkpt>
      <trkpt lat="42.31708" lon="2.17515">
        <ele>1109</ele>
        <time>2010-01-01T04:17:00Z</time>
      </trkpt>
      <trkpt lat="42.31705" lon="2.17514">
        <ele>1108</ele>
        <time>2010-01-01T04:17:01Z</time>
      </trkpt>
      <trkpt lat="42.31702" lon="2.17512">
        <ele>1107</ele>
        <time>2010-01-01T04:17:02Z</time>
      </trkpt>
      <trkpt lat="42.317" lon="2.1751">
        <ele>1107</ele>
        <time>2010-01-01T04:17:03Z</time>
      </trkpt>
      <trkpt lat="42.31698" lon="2.17507">
        <ele>1106</ele>
        <time>2010-01-01T04:17:04Z</time>
      </trkpt>
      <trkpt lat="42.31697" lon="2.17504">
        <ele>1106</ele>
        <time>2010-01-01T04:17:05Z</time>
      </trkpt>
      <trkpt lat="42.31696" lon="2.17501">
        <ele>1106</ele>
        <time>2010-01-01T04:17:06Z</time>
      </trkpt>
      <trkpt lat="42.31694" lon="2.17498">
        <ele>1105</ele>
        <time>2010-01-01T04:17:07Z</time>
      </trkpt>
      <trkpt lat="42.31693" lon="2.17495">
        <ele>1105</ele>
        <time>2010-01-01T04:17:08Z</time>
      </trkpt>
      <trkpt lat="42.31692" lon="2.17491">
        <ele>1104</ele>
        <time>2010-01-01T04:17:10Z</time>
      </trkpt>
      <trkpt lat="42.31691" lon="2.17488">
        <ele>1104</ele>
        <time>2010-01-01T04:17:11Z</time>
      </trkpt>
      <trkpt lat="42.31691" lon="2.17484">
        <ele>1103</ele>
        <time>2010-01-01T04:17:12Z</time>
      </trkpt>
      <trkpt lat="42.3169" lon="2.1748">
        <ele>1103</ele>
        <time>2010-01-01T04:17:13Z</time>
      </trkpt>
      <trkpt lat="42.31689" lon="2.17477">
        <ele>1102</ele>
        <time>2010-01-01T04:17:14Z</time>
      </trkpt>
      <trkpt lat="42.31689" lon="2.17473">
        <ele>1102</ele>
        <time>2010-01-01T04:17:15Z</time>
      </trkpt>
      <trkpt lat="42.31688" lon="2.1747">
        <ele>1102</ele>
        <time>2010-01-01T04:17:16Z</time>
      </trkpt>
      <trkpt lat="42.31686" lon="2.17466">
        <ele>1101</ele>
        <time>2010-01-01T04:17:17Z</time>
      </trkpt>
      <trkpt lat="42.31686" lon="2.17463">
        <ele>1101</ele>
        <time>2010-01-01T04:17:18Z</time>
      </trkpt>
      <trkpt lat="42.31685" lon="2.17459">
        <ele>1101</ele>
        <time>2010-01-01T04:17:19Z</time>
      </trkpt>
      <trkpt lat="42.31684" lon="2.17456">
        <ele>1100</ele>
        <time>2010-01-01T04:17:21Z</time>
      </trkpt>
      <trkpt lat="42.31684" lon="2.17452">
        <ele>1100</ele>
        <time>2010-01-01T04:17:22Z</time>
      </trkpt>
      <trkpt lat="42.31683" lon="2.17449">
        <ele>1100</ele>
        <time>2010-01-01T04:17:23Z</time>
      </trkpt>
      <trkpt lat="42.31682" lon="2.17446">
        <ele>1100</ele>
        <time>2010-01-01T04:17:24Z</time>
      </trkpt>
      <trkpt lat="42.31682" lon="2.17443">
        <ele>1099</ele>
        <time>2010-01-01T04:17:25Z</time>
      </trkpt>
      <trkpt lat="42.31682" lon="2.17439">
        <ele>1099</ele>
        <time>2010-01-01T04:17:26Z</time>
      </trkpt>
      <trkpt lat="42.31683" lon="2.17436">
        <ele>1099</ele>
        <time>2010-01-01T04:17:27Z</time>
      </trkpt>
      <trkpt lat="42.31683" lon="2.17432">
        <ele>1099</ele>
        <time>2010-01-01T04:17:28Z</time>
      </trkpt>
      <trkpt lat="42.31684" lon="2.17428">
        <ele>1098</ele>
        <time>2010-01-01T04:17:29Z</time>
      </trkpt>
      <trkpt lat="42.31684" lon="2.17424">
        <ele>1098</ele>
        <time>2010-01-01T04:17:30Z</time>
      </trkpt>
      <trkpt lat="42.31685" lon="2.17421">
        <ele>1098</ele>
        <time>2010-01-01T04:17:31Z</time>
      </trkpt>
      <trkpt lat="42.31686" lon="2.17417">
        <ele>1098</ele>
        <time>2010-01-01T04:17:32Z</time>
      </trkpt>
      <trkpt lat="42.31686" lon="2.17414">
        <ele>1097</ele>
        <time>2010-01-01T04:17:33Z</time>
      </trkpt>
      <trkpt lat="42.31687" lon="2.17411">
        <ele>1097</ele>
        <time>2010-01-01T04:17:34Z</time>
      </trkpt>
      <trkpt lat="42.31687" lon="2.17408">
        <ele>1097</ele>
        <time>2010-01-01T04:17:35Z</time>
      </trkpt>
      <trkpt lat="42.31689" lon="2.17404">
        <ele>1096</ele>
        <time>2010-01-01T04:17:36Z</time>
      </trkpt>
      <trkpt lat="42.31689" lon="2.17401">
        <ele>1096</ele>
        <time>2010-01-01T04:17:37Z</time>
      </trkpt>
      <trkpt lat="42.31689" lon="2.17398">
        <ele>1096</ele>
        <time>2010-01-01T04:17:38Z</time>
      </trkpt>
      <trkpt lat="42.31689" lon="2.17394">
        <ele>1095</ele>
        <time>2010-01-01T04:17:39Z</time>
      </trkpt>
      <trkpt lat="42.31689" lon="2.17391">
        <ele>1095</ele>
        <time>2010-01-01T04:17:40Z</time>
      </trkpt>
      <trkpt lat="42.3169" lon="2.17388">
        <ele>1095</ele>
        <time>2010-01-01T04:17:41Z</time>
      </trkpt>
      <trkpt lat="42.3169" lon="2.17385">
        <ele>1094</ele>
        <time>2010-01-01T04:17:42Z</time>
      </trkpt>
      <trkpt lat="42.31691" lon="2.17383">
        <ele>1094</ele>
        <time>2010-01-01T04:17:43Z</time>
      </trkpt>
      <trkpt lat="42.31692" lon="2.1738">
        <ele>1094</ele>
        <time>2010-01-01T04:17:44Z</time>
      </trkpt>
      <trkpt lat="42.31693" lon="2.17377">
        <ele>1093</ele>
        <time>2010-01-01T04:17:45Z</time>
      </trkpt>
      <trkpt lat="42.31694" lon="2.17375">
        <ele>1093</ele>
        <time>2010-01-01T04:17:46Z</time>
      </trkpt>
      <trkpt lat="42.31695" lon="2.17373">
        <ele>1093</ele>
        <time>2010-01-01T04:17:46Z</time>
      </trkpt>
      <trkpt lat="42.31699" lon="2.17368">
        <ele>1092</ele>
        <time>2010-01-01T04:17:48Z</time>
      </trkpt>
      <trkpt lat="42.31701" lon="2.17367">
        <ele>1091</ele>
        <time>2010-01-01T04:17:49Z</time>
      </trkpt>
      <trkpt lat="42.31703" lon="2.17365">
        <ele>1091</ele>
        <time>2010-01-01T04:17:50Z</time>
      </trkpt>
      <trkpt lat="42.31705" lon="2.17362">
        <ele>1090</ele>
        <time>2010-01-01T04:17:51Z</time>
      </trkpt>
      <trkpt lat="42.31706" lon="2.1736">
        <ele>1090</ele>
        <time>2010-01-01T04:17:52Z</time>
      </trkpt>
      <trkpt lat="42.31708" lon="2.17358">
        <ele>1089</ele>
        <time>2010-01-01T04:17:53Z</time>
      </trkpt>
      <trkpt lat="42.31708" lon="2.17355">
        <ele>1088</ele>
        <time>2010-01-01T04:17:54Z</time>
      </trkpt>
      <trkpt lat="42.31709" lon="2.17353">
        <ele>1088</ele>
        <time>2010-01-01T04:17:55Z</time>
      </trkpt>
      <trkpt lat="42.31709" lon="2.1735">
        <ele>1087</ele>
        <time>2010-01-01T04:17:55Z</time>
      </trkpt>
      <trkpt lat="42.3171" lon="2.17344">
        <ele>1086</ele>
        <time>2010-01-01T04:17:57Z</time>
      </trkpt>
      <trkpt lat="42.3171" lon="2.17341">
        <ele>1085</ele>
        <time>2010-01-01T04:17:58Z</time>
      </trkpt>
      <trkpt lat="42.31711" lon="2.17339">
        <ele>1085</ele>
        <time>2010-01-01T04:17:59Z</time>
      </trkpt>
      <trkpt lat="42.31712" lon="2.17337">
        <ele>1084</ele>
        <time>2010-01-01T04:18:00Z</time>
      </trkpt>
      <trkpt lat="42.31713" lon="2.17335">
        <ele>1084</ele>
        <time>2010-01-01T04:18:00Z</time>
      </trkpt>
      <trkpt lat="42.31714" lon="2.17333">
        <ele>1083</ele>
        <time>2010-01-01T04:18:01Z</time>
      </trkpt>
      <trkpt lat="42.31716" lon="2.17331">
        <ele>1082</ele>
        <time>2010-01-01T04:18:02Z</time>
      </trkpt>
      <trkpt lat="42.31718" lon="2.17329">
        <ele>1081</ele>
        <time>2010-01-01T04:18:03Z</time>
      </trkpt>
      <trkpt lat="42.31721" lon="2.17327">
        <ele>1079</ele>
        <time>2010-01-01T04:18:04Z</time>
      </trkpt>
      <trkpt lat="42.31723" lon="2.17325">
        <ele>1078</ele>
        <time>2010-01-01T04:18:05Z</time>
      </trkpt>
      <trkpt lat="42.31725" lon="2.17323">
        <ele>1078</ele>
        <time>2010-01-01T04:18:06Z</time>
      </trkpt>
      <trkpt lat="42.31726" lon="2.17321">
        <ele>1077</ele>
        <time>2010-01-01T04:18:07Z</time>
      </trkpt>
      <trkpt lat="42.31727" lon="2.17319">
        <ele>1077</ele>
        <time>2010-01-01T04:18:08Z</time>
      </trkpt>
      <trkpt lat="42.31728" lon="2.17313">
        <ele>1075</ele>
        <time>2010-01-01T04:18:10Z</time>
      </trkpt>
      <trkpt lat="42.31729" lon="2.17309">
        <ele>1074</ele>
        <time>2010-01-01T04:18:11Z</time>
      </trkpt>
      <trkpt lat="42.31729" lon="2.17303">
        <ele>1073</ele>
        <time>2010-01-01T04:18:13Z</time>
      </trkpt>
      <trkpt lat="42.31731" lon="2.173">
        <ele>1072</ele>
        <time>2010-01-01T04:18:14Z</time>
      </trkpt>
      <trkpt lat="42.31732" lon="2.17298">
        <ele>1072</ele>
        <time>2010-01-01T04:18:15Z</time>
      </trkpt>
      <trkpt lat="42.31734" lon="2.17296">
        <ele>1071</ele>
        <time>2010-01-01T04:18:15Z</time>
      </trkpt>
      <trkpt lat="42.31735" lon="2.17294">
        <ele>1071</ele>
        <time>2010-01-01T04:18:16Z</time>
      </trkpt>
      <trkpt lat="42.31736" lon="2.17292">
        <ele>1070</ele>
        <time>2010-01-01T04:18:17Z</time>
      </trkpt>
      <trkpt lat="42.31736" lon="2.17289">
        <ele>1070</ele>
        <time>2010-01-01T04:18:18Z</time>
      </trkpt>
      <trkpt lat="42.31735" lon="2.17286">
        <ele>1069</ele>
        <time>2010-01-01T04:18:19Z</time>
      </trkpt>
      <trkpt lat="42.31735" lon="2.17282">
        <ele>1069</ele>
        <time>2010-01-01T04:18:20Z</time>
      </trkpt>
      <trkpt lat="42.31734" lon="2.17279">
        <ele>1068</ele>
        <time>2010-01-01T04:18:21Z</time>
      </trkpt>
      <trkpt lat="42.31733" lon="2.17276">
        <ele>1068</ele>
        <time>2010-01-01T04:18:22Z</time>
      </trkpt>
      <trkpt lat="42.31733" lon="2.17273">
        <ele>1068</ele>
        <time>2010-01-01T04:18:23Z</time>
      </trkpt>
      <trkpt lat="42.31732" lon="2.17269">
        <ele>1067</ele>
        <time>2010-01-01T04:18:24Z</time>
      </trkpt>
      <trkpt lat="42.31732" lon="2.17265">
        <ele>1067</ele>
        <time>2010-01-01T04:18:25Z</time>
      </trkpt>
      <trkpt lat="42.31732" lon="2.17262">
        <ele>1066</ele>
        <time>2010-01-01T04:18:26Z</time>
      </trkpt>
      <trkpt lat="42.31731" lon="2.17258">
        <ele>1066</ele>
        <time>2010-01-01T04:18:27Z</time>
      </trkpt>
      <trkpt lat="42.3173" lon="2.17254">
        <ele>1066</ele>
        <time>2010-01-01T04:18:28Z</time>
      </trkpt>
      <trkpt lat="42.3173" lon="2.1725">
        <ele>1065</ele>
        <time>2010-01-01T04:18:29Z</time>
      </trkpt>
      <trkpt lat="42.3173" lon="2.17247">
        <ele>1065</ele>
        <time>2010-01-01T04:18:31Z</time>
      </trkpt>
      <trkpt lat="42.3173" lon="2.17243">
        <ele>1064</ele>
        <time>2010-01-01T04:18:32Z</time>
      </trkpt>
      <trkpt lat="42.31729" lon="2.17239">
        <ele>1064</ele>
        <time>2010-01-01T04:18:33Z</time>
      </trkpt>
      <trkpt lat="42.31729" lon="2.17235">
        <ele>1064</ele>
        <time>2010-01-01T04:18:34Z</time>
      </trkpt>
      <trkpt lat="42.31729" lon="2.17232">
        <ele>1063</ele>
        <time>2010-01-01T04:18:35Z</time>
      </trkpt>
      <trkpt lat="42.31729" lon="2.17229">
        <ele>1063</ele>
        <time>2010-01-01T04:18:36Z</time>
      </trkpt>
      <trkpt lat="42.31729" lon="2.17226">
        <ele>1063</ele>
        <time>2010-01-01T04:18:37Z</time>
      </trkpt>
      <trkpt lat="42.3173" lon="2.17223">
        <ele>1062</ele>
        <time>2010-01-01T04:18:38Z</time>
      </trkpt>
      <trkpt lat="42.31731" lon="2.1722">
        <ele>1062</ele>
        <time>2010-01-01T04:18:39Z</time>
      </trkpt>
      <trkpt lat="42.31731" lon="2.17217">
        <ele>1061</ele>
        <time>2010-01-01T04:18:40Z</time>
      </trkpt>
      <trkpt lat="42.31732" lon="2.17215">
        <ele>1061</ele>
        <time>2010-01-01T04:18:40Z</time>
      </trkpt>
      <trkpt lat="42.31732" lon="2.17212">
        <ele>1060</ele>
        <time>2010-01-01T04:18:41Z</time>
      </trkpt>
      <trkpt lat="42.31733" lon="2.17209">
        <ele>1059</ele>
        <time>2010-01-01T04:18:42Z</time>
      </trkpt>
      <trkpt lat="42.31734" lon="2.17207">
        <ele>1059</ele>
        <time>2010-01-01T04:18:43Z</time>
      </trkpt>
      <trkpt lat="42.31734" lon="2.17204">
        <ele>1058</ele>
        <time>2010-01-01T04:18:44Z</time>
      </trkpt>
      <trkpt lat="42.31734" lon="2.17201">
        <ele>1058</ele>
        <time>2010-01-01T04:18:44Z</time>
      </trkpt>
      <trkpt lat="42.31735" lon="2.17197">
        <ele>1057</ele>
        <time>2010-01-01T04:18:46Z</time>
      </trkpt>
      <trkpt lat="42.31736" lon="2.17194">
        <ele>1056</ele>
        <time>2010-01-01T04:18:47Z</time>
      </trkpt>
      <trkpt lat="42.31737" lon="2.17191">
        <ele>1056</ele>
        <time>2010-01-01T04:18:48Z</time>
      </trkpt>
      <trkpt lat="42.31737" lon="2.17189">
        <ele>1055</ele>
        <time>2010-01-01T04:18:48Z</time>
      </trkpt>
      <trkpt lat="42.31738" lon="2.17186">
        <ele>1054</ele>
        <time>2010-01-01T04:18:49Z</time>
      </trkpt>
      <trkpt lat="42.31739" lon="2.17183">
        <ele>1053</ele>
        <time>2010-01-01T04:18:50Z</time>
      </trkpt>
      <trkpt lat="42.31739" lon="2.1718">
        <ele>1052</ele>
        <time>2010-01-01T04:18:51Z</time>
      </trkpt>
      <trkpt lat="42.3174" lon="2.17177">
        <ele>1051</ele>
        <time>2010-01-01T04:18:52Z</time>
      </trkpt>
      <trkpt lat="42.3174" lon="2.17174">
        <ele>1051</ele>
        <time>2010-01-01T04:18:53Z</time>
      </trkpt>
      <trkpt lat="42.3174" lon="2.17171">
        <ele>1050</ele>
        <time>2010-01-01T04:18:54Z</time>
      </trkpt>
      <trkpt lat="42.31741" lon="2.17168">
        <ele>1049</ele>
        <time>2010-01-01T04:18:55Z</time>
      </trkpt>
      <trkpt lat="42.31741" lon="2.17165">
        <ele>1048</ele>
        <time>2010-01-01T04:18:56Z</time>
      </trkpt>
      <trkpt lat="42.31741" lon="2.17162">
        <ele>1047</ele>
        <time>2010-01-01T04:18:57Z</time>
      </trkpt>
      <trkpt lat="42.31741" lon="2.1716">
        <ele>1046</ele>
        <time>2010-01-01T04:18:57Z</time>
      </trkpt>
      <trkpt lat="42.31741" lon="2.17155">
        <ele>1045</ele>
        <time>2010-01-01T04:18:59Z</time>
      </trkpt>
      <trkpt lat="42.3174" lon="2.17152">
        <ele>1044</ele>
        <time>2010-01-01T04:19:00Z</time>
      </trkpt>
      <trkpt lat="42.31738" lon="2.1715">
        <ele>1044</ele>
        <time>2010-01-01T04:19:01Z</time>
      </trkpt>
      <trkpt lat="42.31735" lon="2.17148">
        <ele>1044</ele>
        <time>2010-01-01T04:19:02Z</time>
      </trkpt>
      <trkpt lat="42.31733" lon="2.17148">
        <ele>1044</ele>
        <time>2010-01-01T04:19:03Z</time>
      </trkpt>
      <trkpt lat="42.31731" lon="2.17146">
        <ele>1044</ele>
        <time>2010-01-01T04:19:04Z</time>
      </trkpt>
      <trkpt lat="42.3173" lon="2.17141">
        <ele>1043</ele>
        <time>2010-01-01T04:19:05Z</time>
      </trkpt>
      <trkpt lat="42.31729" lon="2.17139">
        <ele>1042</ele>
        <time>2010-01-01T04:19:06Z</time>
      </trkpt>
      <trkpt lat="42.31728" lon="2.17136">
        <ele>1041</ele>
        <time>2010-01-01T04:19:07Z</time>
      </trkpt>
      <trkpt lat="42.31728" lon="2.17133">
        <ele>1040</ele>
        <time>2010-01-01T04:19:08Z</time>
      </trkpt>
      <trkpt lat="42.31727" lon="2.1713">
        <ele>1039</ele>
        <time>2010-01-01T04:19:09Z</time>
      </trkpt>
      <trkpt lat="42.31725" lon="2.17126">
        <ele>1038</ele>
        <time>2010-01-01T04:19:10Z</time>
      </trkpt>
      <trkpt lat="42.31723" lon="2.17124">
        <ele>1037</ele>
        <time>2010-01-01T04:19:11Z</time>
      </trkpt>
      <trkpt lat="42.31722" lon="2.17121">
        <ele>1036</ele>
        <time>2010-01-01T04:19:12Z</time>
      </trkpt>
      <trkpt lat="42.31721" lon="2.17118">
        <ele>1035</ele>
        <time>2010-01-01T04:19:13Z</time>
      </trkpt>
      <trkpt lat="42.31719" lon="2.17116">
        <ele>1034</ele>
        <time>2010-01-01T04:19:14Z</time>
      </trkpt>
      <trkpt lat="42.31717" lon="2.17114">
        <ele>1034</ele>
        <time>2010-01-01T04:19:15Z</time>
      </trkpt>
      <trkpt lat="42.31715" lon="2.17112">
        <ele>1033</ele>
        <time>2010-01-01T04:19:16Z</time>
      </trkpt>
      <trkpt lat="42.31714" lon="2.17109">
        <ele>1033</ele>
        <time>2010-01-01T04:19:17Z</time>
      </trkpt>
      <trkpt lat="42.31712" lon="2.17107">
        <ele>1032</ele>
        <time>2010-01-01T04:19:18Z</time>
      </trkpt>
      <trkpt lat="42.3171" lon="2.17104">
        <ele>1031</ele>
        <time>2010-01-01T04:19:19Z</time>
      </trkpt>
      <trkpt lat="42.31708" lon="2.17102">
        <ele>1031</ele>
        <time>2010-01-01T04:19:20Z</time>
      </trkpt>
      <trkpt lat="42.31706" lon="2.17099">
        <ele>1030</ele>
        <time>2010-01-01T04:19:21Z</time>
      </trkpt>
      <trkpt lat="42.31706" lon="2.17096">
        <ele>1029</ele>
        <time>2010-01-01T04:19:22Z</time>
      </trkpt>
      <trkpt lat="42.31703" lon="2.17094">
        <ele>1028</ele>
        <time>2010-01-01T04:19:23Z</time>
      </trkpt>
      <trkpt lat="42.31702" lon="2.17091">
        <ele>1028</ele>
        <time>2010-01-01T04:19:24Z</time>
      </trkpt>
      <trkpt lat="42.317" lon="2.17088">
        <ele>1027</ele>
        <time>2010-01-01T04:19:25Z</time>
      </trkpt>
      <trkpt lat="42.31698" lon="2.17085">
        <ele>1026</ele>
        <time>2010-01-01T04:19:27Z</time>
      </trkpt>
      <trkpt lat="42.31696" lon="2.17082">
        <ele>1026</ele>
        <time>2010-01-01T04:19:28Z</time>
      </trkpt>
      <trkpt lat="42.31695" lon="2.17079">
        <ele>1025</ele>
        <time>2010-01-01T04:19:29Z</time>
      </trkpt>
      <trkpt lat="42.31693" lon="2.17076">
        <ele>1025</ele>
        <time>2010-01-01T04:19:30Z</time>
      </trkpt>
      <trkpt lat="42.31691" lon="2.17073">
        <ele>1025</ele>
        <time>2010-01-01T04:19:31Z</time>
      </trkpt>
      <trkpt lat="42.31689" lon="2.1707">
        <ele>1025</ele>
        <time>2010-01-01T04:19:32Z</time>
      </trkpt>
      <trkpt lat="42.31687" lon="2.17067">
        <ele>1024</ele>
        <time>2010-01-01T04:19:33Z</time>
      </trkpt>
      <trkpt lat="42.31685" lon="2.17064">
        <ele>1024</ele>
        <time>2010-01-01T04:19:35Z</time>
      </trkpt>
      <trkpt lat="42.31684" lon="2.17061">
        <ele>1023</ele>
        <time>2010-01-01T04:19:36Z</time>
      </trkpt>
      <trkpt lat="42.31683" lon="2.17058">
        <ele>1023</ele>
        <time>2010-01-01T04:19:37Z</time>
      </trkpt>
      <trkpt lat="42.31681" lon="2.17055">
        <ele>1022</ele>
        <time>2010-01-01T04:19:38Z</time>
      </trkpt>
      <trkpt lat="42.31679" lon="2.17053">
        <ele>1022</ele>
        <time>2010-01-01T04:19:39Z</time>
      </trkpt>
      <trkpt lat="42.31677" lon="2.1705">
        <ele>1022</ele>
        <time>2010-01-01T04:19:40Z</time>
      </trkpt>
      <trkpt lat="42.31675" lon="2.17048">
        <ele>1021</ele>
        <time>2010-01-01T04:19:41Z</time>
      </trkpt>
      <trkpt lat="42.31672" lon="2.17046">
        <ele>1021</ele>
        <time>2010-01-01T04:19:42Z</time>
      </trkpt>
      <trkpt lat="42.3167" lon="2.17043">
        <ele>1021</ele>
        <time>2010-01-01T04:19:43Z</time>
      </trkpt>
      <trkpt lat="42.31668" lon="2.17041">
        <ele>1021</ele>
        <time>2010-01-01T04:19:45Z</time>
      </trkpt>
      <trkpt lat="42.31666" lon="2.17039">
        <ele>1020</ele>
        <time>2010-01-01T04:19:45Z</time>
      </trkpt>
      <trkpt lat="42.31664" lon="2.17037">
        <ele>1019</ele>
        <time>2010-01-01T04:19:46Z</time>
      </trkpt>
      <trkpt lat="42.31664" lon="2.17034">
        <ele>1019</ele>
        <time>2010-01-01T04:19:47Z</time>
      </trkpt>
      <trkpt lat="42.3166" lon="2.17033">
        <ele>1018</ele>
        <time>2010-01-01T04:19:49Z</time>
      </trkpt>
      <trkpt lat="42.31657" lon="2.17032">
        <ele>1018</ele>
        <time>2010-01-01T04:19:50Z</time>
      </trkpt>
      <trkpt lat="42.31655" lon="2.17031">
        <ele>1017</ele>
        <time>2010-01-01T04:19:51Z</time>
      </trkpt>
      <trkpt lat="42.31652" lon="2.1703">
        <ele>1017</ele>
        <time>2010-01-01T04:19:52Z</time>
      </trkpt>
      <trkpt lat="42.3165" lon="2.17029">
        <ele>1016</ele>
        <time>2010-01-01T04:19:53Z</time>
      </trkpt>
      <trkpt lat="42.31648" lon="2.17028">
        <ele>1015</ele>
        <time>2010-01-01T04:19:54Z</time>
      </trkpt>
      <trkpt lat="42.31645" lon="2.17026">
        <ele>1015</ele>
        <time>2010-01-01T04:19:55Z</time>
      </trkpt>
      <trkpt lat="42.31642" lon="2.17025">
        <ele>1014</ele>
        <time>2010-01-01T04:19:57Z</time>
      </trkpt>
      <trkpt lat="42.3164" lon="2.17023">
        <ele>1014</ele>
        <time>2010-01-01T04:19:58Z</time>
      </trkpt>
      <trkpt lat="42.31637" lon="2.17022">
        <ele>1013</ele>
        <time>2010-01-01T04:19:59Z</time>
      </trkpt>
      <trkpt lat="42.31635" lon="2.1702">
        <ele>1012</ele>
        <time>2010-01-01T04:20:00Z</time>
      </trkpt>
      <trkpt lat="42.31632" lon="2.17019">
        <ele>1012</ele>
        <time>2010-01-01T04:20:01Z</time>
      </trkpt>
      <trkpt lat="42.31629" lon="2.17018">
        <ele>1011</ele>
        <time>2010-01-01T04:20:02Z</time>
      </trkpt>
      <trkpt lat="42.31627" lon="2.17018">
        <ele>1011</ele>
        <time>2010-01-01T04:20:03Z</time>
      </trkpt>
      <trkpt lat="42.31624" lon="2.17019">
        <ele>1011</ele>
        <time>2010-01-01T04:20:04Z</time>
      </trkpt>
      <trkpt lat="42.31622" lon="2.1702">
        <ele>1011</ele>
        <time>2010-01-01T04:20:05Z</time>
      </trkpt>
      <trkpt lat="42.3162" lon="2.17022">
        <ele>1010</ele>
        <time>2010-01-01T04:20:06Z</time>
      </trkpt>
      <trkpt lat="42.31618" lon="2.17024">
        <ele>1010</ele>
        <time>2010-01-01T04:20:07Z</time>
      </trkpt>
      <trkpt lat="42.31616" lon="2.17027">
        <ele>1010</ele>
        <time>2010-01-01T04:20:08Z</time>
      </trkpt>
      <trkpt lat="42.31614" lon="2.17029">
        <ele>1010</ele>
        <time>2010-01-01T04:20:09Z</time>
      </trkpt>
      <trkpt lat="42.31611" lon="2.1703">
        <ele>1010</ele>
        <time>2010-01-01T04:20:10Z</time>
      </trkpt>
      <trkpt lat="42.31609" lon="2.17031">
        <ele>1010</ele>
        <time>2010-01-01T04:20:11Z</time>
      </trkpt>
      <trkpt lat="42.31607" lon="2.17033">
        <ele>1010</ele>
        <time>2010-01-01T04:20:12Z</time>
      </trkpt>
      <trkpt lat="42.31604" lon="2.17034">
        <ele>1009</ele>
        <time>2010-01-01T04:20:13Z</time>
      </trkpt>
      <trkpt lat="42.31602" lon="2.17035">
        <ele>1009</ele>
        <time>2010-01-01T04:20:14Z</time>
      </trkpt>
      <trkpt lat="42.31599" lon="2.17036">
        <ele>1009</ele>
        <time>2010-01-01T04:20:16Z</time>
      </trkpt>
      <trkpt lat="42.31596" lon="2.17037">
        <ele>1008</ele>
        <time>2010-01-01T04:20:17Z</time>
      </trkpt>
      <trkpt lat="42.31593" lon="2.17037">
        <ele>1008</ele>
        <time>2010-01-01T04:20:18Z</time>
      </trkpt>
      <trkpt lat="42.3159" lon="2.17038">
        <ele>1008</ele>
        <time>2010-01-01T04:20:19Z</time>
      </trkpt>
      <trkpt lat="42.31587" lon="2.17038">
        <ele>1007</ele>
        <time>2010-01-01T04:20:20Z</time>
      </trkpt>
      <trkpt lat="42.31584" lon="2.17039">
        <ele>1007</ele>
        <time>2010-01-01T04:20:21Z</time>
      </trkpt>
      <trkpt lat="42.31581" lon="2.17039">
        <ele>1006</ele>
        <time>2010-01-01T04:20:23Z</time>
      </trkpt>
      <trkpt lat="42.31579" lon="2.17039">
        <ele>1006</ele>
        <time>2010-01-01T04:20:24Z</time>
      </trkpt>
      <trkpt lat="42.31576" lon="2.1704">
        <ele>1006</ele>
        <time>2010-01-01T04:20:25Z</time>
      </trkpt>
      <trkpt lat="42.31574" lon="2.1704">
        <ele>1006</ele>
        <time>2010-01-01T04:20:26Z</time>
      </trkpt>
      <trkpt lat="42.31571" lon="2.17041">
        <ele>1005</ele>
        <time>2010-01-01T04:20:27Z</time>
      </trkpt>
      <trkpt lat="42.31569" lon="2.17041">
        <ele>1005</ele>
        <time>2010-01-01T04:20:28Z</time>
      </trkpt>
      <trkpt lat="42.31566" lon="2.17042">
        <ele>1005</ele>
        <time>2010-01-01T04:20:29Z</time>
      </trkpt>
      <trkpt lat="42.31563" lon="2.17043">
        <ele>1005</ele>
        <time>2010-01-01T04:20:30Z</time>
      </trkpt>
      <trkpt lat="42.3156" lon="2.17044">
        <ele>1005</ele>
        <time>2010-01-01T04:20:31Z</time>
      </trkpt>
      <trkpt lat="42.31557" lon="2.17045">
        <ele>1005</ele>
        <time>2010-01-01T04:20:33Z</time>
      </trkpt>
      <trkpt lat="42.31555" lon="2.17046">
        <ele>1005</ele>
        <time>2010-01-01T04:20:34Z</time>
      </trkpt>
      <trkpt lat="42.31552" lon="2.17046">
        <ele>1004</ele>
        <time>2010-01-01T04:20:35Z</time>
      </trkpt>
      <trkpt lat="42.3155" lon="2.17047">
        <ele>1004</ele>
        <time>2010-01-01T04:20:36Z</time>
      </trkpt>
      <trkpt lat="42.31548" lon="2.17049">
        <ele>1004</ele>
        <time>2010-01-01T04:20:37Z</time>
      </trkpt>
      <trkpt lat="42.31545" lon="2.1705">
        <ele>1004</ele>
        <time>2010-01-01T04:20:38Z</time>
      </trkpt>
      <trkpt lat="42.31543" lon="2.17052">
        <ele>1003</ele>
        <time>2010-01-01T04:20:39Z</time>
      </trkpt>
      <trkpt lat="42.31541" lon="2.17053">
        <ele>1003</ele>
        <time>2010-01-01T04:20:40Z</time>
      </trkpt>
      <trkpt lat="42.31538" lon="2.17055">
        <ele>1003</ele>
        <time>2010-01-01T04:20:41Z</time>
      </trkpt>
      <trkpt lat="42.31536" lon="2.17056">
        <ele>1003</ele>
        <time>2010-01-01T04:20:42Z</time>
      </trkpt>
      <trkpt lat="42.31533" lon="2.17058">
        <ele>1003</ele>
        <time>2010-01-01T04:20:43Z</time>
      </trkpt>
      <trkpt lat="42.3153" lon="2.17059">
        <ele>1003</ele>
        <time>2010-01-01T04:20:44Z</time>
      </trkpt>
      <trkpt lat="42.31527" lon="2.17061">
        <ele>1002</ele>
        <time>2010-01-01T04:20:46Z</time>
      </trkpt>
      <trkpt lat="42.31525" lon="2.17063">
        <ele>1002</ele>
        <time>2010-01-01T04:20:47Z</time>
      </trkpt>
      <trkpt lat="42.3152" lon="2.17067">
        <ele>1001</ele>
        <time>2010-01-01T04:20:49Z</time>
      </trkpt>
      <trkpt lat="42.31517" lon="2.17069">
        <ele>1001</ele>
        <time>2010-01-01T04:20:50Z</time>
      </trkpt>
      <trkpt lat="42.31515" lon="2.17071">
        <ele>1000</ele>
        <time>2010-01-01T04:20:51Z</time>
      </trkpt>
      <trkpt lat="42.31512" lon="2.17072">
        <ele>1000</ele>
        <time>2010-01-01T04:20:52Z</time>
      </trkpt>
      <trkpt lat="42.31509" lon="2.17074">
        <ele>999</ele>
        <time>2010-01-01T04:20:54Z</time>
      </trkpt>
      <trkpt lat="42.31506" lon="2.17076">
        <ele>999</ele>
        <time>2010-01-01T04:20:55Z</time>
      </trkpt>
      <trkpt lat="42.31504" lon="2.17078">
        <ele>999</ele>
        <time>2010-01-01T04:20:56Z</time>
      </trkpt>
      <trkpt lat="42.31501" lon="2.17079">
        <ele>998</ele>
        <time>2010-01-01T04:20:57Z</time>
      </trkpt>
      <trkpt lat="42.31498" lon="2.17081">
        <ele>998</ele>
        <time>2010-01-01T04:20:59Z</time>
      </trkpt>
      <trkpt lat="42.31496" lon="2.17083">
        <ele>997</ele>
        <time>2010-01-01T04:21:00Z</time>
      </trkpt>
      <trkpt lat="42.31493" lon="2.17085">
        <ele>997</ele>
        <time>2010-01-01T04:21:01Z</time>
      </trkpt>
      <trkpt lat="42.3149" lon="2.17086">
        <ele>996</ele>
        <time>2010-01-01T04:21:02Z</time>
      </trkpt>
      <trkpt lat="42.31487" lon="2.17088">
        <ele>996</ele>
        <time>2010-01-01T04:21:03Z</time>
      </trkpt>
      <trkpt lat="42.31485" lon="2.1709">
        <ele>995</ele>
        <time>2010-01-01T04:21:05Z</time>
      </trkpt>
      <trkpt lat="42.31482" lon="2.17092">
        <ele>995</ele>
        <time>2010-01-01T04:21:06Z</time>
      </trkpt>
      <trkpt lat="42.3148" lon="2.17094">
        <ele>994</ele>
        <time>2010-01-01T04:21:07Z</time>
      </trkpt>
      <trkpt lat="42.31477" lon="2.17096">
        <ele>993</ele>
        <time>2010-01-01T04:21:08Z</time>
      </trkpt>
      <trkpt lat="42.31474" lon="2.17098">
        <ele>993</ele>
        <time>2010-01-01T04:21:09Z</time>
      </trkpt>
      <trkpt lat="42.31471" lon="2.171">
        <ele>992</ele>
        <time>2010-01-01T04:21:11Z</time>
      </trkpt>
      <trkpt lat="42.31469" lon="2.17103">
        <ele>992</ele>
        <time>2010-01-01T04:21:12Z</time>
      </trkpt>
      <trkpt lat="42.31467" lon="2.17105">
        <ele>991</ele>
        <time>2010-01-01T04:21:13Z</time>
      </trkpt>
      <trkpt lat="42.31464" lon="2.17108">
        <ele>991</ele>
        <time>2010-01-01T04:21:14Z</time>
      </trkpt>
      <trkpt lat="42.31462" lon="2.1711">
        <ele>991</ele>
        <time>2010-01-01T04:21:16Z</time>
      </trkpt>
      <trkpt lat="42.31461" lon="2.17113">
        <ele>991</ele>
        <time>2010-01-01T04:21:17Z</time>
      </trkpt>
      <trkpt lat="42.31459" lon="2.17115">
        <ele>991</ele>
        <time>2010-01-01T04:21:17Z</time>
      </trkpt>
      <trkpt lat="42.31457" lon="2.17117">
        <ele>991</ele>
        <time>2010-01-01T04:21:18Z</time>
      </trkpt>
      <trkpt lat="42.31455" lon="2.17119">
        <ele>991</ele>
        <time>2010-01-01T04:21:19Z</time>
      </trkpt>
      <trkpt lat="42.31453" lon="2.17122">
        <ele>991</ele>
        <time>2010-01-01T04:21:21Z</time>
      </trkpt>
      <trkpt lat="42.31451" lon="2.17124">
        <ele>991</ele>
        <time>2010-01-01T04:21:22Z</time>
      </trkpt>
      <trkpt lat="42.31448" lon="2.17127">
        <ele>991</ele>
        <time>2010-01-01T04:21:23Z</time>
      </trkpt>
      <trkpt lat="42.31446" lon="2.17129">
        <ele>991</ele>
        <time>2010-01-01T04:21:24Z</time>
      </trkpt>
      <trkpt lat="42.31444" lon="2.17132">
        <ele>991</ele>
        <time>2010-01-01T04:21:25Z</time>
      </trkpt>
      <trkpt lat="42.31442" lon="2.17134">
        <ele>991</ele>
        <time>2010-01-01T04:21:26Z</time>
      </trkpt>
      <trkpt lat="42.3144" lon="2.17136">
        <ele>991</ele>
        <time>2010-01-01T04:21:27Z</time>
      </trkpt>
      <trkpt lat="42.31435" lon="2.17138">
        <ele>991</ele>
        <time>2010-01-01T04:21:29Z</time>
      </trkpt>
      <trkpt lat="42.31433" lon="2.17139">
        <ele>991</ele>
        <time>2010-01-01T04:21:30Z</time>
      </trkpt>
      <trkpt lat="42.31431" lon="2.1714">
        <ele>991</ele>
        <time>2010-01-01T04:21:31Z</time>
      </trkpt>
      <trkpt lat="42.31428" lon="2.1714">
        <ele>991</ele>
        <time>2010-01-01T04:21:32Z</time>
      </trkpt>
      <trkpt lat="42.31426" lon="2.1714">
        <ele>990</ele>
        <time>2010-01-01T04:21:33Z</time>
      </trkpt>
      <trkpt lat="42.31423" lon="2.17139">
        <ele>990</ele>
        <time>2010-01-01T04:21:34Z</time>
      </trkpt>
      <trkpt lat="42.3142" lon="2.17139">
        <ele>989</ele>
        <time>2010-01-01T04:21:35Z</time>
      </trkpt>
      <trkpt lat="42.31417" lon="2.17137">
        <ele>988</ele>
        <time>2010-01-01T04:21:37Z</time>
      </trkpt>
      <trkpt lat="42.31414" lon="2.17136">
        <ele>987</ele>
        <time>2010-01-01T04:21:38Z</time>
      </trkpt>
      <trkpt lat="42.31412" lon="2.17134">
        <ele>987</ele>
        <time>2010-01-01T04:21:39Z</time>
      </trkpt>
      <trkpt lat="42.31409" lon="2.17133">
        <ele>986</ele>
        <time>2010-01-01T04:21:40Z</time>
      </trkpt>
      <trkpt lat="42.31406" lon="2.17132">
        <ele>985</ele>
        <time>2010-01-01T04:21:41Z</time>
      </trkpt>
      <trkpt lat="42.31403" lon="2.1713">
        <ele>985</ele>
        <time>2010-01-01T04:21:43Z</time>
      </trkpt>
      <trkpt lat="42.314" lon="2.17129">
        <ele>984</ele>
        <time>2010-01-01T04:21:44Z</time>
      </trkpt>
      <trkpt lat="42.31397" lon="2.17129">
        <ele>983</ele>
        <time>2010-01-01T04:21:45Z</time>
      </trkpt>
      <trkpt lat="42.31393" lon="2.17128">
        <ele>983</ele>
        <time>2010-01-01T04:21:47Z</time>
      </trkpt>
      <trkpt lat="42.31389" lon="2.17128">
        <ele>982</ele>
        <time>2010-01-01T04:21:48Z</time>
      </trkpt>
      <trkpt lat="42.31385" lon="2.17128">
        <ele>982</ele>
        <time>2010-01-01T04:21:50Z</time>
      </trkpt>
      <trkpt lat="42.31382" lon="2.17128">
        <ele>981</ele>
        <time>2010-01-01T04:21:51Z</time>
      </trkpt>
      <trkpt lat="42.31379" lon="2.17127">
        <ele>981</ele>
        <time>2010-01-01T04:21:53Z</time>
      </trkpt>
      <trkpt lat="42.31375" lon="2.17127">
        <ele>980</ele>
        <time>2010-01-01T04:21:54Z</time>
      </trkpt>
      <trkpt lat="42.31372" lon="2.17126">
        <ele>980</ele>
        <time>2010-01-01T04:21:55Z</time>
      </trkpt>
      <trkpt lat="42.31369" lon="2.17126">
        <ele>980</ele>
        <time>2010-01-01T04:21:57Z</time>
      </trkpt>
      <trkpt lat="42.31365" lon="2.17126">
        <ele>979</ele>
        <time>2010-01-01T04:21:58Z</time>
      </trkpt>
      <trkpt lat="42.31362" lon="2.17125">
        <ele>979</ele>
        <time>2010-01-01T04:21:59Z</time>
      </trkpt>
      <trkpt lat="42.31359" lon="2.17125">
        <ele>978</ele>
        <time>2010-01-01T04:22:01Z</time>
      </trkpt>
      <trkpt lat="42.31355" lon="2.17124">
        <ele>977</ele>
        <time>2010-01-01T04:22:02Z</time>
      </trkpt>
      <trkpt lat="42.31352" lon="2.17123">
        <ele>977</ele>
        <time>2010-01-01T04:22:03Z</time>
      </trkpt>
      <trkpt lat="42.31348" lon="2.17122">
        <ele>976</ele>
        <time>2010-01-01T04:22:05Z</time>
      </trkpt>
      <trkpt lat="42.31345" lon="2.17122">
        <ele>975</ele>
        <time>2010-01-01T04:22:06Z</time>
      </trkpt>
      <trkpt lat="42.31342" lon="2.17121">
        <ele>975</ele>
        <time>2010-01-01T04:22:07Z</time>
      </trkpt>
      <trkpt lat="42.31339" lon="2.17121">
        <ele>975</ele>
        <time>2010-01-01T04:22:09Z</time>
      </trkpt>
      <trkpt lat="42.31336" lon="2.17121">
        <ele>974</ele>
        <time>2010-01-01T04:22:10Z</time>
      </trkpt>
      <trkpt lat="42.31333" lon="2.1712">
        <ele>974</ele>
        <time>2010-01-01T04:22:11Z</time>
      </trkpt>
      <trkpt lat="42.3133" lon="2.17119">
        <ele>973</ele>
        <time>2010-01-01T04:22:12Z</time>
      </trkpt>
      <trkpt lat="42.31327" lon="2.17118">
        <ele>972</ele>
        <time>2010-01-01T04:22:13Z</time>
      </trkpt>
      <trkpt lat="42.31324" lon="2.17118">
        <ele>971</ele>
        <time>2010-01-01T04:22:15Z</time>
      </trkpt>
      <trkpt lat="42.31321" lon="2.17118">
        <ele>970</ele>
        <time>2010-01-01T04:22:16Z</time>
      </trkpt>
      <trkpt lat="42.31318" lon="2.17118">
        <ele>969</ele>
        <time>2010-01-01T04:22:17Z</time>
      </trkpt>
      <trkpt lat="42.31315" lon="2.17116">
        <ele>968</ele>
        <time>2010-01-01T04:22:18Z</time>
      </trkpt>
      <trkpt lat="42.31312" lon="2.17116">
        <ele>967</ele>
        <time>2010-01-01T04:22:20Z</time>
      </trkpt>
      <trkpt lat="42.31302" lon="2.17114">
        <ele>963</ele>
        <time>2010-01-01T04:22:24Z</time>
      </trkpt>
      <trkpt lat="42.31291" lon="2.17115">
        <ele>960</ele>
        <time>2010-01-01T04:22:28Z</time>
      </trkpt>
      <trkpt lat="42.31282" lon="2.17118">
        <ele>958</ele>
        <time>2010-01-01T04:22:32Z</time>
      </trkpt>
      <trkpt lat="42.31274" lon="2.17124">
        <ele>957</ele>
        <time>2010-01-01T04:22:35Z</time>
      </trkpt>
      <trkpt lat="42.31269" lon="2.17129">
        <ele>957</ele>
        <time>2010-01-01T04:22:38Z</time>
      </trkpt>
      <trkpt lat="42.31267" lon="2.17132">
        <ele>956</ele>
        <time>2010-01-01T04:22:39Z</time>
      </trkpt>
      <trkpt lat="42.31264" lon="2.17134">
        <ele>956</ele>
        <time>2010-01-01T04:22:40Z</time>
      </trkpt>
      <trkpt lat="42.31262" lon="2.17137">
        <ele>956</ele>
        <time>2010-01-01T04:22:42Z</time>
      </trkpt>
      <trkpt lat="42.3126" lon="2.1714">
        <ele>956</ele>
        <time>2010-01-01T04:22:43Z</time>
      </trkpt>
      <trkpt lat="42.31258" lon="2.17144">
        <ele>956</ele>
        <time>2010-01-01T04:22:44Z</time>
      </trkpt>
      <trkpt lat="42.31255" lon="2.17147">
        <ele>955</ele>
        <time>2010-01-01T04:22:45Z</time>
      </trkpt>
      <trkpt lat="42.31253" lon="2.17149">
        <ele>955</ele>
        <time>2010-01-01T04:22:46Z</time>
      </trkpt>
      <trkpt lat="42.31247" lon="2.17159">
        <ele>955</ele>
        <time>2010-01-01T04:22:50Z</time>
      </trkpt>
      <trkpt lat="42.3124" lon="2.17169">
        <ele>955</ele>
        <time>2010-01-01T04:22:54Z</time>
      </trkpt>
      <trkpt lat="42.31229" lon="2.17172">
        <ele>954</ele>
        <time>2010-01-01T04:22:59Z</time>
      </trkpt>
      <trkpt lat="42.31222" lon="2.17165">
        <ele>951</ele>
        <time>2010-01-01T04:23:02Z</time>
      </trkpt>
      <trkpt lat="42.31214" lon="2.17158">
        <ele>947</ele>
        <time>2010-01-01T04:23:06Z</time>
      </trkpt>
      <trkpt lat="42.31205" lon="2.17146">
        <ele>943</ele>
        <time>2010-01-01T04:23:11Z</time>
      </trkpt>
      <trkpt lat="42.31197" lon="2.17141">
        <ele>940</ele>
        <time>2010-01-01T04:23:15Z</time>
      </trkpt>
      <trkpt lat="42.31188" lon="2.17141">
        <ele>938</ele>
        <time>2010-01-01T04:23:18Z</time>
      </trkpt>
      <trkpt lat="42.31178" lon="2.17145">
        <ele>938</ele>
        <time>2010-01-01T04:23:22Z</time>
      </trkpt>
      <trkpt lat="42.31169" lon="2.1715">
        <ele>939</ele>
        <time>2010-01-01T04:23:26Z</time>
      </trkpt>
      <trkpt lat="42.3116" lon="2.17154">
        <ele>939</ele>
        <time>2010-01-01T04:23:30Z</time>
      </trkpt>
      <trkpt lat="42.3115" lon="2.17159">
        <ele>940</ele>
        <time>2010-01-01T04:23:34Z</time>
      </trkpt>
      <trkpt lat="42.31141" lon="2.17164">
        <ele>941</ele>
        <time>2010-01-01T04:23:38Z</time>
      </trkpt>
      <trkpt lat="42.3113" lon="2.1717">
        <ele>941</ele>
        <time>2010-01-01T04:23:43Z</time>
      </trkpt>
      <trkpt lat="42.31119" lon="2.17175">
        <ele>941</ele>
        <time>2010-01-01T04:23:48Z</time>
      </trkpt>
      <trkpt lat="42.3111" lon="2.1718">
        <ele>941</ele>
        <time>2010-01-01T04:23:52Z</time>
      </trkpt>
      <trkpt lat="42.31099" lon="2.17182">
        <ele>940</ele>
        <time>2010-01-01T04:23:56Z</time>
      </trkpt>
      <trkpt lat="42.31086" lon="2.17181">
        <ele>938</ele>
        <time>2010-01-01T04:24:01Z</time>
      </trkpt>
      <trkpt lat="42.31076" lon="2.17183">
        <ele>937</ele>
        <time>2010-01-01T04:24:05Z</time>
      </trkpt>
      <trkpt lat="42.31065" lon="2.17181">
        <ele>936</ele>
        <time>2010-01-01T04:24:10Z</time>
      </trkpt>
      <trkpt lat="42.31054" lon="2.17177">
        <ele>935</ele>
        <time>2010-01-01T04:24:14Z</time>
      </trkpt>
      <trkpt lat="42.31044" lon="2.17173">
        <ele>934</ele>
        <time>2010-01-01T04:24:19Z</time>
      </trkpt>
      <trkpt lat="42.31035" lon="2.1717">
        <ele>934</ele>
        <time>2010-01-01T04:24:22Z</time>
      </trkpt>
      <trkpt lat="42.31025" lon="2.17169">
        <ele>933</ele>
        <time>2010-01-01T04:24:26Z</time>
      </trkpt>
      <trkpt lat="42.31016" lon="2.17167">
        <ele>933</ele>
        <time>2010-01-01T04:24:30Z</time>
      </trkpt>
      <trkpt lat="42.31005" lon="2.17163">
        <ele>933</ele>
        <time>2010-01-01T04:24:34Z</time>
      </trkpt>
      <trkpt lat="42.30995" lon="2.17159">
        <ele>932</ele>
        <time>2010-01-01T04:24:39Z</time>
      </trkpt>
      <trkpt lat="42.30984" lon="2.17152">
        <ele>930</ele>
        <time>2010-01-01T04:24:44Z</time>
      </trkpt>
      <trkpt lat="42.30973" lon="2.17146">
        <ele>929</ele>
        <time>2010-01-01T04:24:48Z</time>
      </trkpt>
      <trkpt lat="42.30962" lon="2.17151">
        <ele>928</ele>
        <time>2010-01-01T04:24:53Z</time>
      </trkpt>
      <trkpt lat="42.30954" lon="2.17162">
        <ele>926</ele>
        <time>2010-01-01T04:24:58Z</time>
      </trkpt>
      <trkpt lat="42.30945" lon="2.17168">
        <ele>924</ele>
        <time>2010-01-01T04:25:02Z</time>
      </trkpt>
      <trkpt lat="42.30936" lon="2.17173">
        <ele>924</ele>
        <time>2010-01-01T04:25:05Z</time>
      </trkpt>
      <trkpt lat="42.30927" lon="2.17169">
        <ele>924</ele>
        <time>2010-01-01T04:25:09Z</time>
      </trkpt>
      <trkpt lat="42.30919" lon="2.17179">
        <ele>924</ele>
        <time>2010-01-01T04:25:14Z</time>
      </trkpt>
      <trkpt lat="42.30909" lon="2.17182">
        <ele>924</ele>
        <time>2010-01-01T04:25:18Z</time>
      </trkpt>
      <trkpt lat="42.30898" lon="2.1718">
        <ele>924</ele>
        <time>2010-01-01T04:25:22Z</time>
      </trkpt>
      <trkpt lat="42.30889" lon="2.17171">
        <ele>923</ele>
        <time>2010-01-01T04:25:26Z</time>
      </trkpt>
      <trkpt lat="42.30881" lon="2.17159">
        <ele>923</ele>
        <time>2010-01-01T04:25:31Z</time>
      </trkpt>
      <trkpt lat="42.30873" lon="2.17148">
        <ele>924</ele>
        <time>2010-01-01T04:25:36Z</time>
      </trkpt>
      <trkpt lat="42.30869" lon="2.17136">
        <ele>924</ele>
        <time>2010-01-01T04:25:40Z</time>
      </trkpt>
      <trkpt lat="42.30862" lon="2.17125">
        <ele>925</ele>
        <time>2010-01-01T04:25:44Z</time>
      </trkpt>
      <trkpt lat="42.30857" lon="2.17114">
        <ele>924</ele>
        <time>2010-01-01T04:25:48Z</time>
      </trkpt>
      <trkpt lat="42.30859" lon="2.17101">
        <ele>925</ele>
        <time>2010-01-01T04:25:52Z</time>
      </trkpt>
      <trkpt lat="42.30865" lon="2.1709">
        <ele>925</ele>
        <time>2010-01-01T04:25:56Z</time>
      </trkpt>
      <trkpt lat="42.30867" lon="2.17077">
        <ele>926</ele>
        <time>2010-01-01T04:26:00Z</time>
      </trkpt>
      <trkpt lat="42.30861" lon="2.17066">
        <ele>926</ele>
        <time>2010-01-01T04:26:04Z</time>
      </trkpt>
      <trkpt lat="42.30854" lon="2.17058">
        <ele>925</ele>
        <time>2010-01-01T04:26:07Z</time>
      </trkpt>
      <trkpt lat="42.30842" lon="2.17057">
        <ele>925</ele>
        <time>2010-01-01T04:26:12Z</time>
      </trkpt>
      <trkpt lat="42.3083" lon="2.17058">
        <ele>924</ele>
        <time>2010-01-01T04:26:17Z</time>
      </trkpt>
      <trkpt lat="42.30821" lon="2.17064">
        <ele>923</ele>
        <time>2010-01-01T04:26:21Z</time>
      </trkpt>
      <trkpt lat="42.30813" lon="2.17071">
        <ele>922</ele>
        <time>2010-01-01T04:26:25Z</time>
      </trkpt>
      <trkpt lat="42.30807" lon="2.17083">
        <ele>922</ele>
        <time>2010-01-01T04:26:29Z</time>
      </trkpt>
      <trkpt lat="42.30795" lon="2.17086">
        <ele>920</ele>
        <time>2010-01-01T04:26:34Z</time>
      </trkpt>
      <trkpt lat="42.30786" lon="2.17083">
        <ele>919</ele>
        <time>2010-01-01T04:26:38Z</time>
      </trkpt>
      <trkpt lat="42.30776" lon="2.17078">
        <ele>918</ele>
        <time>2010-01-01T04:26:42Z</time>
      </trkpt>
      <trkpt lat="42.30766" lon="2.17082">
        <ele>918</ele>
        <time>2010-01-01T04:26:46Z</time>
      </trkpt>
      <trkpt lat="42.30754" lon="2.17088">
        <ele>918</ele>
        <time>2010-01-01T04:26:51Z</time>
      </trkpt>
      <trkpt lat="42.30744" lon="2.17094">
        <ele>920</ele>
        <time>2010-01-01T04:26:55Z</time>
      </trkpt>
      <trkpt lat="42.30732" lon="2.17095">
        <ele>922</ele>
        <time>2010-01-01T04:27:00Z</time>
      </trkpt>
      <trkpt lat="42.30722" lon="2.17092">
        <ele>923</ele>
        <time>2010-01-01T04:27:04Z</time>
      </trkpt>
      <trkpt lat="42.30713" lon="2.17083">
        <ele>923</ele>
        <time>2010-01-01T04:27:09Z</time>
      </trkpt>
      <trkpt lat="42.30704" lon="2.17075">
        <ele>924</ele>
        <time>2010-01-01T04:27:13Z</time>
      </trkpt>
      <trkpt lat="42.30695" lon="2.17072">
        <ele>926</ele>
        <time>2010-01-01T04:27:17Z</time>
      </trkpt>
      <trkpt lat="42.30683" lon="2.17072">
        <ele>930</ele>
        <time>2010-01-01T04:27:22Z</time>
      </trkpt>
      <trkpt lat="42.30672" lon="2.17069">
        <ele>932</ele>
        <time>2010-01-01T04:27:26Z</time>
      </trkpt>
      <trkpt lat="42.3066" lon="2.17065">
        <ele>934</ele>
        <time>2010-01-01T04:27:31Z</time>
      </trkpt>
      <trkpt lat="42.30648" lon="2.17057">
        <ele>932</ele>
        <time>2010-01-01T04:27:36Z</time>
      </trkpt>
      <trkpt lat="42.3064" lon="2.17047">
        <ele>930</ele>
        <time>2010-01-01T04:27:41Z</time>
      </trkpt>
      <trkpt lat="42.3063" lon="2.17039">
        <ele>929</ele>
        <time>2010-01-01T04:27:46Z</time>
      </trkpt>
      <trkpt lat="42.30624" lon="2.17027">
        <ele>928</ele>
        <time>2010-01-01T04:27:50Z</time>
      </trkpt>
      <trkpt lat="42.30621" lon="2.17014">
        <ele>926</ele>
        <time>2010-01-01T04:27:54Z</time>
      </trkpt>
      <trkpt lat="42.30614" lon="2.17003">
        <ele>926</ele>
        <time>2010-01-01T04:27:58Z</time>
      </trkpt>
      <trkpt lat="42.30605" lon="2.16993">
        <ele>926</ele>
        <time>2010-01-01T04:28:03Z</time>
      </trkpt>
      <trkpt lat="42.30598" lon="2.16982">
        <ele>925</ele>
        <time>2010-01-01T04:28:07Z</time>
      </trkpt>
      <trkpt lat="42.30594" lon="2.1697">
        <ele>923</ele>
        <time>2010-01-01T04:28:11Z</time>
      </trkpt>
      <trkpt lat="42.3059" lon="2.16958">
        <ele>922</ele>
        <time>2010-01-01T04:28:15Z</time>
      </trkpt>
      <trkpt lat="42.30589" lon="2.16945">
        <ele>920</ele>
        <time>2010-01-01T04:28:19Z</time>
      </trkpt>
      <trkpt lat="42.30591" lon="2.16929">
        <ele>918</ele>
        <time>2010-01-01T04:28:24Z</time>
      </trkpt>
      <trkpt lat="42.30593" lon="2.16916">
        <ele>917</ele>
        <time>2010-01-01T04:28:27Z</time>
      </trkpt>
      <trkpt lat="42.3059" lon="2.16904">
        <ele>915</ele>
        <time>2010-01-01T04:28:31Z</time>
      </trkpt>
      <trkpt lat="42.30585" lon="2.16893">
        <ele>914</ele>
        <time>2010-01-01T04:28:35Z</time>
      </trkpt>
      <trkpt lat="42.30577" lon="2.16886">
        <ele>914</ele>
        <time>2010-01-01T04:28:39Z</time>
      </trkpt>
      <trkpt lat="42.30572" lon="2.16872">
        <ele>913</ele>
        <time>2010-01-01T04:28:44Z</time>
      </trkpt>
      <trkpt lat="42.30565" lon="2.16861">
        <ele>913</ele>
        <time>2010-01-01T04:28:48Z</time>
      </trkpt>
      <trkpt lat="42.30559" lon="2.16853">
        <ele>912</ele>
        <time>2010-01-01T04:28:51Z</time>
      </trkpt>
      <trkpt lat="42.30558" lon="2.1685">
        <ele>912</ele>
        <time>2010-01-01T04:28:52Z</time>
      </trkpt>
      <trkpt lat="42.30557" lon="2.16847">
        <ele>912</ele>
        <time>2010-01-01T04:28:53Z</time>
      </trkpt>
      <trkpt lat="42.30555" lon="2.16845">
        <ele>912</ele>
        <time>2010-01-01T04:28:54Z</time>
      </trkpt>
      <trkpt lat="42.30553" lon="2.16842">
        <ele>912</ele>
        <time>2010-01-01T04:28:55Z</time>
      </trkpt>
      <trkpt lat="42.30551" lon="2.16839">
        <ele>912</ele>
        <time>2010-01-01T04:28:57Z</time>
      </trkpt>
      <trkpt lat="42.30541" lon="2.16831">
        <ele>913</ele>
        <time>2010-01-01T04:29:01Z</time>
      </trkpt>
      <trkpt lat="42.30532" lon="2.16821">
        <ele>913</ele>
        <time>2010-01-01T04:29:06Z</time>
      </trkpt>
      <trkpt lat="42.30523" lon="2.16813">
        <ele>913</ele>
        <time>2010-01-01T04:29:10Z</time>
      </trkpt>
      <trkpt lat="42.30521" lon="2.16811">
        <ele>913</ele>
        <time>2010-01-01T04:29:11Z</time>
      </trkpt>
      <trkpt lat="42.30518" lon="2.1681">
        <ele>913</ele>
        <time>2010-01-01T04:29:12Z</time>
      </trkpt>
      <trkpt lat="42.30516" lon="2.16808">
        <ele>913</ele>
        <time>2010-01-01T04:29:13Z</time>
      </trkpt>
      <trkpt lat="42.30514" lon="2.16806">
        <ele>913</ele>
        <time>2010-01-01T04:29:14Z</time>
      </trkpt>
      <trkpt lat="42.30511" lon="2.16804">
        <ele>913</ele>
        <time>2010-01-01T04:29:15Z</time>
      </trkpt>
      <trkpt lat="42.3051" lon="2.16802">
        <ele>913</ele>
        <time>2010-01-01T04:29:16Z</time>
      </trkpt>
      <trkpt lat="42.30505" lon="2.16799">
        <ele>913</ele>
        <time>2010-01-01T04:29:19Z</time>
      </trkpt>
      <trkpt lat="42.30503" lon="2.16796">
        <ele>913</ele>
        <time>2010-01-01T04:29:20Z</time>
      </trkpt>
      <trkpt lat="42.305" lon="2.16794">
        <ele>913</ele>
        <time>2010-01-01T04:29:21Z</time>
      </trkpt>
      <trkpt lat="42.30499" lon="2.16792">
        <ele>913</ele>
        <time>2010-01-01T04:29:22Z</time>
      </trkpt>
      <trkpt lat="42.30493" lon="2.16786">
        <ele>913</ele>
        <time>2010-01-01T04:29:25Z</time>
      </trkpt>
      <trkpt lat="42.3049" lon="2.16784">
        <ele>913</ele>
        <time>2010-01-01T04:29:26Z</time>
      </trkpt>
      <trkpt lat="42.30488" lon="2.16783">
        <ele>913</ele>
        <time>2010-01-01T04:29:27Z</time>
      </trkpt>
      <trkpt lat="42.30485" lon="2.16781">
        <ele>914</ele>
        <time>2010-01-01T04:29:28Z</time>
      </trkpt>
      <trkpt lat="42.30483" lon="2.1678">
        <ele>914</ele>
        <time>2010-01-01T04:29:29Z</time>
      </trkpt>
      <trkpt lat="42.3048" lon="2.16778">
        <ele>914</ele>
        <time>2010-01-01T04:29:31Z</time>
      </trkpt>
      <trkpt lat="42.30477" lon="2.16777">
        <ele>914</ele>
        <time>2010-01-01T04:29:32Z</time>
      </trkpt>
      <trkpt lat="42.30475" lon="2.16775">
        <ele>914</ele>
        <time>2010-01-01T04:29:33Z</time>
      </trkpt>
      <trkpt lat="42.30473" lon="2.16773">
        <ele>914</ele>
        <time>2010-01-01T04:29:34Z</time>
      </trkpt>
      <trkpt lat="42.30465" lon="2.16768">
        <ele>914</ele>
        <time>2010-01-01T04:29:37Z</time>
      </trkpt>
      <trkpt lat="42.30463" lon="2.16767">
        <ele>914</ele>
        <time>2010-01-01T04:29:38Z</time>
      </trkpt>
      <trkpt lat="42.3046" lon="2.16765">
        <ele>915</ele>
        <time>2010-01-01T04:29:39Z</time>
      </trkpt>
      <trkpt lat="42.30457" lon="2.16764">
        <ele>915</ele>
        <time>2010-01-01T04:29:40Z</time>
      </trkpt>
      <trkpt lat="42.30455" lon="2.16763">
        <ele>915</ele>
        <time>2010-01-01T04:29:42Z</time>
      </trkpt>
      <trkpt lat="42.30444" lon="2.16759">
        <ele>915</ele>
        <time>2010-01-01T04:29:46Z</time>
      </trkpt>
      <trkpt lat="42.30435" lon="2.16754">
        <ele>914</ele>
        <time>2010-01-01T04:29:50Z</time>
      </trkpt>
      <trkpt lat="42.30426" lon="2.16751">
        <ele>913</ele>
        <time>2010-01-01T04:29:54Z</time>
      </trkpt>
      <trkpt lat="42.30415" lon="2.16746">
        <ele>912</ele>
        <time>2010-01-01T04:29:58Z</time>
      </trkpt>
      <trkpt lat="42.30413" lon="2.16745">
        <ele>912</ele>
        <time>2010-01-01T04:29:59Z</time>
      </trkpt>
      <trkpt lat="42.30403" lon="2.1674">
        <ele>912</ele>
        <time>2010-01-01T04:30:03Z</time>
      </trkpt>
      <trkpt lat="42.30393" lon="2.16736">
        <ele>912</ele>
        <time>2010-01-01T04:30:08Z</time>
      </trkpt>
      <trkpt lat="42.30384" lon="2.16729">
        <ele>912</ele>
        <time>2010-01-01T04:30:12Z</time>
      </trkpt>
      <trkpt lat="42.30374" lon="2.16723">
        <ele>912</ele>
        <time>2010-01-01T04:30:16Z</time>
      </trkpt>
      <trkpt lat="42.30365" lon="2.1672">
        <ele>911</ele>
        <time>2010-01-01T04:30:20Z</time>
      </trkpt>
      <trkpt lat="42.30358" lon="2.16715">
        <ele>911</ele>
        <time>2010-01-01T04:30:23Z</time>
      </trkpt>
      <trkpt lat="42.30352" lon="2.16714">
        <ele>910</ele>
        <time>2010-01-01T04:30:25Z</time>
      </trkpt>
      <trkpt lat="42.3035" lon="2.16712">
        <ele>909</ele>
        <time>2010-01-01T04:30:26Z</time>
      </trkpt>
      <trkpt lat="42.30347" lon="2.16711">
        <ele>909</ele>
        <time>2010-01-01T04:30:28Z</time>
      </trkpt>
      <trkpt lat="42.30344" lon="2.1671">
        <ele>909</ele>
        <time>2010-01-01T04:30:29Z</time>
      </trkpt>
      <trkpt lat="42.30342" lon="2.16709">
        <ele>908</ele>
        <time>2010-01-01T04:30:30Z</time>
      </trkpt>
      <trkpt lat="42.30339" lon="2.16708">
        <ele>908</ele>
        <time>2010-01-01T04:30:31Z</time>
      </trkpt>
      <trkpt lat="42.30337" lon="2.16707">
        <ele>908</ele>
        <time>2010-01-01T04:30:32Z</time>
      </trkpt>
      <trkpt lat="42.30334" lon="2.16707">
        <ele>908</ele>
        <time>2010-01-01T04:30:33Z</time>
      </trkpt>
      <trkpt lat="42.30331" lon="2.16706">
        <ele>907</ele>
        <time>2010-01-01T04:30:34Z</time>
      </trkpt>
      <trkpt lat="42.30328" lon="2.16705">
        <ele>907</ele>
        <time>2010-01-01T04:30:36Z</time>
      </trkpt>
      <trkpt lat="42.30325" lon="2.16703">
        <ele>907</ele>
        <time>2010-01-01T04:30:37Z</time>
      </trkpt>
      <trkpt lat="42.30322" lon="2.16701">
        <ele>907</ele>
        <time>2010-01-01T04:30:38Z</time>
      </trkpt>
      <trkpt lat="42.3032" lon="2.167">
        <ele>907</ele>
        <time>2010-01-01T04:30:39Z</time>
      </trkpt>
      <trkpt lat="42.30317" lon="2.16698">
        <ele>907</ele>
        <time>2010-01-01T04:30:40Z</time>
      </trkpt>
      <trkpt lat="42.30314" lon="2.16696">
        <ele>907</ele>
        <time>2010-01-01T04:30:41Z</time>
      </trkpt>
      <trkpt lat="42.30311" lon="2.16695">
        <ele>907</ele>
        <time>2010-01-01T04:30:43Z</time>
      </trkpt>
      <trkpt lat="42.30309" lon="2.16694">
        <ele>907</ele>
        <time>2010-01-01T04:30:44Z</time>
      </trkpt>
      <trkpt lat="42.30306" lon="2.16692">
        <ele>907</ele>
        <time>2010-01-01T04:30:45Z</time>
      </trkpt>
      <trkpt lat="42.30304" lon="2.16691">
        <ele>907</ele>
        <time>2010-01-01T04:30:46Z</time>
      </trkpt>
      <trkpt lat="42.30301" lon="2.1669">
        <ele>907</ele>
        <time>2010-01-01T04:30:47Z</time>
      </trkpt>
      <trkpt lat="42.30299" lon="2.16688">
        <ele>907</ele>
        <time>2010-01-01T04:30:48Z</time>
      </trkpt>
      <trkpt lat="42.30296" lon="2.16686">
        <ele>907</ele>
        <time>2010-01-01T04:30:49Z</time>
      </trkpt>
      <trkpt lat="42.30294" lon="2.16683">
        <ele>907</ele>
        <time>2010-01-01T04:30:51Z</time>
      </trkpt>
      <trkpt lat="42.30292" lon="2.1668">
        <ele>907</ele>
        <time>2010-01-01T04:30:52Z</time>
      </trkpt>
      <trkpt lat="42.3029" lon="2.16676">
        <ele>907</ele>
        <time>2010-01-01T04:30:53Z</time>
      </trkpt>
      <trkpt lat="42.3029" lon="2.16672">
        <ele>907</ele>
        <time>2010-01-01T04:30:54Z</time>
      </trkpt>
      <trkpt lat="42.30289" lon="2.16668">
        <ele>907</ele>
        <time>2010-01-01T04:30:56Z</time>
      </trkpt>
      <trkpt lat="42.30288" lon="2.16664">
        <ele>908</ele>
        <time>2010-01-01T04:30:57Z</time>
      </trkpt>
      <trkpt lat="42.30288" lon="2.16661">
        <ele>908</ele>
        <time>2010-01-01T04:30:58Z</time>
      </trkpt>
      <trkpt lat="42.30287" lon="2.16658">
        <ele>909</ele>
        <time>2010-01-01T04:30:59Z</time>
      </trkpt>
      <trkpt lat="42.30285" lon="2.16656">
        <ele>909</ele>
        <time>2010-01-01T04:31:00Z</time>
      </trkpt>
      <trkpt lat="42.30282" lon="2.16655">
        <ele>909</ele>
        <time>2010-01-01T04:31:01Z</time>
      </trkpt>
      <trkpt lat="42.30268" lon="2.16659">
        <ele>908</ele>
        <time>2010-01-01T04:31:07Z</time>
      </trkpt>
      <trkpt lat="42.30258" lon="2.16661">
        <ele>908</ele>
        <time>2010-01-01T04:31:11Z</time>
      </trkpt>
      <trkpt lat="42.30254" lon="2.16662">
        <ele>908</ele>
        <time>2010-01-01T04:31:12Z</time>
      </trkpt>
      <trkpt lat="42.30252" lon="2.16663">
        <ele>908</ele>
        <time>2010-01-01T04:31:13Z</time>
      </trkpt>
      <trkpt lat="42.3025" lon="2.16663">
        <ele>908</ele>
        <time>2010-01-01T04:31:14Z</time>
      </trkpt>
      <trkpt lat="42.30248" lon="2.16664">
        <ele>908</ele>
        <time>2010-01-01T04:31:15Z</time>
      </trkpt>
      <trkpt lat="42.30245" lon="2.16665">
        <ele>908</ele>
        <time>2010-01-01T04:31:16Z</time>
      </trkpt>
      <trkpt lat="42.30244" lon="2.16666">
        <ele>908</ele>
        <time>2010-01-01T04:31:17Z</time>
      </trkpt>
      <trkpt lat="42.30241" lon="2.16667">
        <ele>908</ele>
        <time>2010-01-01T04:31:18Z</time>
      </trkpt>
      <trkpt lat="42.30239" lon="2.16667">
        <ele>908</ele>
        <time>2010-01-01T04:31:19Z</time>
      </trkpt>
      <trkpt lat="42.30237" lon="2.16669">
        <ele>908</ele>
        <time>2010-01-01T04:31:20Z</time>
      </trkpt>
      <trkpt lat="42.30234" lon="2.1667">
        <ele>908</ele>
        <time>2010-01-01T04:31:21Z</time>
      </trkpt>
      <trkpt lat="42.30232" lon="2.16671">
        <ele>908</ele>
        <time>2010-01-01T04:31:22Z</time>
      </trkpt>
      <trkpt lat="42.30229" lon="2.16672">
        <ele>908</ele>
        <time>2010-01-01T04:31:23Z</time>
      </trkpt>
      <trkpt lat="42.30227" lon="2.16673">
        <ele>908</ele>
        <time>2010-01-01T04:31:24Z</time>
      </trkpt>
      <trkpt lat="42.30225" lon="2.16675">
        <ele>908</ele>
        <time>2010-01-01T04:31:25Z</time>
      </trkpt>
      <trkpt lat="42.30223" lon="2.16676">
        <ele>908</ele>
        <time>2010-01-01T04:31:26Z</time>
      </trkpt>
      <trkpt lat="42.30221" lon="2.16677">
        <ele>908</ele>
        <time>2010-01-01T04:31:27Z</time>
      </trkpt>
      <trkpt lat="42.30211" lon="2.16681">
        <ele>908</ele>
        <time>2010-01-01T04:31:31Z</time>
      </trkpt>
      <trkpt lat="42.30201" lon="2.16686">
        <ele>908</ele>
        <time>2010-01-01T04:31:35Z</time>
      </trkpt>
      <trkpt lat="42.30192" lon="2.16688">
        <ele>908</ele>
        <time>2010-01-01T04:31:39Z</time>
      </trkpt>
      <trkpt lat="42.30182" lon="2.16692">
        <ele>908</ele>
        <time>2010-01-01T04:31:43Z</time>
      </trkpt>
      <trkpt lat="42.30171" lon="2.16697">
        <ele>907</ele>
        <time>2010-01-01T04:31:48Z</time>
      </trkpt>
      <trkpt lat="42.30167" lon="2.16698">
        <ele>907</ele>
        <time>2010-01-01T04:31:49Z</time>
      </trkpt>
      <trkpt lat="42.30164" lon="2.16699">
        <ele>907</ele>
        <time>2010-01-01T04:31:50Z</time>
      </trkpt>
      <trkpt lat="42.30161" lon="2.167">
        <ele>907</ele>
        <time>2010-01-01T04:31:51Z</time>
      </trkpt>
      <trkpt lat="42.30158" lon="2.16701">
        <ele>907</ele>
        <time>2010-01-01T04:31:53Z</time>
      </trkpt>
      <trkpt lat="42.30153" lon="2.16703">
        <ele>907</ele>
        <time>2010-01-01T04:31:55Z</time>
      </trkpt>
      <trkpt lat="42.30157" lon="2.167">
        <ele>907</ele>
        <time>2010-01-01T04:31:56Z</time>
      </trkpt>
      <trkpt lat="42.3016" lon="2.16699">
        <ele>907</ele>
        <time>2010-01-01T04:31:58Z</time>
      </trkpt>
      <trkpt lat="42.30163" lon="2.16698">
        <ele>907</ele>
        <time>2010-01-01T04:31:59Z</time>
      </trkpt>
      <trkpt lat="42.30166" lon="2.16698">
        <ele>907</ele>
        <time>2010-01-01T04:32:00Z</time>
      </trkpt>
      <trkpt lat="42.3017" lon="2.16698">
        <ele>907</ele>
        <time>2010-01-01T04:32:02Z</time>
      </trkpt>
      <trkpt lat="42.30173" lon="2.16698">
        <ele>907</ele>
        <time>2010-01-01T04:32:03Z</time>
      </trkpt>
      <trkpt lat="42.30176" lon="2.16699">
        <ele>907</ele>
        <time>2010-01-01T04:32:04Z</time>
      </trkpt>
      <trkpt lat="42.30179" lon="2.16699">
        <ele>907</ele>
        <time>2010-01-01T04:32:05Z</time>
      </trkpt>
      <trkpt lat="42.30182" lon="2.16699">
        <ele>907</ele>
        <time>2010-01-01T04:32:07Z</time>
      </trkpt>
      <trkpt lat="42.30185" lon="2.167">
        <ele>907</ele>
        <time>2010-01-01T04:32:08Z</time>
      </trkpt>
      <trkpt lat="42.30188" lon="2.16702">
        <ele>907</ele>
        <time>2010-01-01T04:32:09Z</time>
      </trkpt>
      <trkpt lat="42.30188" lon="2.16706">
        <ele>906</ele>
        <time>2010-01-01T04:32:10Z</time>
      </trkpt>
      <trkpt lat="42.30188" lon="2.16709">
        <ele>906</ele>
        <time>2010-01-01T04:32:11Z</time>
      </trkpt>
      <trkpt lat="42.30186" lon="2.16712">
        <ele>906</ele>
        <time>2010-01-01T04:32:12Z</time>
      </trkpt>
    </trkseg>
  </trk>
</gpx>